<?xml version='1.0' encoding='UTF-8'?><gpx version="1.1" creator="JPX - https://github.com/jenetics/jpx" xmlns="http://www.topografix.com/GPX/1/1"><trk><trkseg><trkpt lat="44.38678118189177" lon="7.544999096923697"><ele>548.0</ele><time>2026-05-02T13:05:16Z</time></trkpt><trkpt lat="44.386836284987936" lon="7.545134116899425"><ele>548.0</ele><time>2026-05-02T13:05:19Z</time></trkpt><trkpt lat="44.386927934628325" lon="7.545219152077167"><ele>548.0</ele><time>2026-05-02T13:05:20Z</time></trkpt><trkpt lat="44.38706084385747" lon="7.545338067421523"><ele>548.0</ele><time>2026-05-02T13:05:21Z</time></trkpt><trkpt lat="44.38715055936869" lon="7.545453833026094"><ele>548.1999999999999</ele><time>2026-05-02T13:05:22Z</time></trkpt><trkpt lat="44.38723541208271" lon="7.545540136525271"><ele>548.4</ele><time>2026-05-02T13:05:23Z</time></trkpt><trkpt lat="44.38731334319548" lon="7.545619400094154"><ele>548.5999999999999</ele><time>2026-05-02T13:05:24Z</time></trkpt><trkpt lat="44.387395306152165" lon="7.545703728946052"><ele>548.8</ele><time>2026-05-02T13:05:25Z</time></trkpt><trkpt lat="44.38747268416" lon="7.545782729744865"><ele>549.0</ele><time>2026-05-02T13:05:26Z</time></trkpt><trkpt lat="44.38754078588318" lon="7.5458522096593"><ele>549.0</ele><time>2026-05-02T13:05:27Z</time></trkpt><trkpt lat="44.38760820465441" lon="7.545920992804755"><ele>549.0</ele><time>2026-05-02T13:05:28Z</time></trkpt><trkpt lat="44.38767626195372" lon="7.545990427397022"><ele>549.0</ele><time>2026-05-02T13:05:29Z</time></trkpt><trkpt lat="44.38772684529923" lon="7.546049304072374"><ele>549.0</ele><time>2026-05-02T13:05:30Z</time></trkpt><trkpt lat="44.387791324635664" lon="7.546116880221629"><ele>549.0</ele><time>2026-05-02T13:05:31Z</time></trkpt><trkpt lat="44.38786734542989" lon="7.546184681104351"><ele>549.0</ele><time>2026-05-02T13:05:32Z</time></trkpt><trkpt lat="44.387940955982714" lon="7.546260478110803"><ele>548.8</ele><time>2026-05-02T13:05:33Z</time></trkpt><trkpt lat="44.38805321350273" lon="7.546374757405879"><ele>548.5999999999999</ele><time>2026-05-02T13:05:34Z</time></trkpt><trkpt lat="44.3881532862749" lon="7.546501314436968"><ele>548.4</ele><time>2026-05-02T13:05:34.999Z</time></trkpt><trkpt lat="44.388224637295906" lon="7.546573021739843"><ele>548.1999999999999</ele><time>2026-05-02T13:05:35.999Z</time></trkpt><trkpt lat="44.38827641853521" lon="7.546664567313114"><ele>548.0</ele><time>2026-05-02T13:05:36.999Z</time></trkpt><trkpt lat="44.388342597476026" lon="7.546708513211862"><ele>548.0</ele><time>2026-05-02T13:05:37.999Z</time></trkpt><trkpt lat="44.388397831605246" lon="7.546772544212366"><ele>548.0</ele><time>2026-05-02T13:05:38.999Z</time></trkpt><trkpt lat="44.38849070899942" lon="7.546869604775455"><ele>548.0</ele><time>2026-05-02T13:05:40.999Z</time></trkpt><trkpt lat="44.38855697688656" lon="7.5469136259935"><ele>548.0</ele><time>2026-05-02T13:05:42.999Z</time></trkpt><trkpt lat="44.38863450725358" lon="7.546983536867512"><ele>548.0</ele><time>2026-05-02T13:05:44.999Z</time></trkpt><trkpt lat="44.38869081588208" lon="7.54702839561572"><ele>548.0</ele><time>2026-05-02T13:05:45.999Z</time></trkpt><trkpt lat="44.388775650287755" lon="7.547126239541706"><ele>547.8333333333333</ele><time>2026-05-02T13:05:47.999Z</time></trkpt><trkpt lat="44.388775599739105" lon="7.547226941393218"><ele>547.6666666666666</ele><time>2026-05-02T13:05:48.999Z</time></trkpt><trkpt lat="44.388746644857996" lon="7.547327184699487"><ele>547.5</ele><time>2026-05-02T13:05:49.999Z</time></trkpt><trkpt lat="44.3886935095779" lon="7.54742587195514"><ele>547.3333333333334</ele><time>2026-05-02T13:05:50.999Z</time></trkpt><trkpt lat="44.388623674766436" lon="7.547543804577113"><ele>547.1666666666667</ele><time>2026-05-02T13:05:51.999Z</time></trkpt><trkpt lat="44.388570639843316" lon="7.547660041963505"><ele>547.0</ele><time>2026-05-02T13:05:52.999Z</time></trkpt><trkpt lat="44.38849876668339" lon="7.547796670122194"><ele>547.0</ele><time>2026-05-02T13:05:53.999Z</time></trkpt><trkpt lat="44.388390181642066" lon="7.547969698494985"><ele>547.0</ele><time>2026-05-02T13:05:54.999Z</time></trkpt><trkpt lat="44.3882808664982" lon="7.548194617079203"><ele>547.0</ele><time>2026-05-02T13:05:55.999Z</time></trkpt><trkpt lat="44.38818583098352" lon="7.548373835169476"><ele>547.0</ele><time>2026-05-02T13:05:56.999Z</time></trkpt><trkpt lat="44.3881148265588" lon="7.548511942833456"><ele>547.0</ele><time>2026-05-02T13:05:57.999Z</time></trkpt><trkpt lat="44.38805549974852" lon="7.548621129295987"><ele>547.0</ele><time>2026-05-02T13:05:58.999Z</time></trkpt><trkpt lat="44.38800095990179" lon="7.548690762525061"><ele>547.0</ele><time>2026-05-02T13:05:59.999Z</time></trkpt><trkpt lat="44.387940607645945" lon="7.5487524805328325"><ele>547.0</ele><time>2026-05-02T13:06:00.999Z</time></trkpt><trkpt lat="44.38786232644048" lon="7.548798152162813"><ele>546.5</ele><time>2026-05-02T13:06:01.999Z</time></trkpt><trkpt lat="44.38779453899453" lon="7.548856403200278"><ele>546.0</ele><time>2026-05-02T13:06:02.999Z</time></trkpt><trkpt lat="44.3877613594131" lon="7.548940219095321"><ele>545.5</ele><time>2026-05-02T13:06:03.999Z</time></trkpt><trkpt lat="44.38774861507838" lon="7.549028226061863"><ele>545.0</ele><time>2026-05-02T13:06:04.999Z</time></trkpt><trkpt lat="44.387747659633156" lon="7.549182701378168"><ele>544.5</ele><time>2026-05-02T13:06:06.999Z</time></trkpt><trkpt lat="44.38771629781132" lon="7.549294935742302"><ele>544.0</ele><time>2026-05-02T13:06:08.999Z</time></trkpt><trkpt lat="44.387669308133646" lon="7.5494043688197845"><ele>544.0</ele><time>2026-05-02T13:06:10.999Z</time></trkpt><trkpt lat="44.38759883935984" lon="7.549550437801036"><ele>544.0</ele><time>2026-05-02T13:06:12.999Z</time></trkpt><trkpt lat="44.38753590505231" lon="7.549657198803983"><ele>544.0</ele><time>2026-05-02T13:06:14.999Z</time></trkpt><trkpt lat="44.387478412935295" lon="7.549772371483777"><ele>544.0</ele><time>2026-05-02T13:06:16.999Z</time></trkpt><trkpt lat="44.387427664402956" lon="7.549864445900113"><ele>544.0</ele><time>2026-05-02T13:06:18.999Z</time></trkpt><trkpt lat="44.38738614646411" lon="7.549930816009226"><ele>544.0</ele><time>2026-05-02T13:06:20.999Z</time></trkpt><trkpt lat="44.3873486948064" lon="7.550062341432958"><ele>544.0</ele><time>2026-05-02T13:06:22.999Z</time></trkpt><trkpt lat="44.38736836596175" lon="7.550198760984497"><ele>544.0</ele><time>2026-05-02T13:06:24.999Z</time></trkpt><trkpt lat="44.38743784298698" lon="7.5503189935034705"><ele>544.0</ele><time>2026-05-02T13:06:26.999Z</time></trkpt><trkpt lat="44.38751052480421" lon="7.550382092709728"><ele>544.0</ele><time>2026-05-02T13:06:27.999Z</time></trkpt><trkpt lat="44.3876124957662" lon="7.550470001068558"><ele>542.0</ele><time>2026-05-02T13:06:28.999Z</time></trkpt><trkpt lat="44.38774796142525" lon="7.5505868167165096"><ele>540.0</ele><time>2026-05-02T13:06:29.999Z</time></trkpt><trkpt lat="44.38788464504315" lon="7.550704682632163"><ele>538.0</ele><time>2026-05-02T13:06:30.999Z</time></trkpt><trkpt lat="44.38804200329997" lon="7.550831700309941"><ele>538.0</ele><time>2026-05-02T13:06:31.999Z</time></trkpt><trkpt lat="44.38821383448608" lon="7.550987607512889"><ele>538.0</ele><time>2026-05-02T13:06:32.999Z</time></trkpt><trkpt lat="44.38838902882834" lon="7.5511495761212135"><ele>538.0</ele><time>2026-05-02T13:06:33.999Z</time></trkpt><trkpt lat="44.38855002931475" lon="7.551286064649076"><ele>536.75</ele><time>2026-05-02T13:06:34.999Z</time></trkpt><trkpt lat="44.388685662882445" lon="7.551399335394657"><ele>535.5</ele><time>2026-05-02T13:06:35.999Z</time></trkpt><trkpt lat="44.38881071345659" lon="7.551508780325073"><ele>534.25</ele><time>2026-05-02T13:06:36.999Z</time></trkpt><trkpt lat="44.38892933648677" lon="7.55160992855017"><ele>533.0</ele><time>2026-05-02T13:06:37.999Z</time></trkpt><trkpt lat="44.389047673136965" lon="7.551710975057562"><ele>533.0</ele><time>2026-05-02T13:06:38.999Z</time></trkpt><trkpt lat="44.389174718080326" lon="7.551820351771822"><ele>533.0</ele><time>2026-05-02T13:06:39.999Z</time></trkpt><trkpt lat="44.38930924674679" lon="7.5519389775114245"><ele>533.0</ele><time>2026-05-02T13:06:40.999Z</time></trkpt><trkpt lat="44.38945097349279" lon="7.552059836612386"><ele>530.3333333333333</ele><time>2026-05-02T13:06:41.999Z</time></trkpt><trkpt lat="44.38960285051718" lon="7.552187773484794"><ele>527.6666666666666</ele><time>2026-05-02T13:06:42.999Z</time></trkpt><trkpt lat="44.38975047970036" lon="7.552318049805201"><ele>525.0</ele><time>2026-05-02T13:06:43.999Z</time></trkpt><trkpt lat="44.389907910263" lon="7.552455024591827"><ele>525.0</ele><time>2026-05-02T13:06:44.999Z</time></trkpt><trkpt lat="44.39007115833437" lon="7.552592700439395"><ele>525.0</ele><time>2026-05-02T13:06:45.999Z</time></trkpt><trkpt lat="44.390227902155544" lon="7.552735687806494"><ele>525.0</ele><time>2026-05-02T13:06:46.999Z</time></trkpt><trkpt lat="44.39036640802452" lon="7.552861137938877"><ele>523.75</ele><time>2026-05-02T13:06:47.999Z</time></trkpt><trkpt lat="44.390488810567426" lon="7.552970738427378"><ele>522.5</ele><time>2026-05-02T13:06:48.999Z</time></trkpt><trkpt lat="44.39059459134715" lon="7.553073591420028"><ele>521.25</ele><time>2026-05-02T13:06:49.999Z</time></trkpt><trkpt lat="44.39069232110683" lon="7.5531708142159415"><ele>520.0</ele><time>2026-05-02T13:06:50.999Z</time></trkpt><trkpt lat="44.390779308033004" lon="7.553261992181726"><ele>520.0</ele><time>2026-05-02T13:06:51.999Z</time></trkpt><trkpt lat="44.390859669596345" lon="7.553347234633349"><ele>520.0</ele><time>2026-05-02T13:06:52.999Z</time></trkpt><trkpt lat="44.39093752309345" lon="7.553430498889383"><ele>520.0</ele><time>2026-05-02T13:06:53.999Z</time></trkpt><trkpt lat="44.391009770220535" lon="7.553508532331779"><ele>520.0</ele><time>2026-05-02T13:06:54.999Z</time></trkpt><trkpt lat="44.391087664554824" lon="7.553582491480807"><ele>520.0</ele><time>2026-05-02T13:06:55.999Z</time></trkpt><trkpt lat="44.39116582195993" lon="7.553663818301877"><ele>518.25</ele><time>2026-05-02T13:06:56.999Z</time></trkpt><trkpt lat="44.391264064682815" lon="7.55376487420571"><ele>516.5</ele><time>2026-05-02T13:06:57.999Z</time></trkpt><trkpt lat="44.39137745072721" lon="7.55388026654196"><ele>514.75</ele><time>2026-05-02T13:06:58.999Z</time></trkpt><trkpt lat="44.391494851436214" lon="7.5539963906284155"><ele>513.0</ele><time>2026-05-02T13:06:59.999Z</time></trkpt><trkpt lat="44.39161994806025" lon="7.554117374954302"><ele>513.0</ele><time>2026-05-02T13:07:00.999Z</time></trkpt><trkpt lat="44.39172974108168" lon="7.554227655333239"><ele>513.0</ele><time>2026-05-02T13:07:01.999Z</time></trkpt><trkpt lat="44.39182242702782" lon="7.5543312812432335"><ele>513.0</ele><time>2026-05-02T13:07:02.999Z</time></trkpt><trkpt lat="44.39189859859829" lon="7.554429341307552"><ele>513.0</ele><time>2026-05-02T13:07:03.999Z</time></trkpt><trkpt lat="44.39197602005303" lon="7.554524820224988"><ele>512.4</ele><time>2026-05-02T13:07:04.999Z</time></trkpt><trkpt lat="44.392045006830664" lon="7.554620749844578"><ele>511.79999999999995</ele><time>2026-05-02T13:07:05.999Z</time></trkpt><trkpt lat="44.392115567526034" lon="7.554741552262251"><ele>511.2</ele><time>2026-05-02T13:07:06.999Z</time></trkpt><trkpt lat="44.39216712706574" lon="7.554846605577619"><ele>510.6</ele><time>2026-05-02T13:07:07.999Z</time></trkpt><trkpt lat="44.392225639164074" lon="7.554943800790175"><ele>510.0</ele><time>2026-05-02T13:07:08.999Z</time></trkpt><trkpt lat="44.392231048928394" lon="7.555121079503911"><ele>510.0</ele><time>2026-05-02T13:07:09.999Z</time></trkpt><trkpt lat="44.39224771382354" lon="7.555304965472127"><ele>510.0</ele><time>2026-05-02T13:07:10.999Z</time></trkpt><trkpt lat="44.392243197302435" lon="7.5554853447224275"><ele>510.0</ele><time>2026-05-02T13:07:11.999Z</time></trkpt><trkpt lat="44.39220711937338" lon="7.555646988516218"><ele>510.0</ele><time>2026-05-02T13:07:12.999Z</time></trkpt><trkpt lat="44.392131600628446" lon="7.555849905045386"><ele>506.5</ele><time>2026-05-02T13:07:13.999Z</time></trkpt><trkpt lat="44.39202797391598" lon="7.556091182409355"><ele>503.0</ele><time>2026-05-02T13:07:14.999Z</time></trkpt><trkpt lat="44.391908938195456" lon="7.556396854221439"><ele>502.0</ele><time>2026-05-02T13:07:15.999Z</time></trkpt><trkpt lat="44.391783936946695" lon="7.556742122528652"><ele>501.0</ele><time>2026-05-02T13:07:16.999Z</time></trkpt><trkpt lat="44.3916809923157" lon="7.557019892308231"><ele>501.66666666666663</ele><time>2026-05-02T13:07:17.999Z</time></trkpt><trkpt lat="44.39160063979376" lon="7.557249934993255"><ele>502.3333333333333</ele><time>2026-05-02T13:07:18.999Z</time></trkpt><trkpt lat="44.391523786788895" lon="7.557473785791435"><ele>503.0</ele><time>2026-05-02T13:07:19.999Z</time></trkpt><trkpt lat="44.39144618294903" lon="7.557697178147134"><ele>502.5</ele><time>2026-05-02T13:07:20.999Z</time></trkpt><trkpt lat="44.39138254174268" lon="7.5578827431855125"><ele>502.0</ele><time>2026-05-02T13:07:21.999Z</time></trkpt><trkpt lat="44.39133017029424" lon="7.558025572332655"><ele>501.5</ele><time>2026-05-02T13:07:22.999Z</time></trkpt><trkpt lat="44.39127438546215" lon="7.558129404838238"><ele>501.0</ele><time>2026-05-02T13:07:23.999Z</time></trkpt><trkpt lat="44.391198348052974" lon="7.558224651407467"><ele>501.0</ele><time>2026-05-02T13:07:24.999Z</time></trkpt><trkpt lat="44.3910994259878" lon="7.558268430020286"><ele>501.0</ele><time>2026-05-02T13:07:25.999Z</time></trkpt><trkpt lat="44.39104293969179" lon="7.558357015578223"><ele>501.0</ele><time>2026-05-02T13:07:26.999Z</time></trkpt><trkpt lat="44.39101992740041" lon="7.558459145661619"><ele>501.0</ele><time>2026-05-02T13:07:27.999Z</time></trkpt><trkpt lat="44.39104462367305" lon="7.558601151138046"><ele>501.0</ele><time>2026-05-02T13:07:28.999Z</time></trkpt><trkpt lat="44.39113756760211" lon="7.558719035295069"><ele>501.33333333333337</ele><time>2026-05-02T13:07:29.999Z</time></trkpt><trkpt lat="44.391134476207114" lon="7.55892582035334"><ele>501.6666666666667</ele><time>2026-05-02T13:07:30.999Z</time></trkpt><trkpt lat="44.39112581993233" lon="7.559172661095314"><ele>502.0</ele><time>2026-05-02T13:07:31.999Z</time></trkpt><trkpt lat="44.39113136942063" lon="7.559490418280852"><ele>501.0</ele><time>2026-05-02T13:07:32.999Z</time></trkpt><trkpt lat="44.39116174357264" lon="7.559855299863888"><ele>500.0</ele><time>2026-05-02T13:07:33.999Z</time></trkpt><trkpt lat="44.3911921268545" lon="7.5602356044827745"><ele>500.3333333333333</ele><time>2026-05-02T13:07:35Z</time></trkpt><trkpt lat="44.391225307252924" lon="7.560563607219465"><ele>500.66666666666663</ele><time>2026-05-02T13:07:36Z</time></trkpt><trkpt lat="44.39124687684003" lon="7.560852671910687"><ele>501.0</ele><time>2026-05-02T13:07:37Z</time></trkpt><trkpt lat="44.39126514747278" lon="7.561101110324844"><ele>501.25</ele><time>2026-05-02T13:07:38Z</time></trkpt><trkpt lat="44.391275468612335" lon="7.561325321318343"><ele>501.5</ele><time>2026-05-02T13:07:39Z</time></trkpt><trkpt lat="44.39128331060967" lon="7.561532606739771"><ele>501.75</ele><time>2026-05-02T13:07:40Z</time></trkpt><trkpt lat="44.39128876453691" lon="7.561721788517618"><ele>502.0</ele><time>2026-05-02T13:07:41Z</time></trkpt><trkpt lat="44.391287235993865" lon="7.561898014296613"><ele>501.8</ele><time>2026-05-02T13:07:42Z</time></trkpt><trkpt lat="44.39127946427564" lon="7.5620445309209385"><ele>501.6</ele><time>2026-05-02T13:07:43Z</time></trkpt><trkpt lat="44.391261550305785" lon="7.562164379554194"><ele>501.40000000000003</ele><time>2026-05-02T13:07:44Z</time></trkpt><trkpt lat="44.39125048317417" lon="7.562335569384147"><ele>501.20000000000005</ele><time>2026-05-02T13:07:45Z</time></trkpt><trkpt lat="44.3911839938843" lon="7.562400944542429"><ele>501.0</ele><time>2026-05-02T13:07:46Z</time></trkpt><trkpt lat="44.391133387496396" lon="7.562480235831749"><ele>501.0</ele><time>2026-05-02T13:07:47Z</time></trkpt><trkpt lat="44.39106096860862" lon="7.562539019735816"><ele>501.0</ele><time>2026-05-02T13:07:48Z</time></trkpt><trkpt lat="44.3910121280096" lon="7.562612716545926"><ele>501.0</ele><time>2026-05-02T13:07:49Z</time></trkpt><trkpt lat="44.39101081747282" lon="7.56277840610161"><ele>501.0</ele><time>2026-05-02T13:07:51Z</time></trkpt><trkpt lat="44.391049988665344" lon="7.562861751303596"><ele>501.0</ele><time>2026-05-02T13:07:52Z</time></trkpt><trkpt lat="44.391116461792045" lon="7.562904375894274"><ele>501.0</ele><time>2026-05-02T13:07:53Z</time></trkpt><trkpt lat="44.391230893216274" lon="7.562942321511591"><ele>501.0</ele><time>2026-05-02T13:07:55Z</time></trkpt><trkpt lat="44.39129158634603" lon="7.5630166632373275"><ele>501.0</ele><time>2026-05-02T13:07:56Z</time></trkpt><trkpt lat="44.391340949803464" lon="7.563098650071294"><ele>501.0</ele><time>2026-05-02T13:07:57Z</time></trkpt><trkpt lat="44.39138218846878" lon="7.5631816131435965"><ele>501.0</ele><time>2026-05-02T13:07:58Z</time></trkpt><trkpt lat="44.39141060016785" lon="7.563274691995245"><ele>501.0</ele><time>2026-05-02T13:07:59Z</time></trkpt><trkpt lat="44.39143865932872" lon="7.563359335619668"><ele>501.0</ele><time>2026-05-02T13:08:00Z</time></trkpt><trkpt lat="44.39141875502464" lon="7.563497469283927"><ele>501.0</ele><time>2026-05-02T13:08:01Z</time></trkpt><trkpt lat="44.39141303061724" lon="7.563652417557966"><ele>501.0</ele><time>2026-05-02T13:08:02Z</time></trkpt><trkpt lat="44.391404943450226" lon="7.563833031684685"><ele>501.0</ele><time>2026-05-02T13:08:03Z</time></trkpt><trkpt lat="44.3913949498941" lon="7.564096568909052"><ele>501.0</ele><time>2026-05-02T13:08:04Z</time></trkpt><trkpt lat="44.39137684948677" lon="7.564355261295468"><ele>501.33333333333337</ele><time>2026-05-02T13:08:05Z</time></trkpt><trkpt lat="44.39137342644246" lon="7.564567660365855"><ele>501.6666666666667</ele><time>2026-05-02T13:08:06Z</time></trkpt><trkpt lat="44.391366703600035" lon="7.564776801336847"><ele>502.0</ele><time>2026-05-02T13:08:07Z</time></trkpt><trkpt lat="44.39136179488995" lon="7.56504010164255"><ele>502.0</ele><time>2026-05-02T13:08:08Z</time></trkpt><trkpt lat="44.39135611283235" lon="7.565312059875914"><ele>502.0</ele><time>2026-05-02T13:08:09Z</time></trkpt><trkpt lat="44.3913561815148" lon="7.565552542134988"><ele>502.0</ele><time>2026-05-02T13:08:10Z</time></trkpt><trkpt lat="44.39136942239916" lon="7.565787963107612"><ele>502.0</ele><time>2026-05-02T13:08:11Z</time></trkpt><trkpt lat="44.39139643986019" lon="7.566013338306969"><ele>502.0</ele><time>2026-05-02T13:08:12Z</time></trkpt><trkpt lat="44.3914136439118" lon="7.566197259505571"><ele>502.0</ele><time>2026-05-02T13:08:13Z</time></trkpt><trkpt lat="44.39142398781621" lon="7.566366070264309"><ele>502.0</ele><time>2026-05-02T13:08:14Z</time></trkpt><trkpt lat="44.39143642186813" lon="7.566567539308724"><ele>502.6666666666667</ele><time>2026-05-02T13:08:15Z</time></trkpt><trkpt lat="44.39145373732651" lon="7.566791124654346"><ele>503.33333333333337</ele><time>2026-05-02T13:08:16Z</time></trkpt><trkpt lat="44.3914508294448" lon="7.566999994063138"><ele>504.0</ele><time>2026-05-02T13:08:17Z</time></trkpt><trkpt lat="44.39146286720513" lon="7.567199693919659"><ele>504.66666666666663</ele><time>2026-05-02T13:08:18Z</time></trkpt><trkpt lat="44.391463504478864" lon="7.567452260896519"><ele>505.3333333333333</ele><time>2026-05-02T13:08:19Z</time></trkpt><trkpt lat="44.39144279253303" lon="7.56774094116118"><ele>506.0</ele><time>2026-05-02T13:08:20Z</time></trkpt><trkpt lat="44.39140771845684" lon="7.568061699339604"><ele>506.0</ele><time>2026-05-02T13:08:21Z</time></trkpt><trkpt lat="44.39138221882294" lon="7.568358763042137"><ele>506.0</ele><time>2026-05-02T13:08:22Z</time></trkpt><trkpt lat="44.39136035086026" lon="7.5686291563968116"><ele>506.0</ele><time>2026-05-02T13:08:23Z</time></trkpt><trkpt lat="44.391342693458846" lon="7.568873843650109"><ele>506.0</ele><time>2026-05-02T13:08:24Z</time></trkpt><trkpt lat="44.39132321515359" lon="7.569126104237573"><ele>506.0</ele><time>2026-05-02T13:08:25Z</time></trkpt><trkpt lat="44.39129641686611" lon="7.569424098134323"><ele>506.0</ele><time>2026-05-02T13:08:26Z</time></trkpt><trkpt lat="44.39126641813122" lon="7.569751744337872"><ele>507.0</ele><time>2026-05-02T13:08:27Z</time></trkpt><trkpt lat="44.3912402294535" lon="7.570113473580931"><ele>508.0</ele><time>2026-05-02T13:08:28Z</time></trkpt><trkpt lat="44.39122810581416" lon="7.570473852586006"><ele>510.5</ele><time>2026-05-02T13:08:29Z</time></trkpt><trkpt lat="44.39121482207207" lon="7.570820707739982"><ele>513.0</ele><time>2026-05-02T13:08:30Z</time></trkpt><trkpt lat="44.391201998244625" lon="7.571165061321643"><ele>513.0</ele><time>2026-05-02T13:08:31Z</time></trkpt><trkpt lat="44.39119030431535" lon="7.571480882188591"><ele>513.0</ele><time>2026-05-02T13:08:32Z</time></trkpt><trkpt lat="44.391180236754806" lon="7.571758809372241"><ele>513.0</ele><time>2026-05-02T13:08:33Z</time></trkpt><trkpt lat="44.39117131222876" lon="7.572020767724905"><ele>512.6666666666666</ele><time>2026-05-02T13:08:34Z</time></trkpt><trkpt lat="44.39116100692209" lon="7.572260977129175"><ele>512.3333333333333</ele><time>2026-05-02T13:08:35Z</time></trkpt><trkpt lat="44.39114466630784" lon="7.572487348723125"><ele>512.0</ele><time>2026-05-02T13:08:36Z</time></trkpt><trkpt lat="44.391118551586295" lon="7.572698044996023"><ele>512.25</ele><time>2026-05-02T13:08:37Z</time></trkpt><trkpt lat="44.391073633913756" lon="7.572894289853104"><ele>512.5</ele><time>2026-05-02T13:08:38Z</time></trkpt><trkpt lat="44.39102116489082" lon="7.573084894202577"><ele>512.75</ele><time>2026-05-02T13:08:39Z</time></trkpt><trkpt lat="44.390964110234705" lon="7.573258532803402"><ele>513.0</ele><time>2026-05-02T13:08:40Z</time></trkpt><trkpt lat="44.39090464197856" lon="7.5734070227025"><ele>513.0</ele><time>2026-05-02T13:08:41Z</time></trkpt><trkpt lat="44.39085030863597" lon="7.57352370223973"><ele>513.0</ele><time>2026-05-02T13:08:42Z</time></trkpt><trkpt lat="44.39079216077068" lon="7.57362272066792"><ele>513.0</ele><time>2026-05-02T13:08:43Z</time></trkpt><trkpt lat="44.39073801937632" lon="7.573700345508365"><ele>513.0</ele><time>2026-05-02T13:08:44Z</time></trkpt><trkpt lat="44.390677538822125" lon="7.573756672510223"><ele>513.0</ele><time>2026-05-02T13:08:45Z</time></trkpt><trkpt lat="44.39059811560062" lon="7.573798432608994"><ele>513.0</ele><time>2026-05-02T13:08:46Z</time></trkpt><trkpt lat="44.39049584018375" lon="7.57383738719324"><ele>514.1999999999999</ele><time>2026-05-02T13:08:47Z</time></trkpt><trkpt lat="44.390393559555925" lon="7.573897541677062"><ele>515.4</ele><time>2026-05-02T13:08:48Z</time></trkpt><trkpt lat="44.39031812155135" lon="7.573971944453244"><ele>516.5999999999999</ele><time>2026-05-02T13:08:49Z</time></trkpt><trkpt lat="44.39026619456419" lon="7.574064510813232"><ele>517.8</ele><time>2026-05-02T13:08:50Z</time></trkpt><trkpt lat="44.39023544520188" lon="7.57417237122288"><ele>519.0</ele><time>2026-05-02T13:08:51Z</time></trkpt><trkpt lat="44.390204021236315" lon="7.574284803787114"><ele>519.0</ele><time>2026-05-02T13:08:52Z</time></trkpt><trkpt lat="44.390224756646376" lon="7.574409839726066"><ele>519.0</ele><time>2026-05-02T13:08:53Z</time></trkpt><trkpt lat="44.39024525029151" lon="7.574529188753454"><ele>519.0</ele><time>2026-05-02T13:08:54Z</time></trkpt><trkpt lat="44.39026404406081" lon="7.574656294612924"><ele>519.0</ele><time>2026-05-02T13:08:55Z</time></trkpt><trkpt lat="44.390344162632616" lon="7.5747516172499925"><ele>519.0</ele><time>2026-05-02T13:08:56Z</time></trkpt><trkpt lat="44.39044931484215" lon="7.574813330942299"><ele>519.0</ele><time>2026-05-02T13:08:57Z</time></trkpt><trkpt lat="44.39055012427497" lon="7.574853841048185"><ele>519.0</ele><time>2026-05-02T13:08:58Z</time></trkpt><trkpt lat="44.39066085134422" lon="7.574865051470948"><ele>519.0</ele><time>2026-05-02T13:08:59Z</time></trkpt><trkpt lat="44.39077137233388" lon="7.574853112879605"><ele>519.0</ele><time>2026-05-02T13:09:00Z</time></trkpt><trkpt lat="44.39089013678866" lon="7.5748345113131315"><ele>519.0</ele><time>2026-05-02T13:09:01Z</time></trkpt><trkpt lat="44.39103391475476" lon="7.574862969080316"><ele>519.0</ele><time>2026-05-02T13:09:02Z</time></trkpt><trkpt lat="44.39118735551536" lon="7.574912925486554"><ele>519.0</ele><time>2026-05-02T13:09:03Z</time></trkpt><trkpt lat="44.39133367888856" lon="7.575063746194898"><ele>519.0</ele><time>2026-05-02T13:09:04Z</time></trkpt><trkpt lat="44.39150142868687" lon="7.575222739127332"><ele>519.5</ele><time>2026-05-02T13:09:05Z</time></trkpt><trkpt lat="44.39169718403765" lon="7.575416155730781"><ele>520.0</ele><time>2026-05-02T13:09:06Z</time></trkpt><trkpt lat="44.39189081569197" lon="7.575608556982773"><ele>520.0</ele><time>2026-05-02T13:09:07Z</time></trkpt><trkpt lat="44.39210395866965" lon="7.5758225052516295"><ele>520.0</ele><time>2026-05-02T13:09:08Z</time></trkpt><trkpt lat="44.39232800267289" lon="7.576052714966405"><ele>519.0</ele><time>2026-05-02T13:09:08.999Z</time></trkpt><trkpt lat="44.392561455943394" lon="7.5763087439346615"><ele>518.0</ele><time>2026-05-02T13:09:09.999Z</time></trkpt><trkpt lat="44.3927897603832" lon="7.576573460672051"><ele>516.5</ele><time>2026-05-02T13:09:10.999Z</time></trkpt><trkpt lat="44.3930216678719" lon="7.576848331488489"><ele>515.0</ele><time>2026-05-02T13:09:11.999Z</time></trkpt><trkpt lat="44.39325524838851" lon="7.577130268930236"><ele>515.0</ele><time>2026-05-02T13:09:12.999Z</time></trkpt><trkpt lat="44.39349738855185" lon="7.5774186453400025"><ele>515.0</ele><time>2026-05-02T13:09:13.999Z</time></trkpt><trkpt lat="44.39373338127949" lon="7.577695058398261"><ele>516.0</ele><time>2026-05-02T13:09:14.999Z</time></trkpt><trkpt lat="44.393967446116484" lon="7.577969992082336"><ele>517.0</ele><time>2026-05-02T13:09:16Z</time></trkpt><trkpt lat="44.39419090354319" lon="7.578232121370101"><ele>517.0</ele><time>2026-05-02T13:09:17Z</time></trkpt><trkpt lat="44.39440391905549" lon="7.578484018387607"><ele>517.0</ele><time>2026-05-02T13:09:18Z</time></trkpt><trkpt lat="44.39460924456876" lon="7.5787243108422375"><ele>516.0</ele><time>2026-05-02T13:09:19Z</time></trkpt><trkpt lat="44.39482209193158" lon="7.578948166648157"><ele>515.0</ele><time>2026-05-02T13:09:20Z</time></trkpt><trkpt lat="44.395057885100364" lon="7.579177012972961"><ele>515.0</ele><time>2026-05-02T13:09:21Z</time></trkpt><trkpt lat="44.3953043464576" lon="7.579412732888497"><ele>515.0</ele><time>2026-05-02T13:09:22Z</time></trkpt><trkpt lat="44.39555899723493" lon="7.579648716480257"><ele>514.5</ele><time>2026-05-02T13:09:23Z</time></trkpt><trkpt lat="44.395805032383656" lon="7.579878374689956"><ele>514.0</ele><time>2026-05-02T13:09:24Z</time></trkpt><trkpt lat="44.396050559623745" lon="7.580109364513933"><ele>514.0</ele><time>2026-05-02T13:09:25Z</time></trkpt><trkpt lat="44.39627029230599" lon="7.580318054393095"><ele>514.0</ele><time>2026-05-02T13:09:26Z</time></trkpt><trkpt lat="44.396469209973645" lon="7.580506511861652"><ele>513.3333333333334</ele><time>2026-05-02T13:09:27Z</time></trkpt><trkpt lat="44.39665124461902" lon="7.58067295348387"><ele>512.6666666666666</ele><time>2026-05-02T13:09:28Z</time></trkpt><trkpt lat="44.39681247125297" lon="7.580820703702126"><ele>512.0</ele><time>2026-05-02T13:09:29Z</time></trkpt><trkpt lat="44.39694846668128" lon="7.5809488697080445"><ele>512.0</ele><time>2026-05-02T13:09:30Z</time></trkpt><trkpt lat="44.39705671612786" lon="7.581060178679919"><ele>512.0</ele><time>2026-05-02T13:09:31Z</time></trkpt><trkpt lat="44.39713709757497" lon="7.5811535618492005"><ele>512.0</ele><time>2026-05-02T13:09:32Z</time></trkpt><trkpt lat="44.397206274300636" lon="7.58124653660948"><ele>512.0</ele><time>2026-05-02T13:09:33Z</time></trkpt><trkpt lat="44.39728500832056" lon="7.581329190736796"><ele>512.0</ele><time>2026-05-02T13:09:34Z</time></trkpt><trkpt lat="44.3973079783994" lon="7.58150639277298"><ele>511.75</ele><time>2026-05-02T13:09:35Z</time></trkpt><trkpt lat="44.39736691032654" lon="7.581624929368914"><ele>511.5</ele><time>2026-05-02T13:09:36Z</time></trkpt><trkpt lat="44.397340901515534" lon="7.5818174543089905"><ele>511.25</ele><time>2026-05-02T13:09:37Z</time></trkpt><trkpt lat="44.397315622260095" lon="7.581987369220059"><ele>511.0</ele><time>2026-05-02T13:09:38Z</time></trkpt><trkpt lat="44.39729952067647" lon="7.582177906074615"><ele>511.0</ele><time>2026-05-02T13:09:39Z</time></trkpt><trkpt lat="44.39721438790048" lon="7.582441311835294"><ele>511.0</ele><time>2026-05-02T13:09:40Z</time></trkpt><trkpt lat="44.39714091958743" lon="7.582781402213479"><ele>511.0</ele><time>2026-05-02T13:09:41Z</time></trkpt><trkpt lat="44.39704982172984" lon="7.58317511030848"><ele>511.0</ele><time>2026-05-02T13:09:42Z</time></trkpt><trkpt lat="44.39695458992536" lon="7.58358534782741"><ele>510.0</ele><time>2026-05-02T13:09:43Z</time></trkpt><trkpt lat="44.396853244775855" lon="7.584028262913625"><ele>509.0</ele><time>2026-05-02T13:09:44Z</time></trkpt><trkpt lat="44.396749260438646" lon="7.584469567895425"><ele>509.0</ele><time>2026-05-02T13:09:45Z</time></trkpt><trkpt lat="44.39665184019752" lon="7.584875440985617"><ele>509.0</ele><time>2026-05-02T13:09:46Z</time></trkpt><trkpt lat="44.39656371337714" lon="7.5852379383809785"><ele>509.0</ele><time>2026-05-02T13:09:47Z</time></trkpt><trkpt lat="44.396479737767855" lon="7.585564986173919"><ele>509.0</ele><time>2026-05-02T13:09:48Z</time></trkpt><trkpt lat="44.39640432601132" lon="7.585878653746851"><ele>509.0</ele><time>2026-05-02T13:09:49Z</time></trkpt><trkpt lat="44.39633677734952" lon="7.58616170809894"><ele>509.0</ele><time>2026-05-02T13:09:50Z</time></trkpt><trkpt lat="44.396274083065435" lon="7.586409796070997"><ele>509.0</ele><time>2026-05-02T13:09:51Z</time></trkpt><trkpt lat="44.39621370032906" lon="7.586641658397454"><ele>509.0</ele><time>2026-05-02T13:09:52Z</time></trkpt><trkpt lat="44.39615232722672" lon="7.586877373405884"><ele>509.0</ele><time>2026-05-02T13:09:53Z</time></trkpt><trkpt lat="44.3960908931642" lon="7.587094570640162"><ele>509.0</ele><time>2026-05-02T13:09:54Z</time></trkpt><trkpt lat="44.39603098965983" lon="7.587285131066872"><ele>509.0</ele><time>2026-05-02T13:09:55Z</time></trkpt><trkpt lat="44.39597740396663" lon="7.587456401746362"><ele>509.0</ele><time>2026-05-02T13:09:56Z</time></trkpt><trkpt lat="44.39592784727519" lon="7.587610200898927"><ele>509.0</ele><time>2026-05-02T13:09:57Z</time></trkpt><trkpt lat="44.395879550487784" lon="7.587740288297405"><ele>509.0</ele><time>2026-05-02T13:09:58Z</time></trkpt><trkpt lat="44.395818192644406" lon="7.587853509365083"><ele>508.79999999999995</ele><time>2026-05-02T13:09:59Z</time></trkpt><trkpt lat="44.395739182093045" lon="7.587948967048855"><ele>508.59999999999997</ele><time>2026-05-02T13:10:00Z</time></trkpt><trkpt lat="44.39566563224376" lon="7.588044387851917"><ele>508.4</ele><time>2026-05-02T13:10:01Z</time></trkpt><trkpt lat="44.39560926665463" lon="7.588141561188155"><ele>508.2</ele><time>2026-05-02T13:10:02Z</time></trkpt><trkpt lat="44.395595971701525" lon="7.588265299443738"><ele>508.0</ele><time>2026-05-02T13:10:03Z</time></trkpt><trkpt lat="44.39563884033116" lon="7.588398680290499"><ele>508.0</ele><time>2026-05-02T13:10:04Z</time></trkpt><trkpt lat="44.395684331568624" lon="7.588532758884301"><ele>507.99999999999994</ele><time>2026-05-02T13:10:05Z</time></trkpt><trkpt lat="44.39577791817838" lon="7.58864052193328"><ele>507.99999999999994</ele><time>2026-05-02T13:10:06Z</time></trkpt><trkpt lat="44.39587796833136" lon="7.588705234558832"><ele>508.0</ele><time>2026-05-02T13:10:07Z</time></trkpt><trkpt lat="44.395969621900804" lon="7.588750321598462"><ele>508.0</ele><time>2026-05-02T13:10:08Z</time></trkpt><trkpt lat="44.395856243663836" lon="7.589389789098"><ele>507.6666666666667</ele><time>2026-05-02T13:10:09Z</time></trkpt><trkpt lat="44.39585654381537" lon="7.589648127094891"><ele>507.33333333333337</ele><time>2026-05-02T13:10:10Z</time></trkpt><trkpt lat="44.39583786887775" lon="7.589908841576972"><ele>507.0</ele><time>2026-05-02T13:10:11Z</time></trkpt><trkpt lat="44.39580350329328" lon="7.590172360228222"><ele>506.66666666666663</ele><time>2026-05-02T13:10:12Z</time></trkpt><trkpt lat="44.395772401778075" lon="7.590425027035622"><ele>506.3333333333333</ele><time>2026-05-02T13:10:13Z</time></trkpt><trkpt lat="44.39573888664596" lon="7.590666509842011"><ele>506.0</ele><time>2026-05-02T13:10:14Z</time></trkpt><trkpt lat="44.39570057992" lon="7.590924987551793"><ele>505.66666666666663</ele><time>2026-05-02T13:10:15Z</time></trkpt><trkpt lat="44.39566486782805" lon="7.591206604733372"><ele>505.33333333333337</ele><time>2026-05-02T13:10:16Z</time></trkpt><trkpt lat="44.39562868301424" lon="7.591506038755618"><ele>505.0</ele><time>2026-05-02T13:10:17Z</time></trkpt><trkpt lat="44.395591507284024" lon="7.591772168871872"><ele>505.0</ele><time>2026-05-02T13:10:18Z</time></trkpt><trkpt lat="44.395555484726486" lon="7.592025380592994"><ele>505.0</ele><time>2026-05-02T13:10:19Z</time></trkpt><trkpt lat="44.39551832594905" lon="7.5922809150243005"><ele>505.0</ele><time>2026-05-02T13:10:20Z</time></trkpt><trkpt lat="44.39548038472553" lon="7.592538284938255"><ele>505.33333333333337</ele><time>2026-05-02T13:10:21Z</time></trkpt><trkpt lat="44.395443344785065" lon="7.592796684138897"><ele>505.66666666666663</ele><time>2026-05-02T13:10:22Z</time></trkpt><trkpt lat="44.395409395543574" lon="7.5930703040244"><ele>506.0</ele><time>2026-05-02T13:10:23Z</time></trkpt><trkpt lat="44.39537901838074" lon="7.593347491586152"><ele>506.0</ele><time>2026-05-02T13:10:24Z</time></trkpt><trkpt lat="44.39535236248726" lon="7.593600545225861"><ele>506.0</ele><time>2026-05-02T13:10:25Z</time></trkpt><trkpt lat="44.39531900865145" lon="7.593861239183863"><ele>506.0</ele><time>2026-05-02T13:10:26Z</time></trkpt><trkpt lat="44.39528953598386" lon="7.594121571099027"><ele>505.66666666666663</ele><time>2026-05-02T13:10:27Z</time></trkpt><trkpt lat="44.39526277193505" lon="7.5943762762113"><ele>505.33333333333337</ele><time>2026-05-02T13:10:28Z</time></trkpt><trkpt lat="44.395233690860344" lon="7.5946391773617"><ele>505.0</ele><time>2026-05-02T13:10:29Z</time></trkpt><trkpt lat="44.39521617135035" lon="7.594912755063736"><ele>504.5</ele><time>2026-05-02T13:10:30Z</time></trkpt><trkpt lat="44.39519809189591" lon="7.5952619331752365"><ele>504.0</ele><time>2026-05-02T13:10:31Z</time></trkpt><trkpt lat="44.39516304522542" lon="7.595657030478786"><ele>504.0</ele><time>2026-05-02T13:10:32Z</time></trkpt><trkpt lat="44.39511596052672" lon="7.596068216471445"><ele>504.0</ele><time>2026-05-02T13:10:33Z</time></trkpt><trkpt lat="44.39506844195101" lon="7.5964764355326855"><ele>504.5</ele><time>2026-05-02T13:10:34Z</time></trkpt><trkpt lat="44.39502351764591" lon="7.596866366540413"><ele>505.0</ele><time>2026-05-02T13:10:35Z</time></trkpt><trkpt lat="44.394982847298984" lon="7.597239830884546"><ele>505.0</ele><time>2026-05-02T13:10:36Z</time></trkpt><trkpt lat="44.394940679316655" lon="7.5976226963318565"><ele>505.0</ele><time>2026-05-02T13:10:37Z</time></trkpt><trkpt lat="44.3948931642882" lon="7.598012869936926"><ele>504.0</ele><time>2026-05-02T13:10:38Z</time></trkpt><trkpt lat="44.39484015704457" lon="7.59841322331955"><ele>503.0</ele><time>2026-05-02T13:10:39Z</time></trkpt><trkpt lat="44.39478686048356" lon="7.5988285327256"><ele>503.0</ele><time>2026-05-02T13:10:40Z</time></trkpt><trkpt lat="44.394736401504865" lon="7.599258925808205"><ele>503.0</ele><time>2026-05-02T13:10:41Z</time></trkpt><trkpt lat="44.3946849907804" lon="7.599700680363169"><ele>503.5</ele><time>2026-05-02T13:10:42Z</time></trkpt><trkpt lat="44.394640054723475" lon="7.6001505902383615"><ele>504.0</ele><time>2026-05-02T13:10:43Z</time></trkpt><trkpt lat="44.3945986072309" lon="7.600589078288612"><ele>504.0</ele><time>2026-05-02T13:10:44Z</time></trkpt><trkpt lat="44.394552555414485" lon="7.601034359002444"><ele>504.0</ele><time>2026-05-02T13:10:45Z</time></trkpt><trkpt lat="44.39451171020985" lon="7.601473397459444"><ele>502.5</ele><time>2026-05-02T13:10:46Z</time></trkpt><trkpt lat="44.39447091746425" lon="7.601902240567006"><ele>501.0</ele><time>2026-05-02T13:10:47Z</time></trkpt><trkpt lat="44.394431313285075" lon="7.602329892868011"><ele>501.0</ele><time>2026-05-02T13:10:48Z</time></trkpt><trkpt lat="44.39438996863056" lon="7.6027596979035215"><ele>501.0</ele><time>2026-05-02T13:10:49Z</time></trkpt><trkpt lat="44.394347283559576" lon="7.603162096283454"><ele>501.0</ele><time>2026-05-02T13:10:50Z</time></trkpt><trkpt lat="44.3943006593634" lon="7.603659666907944"><ele>501.0</ele><time>2026-05-02T13:10:51Z</time></trkpt><trkpt lat="44.394256759846776" lon="7.604083251341593"><ele>499.5</ele><time>2026-05-02T13:10:52Z</time></trkpt><trkpt lat="44.39421105880338" lon="7.604508588792848"><ele>498.0</ele><time>2026-05-02T13:10:53Z</time></trkpt><trkpt lat="44.3941610847779" lon="7.604951275389243"><ele>498.5</ele><time>2026-05-02T13:10:54Z</time></trkpt><trkpt lat="44.39410683858794" lon="7.605387414346683"><ele>499.0</ele><time>2026-05-02T13:10:55Z</time></trkpt><trkpt lat="44.39405392456143" lon="7.605820207615532"><ele>498.5</ele><time>2026-05-02T13:10:56Z</time></trkpt><trkpt lat="44.394004691162664" lon="7.606215847096847"><ele>498.0</ele><time>2026-05-02T13:10:57Z</time></trkpt><trkpt lat="44.39395205999457" lon="7.606600783667594"><ele>498.0</ele><time>2026-05-02T13:10:58Z</time></trkpt><trkpt lat="44.3939025164828" lon="7.6069754637895155"><ele>498.0</ele><time>2026-05-02T13:10:59Z</time></trkpt><trkpt lat="44.39383833952069" lon="7.607326499023882"><ele>498.0</ele><time>2026-05-02T13:11:00Z</time></trkpt><trkpt lat="44.39383027933928" lon="7.607658469557684"><ele>498.0</ele><time>2026-05-02T13:11:01Z</time></trkpt><trkpt lat="44.39380679079114" lon="7.608001081747932"><ele>498.0</ele><time>2026-05-02T13:11:02Z</time></trkpt><trkpt lat="44.39379455726854" lon="7.6083642793680815"><ele>498.0</ele><time>2026-05-02T13:11:03Z</time></trkpt><trkpt lat="44.393784507038966" lon="7.608721714364544"><ele>498.0</ele><time>2026-05-02T13:11:04Z</time></trkpt><trkpt lat="44.39377123296889" lon="7.609096617033883"><ele>498.0</ele><time>2026-05-02T13:11:05Z</time></trkpt><trkpt lat="44.393756684864236" lon="7.609485632838231"><ele>498.0</ele><time>2026-05-02T13:11:06Z</time></trkpt><trkpt lat="44.39374205362078" lon="7.609872655430784"><ele>498.0</ele><time>2026-05-02T13:11:07Z</time></trkpt><trkpt lat="44.39373439543079" lon="7.610238000861164"><ele>498.0</ele><time>2026-05-02T13:11:08Z</time></trkpt><trkpt lat="44.39372849289893" lon="7.610587067712841"><ele>498.0</ele><time>2026-05-02T13:11:09Z</time></trkpt><trkpt lat="44.39371981885541" lon="7.610944207355861"><ele>497.66666666666663</ele><time>2026-05-02T13:11:10Z</time></trkpt><trkpt lat="44.39370832177485" lon="7.611269263227763"><ele>497.3333333333333</ele><time>2026-05-02T13:11:11Z</time></trkpt><trkpt lat="44.3936977212213" lon="7.611564401690885"><ele>497.0</ele><time>2026-05-02T13:11:12Z</time></trkpt><trkpt lat="44.39368728133178" lon="7.611879560273729"><ele>496.5</ele><time>2026-05-02T13:11:13Z</time></trkpt><trkpt lat="44.39368053744327" lon="7.612228331513551"><ele>496.0</ele><time>2026-05-02T13:11:14Z</time></trkpt><trkpt lat="44.39367996986224" lon="7.612567122290974"><ele>495.6666666666667</ele><time>2026-05-02T13:11:15Z</time></trkpt><trkpt lat="44.3936730764673" lon="7.612864791385098"><ele>495.33333333333337</ele><time>2026-05-02T13:11:16Z</time></trkpt><trkpt lat="44.39366649732967" lon="7.613143713327617"><ele>495.0</ele><time>2026-05-02T13:11:17Z</time></trkpt><trkpt lat="44.393660400725004" lon="7.613423597384716"><ele>495.0</ele><time>2026-05-02T13:11:18Z</time></trkpt><trkpt lat="44.39365062446264" lon="7.613705663462688"><ele>495.0</ele><time>2026-05-02T13:11:19Z</time></trkpt><trkpt lat="44.39364250582961" lon="7.614022291362067"><ele>495.0</ele><time>2026-05-02T13:11:20Z</time></trkpt><trkpt lat="44.39363913254381" lon="7.614381127567381"><ele>494.5</ele><time>2026-05-02T13:11:21Z</time></trkpt><trkpt lat="44.393612465811465" lon="7.6147843583946155"><ele>494.0</ele><time>2026-05-02T13:11:22Z</time></trkpt><trkpt lat="44.39359698556527" lon="7.615233847427066"><ele>493.5</ele><time>2026-05-02T13:11:23Z</time></trkpt><trkpt lat="44.393581208079716" lon="7.615691967446004"><ele>493.0</ele><time>2026-05-02T13:11:24Z</time></trkpt><trkpt lat="44.393565966396125" lon="7.6161560829272394"><ele>493.0</ele><time>2026-05-02T13:11:25Z</time></trkpt><trkpt lat="44.393550915500256" lon="7.616634148842844"><ele>493.0</ele><time>2026-05-02T13:11:26Z</time></trkpt><trkpt lat="44.39353528674551" lon="7.617130569442742"><ele>492.5</ele><time>2026-05-02T13:11:27Z</time></trkpt><trkpt lat="44.39351934985277" lon="7.617636777525962"><ele>492.0</ele><time>2026-05-02T13:11:28Z</time></trkpt><trkpt lat="44.393503216196144" lon="7.618149235456073"><ele>491.0</ele><time>2026-05-02T13:11:29Z</time></trkpt><trkpt lat="44.39348732738564" lon="7.6186539161810245"><ele>490.0</ele><time>2026-05-02T13:11:30Z</time></trkpt><trkpt lat="44.393488189646646" lon="7.619148396472095"><ele>490.0</ele><time>2026-05-02T13:11:31Z</time></trkpt><trkpt lat="44.39347107843635" lon="7.619670651664783"><ele>490.0</ele><time>2026-05-02T13:11:32Z</time></trkpt><trkpt lat="44.39343692208502" lon="7.6201803770074035"><ele>491.0</ele><time>2026-05-02T13:11:33Z</time></trkpt><trkpt lat="44.39342104905443" lon="7.620663947376126"><ele>492.0</ele><time>2026-05-02T13:11:34Z</time></trkpt><trkpt lat="44.3934079733843" lon="7.6211123100560325"><ele>491.0</ele><time>2026-05-02T13:11:35Z</time></trkpt><trkpt lat="44.3933959571487" lon="7.621524345049787"><ele>490.0</ele><time>2026-05-02T13:11:36Z</time></trkpt><trkpt lat="44.39338389190152" lon="7.621907639946007"><ele>490.0</ele><time>2026-05-02T13:11:37Z</time></trkpt><trkpt lat="44.39338821530064" lon="7.622272941238833"><ele>490.0</ele><time>2026-05-02T13:11:38Z</time></trkpt><trkpt lat="44.39336026787823" lon="7.622636737818756"><ele>490.0</ele><time>2026-05-02T13:11:39Z</time></trkpt><trkpt lat="44.39334769903186" lon="7.623024643212907"><ele>490.0</ele><time>2026-05-02T13:11:40Z</time></trkpt><trkpt lat="44.39333349968755" lon="7.623462864868573"><ele>489.5</ele><time>2026-05-02T13:11:41Z</time></trkpt><trkpt lat="44.39331876130769" lon="7.623946178939621"><ele>489.0</ele><time>2026-05-02T13:11:42Z</time></trkpt><trkpt lat="44.393322790481704" lon="7.624428871520129"><ele>488.5</ele><time>2026-05-02T13:11:43Z</time></trkpt><trkpt lat="44.39330735141869" lon="7.624854375650221"><ele>488.0</ele><time>2026-05-02T13:11:44Z</time></trkpt><trkpt lat="44.39329372569912" lon="7.625259564194525"><ele>488.0</ele><time>2026-05-02T13:11:45Z</time></trkpt><trkpt lat="44.39328022061104" lon="7.625640145844755"><ele>488.0</ele><time>2026-05-02T13:11:46Z</time></trkpt><trkpt lat="44.39326562944738" lon="7.625998813202863"><ele>488.5</ele><time>2026-05-02T13:11:47Z</time></trkpt><trkpt lat="44.39324873944447" lon="7.626357146691784"><ele>489.0</ele><time>2026-05-02T13:11:48Z</time></trkpt><trkpt lat="44.393236243367895" lon="7.626736347380539"><ele>487.5</ele><time>2026-05-02T13:11:49Z</time></trkpt><trkpt lat="44.39322184559898" lon="7.6271242106859765"><ele>486.0</ele><time>2026-05-02T13:11:50Z</time></trkpt><trkpt lat="44.39320783973349" lon="7.6275148123136445"><ele>486.0</ele><time>2026-05-02T13:11:51Z</time></trkpt><trkpt lat="44.39319488415504" lon="7.62791576183875"><ele>486.0</ele><time>2026-05-02T13:11:52Z</time></trkpt><trkpt lat="44.39318926500075" lon="7.62832878552033"><ele>486.0</ele><time>2026-05-02T13:11:53Z</time></trkpt><trkpt lat="44.39318863159309" lon="7.628741448943024"><ele>486.0</ele><time>2026-05-02T13:11:54Z</time></trkpt><trkpt lat="44.39318829706046" lon="7.629155874059026"><ele>486.0</ele><time>2026-05-02T13:11:55Z</time></trkpt><trkpt lat="44.393184404663295" lon="7.629553664005287"><ele>486.0</ele><time>2026-05-02T13:11:56Z</time></trkpt><trkpt lat="44.39318254466498" lon="7.629953377542067"><ele>486.5</ele><time>2026-05-02T13:11:57Z</time></trkpt><trkpt lat="44.39318242102059" lon="7.630344645494906"><ele>487.0</ele><time>2026-05-02T13:11:58Z</time></trkpt><trkpt lat="44.393184394713856" lon="7.630722375012374"><ele>487.0</ele><time>2026-05-02T13:11:59Z</time></trkpt><trkpt lat="44.39318833976184" lon="7.631065576660184"><ele>487.0</ele><time>2026-05-02T13:12:00Z</time></trkpt><trkpt lat="44.39319791964792" lon="7.6313912979967355"><ele>486.5</ele><time>2026-05-02T13:12:01Z</time></trkpt><trkpt lat="44.393210534538206" lon="7.6317330752536625"><ele>486.0</ele><time>2026-05-02T13:12:02Z</time></trkpt><trkpt lat="44.39322776536784" lon="7.632097087213876"><ele>486.0</ele><time>2026-05-02T13:12:03Z</time></trkpt><trkpt lat="44.39324359799231" lon="7.632488132134927"><ele>486.0</ele><time>2026-05-02T13:12:04Z</time></trkpt><trkpt lat="44.39327251944907" lon="7.632899146641793"><ele>485.0</ele><time>2026-05-02T13:12:05Z</time></trkpt><trkpt lat="44.39330881372448" lon="7.633316954423958"><ele>484.0</ele><time>2026-05-02T13:12:06Z</time></trkpt><trkpt lat="44.39334412870332" lon="7.633739059506327"><ele>484.0</ele><time>2026-05-02T13:12:07Z</time></trkpt><trkpt lat="44.393376772898534" lon="7.634139137490984"><ele>484.0</ele><time>2026-05-02T13:12:08Z</time></trkpt><trkpt lat="44.393404825545566" lon="7.634489170210635"><ele>484.33333333333337</ele><time>2026-05-02T13:12:09Z</time></trkpt><trkpt lat="44.39342790568985" lon="7.634785457241485"><ele>484.66666666666663</ele><time>2026-05-02T13:12:10Z</time></trkpt><trkpt lat="44.39344862522255" lon="7.635056108082068"><ele>485.0</ele><time>2026-05-02T13:12:11Z</time></trkpt><trkpt lat="44.393466999974486" lon="7.635300257128262"><ele>484.66666666666663</ele><time>2026-05-02T13:12:12Z</time></trkpt><trkpt lat="44.39348386608237" lon="7.6355231160322"><ele>484.33333333333337</ele><time>2026-05-02T13:12:13Z</time></trkpt><trkpt lat="44.39349449155682" lon="7.635730808742676"><ele>484.0</ele><time>2026-05-02T13:12:14Z</time></trkpt><trkpt lat="44.39349639708218" lon="7.63596129740398"><ele>483.6666666666667</ele><time>2026-05-02T13:12:15Z</time></trkpt><trkpt lat="44.39348533796007" lon="7.636210410989153"><ele>483.33333333333337</ele><time>2026-05-02T13:12:16Z</time></trkpt><trkpt lat="44.39344940428845" lon="7.636492986638768"><ele>483.0</ele><time>2026-05-02T13:12:17Z</time></trkpt><trkpt lat="44.39341726821526" lon="7.636779054727279"><ele>482.66666666666663</ele><time>2026-05-02T13:12:18Z</time></trkpt><trkpt lat="44.39338545426636" lon="7.637055094145787"><ele>482.3333333333333</ele><time>2026-05-02T13:12:19Z</time></trkpt><trkpt lat="44.39336374739292" lon="7.637334859061536"><ele>482.0</ele><time>2026-05-02T13:12:20Z</time></trkpt><trkpt lat="44.39334563188728" lon="7.6376304563843"><ele>482.3333333333333</ele><time>2026-05-02T13:12:21Z</time></trkpt><trkpt lat="44.39332730262486" lon="7.637932335826381"><ele>482.66666666666663</ele><time>2026-05-02T13:12:22Z</time></trkpt><trkpt lat="44.39330456148784" lon="7.638206101491337"><ele>483.0</ele><time>2026-05-02T13:12:23Z</time></trkpt><trkpt lat="44.39328010236195" lon="7.638455674602257"><ele>483.0</ele><time>2026-05-02T13:12:24Z</time></trkpt><trkpt lat="44.393249894181864" lon="7.6386679294753925"><ele>483.0</ele><time>2026-05-02T13:12:25Z</time></trkpt><trkpt lat="44.39321449284835" lon="7.638860047945645"><ele>483.0</ele><time>2026-05-02T13:12:26Z</time></trkpt><trkpt lat="44.39318695539585" lon="7.639055268049998"><ele>483.0</ele><time>2026-05-02T13:12:27Z</time></trkpt><trkpt lat="44.39317964665344" lon="7.639287909352991"><ele>482.33333333333337</ele><time>2026-05-02T13:12:28Z</time></trkpt><trkpt lat="44.39319148002187" lon="7.639572034369189"><ele>481.6666666666667</ele><time>2026-05-02T13:12:29Z</time></trkpt><trkpt lat="44.3932102614551" lon="7.639891585606455"><ele>481.0</ele><time>2026-05-02T13:12:30Z</time></trkpt><trkpt lat="44.39322078242084" lon="7.640226971196635"><ele>481.33333333333337</ele><time>2026-05-02T13:12:31Z</time></trkpt><trkpt lat="44.39322004549107" lon="7.640539757572836"><ele>481.66666666666663</ele><time>2026-05-02T13:12:32Z</time></trkpt><trkpt lat="44.3932166513911" lon="7.640832968666444"><ele>482.0</ele><time>2026-05-02T13:12:33Z</time></trkpt><trkpt lat="44.39321776809116" lon="7.641116842775113"><ele>481.66666666666663</ele><time>2026-05-02T13:12:34Z</time></trkpt><trkpt lat="44.39322328280449" lon="7.641390526251499"><ele>481.33333333333337</ele><time>2026-05-02T13:12:35Z</time></trkpt><trkpt lat="44.39322513264596" lon="7.641650119893449"><ele>481.0</ele><time>2026-05-02T13:12:36Z</time></trkpt><trkpt lat="44.3932252138922" lon="7.641899177357028"><ele>480.33333333333337</ele><time>2026-05-02T13:12:37Z</time></trkpt><trkpt lat="44.39322269457535" lon="7.642142467862293"><ele>479.66666666666663</ele><time>2026-05-02T13:12:38Z</time></trkpt><trkpt lat="44.39322391071126" lon="7.642353234838013"><ele>479.0</ele><time>2026-05-02T13:12:39Z</time></trkpt><trkpt lat="44.39322416575452" lon="7.6425630633424415"><ele>479.0</ele><time>2026-05-02T13:12:40Z</time></trkpt><trkpt lat="44.39322713348882" lon="7.64279032076944"><ele>479.0</ele><time>2026-05-02T13:12:41Z</time></trkpt><trkpt lat="44.39323090758798" lon="7.643051400965049"><ele>479.0</ele><time>2026-05-02T13:12:42Z</time></trkpt><trkpt lat="44.393231931259706" lon="7.643367628286054"><ele>478.5</ele><time>2026-05-02T13:12:43Z</time></trkpt><trkpt lat="44.393239293464404" lon="7.64375578357833"><ele>478.0</ele><time>2026-05-02T13:12:44Z</time></trkpt><trkpt lat="44.39324484610233" lon="7.644199168040878"><ele>478.0</ele><time>2026-05-02T13:12:45Z</time></trkpt><trkpt lat="44.39324774176025" lon="7.644675826326785"><ele>478.0</ele><time>2026-05-02T13:12:46Z</time></trkpt><trkpt lat="44.393248919173004" lon="7.645187119988219"><ele>478.0</ele><time>2026-05-02T13:12:47Z</time></trkpt><trkpt lat="44.3932343209218" lon="7.645711095160911"><ele>478.0</ele><time>2026-05-02T13:12:48Z</time></trkpt><trkpt lat="44.39325585766485" lon="7.646216537352378"><ele>477.0</ele><time>2026-05-02T13:12:49Z</time></trkpt><trkpt lat="44.39325742725794" lon="7.646653295726948"><ele>476.0</ele><time>2026-05-02T13:12:50Z</time></trkpt><trkpt lat="44.39325692963003" lon="7.647032870752593"><ele>475.5</ele><time>2026-05-02T13:12:51Z</time></trkpt><trkpt lat="44.39325871780765" lon="7.647380558035725"><ele>475.0</ele><time>2026-05-02T13:12:52Z</time></trkpt><trkpt lat="44.39326420526114" lon="7.64770745530387"><ele>476.0</ele><time>2026-05-02T13:12:53Z</time></trkpt><trkpt lat="44.393265882903115" lon="7.648020023726507"><ele>477.0</ele><time>2026-05-02T13:12:54Z</time></trkpt><trkpt lat="44.393262463815" lon="7.648341277536747"><ele>477.0</ele><time>2026-05-02T13:12:55Z</time></trkpt><trkpt lat="44.39325267372597" lon="7.648671018916668"><ele>477.0</ele><time>2026-05-02T13:12:56Z</time></trkpt><trkpt lat="44.39322771375466" lon="7.649029502120371"><ele>477.0</ele><time>2026-05-02T13:12:57Z</time></trkpt><trkpt lat="44.39319094923727" lon="7.649419367829745"><ele>477.0</ele><time>2026-05-02T13:12:58Z</time></trkpt><trkpt lat="44.39315076782275" lon="7.649817692624826"><ele>476.5</ele><time>2026-05-02T13:12:59Z</time></trkpt><trkpt lat="44.39311051035953" lon="7.650228930066468"><ele>476.0</ele><time>2026-05-02T13:13:00Z</time></trkpt><trkpt lat="44.39307159195821" lon="7.650646671479722"><ele>476.0</ele><time>2026-05-02T13:13:01Z</time></trkpt><trkpt lat="44.39303196607825" lon="7.65108221908102"><ele>476.0</ele><time>2026-05-02T13:13:02Z</time></trkpt><trkpt lat="44.39299141474624" lon="7.651535476075404"><ele>477.0</ele><time>2026-05-02T13:13:03Z</time></trkpt><trkpt lat="44.39295086229422" lon="7.651993625515268"><ele>478.0</ele><time>2026-05-02T13:13:04Z</time></trkpt><trkpt lat="44.3929062158566" lon="7.652463693648687"><ele>476.0</ele><time>2026-05-02T13:13:05Z</time></trkpt><trkpt lat="44.39286195372266" lon="7.6529502166335535"><ele>474.0</ele><time>2026-05-02T13:13:06Z</time></trkpt><trkpt lat="44.392817688611" lon="7.653427324072924"><ele>473.0</ele><time>2026-05-02T13:13:07Z</time></trkpt><trkpt lat="44.392772302161845" lon="7.653909398183295"><ele>472.0</ele><time>2026-05-02T13:13:08Z</time></trkpt><trkpt lat="44.39272489660255" lon="7.6543885501708635"><ele>471.5</ele><time>2026-05-02T13:13:09Z</time></trkpt><trkpt lat="44.39268012227302" lon="7.654865555349124"><ele>471.0</ele><time>2026-05-02T13:13:10Z</time></trkpt><trkpt lat="44.39263651678992" lon="7.65534301824342"><ele>470.5</ele><time>2026-05-02T13:13:11Z</time></trkpt><trkpt lat="44.39259178968261" lon="7.655809062716755"><ele>470.0</ele><time>2026-05-02T13:13:12Z</time></trkpt><trkpt lat="44.392548065128665" lon="7.6562688563693975"><ele>470.0</ele><time>2026-05-02T13:13:13Z</time></trkpt><trkpt lat="44.392505511162575" lon="7.656695128040954"><ele>470.0</ele><time>2026-05-02T13:13:14Z</time></trkpt><trkpt lat="44.39246673207081" lon="7.657095218224882"><ele>470.0</ele><time>2026-05-02T13:13:15Z</time></trkpt><trkpt lat="44.392430835834105" lon="7.657495447974297"><ele>470.0</ele><time>2026-05-02T13:13:16Z</time></trkpt><trkpt lat="44.39239918349141" lon="7.657870165145003"><ele>469.5</ele><time>2026-05-02T13:13:17Z</time></trkpt><trkpt lat="44.39236799375569" lon="7.658210344699249"><ele>469.0</ele><time>2026-05-02T13:13:18Z</time></trkpt><trkpt lat="44.39234039881481" lon="7.658512926228077"><ele>468.6666666666667</ele><time>2026-05-02T13:13:19Z</time></trkpt><trkpt lat="44.39231619520161" lon="7.658783195955831"><ele>468.33333333333337</ele><time>2026-05-02T13:13:20Z</time></trkpt><trkpt lat="44.392297505235426" lon="7.659030856961741"><ele>468.0</ele><time>2026-05-02T13:13:21Z</time></trkpt><trkpt lat="44.39229210025334" lon="7.659254003905595"><ele>468.0</ele><time>2026-05-02T13:13:22Z</time></trkpt><trkpt lat="44.39229863199162" lon="7.659448761984254"><ele>468.0</ele><time>2026-05-02T13:13:23Z</time></trkpt><trkpt lat="44.39232047751943" lon="7.659645744346629"><ele>468.0</ele><time>2026-05-02T13:13:24Z</time></trkpt><trkpt lat="44.39235749371937" lon="7.659877605415835"><ele>468.0</ele><time>2026-05-02T13:13:25Z</time></trkpt><trkpt lat="44.392417639779204" lon="7.660112199826272"><ele>468.0</ele><time>2026-05-02T13:13:26Z</time></trkpt><trkpt lat="44.39248964563837" lon="7.660349829748905"><ele>468.0</ele><time>2026-05-02T13:13:27Z</time></trkpt><trkpt lat="44.39258380642167" lon="7.660595357047021"><ele>468.0</ele><time>2026-05-02T13:13:28Z</time></trkpt><trkpt lat="44.3926965236314" lon="7.660851082616456"><ele>468.0</ele><time>2026-05-02T13:13:29Z</time></trkpt><trkpt lat="44.39281264535626" lon="7.6611090457884305"><ele>468.0</ele><time>2026-05-02T13:13:30Z</time></trkpt><trkpt lat="44.39294523981941" lon="7.661410831909755"><ele>467.5</ele><time>2026-05-02T13:13:31Z</time></trkpt><trkpt lat="44.393090484814735" lon="7.661727920891951"><ele>467.0</ele><time>2026-05-02T13:13:32Z</time></trkpt><trkpt lat="44.393248754616764" lon="7.662069083446044"><ele>467.0</ele><time>2026-05-02T13:13:33Z</time></trkpt><trkpt lat="44.39340655622581" lon="7.662408565845505"><ele>467.0</ele><time>2026-05-02T13:13:34Z</time></trkpt><trkpt lat="44.3935250468529" lon="7.662705174196006"><ele>466.0</ele><time>2026-05-02T13:13:35Z</time></trkpt><trkpt lat="44.393663976477534" lon="7.6630163395191655"><ele>465.0</ele><time>2026-05-02T13:13:36Z</time></trkpt><trkpt lat="44.3937897006634" lon="7.663306771364441"><ele>464.5</ele><time>2026-05-02T13:13:37Z</time></trkpt><trkpt lat="44.39390924038142" lon="7.663565584492981"><ele>464.0</ele><time>2026-05-02T13:13:38Z</time></trkpt><trkpt lat="44.39403904799317" lon="7.663836838189865"><ele>464.0</ele><time>2026-05-02T13:13:39Z</time></trkpt><trkpt lat="44.394177976742725" lon="7.664123267055763"><ele>464.0</ele><time>2026-05-02T13:13:40Z</time></trkpt><trkpt lat="44.394315082355085" lon="7.6644086964432345"><ele>464.5</ele><time>2026-05-02T13:13:41Z</time></trkpt><trkpt lat="44.394460433385014" lon="7.664713324019211"><ele>465.0</ele><time>2026-05-02T13:13:42Z</time></trkpt><trkpt lat="44.39462529142769" lon="7.665057935595193"><ele>464.5</ele><time>2026-05-02T13:13:43Z</time></trkpt><trkpt lat="44.39479243855715" lon="7.6654291576739135"><ele>464.0</ele><time>2026-05-02T13:13:44Z</time></trkpt><trkpt lat="44.394950740531414" lon="7.665801394918451"><ele>462.0</ele><time>2026-05-02T13:13:45Z</time></trkpt><trkpt lat="44.395100905155104" lon="7.6661354199921155"><ele>460.0</ele><time>2026-05-02T13:13:46Z</time></trkpt><trkpt lat="44.395237118999404" lon="7.666428580532689"><ele>460.0</ele><time>2026-05-02T13:13:47Z</time></trkpt><trkpt lat="44.395357600163145" lon="7.666697326375991"><ele>460.0</ele><time>2026-05-02T13:13:48Z</time></trkpt><trkpt lat="44.39546845223773" lon="7.6669431543758675"><ele>460.0</ele><time>2026-05-02T13:13:49Z</time></trkpt><trkpt lat="44.39557977809464" lon="7.667187696486199"><ele>460.0</ele><time>2026-05-02T13:13:50Z</time></trkpt><trkpt lat="44.395683212849754" lon="7.667436708634434"><ele>460.0</ele><time>2026-05-02T13:13:51Z</time></trkpt><trkpt lat="44.39578334916292" lon="7.667712403131961"><ele>460.0</ele><time>2026-05-02T13:13:52Z</time></trkpt><trkpt lat="44.39586867459729" lon="7.668016377998256"><ele>460.0</ele><time>2026-05-02T13:13:53Z</time></trkpt><trkpt lat="44.395938842975895" lon="7.668356577678523"><ele>460.0</ele><time>2026-05-02T13:13:54Z</time></trkpt><trkpt lat="44.39599541622712" lon="7.668734276641932"><ele>460.0</ele><time>2026-05-02T13:13:55Z</time></trkpt><trkpt lat="44.39605520149963" lon="7.669125727414539"><ele>460.0</ele><time>2026-05-02T13:13:56Z</time></trkpt><trkpt lat="44.39611479361014" lon="7.669511540590058"><ele>460.0</ele><time>2026-05-02T13:13:57Z</time></trkpt><trkpt lat="44.39616815425405" lon="7.669880255462396"><ele>460.0</ele><time>2026-05-02T13:13:58Z</time></trkpt><trkpt lat="44.396228018630936" lon="7.6702145320562325"><ele>460.0</ele><time>2026-05-02T13:13:59Z</time></trkpt><trkpt lat="44.39628255631172" lon="7.670524118759432"><ele>460.0</ele><time>2026-05-02T13:14:00Z</time></trkpt><trkpt lat="44.396333424342664" lon="7.670824025535936"><ele>460.0</ele><time>2026-05-02T13:14:01Z</time></trkpt><trkpt lat="44.396395427359614" lon="7.671110666674303"><ele>459.0</ele><time>2026-05-02T13:14:02Z</time></trkpt><trkpt lat="44.39647769109859" lon="7.671401432721499"><ele>458.0</ele><time>2026-05-02T13:14:03Z</time></trkpt><trkpt lat="44.39657899271475" lon="7.671696941875168"><ele>457.5</ele><time>2026-05-02T13:14:04Z</time></trkpt><trkpt lat="44.39670096619345" lon="7.67200815680018"><ele>457.0</ele><time>2026-05-02T13:14:05Z</time></trkpt><trkpt lat="44.396829118137546" lon="7.672329306172035"><ele>457.0</ele><time>2026-05-02T13:14:06Z</time></trkpt><trkpt lat="44.39696390236112" lon="7.672660625588777"><ele>457.0</ele><time>2026-05-02T13:14:07Z</time></trkpt><trkpt lat="44.39710425750574" lon="7.672991706659212"><ele>457.5</ele><time>2026-05-02T13:14:08Z</time></trkpt><trkpt lat="44.397244128609216" lon="7.673326974301343"><ele>458.0</ele><time>2026-05-02T13:14:09Z</time></trkpt><trkpt lat="44.39737407243148" lon="7.673645061848686"><ele>458.0</ele><time>2026-05-02T13:14:10Z</time></trkpt><trkpt lat="44.39749655346538" lon="7.6739501388920495"><ele>458.0</ele><time>2026-05-02T13:14:11Z</time></trkpt><trkpt lat="44.397617880797156" lon="7.674249181385905"><ele>458.5</ele><time>2026-05-02T13:14:12Z</time></trkpt><trkpt lat="44.39774057932198" lon="7.67454604269881"><ele>459.0</ele><time>2026-05-02T13:14:13Z</time></trkpt><trkpt lat="44.39785931666754" lon="7.674843390709292"><ele>459.0</ele><time>2026-05-02T13:14:14Z</time></trkpt><trkpt lat="44.397977821926766" lon="7.675131378165876"><ele>459.0</ele><time>2026-05-02T13:14:15Z</time></trkpt><trkpt lat="44.39809452700312" lon="7.675410246302586"><ele>458.33333333333337</ele><time>2026-05-02T13:14:16Z</time></trkpt><trkpt lat="44.398204565188635" lon="7.675687788741839"><ele>457.6666666666667</ele><time>2026-05-02T13:14:17Z</time></trkpt><trkpt lat="44.39831315844978" lon="7.675945393766324"><ele>457.0</ele><time>2026-05-02T13:14:18Z</time></trkpt><trkpt lat="44.398417249277756" lon="7.676207872040876"><ele>456.6666666666667</ele><time>2026-05-02T13:14:19Z</time></trkpt><trkpt lat="44.39852484492796" lon="7.676468801889364"><ele>456.33333333333337</ele><time>2026-05-02T13:14:20Z</time></trkpt><trkpt lat="44.39862950528109" lon="7.6767232723339625"><ele>456.0</ele><time>2026-05-02T13:14:21Z</time></trkpt><trkpt lat="44.39873665499876" lon="7.676964608063846"><ele>456.0</ele><time>2026-05-02T13:14:22Z</time></trkpt><trkpt lat="44.39884193758711" lon="7.677209181778091"><ele>456.0</ele><time>2026-05-02T13:14:23Z</time></trkpt><trkpt lat="44.39893582811334" lon="7.677445699773569"><ele>456.0</ele><time>2026-05-02T13:14:24Z</time></trkpt><trkpt lat="44.399021893109136" lon="7.677657806675638"><ele>456.0</ele><time>2026-05-02T13:14:25Z</time></trkpt><trkpt lat="44.39910292653613" lon="7.677854953587911"><ele>456.0</ele><time>2026-05-02T13:14:26Z</time></trkpt><trkpt lat="44.39918702409652" lon="7.678061273475395"><ele>456.0</ele><time>2026-05-02T13:14:27Z</time></trkpt><trkpt lat="44.39927746477207" lon="7.678281827499951"><ele>456.0</ele><time>2026-05-02T13:14:28Z</time></trkpt><trkpt lat="44.39937269411765" lon="7.678523849635799"><ele>456.0</ele><time>2026-05-02T13:14:29Z</time></trkpt><trkpt lat="44.39946980959109" lon="7.678768814965708"><ele>456.0</ele><time>2026-05-02T13:14:30Z</time></trkpt><trkpt lat="44.39957681432127" lon="7.679020525851635"><ele>456.0</ele><time>2026-05-02T13:14:31Z</time></trkpt><trkpt lat="44.399703052677516" lon="7.6792649759769605"><ele>456.0</ele><time>2026-05-02T13:14:32Z</time></trkpt><trkpt lat="44.399838516009055" lon="7.679501622963261"><ele>456.0</ele><time>2026-05-02T13:14:33Z</time></trkpt><trkpt lat="44.399976100002384" lon="7.679732814276052"><ele>455.33333333333337</ele><time>2026-05-02T13:14:34Z</time></trkpt><trkpt lat="44.40010819678141" lon="7.6799474443171025"><ele>454.6666666666667</ele><time>2026-05-02T13:14:35Z</time></trkpt><trkpt lat="44.40021894358422" lon="7.680148314912563"><ele>454.0</ele><time>2026-05-02T13:14:36Z</time></trkpt><trkpt lat="44.40032535912769" lon="7.680323169184951"><ele>453.75</ele><time>2026-05-02T13:14:37Z</time></trkpt><trkpt lat="44.4004215327067" lon="7.6804870385029576"><ele>453.5</ele><time>2026-05-02T13:14:38Z</time></trkpt><trkpt lat="44.400509096784724" lon="7.6806334362924655"><ele>453.25</ele><time>2026-05-02T13:14:39Z</time></trkpt><trkpt lat="44.4005908330499" lon="7.680772256873105"><ele>453.0</ele><time>2026-05-02T13:14:40Z</time></trkpt><trkpt lat="44.40066568436616" lon="7.680901119678039"><ele>453.0</ele><time>2026-05-02T13:14:41Z</time></trkpt><trkpt lat="44.40074573769332" lon="7.681047491609102"><ele>453.0</ele><time>2026-05-02T13:14:42Z</time></trkpt><trkpt lat="44.40083134336394" lon="7.681193140345785"><ele>453.0</ele><time>2026-05-02T13:14:43Z</time></trkpt><trkpt lat="44.40091441901344" lon="7.681359788012056"><ele>453.0</ele><time>2026-05-02T13:14:44Z</time></trkpt><trkpt lat="44.401010758414095" lon="7.6815319461048865"><ele>452.33333333333337</ele><time>2026-05-02T13:14:45Z</time></trkpt><trkpt lat="44.40113916617203" lon="7.681737587432933"><ele>451.6666666666667</ele><time>2026-05-02T13:14:46Z</time></trkpt><trkpt lat="44.4012667547868" lon="7.681949975871815"><ele>451.0</ele><time>2026-05-02T13:14:47Z</time></trkpt><trkpt lat="44.40139545881916" lon="7.682131519367738"><ele>451.0</ele><time>2026-05-02T13:14:48Z</time></trkpt><trkpt lat="44.401526271993134" lon="7.682303458843681"><ele>451.0</ele><time>2026-05-02T13:14:49Z</time></trkpt><trkpt lat="44.4016543617388" lon="7.682462727209142"><ele>451.0</ele><time>2026-05-02T13:14:50Z</time></trkpt><trkpt lat="44.40177015818653" lon="7.6826201761014605"><ele>451.0</ele><time>2026-05-02T13:14:51Z</time></trkpt><trkpt lat="44.40188066441876" lon="7.682778744442842"><ele>451.0</ele><time>2026-05-02T13:14:52Z</time></trkpt><trkpt lat="44.40197821150654" lon="7.682956915705128"><ele>451.0</ele><time>2026-05-02T13:14:53Z</time></trkpt><trkpt lat="44.4020634985922" lon="7.683148022430804"><ele>451.0</ele><time>2026-05-02T13:14:54Z</time></trkpt><trkpt lat="44.40214037166367" lon="7.683336104584009"><ele>451.0</ele><time>2026-05-02T13:14:55Z</time></trkpt><trkpt lat="44.40220937499537" lon="7.683515059481773"><ele>451.0</ele><time>2026-05-02T13:14:56Z</time></trkpt><trkpt lat="44.402271688659845" lon="7.683680742190624"><ele>451.0</ele><time>2026-05-02T13:14:57Z</time></trkpt><trkpt lat="44.40233645723401" lon="7.683841708765894"><ele>451.25</ele><time>2026-05-02T13:14:58Z</time></trkpt><trkpt lat="44.40239450329921" lon="7.684010297927956"><ele>451.5</ele><time>2026-05-02T13:14:59Z</time></trkpt><trkpt lat="44.40244972940607" lon="7.684190774198791"><ele>451.75</ele><time>2026-05-02T13:15:00Z</time></trkpt><trkpt lat="44.402493015176795" lon="7.684378323470529"><ele>452.0</ele><time>2026-05-02T13:15:01Z</time></trkpt><trkpt lat="44.40253580272129" lon="7.684567092862278"><ele>452.20000000000005</ele><time>2026-05-02T13:15:02Z</time></trkpt><trkpt lat="44.402573194445615" lon="7.684736872928785"><ele>452.40000000000003</ele><time>2026-05-02T13:15:03Z</time></trkpt><trkpt lat="44.40259642699822" lon="7.6848946212863725"><ele>452.59999999999997</ele><time>2026-05-02T13:15:04Z</time></trkpt><trkpt lat="44.402637920045315" lon="7.685038380029083"><ele>452.79999999999995</ele><time>2026-05-02T13:15:05Z</time></trkpt><trkpt lat="44.40268428757546" lon="7.685152706629896"><ele>453.0</ele><time>2026-05-02T13:15:06Z</time></trkpt><trkpt lat="44.40273461478364" lon="7.685235416670083"><ele>452.79999999999995</ele><time>2026-05-02T13:15:07Z</time></trkpt><trkpt lat="44.40279162735674" lon="7.68528468680032"><ele>452.59999999999997</ele><time>2026-05-02T13:15:08Z</time></trkpt><trkpt lat="44.402860554114135" lon="7.685293164590909"><ele>452.40000000000003</ele><time>2026-05-02T13:15:09Z</time></trkpt><trkpt lat="44.40294453789324" lon="7.685274255510267"><ele>452.20000000000005</ele><time>2026-05-02T13:15:10Z</time></trkpt><trkpt lat="44.4030583530418" lon="7.685224347214425"><ele>452.0</ele><time>2026-05-02T13:15:11Z</time></trkpt><trkpt lat="44.403201343031554" lon="7.685178336539173"><ele>451.0</ele><time>2026-05-02T13:15:12Z</time></trkpt><trkpt lat="44.403386394096465" lon="7.68513620569367"><ele>450.0</ele><time>2026-05-02T13:15:13Z</time></trkpt><trkpt lat="44.40355808132385" lon="7.685103488961832"><ele>449.0</ele><time>2026-05-02T13:15:14Z</time></trkpt><trkpt lat="44.403689305567326" lon="7.685078635279602"><ele>449.0</ele><time>2026-05-02T13:15:15Z</time></trkpt><trkpt lat="44.40380856225611" lon="7.685041264808163"><ele>449.0</ele><time>2026-05-02T13:15:16Z</time></trkpt><trkpt lat="44.403933250179634" lon="7.685009959235509"><ele>449.0</ele><time>2026-05-02T13:15:17Z</time></trkpt><trkpt lat="44.40406410302554" lon="7.684985799785582"><ele>449.0</ele><time>2026-05-02T13:15:18Z</time></trkpt><trkpt lat="44.40419568042347" lon="7.6850174433266965"><ele>448.75</ele><time>2026-05-02T13:15:19Z</time></trkpt><trkpt lat="44.40433600679924" lon="7.685068533700383"><ele>448.5</ele><time>2026-05-02T13:15:20Z</time></trkpt><trkpt lat="44.40447896384492" lon="7.685145465304746"><ele>448.25</ele><time>2026-05-02T13:15:21Z</time></trkpt><trkpt lat="44.40459988622557" lon="7.6852347972856165"><ele>448.0</ele><time>2026-05-02T13:15:22Z</time></trkpt><trkpt lat="44.40471036362475" lon="7.685331620860454"><ele>448.0</ele><time>2026-05-02T13:15:23Z</time></trkpt><trkpt lat="44.40482062309086" lon="7.685427837433712"><ele>448.0</ele><time>2026-05-02T13:15:24Z</time></trkpt><trkpt lat="44.40493734534378" lon="7.685530299657694"><ele>448.0</ele><time>2026-05-02T13:15:25Z</time></trkpt><trkpt lat="44.40504870749098" lon="7.685645177424549"><ele>448.0</ele><time>2026-05-02T13:15:26Z</time></trkpt><trkpt lat="44.405147560729745" lon="7.685769257135142"><ele>448.0</ele><time>2026-05-02T13:15:27Z</time></trkpt><trkpt lat="44.40525404186933" lon="7.685913262068454"><ele>448.0</ele><time>2026-05-02T13:15:28Z</time></trkpt><trkpt lat="44.405371047754976" lon="7.686113917942152"><ele>448.0</ele><time>2026-05-02T13:15:29Z</time></trkpt><trkpt lat="44.40552699275331" lon="7.6863504375995975"><ele>448.5</ele><time>2026-05-02T13:15:30Z</time></trkpt><trkpt lat="44.40568508226373" lon="7.686589269094581"><ele>449.0</ele><time>2026-05-02T13:15:31Z</time></trkpt><trkpt lat="44.40584852943449" lon="7.68680166355558"><ele>448.66666666666663</ele><time>2026-05-02T13:15:32Z</time></trkpt><trkpt lat="44.40600419716668" lon="7.687004072272394"><ele>448.33333333333337</ele><time>2026-05-02T13:15:33Z</time></trkpt><trkpt lat="44.40614894200453" lon="7.687187020929911"><ele>448.0</ele><time>2026-05-02T13:15:34Z</time></trkpt><trkpt lat="44.40628517895281" lon="7.687354223459065"><ele>447.33333333333337</ele><time>2026-05-02T13:15:35Z</time></trkpt><trkpt lat="44.40641078540978" lon="7.687510961840589"><ele>446.66666666666663</ele><time>2026-05-02T13:15:36Z</time></trkpt><trkpt lat="44.406532453502216" lon="7.687659988670484"><ele>446.0</ele><time>2026-05-02T13:15:37Z</time></trkpt><trkpt lat="44.406652592587406" lon="7.6878099418457495"><ele>446.0</ele><time>2026-05-02T13:15:38Z</time></trkpt><trkpt lat="44.40677650680911" lon="7.687966449202934"><ele>446.0</ele><time>2026-05-02T13:15:39Z</time></trkpt><trkpt lat="44.40689922001979" lon="7.688139451389177"><ele>446.0</ele><time>2026-05-02T13:15:40Z</time></trkpt><trkpt lat="44.407018032305835" lon="7.688323186060255"><ele>446.0</ele><time>2026-05-02T13:15:41Z</time></trkpt><trkpt lat="44.407131379818075" lon="7.6885515774977415"><ele>446.0</ele><time>2026-05-02T13:15:42Z</time></trkpt><trkpt lat="44.40729128846389" lon="7.688795206358662"><ele>446.0</ele><time>2026-05-02T13:15:43Z</time></trkpt><trkpt lat="44.407436519495434" lon="7.689059866451408"><ele>446.0</ele><time>2026-05-02T13:15:44Z</time></trkpt><trkpt lat="44.407579275636294" lon="7.6893237887023"><ele>446.0</ele><time>2026-05-02T13:15:45Z</time></trkpt><trkpt lat="44.40771684584405" lon="7.689563758049794"><ele>445.0</ele><time>2026-05-02T13:15:46Z</time></trkpt><trkpt lat="44.407857509742655" lon="7.689800688009561"><ele>444.0</ele><time>2026-05-02T13:15:47Z</time></trkpt><trkpt lat="44.40800074361057" lon="7.690051723362608"><ele>443.5</ele><time>2026-05-02T13:15:48Z</time></trkpt><trkpt lat="44.40814670241347" lon="7.690311063745031"><ele>443.0</ele><time>2026-05-02T13:15:49Z</time></trkpt><trkpt lat="44.40830802205956" lon="7.690587528899183"><ele>443.0</ele><time>2026-05-02T13:15:50Z</time></trkpt><trkpt lat="44.40846997861634" lon="7.690867762325567"><ele>443.0</ele><time>2026-05-02T13:15:51Z</time></trkpt><trkpt lat="44.408630053986144" lon="7.691154879438194"><ele>443.0</ele><time>2026-05-02T13:15:52Z</time></trkpt><trkpt lat="44.40878879903729" lon="7.691426297863741"><ele>443.0</ele><time>2026-05-02T13:15:53Z</time></trkpt><trkpt lat="44.4089381627204" lon="7.691691729607291"><ele>442.0</ele><time>2026-05-02T13:15:54Z</time></trkpt><trkpt lat="44.40908269566638" lon="7.69195193836703"><ele>441.0</ele><time>2026-05-02T13:15:55Z</time></trkpt><trkpt lat="44.40921370067428" lon="7.692196393555032"><ele>441.0</ele><time>2026-05-02T13:15:56Z</time></trkpt><trkpt lat="44.40934539324387" lon="7.692453842180043"><ele>441.0</ele><time>2026-05-02T13:15:57Z</time></trkpt><trkpt lat="44.40947784974111" lon="7.692730564025417"><ele>441.0</ele><time>2026-05-02T13:15:58Z</time></trkpt><trkpt lat="44.40960319501704" lon="7.693020102726066"><ele>441.0</ele><time>2026-05-02T13:15:59Z</time></trkpt><trkpt lat="44.409715401827775" lon="7.693298900782305"><ele>441.0</ele><time>2026-05-02T13:16:00Z</time></trkpt><trkpt lat="44.40981908203295" lon="7.6935616768206065"><ele>441.0</ele><time>2026-05-02T13:16:01Z</time></trkpt><trkpt lat="44.40993006020196" lon="7.693815883253548"><ele>441.0</ele><time>2026-05-02T13:16:02Z</time></trkpt><trkpt lat="44.410045718109075" lon="7.6940643222428236"><ele>440.66666666666663</ele><time>2026-05-02T13:16:03Z</time></trkpt><trkpt lat="44.41017297644684" lon="7.694308215514767"><ele>440.3333333333333</ele><time>2026-05-02T13:16:04Z</time></trkpt><trkpt lat="44.41030845484352" lon="7.694550209717055"><ele>440.0</ele><time>2026-05-02T13:16:05Z</time></trkpt><trkpt lat="44.410449911891845" lon="7.694785502393573"><ele>440.0</ele><time>2026-05-02T13:16:06Z</time></trkpt><trkpt lat="44.41059015365535" lon="7.69500370648901"><ele>440.0</ele><time>2026-05-02T13:16:07Z</time></trkpt><trkpt lat="44.410738255843754" lon="7.69519432681606"><ele>440.0</ele><time>2026-05-02T13:16:08Z</time></trkpt><trkpt lat="44.41089576509911" lon="7.695384415645171"><ele>440.0</ele><time>2026-05-02T13:16:09Z</time></trkpt><trkpt lat="44.41106543806413" lon="7.6955620423022895"><ele>440.0</ele><time>2026-05-02T13:16:10Z</time></trkpt><trkpt lat="44.41124184312393" lon="7.695725341851395"><ele>440.0</ele><time>2026-05-02T13:16:11Z</time></trkpt><trkpt lat="44.41141970985496" lon="7.69588382429293"><ele>440.0</ele><time>2026-05-02T13:16:12Z</time></trkpt><trkpt lat="44.41161132733236" lon="7.696056551367184"><ele>440.0</ele><time>2026-05-02T13:16:13Z</time></trkpt><trkpt lat="44.41179585931396" lon="7.696218025896591"><ele>440.0</ele><time>2026-05-02T13:16:14Z</time></trkpt><trkpt lat="44.41196003495389" lon="7.696360839022331"><ele>440.0</ele><time>2026-05-02T13:16:15Z</time></trkpt><trkpt lat="44.41211732377125" lon="7.696500828762762"><ele>440.0</ele><time>2026-05-02T13:16:16Z</time></trkpt><trkpt lat="44.412278952119046" lon="7.696654922093523"><ele>440.0</ele><time>2026-05-02T13:16:17Z</time></trkpt><trkpt lat="44.412436782120025" lon="7.69684271477593"><ele>439.0</ele><time>2026-05-02T13:16:18Z</time></trkpt><trkpt lat="44.41259850063341" lon="7.697066633163977"><ele>438.0</ele><time>2026-05-02T13:16:19Z</time></trkpt><trkpt lat="44.41276013090311" lon="7.697330284947464"><ele>438.0</ele><time>2026-05-02T13:16:20Z</time></trkpt><trkpt lat="44.412925723199116" lon="7.697618752107099"><ele>438.0</ele><time>2026-05-02T13:16:21Z</time></trkpt><trkpt lat="44.41308892880593" lon="7.697905459142439"><ele>437.0</ele><time>2026-05-02T13:16:22Z</time></trkpt><trkpt lat="44.41325101634582" lon="7.698185247029562"><ele>436.0</ele><time>2026-05-02T13:16:23Z</time></trkpt><trkpt lat="44.41341096434943" lon="7.698455677379622"><ele>436.5</ele><time>2026-05-02T13:16:24Z</time></trkpt><trkpt lat="44.41356849142519" lon="7.6987123884113275"><ele>437.0</ele><time>2026-05-02T13:16:25Z</time></trkpt><trkpt lat="44.4137270318781" lon="7.698975065621645"><ele>437.0</ele><time>2026-05-02T13:16:26Z</time></trkpt><trkpt lat="44.413887465741645" lon="7.699224823669032"><ele>437.0</ele><time>2026-05-02T13:16:27Z</time></trkpt><trkpt lat="44.41405493713246" lon="7.6994666393927425"><ele>437.0</ele><time>2026-05-02T13:16:28Z</time></trkpt><trkpt lat="44.41422418115578" lon="7.6996965793957495"><ele>437.0</ele><time>2026-05-02T13:16:29Z</time></trkpt><trkpt lat="44.41440361769366" lon="7.6999175220753235"><ele>437.0</ele><time>2026-05-02T13:16:30Z</time></trkpt><trkpt lat="44.414598988042755" lon="7.700152995383603"><ele>437.0</ele><time>2026-05-02T13:16:31Z</time></trkpt><trkpt lat="44.414803011199645" lon="7.7003981081932205"><ele>436.0</ele><time>2026-05-02T13:16:32Z</time></trkpt><trkpt lat="44.4150157846317" lon="7.700648005242837"><ele>435.0</ele><time>2026-05-02T13:16:33Z</time></trkpt><trkpt lat="44.41522825942485" lon="7.700900419517329"><ele>435.0</ele><time>2026-05-02T13:16:34Z</time></trkpt><trkpt lat="44.41542564055517" lon="7.7011351603190645"><ele>435.0</ele><time>2026-05-02T13:16:35Z</time></trkpt><trkpt lat="44.41560114524565" lon="7.701341623329289"><ele>435.0</ele><time>2026-05-02T13:16:36Z</time></trkpt><trkpt lat="44.415770330517034" lon="7.701533600201741"><ele>435.0</ele><time>2026-05-02T13:16:37Z</time></trkpt><trkpt lat="44.41594341877638" lon="7.701727524015979"><ele>435.0</ele><time>2026-05-02T13:16:38Z</time></trkpt><trkpt lat="44.416137144325646" lon="7.701926269679576"><ele>435.0</ele><time>2026-05-02T13:16:39Z</time></trkpt><trkpt lat="44.41634198063926" lon="7.702115881876238"><ele>435.0</ele><time>2026-05-02T13:16:40Z</time></trkpt><trkpt lat="44.41656051120311" lon="7.702296249692445"><ele>435.0</ele><time>2026-05-02T13:16:41Z</time></trkpt><trkpt lat="44.416792033292346" lon="7.702472346730104"><ele>435.0</ele><time>2026-05-02T13:16:42Z</time></trkpt><trkpt lat="44.41702913931849" lon="7.702642103526391"><ele>435.0</ele><time>2026-05-02T13:16:43Z</time></trkpt><trkpt lat="44.41726800651383" lon="7.702803897713604"><ele>435.0</ele><time>2026-05-02T13:16:44Z</time></trkpt><trkpt lat="44.41750666929096" lon="7.702964159597477"><ele>435.0</ele><time>2026-05-02T13:16:45Z</time></trkpt><trkpt lat="44.41775834812391" lon="7.703122352953845"><ele>435.0</ele><time>2026-05-02T13:16:46Z</time></trkpt><trkpt lat="44.41801964756223" lon="7.703285342302634"><ele>435.0</ele><time>2026-05-02T13:16:47Z</time></trkpt><trkpt lat="44.418289952812046" lon="7.703446845085613"><ele>435.0</ele><time>2026-05-02T13:16:48Z</time></trkpt><trkpt lat="44.41855597561616" lon="7.70360246557211"><ele>435.0</ele><time>2026-05-02T13:16:49Z</time></trkpt><trkpt lat="44.41866093727021" lon="7.703710642510012"><ele>435.0</ele><time>2026-05-02T13:16:50Z</time></trkpt><trkpt lat="44.41884690043823" lon="7.703831379843398"><ele>435.0</ele><time>2026-05-02T13:16:51Z</time></trkpt><trkpt lat="44.419019164830694" lon="7.703943407648206"><ele>434.66666666666663</ele><time>2026-05-02T13:16:52Z</time></trkpt><trkpt lat="44.419185402023444" lon="7.704048639556577"><ele>434.3333333333333</ele><time>2026-05-02T13:16:53Z</time></trkpt><trkpt lat="44.41936872969195" lon="7.704158707596191"><ele>434.0</ele><time>2026-05-02T13:16:54Z</time></trkpt><trkpt lat="44.41956548165503" lon="7.704266645870675"><ele>434.0</ele><time>2026-05-02T13:16:55Z</time></trkpt><trkpt lat="44.4197735994448" lon="7.704384567545273"><ele>434.0</ele><time>2026-05-02T13:16:56Z</time></trkpt><trkpt lat="44.419973255194115" lon="7.704507155791931"><ele>434.0</ele><time>2026-05-02T13:16:57Z</time></trkpt><trkpt lat="44.4201514427947" lon="7.704607707869071"><ele>434.0</ele><time>2026-05-02T13:16:58Z</time></trkpt><trkpt lat="44.420308720966865" lon="7.704703597706509"><ele>434.0</ele><time>2026-05-02T13:16:59Z</time></trkpt><trkpt lat="44.42044497612794" lon="7.704801908575393"><ele>434.0</ele><time>2026-05-02T13:17:00Z</time></trkpt><trkpt lat="44.420575199699506" lon="7.7049092212410235"><ele>434.0</ele><time>2026-05-02T13:17:01Z</time></trkpt><trkpt lat="44.420709559553224" lon="7.705044356961104"><ele>434.0</ele><time>2026-05-02T13:17:02Z</time></trkpt><trkpt lat="44.42083731423992" lon="7.705200330944958"><ele>434.0</ele><time>2026-05-02T13:17:03Z</time></trkpt><trkpt lat="44.420958421725565" lon="7.705366184210616"><ele>433.66666666666663</ele><time>2026-05-02T13:17:04Z</time></trkpt><trkpt lat="44.421082381416994" lon="7.705544916273142"><ele>433.33333333333337</ele><time>2026-05-02T13:17:05Z</time></trkpt><trkpt lat="44.42120653027367" lon="7.70572229395632"><ele>433.0</ele><time>2026-05-02T13:17:06Z</time></trkpt><trkpt lat="44.42132690939438" lon="7.70589740106091"><ele>432.6666666666667</ele><time>2026-05-02T13:17:07Z</time></trkpt><trkpt lat="44.421447342003056" lon="7.706084374021939"><ele>432.33333333333337</ele><time>2026-05-02T13:17:08Z</time></trkpt><trkpt lat="44.42158309934673" lon="7.70627623929747"><ele>432.0</ele><time>2026-05-02T13:17:09Z</time></trkpt><trkpt lat="44.421724339761674" lon="7.706471581358926"><ele>432.0</ele><time>2026-05-02T13:17:10Z</time></trkpt><trkpt lat="44.4218456155413" lon="7.706640899233967"><ele>432.0</ele><time>2026-05-02T13:17:11Z</time></trkpt><trkpt lat="44.42195356737909" lon="7.7067961724391045"><ele>432.0</ele><time>2026-05-02T13:17:12Z</time></trkpt><trkpt lat="44.4220388057926" lon="7.706923223376688"><ele>431.8</ele><time>2026-05-02T13:17:13Z</time></trkpt><trkpt lat="44.42212039741292" lon="7.707038064111506"><ele>431.6</ele><time>2026-05-02T13:17:14Z</time></trkpt><trkpt lat="44.42219251422064" lon="7.707138844494277"><ele>431.40000000000003</ele><time>2026-05-02T13:17:15Z</time></trkpt><trkpt lat="44.4222639145074" lon="7.707251895594672"><ele>431.20000000000005</ele><time>2026-05-02T13:17:16Z</time></trkpt><trkpt lat="44.42233725800482" lon="7.707357850506698"><ele>431.0</ele><time>2026-05-02T13:17:17Z</time></trkpt><trkpt lat="44.42241142872538" lon="7.707489151565803"><ele>431.0</ele><time>2026-05-02T13:17:18Z</time></trkpt><trkpt lat="44.422486100990206" lon="7.707647922101434"><ele>431.0</ele><time>2026-05-02T13:17:19Z</time></trkpt><trkpt lat="44.42255888151196" lon="7.707835390916135"><ele>431.0</ele><time>2026-05-02T13:17:20Z</time></trkpt><trkpt lat="44.42263749062938" lon="7.708074012164083"><ele>431.3333333333333</ele><time>2026-05-02T13:17:21Z</time></trkpt><trkpt lat="44.422720200212204" lon="7.708362693552891"><ele>431.66666666666663</ele><time>2026-05-02T13:17:22Z</time></trkpt><trkpt lat="44.4227936359416" lon="7.708645489943253"><ele>432.0</ele><time>2026-05-02T13:17:23Z</time></trkpt><trkpt lat="44.4228679533409" lon="7.708875326499886"><ele>432.0</ele><time>2026-05-02T13:17:24Z</time></trkpt><trkpt lat="44.42293250603669" lon="7.70907547562652"><ele>432.0</ele><time>2026-05-02T13:17:25Z</time></trkpt><trkpt lat="44.42299523934844" lon="7.709271108585348"><ele>432.0</ele><time>2026-05-02T13:17:26Z</time></trkpt><trkpt lat="44.42305344633268" lon="7.709459918621794"><ele>431.25</ele><time>2026-05-02T13:17:27Z</time></trkpt><trkpt lat="44.423105982744204" lon="7.7096414892440706"><ele>430.5</ele><time>2026-05-02T13:17:28Z</time></trkpt><trkpt lat="44.423155133135104" lon="7.709810389641058"><ele>429.75</ele><time>2026-05-02T13:17:29Z</time></trkpt><trkpt lat="44.42318863396014" lon="7.709983241634667"><ele>429.0</ele><time>2026-05-02T13:17:30Z</time></trkpt><trkpt lat="44.4232129200687" lon="7.710202197414026"><ele>429.33333333333337</ele><time>2026-05-02T13:17:31Z</time></trkpt><trkpt lat="44.423198840269514" lon="7.71045498826151"><ele>429.6666666666667</ele><time>2026-05-02T13:17:32Z</time></trkpt><trkpt lat="44.42320523554101" lon="7.710714761188413"><ele>430.0</ele><time>2026-05-02T13:17:33Z</time></trkpt><trkpt lat="44.42322789869972" lon="7.710978978857822"><ele>428.6666666666667</ele><time>2026-05-02T13:17:34Z</time></trkpt><trkpt lat="44.423276488863955" lon="7.711263950395771"><ele>427.33333333333337</ele><time>2026-05-02T13:17:35Z</time></trkpt><trkpt lat="44.423353107593336" lon="7.711563244451974"><ele>426.0</ele><time>2026-05-02T13:17:36Z</time></trkpt><trkpt lat="44.42344089778938" lon="7.7118905434220775"><ele>425.66666666666663</ele><time>2026-05-02T13:17:37Z</time></trkpt><trkpt lat="44.42350771082218" lon="7.712175396529595"><ele>425.3333333333333</ele><time>2026-05-02T13:17:38Z</time></trkpt><trkpt lat="44.42356067527249" lon="7.7124118872470175"><ele>425.0</ele><time>2026-05-02T13:17:39Z</time></trkpt><trkpt lat="44.42359408676105" lon="7.712641583479199"><ele>426.0</ele><time>2026-05-02T13:17:40Z</time></trkpt><trkpt lat="44.423609804725245" lon="7.712857185327017"><ele>427.0</ele><time>2026-05-02T13:17:41Z</time></trkpt><trkpt lat="44.42359784731252" lon="7.713103282073215"><ele>428.0</ele><time>2026-05-02T13:17:42Z</time></trkpt><trkpt lat="44.42356109129782" lon="7.713377154786741"><ele>428.66666666666663</ele><time>2026-05-02T13:17:43Z</time></trkpt><trkpt lat="44.42350685749391" lon="7.713671330131924"><ele>429.33333333333337</ele><time>2026-05-02T13:17:44Z</time></trkpt><trkpt lat="44.423449309672506" lon="7.713970415512437"><ele>430.0</ele><time>2026-05-02T13:17:45Z</time></trkpt><trkpt lat="44.42339686014121" lon="7.714235948296667"><ele>429.6666666666667</ele><time>2026-05-02T13:17:46Z</time></trkpt><trkpt lat="44.42335608607444" lon="7.714486540748377"><ele>429.33333333333337</ele><time>2026-05-02T13:17:47Z</time></trkpt><trkpt lat="44.423318342397806" lon="7.714750141975217"><ele>429.0</ele><time>2026-05-02T13:17:48Z</time></trkpt><trkpt lat="44.42329591007656" lon="7.715014730005389"><ele>429.33333333333337</ele><time>2026-05-02T13:17:49Z</time></trkpt><trkpt lat="44.42328815801703" lon="7.715264250541382"><ele>429.6666666666667</ele><time>2026-05-02T13:17:50Z</time></trkpt><trkpt lat="44.42328858271864" lon="7.7155044598331415"><ele>430.0</ele><time>2026-05-02T13:17:51Z</time></trkpt><trkpt lat="44.42329772362012" lon="7.715736972007303"><ele>430.0</ele><time>2026-05-02T13:17:52Z</time></trkpt><trkpt lat="44.42331286979661" lon="7.715964541802672"><ele>430.0</ele><time>2026-05-02T13:17:53Z</time></trkpt><trkpt lat="44.423336051045744" lon="7.716164217907639"><ele>430.0</ele><time>2026-05-02T13:17:54Z</time></trkpt><trkpt lat="44.423370378013274" lon="7.71636352427221"><ele>430.0</ele><time>2026-05-02T13:17:55Z</time></trkpt><trkpt lat="44.423412592670424" lon="7.716568326250916"><ele>430.0</ele><time>2026-05-02T13:17:56Z</time></trkpt><trkpt lat="44.42345647227217" lon="7.716771327608308"><ele>430.0</ele><time>2026-05-02T13:17:57Z</time></trkpt><trkpt lat="44.4235078705106" lon="7.716918091308797"><ele>430.0</ele><time>2026-05-02T13:17:58Z</time></trkpt><trkpt lat="44.42353913210663" lon="7.717046522742998"><ele>429.57142857142856</ele><time>2026-05-02T13:17:59Z</time></trkpt><trkpt lat="44.42356245085174" lon="7.717170622674762"><ele>429.14285714285717</ele><time>2026-05-02T13:18:00Z</time></trkpt><trkpt lat="44.4235802920701" lon="7.717264593439017"><ele>428.7142857142857</ele><time>2026-05-02T13:18:01Z</time></trkpt><trkpt lat="44.423587834681754" lon="7.717353372245922"><ele>428.2857142857143</ele><time>2026-05-02T13:18:02Z</time></trkpt><trkpt lat="44.42358742240827" lon="7.717442157589876"><ele>427.8571428571429</ele><time>2026-05-02T13:18:03Z</time></trkpt><trkpt lat="44.4235821729632" lon="7.717535343994506"><ele>427.42857142857144</ele><time>2026-05-02T13:18:04Z</time></trkpt><trkpt lat="44.4236035636379" lon="7.717649817632029"><ele>427.0</ele><time>2026-05-02T13:18:05Z</time></trkpt><trkpt lat="44.42365095491422" lon="7.717777597313046"><ele>426.75</ele><time>2026-05-02T13:18:06Z</time></trkpt><trkpt lat="44.42371778990578" lon="7.717884340198948"><ele>426.5</ele><time>2026-05-02T13:18:07Z</time></trkpt><trkpt lat="44.42378144864528" lon="7.71800826957941"><ele>426.25</ele><time>2026-05-02T13:18:08Z</time></trkpt><trkpt lat="44.42383561902379" lon="7.718161652007949"><ele>426.0</ele><time>2026-05-02T13:18:09Z</time></trkpt><trkpt lat="44.423881022090285" lon="7.718339194311673"><ele>426.0</ele><time>2026-05-02T13:18:10Z</time></trkpt><trkpt lat="44.42393315596176" lon="7.718533415493245"><ele>426.0</ele><time>2026-05-02T13:18:11Z</time></trkpt><trkpt lat="44.423983933314" lon="7.718710099888174"><ele>426.0</ele><time>2026-05-02T13:18:12Z</time></trkpt><trkpt lat="44.424040303824036" lon="7.71891667776893"><ele>426.0</ele><time>2026-05-02T13:18:13Z</time></trkpt><trkpt lat="44.42410564031823" lon="7.719177643590215"><ele>425.5</ele><time>2026-05-02T13:18:14Z</time></trkpt><trkpt lat="44.42417440411812" lon="7.7194639600360215"><ele>425.0</ele><time>2026-05-02T13:18:15Z</time></trkpt><trkpt lat="44.42426174831612" lon="7.71979054821253"><ele>425.0</ele><time>2026-05-02T13:18:16Z</time></trkpt><trkpt lat="44.42436744693042" lon="7.720148169753332"><ele>425.0</ele><time>2026-05-02T13:18:17Z</time></trkpt><trkpt lat="44.42446147689865" lon="7.720527893379148"><ele>424.5</ele><time>2026-05-02T13:18:18Z</time></trkpt><trkpt lat="44.42456324758938" lon="7.72090625865212"><ele>424.0</ele><time>2026-05-02T13:18:19Z</time></trkpt><trkpt lat="44.424657299782176" lon="7.721249701601328"><ele>424.0</ele><time>2026-05-02T13:18:20Z</time></trkpt><trkpt lat="44.424736800954946" lon="7.721564655163746"><ele>424.0</ele><time>2026-05-02T13:18:21Z</time></trkpt><trkpt lat="44.42481954203519" lon="7.721880653092152"><ele>423.5</ele><time>2026-05-02T13:18:22Z</time></trkpt><trkpt lat="44.42491118995151" lon="7.722210494082095"><ele>423.0</ele><time>2026-05-02T13:18:23Z</time></trkpt><trkpt lat="44.42500283610136" lon="7.722551652357338"><ele>424.0</ele><time>2026-05-02T13:18:24Z</time></trkpt><trkpt lat="44.4250993560441" lon="7.722916766812344"><ele>425.0</ele><time>2026-05-02T13:18:25Z</time></trkpt><trkpt lat="44.42519576176421" lon="7.7232788816707245"><ele>424.0</ele><time>2026-05-02T13:18:26Z</time></trkpt><trkpt lat="44.42529184998856" lon="7.7236400299287995"><ele>423.0</ele><time>2026-05-02T13:18:27Z</time></trkpt><trkpt lat="44.425381201498745" lon="7.723979391525475"><ele>423.0</ele><time>2026-05-02T13:18:28Z</time></trkpt><trkpt lat="44.42546115663595" lon="7.724289068597505"><ele>423.0</ele><time>2026-05-02T13:18:29Z</time></trkpt><trkpt lat="44.425534800427414" lon="7.724569216631126"><ele>423.0</ele><time>2026-05-02T13:18:30Z</time></trkpt><trkpt lat="44.42560569671136" lon="7.724827881112786"><ele>423.0</ele><time>2026-05-02T13:18:31Z</time></trkpt><trkpt lat="44.425672699019174" lon="7.725083242452788"><ele>423.0</ele><time>2026-05-02T13:18:32Z</time></trkpt><trkpt lat="44.42574659251468" lon="7.725362868432988"><ele>423.0</ele><time>2026-05-02T13:18:33Z</time></trkpt><trkpt lat="44.42582987951492" lon="7.725669076156166"><ele>422.0</ele><time>2026-05-02T13:18:34Z</time></trkpt><trkpt lat="44.425917948127996" lon="7.725992390326387"><ele>421.0</ele><time>2026-05-02T13:18:35Z</time></trkpt><trkpt lat="44.42600673691027" lon="7.726328535517341"><ele>420.5</ele><time>2026-05-02T13:18:36Z</time></trkpt><trkpt lat="44.42609325645766" lon="7.726664344225285"><ele>420.0</ele><time>2026-05-02T13:18:37Z</time></trkpt><trkpt lat="44.426186008184594" lon="7.727013913247946"><ele>420.0</ele><time>2026-05-02T13:18:38Z</time></trkpt><trkpt lat="44.4262874261059" lon="7.727358568197132"><ele>420.0</ele><time>2026-05-02T13:18:39Z</time></trkpt><trkpt lat="44.42638675771234" lon="7.727705851193928"><ele>419.5</ele><time>2026-05-02T13:18:40Z</time></trkpt><trkpt lat="44.426477126926734" lon="7.728052928280489"><ele>419.0</ele><time>2026-05-02T13:18:41Z</time></trkpt><trkpt lat="44.42656940410275" lon="7.728401250560049"><ele>419.0</ele><time>2026-05-02T13:18:42Z</time></trkpt><trkpt lat="44.42666424130804" lon="7.728751321424159"><ele>419.0</ele><time>2026-05-02T13:18:43Z</time></trkpt><trkpt lat="44.426752709195306" lon="7.7290751147775545"><ele>419.0</ele><time>2026-05-02T13:18:44Z</time></trkpt><trkpt lat="44.426836021918696" lon="7.729366954357787"><ele>419.0</ele><time>2026-05-02T13:18:45Z</time></trkpt><trkpt lat="44.42691052937604" lon="7.729637545828216"><ele>419.0</ele><time>2026-05-02T13:18:46Z</time></trkpt><trkpt lat="44.426982220494686" lon="7.729890743873655"><ele>419.0</ele><time>2026-05-02T13:18:47Z</time></trkpt><trkpt lat="44.42705257160331" lon="7.730142276437811"><ele>419.0</ele><time>2026-05-02T13:18:48Z</time></trkpt><trkpt lat="44.42712018563589" lon="7.730385933511717"><ele>419.0</ele><time>2026-05-02T13:18:49Z</time></trkpt><trkpt lat="44.42718943315119" lon="7.730622379348168"><ele>419.3333333333333</ele><time>2026-05-02T13:18:50Z</time></trkpt><trkpt lat="44.42726292021285" lon="7.730870435036898"><ele>419.66666666666663</ele><time>2026-05-02T13:18:51Z</time></trkpt><trkpt lat="44.427342379226175" lon="7.731135636447218"><ele>420.0</ele><time>2026-05-02T13:18:52Z</time></trkpt><trkpt lat="44.427426083795815" lon="7.731406876652088"><ele>420.0</ele><time>2026-05-02T13:18:53Z</time></trkpt><trkpt lat="44.427509581500686" lon="7.7316842162897705"><ele>420.0</ele><time>2026-05-02T13:18:54Z</time></trkpt><trkpt lat="44.427591556401566" lon="7.731962267036306"><ele>420.0</ele><time>2026-05-02T13:18:55Z</time></trkpt><trkpt lat="44.427674305656566" lon="7.732242453464341"><ele>419.33333333333337</ele><time>2026-05-02T13:18:56Z</time></trkpt><trkpt lat="44.427758788669564" lon="7.732513342429264"><ele>418.6666666666667</ele><time>2026-05-02T13:18:57Z</time></trkpt><trkpt lat="44.42783648011965" lon="7.732782850104449"><ele>418.0</ele><time>2026-05-02T13:18:58Z</time></trkpt><trkpt lat="44.427915196935444" lon="7.733064332795766"><ele>418.0</ele><time>2026-05-02T13:18:59Z</time></trkpt><trkpt lat="44.42799501007981" lon="7.733349855230171"><ele>418.0</ele><time>2026-05-02T13:19:00Z</time></trkpt><trkpt lat="44.42807415609935" lon="7.733640659614949"><ele>418.0</ele><time>2026-05-02T13:19:01Z</time></trkpt><trkpt lat="44.42816151670447" lon="7.733979473037117"><ele>418.0</ele><time>2026-05-02T13:19:02Z</time></trkpt><trkpt lat="44.42825668968291" lon="7.734351940028209"><ele>418.0</ele><time>2026-05-02T13:19:03Z</time></trkpt><trkpt lat="44.428349660899535" lon="7.734726407860973"><ele>418.5</ele><time>2026-05-02T13:19:04Z</time></trkpt><trkpt lat="44.42844209345076" lon="7.73511219392322"><ele>419.0</ele><time>2026-05-02T13:19:05Z</time></trkpt><trkpt lat="44.42853705361517" lon="7.735495992218354"><ele>418.0</ele><time>2026-05-02T13:19:06Z</time></trkpt><trkpt lat="44.428633255086275" lon="7.735892944934517"><ele>417.0</ele><time>2026-05-02T13:19:07Z</time></trkpt><trkpt lat="44.428725020429475" lon="7.7362935056498"><ele>417.5</ele><time>2026-05-02T13:19:08Z</time></trkpt><trkpt lat="44.4288167438674" lon="7.736690263131592"><ele>418.0</ele><time>2026-05-02T13:19:09Z</time></trkpt><trkpt lat="44.42891089534252" lon="7.737090037143651"><ele>418.0</ele><time>2026-05-02T13:19:10Z</time></trkpt><trkpt lat="44.42899800580603" lon="7.737468895233644"><ele>418.0</ele><time>2026-05-02T13:19:11Z</time></trkpt><trkpt lat="44.42908156091634" lon="7.737830781023707"><ele>417.5</ele><time>2026-05-02T13:19:12Z</time></trkpt><trkpt lat="44.42916143295503" lon="7.738190811663883"><ele>417.0</ele><time>2026-05-02T13:19:13Z</time></trkpt><trkpt lat="44.42923852381807" lon="7.738552499556736"><ele>416.0</ele><time>2026-05-02T13:19:14Z</time></trkpt><trkpt lat="44.42931592508545" lon="7.738912419922055"><ele>415.0</ele><time>2026-05-02T13:19:15Z</time></trkpt><trkpt lat="44.429380069088495" lon="7.7392702652901475"><ele>415.0</ele><time>2026-05-02T13:19:16Z</time></trkpt><trkpt lat="44.429443543597664" lon="7.739606827141716"><ele>415.0</ele><time>2026-05-02T13:19:17Z</time></trkpt><trkpt lat="44.429497042751805" lon="7.739912348681898"><ele>415.0</ele><time>2026-05-02T13:19:18Z</time></trkpt><trkpt lat="44.4295528511565" lon="7.740210376625129"><ele>415.0</ele><time>2026-05-02T13:19:19Z</time></trkpt><trkpt lat="44.42960770700675" lon="7.740506691782588"><ele>415.0</ele><time>2026-05-02T13:19:20Z</time></trkpt><trkpt lat="44.42966888010679" lon="7.7408019248294435"><ele>415.6666666666667</ele><time>2026-05-02T13:19:21Z</time></trkpt><trkpt lat="44.42972772399376" lon="7.741097761677834"><ele>416.33333333333337</ele><time>2026-05-02T13:19:22Z</time></trkpt><trkpt lat="44.429777650325775" lon="7.7413837792167195"><ele>417.0</ele><time>2026-05-02T13:19:23Z</time></trkpt><trkpt lat="44.42982525586241" lon="7.741670263528621"><ele>417.0</ele><time>2026-05-02T13:19:24Z</time></trkpt><trkpt lat="44.42987987263626" lon="7.741955892045381"><ele>417.0</ele><time>2026-05-02T13:19:25Z</time></trkpt><trkpt lat="44.42993307389973" lon="7.742241452298812"><ele>417.0</ele><time>2026-05-02T13:19:26Z</time></trkpt><trkpt lat="44.42998720697778" lon="7.742503478965422"><ele>416.33333333333337</ele><time>2026-05-02T13:19:27Z</time></trkpt><trkpt lat="44.430034530134996" lon="7.742743399391799"><ele>415.6666666666667</ele><time>2026-05-02T13:19:28Z</time></trkpt><trkpt lat="44.43007583706097" lon="7.742963238033538"><ele>415.0</ele><time>2026-05-02T13:19:29Z</time></trkpt><trkpt lat="44.43011381493762" lon="7.743173448439157"><ele>415.0</ele><time>2026-05-02T13:19:30Z</time></trkpt><trkpt lat="44.4301513430028" lon="7.743359124555123"><ele>415.0</ele><time>2026-05-02T13:19:31Z</time></trkpt><trkpt lat="44.43019204860247" lon="7.7435330254246315"><ele>415.0</ele><time>2026-05-02T13:19:32Z</time></trkpt><trkpt lat="44.43022127444656" lon="7.743661128883798"><ele>415.0</ele><time>2026-05-02T13:19:33Z</time></trkpt><trkpt lat="44.43024952478121" lon="7.743775569076131"><ele>415.00000000000006</ele><time>2026-05-02T13:19:34Z</time></trkpt><trkpt lat="44.43027932067559" lon="7.743889723021549"><ele>415.0</ele><time>2026-05-02T13:19:35Z</time></trkpt><trkpt lat="44.430307320412844" lon="7.744002696240903"><ele>415.0</ele><time>2026-05-02T13:19:36Z</time></trkpt><trkpt lat="44.43033754463756" lon="7.744114728746807"><ele>415.0</ele><time>2026-05-02T13:19:37Z</time></trkpt><trkpt lat="44.43036379224509" lon="7.744219680748845"><ele>415.00000000000006</ele><time>2026-05-02T13:19:38Z</time></trkpt><trkpt lat="44.430388041643944" lon="7.744319421939486"><ele>415.0</ele><time>2026-05-02T13:19:39Z</time></trkpt><trkpt lat="44.430409974601275" lon="7.744419543147943"><ele>415.0</ele><time>2026-05-02T13:19:40Z</time></trkpt><trkpt lat="44.43043271274051" lon="7.74450782189749"><ele>415.0</ele><time>2026-05-02T13:19:41Z</time></trkpt><trkpt lat="44.430458948752694" lon="7.74462259530389"><ele>415.0</ele><time>2026-05-02T13:19:43Z</time></trkpt><trkpt lat="44.43049561633903" lon="7.744792764673283"><ele>415.0</ele><time>2026-05-02T13:19:50Z</time></trkpt><trkpt lat="44.43053869551391" lon="7.744974420965967"><ele>415.0</ele><time>2026-05-02T13:19:51Z</time></trkpt><trkpt lat="44.43058769053978" lon="7.745194867667916"><ele>415.0</ele><time>2026-05-02T13:19:52Z</time></trkpt><trkpt lat="44.43063903572957" lon="7.745406400166192"><ele>415.0</ele><time>2026-05-02T13:19:53Z</time></trkpt><trkpt lat="44.43068792210552" lon="7.74559173862291"><ele>415.0</ele><time>2026-05-02T13:19:54Z</time></trkpt><trkpt lat="44.43074598546903" lon="7.7457939923211585"><ele>415.0</ele><time>2026-05-02T13:19:55Z</time></trkpt><trkpt lat="44.430806313244624" lon="7.745997773947161"><ele>415.0</ele><time>2026-05-02T13:19:56Z</time></trkpt><trkpt lat="44.43087965998384" lon="7.746197563627719"><ele>415.0</ele><time>2026-05-02T13:19:57Z</time></trkpt><trkpt lat="44.43094751681884" lon="7.746396303301183"><ele>413.6666666666667</ele><time>2026-05-02T13:19:58Z</time></trkpt><trkpt lat="44.4310118924922" lon="7.746600442077544"><ele>412.33333333333337</ele><time>2026-05-02T13:19:59Z</time></trkpt><trkpt lat="44.431079830635255" lon="7.746823496162199"><ele>411.0</ele><time>2026-05-02T13:20:00Z</time></trkpt><trkpt lat="44.43116737745719" lon="7.747097207337246"><ele>411.0</ele><time>2026-05-02T13:20:01Z</time></trkpt><trkpt lat="44.431276826684716" lon="7.74741132043017"><ele>411.0</ele><time>2026-05-02T13:20:02Z</time></trkpt><trkpt lat="44.43139310836628" lon="7.747753040055529"><ele>411.5</ele><time>2026-05-02T13:20:03Z</time></trkpt><trkpt lat="44.43149064358657" lon="7.748083440794632"><ele>412.0</ele><time>2026-05-02T13:20:04Z</time></trkpt><trkpt lat="44.431588954118844" lon="7.748396724819815"><ele>411.0</ele><time>2026-05-02T13:20:05Z</time></trkpt><trkpt lat="44.43168797097773" lon="7.74871212630278"><ele>410.0</ele><time>2026-05-02T13:20:06Z</time></trkpt><trkpt lat="44.431787548951625" lon="7.749032337666488"><ele>410.0</ele><time>2026-05-02T13:20:07Z</time></trkpt><trkpt lat="44.43189458520354" lon="7.749361985717815"><ele>410.0</ele><time>2026-05-02T13:20:08Z</time></trkpt><trkpt lat="44.43200499764843" lon="7.749697342434373"><ele>410.0</ele><time>2026-05-02T13:20:09Z</time></trkpt><trkpt lat="44.43211313550079" lon="7.750044258653959"><ele>410.0</ele><time>2026-05-02T13:20:10Z</time></trkpt><trkpt lat="44.43222780534127" lon="7.75040948820133"><ele>410.0</ele><time>2026-05-02T13:20:11Z</time></trkpt><trkpt lat="44.432353277291824" lon="7.750806020019297"><ele>410.0</ele><time>2026-05-02T13:20:12Z</time></trkpt><trkpt lat="44.432487607322095" lon="7.751231138627161"><ele>409.5</ele><time>2026-05-02T13:20:13Z</time></trkpt><trkpt lat="44.432627272755866" lon="7.751666825550756"><ele>409.0</ele><time>2026-05-02T13:20:14Z</time></trkpt><trkpt lat="44.43277110742375" lon="7.752121740325621"><ele>409.0</ele><time>2026-05-02T13:20:15Z</time></trkpt><trkpt lat="44.43292083541116" lon="7.752588701912078"><ele>409.0</ele><time>2026-05-02T13:20:16Z</time></trkpt><trkpt lat="44.43306945914311" lon="7.753050247811209"><ele>409.5</ele><time>2026-05-02T13:20:17Z</time></trkpt><trkpt lat="44.433217446798615" lon="7.753520226230129"><ele>410.0</ele><time>2026-05-02T13:20:18Z</time></trkpt><trkpt lat="44.43336250460735" lon="7.753991236016731"><ele>408.5</ele><time>2026-05-02T13:20:19Z</time></trkpt><trkpt lat="44.433518490068856" lon="7.7544766693249425"><ele>407.0</ele><time>2026-05-02T13:20:20Z</time></trkpt><trkpt lat="44.433677140884015" lon="7.754980533733458"><ele>408.5</ele><time>2026-05-02T13:20:21Z</time></trkpt><trkpt lat="44.43383762957889" lon="7.755478185024696"><ele>410.0</ele><time>2026-05-02T13:20:22Z</time></trkpt><trkpt lat="44.433991047948055" lon="7.755962099168659"><ele>408.5</ele><time>2026-05-02T13:20:23Z</time></trkpt><trkpt lat="44.43413882319736" lon="7.756429801224057"><ele>407.0</ele><time>2026-05-02T13:20:24Z</time></trkpt><trkpt lat="44.434281638279785" lon="7.756888238264797"><ele>407.0</ele><time>2026-05-02T13:20:25Z</time></trkpt><trkpt lat="44.43442609038029" lon="7.757351558030273"><ele>407.0</ele><time>2026-05-02T13:20:26Z</time></trkpt><trkpt lat="44.43457772889494" lon="7.757820326498994"><ele>407.5</ele><time>2026-05-02T13:20:27Z</time></trkpt><trkpt lat="44.43473460248376" lon="7.758304878690742"><ele>408.0</ele><time>2026-05-02T13:20:28Z</time></trkpt><trkpt lat="44.43489457337765" lon="7.75880178441917"><ele>407.0</ele><time>2026-05-02T13:20:29Z</time></trkpt><trkpt lat="44.435050336406206" lon="7.759287553839908"><ele>406.0</ele><time>2026-05-02T13:20:30Z</time></trkpt><trkpt lat="44.43520264577427" lon="7.759772286725264"><ele>406.0</ele><time>2026-05-02T13:20:31Z</time></trkpt><trkpt lat="44.4353523564783" lon="7.7602392035892365"><ele>406.0</ele><time>2026-05-02T13:20:32Z</time></trkpt><trkpt lat="44.43550065325392" lon="7.760709588049742"><ele>405.5</ele><time>2026-05-02T13:20:33Z</time></trkpt><trkpt lat="44.43565177588377" lon="7.761184065347386"><ele>405.0</ele><time>2026-05-02T13:20:34Z</time></trkpt><trkpt lat="44.435799852769925" lon="7.761649664305612"><ele>404.5</ele><time>2026-05-02T13:20:35Z</time></trkpt><trkpt lat="44.43594319109901" lon="7.762110163821602"><ele>404.0</ele><time>2026-05-02T13:20:36Z</time></trkpt><trkpt lat="44.436072982251666" lon="7.762520336549485"><ele>404.0</ele><time>2026-05-02T13:20:37Z</time></trkpt><trkpt lat="44.43619330837046" lon="7.762907970240491"><ele>404.0</ele><time>2026-05-02T13:20:38Z</time></trkpt><trkpt lat="44.43630720774992" lon="7.763280874401321"><ele>404.0</ele><time>2026-05-02T13:20:39Z</time></trkpt><trkpt lat="44.43642590718776" lon="7.763657850746183"><ele>404.0</ele><time>2026-05-02T13:20:40Z</time></trkpt><trkpt lat="44.43654800548252" lon="7.764043519668045"><ele>404.0</ele><time>2026-05-02T13:20:41Z</time></trkpt><trkpt lat="44.43667201696105" lon="7.764432331916115"><ele>404.0</ele><time>2026-05-02T13:20:42Z</time></trkpt><trkpt lat="44.43680189072686" lon="7.764841662339056"><ele>404.0</ele><time>2026-05-02T13:20:43Z</time></trkpt><trkpt lat="44.43694177454698" lon="7.7652790260465245"><ele>404.0</ele><time>2026-05-02T13:20:44Z</time></trkpt><trkpt lat="44.43707740992818" lon="7.765703823363427"><ele>403.5</ele><time>2026-05-02T13:20:45Z</time></trkpt><trkpt lat="44.43721114386532" lon="7.766125715793685"><ele>403.0</ele><time>2026-05-02T13:20:46Z</time></trkpt><trkpt lat="44.43734902869736" lon="7.76655596577428"><ele>403.0</ele><time>2026-05-02T13:20:47Z</time></trkpt><trkpt lat="44.437488164013054" lon="7.766993516400962"><ele>403.0</ele><time>2026-05-02T13:20:48Z</time></trkpt><trkpt lat="44.43762891082882" lon="7.76743175988019"><ele>403.0</ele><time>2026-05-02T13:20:49Z</time></trkpt><trkpt lat="44.43776562213165" lon="7.767865711216411"><ele>403.0</ele><time>2026-05-02T13:20:50Z</time></trkpt><trkpt lat="44.437899815551425" lon="7.768287955146454"><ele>403.0</ele><time>2026-05-02T13:20:51Z</time></trkpt><trkpt lat="44.43803325193334" lon="7.76870574958128"><ele>403.0</ele><time>2026-05-02T13:20:52Z</time></trkpt><trkpt lat="44.438168459438465" lon="7.7691318991633205"><ele>402.5</ele><time>2026-05-02T13:20:53Z</time></trkpt><trkpt lat="44.438305629881526" lon="7.769566559072072"><ele>402.0</ele><time>2026-05-02T13:20:54Z</time></trkpt><trkpt lat="44.43844886178587" lon="7.770018054059449"><ele>401.5</ele><time>2026-05-02T13:20:55Z</time></trkpt><trkpt lat="44.43859598420571" lon="7.770485806332353"><ele>401.0</ele><time>2026-05-02T13:20:56Z</time></trkpt><trkpt lat="44.43875516657519" lon="7.770986678289943"><ele>401.0</ele><time>2026-05-02T13:20:57Z</time></trkpt><trkpt lat="44.43891127311323" lon="7.771477939466174"><ele>401.0</ele><time>2026-05-02T13:20:58Z</time></trkpt><trkpt lat="44.43906793891692" lon="7.771959471100961"><ele>400.5</ele><time>2026-05-02T13:20:59Z</time></trkpt><trkpt lat="44.439216933424426" lon="7.772434409779998"><ele>400.0</ele><time>2026-05-02T13:21:00Z</time></trkpt><trkpt lat="44.43935264053211" lon="7.7728689928405705"><ele>400.0</ele><time>2026-05-02T13:21:01Z</time></trkpt><trkpt lat="44.439473168299656" lon="7.773256041007157"><ele>400.0</ele><time>2026-05-02T13:21:02Z</time></trkpt><trkpt lat="44.43958751372002" lon="7.773627282385164"><ele>400.0</ele><time>2026-05-02T13:21:03Z</time></trkpt><trkpt lat="44.43969870588228" lon="7.77397971458059"><ele>400.0</ele><time>2026-05-02T13:21:04Z</time></trkpt><trkpt lat="44.439806992677575" lon="7.7743238141722575"><ele>399.5</ele><time>2026-05-02T13:21:05Z</time></trkpt><trkpt lat="44.439912599479186" lon="7.7746575584591024"><ele>399.0</ele><time>2026-05-02T13:21:06Z</time></trkpt><trkpt lat="44.44001687064726" lon="7.774983992878523"><ele>399.5</ele><time>2026-05-02T13:21:07Z</time></trkpt><trkpt lat="44.440115109639535" lon="7.775296552319292"><ele>400.0</ele><time>2026-05-02T13:21:08Z</time></trkpt><trkpt lat="44.44021465663633" lon="7.775619131791469"><ele>400.0</ele><time>2026-05-02T13:21:09Z</time></trkpt><trkpt lat="44.44031870869838" lon="7.775952543225004"><ele>400.0</ele><time>2026-05-02T13:21:10Z</time></trkpt><trkpt lat="44.44043358361558" lon="7.776306951346155"><ele>399.5</ele><time>2026-05-02T13:21:11Z</time></trkpt><trkpt lat="44.440552697476846" lon="7.776669900078341"><ele>399.0</ele><time>2026-05-02T13:21:12Z</time></trkpt><trkpt lat="44.44067216178388" lon="7.777034757700314"><ele>398.5</ele><time>2026-05-02T13:21:13Z</time></trkpt><trkpt lat="44.440798334111015" lon="7.7773917581833265"><ele>398.0</ele><time>2026-05-02T13:21:14Z</time></trkpt><trkpt lat="44.4409344005143" lon="7.777739434455708"><ele>397.5</ele><time>2026-05-02T13:21:15Z</time></trkpt><trkpt lat="44.441077322962315" lon="7.778074283910673"><ele>397.0</ele><time>2026-05-02T13:21:16Z</time></trkpt><trkpt lat="44.441216272634534" lon="7.778406907663665"><ele>397.5</ele><time>2026-05-02T13:21:17Z</time></trkpt><trkpt lat="44.44133636608261" lon="7.778709351539224"><ele>398.0</ele><time>2026-05-02T13:21:18Z</time></trkpt><trkpt lat="44.441441281946744" lon="7.778980030056944"><ele>398.0</ele><time>2026-05-02T13:21:19Z</time></trkpt><trkpt lat="44.44153225783779" lon="7.77921983039"><ele>398.0</ele><time>2026-05-02T13:21:20Z</time></trkpt><trkpt lat="44.44161442857495" lon="7.779447182601628"><ele>398.0</ele><time>2026-05-02T13:21:21Z</time></trkpt><trkpt lat="44.4416846820138" lon="7.779672381831307"><ele>397.66666666666663</ele><time>2026-05-02T13:21:22Z</time></trkpt><trkpt lat="44.441740243076836" lon="7.779898491256794"><ele>397.33333333333337</ele><time>2026-05-02T13:21:23Z</time></trkpt><trkpt lat="44.44180968571462" lon="7.780160792625529"><ele>397.0</ele><time>2026-05-02T13:21:24Z</time></trkpt><trkpt lat="44.441887766991606" lon="7.780441659711261"><ele>397.0</ele><time>2026-05-02T13:21:25Z</time></trkpt><trkpt lat="44.44198135437128" lon="7.780735442733143"><ele>397.0</ele><time>2026-05-02T13:21:26Z</time></trkpt><trkpt lat="44.44208547612288" lon="7.7810700612117625"><ele>396.5</ele><time>2026-05-02T13:21:27Z</time></trkpt><trkpt lat="44.4421958814304" lon="7.7814643612597045"><ele>396.0</ele><time>2026-05-02T13:21:28Z</time></trkpt><trkpt lat="44.44230954606636" lon="7.781887110551214"><ele>395.0</ele><time>2026-05-02T13:21:29Z</time></trkpt><trkpt lat="44.44243171771007" lon="7.782328924606021"><ele>394.0</ele><time>2026-05-02T13:21:30Z</time></trkpt><trkpt lat="44.442557254902056" lon="7.782770094726492"><ele>393.5</ele><time>2026-05-02T13:21:31Z</time></trkpt><trkpt lat="44.44268548967502" lon="7.783215058531431"><ele>393.0</ele><time>2026-05-02T13:21:32Z</time></trkpt><trkpt lat="44.44280689836257" lon="7.78364149877237"><ele>391.5</ele><time>2026-05-02T13:21:33Z</time></trkpt><trkpt lat="44.44292326234446" lon="7.78404188519283"><ele>390.0</ele><time>2026-05-02T13:21:34Z</time></trkpt><trkpt lat="44.44303128019638" lon="7.784418073489067"><ele>390.0</ele><time>2026-05-02T13:21:35Z</time></trkpt><trkpt lat="44.4431336930959" lon="7.784778155829242"><ele>390.0</ele><time>2026-05-02T13:21:36Z</time></trkpt><trkpt lat="44.44323963632153" lon="7.785140077998967"><ele>390.5</ele><time>2026-05-02T13:21:37Z</time></trkpt><trkpt lat="44.44335029348058" lon="7.785493100928652"><ele>391.0</ele><time>2026-05-02T13:21:38Z</time></trkpt><trkpt lat="44.443451663703" lon="7.785818537590925"><ele>391.6666666666667</ele><time>2026-05-02T13:21:39Z</time></trkpt><trkpt lat="44.44354105930806" lon="7.7861064668242"><ele>392.33333333333337</ele><time>2026-05-02T13:21:40Z</time></trkpt><trkpt lat="44.44362543504168" lon="7.786354432217544"><ele>393.0</ele><time>2026-05-02T13:21:41Z</time></trkpt><trkpt lat="44.44370007121141" lon="7.786585991969413"><ele>393.0</ele><time>2026-05-02T13:21:42Z</time></trkpt><trkpt lat="44.443761857951976" lon="7.786801386042104"><ele>393.0</ele><time>2026-05-02T13:21:43Z</time></trkpt><trkpt lat="44.4438183704713" lon="7.786981382781845"><ele>393.0</ele><time>2026-05-02T13:21:44Z</time></trkpt><trkpt lat="44.44385620642481" lon="7.787126904881502"><ele>393.0</ele><time>2026-05-02T13:21:45Z</time></trkpt><trkpt lat="44.44389824566005" lon="7.787272179865601"><ele>392.59999999999997</ele><time>2026-05-02T13:21:46Z</time></trkpt><trkpt lat="44.44392569450269" lon="7.787415063233871"><ele>392.2</ele><time>2026-05-02T13:21:47Z</time></trkpt><trkpt lat="44.44394573441279" lon="7.787562291351214"><ele>391.8</ele><time>2026-05-02T13:21:48Z</time></trkpt><trkpt lat="44.443945383912336" lon="7.7876979785044576"><ele>391.4</ele><time>2026-05-02T13:21:49Z</time></trkpt><trkpt lat="44.44393754642694" lon="7.787813688027758"><ele>391.0</ele><time>2026-05-02T13:21:50Z</time></trkpt><trkpt lat="44.44395968635474" lon="7.787927359986225"><ele>390.75</ele><time>2026-05-02T13:21:51Z</time></trkpt><trkpt lat="44.44402236317731" lon="7.78804995455056"><ele>390.5</ele><time>2026-05-02T13:21:52Z</time></trkpt><trkpt lat="44.44411047292553" lon="7.788173093128774"><ele>390.25</ele><time>2026-05-02T13:21:53Z</time></trkpt><trkpt lat="44.444213187639185" lon="7.788306473709791"><ele>390.0</ele><time>2026-05-02T13:21:54Z</time></trkpt><trkpt lat="44.44429920102503" lon="7.7884978477433755"><ele>389.5</ele><time>2026-05-02T13:21:55Z</time></trkpt><trkpt lat="44.444388088958476" lon="7.788768970880741"><ele>389.0</ele><time>2026-05-02T13:21:56Z</time></trkpt><trkpt lat="44.44449013369182" lon="7.789104810742804"><ele>388.5</ele><time>2026-05-02T13:21:57Z</time></trkpt><trkpt lat="44.444602708727906" lon="7.789466523576951"><ele>388.0</ele><time>2026-05-02T13:21:58Z</time></trkpt><trkpt lat="44.44471207858418" lon="7.789803382617911"><ele>388.0</ele><time>2026-05-02T13:21:59Z</time></trkpt><trkpt lat="44.44481098442592" lon="7.790096747947093"><ele>388.0</ele><time>2026-05-02T13:22:00Z</time></trkpt><trkpt lat="44.44491517706641" lon="7.790390808775977"><ele>388.5</ele><time>2026-05-02T13:22:01Z</time></trkpt><trkpt lat="44.44502852029665" lon="7.790690233581205"><ele>389.0</ele><time>2026-05-02T13:22:02Z</time></trkpt><trkpt lat="44.44515643816153" lon="7.7909900796297356"><ele>388.5</ele><time>2026-05-02T13:22:03Z</time></trkpt><trkpt lat="44.4452929565612" lon="7.791283486423168"><ele>388.0</ele><time>2026-05-02T13:22:04Z</time></trkpt><trkpt lat="44.44544234423352" lon="7.791567422387944"><ele>387.5</ele><time>2026-05-02T13:22:05Z</time></trkpt><trkpt lat="44.445600011089006" lon="7.791833848934562"><ele>387.0</ele><time>2026-05-02T13:22:06Z</time></trkpt><trkpt lat="44.44576902575003" lon="7.792110067650631"><ele>386.0</ele><time>2026-05-02T13:22:07Z</time></trkpt><trkpt lat="44.44594753355742" lon="7.792377275969301"><ele>385.0</ele><time>2026-05-02T13:22:08Z</time></trkpt><trkpt lat="44.44612122584519" lon="7.79262813105121"><ele>385.5</ele><time>2026-05-02T13:22:09Z</time></trkpt><trkpt lat="44.44631769240498" lon="7.7928876219695"><ele>386.0</ele><time>2026-05-02T13:22:10Z</time></trkpt><trkpt lat="44.44654917643684" lon="7.7931586674213715"><ele>386.0</ele><time>2026-05-02T13:22:11Z</time></trkpt><trkpt lat="44.44678860504994" lon="7.7934367525754595"><ele>386.0</ele><time>2026-05-02T13:22:12Z</time></trkpt><trkpt lat="44.447034293859126" lon="7.793728201273885"><ele>386.0</ele><time>2026-05-02T13:22:13Z</time></trkpt><trkpt lat="44.44728686237083" lon="7.794026600160052"><ele>386.0</ele><time>2026-05-02T13:22:14Z</time></trkpt><trkpt lat="44.447543983807876" lon="7.794328491595349"><ele>385.5</ele><time>2026-05-02T13:22:15Z</time></trkpt><trkpt lat="44.447799707993425" lon="7.7946411235409405"><ele>385.0</ele><time>2026-05-02T13:22:16Z</time></trkpt><trkpt lat="44.4480657071509" lon="7.794955772528471"><ele>385.5</ele><time>2026-05-02T13:22:17Z</time></trkpt><trkpt lat="44.4483306365147" lon="7.795266205061593"><ele>386.0</ele><time>2026-05-02T13:22:18Z</time></trkpt><trkpt lat="44.448595440638854" lon="7.795572875961657"><ele>386.0</ele><time>2026-05-02T13:22:19Z</time></trkpt><trkpt lat="44.448855788036035" lon="7.795872464842583"><ele>386.0</ele><time>2026-05-02T13:22:20Z</time></trkpt><trkpt lat="44.44909990650096" lon="7.796155921852031"><ele>386.0</ele><time>2026-05-02T13:22:21Z</time></trkpt><trkpt lat="44.4493175886114" lon="7.796410275196303"><ele>386.0</ele><time>2026-05-02T13:22:22Z</time></trkpt><trkpt lat="44.449521141575794" lon="7.796649762924775"><ele>387.5</ele><time>2026-05-02T13:22:23Z</time></trkpt><trkpt lat="44.44971626534372" lon="7.796884450334388"><ele>389.0</ele><time>2026-05-02T13:22:24Z</time></trkpt><trkpt lat="44.44988777215938" lon="7.797110589013968"><ele>389.0</ele><time>2026-05-02T13:22:25Z</time></trkpt><trkpt lat="44.450031899611695" lon="7.797320346721264"><ele>389.0</ele><time>2026-05-02T13:22:26Z</time></trkpt><trkpt lat="44.450182321943444" lon="7.797548752868989"><ele>389.0</ele><time>2026-05-02T13:22:27Z</time></trkpt><trkpt lat="44.45033935264638" lon="7.797797271678737"><ele>389.0</ele><time>2026-05-02T13:22:28Z</time></trkpt><trkpt lat="44.45049578032769" lon="7.798055676268541"><ele>389.0</ele><time>2026-05-02T13:22:29Z</time></trkpt><trkpt lat="44.450652378173345" lon="7.798331177661976"><ele>389.0</ele><time>2026-05-02T13:22:30Z</time></trkpt><trkpt lat="44.450810280096924" lon="7.798625980818324"><ele>389.0</ele><time>2026-05-02T13:22:31Z</time></trkpt><trkpt lat="44.45095589070096" lon="7.798906304626124"><ele>389.0</ele><time>2026-05-02T13:22:32Z</time></trkpt><trkpt lat="44.45109856853546" lon="7.7991969534035865"><ele>389.0</ele><time>2026-05-02T13:22:33Z</time></trkpt><trkpt lat="44.451240128209804" lon="7.799507643664795"><ele>389.0</ele><time>2026-05-02T13:22:34Z</time></trkpt><trkpt lat="44.451387846572345" lon="7.799850239976697"><ele>389.0</ele><time>2026-05-02T13:22:35Z</time></trkpt><trkpt lat="44.45153275001452" lon="7.800203005160836"><ele>388.5</ele><time>2026-05-02T13:22:36Z</time></trkpt><trkpt lat="44.451679851721785" lon="7.800567204054005"><ele>388.0</ele><time>2026-05-02T13:22:37Z</time></trkpt><trkpt lat="44.45182980584714" lon="7.800941646686633"><ele>388.0</ele><time>2026-05-02T13:22:38Z</time></trkpt><trkpt lat="44.451987328538124" lon="7.801325313849598"><ele>388.0</ele><time>2026-05-02T13:22:39Z</time></trkpt><trkpt lat="44.45214810271922" lon="7.801714910951272"><ele>387.0</ele><time>2026-05-02T13:22:40Z</time></trkpt><trkpt lat="44.45231106271654" lon="7.802110639646206"><ele>386.0</ele><time>2026-05-02T13:22:41Z</time></trkpt><trkpt lat="44.45247453929602" lon="7.80250311328486"><ele>386.0</ele><time>2026-05-02T13:22:42Z</time></trkpt><trkpt lat="44.45264061707238" lon="7.8029032774865215"><ele>386.0</ele><time>2026-05-02T13:22:43Z</time></trkpt><trkpt lat="44.45280510551218" lon="7.803307094345123"><ele>385.5</ele><time>2026-05-02T13:22:44Z</time></trkpt><trkpt lat="44.45297126992546" lon="7.803706264932306"><ele>385.0</ele><time>2026-05-02T13:22:45Z</time></trkpt><trkpt lat="44.45313875446465" lon="7.804115917827458"><ele>385.5</ele><time>2026-05-02T13:22:46Z</time></trkpt><trkpt lat="44.45330618250254" lon="7.804526996328368"><ele>386.0</ele><time>2026-05-02T13:22:47Z</time></trkpt><trkpt lat="44.453460788425566" lon="7.804905065719578"><ele>386.5</ele><time>2026-05-02T13:22:48Z</time></trkpt><trkpt lat="44.45361202856801" lon="7.8052762599517"><ele>387.0</ele><time>2026-05-02T13:22:49Z</time></trkpt><trkpt lat="44.45376450205033" lon="7.805645870282889"><ele>386.5</ele><time>2026-05-02T13:22:50Z</time></trkpt><trkpt lat="44.45391156334841" lon="7.806007762138102"><ele>386.0</ele><time>2026-05-02T13:22:51Z</time></trkpt><trkpt lat="44.45406703127039" lon="7.806377739294861"><ele>386.0</ele><time>2026-05-02T13:22:52Z</time></trkpt><trkpt lat="44.45421384301385" lon="7.806735463595232"><ele>386.0</ele><time>2026-05-02T13:22:53Z</time></trkpt><trkpt lat="44.45436242373956" lon="7.80708359640537"><ele>385.5</ele><time>2026-05-02T13:22:54Z</time></trkpt><trkpt lat="44.45450677274364" lon="7.80742932183734"><ele>385.0</ele><time>2026-05-02T13:22:55Z</time></trkpt><trkpt lat="44.45464737844882" lon="7.807771258387169"><ele>386.0</ele><time>2026-05-02T13:22:56Z</time></trkpt><trkpt lat="44.45478196770497" lon="7.8080929764074485"><ele>387.0</ele><time>2026-05-02T13:22:57Z</time></trkpt><trkpt lat="44.45488410165801" lon="7.808344001996983"><ele>386.33333333333337</ele><time>2026-05-02T13:22:58Z</time></trkpt><trkpt lat="44.45496365279839" lon="7.808582386919217"><ele>385.6666666666667</ele><time>2026-05-02T13:22:59Z</time></trkpt><trkpt lat="44.45506049286261" lon="7.808799457245035"><ele>385.0</ele><time>2026-05-02T13:23:00Z</time></trkpt><trkpt lat="44.45515794134444" lon="7.8090131820626665"><ele>385.0</ele><time>2026-05-02T13:23:01Z</time></trkpt><trkpt lat="44.455253913103036" lon="7.809256892414176"><ele>385.0</ele><time>2026-05-02T13:23:02Z</time></trkpt><trkpt lat="44.45535444432468" lon="7.809509046013793"><ele>385.0</ele><time>2026-05-02T13:23:03Z</time></trkpt><trkpt lat="44.455454351975995" lon="7.809737955057107"><ele>384.33333333333337</ele><time>2026-05-02T13:23:04Z</time></trkpt><trkpt lat="44.455551463494146" lon="7.809962737160654"><ele>383.6666666666667</ele><time>2026-05-02T13:23:05Z</time></trkpt><trkpt lat="44.45564802867731" lon="7.810206706977451"><ele>383.0</ele><time>2026-05-02T13:23:06Z</time></trkpt><trkpt lat="44.455761317673335" lon="7.81048617030417"><ele>383.0</ele><time>2026-05-02T13:23:07Z</time></trkpt><trkpt lat="44.45589004821796" lon="7.810802603297417"><ele>383.0</ele><time>2026-05-02T13:23:08Z</time></trkpt><trkpt lat="44.45603739074257" lon="7.811159415499719"><ele>383.0</ele><time>2026-05-02T13:23:09Z</time></trkpt><trkpt lat="44.45619232936693" lon="7.811535702752762"><ele>383.0</ele><time>2026-05-02T13:23:10Z</time></trkpt><trkpt lat="44.456353773965716" lon="7.811928958988412"><ele>382.0</ele><time>2026-05-02T13:23:11Z</time></trkpt><trkpt lat="44.456520347813324" lon="7.812337536340675"><ele>381.0</ele><time>2026-05-02T13:23:12Z</time></trkpt><trkpt lat="44.456694369840335" lon="7.812754022223116"><ele>381.0</ele><time>2026-05-02T13:23:13Z</time></trkpt><trkpt lat="44.45686674955021" lon="7.813168595448571"><ele>381.0</ele><time>2026-05-02T13:23:14Z</time></trkpt><trkpt lat="44.45703550917196" lon="7.813576706927673"><ele>381.0</ele><time>2026-05-02T13:23:15Z</time></trkpt><trkpt lat="44.45720202088385" lon="7.813974034550097"><ele>381.0</ele><time>2026-05-02T13:23:16Z</time></trkpt><trkpt lat="44.45736004636848" lon="7.814351157831394"><ele>380.5</ele><time>2026-05-02T13:23:17Z</time></trkpt><trkpt lat="44.45750928781612" lon="7.814716134694853"><ele>380.0</ele><time>2026-05-02T13:23:18Z</time></trkpt><trkpt lat="44.45766096139879" lon="7.815081783033767"><ele>380.5</ele><time>2026-05-02T13:23:19Z</time></trkpt><trkpt lat="44.457820541497014" lon="7.815469329985028"><ele>381.0</ele><time>2026-05-02T13:23:20Z</time></trkpt><trkpt lat="44.45797729401261" lon="7.815842427980285"><ele>380.5</ele><time>2026-05-02T13:23:21Z</time></trkpt><trkpt lat="44.45813201189587" lon="7.816214492239683"><ele>380.0</ele><time>2026-05-02T13:23:22Z</time></trkpt><trkpt lat="44.458284825617845" lon="7.816581348391935"><ele>380.0</ele><time>2026-05-02T13:23:23Z</time></trkpt><trkpt lat="44.45843173653231" lon="7.81693922591804"><ele>380.0</ele><time>2026-05-02T13:23:24Z</time></trkpt><trkpt lat="44.45857185727807" lon="7.817278721749304"><ele>380.0</ele><time>2026-05-02T13:23:25Z</time></trkpt><trkpt lat="44.45870012828523" lon="7.81759209822981"><ele>380.0</ele><time>2026-05-02T13:23:26Z</time></trkpt><trkpt lat="44.45881762382752" lon="7.817881447924484"><ele>380.5</ele><time>2026-05-02T13:23:27Z</time></trkpt><trkpt lat="44.458928342173415" lon="7.818157483585634"><ele>381.0</ele><time>2026-05-02T13:23:28Z</time></trkpt><trkpt lat="44.459039954315585" lon="7.818430808527793"><ele>381.3333333333333</ele><time>2026-05-02T13:23:29Z</time></trkpt><trkpt lat="44.45915020403864" lon="7.818699033182103"><ele>381.66666666666663</ele><time>2026-05-02T13:23:30Z</time></trkpt><trkpt lat="44.45925516311394" lon="7.818947366390121"><ele>382.0</ele><time>2026-05-02T13:23:31Z</time></trkpt><trkpt lat="44.4593521724648" lon="7.8191771328970745"><ele>381.3333333333333</ele><time>2026-05-02T13:23:32Z</time></trkpt><trkpt lat="44.459444528394116" lon="7.819401828617166"><ele>380.6666666666667</ele><time>2026-05-02T13:23:33Z</time></trkpt><trkpt lat="44.459536854315004" lon="7.819613246887922"><ele>380.0</ele><time>2026-05-02T13:23:34Z</time></trkpt><trkpt lat="44.45962132742457" lon="7.819816854475287"><ele>379.6666666666667</ele><time>2026-05-02T13:23:35Z</time></trkpt><trkpt lat="44.45970763217179" lon="7.820004654180292"><ele>379.3333333333333</ele><time>2026-05-02T13:23:36Z</time></trkpt><trkpt lat="44.459805161218874" lon="7.820215021644479"><ele>379.0</ele><time>2026-05-02T13:23:37Z</time></trkpt><trkpt lat="44.45990900293158" lon="7.8204512771349375"><ele>379.0</ele><time>2026-05-02T13:23:38Z</time></trkpt><trkpt lat="44.45999256119796" lon="7.8206695490885005"><ele>379.0</ele><time>2026-05-02T13:23:39Z</time></trkpt><trkpt lat="44.46006441506063" lon="7.820889361846207"><ele>379.0</ele><time>2026-05-02T13:23:40Z</time></trkpt><trkpt lat="44.46013607959636" lon="7.821085436503761"><ele>379.0</ele><time>2026-05-02T13:23:41Z</time></trkpt><trkpt lat="44.460202986466314" lon="7.821259329983956"><ele>379.0</ele><time>2026-05-02T13:23:42Z</time></trkpt><trkpt lat="44.46025506557916" lon="7.821386463254533"><ele>379.0</ele><time>2026-05-02T13:23:43Z</time></trkpt><trkpt lat="44.46028229557595" lon="7.82146924784448"><ele>379.0</ele><time>2026-05-02T13:23:44Z</time></trkpt><trkpt lat="44.46027574306247" lon="7.821603227257638"><ele>379.0</ele><time>2026-05-02T13:23:46Z</time></trkpt><trkpt lat="44.460253847301836" lon="7.821729788272244"><ele>379.0</ele><time>2026-05-02T13:23:48Z</time></trkpt><trkpt lat="44.46029246166085" lon="7.821845695153472"><ele>379.0</ele><time>2026-05-02T13:23:51Z</time></trkpt><trkpt lat="44.4602933466297" lon="7.821939230648616"><ele>379.0</ele><time>2026-05-02T13:24:02Z</time></trkpt><trkpt lat="44.46023221047247" lon="7.821863524926312"><ele>379.0</ele><time>2026-05-02T13:24:06Z</time></trkpt><trkpt lat="44.46023680595301" lon="7.821730033623445"><ele>379.0</ele><time>2026-05-02T13:24:08Z</time></trkpt><trkpt lat="44.46038053725206" lon="7.821901515880891"><ele>378.79999999999995</ele><time>2026-05-02T13:28:44Z</time></trkpt><trkpt lat="44.46045121529471" lon="7.821988163665106"><ele>378.59999999999997</ele><time>2026-05-02T13:28:46Z</time></trkpt><trkpt lat="44.46053971414221" lon="7.822085890442384"><ele>378.4</ele><time>2026-05-02T13:28:48Z</time></trkpt><trkpt lat="44.46058547770265" lon="7.822173421385586"><ele>378.2</ele><time>2026-05-02T13:28:49Z</time></trkpt><trkpt lat="44.460624431250274" lon="7.822273772270801"><ele>378.0</ele><time>2026-05-02T13:28:50Z</time></trkpt><trkpt lat="44.46067735783242" lon="7.822386144367678"><ele>378.0</ele><time>2026-05-02T13:28:51Z</time></trkpt><trkpt lat="44.46074175421088" lon="7.822539402538599"><ele>378.0</ele><time>2026-05-02T13:28:52Z</time></trkpt><trkpt lat="44.46081851903991" lon="7.82272349285562"><ele>378.0</ele><time>2026-05-02T13:28:53Z</time></trkpt><trkpt lat="44.46089049932011" lon="7.82289682788245"><ele>378.0</ele><time>2026-05-02T13:28:54Z</time></trkpt><trkpt lat="44.460942238735164" lon="7.823020751495165"><ele>378.1666666666667</ele><time>2026-05-02T13:28:55Z</time></trkpt><trkpt lat="44.46098244974629" lon="7.823124104436335"><ele>378.3333333333333</ele><time>2026-05-02T13:28:56Z</time></trkpt><trkpt lat="44.46101708703096" lon="7.823211761368548"><ele>378.5</ele><time>2026-05-02T13:28:57Z</time></trkpt><trkpt lat="44.46105116505451" lon="7.823308756907698"><ele>378.66666666666663</ele><time>2026-05-02T13:28:58Z</time></trkpt><trkpt lat="44.461087777052185" lon="7.8234225371962065"><ele>378.8333333333333</ele><time>2026-05-02T13:28:59Z</time></trkpt><trkpt lat="44.46111791323813" lon="7.823543890398002"><ele>379.0</ele><time>2026-05-02T13:29:00Z</time></trkpt><trkpt lat="44.46113487657617" lon="7.823658282357814"><ele>379.0</ele><time>2026-05-02T13:29:01Z</time></trkpt><trkpt lat="44.46116489887843" lon="7.8237730527469855"><ele>379.0</ele><time>2026-05-02T13:29:02Z</time></trkpt><trkpt lat="44.46121040505675" lon="7.823889507988109"><ele>379.0</ele><time>2026-05-02T13:29:03Z</time></trkpt><trkpt lat="44.46129153172639" lon="7.824022241509212"><ele>379.0</ele><time>2026-05-02T13:29:04Z</time></trkpt><trkpt lat="44.461404037707126" lon="7.8241988690068345"><ele>378.3333333333333</ele><time>2026-05-02T13:29:05Z</time></trkpt><trkpt lat="44.46150839564594" lon="7.824421517271062"><ele>377.6666666666667</ele><time>2026-05-02T13:29:06Z</time></trkpt><trkpt lat="44.461611655666665" lon="7.824673540411985"><ele>377.0</ele><time>2026-05-02T13:29:07Z</time></trkpt><trkpt lat="44.46172430849865" lon="7.8249486609628836"><ele>376.0</ele><time>2026-05-02T13:29:08Z</time></trkpt><trkpt lat="44.46184628905253" lon="7.825240306142142"><ele>375.0</ele><time>2026-05-02T13:29:09Z</time></trkpt><trkpt lat="44.461966616151656" lon="7.825516260743243"><ele>375.0</ele><time>2026-05-02T13:29:10Z</time></trkpt><trkpt lat="44.462089431204916" lon="7.825778695414182"><ele>375.0</ele><time>2026-05-02T13:29:11Z</time></trkpt><trkpt lat="44.46222783829678" lon="7.82605259478606"><ele>374.0</ele><time>2026-05-02T13:29:12Z</time></trkpt><trkpt lat="44.46238381119627" lon="7.82633446056834"><ele>373.0</ele><time>2026-05-02T13:29:13Z</time></trkpt><trkpt lat="44.46255302124802" lon="7.826623411028956"><ele>374.5</ele><time>2026-05-02T13:29:14Z</time></trkpt><trkpt lat="44.462731097788975" lon="7.8269206745126745"><ele>376.0</ele><time>2026-05-02T13:29:15Z</time></trkpt><trkpt lat="44.462911877654335" lon="7.827216583186029"><ele>376.0</ele><time>2026-05-02T13:29:16Z</time></trkpt><trkpt lat="44.463094751046135" lon="7.827507541504215"><ele>376.0</ele><time>2026-05-02T13:29:17Z</time></trkpt><trkpt lat="44.463274648348744" lon="7.827802100288928"><ele>376.0</ele><time>2026-05-02T13:29:18Z</time></trkpt><trkpt lat="44.46345618420757" lon="7.828091489053207"><ele>376.0</ele><time>2026-05-02T13:29:19Z</time></trkpt><trkpt lat="44.46363579277778" lon="7.828382418481488"><ele>376.0</ele><time>2026-05-02T13:29:20Z</time></trkpt><trkpt lat="44.46380978711629" lon="7.828665423273362"><ele>376.0</ele><time>2026-05-02T13:29:21Z</time></trkpt><trkpt lat="44.463989470348274" lon="7.82894695659434"><ele>376.0</ele><time>2026-05-02T13:29:22Z</time></trkpt><trkpt lat="44.46417118934031" lon="7.829232091549918"><ele>376.0</ele><time>2026-05-02T13:29:23Z</time></trkpt><trkpt lat="44.46434428370424" lon="7.829506258036945"><ele>376.0</ele><time>2026-05-02T13:29:24Z</time></trkpt><trkpt lat="44.464519260310965" lon="7.829786600214567"><ele>376.0</ele><time>2026-05-02T13:29:25Z</time></trkpt><trkpt lat="44.46469128814221" lon="7.830058100782763"><ele>375.0</ele><time>2026-05-02T13:29:26Z</time></trkpt><trkpt lat="44.46485015890251" lon="7.830319273959372"><ele>374.0</ele><time>2026-05-02T13:29:27Z</time></trkpt><trkpt lat="44.464998896128414" lon="7.830558671306124"><ele>374.0</ele><time>2026-05-02T13:29:28Z</time></trkpt><trkpt lat="44.46514994518561" lon="7.8307970114676495"><ele>374.0</ele><time>2026-05-02T13:29:29Z</time></trkpt><trkpt lat="44.46531732827935" lon="7.83106216286108"><ele>375.0</ele><time>2026-05-02T13:29:30Z</time></trkpt><trkpt lat="44.465491851401275" lon="7.831339205022182"><ele>376.0</ele><time>2026-05-02T13:29:31Z</time></trkpt><trkpt lat="44.46566710770346" lon="7.831622310823487"><ele>375.5</ele><time>2026-05-02T13:29:32Z</time></trkpt><trkpt lat="44.46583795803126" lon="7.8318985022768794"><ele>375.0</ele><time>2026-05-02T13:29:33Z</time></trkpt><trkpt lat="44.466023793541325" lon="7.832195424907957"><ele>375.0</ele><time>2026-05-02T13:29:34Z</time></trkpt><trkpt lat="44.466206470758735" lon="7.832488786520463"><ele>375.0</ele><time>2026-05-02T13:29:35Z</time></trkpt><trkpt lat="44.46634656792227" lon="7.832714162467635"><ele>374.0</ele><time>2026-05-02T13:29:36Z</time></trkpt><trkpt lat="44.46650835467047" lon="7.832972774702744"><ele>373.0</ele><time>2026-05-02T13:29:37Z</time></trkpt><trkpt lat="44.46667920569504" lon="7.833243927652426"><ele>373.5</ele><time>2026-05-02T13:29:38Z</time></trkpt><trkpt lat="44.46686083287849" lon="7.833527684392222"><ele>374.0</ele><time>2026-05-02T13:29:39Z</time></trkpt><trkpt lat="44.46705016102498" lon="7.833827934558576"><ele>373.5</ele><time>2026-05-02T13:29:40Z</time></trkpt><trkpt lat="44.46723687508735" lon="7.834125367249327"><ele>373.0</ele><time>2026-05-02T13:29:41Z</time></trkpt><trkpt lat="44.467414900019754" lon="7.834403412056371"><ele>373.0</ele><time>2026-05-02T13:29:42Z</time></trkpt><trkpt lat="44.46757786560524" lon="7.8346629526100475"><ele>373.0</ele><time>2026-05-02T13:29:43Z</time></trkpt><trkpt lat="44.46773744764481" lon="7.834930205741712"><ele>372.5</ele><time>2026-05-02T13:29:44Z</time></trkpt><trkpt lat="44.467911918476915" lon="7.835205870257764"><ele>372.0</ele><time>2026-05-02T13:29:45Z</time></trkpt><trkpt lat="44.46807481847941" lon="7.835467292045143"><ele>372.0</ele><time>2026-05-02T13:29:46Z</time></trkpt><trkpt lat="44.468230091603864" lon="7.835719010409081"><ele>372.0</ele><time>2026-05-02T13:29:47Z</time></trkpt><trkpt lat="44.46837502872182" lon="7.835950675055313"><ele>372.5</ele><time>2026-05-02T13:29:48Z</time></trkpt><trkpt lat="44.468525227814105" lon="7.8361929935377725"><ele>373.0</ele><time>2026-05-02T13:29:49Z</time></trkpt><trkpt lat="44.46867991206395" lon="7.836440577276229"><ele>373.3333333333333</ele><time>2026-05-02T13:29:50Z</time></trkpt><trkpt lat="44.46883773761185" lon="7.83668630730202"><ele>373.6666666666667</ele><time>2026-05-02T13:29:51Z</time></trkpt><trkpt lat="44.46897761700228" lon="7.836906219759216"><ele>374.0</ele><time>2026-05-02T13:29:52Z</time></trkpt><trkpt lat="44.46910149659857" lon="7.837108861600189"><ele>373.0</ele><time>2026-05-02T13:29:53Z</time></trkpt><trkpt lat="44.46921839900501" lon="7.837299940083538"><ele>372.0</ele><time>2026-05-02T13:29:54Z</time></trkpt><trkpt lat="44.469346103674134" lon="7.837511100315186"><ele>371.0</ele><time>2026-05-02T13:29:55Z</time></trkpt><trkpt lat="44.46948212098267" lon="7.837726325131495"><ele>371.0</ele><time>2026-05-02T13:29:56Z</time></trkpt><trkpt lat="44.46961299873848" lon="7.837928973350015"><ele>371.0</ele><time>2026-05-02T13:29:57Z</time></trkpt><trkpt lat="44.4697396196782" lon="7.838123826808647"><ele>371.0</ele><time>2026-05-02T13:29:58Z</time></trkpt><trkpt lat="44.469868102678305" lon="7.838334130731586"><ele>371.0</ele><time>2026-05-02T13:29:59Z</time></trkpt><trkpt lat="44.46999821435707" lon="7.838562651454492"><ele>371.0</ele><time>2026-05-02T13:30:00Z</time></trkpt><trkpt lat="44.470128976546455" lon="7.838813257450525"><ele>371.0</ele><time>2026-05-02T13:30:01Z</time></trkpt><trkpt lat="44.47026226913307" lon="7.839085711649066"><ele>371.0</ele><time>2026-05-02T13:30:02Z</time></trkpt><trkpt lat="44.47038830906257" lon="7.83937802552587"><ele>371.0</ele><time>2026-05-02T13:30:03Z</time></trkpt><trkpt lat="44.47050723441064" lon="7.839676027679022"><ele>371.0</ele><time>2026-05-02T13:30:04Z</time></trkpt><trkpt lat="44.47061744430044" lon="7.839969541944889"><ele>371.0</ele><time>2026-05-02T13:30:05Z</time></trkpt><trkpt lat="44.470711119005756" lon="7.84026241404134"><ele>370.5</ele><time>2026-05-02T13:30:06Z</time></trkpt><trkpt lat="44.470797755428606" lon="7.8405600105712105"><ele>370.0</ele><time>2026-05-02T13:30:07Z</time></trkpt><trkpt lat="44.47086059139597" lon="7.840857663487025"><ele>369.66666666666663</ele><time>2026-05-02T13:30:08Z</time></trkpt><trkpt lat="44.47093770538852" lon="7.841149758998162"><ele>369.3333333333333</ele><time>2026-05-02T13:30:09Z</time></trkpt><trkpt lat="44.47099708728916" lon="7.841457051941031"><ele>369.0</ele><time>2026-05-02T13:30:10Z</time></trkpt><trkpt lat="44.471051411727274" lon="7.841783778180932"><ele>369.0</ele><time>2026-05-02T13:30:11Z</time></trkpt><trkpt lat="44.47110147175686" lon="7.84214588179081"><ele>369.0</ele><time>2026-05-02T13:30:12Z</time></trkpt><trkpt lat="44.47115842694759" lon="7.842540190903159"><ele>368.5</ele><time>2026-05-02T13:30:13Z</time></trkpt><trkpt lat="44.471204710299986" lon="7.842944425745788"><ele>368.0</ele><time>2026-05-02T13:30:14Z</time></trkpt><trkpt lat="44.471242043735856" lon="7.843300951987235"><ele>368.33333333333337</ele><time>2026-05-02T13:30:15Z</time></trkpt><trkpt lat="44.47127232261911" lon="7.843618612866088"><ele>368.6666666666667</ele><time>2026-05-02T13:30:16Z</time></trkpt><trkpt lat="44.47130573369516" lon="7.843906748794506"><ele>369.0</ele><time>2026-05-02T13:30:17Z</time></trkpt><trkpt lat="44.47134162149329" lon="7.844160694659598"><ele>368.6666666666667</ele><time>2026-05-02T13:30:18Z</time></trkpt><trkpt lat="44.47137841484535" lon="7.844381858503044"><ele>368.33333333333337</ele><time>2026-05-02T13:30:19Z</time></trkpt><trkpt lat="44.47142289772777" lon="7.844590522116046"><ele>368.0</ele><time>2026-05-02T13:30:20Z</time></trkpt><trkpt lat="44.471489985230384" lon="7.8448170127902666"><ele>368.0</ele><time>2026-05-02T13:30:21Z</time></trkpt><trkpt lat="44.47158774051206" lon="7.845058831225095"><ele>368.0</ele><time>2026-05-02T13:30:22Z</time></trkpt><trkpt lat="44.471708841030775" lon="7.8453353142446005"><ele>368.0</ele><time>2026-05-02T13:30:23Z</time></trkpt><trkpt lat="44.47183759360397" lon="7.845618712333646"><ele>367.6666666666667</ele><time>2026-05-02T13:30:24Z</time></trkpt><trkpt lat="44.471954060162474" lon="7.845880542743729"><ele>367.3333333333333</ele><time>2026-05-02T13:30:25Z</time></trkpt><trkpt lat="44.47206959918442" lon="7.846127213040444"><ele>367.0</ele><time>2026-05-02T13:30:26Z</time></trkpt><trkpt lat="44.472184927404825" lon="7.846371051029012"><ele>367.0</ele><time>2026-05-02T13:30:27Z</time></trkpt><trkpt lat="44.47229867626212" lon="7.846598190024579"><ele>367.0</ele><time>2026-05-02T13:30:28Z</time></trkpt><trkpt lat="44.47240271970994" lon="7.846838813442916"><ele>367.0</ele><time>2026-05-02T13:30:29Z</time></trkpt><trkpt lat="44.47250259102862" lon="7.847108908985422"><ele>367.0</ele><time>2026-05-02T13:30:30Z</time></trkpt><trkpt lat="44.4725824387519" lon="7.84740054559591"><ele>367.0</ele><time>2026-05-02T13:30:31Z</time></trkpt><trkpt lat="44.47265314520617" lon="7.847697559277628"><ele>367.0</ele><time>2026-05-02T13:30:32Z</time></trkpt><trkpt lat="44.47272077527997" lon="7.847991335034213"><ele>367.66666666666663</ele><time>2026-05-02T13:30:33Z</time></trkpt><trkpt lat="44.472781097545294" lon="7.848271655905343"><ele>368.3333333333333</ele><time>2026-05-02T13:30:34Z</time></trkpt><trkpt lat="44.47284728631001" lon="7.848545482662804"><ele>369.0</ele><time>2026-05-02T13:30:35Z</time></trkpt><trkpt lat="44.47292310069958" lon="7.84884012967567"><ele>369.5</ele><time>2026-05-02T13:30:36Z</time></trkpt><trkpt lat="44.473002498778285" lon="7.849138928349318"><ele>370.0</ele><time>2026-05-02T13:30:37Z</time></trkpt><trkpt lat="44.47307805597525" lon="7.849433660063481"><ele>370.0</ele><time>2026-05-02T13:30:38Z</time></trkpt><trkpt lat="44.47315019502923" lon="7.849712906315201"><ele>370.0</ele><time>2026-05-02T13:30:39Z</time></trkpt><trkpt lat="44.473208796436914" lon="7.849983791810881"><ele>370.0</ele><time>2026-05-02T13:30:40Z</time></trkpt><trkpt lat="44.47326918466707" lon="7.8502519180797"><ele>370.0</ele><time>2026-05-02T13:30:41Z</time></trkpt><trkpt lat="44.47332668779525" lon="7.85052764178687"><ele>370.0</ele><time>2026-05-02T13:30:42Z</time></trkpt><trkpt lat="44.473384752128915" lon="7.850831659603775"><ele>370.0</ele><time>2026-05-02T13:30:43Z</time></trkpt><trkpt lat="44.47343876040352" lon="7.851134147154673"><ele>370.0</ele><time>2026-05-02T13:30:44Z</time></trkpt><trkpt lat="44.473489285546954" lon="7.85144215667921"><ele>370.0</ele><time>2026-05-02T13:30:45Z</time></trkpt><trkpt lat="44.473544174303726" lon="7.85175016432142"><ele>369.0</ele><time>2026-05-02T13:30:46Z</time></trkpt><trkpt lat="44.47359992497492" lon="7.8520573690706765"><ele>368.0</ele><time>2026-05-02T13:30:47Z</time></trkpt><trkpt lat="44.473635186549664" lon="7.852381275757613"><ele>368.0</ele><time>2026-05-02T13:30:48Z</time></trkpt><trkpt lat="44.47369993913894" lon="7.852707429173392"><ele>368.0</ele><time>2026-05-02T13:30:49Z</time></trkpt><trkpt lat="44.47374290929265" lon="7.853059890099423"><ele>368.0</ele><time>2026-05-02T13:30:50Z</time></trkpt><trkpt lat="44.473776414058875" lon="7.853424489775676"><ele>368.0</ele><time>2026-05-02T13:30:51Z</time></trkpt><trkpt lat="44.47380690138514" lon="7.853798394057529"><ele>368.0</ele><time>2026-05-02T13:30:52Z</time></trkpt><trkpt lat="44.47383400418087" lon="7.854181212980913"><ele>368.0</ele><time>2026-05-02T13:30:53Z</time></trkpt><trkpt lat="44.47385581139344" lon="7.854551093389495"><ele>368.0</ele><time>2026-05-02T13:30:54Z</time></trkpt><trkpt lat="44.47387304937543" lon="7.854919773377292"><ele>368.0</ele><time>2026-05-02T13:30:55Z</time></trkpt><trkpt lat="44.47388381385219" lon="7.855275308280901"><ele>368.0</ele><time>2026-05-02T13:30:56Z</time></trkpt><trkpt lat="44.473898350976484" lon="7.8556353839444375"><ele>368.0</ele><time>2026-05-02T13:30:57Z</time></trkpt><trkpt lat="44.473914725370996" lon="7.855985494028031"><ele>367.5</ele><time>2026-05-02T13:30:58Z</time></trkpt><trkpt lat="44.47393226630299" lon="7.8563291173315335"><ele>367.0</ele><time>2026-05-02T13:30:59Z</time></trkpt><trkpt lat="44.47394890111337" lon="7.8566774062130245"><ele>366.5</ele><time>2026-05-02T13:31:00Z</time></trkpt><trkpt lat="44.47396160855973" lon="7.857033666684617"><ele>366.0</ele><time>2026-05-02T13:31:01Z</time></trkpt><trkpt lat="44.473974849832295" lon="7.857395402707109"><ele>365.5</ele><time>2026-05-02T13:31:02Z</time></trkpt><trkpt lat="44.47398675636857" lon="7.857744552952768"><ele>365.0</ele><time>2026-05-02T13:31:03Z</time></trkpt><trkpt lat="44.47399799772445" lon="7.858074755717937"><ele>365.0</ele><time>2026-05-02T13:31:04Z</time></trkpt><trkpt lat="44.47401411028668" lon="7.858394507753685"><ele>365.0</ele><time>2026-05-02T13:31:05Z</time></trkpt><trkpt lat="44.474030135950734" lon="7.858686303081689"><ele>365.0</ele><time>2026-05-02T13:31:06Z</time></trkpt><trkpt lat="44.47404893695839" lon="7.858960460733451"><ele>365.0</ele><time>2026-05-02T13:31:07Z</time></trkpt><trkpt lat="44.474066766218854" lon="7.8592178869807405"><ele>365.0</ele><time>2026-05-02T13:31:08Z</time></trkpt><trkpt lat="44.47408909565382" lon="7.85947086574073"><ele>365.0</ele><time>2026-05-02T13:31:09Z</time></trkpt><trkpt lat="44.47412349654209" lon="7.859722497736263"><ele>365.0</ele><time>2026-05-02T13:31:10Z</time></trkpt><trkpt lat="44.474175643816615" lon="7.859977663923827"><ele>365.0</ele><time>2026-05-02T13:31:11Z</time></trkpt><trkpt lat="44.47423867686577" lon="7.860240003968493"><ele>365.0</ele><time>2026-05-02T13:31:12Z</time></trkpt><trkpt lat="44.47430976137278" lon="7.860508083991804"><ele>364.6666666666667</ele><time>2026-05-02T13:31:13Z</time></trkpt><trkpt lat="44.47439526165123" lon="7.860769769571091"><ele>364.3333333333333</ele><time>2026-05-02T13:31:14Z</time></trkpt><trkpt lat="44.47449850916638" lon="7.861029569321517"><ele>364.0</ele><time>2026-05-02T13:31:15Z</time></trkpt><trkpt lat="44.474619186824135" lon="7.861281842289518"><ele>364.0</ele><time>2026-05-02T13:31:16Z</time></trkpt><trkpt lat="44.474761207959276" lon="7.8615340652357295"><ele>364.0</ele><time>2026-05-02T13:31:17Z</time></trkpt><trkpt lat="44.47491716535279" lon="7.8617937431735925"><ele>364.0</ele><time>2026-05-02T13:31:18Z</time></trkpt><trkpt lat="44.475091715750374" lon="7.862059830492384"><ele>364.0</ele><time>2026-05-02T13:31:19Z</time></trkpt><trkpt lat="44.47527423435424" lon="7.862329920707143"><ele>364.0</ele><time>2026-05-02T13:31:20Z</time></trkpt><trkpt lat="44.475456128744256" lon="7.862595462972578"><ele>364.0</ele><time>2026-05-02T13:31:21Z</time></trkpt><trkpt lat="44.475631517194046" lon="7.862860437981925"><ele>364.5</ele><time>2026-05-02T13:31:22Z</time></trkpt><trkpt lat="44.47581065306223" lon="7.863131520070955"><ele>365.0</ele><time>2026-05-02T13:31:23Z</time></trkpt><trkpt lat="44.47598690278238" lon="7.863401092492599"><ele>365.0</ele><time>2026-05-02T13:31:24Z</time></trkpt><trkpt lat="44.47615007753031" lon="7.863642633655437"><ele>365.0</ele><time>2026-05-02T13:31:25Z</time></trkpt><trkpt lat="44.476307082911816" lon="7.863874148352354"><ele>365.0</ele><time>2026-05-02T13:31:26Z</time></trkpt><trkpt lat="44.47646756102526" lon="7.8641122870769"><ele>365.0</ele><time>2026-05-02T13:31:27Z</time></trkpt><trkpt lat="44.47662837304798" lon="7.864353361139297"><ele>364.0</ele><time>2026-05-02T13:31:28Z</time></trkpt><trkpt lat="44.476788994375184" lon="7.864595970572848"><ele>363.0</ele><time>2026-05-02T13:31:29Z</time></trkpt><trkpt lat="44.47695682070814" lon="7.864846524702545"><ele>363.5</ele><time>2026-05-02T13:31:30Z</time></trkpt><trkpt lat="44.477139065436084" lon="7.865104759134296"><ele>364.0</ele><time>2026-05-02T13:31:31Z</time></trkpt><trkpt lat="44.477335928744445" lon="7.865371036949769"><ele>364.0</ele><time>2026-05-02T13:31:32Z</time></trkpt><trkpt lat="44.477541690277484" lon="7.865636465736523"><ele>364.0</ele><time>2026-05-02T13:31:33Z</time></trkpt><trkpt lat="44.477758005366596" lon="7.865908604518"><ele>363.0</ele><time>2026-05-02T13:31:34Z</time></trkpt><trkpt lat="44.4779782771407" lon="7.866177761942006"><ele>362.0</ele><time>2026-05-02T13:31:35Z</time></trkpt><trkpt lat="44.478192667672694" lon="7.866455119789293"><ele>362.0</ele><time>2026-05-02T13:31:36Z</time></trkpt><trkpt lat="44.47840282359964" lon="7.866723951844918"><ele>362.0</ele><time>2026-05-02T13:31:37Z</time></trkpt><trkpt lat="44.478596265936346" lon="7.866977566652116"><ele>362.5</ele><time>2026-05-02T13:31:38Z</time></trkpt><trkpt lat="44.47877169700034" lon="7.867198589655432"><ele>363.0</ele><time>2026-05-02T13:31:39Z</time></trkpt><trkpt lat="44.47893117428854" lon="7.867402274555188"><ele>363.0</ele><time>2026-05-02T13:31:40Z</time></trkpt><trkpt lat="44.47908152738389" lon="7.867596254767557"><ele>363.0</ele><time>2026-05-02T13:31:41Z</time></trkpt><trkpt lat="44.47920456629836" lon="7.867757479312765"><ele>363.0</ele><time>2026-05-02T13:31:42Z</time></trkpt><trkpt lat="44.479319069473576" lon="7.867905149358314"><ele>363.0</ele><time>2026-05-02T13:31:43Z</time></trkpt><trkpt lat="44.479413172200815" lon="7.868030844952041"><ele>363.0</ele><time>2026-05-02T13:31:44Z</time></trkpt><trkpt lat="44.47948970468653" lon="7.868139374094983"><ele>363.0</ele><time>2026-05-02T13:31:45Z</time></trkpt><trkpt lat="44.47955628858282" lon="7.86824743238444"><ele>363.0</ele><time>2026-05-02T13:31:46Z</time></trkpt><trkpt lat="44.47960792164357" lon="7.868369939787983"><ele>363.0</ele><time>2026-05-02T13:31:47Z</time></trkpt><trkpt lat="44.479644377905515" lon="7.868490688312453"><ele>363.0</ele><time>2026-05-02T13:31:48Z</time></trkpt><trkpt lat="44.479709696413785" lon="7.868592125768422"><ele>363.0</ele><time>2026-05-02T13:31:49Z</time></trkpt><trkpt lat="44.479811122209966" lon="7.868675556761175"><ele>363.0</ele><time>2026-05-02T13:31:50Z</time></trkpt><trkpt lat="44.4799377086454" lon="7.868759468301685"><ele>363.0</ele><time>2026-05-02T13:31:51Z</time></trkpt><trkpt lat="44.480088128265265" lon="7.868839795629759"><ele>363.0</ele><time>2026-05-02T13:31:52Z</time></trkpt><trkpt lat="44.48020398017304" lon="7.869039454736391"><ele>363.0</ele><time>2026-05-02T13:31:53Z</time></trkpt><trkpt lat="44.480322629803354" lon="7.869183851314945"><ele>363.0</ele><time>2026-05-02T13:31:54Z</time></trkpt><trkpt lat="44.480433575250956" lon="7.869318452084703"><ele>363.25</ele><time>2026-05-02T13:31:55Z</time></trkpt><trkpt lat="44.48053192222953" lon="7.869449477723634"><ele>363.5</ele><time>2026-05-02T13:31:56Z</time></trkpt><trkpt lat="44.480624860037764" lon="7.869580871635153"><ele>363.75</ele><time>2026-05-02T13:31:57Z</time></trkpt><trkpt lat="44.480719474175565" lon="7.869706511142085"><ele>364.0</ele><time>2026-05-02T13:31:58Z</time></trkpt><trkpt lat="44.48080712542038" lon="7.869819362750536"><ele>364.0</ele><time>2026-05-02T13:31:59Z</time></trkpt><trkpt lat="44.480903576289236" lon="7.869939968007772"><ele>364.0</ele><time>2026-05-02T13:32:00Z</time></trkpt><trkpt lat="44.48099747420792" lon="7.870093898301414"><ele>364.0</ele><time>2026-05-02T13:32:01Z</time></trkpt><trkpt lat="44.481126477319556" lon="7.870256047784581"><ele>364.0</ele><time>2026-05-02T13:32:02Z</time></trkpt><trkpt lat="44.48126595028398" lon="7.870513875414574"><ele>364.0</ele><time>2026-05-02T13:32:03Z</time></trkpt><trkpt lat="44.48143442241937" lon="7.870809749427903"><ele>364.0</ele><time>2026-05-02T13:32:04Z</time></trkpt><trkpt lat="44.48160038334571" lon="7.871089938909037"><ele>364.0</ele><time>2026-05-02T13:32:05Z</time></trkpt><trkpt lat="44.48174971400284" lon="7.871350232556107"><ele>364.0</ele><time>2026-05-02T13:32:06Z</time></trkpt><trkpt lat="44.48189870896488" lon="7.871616756807127"><ele>363.0</ele><time>2026-05-02T13:32:07Z</time></trkpt><trkpt lat="44.482060099225905" lon="7.871898579562764"><ele>362.0</ele><time>2026-05-02T13:32:08Z</time></trkpt><trkpt lat="44.48221692766065" lon="7.872173907542698"><ele>361.6666666666667</ele><time>2026-05-02T13:32:09Z</time></trkpt><trkpt lat="44.482356581656916" lon="7.872424028692845"><ele>361.3333333333333</ele><time>2026-05-02T13:32:10Z</time></trkpt><trkpt lat="44.482486783097706" lon="7.872655134289936"><ele>361.0</ele><time>2026-05-02T13:32:11Z</time></trkpt><trkpt lat="44.4826095010395" lon="7.872874137943976"><ele>361.0</ele><time>2026-05-02T13:32:12Z</time></trkpt><trkpt lat="44.48273173585571" lon="7.873095524612057"><ele>361.0</ele><time>2026-05-02T13:32:13Z</time></trkpt><trkpt lat="44.48286057735016" lon="7.873323698335508"><ele>361.0</ele><time>2026-05-02T13:32:14Z</time></trkpt><trkpt lat="44.482994271162475" lon="7.873551227715329"><ele>361.0</ele><time>2026-05-02T13:32:15Z</time></trkpt><trkpt lat="44.48312159843909" lon="7.87376673249433"><ele>361.0</ele><time>2026-05-02T13:32:16Z</time></trkpt><trkpt lat="44.483239823023986" lon="7.8739721787332515"><ele>361.0</ele><time>2026-05-02T13:32:17Z</time></trkpt><trkpt lat="44.483367530974895" lon="7.874198396701164"><ele>360.3333333333333</ele><time>2026-05-02T13:32:18Z</time></trkpt><trkpt lat="44.48349642177129" lon="7.874431519142867"><ele>359.6666666666667</ele><time>2026-05-02T13:32:19Z</time></trkpt><trkpt lat="44.483622383326505" lon="7.874673705254574"><ele>359.0</ele><time>2026-05-02T13:32:20Z</time></trkpt><trkpt lat="44.48374014142633" lon="7.874927652913648"><ele>359.0</ele><time>2026-05-02T13:32:21Z</time></trkpt><trkpt lat="44.483848924937206" lon="7.875196257633368"><ele>359.0</ele><time>2026-05-02T13:32:22Z</time></trkpt><trkpt lat="44.48395299975077" lon="7.875463972530437"><ele>359.0</ele><time>2026-05-02T13:32:23Z</time></trkpt><trkpt lat="44.484036691503086" lon="7.875708781302222"><ele>359.0</ele><time>2026-05-02T13:32:24Z</time></trkpt><trkpt lat="44.48410298942505" lon="7.875929426960674"><ele>359.0</ele><time>2026-05-02T13:32:25Z</time></trkpt><trkpt lat="44.484157010272696" lon="7.876138255982404"><ele>359.0</ele><time>2026-05-02T13:32:26Z</time></trkpt><trkpt lat="44.48420416848643" lon="7.876327681388822"><ele>359.0</ele><time>2026-05-02T13:32:27Z</time></trkpt><trkpt lat="44.48424374702824" lon="7.876510967510781"><ele>359.0</ele><time>2026-05-02T13:32:28Z</time></trkpt><trkpt lat="44.48427002222638" lon="7.876667529228462"><ele>359.0</ele><time>2026-05-02T13:32:29Z</time></trkpt><trkpt lat="44.48428073199832" lon="7.876800531013389"><ele>359.0</ele><time>2026-05-02T13:32:30Z</time></trkpt><trkpt lat="44.48428488116503" lon="7.876941046193713"><ele>359.0</ele><time>2026-05-02T13:32:31Z</time></trkpt><trkpt lat="44.484273336742774" lon="7.877082939555552"><ele>358.75</ele><time>2026-05-02T13:32:32Z</time></trkpt><trkpt lat="44.484280651065795" lon="7.877221446905312"><ele>358.5</ele><time>2026-05-02T13:32:33Z</time></trkpt><trkpt lat="44.48432011422952" lon="7.877406917540563"><ele>358.25</ele><time>2026-05-02T13:32:34Z</time></trkpt><trkpt lat="44.48437822343263" lon="7.877615105211438"><ele>358.0</ele><time>2026-05-02T13:32:35Z</time></trkpt><trkpt lat="44.48442343858256" lon="7.877841978814116"><ele>358.0</ele><time>2026-05-02T13:32:36Z</time></trkpt><trkpt lat="44.48444323813679" lon="7.878093032595382"><ele>358.0</ele><time>2026-05-02T13:32:37Z</time></trkpt><trkpt lat="44.48444841199088" lon="7.878355801096542"><ele>358.0</ele><time>2026-05-02T13:32:38Z</time></trkpt><trkpt lat="44.484444395866525" lon="7.878612253462947"><ele>357.3333333333333</ele><time>2026-05-02T13:32:39Z</time></trkpt><trkpt lat="44.484430224279635" lon="7.878884754279644"><ele>356.6666666666667</ele><time>2026-05-02T13:32:40Z</time></trkpt><trkpt lat="44.484414039861115" lon="7.879170222582406"><ele>356.0</ele><time>2026-05-02T13:32:41Z</time></trkpt><trkpt lat="44.48440140941808" lon="7.879469153194606"><ele>356.0</ele><time>2026-05-02T13:32:42Z</time></trkpt><trkpt lat="44.48439011071743" lon="7.879757783292715"><ele>356.0</ele><time>2026-05-02T13:32:43Z</time></trkpt><trkpt lat="44.48437726097187" lon="7.8800469025218"><ele>356.0</ele><time>2026-05-02T13:32:44Z</time></trkpt><trkpt lat="44.48436421113787" lon="7.880345779973663"><ele>355.6666666666667</ele><time>2026-05-02T13:32:45Z</time></trkpt><trkpt lat="44.48435339775405" lon="7.880644217518785"><ele>355.3333333333333</ele><time>2026-05-02T13:32:46Z</time></trkpt><trkpt lat="44.48434432849552" lon="7.880944182959252"><ele>355.0</ele><time>2026-05-02T13:32:47Z</time></trkpt><trkpt lat="44.484330765294985" lon="7.881252685318668"><ele>354.5</ele><time>2026-05-02T13:32:48Z</time></trkpt><trkpt lat="44.48431198532734" lon="7.8815740215634404"><ele>354.0</ele><time>2026-05-02T13:32:49Z</time></trkpt><trkpt lat="44.48430023711181" lon="7.881899914332244"><ele>352.5</ele><time>2026-05-02T13:32:50Z</time></trkpt><trkpt lat="44.48428895418223" lon="7.882232924424526"><ele>351.0</ele><time>2026-05-02T13:32:51Z</time></trkpt><trkpt lat="44.484272480876186" lon="7.882556742544772"><ele>350.0</ele><time>2026-05-02T13:32:52Z</time></trkpt><trkpt lat="44.484257880904345" lon="7.882853131011483"><ele>349.0</ele><time>2026-05-02T13:32:53Z</time></trkpt><trkpt lat="44.48424396750631" lon="7.883128421794305"><ele>348.0</ele><time>2026-05-02T13:32:54Z</time></trkpt><trkpt lat="44.48423136418813" lon="7.883386829915255"><ele>346.0</ele><time>2026-05-02T13:32:55Z</time></trkpt><trkpt lat="44.484219506793714" lon="7.883631264567541"><ele>344.0</ele><time>2026-05-02T13:32:56Z</time></trkpt><trkpt lat="44.48420770098504" lon="7.8838820431689545"><ele>342.0</ele><time>2026-05-02T13:32:57Z</time></trkpt><trkpt lat="44.48419674626458" lon="7.884154039952999"><ele>341.0</ele><time>2026-05-02T13:32:58Z</time></trkpt><trkpt lat="44.48418210814541" lon="7.884428034104193"><ele>340.0</ele><time>2026-05-02T13:32:59Z</time></trkpt><trkpt lat="44.48417044068995" lon="7.884697059939042"><ele>339.0</ele><time>2026-05-02T13:33:00Z</time></trkpt><trkpt lat="44.48416245011462" lon="7.884968346183671"><ele>338.6666666666667</ele><time>2026-05-02T13:33:01Z</time></trkpt><trkpt lat="44.48413502568288" lon="7.885231969964268"><ele>338.33333333333337</ele><time>2026-05-02T13:33:02Z</time></trkpt><trkpt lat="44.48412351952701" lon="7.8854726081525"><ele>338.0</ele><time>2026-05-02T13:33:03Z</time></trkpt><trkpt lat="44.48411402824698" lon="7.88568798330113"><ele>338.0</ele><time>2026-05-02T13:33:04Z</time></trkpt><trkpt lat="44.484106140754555" lon="7.885883411288191"><ele>338.0</ele><time>2026-05-02T13:33:05Z</time></trkpt><trkpt lat="44.48411566521219" lon="7.886068819374716"><ele>338.0</ele><time>2026-05-02T13:33:06Z</time></trkpt><trkpt lat="44.48411426585587" lon="7.886218816316942"><ele>338.0</ele><time>2026-05-02T13:33:07Z</time></trkpt><trkpt lat="44.48410201395086" lon="7.886391020229618"><ele>338.0</ele><time>2026-05-02T13:33:08Z</time></trkpt><trkpt lat="44.48410457389763" lon="7.886566164102405"><ele>338.0</ele><time>2026-05-02T13:33:09Z</time></trkpt><trkpt lat="44.484120254432526" lon="7.886741901367184"><ele>338.0</ele><time>2026-05-02T13:33:10Z</time></trkpt><trkpt lat="44.484131269138786" lon="7.886900974572233"><ele>338.0</ele><time>2026-05-02T13:33:11Z</time></trkpt><trkpt lat="44.484127456923716" lon="7.887041559318309"><ele>338.0</ele><time>2026-05-02T13:33:12Z</time></trkpt><trkpt lat="44.48411328079123" lon="7.88717270817356"><ele>338.0</ele><time>2026-05-02T13:33:13Z</time></trkpt><trkpt lat="44.48408524551557" lon="7.887291522421613"><ele>338.0</ele><time>2026-05-02T13:33:14Z</time></trkpt><trkpt lat="44.484061431345985" lon="7.887394861380962"><ele>338.0</ele><time>2026-05-02T13:33:15Z</time></trkpt><trkpt lat="44.48403412927025" lon="7.887492701918724"><ele>338.0</ele><time>2026-05-02T13:33:16Z</time></trkpt><trkpt lat="44.48405100536991" lon="7.887644945213861"><ele>338.0</ele><time>2026-05-02T13:33:18Z</time></trkpt><trkpt lat="44.48416603750124" lon="7.887735358079636"><ele>338.0</ele><time>2026-05-02T13:33:20Z</time></trkpt><trkpt lat="44.48426749161631" lon="7.8877682613359665"><ele>338.0</ele><time>2026-05-02T13:33:21Z</time></trkpt><trkpt lat="44.484389531869255" lon="7.887837248746129"><ele>338.0</ele><time>2026-05-02T13:33:22Z</time></trkpt><trkpt lat="44.484506967857264" lon="7.887962540826893"><ele>338.0</ele><time>2026-05-02T13:33:23Z</time></trkpt><trkpt lat="44.48466017411495" lon="7.888145027282886"><ele>338.0</ele><time>2026-05-02T13:33:24Z</time></trkpt><trkpt lat="44.48482196920629" lon="7.888330604304886"><ele>338.0</ele><time>2026-05-02T13:33:25Z</time></trkpt><trkpt lat="44.485002290945246" lon="7.888511101844691"><ele>338.0</ele><time>2026-05-02T13:33:26Z</time></trkpt><trkpt lat="44.48521448462111" lon="7.8886803321323935"><ele>337.0</ele><time>2026-05-02T13:33:27Z</time></trkpt><trkpt lat="44.48544719769544" lon="7.888841062135199"><ele>336.0</ele><time>2026-05-02T13:33:28Z</time></trkpt><trkpt lat="44.4856885462535" lon="7.889003908907026"><ele>336.0</ele><time>2026-05-02T13:33:29Z</time></trkpt><trkpt lat="44.485929959718256" lon="7.889170268514838"><ele>336.0</ele><time>2026-05-02T13:33:30Z</time></trkpt><trkpt lat="44.48617099434708" lon="7.889339497258016"><ele>336.5</ele><time>2026-05-02T13:33:31Z</time></trkpt><trkpt lat="44.486416609206415" lon="7.88951820725953"><ele>337.0</ele><time>2026-05-02T13:33:32Z</time></trkpt><trkpt lat="44.4866562934409" lon="7.889692726820772"><ele>337.0</ele><time>2026-05-02T13:33:33Z</time></trkpt><trkpt lat="44.48689001547397" lon="7.889861529426091"><ele>337.0</ele><time>2026-05-02T13:33:34Z</time></trkpt><trkpt lat="44.48711935618907" lon="7.890019169051964"><ele>337.0</ele><time>2026-05-02T13:33:35Z</time></trkpt><trkpt lat="44.48734129162655" lon="7.890171321988904"><ele>337.0</ele><time>2026-05-02T13:33:36Z</time></trkpt><trkpt lat="44.487540625373065" lon="7.8903114797884015"><ele>337.0</ele><time>2026-05-02T13:33:37Z</time></trkpt><trkpt lat="44.48772028954865" lon="7.890443374993931"><ele>337.0</ele><time>2026-05-02T13:33:38Z</time></trkpt><trkpt lat="44.48789861688452" lon="7.890573131297421"><ele>337.0</ele><time>2026-05-02T13:33:39Z</time></trkpt><trkpt lat="44.488073497730674" lon="7.890695524091501"><ele>337.0</ele><time>2026-05-02T13:33:40Z</time></trkpt><trkpt lat="44.48824224605247" lon="7.89080606096414"><ele>337.0</ele><time>2026-05-02T13:33:41Z</time></trkpt><trkpt lat="44.48840903718782" lon="7.890908969415612"><ele>337.0</ele><time>2026-05-02T13:33:42Z</time></trkpt><trkpt lat="44.48859029195682" lon="7.890989920806523"><ele>336.3333333333333</ele><time>2026-05-02T13:33:43Z</time></trkpt><trkpt lat="44.488791207701425" lon="7.8910545775690295"><ele>335.6666666666667</ele><time>2026-05-02T13:33:44Z</time></trkpt><trkpt lat="44.4890039697803" lon="7.891112312834809"><ele>335.0</ele><time>2026-05-02T13:33:45Z</time></trkpt><trkpt lat="44.4892291594086" lon="7.891163329371616"><ele>335.0</ele><time>2026-05-02T13:33:46Z</time></trkpt><trkpt lat="44.489457262159966" lon="7.891209626546287"><ele>335.0</ele><time>2026-05-02T13:33:47Z</time></trkpt><trkpt lat="44.48969632893452" lon="7.891259258900592"><ele>335.0</ele><time>2026-05-02T13:33:48Z</time></trkpt><trkpt lat="44.48994222167112" lon="7.891315820772309"><ele>335.0</ele><time>2026-05-02T13:33:49Z</time></trkpt><trkpt lat="44.490193459984134" lon="7.8913722409017755"><ele>335.0</ele><time>2026-05-02T13:33:50Z</time></trkpt><trkpt lat="44.4904453219138" lon="7.891426507169875"><ele>335.0</ele><time>2026-05-02T13:33:51Z</time></trkpt><trkpt lat="44.490701759832135" lon="7.891480731017267"><ele>335.0</ele><time>2026-05-02T13:33:52Z</time></trkpt><trkpt lat="44.49095955400452" lon="7.891535097379687"><ele>335.0</ele><time>2026-05-02T13:33:53Z</time></trkpt><trkpt lat="44.491207737911495" lon="7.891588308398504"><ele>336.0</ele><time>2026-05-02T13:33:54Z</time></trkpt><trkpt lat="44.49144484991618" lon="7.891638970363541"><ele>337.0</ele><time>2026-05-02T13:33:55Z</time></trkpt><trkpt lat="44.491654186018486" lon="7.891684182728231"><ele>337.0</ele><time>2026-05-02T13:33:56Z</time></trkpt><trkpt lat="44.49184559357238" lon="7.891724980448426"><ele>337.0</ele><time>2026-05-02T13:33:57Z</time></trkpt><trkpt lat="44.4920180669426" lon="7.891763294778666"><ele>337.0</ele><time>2026-05-02T13:33:58Z</time></trkpt><trkpt lat="44.492175598979784" lon="7.891801815074645"><ele>336.3333333333333</ele><time>2026-05-02T13:33:59Z</time></trkpt><trkpt lat="44.49231957208131" lon="7.891838398693417"><ele>335.6666666666667</ele><time>2026-05-02T13:34:00Z</time></trkpt><trkpt lat="44.49246482842839" lon="7.891883002058685"><ele>335.0</ele><time>2026-05-02T13:34:01Z</time></trkpt><trkpt lat="44.49262846064549" lon="7.891941437834714"><ele>335.0</ele><time>2026-05-02T13:34:02Z</time></trkpt><trkpt lat="44.49280570406667" lon="7.892015425408058"><ele>335.0</ele><time>2026-05-02T13:34:03Z</time></trkpt><trkpt lat="44.49300190054756" lon="7.892112247178815"><ele>335.0</ele><time>2026-05-02T13:34:04Z</time></trkpt><trkpt lat="44.49321422545517" lon="7.8922251240710075"><ele>335.0</ele><time>2026-05-02T13:34:05Z</time></trkpt><trkpt lat="44.493432670160715" lon="7.892358848435394"><ele>335.0</ele><time>2026-05-02T13:34:06Z</time></trkpt><trkpt lat="44.49365627471727" lon="7.892505275258171"><ele>335.0</ele><time>2026-05-02T13:34:07Z</time></trkpt><trkpt lat="44.49387942295724" lon="7.892648578281756"><ele>335.0</ele><time>2026-05-02T13:34:08Z</time></trkpt><trkpt lat="44.49410521934756" lon="7.8927903644304545"><ele>335.0</ele><time>2026-05-02T13:34:09Z</time></trkpt><trkpt lat="44.494331408998775" lon="7.892928849663348"><ele>335.0</ele><time>2026-05-02T13:34:10Z</time></trkpt><trkpt lat="44.49454976591524" lon="7.893068709520828"><ele>334.6666666666667</ele><time>2026-05-02T13:34:11Z</time></trkpt><trkpt lat="44.49475554332388" lon="7.893186724162357"><ele>334.3333333333333</ele><time>2026-05-02T13:34:12Z</time></trkpt><trkpt lat="44.494956213014795" lon="7.893310673360848"><ele>334.0</ele><time>2026-05-02T13:34:13Z</time></trkpt><trkpt lat="44.49516574598682" lon="7.893424770960639"><ele>334.0</ele><time>2026-05-02T13:34:14Z</time></trkpt><trkpt lat="44.49539809823118" lon="7.8935273579144445"><ele>334.0</ele><time>2026-05-02T13:34:15Z</time></trkpt><trkpt lat="44.49565357846217" lon="7.8936363155947715"><ele>334.0</ele><time>2026-05-02T13:34:16Z</time></trkpt><trkpt lat="44.4959098505734" lon="7.8937397130651"><ele>334.0</ele><time>2026-05-02T13:34:17Z</time></trkpt><trkpt lat="44.496162834962675" lon="7.893846575615978"><ele>334.0</ele><time>2026-05-02T13:34:18Z</time></trkpt><trkpt lat="44.49639285651802" lon="7.893945666533974"><ele>334.0</ele><time>2026-05-02T13:34:19Z</time></trkpt><trkpt lat="44.496633949565386" lon="7.894047522193841"><ele>334.0</ele><time>2026-05-02T13:34:20Z</time></trkpt><trkpt lat="44.49684774694352" lon="7.894138337386687"><ele>334.0</ele><time>2026-05-02T13:34:21Z</time></trkpt><trkpt lat="44.49704799965639" lon="7.894224120633956"><ele>334.0</ele><time>2026-05-02T13:34:22Z</time></trkpt><trkpt lat="44.4972341381267" lon="7.8943026081526915"><ele>333.0</ele><time>2026-05-02T13:34:23Z</time></trkpt><trkpt lat="44.49740588656896" lon="7.894376781614059"><ele>332.0</ele><time>2026-05-02T13:34:24Z</time></trkpt><trkpt lat="44.49755993841153" lon="7.894445357108138"><ele>331.0</ele><time>2026-05-02T13:34:25Z</time></trkpt><trkpt lat="44.49769778333065" lon="7.894505225751346"><ele>331.0</ele><time>2026-05-02T13:34:26Z</time></trkpt><trkpt lat="44.497828831092356" lon="7.894552378380803"><ele>331.0</ele><time>2026-05-02T13:34:27Z</time></trkpt><trkpt lat="44.49796231330944" lon="7.894582055158412"><ele>331.0</ele><time>2026-05-02T13:34:28Z</time></trkpt><trkpt lat="44.498097146381866" lon="7.894593951440754"><ele>331.0</ele><time>2026-05-02T13:34:29Z</time></trkpt><trkpt lat="44.498240036757686" lon="7.894585770924868"><ele>328.3333333333333</ele><time>2026-05-02T13:34:30Z</time></trkpt><trkpt lat="44.49839845488957" lon="7.894559390875067"><ele>325.6666666666667</ele><time>2026-05-02T13:34:31Z</time></trkpt><trkpt lat="44.49857668945494" lon="7.894501433316546"><ele>323.0</ele><time>2026-05-02T13:34:32Z</time></trkpt><trkpt lat="44.49878402549979" lon="7.894412547786386"><ele>323.5</ele><time>2026-05-02T13:34:33Z</time></trkpt><trkpt lat="44.4989970458782" lon="7.894305637559107"><ele>324.0</ele><time>2026-05-02T13:34:34Z</time></trkpt><trkpt lat="44.49921018648204" lon="7.894209065716806"><ele>324.0</ele><time>2026-05-02T13:34:35Z</time></trkpt><trkpt lat="44.499421102889485" lon="7.8941384151643"><ele>324.0</ele><time>2026-05-02T13:34:36Z</time></trkpt><trkpt lat="44.49961620685712" lon="7.894095478690723"><ele>324.0</ele><time>2026-05-02T13:34:37Z</time></trkpt><trkpt lat="44.499809134104105" lon="7.894063894781571"><ele>321.6666666666667</ele><time>2026-05-02T13:34:38Z</time></trkpt><trkpt lat="44.500023353308684" lon="7.89404832532062"><ele>319.33333333333337</ele><time>2026-05-02T13:34:39Z</time></trkpt><trkpt lat="44.50025418374623" lon="7.894042842218179"><ele>317.0</ele><time>2026-05-02T13:34:40Z</time></trkpt><trkpt lat="44.50049773701621" lon="7.894040724718523"><ele>312.5</ele><time>2026-05-02T13:34:41Z</time></trkpt><trkpt lat="44.500749316836114" lon="7.8940332097911865"><ele>308.0</ele><time>2026-05-02T13:34:42Z</time></trkpt><trkpt lat="44.500985488951514" lon="7.894010107250517"><ele>308.0</ele><time>2026-05-02T13:34:43Z</time></trkpt><trkpt lat="44.50119784331073" lon="7.893985120099178"><ele>308.0</ele><time>2026-05-02T13:34:44Z</time></trkpt><trkpt lat="44.50140003390768" lon="7.893967531750959"><ele>308.0</ele><time>2026-05-02T13:34:45Z</time></trkpt><trkpt lat="44.501615703909515" lon="7.8939643607300525"><ele>305.5</ele><time>2026-05-02T13:34:46Z</time></trkpt><trkpt lat="44.501848727024615" lon="7.893986163225947"><ele>303.0</ele><time>2026-05-02T13:34:47Z</time></trkpt><trkpt lat="44.50209023884569" lon="7.894026532291222"><ele>302.5</ele><time>2026-05-02T13:34:48Z</time></trkpt><trkpt lat="44.50233059760036" lon="7.8940654452635455"><ele>302.0</ele><time>2026-05-02T13:34:49Z</time></trkpt><trkpt lat="44.50254859239986" lon="7.894101718348266"><ele>302.0</ele><time>2026-05-02T13:34:50Z</time></trkpt><trkpt lat="44.50274742136609" lon="7.894136002488102"><ele>302.0</ele><time>2026-05-02T13:34:51Z</time></trkpt><trkpt lat="44.502930615884" lon="7.894168751537678"><ele>302.0</ele><time>2026-05-02T13:34:52Z</time></trkpt><trkpt lat="44.503101524471916" lon="7.894204946524298"><ele>301.33333333333337</ele><time>2026-05-02T13:34:53Z</time></trkpt><trkpt lat="44.50325743393274" lon="7.894247796577757"><ele>300.6666666666667</ele><time>2026-05-02T13:34:54Z</time></trkpt><trkpt lat="44.50340127838728" lon="7.894296574912231"><ele>300.0</ele><time>2026-05-02T13:34:55Z</time></trkpt><trkpt lat="44.50354347580915" lon="7.8943576114912695"><ele>295.3333333333333</ele><time>2026-05-02T13:34:56Z</time></trkpt><trkpt lat="44.503698296873694" lon="7.894436989087045"><ele>290.66666666666663</ele><time>2026-05-02T13:34:57Z</time></trkpt><trkpt lat="44.50386141772388" lon="7.894529977522859"><ele>286.0</ele><time>2026-05-02T13:34:58Z</time></trkpt><trkpt lat="44.50401640987084" lon="7.894621453231435"><ele>286.0</ele><time>2026-05-02T13:34:59Z</time></trkpt><trkpt lat="44.50416113815599" lon="7.894710277011516"><ele>286.0</ele><time>2026-05-02T13:35:00Z</time></trkpt><trkpt lat="44.504299772832276" lon="7.894793878322829"><ele>286.0</ele><time>2026-05-02T13:35:01Z</time></trkpt><trkpt lat="44.504433397674994" lon="7.894878074055232"><ele>286.0</ele><time>2026-05-02T13:35:02Z</time></trkpt><trkpt lat="44.50456884153253" lon="7.894977222252518"><ele>286.0</ele><time>2026-05-02T13:35:03Z</time></trkpt><trkpt lat="44.50470593763388" lon="7.8951084494120165"><ele>286.0</ele><time>2026-05-02T13:35:04Z</time></trkpt><trkpt lat="44.504834586007746" lon="7.8952758003778465"><ele>284.3333333333333</ele><time>2026-05-02T13:35:05Z</time></trkpt><trkpt lat="44.50495345827196" lon="7.895481266149225"><ele>282.6666666666667</ele><time>2026-05-02T13:35:06Z</time></trkpt><trkpt lat="44.505054162969515" lon="7.895700118612279"><ele>281.0</ele><time>2026-05-02T13:35:07Z</time></trkpt><trkpt lat="44.50513348246274" lon="7.895944926380731"><ele>278.5</ele><time>2026-05-02T13:35:08Z</time></trkpt><trkpt lat="44.50521369843669" lon="7.8962441252717985"><ele>276.0</ele><time>2026-05-02T13:35:09Z</time></trkpt><trkpt lat="44.505293730899005" lon="7.896564287169879"><ele>274.0</ele><time>2026-05-02T13:35:10Z</time></trkpt><trkpt lat="44.505382183256245" lon="7.8968917107308885"><ele>272.0</ele><time>2026-05-02T13:35:11Z</time></trkpt><trkpt lat="44.5054746304566" lon="7.8972288142981775"><ele>277.0</ele><time>2026-05-02T13:35:12Z</time></trkpt><trkpt lat="44.50557041629099" lon="7.897573002310127"><ele>282.0</ele><time>2026-05-02T13:35:13Z</time></trkpt><trkpt lat="44.50566532172507" lon="7.897920094188233"><ele>282.0</ele><time>2026-05-02T13:35:14Z</time></trkpt><trkpt lat="44.50575074213362" lon="7.898232316949728"><ele>282.0</ele><time>2026-05-02T13:35:15Z</time></trkpt><trkpt lat="44.50582646723691" lon="7.898513428629714"><ele>279.3333333333333</ele><time>2026-05-02T13:35:16Z</time></trkpt><trkpt lat="44.50590242855557" lon="7.8987732193797"><ele>276.66666666666663</ele><time>2026-05-02T13:35:17Z</time></trkpt><trkpt lat="44.5059820798488" lon="7.899031071573025"><ele>274.0</ele><time>2026-05-02T13:35:18Z</time></trkpt><trkpt lat="44.5060662792559" lon="7.8992790865486295"><ele>275.3333333333333</ele><time>2026-05-02T13:35:19Z</time></trkpt><trkpt lat="44.506165793682605" lon="7.8995314070588964"><ele>276.6666666666667</ele><time>2026-05-02T13:35:20Z</time></trkpt><trkpt lat="44.50626383737378" lon="7.899761730837265"><ele>278.0</ele><time>2026-05-02T13:35:21Z</time></trkpt><trkpt lat="44.5063502084241" lon="7.8999655587319975"><ele>276.25</ele><time>2026-05-02T13:35:22Z</time></trkpt><trkpt lat="44.506422246258474" lon="7.900150537190307"><ele>274.5</ele><time>2026-05-02T13:35:23Z</time></trkpt><trkpt lat="44.50648166038333" lon="7.9003280057801275"><ele>272.75</ele><time>2026-05-02T13:35:24Z</time></trkpt><trkpt lat="44.50653071255354" lon="7.9005254191037055"><ele>271.0</ele><time>2026-05-02T13:35:25Z</time></trkpt><trkpt lat="44.5065660256845" lon="7.900781380867528"><ele>269.0</ele><time>2026-05-02T13:35:26Z</time></trkpt><trkpt lat="44.506587750954075" lon="7.901044070937549"><ele>267.0</ele><time>2026-05-02T13:35:27Z</time></trkpt><trkpt lat="44.506609971156486" lon="7.9013275583327305"><ele>265.0</ele><time>2026-05-02T13:35:28Z</time></trkpt><trkpt lat="44.50663499651672" lon="7.901621951414821"><ele>263.3333333333333</ele><time>2026-05-02T13:35:29Z</time></trkpt><trkpt lat="44.506657935732306" lon="7.901901184375331"><ele>261.6666666666667</ele><time>2026-05-02T13:35:30Z</time></trkpt><trkpt lat="44.50666913659823" lon="7.902186340422336"><ele>260.0</ele><time>2026-05-02T13:35:31Z</time></trkpt><trkpt lat="44.50667488675717" lon="7.902496633942765"><ele>259.0</ele><time>2026-05-02T13:35:32Z</time></trkpt><trkpt lat="44.506674749745564" lon="7.902823730169046"><ele>258.0</ele><time>2026-05-02T13:35:33Z</time></trkpt><trkpt lat="44.506672633759365" lon="7.9031576469922875"><ele>259.0</ele><time>2026-05-02T13:35:34Z</time></trkpt><trkpt lat="44.50667073881763" lon="7.903491047257844"><ele>260.0</ele><time>2026-05-02T13:35:35Z</time></trkpt><trkpt lat="44.50666838369829" lon="7.903829176312612"><ele>260.0</ele><time>2026-05-02T13:35:36Z</time></trkpt><trkpt lat="44.50666759153548" lon="7.904168174770928"><ele>260.0</ele><time>2026-05-02T13:35:37Z</time></trkpt><trkpt lat="44.50666127869856" lon="7.904480226707202"><ele>259.6666666666667</ele><time>2026-05-02T13:35:38Z</time></trkpt><trkpt lat="44.50665821743487" lon="7.904764071943926"><ele>259.3333333333333</ele><time>2026-05-02T13:35:39Z</time></trkpt><trkpt lat="44.50666015783039" lon="7.9050273141837755"><ele>259.0</ele><time>2026-05-02T13:35:40Z</time></trkpt><trkpt lat="44.50667369528979" lon="7.9052760961735045"><ele>259.0</ele><time>2026-05-02T13:35:41Z</time></trkpt><trkpt lat="44.506699987481866" lon="7.905520969603335"><ele>259.0</ele><time>2026-05-02T13:35:42Z</time></trkpt><trkpt lat="44.5067420276186" lon="7.905777194739168"><ele>259.0</ele><time>2026-05-02T13:35:43Z</time></trkpt><trkpt lat="44.50678948623196" lon="7.906047077798754"><ele>259.66666666666663</ele><time>2026-05-02T13:35:44Z</time></trkpt><trkpt lat="44.5068403156271" lon="7.9063111058328674"><ele>260.3333333333333</ele><time>2026-05-02T13:35:45Z</time></trkpt><trkpt lat="44.50688633687342" lon="7.90653288300573"><ele>261.0</ele><time>2026-05-02T13:35:46Z</time></trkpt><trkpt lat="44.50693886757448" lon="7.906741735755691"><ele>261.25</ele><time>2026-05-02T13:35:47Z</time></trkpt><trkpt lat="44.50698989180499" lon="7.906939931985515"><ele>261.5</ele><time>2026-05-02T13:35:48Z</time></trkpt><trkpt lat="44.50707689059729" lon="7.90710028844169"><ele>261.75</ele><time>2026-05-02T13:35:49Z</time></trkpt><trkpt lat="44.50715406498233" lon="7.907278968345067"><ele>262.0</ele><time>2026-05-02T13:35:50Z</time></trkpt><trkpt lat="44.50724288647368" lon="7.907450013302118"><ele>261.3333333333333</ele><time>2026-05-02T13:35:51Z</time></trkpt><trkpt lat="44.507348895959446" lon="7.907612433791443"><ele>260.6666666666667</ele><time>2026-05-02T13:35:52Z</time></trkpt><trkpt lat="44.507475947934026" lon="7.90777000623458"><ele>260.0</ele><time>2026-05-02T13:35:53Z</time></trkpt><trkpt lat="44.507603141858" lon="7.907947153401481"><ele>260.0</ele><time>2026-05-02T13:35:54Z</time></trkpt><trkpt lat="44.50776480340137" lon="7.9080785934036735"><ele>260.0</ele><time>2026-05-02T13:35:55Z</time></trkpt><trkpt lat="44.507927638016625" lon="7.908199233127988"><ele>260.0</ele><time>2026-05-02T13:35:56Z</time></trkpt><trkpt lat="44.50810410339846" lon="7.9083279418751316"><ele>255.66666666666669</ele><time>2026-05-02T13:35:57Z</time></trkpt><trkpt lat="44.5082841217061" lon="7.9084481441996255"><ele>251.33333333333331</ele><time>2026-05-02T13:35:58Z</time></trkpt><trkpt lat="44.50846202972837" lon="7.908565104259689"><ele>247.0</ele><time>2026-05-02T13:35:59Z</time></trkpt><trkpt lat="44.50863787807703" lon="7.908675785795793"><ele>246.66666666666666</ele><time>2026-05-02T13:36:00Z</time></trkpt><trkpt lat="44.50880025394909" lon="7.908781745584212"><ele>246.33333333333331</ele><time>2026-05-02T13:36:01Z</time></trkpt><trkpt lat="44.50894208489933" lon="7.9088727920310395"><ele>246.0</ele><time>2026-05-02T13:36:02Z</time></trkpt><trkpt lat="44.50907190354648" lon="7.908978134995299"><ele>246.0</ele><time>2026-05-02T13:36:03Z</time></trkpt><trkpt lat="44.50919031351548" lon="7.909114289987642"><ele>246.0</ele><time>2026-05-02T13:36:04Z</time></trkpt><trkpt lat="44.5092819917236" lon="7.909315385783183"><ele>246.0</ele><time>2026-05-02T13:36:05Z</time></trkpt><trkpt lat="44.50942119606152" lon="7.909497584550527"><ele>244.33333333333331</ele><time>2026-05-02T13:36:06Z</time></trkpt><trkpt lat="44.50957692180529" lon="7.909652339607688"><ele>242.66666666666666</ele><time>2026-05-02T13:36:07Z</time></trkpt><trkpt lat="44.509737691732276" lon="7.909796159814617"><ele>241.0</ele><time>2026-05-02T13:36:08Z</time></trkpt><trkpt lat="44.50988937712393" lon="7.909924589684779"><ele>241.0</ele><time>2026-05-02T13:36:09Z</time></trkpt><trkpt lat="44.510039412307" lon="7.910047765983795"><ele>241.0</ele><time>2026-05-02T13:36:10Z</time></trkpt><trkpt lat="44.5102017112545" lon="7.910176859448235"><ele>241.0</ele><time>2026-05-02T13:36:11Z</time></trkpt><trkpt lat="44.51037175311031" lon="7.910316649109662"><ele>242.66666666666666</ele><time>2026-05-02T13:36:12Z</time></trkpt><trkpt lat="44.510541627715995" lon="7.910459607169197"><ele>244.33333333333331</ele><time>2026-05-02T13:36:13Z</time></trkpt><trkpt lat="44.510696447760296" lon="7.910595978195926"><ele>246.0</ele><time>2026-05-02T13:36:14Z</time></trkpt><trkpt lat="44.510837610710986" lon="7.910718843826347"><ele>246.0</ele><time>2026-05-02T13:36:15Z</time></trkpt><trkpt lat="44.51096313538108" lon="7.9108347943420885"><ele>246.0</ele><time>2026-05-02T13:36:16Z</time></trkpt><trkpt lat="44.51105462883107" lon="7.910927058310161"><ele>246.0</ele><time>2026-05-02T13:36:17Z</time></trkpt><trkpt lat="44.51113695094467" lon="7.9110331427055485"><ele>246.0</ele><time>2026-05-02T13:36:18Z</time></trkpt><trkpt lat="44.51120071874013" lon="7.911153255733936"><ele>246.60000000000002</ele><time>2026-05-02T13:36:19Z</time></trkpt><trkpt lat="44.51123071140147" lon="7.911287248300571"><ele>247.20000000000002</ele><time>2026-05-02T13:36:20Z</time></trkpt><trkpt lat="44.51123622731495" lon="7.911418055333171"><ele>247.79999999999998</ele><time>2026-05-02T13:36:21Z</time></trkpt><trkpt lat="44.51120559305482" lon="7.91155549701741"><ele>248.39999999999998</ele><time>2026-05-02T13:36:22Z</time></trkpt><trkpt lat="44.51118807459152" lon="7.911715540644618"><ele>249.0</ele><time>2026-05-02T13:36:23Z</time></trkpt><trkpt lat="44.511140818651135" lon="7.9119214814783865"><ele>249.66666666666669</ele><time>2026-05-02T13:36:24Z</time></trkpt><trkpt lat="44.51108289739335" lon="7.912143302297677"><ele>250.33333333333334</ele><time>2026-05-02T13:36:25Z</time></trkpt><trkpt lat="44.51101110461297" lon="7.912343748386231"><ele>251.0</ele><time>2026-05-02T13:36:26Z</time></trkpt><trkpt lat="44.51095010759096" lon="7.912549247336961"><ele>252.66666666666669</ele><time>2026-05-02T13:36:27Z</time></trkpt><trkpt lat="44.51088311236729" lon="7.9127685934440395"><ele>254.33333333333331</ele><time>2026-05-02T13:36:28Z</time></trkpt><trkpt lat="44.51080993343835" lon="7.913005958525852"><ele>256.0</ele><time>2026-05-02T13:36:29Z</time></trkpt><trkpt lat="44.51073882504874" lon="7.91323842948522"><ele>257.75</ele><time>2026-05-02T13:36:30Z</time></trkpt><trkpt lat="44.51068286149014" lon="7.9134407553848956"><ele>259.5</ele><time>2026-05-02T13:36:31Z</time></trkpt><trkpt lat="44.51063458646642" lon="7.913629625074643"><ele>261.25</ele><time>2026-05-02T13:36:32Z</time></trkpt><trkpt lat="44.510591260471486" lon="7.913801669672707"><ele>263.0</ele><time>2026-05-02T13:36:33Z</time></trkpt><trkpt lat="44.510565859146524" lon="7.913971544462988"><ele>263.0</ele><time>2026-05-02T13:36:34Z</time></trkpt><trkpt lat="44.51051543824724" lon="7.914125856833482"><ele>263.0</ele><time>2026-05-02T13:36:35Z</time></trkpt><trkpt lat="44.51048842434231" lon="7.914277146544007"><ele>263.0</ele><time>2026-05-02T13:36:36Z</time></trkpt><trkpt lat="44.51049430256373" lon="7.914411455288923"><ele>263.0</ele><time>2026-05-02T13:36:37Z</time></trkpt><trkpt lat="44.51050263229648" lon="7.914537938739218"><ele>263.0</ele><time>2026-05-02T13:36:38Z</time></trkpt><trkpt lat="44.51053183288509" lon="7.9146652203104475"><ele>263.8</ele><time>2026-05-02T13:36:39Z</time></trkpt><trkpt lat="44.5105826685891" lon="7.914786822325907"><ele>264.6</ele><time>2026-05-02T13:36:40Z</time></trkpt><trkpt lat="44.510649239694324" lon="7.914897122191864"><ele>265.4</ele><time>2026-05-02T13:36:41Z</time></trkpt><trkpt lat="44.51073190469039" lon="7.914992313511719"><ele>266.2</ele><time>2026-05-02T13:36:42Z</time></trkpt><trkpt lat="44.51081608031817" lon="7.915095195141997"><ele>267.0</ele><time>2026-05-02T13:36:43Z</time></trkpt><trkpt lat="44.51089216193448" lon="7.915213059598161"><ele>268.0</ele><time>2026-05-02T13:36:44Z</time></trkpt><trkpt lat="44.51096832925027" lon="7.915305107631925"><ele>269.0</ele><time>2026-05-02T13:36:45Z</time></trkpt><trkpt lat="44.511020591133374" lon="7.915390030996021"><ele>270.0</ele><time>2026-05-02T13:36:46Z</time></trkpt><trkpt lat="44.51106898155766" lon="7.915474404711986"><ele>271.0</ele><time>2026-05-02T13:36:47Z</time></trkpt><trkpt lat="44.51112089110948" lon="7.915577234655037"><ele>272.0</ele><time>2026-05-02T13:36:48Z</time></trkpt><trkpt lat="44.51114303642339" lon="7.915721811528888"><ele>272.0</ele><time>2026-05-02T13:36:49Z</time></trkpt><trkpt lat="44.51116562526626" lon="7.915877688228329"><ele>272.0</ele><time>2026-05-02T13:36:50Z</time></trkpt><trkpt lat="44.51118641491484" lon="7.91602831912301"><ele>272.0</ele><time>2026-05-02T13:36:51Z</time></trkpt><trkpt lat="44.51121209217443" lon="7.916182756415085"><ele>272.0</ele><time>2026-05-02T13:36:52Z</time></trkpt><trkpt lat="44.51123951494976" lon="7.91632448159419"><ele>272.0</ele><time>2026-05-02T13:36:53Z</time></trkpt><trkpt lat="44.51126608742363" lon="7.91646709402725"><ele>272.0</ele><time>2026-05-02T13:36:54Z</time></trkpt><trkpt lat="44.51129981908539" lon="7.916617150957111"><ele>272.0</ele><time>2026-05-02T13:36:55Z</time></trkpt><trkpt lat="44.51133096093247" lon="7.916761985973015"><ele>272.0</ele><time>2026-05-02T13:36:56Z</time></trkpt><trkpt lat="44.51134653111401" lon="7.916919721516569"><ele>272.0</ele><time>2026-05-02T13:36:57Z</time></trkpt><trkpt lat="44.51138940945944" lon="7.917071802168193"><ele>272.8</ele><time>2026-05-02T13:36:58Z</time></trkpt><trkpt lat="44.511413727100354" lon="7.917224258975202"><ele>273.6</ele><time>2026-05-02T13:36:59Z</time></trkpt><trkpt lat="44.5114302074052" lon="7.917375945178862"><ele>274.40000000000003</ele><time>2026-05-02T13:37:00Z</time></trkpt><trkpt lat="44.511496355299585" lon="7.917484974440608"><ele>275.2</ele><time>2026-05-02T13:37:01Z</time></trkpt><trkpt lat="44.51155130795554" lon="7.917583646651097"><ele>276.0</ele><time>2026-05-02T13:37:02Z</time></trkpt><trkpt lat="44.511624537589526" lon="7.917657698699365"><ele>277.2</ele><time>2026-05-02T13:37:03Z</time></trkpt><trkpt lat="44.51170464538423" lon="7.917702384307371"><ele>278.40000000000003</ele><time>2026-05-02T13:37:04Z</time></trkpt><trkpt lat="44.51179914510381" lon="7.9177396543883205"><ele>279.6</ele><time>2026-05-02T13:37:05Z</time></trkpt><trkpt lat="44.511910383751925" lon="7.917747757945621"><ele>280.8</ele><time>2026-05-02T13:37:06Z</time></trkpt><trkpt lat="44.51204563253898" lon="7.91771808382686"><ele>282.0</ele><time>2026-05-02T13:37:07Z</time></trkpt><trkpt lat="44.51221590343437" lon="7.917661161931147"><ele>282.6666666666667</ele><time>2026-05-02T13:37:08Z</time></trkpt><trkpt lat="44.512410320865776" lon="7.917581085135667"><ele>283.33333333333337</ele><time>2026-05-02T13:37:09Z</time></trkpt><trkpt lat="44.51258975936625" lon="7.917490528701956"><ele>284.0</ele><time>2026-05-02T13:37:10Z</time></trkpt><trkpt lat="44.512727224447886" lon="7.917411067896411"><ele>284.0</ele><time>2026-05-02T13:37:11Z</time></trkpt><trkpt lat="44.51283862482842" lon="7.917363395640614"><ele>284.0</ele><time>2026-05-02T13:37:12Z</time></trkpt><trkpt lat="44.512977981918105" lon="7.917347806473757"><ele>284.0</ele><time>2026-05-02T13:37:13Z</time></trkpt><trkpt lat="44.513133827989186" lon="7.917344344513083"><ele>284.0</ele><time>2026-05-02T13:37:14Z</time></trkpt><trkpt lat="44.513312400075144" lon="7.917360917049192"><ele>286.33333333333337</ele><time>2026-05-02T13:37:15Z</time></trkpt><trkpt lat="44.51347895308861" lon="7.917375138554242"><ele>288.6666666666667</ele><time>2026-05-02T13:37:16Z</time></trkpt><trkpt lat="44.51362207483896" lon="7.917394834488012"><ele>291.0</ele><time>2026-05-02T13:37:17Z</time></trkpt><trkpt lat="44.51377023457453" lon="7.917430986804717"><ele>291.75</ele><time>2026-05-02T13:37:18Z</time></trkpt><trkpt lat="44.51392121294671" lon="7.917481290704939"><ele>292.5</ele><time>2026-05-02T13:37:19Z</time></trkpt><trkpt lat="44.514047389872445" lon="7.917542461210819"><ele>293.25</ele><time>2026-05-02T13:37:20Z</time></trkpt><trkpt lat="44.514157148844824" lon="7.917634602210442"><ele>294.0</ele><time>2026-05-02T13:37:21Z</time></trkpt><trkpt lat="44.51425625151839" lon="7.917751877931883"><ele>297.2</ele><time>2026-05-02T13:37:22Z</time></trkpt><trkpt lat="44.514340566262455" lon="7.917857919994603"><ele>300.4</ele><time>2026-05-02T13:37:23Z</time></trkpt><trkpt lat="44.51442972270543" lon="7.917916665687927"><ele>303.6</ele><time>2026-05-02T13:37:24Z</time></trkpt><trkpt lat="44.51451984722478" lon="7.917919008416924"><ele>306.8</ele><time>2026-05-02T13:37:25Z</time></trkpt><trkpt lat="44.514612646552884" lon="7.917876772715833"><ele>310.0</ele><time>2026-05-02T13:37:26Z</time></trkpt><trkpt lat="44.51475197390847" lon="7.9177926073138005"><ele>312.3333333333333</ele><time>2026-05-02T13:37:27Z</time></trkpt><trkpt lat="44.51490228762652" lon="7.91767145904793"><ele>314.6666666666667</ele><time>2026-05-02T13:37:28Z</time></trkpt><trkpt lat="44.51505857494443" lon="7.917519851969923"><ele>317.0</ele><time>2026-05-02T13:37:29Z</time></trkpt><trkpt lat="44.515185507846375" lon="7.917410884245662"><ele>315.83333333333337</ele><time>2026-05-02T13:37:30Z</time></trkpt><trkpt lat="44.51528040275158" lon="7.917351016714958"><ele>314.6666666666667</ele><time>2026-05-02T13:37:31Z</time></trkpt><trkpt lat="44.51536489511449" lon="7.917299720475382"><ele>313.5</ele><time>2026-05-02T13:37:32Z</time></trkpt><trkpt lat="44.51542708157794" lon="7.917283117164606"><ele>312.3333333333333</ele><time>2026-05-02T13:37:33Z</time></trkpt><trkpt lat="44.51551076294236" lon="7.917359128422359"><ele>311.16666666666663</ele><time>2026-05-02T13:37:35Z</time></trkpt><trkpt lat="44.51552089414491" lon="7.917452161432944"><ele>310.0</ele><time>2026-05-02T13:37:36Z</time></trkpt><trkpt lat="44.51549484856823" lon="7.917542836207721"><ele>311.75</ele><time>2026-05-02T13:37:37Z</time></trkpt><trkpt lat="44.51541014453537" lon="7.9175852778115505"><ele>313.5</ele><time>2026-05-02T13:37:38Z</time></trkpt><trkpt lat="44.51531228775465" lon="7.917634646907073"><ele>315.25</ele><time>2026-05-02T13:37:39Z</time></trkpt><trkpt lat="44.51518876491521" lon="7.917740681418882"><ele>317.0</ele><time>2026-05-02T13:37:40Z</time></trkpt><trkpt lat="44.515052771259064" lon="7.917867317865561"><ele>317.0</ele><time>2026-05-02T13:37:41Z</time></trkpt><trkpt lat="44.51494724592546" lon="7.918001049459007"><ele>317.0</ele><time>2026-05-02T13:37:42Z</time></trkpt><trkpt lat="44.51486215334794" lon="7.918150226095649"><ele>317.0</ele><time>2026-05-02T13:37:43Z</time></trkpt><trkpt lat="44.514806207804476" lon="7.91834164210063"><ele>317.0</ele><time>2026-05-02T13:37:44Z</time></trkpt><trkpt lat="44.51475132885566" lon="7.9185553299983455"><ele>319.6666666666667</ele><time>2026-05-02T13:37:45Z</time></trkpt><trkpt lat="44.5146965993649" lon="7.918805501948249"><ele>322.3333333333333</ele><time>2026-05-02T13:37:46Z</time></trkpt><trkpt lat="44.514629830722036" lon="7.919013857399888"><ele>325.0</ele><time>2026-05-02T13:37:47Z</time></trkpt><trkpt lat="44.514592844727524" lon="7.919188856801257"><ele>326.3333333333333</ele><time>2026-05-02T13:37:48Z</time></trkpt><trkpt lat="44.51450152798116" lon="7.919326207137844"><ele>327.6666666666667</ele><time>2026-05-02T13:37:49Z</time></trkpt><trkpt lat="44.51438811313552" lon="7.919468715498"><ele>329.0</ele><time>2026-05-02T13:37:50Z</time></trkpt><trkpt lat="44.51425858977557" lon="7.919634122218331"><ele>329.0</ele><time>2026-05-02T13:37:51Z</time></trkpt><trkpt lat="44.514108195353245" lon="7.919763268504914"><ele>329.0</ele><time>2026-05-02T13:37:52Z</time></trkpt><trkpt lat="44.514016105378396" lon="7.919915826113326"><ele>329.0</ele><time>2026-05-02T13:37:53Z</time></trkpt><trkpt lat="44.51392676145252" lon="7.920069864625357"><ele>330.0</ele><time>2026-05-02T13:37:54Z</time></trkpt><trkpt lat="44.5138355418366" lon="7.9202430804737505"><ele>331.0</ele><time>2026-05-02T13:37:55Z</time></trkpt><trkpt lat="44.513761077368954" lon="7.920418864031659"><ele>332.0</ele><time>2026-05-02T13:37:56Z</time></trkpt><trkpt lat="44.51369325969655" lon="7.920614419900984"><ele>332.33333333333337</ele><time>2026-05-02T13:37:57Z</time></trkpt><trkpt lat="44.5136334718214" lon="7.920837431097353"><ele>332.6666666666667</ele><time>2026-05-02T13:37:58Z</time></trkpt><trkpt lat="44.51357999493391" lon="7.921103962231734"><ele>333.0</ele><time>2026-05-02T13:37:59Z</time></trkpt><trkpt lat="44.51352751554623" lon="7.921391584073289"><ele>333.0</ele><time>2026-05-02T13:38:00Z</time></trkpt><trkpt lat="44.513477421139264" lon="7.921657347248515"><ele>333.0</ele><time>2026-05-02T13:38:01Z</time></trkpt><trkpt lat="44.51343375637764" lon="7.921884603465202"><ele>333.0</ele><time>2026-05-02T13:38:02Z</time></trkpt><trkpt lat="44.51339388159573" lon="7.922092134729762"><ele>332.75</ele><time>2026-05-02T13:38:03Z</time></trkpt><trkpt lat="44.51335826827355" lon="7.9222774871496116"><ele>332.5</ele><time>2026-05-02T13:38:04Z</time></trkpt><trkpt lat="44.51333677789909" lon="7.9224741227744335"><ele>332.25</ele><time>2026-05-02T13:38:05Z</time></trkpt><trkpt lat="44.51329345197999" lon="7.922698581749674"><ele>332.0</ele><time>2026-05-02T13:38:06Z</time></trkpt><trkpt lat="44.51323372190589" lon="7.922938694860616"><ele>332.6666666666667</ele><time>2026-05-02T13:38:07Z</time></trkpt><trkpt lat="44.51318910568959" lon="7.923176544935761"><ele>333.3333333333333</ele><time>2026-05-02T13:38:08Z</time></trkpt><trkpt lat="44.51314561457208" lon="7.923407216305537"><ele>334.0</ele><time>2026-05-02T13:38:09Z</time></trkpt><trkpt lat="44.513097287663065" lon="7.923661640391302"><ele>334.0</ele><time>2026-05-02T13:38:10Z</time></trkpt><trkpt lat="44.513041814605494" lon="7.923952678250003"><ele>334.0</ele><time>2026-05-02T13:38:11Z</time></trkpt><trkpt lat="44.512991414462924" lon="7.924215369886041"><ele>334.0</ele><time>2026-05-02T13:38:12Z</time></trkpt><trkpt lat="44.51294794245277" lon="7.924441951527938"><ele>333.66666666666663</ele><time>2026-05-02T13:38:13Z</time></trkpt><trkpt lat="44.51292087761136" lon="7.924665165349233"><ele>333.3333333333333</ele><time>2026-05-02T13:38:14Z</time></trkpt><trkpt lat="44.5128730017711" lon="7.924891255973975"><ele>333.0</ele><time>2026-05-02T13:38:15Z</time></trkpt><trkpt lat="44.512832107670526" lon="7.925123719380091"><ele>334.3333333333333</ele><time>2026-05-02T13:38:16Z</time></trkpt><trkpt lat="44.512804931070185" lon="7.92536481184358"><ele>335.66666666666663</ele><time>2026-05-02T13:38:17Z</time></trkpt><trkpt lat="44.5127922350613" lon="7.925614266284162"><ele>337.0</ele><time>2026-05-02T13:38:18Z</time></trkpt><trkpt lat="44.512790752113084" lon="7.925871284822784"><ele>337.0</ele><time>2026-05-02T13:38:19Z</time></trkpt><trkpt lat="44.5128002142552" lon="7.926123777498753"><ele>337.0</ele><time>2026-05-02T13:38:20Z</time></trkpt><trkpt lat="44.512817638650525" lon="7.926369496477628"><ele>337.0</ele><time>2026-05-02T13:38:21Z</time></trkpt><trkpt lat="44.51284745139097" lon="7.926633908968245"><ele>337.5</ele><time>2026-05-02T13:38:22Z</time></trkpt><trkpt lat="44.512893739536715" lon="7.926941797566305"><ele>338.0</ele><time>2026-05-02T13:38:23Z</time></trkpt><trkpt lat="44.51294437438675" lon="7.927264493565707"><ele>337.0</ele><time>2026-05-02T13:38:24Z</time></trkpt><trkpt lat="44.5129913627058" lon="7.9275787701474965"><ele>336.0</ele><time>2026-05-02T13:38:25Z</time></trkpt><trkpt lat="44.51303342263162" lon="7.927884342482756"><ele>336.0</ele><time>2026-05-02T13:38:26Z</time></trkpt><trkpt lat="44.51307825921366" lon="7.9281841297443965"><ele>336.0</ele><time>2026-05-02T13:38:27Z</time></trkpt><trkpt lat="44.51312322023921" lon="7.928468504620409"><ele>336.0</ele><time>2026-05-02T13:38:28Z</time></trkpt><trkpt lat="44.51316397311945" lon="7.928743198408041"><ele>335.6666666666667</ele><time>2026-05-02T13:38:29Z</time></trkpt><trkpt lat="44.513203910250986" lon="7.92900531100217"><ele>335.33333333333337</ele><time>2026-05-02T13:38:30Z</time></trkpt><trkpt lat="44.51324079278072" lon="7.929244759729503"><ele>335.0</ele><time>2026-05-02T13:38:31Z</time></trkpt><trkpt lat="44.51327310759107" lon="7.929489517581737"><ele>335.0</ele><time>2026-05-02T13:38:32Z</time></trkpt><trkpt lat="44.51331079914242" lon="7.929748236780939"><ele>335.0</ele><time>2026-05-02T13:38:33Z</time></trkpt><trkpt lat="44.51334701046902" lon="7.930005964505863"><ele>335.0</ele><time>2026-05-02T13:38:34Z</time></trkpt><trkpt lat="44.51338138641669" lon="7.93025889504624"><ele>334.33333333333337</ele><time>2026-05-02T13:38:35Z</time></trkpt><trkpt lat="44.51341945806142" lon="7.930503138740214"><ele>333.6666666666667</ele><time>2026-05-02T13:38:36Z</time></trkpt><trkpt lat="44.51345605274475" lon="7.930736615735274"><ele>333.0</ele><time>2026-05-02T13:38:37Z</time></trkpt><trkpt lat="44.513484888918605" lon="7.93095409576151"><ele>332.0</ele><time>2026-05-02T13:38:38Z</time></trkpt><trkpt lat="44.51350486559093" lon="7.9311669435535865"><ele>331.0</ele><time>2026-05-02T13:38:39Z</time></trkpt><trkpt lat="44.51350992703122" lon="7.931410132129932"><ele>330.0</ele><time>2026-05-02T13:38:40Z</time></trkpt><trkpt lat="44.513496070402034" lon="7.931678585534093"><ele>330.6666666666667</ele><time>2026-05-02T13:38:41Z</time></trkpt><trkpt lat="44.51350316057011" lon="7.931948094269648"><ele>331.33333333333337</ele><time>2026-05-02T13:38:42Z</time></trkpt><trkpt lat="44.51348932514644" lon="7.932190700692301"><ele>332.0</ele><time>2026-05-02T13:38:43Z</time></trkpt><trkpt lat="44.51347672800266" lon="7.932411468832457"><ele>333.25</ele><time>2026-05-02T13:38:44Z</time></trkpt><trkpt lat="44.51347597316677" lon="7.932602514586327"><ele>334.5</ele><time>2026-05-02T13:38:45Z</time></trkpt><trkpt lat="44.51349862977832" lon="7.932797390360146"><ele>335.75</ele><time>2026-05-02T13:38:46Z</time></trkpt><trkpt lat="44.51354174625413" lon="7.93300297125992"><ele>337.0</ele><time>2026-05-02T13:38:47Z</time></trkpt><trkpt lat="44.51360594853245" lon="7.93319930662613"><ele>338.0</ele><time>2026-05-02T13:38:48Z</time></trkpt><trkpt lat="44.51368650533712" lon="7.933401297595421"><ele>339.0</ele><time>2026-05-02T13:38:49Z</time></trkpt><trkpt lat="44.51378989287291" lon="7.933629499521789"><ele>340.0</ele><time>2026-05-02T13:38:50Z</time></trkpt><trkpt lat="44.51391709605145" lon="7.933892922064023"><ele>340.0</ele><time>2026-05-02T13:38:51Z</time></trkpt><trkpt lat="44.514036356350765" lon="7.934164639475709"><ele>340.0</ele><time>2026-05-02T13:38:52Z</time></trkpt><trkpt lat="44.514141026926794" lon="7.934412629484546"><ele>340.0</ele><time>2026-05-02T13:38:53Z</time></trkpt><trkpt lat="44.51422534717387" lon="7.934630761259907"><ele>340.0</ele><time>2026-05-02T13:38:54Z</time></trkpt><trkpt lat="44.51430461440591" lon="7.9348513544717605"><ele>340.0</ele><time>2026-05-02T13:38:55Z</time></trkpt><trkpt lat="44.514377004833165" lon="7.935088247863747"><ele>340.0</ele><time>2026-05-02T13:38:56Z</time></trkpt><trkpt lat="44.51444971436216" lon="7.935346599547299"><ele>340.0</ele><time>2026-05-02T13:38:57Z</time></trkpt><trkpt lat="44.51451009621005" lon="7.935629884304617"><ele>340.0</ele><time>2026-05-02T13:38:58Z</time></trkpt><trkpt lat="44.51456323142685" lon="7.935953696778752"><ele>340.0</ele><time>2026-05-02T13:38:59Z</time></trkpt><trkpt lat="44.514608578283706" lon="7.9362993602606355"><ele>342.66666666666663</ele><time>2026-05-02T13:39:00Z</time></trkpt><trkpt lat="44.514644679294555" lon="7.936617864263693"><ele>345.3333333333333</ele><time>2026-05-02T13:39:01Z</time></trkpt><trkpt lat="44.51467836222789" lon="7.936904378927032"><ele>348.0</ele><time>2026-05-02T13:39:02Z</time></trkpt><trkpt lat="44.514710074049354" lon="7.9371723660151074"><ele>348.0</ele><time>2026-05-02T13:39:03Z</time></trkpt><trkpt lat="44.51473964526225" lon="7.937422560972101"><ele>348.0</ele><time>2026-05-02T13:39:04Z</time></trkpt><trkpt lat="44.514766270632826" lon="7.9376633883807015"><ele>348.0</ele><time>2026-05-02T13:39:05Z</time></trkpt><trkpt lat="44.514791731898654" lon="7.937887893674256"><ele>348.0</ele><time>2026-05-02T13:39:06Z</time></trkpt><trkpt lat="44.51482075206053" lon="7.938108177097084"><ele>348.0</ele><time>2026-05-02T13:39:07Z</time></trkpt><trkpt lat="44.51487737265052" lon="7.938342474997057"><ele>348.0</ele><time>2026-05-02T13:39:08Z</time></trkpt><trkpt lat="44.51496313444648" lon="7.938599088496802"><ele>348.0</ele><time>2026-05-02T13:39:09Z</time></trkpt><trkpt lat="44.51506664496149" lon="7.938865221665342"><ele>348.0</ele><time>2026-05-02T13:39:10Z</time></trkpt><trkpt lat="44.51517384249741" lon="7.939135549035461"><ele>348.0</ele><time>2026-05-02T13:39:11Z</time></trkpt><trkpt lat="44.51527752487775" lon="7.939399703667331"><ele>348.3333333333333</ele><time>2026-05-02T13:39:12Z</time></trkpt><trkpt lat="44.51537713897192" lon="7.939645192973329"><ele>348.66666666666663</ele><time>2026-05-02T13:39:13Z</time></trkpt><trkpt lat="44.51546870001286" lon="7.9398567479264965"><ele>349.0</ele><time>2026-05-02T13:39:14Z</time></trkpt><trkpt lat="44.51556166728376" lon="7.940054336800623"><ele>350.66666666666663</ele><time>2026-05-02T13:39:15Z</time></trkpt><trkpt lat="44.51567097812012" lon="7.940254347209932"><ele>352.3333333333333</ele><time>2026-05-02T13:39:16Z</time></trkpt><trkpt lat="44.51580826577958" lon="7.940464571878623"><ele>354.0</ele><time>2026-05-02T13:39:17Z</time></trkpt><trkpt lat="44.51597203944598" lon="7.940677309500641"><ele>355.0</ele><time>2026-05-02T13:39:18Z</time></trkpt><trkpt lat="44.5161564087785" lon="7.940889401248647"><ele>356.0</ele><time>2026-05-02T13:39:19Z</time></trkpt><trkpt lat="44.51636050172507" lon="7.941107996972115"><ele>358.5</ele><time>2026-05-02T13:39:20Z</time></trkpt><trkpt lat="44.51657285607398" lon="7.941337841870966"><ele>361.0</ele><time>2026-05-02T13:39:21Z</time></trkpt><trkpt lat="44.51678526628164" lon="7.941581317482721"><ele>364.0</ele><time>2026-05-02T13:39:22Z</time></trkpt><trkpt lat="44.51699615278263" lon="7.9418242019172665"><ele>367.0</ele><time>2026-05-02T13:39:23Z</time></trkpt><trkpt lat="44.51719373051775" lon="7.942054226054391"><ele>367.0</ele><time>2026-05-02T13:39:24Z</time></trkpt><trkpt lat="44.51736784864422" lon="7.942254163356152"><ele>367.0</ele><time>2026-05-02T13:39:25Z</time></trkpt><trkpt lat="44.517516048880125" lon="7.942426302514191"><ele>367.0</ele><time>2026-05-02T13:39:26Z</time></trkpt><trkpt lat="44.51765554130843" lon="7.942586151031758"><ele>367.66666666666663</ele><time>2026-05-02T13:39:27Z</time></trkpt><trkpt lat="44.51779359858185" lon="7.942744374506113"><ele>368.3333333333333</ele><time>2026-05-02T13:39:28Z</time></trkpt><trkpt lat="44.517919975814735" lon="7.942895154712786"><ele>369.0</ele><time>2026-05-02T13:39:29Z</time></trkpt><trkpt lat="44.518043092982126" lon="7.943042049936758"><ele>370.3333333333333</ele><time>2026-05-02T13:39:30Z</time></trkpt><trkpt lat="44.51815848687469" lon="7.94317460658705"><ele>371.66666666666663</ele><time>2026-05-02T13:39:31Z</time></trkpt><trkpt lat="44.51827636978754" lon="7.943302245314919"><ele>373.0</ele><time>2026-05-02T13:39:32Z</time></trkpt><trkpt lat="44.51840294409073" lon="7.94343635238294"><ele>373.66666666666663</ele><time>2026-05-02T13:39:33Z</time></trkpt><trkpt lat="44.51853385254045" lon="7.94358552223592"><ele>374.3333333333333</ele><time>2026-05-02T13:39:34Z</time></trkpt><trkpt lat="44.518664528300654" lon="7.943726436350019"><ele>375.0</ele><time>2026-05-02T13:39:35Z</time></trkpt><trkpt lat="44.51882567460082" lon="7.94386853952181"><ele>376.3333333333333</ele><time>2026-05-02T13:39:36Z</time></trkpt><trkpt lat="44.519013790982015" lon="7.944001361303776"><ele>377.66666666666663</ele><time>2026-05-02T13:39:37Z</time></trkpt><trkpt lat="44.519199578785724" lon="7.94416381271743"><ele>379.0</ele><time>2026-05-02T13:39:38Z</time></trkpt><trkpt lat="44.519388877766616" lon="7.944316221145378"><ele>380.3333333333333</ele><time>2026-05-02T13:39:39Z</time></trkpt><trkpt lat="44.519608648595536" lon="7.944345929150864"><ele>381.6666666666667</ele><time>2026-05-02T13:39:40Z</time></trkpt><trkpt lat="44.519765147875994" lon="7.9444401541400085"><ele>383.0</ele><time>2026-05-02T13:39:41Z</time></trkpt><trkpt lat="44.519901135882805" lon="7.944521299893894"><ele>383.0</ele><time>2026-05-02T13:39:42Z</time></trkpt><trkpt lat="44.520023273426546" lon="7.9445915188630085"><ele>383.0</ele><time>2026-05-02T13:39:43Z</time></trkpt><trkpt lat="44.520140972041666" lon="7.944649345835407"><ele>383.0</ele><time>2026-05-02T13:39:44Z</time></trkpt><trkpt lat="44.52024830104827" lon="7.94467914535091"><ele>383.0</ele><time>2026-05-02T13:39:45Z</time></trkpt><trkpt lat="44.52036387993343" lon="7.94467279620139"><ele>387.33333333333337</ele><time>2026-05-02T13:39:46Z</time></trkpt><trkpt lat="44.520499260742106" lon="7.944624753346232"><ele>391.6666666666667</ele><time>2026-05-02T13:39:47Z</time></trkpt><trkpt lat="44.52064252775272" lon="7.944551117838757"><ele>396.0</ele><time>2026-05-02T13:39:48Z</time></trkpt><trkpt lat="44.52080148239001" lon="7.9444494612074195"><ele>396.0</ele><time>2026-05-02T13:39:49Z</time></trkpt><trkpt lat="44.52094740242061" lon="7.94437484273665"><ele>396.0</ele><time>2026-05-02T13:39:50Z</time></trkpt><trkpt lat="44.52107842393903" lon="7.944307825921262"><ele>396.0</ele><time>2026-05-02T13:39:51Z</time></trkpt><trkpt lat="44.52118769981265" lon="7.944257234093854"><ele>396.0</ele><time>2026-05-02T13:39:52Z</time></trkpt><trkpt lat="44.52128801649438" lon="7.94422163819504"><ele>395.6666666666667</ele><time>2026-05-02T13:39:53Z</time></trkpt><trkpt lat="44.5213745844764" lon="7.944186734709727"><ele>395.33333333333337</ele><time>2026-05-02T13:39:54Z</time></trkpt><trkpt lat="44.52145730318412" lon="7.944169662500171"><ele>395.0</ele><time>2026-05-02T13:39:55Z</time></trkpt><trkpt lat="44.52153815048806" lon="7.944176220982637"><ele>394.6666666666667</ele><time>2026-05-02T13:39:56Z</time></trkpt><trkpt lat="44.521611964457506" lon="7.9441994240416385"><ele>394.33333333333337</ele><time>2026-05-02T13:39:57Z</time></trkpt><trkpt lat="44.52168734093118" lon="7.944257182955353"><ele>394.0</ele><time>2026-05-02T13:39:58Z</time></trkpt><trkpt lat="44.52175569602184" lon="7.944359620654397"><ele>394.0</ele><time>2026-05-02T13:39:59Z</time></trkpt><trkpt lat="44.521814486492815" lon="7.944507760962627"><ele>394.0</ele><time>2026-05-02T13:40:00Z</time></trkpt><trkpt lat="44.521872992564084" lon="7.9446849983556485"><ele>394.0</ele><time>2026-05-02T13:40:01Z</time></trkpt><trkpt lat="44.52194850175872" lon="7.944864528829574"><ele>394.0</ele><time>2026-05-02T13:40:02Z</time></trkpt><trkpt lat="44.52203184794789" lon="7.945055792258484"><ele>394.0</ele><time>2026-05-02T13:40:03Z</time></trkpt><trkpt lat="44.52211661240006" lon="7.945265426732412"><ele>394.0</ele><time>2026-05-02T13:40:04Z</time></trkpt><trkpt lat="44.52220387787379" lon="7.945488836039362"><ele>394.0</ele><time>2026-05-02T13:40:05Z</time></trkpt><trkpt lat="44.52229681341447" lon="7.945732050290904"><ele>397.33333333333337</ele><time>2026-05-02T13:40:06Z</time></trkpt><trkpt lat="44.52238605070917" lon="7.945984407391078"><ele>400.66666666666663</ele><time>2026-05-02T13:40:07Z</time></trkpt><trkpt lat="44.52246089854142" lon="7.946180501464364"><ele>404.0</ele><time>2026-05-02T13:40:08Z</time></trkpt><trkpt lat="44.522522956621096" lon="7.946337341514065"><ele>404.0</ele><time>2026-05-02T13:40:09Z</time></trkpt><trkpt lat="44.522572653303946" lon="7.946473693970038"><ele>404.0</ele><time>2026-05-02T13:40:10Z</time></trkpt><trkpt lat="44.522599528878" lon="7.946611381227655"><ele>404.0</ele><time>2026-05-02T13:40:11Z</time></trkpt><trkpt lat="44.52259995933807" lon="7.946746918496134"><ele>404.0</ele><time>2026-05-02T13:40:12Z</time></trkpt><trkpt lat="44.52256822551051" lon="7.946880684316076"><ele>404.0</ele><time>2026-05-02T13:40:13Z</time></trkpt><trkpt lat="44.522499635751316" lon="7.9470222774472665"><ele>402.0</ele><time>2026-05-02T13:40:14Z</time></trkpt><trkpt lat="44.522399609389446" lon="7.94718454943416"><ele>400.0</ele><time>2026-05-02T13:40:15Z</time></trkpt><trkpt lat="44.52225748112541" lon="7.9473698008998275"><ele>398.0</ele><time>2026-05-02T13:40:16Z</time></trkpt><trkpt lat="44.5221012657968" lon="7.947585675009571"><ele>401.66666666666663</ele><time>2026-05-02T13:40:17Z</time></trkpt><trkpt lat="44.5219683990638" lon="7.947779515790544"><ele>405.33333333333337</ele><time>2026-05-02T13:40:18Z</time></trkpt><trkpt lat="44.52184792403181" lon="7.94794043287947"><ele>409.0</ele><time>2026-05-02T13:40:19Z</time></trkpt><trkpt lat="44.5217481711751" lon="7.948082183096086"><ele>409.0</ele><time>2026-05-02T13:40:20Z</time></trkpt><trkpt lat="44.521664573924006" lon="7.94822112692527"><ele>409.0</ele><time>2026-05-02T13:40:21Z</time></trkpt><trkpt lat="44.52159779506316" lon="7.948371957046357"><ele>409.0</ele><time>2026-05-02T13:40:22Z</time></trkpt><trkpt lat="44.52154779009987" lon="7.948560343923183"><ele>409.0</ele><time>2026-05-02T13:40:23Z</time></trkpt><trkpt lat="44.521508264331395" lon="7.948796824587632"><ele>410.0</ele><time>2026-05-02T13:40:24Z</time></trkpt><trkpt lat="44.521479822079435" lon="7.949088669784885"><ele>411.0</ele><time>2026-05-02T13:40:25Z</time></trkpt><trkpt lat="44.521442390195155" lon="7.949398319753278"><ele>412.0</ele><time>2026-05-02T13:40:26Z</time></trkpt><trkpt lat="44.521399375389194" lon="7.949698908400138"><ele>412.6666666666667</ele><time>2026-05-02T13:40:27Z</time></trkpt><trkpt lat="44.52135748799609" lon="7.949952467655853"><ele>413.33333333333337</ele><time>2026-05-02T13:40:28Z</time></trkpt><trkpt lat="44.52132282151135" lon="7.95017004054031"><ele>414.0</ele><time>2026-05-02T13:40:29Z</time></trkpt><trkpt lat="44.52130372136283" lon="7.9503704923618015"><ele>415.0</ele><time>2026-05-02T13:40:30Z</time></trkpt><trkpt lat="44.521310380639655" lon="7.95058535592493"><ele>416.0</ele><time>2026-05-02T13:40:31Z</time></trkpt><trkpt lat="44.52133369234241" lon="7.950776871219624"><ele>417.0</ele><time>2026-05-02T13:40:32Z</time></trkpt><trkpt lat="44.52134950979534" lon="7.9509363423696415"><ele>418.0</ele><time>2026-05-02T13:40:33Z</time></trkpt><trkpt lat="44.52133975437299" lon="7.951039414447825"><ele>418.5</ele><time>2026-05-02T13:40:34Z</time></trkpt><trkpt lat="44.52130864958942" lon="7.951170092216171"><ele>419.0</ele><time>2026-05-02T13:40:35Z</time></trkpt><trkpt lat="44.52122482857046" lon="7.951282684768616"><ele>419.5</ele><time>2026-05-02T13:40:36Z</time></trkpt><trkpt lat="44.521120103756076" lon="7.951368131232283"><ele>420.0</ele><time>2026-05-02T13:40:37Z</time></trkpt><trkpt lat="44.520976413864894" lon="7.9514730105630855"><ele>422.0</ele><time>2026-05-02T13:40:38Z</time></trkpt><trkpt lat="44.5207986875122" lon="7.9515542329656235"><ele>424.0</ele><time>2026-05-02T13:40:39Z</time></trkpt><trkpt lat="44.52061274710652" lon="7.951696395771265"><ele>426.0</ele><time>2026-05-02T13:40:40Z</time></trkpt><trkpt lat="44.52040864759637" lon="7.951854371167408"><ele>430.25</ele><time>2026-05-02T13:40:41Z</time></trkpt><trkpt lat="44.520259575575146" lon="7.951972218178756"><ele>434.5</ele><time>2026-05-02T13:40:42Z</time></trkpt><trkpt lat="44.520137434814075" lon="7.952068774833015"><ele>438.75</ele><time>2026-05-02T13:40:43Z</time></trkpt><trkpt lat="44.52003663673606" lon="7.952161663898345"><ele>443.0</ele><time>2026-05-02T13:40:44Z</time></trkpt><trkpt lat="44.51993493090918" lon="7.952278595637411"><ele>443.0</ele><time>2026-05-02T13:40:45Z</time></trkpt><trkpt lat="44.519822514088844" lon="7.952438250012007"><ele>443.0</ele><time>2026-05-02T13:40:46Z</time></trkpt><trkpt lat="44.519711535133915" lon="7.952635360476582"><ele>443.0</ele><time>2026-05-02T13:40:47Z</time></trkpt><trkpt lat="44.51961367156611" lon="7.952831488998943"><ele>446.0</ele><time>2026-05-02T13:40:48Z</time></trkpt><trkpt lat="44.51949594662133" lon="7.9530284339759465"><ele>449.0</ele><time>2026-05-02T13:40:49Z</time></trkpt><trkpt lat="44.51937957695903" lon="7.953230941317772"><ele>452.0</ele><time>2026-05-02T13:40:50Z</time></trkpt><trkpt lat="44.519282957443465" lon="7.953411150488538"><ele>452.0</ele><time>2026-05-02T13:40:51Z</time></trkpt><trkpt lat="44.519202172043805" lon="7.9535584028158866"><ele>452.0</ele><time>2026-05-02T13:40:52Z</time></trkpt><trkpt lat="44.5191322735067" lon="7.953730408473854"><ele>452.0</ele><time>2026-05-02T13:40:53Z</time></trkpt><trkpt lat="44.51907850141851" lon="7.953949422331335"><ele>452.0</ele><time>2026-05-02T13:40:54Z</time></trkpt><trkpt lat="44.519034739992705" lon="7.954208710387175"><ele>452.5</ele><time>2026-05-02T13:40:55Z</time></trkpt><trkpt lat="44.518979782022285" lon="7.954500396128448"><ele>453.0</ele><time>2026-05-02T13:40:56Z</time></trkpt><trkpt lat="44.518917151540066" lon="7.954825156951928"><ele>452.66666666666663</ele><time>2026-05-02T13:40:57Z</time></trkpt><trkpt lat="44.51885922032325" lon="7.9551387705617564"><ele>452.3333333333333</ele><time>2026-05-02T13:40:58Z</time></trkpt><trkpt lat="44.51880778558848" lon="7.955418665429134"><ele>452.0</ele><time>2026-05-02T13:40:59Z</time></trkpt><trkpt lat="44.51877829812397" lon="7.955656674788153"><ele>453.25</ele><time>2026-05-02T13:41:00Z</time></trkpt><trkpt lat="44.518738457906586" lon="7.955873899035833"><ele>454.5</ele><time>2026-05-02T13:41:01Z</time></trkpt><trkpt lat="44.51870176394663" lon="7.956069033057615"><ele>455.75</ele><time>2026-05-02T13:41:02Z</time></trkpt><trkpt lat="44.51867069774654" lon="7.95623389015496"><ele>457.0</ele><time>2026-05-02T13:41:03Z</time></trkpt><trkpt lat="44.518644515672584" lon="7.9563771990284975"><ele>459.40000000000003</ele><time>2026-05-02T13:41:04Z</time></trkpt><trkpt lat="44.51860163409766" lon="7.9564836525437475"><ele>461.80000000000007</ele><time>2026-05-02T13:41:05Z</time></trkpt><trkpt lat="44.51854802884192" lon="7.9565798802735985"><ele>464.2</ele><time>2026-05-02T13:41:06Z</time></trkpt><trkpt lat="44.518461640325484" lon="7.9566307729120584"><ele>466.6</ele><time>2026-05-02T13:41:07Z</time></trkpt><trkpt lat="44.51835169562498" lon="7.956660494394801"><ele>469.0</ele><time>2026-05-02T13:41:08Z</time></trkpt><trkpt lat="44.51825668966943" lon="7.956733313367203"><ele>471.0</ele><time>2026-05-02T13:41:09Z</time></trkpt><trkpt lat="44.51819342250132" lon="7.956846683124282"><ele>473.0</ele><time>2026-05-02T13:41:10Z</time></trkpt><trkpt lat="44.51816005741105" lon="7.956987343297561"><ele>475.0</ele><time>2026-05-02T13:41:11Z</time></trkpt><trkpt lat="44.51812568187192" lon="7.957156395373716"><ele>477.0</ele><time>2026-05-02T13:41:12Z</time></trkpt><trkpt lat="44.518097269387205" lon="7.95738276512644"><ele>479.66666666666663</ele><time>2026-05-02T13:41:13Z</time></trkpt><trkpt lat="44.51806324050138" lon="7.957671671681597"><ele>482.3333333333333</ele><time>2026-05-02T13:41:14Z</time></trkpt><trkpt lat="44.5180092441965" lon="7.957978974341261"><ele>485.0</ele><time>2026-05-02T13:41:15Z</time></trkpt><trkpt lat="44.51791816987495" lon="7.958296046266095"><ele>483.3333333333333</ele><time>2026-05-02T13:41:16Z</time></trkpt><trkpt lat="44.51785066294139" lon="7.95860383107672"><ele>481.66666666666663</ele><time>2026-05-02T13:41:17Z</time></trkpt><trkpt lat="44.517813006559805" lon="7.958885335159819"><ele>480.0</ele><time>2026-05-02T13:41:18Z</time></trkpt><trkpt lat="44.517758093130034" lon="7.959160401142795"><ele>483.33333333333337</ele><time>2026-05-02T13:41:19Z</time></trkpt><trkpt lat="44.517676257214575" lon="7.959410338765964"><ele>486.6666666666667</ele><time>2026-05-02T13:41:20Z</time></trkpt><trkpt lat="44.51758116609041" lon="7.959651245589199"><ele>490.0</ele><time>2026-05-02T13:41:21Z</time></trkpt><trkpt lat="44.51750016762702" lon="7.959877011393292"><ele>493.6666666666667</ele><time>2026-05-02T13:41:22Z</time></trkpt><trkpt lat="44.51745719554718" lon="7.9601214634226585"><ele>497.33333333333337</ele><time>2026-05-02T13:41:23Z</time></trkpt><trkpt lat="44.51740725378059" lon="7.9603773170066265"><ele>501.0</ele><time>2026-05-02T13:41:24Z</time></trkpt><trkpt lat="44.51736362994451" lon="7.960602147219523"><ele>501.0</ele><time>2026-05-02T13:41:25Z</time></trkpt><trkpt lat="44.51729114813203" lon="7.960754605713801"><ele>501.0</ele><time>2026-05-02T13:41:26Z</time></trkpt><trkpt lat="44.51721651266749" lon="7.960873452026351"><ele>501.0</ele><time>2026-05-02T13:41:27Z</time></trkpt><trkpt lat="44.5171209607442" lon="7.960993505270157"><ele>501.0</ele><time>2026-05-02T13:41:28Z</time></trkpt><trkpt lat="44.51700812186989" lon="7.961099704782947"><ele>503.0</ele><time>2026-05-02T13:41:29Z</time></trkpt><trkpt lat="44.516878658398134" lon="7.961148669284377"><ele>505.0</ele><time>2026-05-02T13:41:30Z</time></trkpt><trkpt lat="44.5167205747269" lon="7.961200729704711"><ele>507.0</ele><time>2026-05-02T13:41:31Z</time></trkpt><trkpt lat="44.516548311873116" lon="7.961239790445356"><ele>507.0</ele><time>2026-05-02T13:41:32Z</time></trkpt><trkpt lat="44.5163844348118" lon="7.9612755363889285"><ele>507.0</ele><time>2026-05-02T13:41:33Z</time></trkpt><trkpt lat="44.51624810858374" lon="7.961258452569094"><ele>507.0</ele><time>2026-05-02T13:41:34Z</time></trkpt><trkpt lat="44.51612969494246" lon="7.9612328398489485"><ele>507.0</ele><time>2026-05-02T13:41:35Z</time></trkpt><trkpt lat="44.51602841525212" lon="7.961246550286093"><ele>508.75</ele><time>2026-05-02T13:41:36Z</time></trkpt><trkpt lat="44.51592346072966" lon="7.961310138870537"><ele>510.5</ele><time>2026-05-02T13:41:37Z</time></trkpt><trkpt lat="44.51580308232442" lon="7.961418436944011"><ele>512.25</ele><time>2026-05-02T13:41:38Z</time></trkpt><trkpt lat="44.51568437621869" lon="7.961552882943888"><ele>514.0</ele><time>2026-05-02T13:41:39Z</time></trkpt><trkpt lat="44.515565687863145" lon="7.96160684542344"><ele>514.0</ele><time>2026-05-02T13:41:40Z</time></trkpt><trkpt lat="44.51544486401661" lon="7.961650435066366"><ele>514.0</ele><time>2026-05-02T13:41:41Z</time></trkpt><trkpt lat="44.51532253563442" lon="7.961657430218639"><ele>514.0</ele><time>2026-05-02T13:41:42Z</time></trkpt><trkpt lat="44.51520188499984" lon="7.9616232346569245"><ele>514.0</ele><time>2026-05-02T13:41:43Z</time></trkpt><trkpt lat="44.515082204440056" lon="7.961563233177901"><ele>516.3333333333334</ele><time>2026-05-02T13:41:44Z</time></trkpt><trkpt lat="44.5149803049156" lon="7.961448667689931"><ele>518.6666666666666</ele><time>2026-05-02T13:41:45Z</time></trkpt><trkpt lat="44.514856931540194" lon="7.961296504970321"><ele>521.0</ele><time>2026-05-02T13:41:46Z</time></trkpt><trkpt lat="44.514738338059175" lon="7.961133509704269"><ele>521.0</ele><time>2026-05-02T13:41:47Z</time></trkpt><trkpt lat="44.514628754904386" lon="7.961000602123477"><ele>521.0</ele><time>2026-05-02T13:41:48Z</time></trkpt><trkpt lat="44.514532343462115" lon="7.960857900425903"><ele>521.0</ele><time>2026-05-02T13:41:49Z</time></trkpt><trkpt lat="44.51444872276523" lon="7.960686839025662"><ele>521.0</ele><time>2026-05-02T13:41:50Z</time></trkpt><trkpt lat="44.514339126777614" lon="7.960502095206173"><ele>523.25</ele><time>2026-05-02T13:41:51Z</time></trkpt><trkpt lat="44.514229888054054" lon="7.960362139250799"><ele>525.5</ele><time>2026-05-02T13:41:52Z</time></trkpt><trkpt lat="44.51414927636403" lon="7.960246233589314"><ele>527.75</ele><time>2026-05-02T13:41:53Z</time></trkpt><trkpt lat="44.51407580186079" lon="7.960158143596732"><ele>530.0</ele><time>2026-05-02T13:41:54Z</time></trkpt><trkpt lat="44.51399460755166" lon="7.960091849814043"><ele>530.0</ele><time>2026-05-02T13:41:55Z</time></trkpt><trkpt lat="44.51389965460284" lon="7.960052853126683"><ele>530.0</ele><time>2026-05-02T13:41:56Z</time></trkpt><trkpt lat="44.513792601857205" lon="7.960045557209898"><ele>530.0</ele><time>2026-05-02T13:41:57Z</time></trkpt><trkpt lat="44.513664925621036" lon="7.960069264945239"><ele>530.0</ele><time>2026-05-02T13:41:58Z</time></trkpt><trkpt lat="44.5135158796739" lon="7.960119202299452"><ele>532.6666666666666</ele><time>2026-05-02T13:41:59Z</time></trkpt><trkpt lat="44.51333960436765" lon="7.960170351114339"><ele>535.3333333333334</ele><time>2026-05-02T13:42:00Z</time></trkpt><trkpt lat="44.51313274246599" lon="7.960243091403424"><ele>538.0</ele><time>2026-05-02T13:42:01Z</time></trkpt><trkpt lat="44.5129123460186" lon="7.960320590548676"><ele>536.5</ele><time>2026-05-02T13:42:02Z</time></trkpt><trkpt lat="44.51268661373918" lon="7.960396645053243"><ele>535.0</ele><time>2026-05-02T13:42:03Z</time></trkpt><trkpt lat="44.51246126557975" lon="7.960472899895077"><ele>535.0</ele><time>2026-05-02T13:42:04Z</time></trkpt><trkpt lat="44.51222881631792" lon="7.960551557738179"><ele>535.0</ele><time>2026-05-02T13:42:05Z</time></trkpt><trkpt lat="44.51199239479399" lon="7.960632870740399"><ele>534.6666666666667</ele><time>2026-05-02T13:42:06Z</time></trkpt><trkpt lat="44.5117736369906" lon="7.960709774384877"><ele>534.3333333333334</ele><time>2026-05-02T13:42:07Z</time></trkpt><trkpt lat="44.51156940332066" lon="7.960784113112012"><ele>534.0</ele><time>2026-05-02T13:42:08Z</time></trkpt><trkpt lat="44.51137777602559" lon="7.960863907741595"><ele>532.3333333333334</ele><time>2026-05-02T13:42:09Z</time></trkpt><trkpt lat="44.51118618184423" lon="7.960929378916799"><ele>530.6666666666667</ele><time>2026-05-02T13:42:10Z</time></trkpt><trkpt lat="44.51098940867954" lon="7.960997496482205"><ele>529.0</ele><time>2026-05-02T13:42:11Z</time></trkpt><trkpt lat="44.51079314698688" lon="7.961036095367416"><ele>529.0</ele><time>2026-05-02T13:42:12Z</time></trkpt><trkpt lat="44.510599293087786" lon="7.961091854855119"><ele>529.0</ele><time>2026-05-02T13:42:13Z</time></trkpt><trkpt lat="44.510398582318075" lon="7.961145206592731"><ele>529.0</ele><time>2026-05-02T13:42:14Z</time></trkpt><trkpt lat="44.51019195190493" lon="7.96118638191746"><ele>533.3333333333334</ele><time>2026-05-02T13:42:15Z</time></trkpt><trkpt lat="44.50999817530527" lon="7.9612197512528144"><ele>537.6666666666666</ele><time>2026-05-02T13:42:16Z</time></trkpt><trkpt lat="44.50981789299432" lon="7.961249521857603"><ele>542.0</ele><time>2026-05-02T13:42:17Z</time></trkpt><trkpt lat="44.50964247060961" lon="7.961276381683339"><ele>541.6666666666666</ele><time>2026-05-02T13:42:18Z</time></trkpt><trkpt lat="44.50947943865793" lon="7.961301163360521"><ele>541.3333333333334</ele><time>2026-05-02T13:42:19Z</time></trkpt><trkpt lat="44.5093210824507" lon="7.961325234301923"><ele>541.0</ele><time>2026-05-02T13:42:20Z</time></trkpt><trkpt lat="44.50915543558791" lon="7.9613502848773265"><ele>541.0</ele><time>2026-05-02T13:42:21Z</time></trkpt><trkpt lat="44.50895342420142" lon="7.961380741660915"><ele>541.0</ele><time>2026-05-02T13:42:22Z</time></trkpt><trkpt lat="44.508714319159466" lon="7.961418040402955"><ele>541.0</ele><time>2026-05-02T13:42:23Z</time></trkpt><trkpt lat="44.508443603550745" lon="7.96146684894234"><ele>539.5</ele><time>2026-05-02T13:42:24Z</time></trkpt><trkpt lat="44.50816265673908" lon="7.9615306239963015"><ele>538.0</ele><time>2026-05-02T13:42:25Z</time></trkpt><trkpt lat="44.50789391203628" lon="7.961597316840267"><ele>535.5</ele><time>2026-05-02T13:42:26Z</time></trkpt><trkpt lat="44.50764102235744" lon="7.961660575035477"><ele>533.0</ele><time>2026-05-02T13:42:27Z</time></trkpt><trkpt lat="44.50741090092196" lon="7.961718141467206"><ele>529.0</ele><time>2026-05-02T13:42:28Z</time></trkpt><trkpt lat="44.50717902571102" lon="7.9617761469767965"><ele>525.0</ele><time>2026-05-02T13:42:29Z</time></trkpt><trkpt lat="44.50696372156658" lon="7.9618308399500215"><ele>525.0</ele><time>2026-05-02T13:42:30Z</time></trkpt><trkpt lat="44.506767937595235" lon="7.961901306661487"><ele>525.0</ele><time>2026-05-02T13:42:31Z</time></trkpt><trkpt lat="44.50657782871002" lon="7.961948118061208"><ele>525.0</ele><time>2026-05-02T13:42:32Z</time></trkpt><trkpt lat="44.5063947471805" lon="7.961995410734753"><ele>527.6666666666666</ele><time>2026-05-02T13:42:33Z</time></trkpt><trkpt lat="44.50621876079299" lon="7.962019306457468"><ele>530.3333333333333</ele><time>2026-05-02T13:42:34Z</time></trkpt><trkpt lat="44.50604246708212" lon="7.962063039845086"><ele>533.0</ele><time>2026-05-02T13:42:35Z</time></trkpt><trkpt lat="44.5058763230219" lon="7.96212629778439"><ele>533.0</ele><time>2026-05-02T13:42:36Z</time></trkpt><trkpt lat="44.505710101079515" lon="7.962145501026048"><ele>533.0</ele><time>2026-05-02T13:42:37Z</time></trkpt><trkpt lat="44.50555382479918" lon="7.962186940381665"><ele>533.0</ele><time>2026-05-02T13:42:38Z</time></trkpt><trkpt lat="44.50540782028905" lon="7.962217668831222"><ele>534.0</ele><time>2026-05-02T13:42:39Z</time></trkpt><trkpt lat="44.505260267617196" lon="7.962225366342516"><ele>535.0</ele><time>2026-05-02T13:42:40Z</time></trkpt><trkpt lat="44.50509439814135" lon="7.962233784050089"><ele>536.0</ele><time>2026-05-02T13:42:41Z</time></trkpt><trkpt lat="44.50492020891684" lon="7.962197390446453"><ele>536.0</ele><time>2026-05-02T13:42:42Z</time></trkpt><trkpt lat="44.50477070976919" lon="7.962160532750566"><ele>536.0</ele><time>2026-05-02T13:42:43Z</time></trkpt><trkpt lat="44.504615256410915" lon="7.962138580449408"><ele>536.0</ele><time>2026-05-02T13:42:44Z</time></trkpt><trkpt lat="44.50443255068429" lon="7.962151782076177"><ele>535.3333333333333</ele><time>2026-05-02T13:42:45Z</time></trkpt><trkpt lat="44.504229338414184" lon="7.962189061899638"><ele>534.6666666666666</ele><time>2026-05-02T13:42:46Z</time></trkpt><trkpt lat="44.50403494206656" lon="7.962203216344214"><ele>534.0</ele><time>2026-05-02T13:42:47Z</time></trkpt><trkpt lat="44.503861105762155" lon="7.962225845123951"><ele>537.3333333333334</ele><time>2026-05-02T13:42:48Z</time></trkpt><trkpt lat="44.50368708149804" lon="7.9622509097538074"><ele>540.6666666666667</ele><time>2026-05-02T13:42:49Z</time></trkpt><trkpt lat="44.5035165823373" lon="7.962337585686187"><ele>544.0</ele><time>2026-05-02T13:42:50Z</time></trkpt><trkpt lat="44.50335445518686" lon="7.962382848340394"><ele>544.0</ele><time>2026-05-02T13:42:51Z</time></trkpt><trkpt lat="44.503194008660294" lon="7.962436529896519"><ele>544.0</ele><time>2026-05-02T13:42:52Z</time></trkpt><trkpt lat="44.50302178873052" lon="7.962516794024064"><ele>544.0</ele><time>2026-05-02T13:42:53Z</time></trkpt><trkpt lat="44.502826683138196" lon="7.962628211235216"><ele>543.5</ele><time>2026-05-02T13:42:54Z</time></trkpt><trkpt lat="44.50260330550803" lon="7.962776506617189"><ele>543.0</ele><time>2026-05-02T13:42:55Z</time></trkpt><trkpt lat="44.50238016552097" lon="7.962926832169672"><ele>543.0</ele><time>2026-05-02T13:42:56Z</time></trkpt><trkpt lat="44.50218147237841" lon="7.96305697349036"><ele>543.0</ele><time>2026-05-02T13:42:57Z</time></trkpt><trkpt lat="44.50201010181703" lon="7.963165644613682"><ele>543.0</ele><time>2026-05-02T13:42:58Z</time></trkpt><trkpt lat="44.50185583370218" lon="7.96325649582552"><ele>547.6666666666666</ele><time>2026-05-02T13:42:59Z</time></trkpt><trkpt lat="44.50169485709825" lon="7.96332931040621"><ele>552.3333333333333</ele><time>2026-05-02T13:43:00Z</time></trkpt><trkpt lat="44.5015196569672" lon="7.963396016864911"><ele>557.0</ele><time>2026-05-02T13:43:01Z</time></trkpt><trkpt lat="44.501325797844956" lon="7.963453036544812"><ele>565.0</ele><time>2026-05-02T13:43:02Z</time></trkpt><trkpt lat="44.50110882875893" lon="7.96351945764686"><ele>573.0</ele><time>2026-05-02T13:43:03Z</time></trkpt><trkpt lat="44.500875415518976" lon="7.963586008865646"><ele>573.0</ele><time>2026-05-02T13:43:04Z</time></trkpt><trkpt lat="44.500666805865706" lon="7.963646216489836"><ele>573.0</ele><time>2026-05-02T13:43:05Z</time></trkpt><trkpt lat="44.500496586769984" lon="7.963685624376591"><ele>573.0</ele><time>2026-05-02T13:43:06Z</time></trkpt><trkpt lat="44.50034935305509" lon="7.963700856098616"><ele>574.25</ele><time>2026-05-02T13:43:07Z</time></trkpt><trkpt lat="44.500214259119176" lon="7.963689737864378"><ele>575.5</ele><time>2026-05-02T13:43:08Z</time></trkpt><trkpt lat="44.50008370609719" lon="7.9636717379814215"><ele>576.75</ele><time>2026-05-02T13:43:09Z</time></trkpt><trkpt lat="44.49996199165069" lon="7.9636191790172175"><ele>578.0</ele><time>2026-05-02T13:43:10Z</time></trkpt><trkpt lat="44.499808611537176" lon="7.96352753359372"><ele>578.0</ele><time>2026-05-02T13:43:11Z</time></trkpt><trkpt lat="44.499636014332026" lon="7.963404195173956"><ele>578.0</ele><time>2026-05-02T13:43:12Z</time></trkpt><trkpt lat="44.499496327030656" lon="7.963304260914425"><ele>578.0</ele><time>2026-05-02T13:43:13Z</time></trkpt><trkpt lat="44.49940116074182" lon="7.963237378189562"><ele>577.8</ele><time>2026-05-02T13:43:14Z</time></trkpt><trkpt lat="44.499336480166235" lon="7.96319587421082"><ele>577.5999999999999</ele><time>2026-05-02T13:43:15Z</time></trkpt><trkpt lat="44.49924383391572" lon="7.963225134708398"><ele>577.4000000000001</ele><time>2026-05-02T13:43:17Z</time></trkpt><trkpt lat="44.49920190170468" lon="7.963393817718794"><ele>577.2</ele><time>2026-05-02T13:43:19Z</time></trkpt><trkpt lat="44.49922106728994" lon="7.963529383386191"><ele>577.0</ele><time>2026-05-02T13:43:20Z</time></trkpt><trkpt lat="44.49928822675779" lon="7.963703237015739"><ele>577.0</ele><time>2026-05-02T13:43:21Z</time></trkpt><trkpt lat="44.49931836277219" lon="7.963887365843724"><ele>577.0</ele><time>2026-05-02T13:43:22Z</time></trkpt><trkpt lat="44.49933380671213" lon="7.9640582695470945"><ele>577.0</ele><time>2026-05-02T13:43:23Z</time></trkpt><trkpt lat="44.49934911358731" lon="7.964263246479173"><ele>577.0</ele><time>2026-05-02T13:43:24Z</time></trkpt><trkpt lat="44.49937922338769" lon="7.964488220817067"><ele>577.6666666666667</ele><time>2026-05-02T13:43:25Z</time></trkpt><trkpt lat="44.49944212566878" lon="7.964748566850077"><ele>578.3333333333334</ele><time>2026-05-02T13:43:26Z</time></trkpt><trkpt lat="44.49949709920658" lon="7.964979896576909"><ele>579.0</ele><time>2026-05-02T13:43:27Z</time></trkpt><trkpt lat="44.49953487817015" lon="7.9651675457271"><ele>579.0</ele><time>2026-05-02T13:43:28Z</time></trkpt><trkpt lat="44.49956729369971" lon="7.965316066422652"><ele>579.0</ele><time>2026-05-02T13:43:29Z</time></trkpt><trkpt lat="44.499575458037995" lon="7.965443410627719"><ele>579.0</ele><time>2026-05-02T13:43:30Z</time></trkpt><trkpt lat="44.49954571242201" lon="7.965569002133097"><ele>579.0</ele><time>2026-05-02T13:43:31Z</time></trkpt><trkpt lat="44.499515940777044" lon="7.965750029188623"><ele>579.0</ele><time>2026-05-02T13:43:32Z</time></trkpt><trkpt lat="44.49940158227045" lon="7.965910228162489"><ele>583.3333333333334</ele><time>2026-05-02T13:43:33Z</time></trkpt><trkpt lat="44.49924920005419" lon="7.966099417284308"><ele>587.6666666666667</ele><time>2026-05-02T13:43:34Z</time></trkpt><trkpt lat="44.49907604350355" lon="7.966336271380601"><ele>592.0</ele><time>2026-05-02T13:43:35Z</time></trkpt><trkpt lat="44.4989002452126" lon="7.966575993697158"><ele>592.0</ele><time>2026-05-02T13:43:36Z</time></trkpt><trkpt lat="44.49870623327724" lon="7.966806661767553"><ele>592.0</ele><time>2026-05-02T13:43:37Z</time></trkpt><trkpt lat="44.498491662097905" lon="7.967019401229725"><ele>592.0</ele><time>2026-05-02T13:43:38Z</time></trkpt><trkpt lat="44.49827037777159" lon="7.967240814891915"><ele>592.0</ele><time>2026-05-02T13:43:39Z</time></trkpt><trkpt lat="44.49804562853621" lon="7.967496303268979"><ele>592.0</ele><time>2026-05-02T13:43:40Z</time></trkpt><trkpt lat="44.4978164056165" lon="7.967772930499185"><ele>592.0</ele><time>2026-05-02T13:43:41Z</time></trkpt><trkpt lat="44.4976077305135" lon="7.968021441101383"><ele>592.0</ele><time>2026-05-02T13:43:42Z</time></trkpt><trkpt lat="44.497419263462845" lon="7.96823136061058"><ele>592.0</ele><time>2026-05-02T13:43:43Z</time></trkpt><trkpt lat="44.49724844262754" lon="7.968419431418453"><ele>591.6666666666667</ele><time>2026-05-02T13:43:44Z</time></trkpt><trkpt lat="44.49707178712926" lon="7.968603817888783"><ele>591.3333333333334</ele><time>2026-05-02T13:43:45Z</time></trkpt><trkpt lat="44.49687820333336" lon="7.9687687758207"><ele>591.0</ele><time>2026-05-02T13:43:46Z</time></trkpt><trkpt lat="44.496692395661334" lon="7.968918982233939"><ele>591.0</ele><time>2026-05-02T13:43:47Z</time></trkpt><trkpt lat="44.49651257177207" lon="7.9690628002967365"><ele>591.0</ele><time>2026-05-02T13:43:48Z</time></trkpt><trkpt lat="44.496323242822285" lon="7.96921920469165"><ele>591.0</ele><time>2026-05-02T13:43:49Z</time></trkpt><trkpt lat="44.496139252225625" lon="7.969386909706515"><ele>592.0</ele><time>2026-05-02T13:43:50Z</time></trkpt><trkpt lat="44.49594970625827" lon="7.969552186606684"><ele>593.0</ele><time>2026-05-02T13:43:51Z</time></trkpt><trkpt lat="44.4957558476896" lon="7.969711604092241"><ele>594.0</ele><time>2026-05-02T13:43:52Z</time></trkpt><trkpt lat="44.495583018470775" lon="7.969853304447331"><ele>594.0</ele><time>2026-05-02T13:43:53Z</time></trkpt><trkpt lat="44.49543759724198" lon="7.969970120603737"><ele>594.0</ele><time>2026-05-02T13:43:54Z</time></trkpt><trkpt lat="44.49531805555883" lon="7.970074200607622"><ele>594.0</ele><time>2026-05-02T13:43:55Z</time></trkpt><trkpt lat="44.49521939098301" lon="7.970208917172039"><ele>594.0</ele><time>2026-05-02T13:43:56Z</time></trkpt><trkpt lat="44.4951099063268" lon="7.970404458815439"><ele>596.6666666666666</ele><time>2026-05-02T13:43:57Z</time></trkpt><trkpt lat="44.49499023093716" lon="7.970629758838418"><ele>599.3333333333333</ele><time>2026-05-02T13:43:58Z</time></trkpt><trkpt lat="44.494849215729296" lon="7.970858248249951"><ele>602.0</ele><time>2026-05-02T13:43:59Z</time></trkpt><trkpt lat="44.49469496215774" lon="7.971082425138046"><ele>604.3333333333333</ele><time>2026-05-02T13:44:00Z</time></trkpt><trkpt lat="44.49455026193636" lon="7.971294456148104"><ele>606.6666666666666</ele><time>2026-05-02T13:44:01Z</time></trkpt><trkpt lat="44.494419219775395" lon="7.971459277578772"><ele>609.0</ele><time>2026-05-02T13:44:02Z</time></trkpt><trkpt lat="44.4942760337622" lon="7.97161443430783"><ele>611.6666666666666</ele><time>2026-05-02T13:44:03Z</time></trkpt><trkpt lat="44.49409759154408" lon="7.971756293358255"><ele>614.3333333333333</ele><time>2026-05-02T13:44:04Z</time></trkpt><trkpt lat="44.493899306690786" lon="7.971895200192507"><ele>617.0</ele><time>2026-05-02T13:44:05Z</time></trkpt><trkpt lat="44.493688940326884" lon="7.9720437669698265"><ele>617.0</ele><time>2026-05-02T13:44:06Z</time></trkpt><trkpt lat="44.493533827835655" lon="7.972196924449314"><ele>617.0</ele><time>2026-05-02T13:44:07Z</time></trkpt><trkpt lat="44.493406997813416" lon="7.972331670410521"><ele>617.0</ele><time>2026-05-02T13:44:08Z</time></trkpt><trkpt lat="44.49331000740775" lon="7.9724283685205055"><ele>617.0</ele><time>2026-05-02T13:44:09Z</time></trkpt><trkpt lat="44.49322148538147" lon="7.972483010516022"><ele>617.0</ele><time>2026-05-02T13:44:10Z</time></trkpt><trkpt lat="44.493127009149624" lon="7.9724939130369865"><ele>617.0</ele><time>2026-05-02T13:44:11Z</time></trkpt><trkpt lat="44.49301952410339" lon="7.972458568202887"><ele>617.0</ele><time>2026-05-02T13:44:12Z</time></trkpt><trkpt lat="44.49289246763421" lon="7.972390680662581"><ele>617.0</ele><time>2026-05-02T13:44:13Z</time></trkpt><trkpt lat="44.49274383195137" lon="7.972343665170296"><ele>617.25</ele><time>2026-05-02T13:44:14Z</time></trkpt><trkpt lat="44.49261411616199" lon="7.972319766716265"><ele>617.5</ele><time>2026-05-02T13:44:15Z</time></trkpt><trkpt lat="44.49250190400244" lon="7.972313089202462"><ele>617.75</ele><time>2026-05-02T13:44:16Z</time></trkpt><trkpt lat="44.492374211868636" lon="7.9723390705862975"><ele>618.0</ele><time>2026-05-02T13:44:17Z</time></trkpt><trkpt lat="44.4922553846516" lon="7.972394017862039"><ele>618.0</ele><time>2026-05-02T13:44:18Z</time></trkpt><trkpt lat="44.4921631861395" lon="7.972463725380047"><ele>618.0</ele><time>2026-05-02T13:44:19Z</time></trkpt><trkpt lat="44.49208530837871" lon="7.9725512017401075"><ele>618.0</ele><time>2026-05-02T13:44:20Z</time></trkpt><trkpt lat="44.4920247225454" lon="7.972681822200899"><ele>618.0</ele><time>2026-05-02T13:44:21Z</time></trkpt><trkpt lat="44.491981778164245" lon="7.972844779911252"><ele>618.0</ele><time>2026-05-02T13:44:22Z</time></trkpt><trkpt lat="44.49195459712407" lon="7.97305636718646"><ele>618.0</ele><time>2026-05-02T13:44:23Z</time></trkpt><trkpt lat="44.49192679185481" lon="7.973314367923792"><ele>618.0</ele><time>2026-05-02T13:44:24Z</time></trkpt><trkpt lat="44.49188424596598" lon="7.973577345426466"><ele>618.0</ele><time>2026-05-02T13:44:25Z</time></trkpt><trkpt lat="44.4918096225919" lon="7.973832068188596"><ele>620.6666666666666</ele><time>2026-05-02T13:44:26Z</time></trkpt><trkpt lat="44.49172589441214" lon="7.974084432456141"><ele>623.3333333333333</ele><time>2026-05-02T13:44:27Z</time></trkpt><trkpt lat="44.491651046629705" lon="7.9742913573277745"><ele>626.0</ele><time>2026-05-02T13:44:28Z</time></trkpt><trkpt lat="44.491580296683935" lon="7.974478452838925"><ele>626.25</ele><time>2026-05-02T13:44:29Z</time></trkpt><trkpt lat="44.49150777706426" lon="7.974643438009788"><ele>626.5</ele><time>2026-05-02T13:44:30Z</time></trkpt><trkpt lat="44.49143435199564" lon="7.974772498870781"><ele>626.75</ele><time>2026-05-02T13:44:31Z</time></trkpt><trkpt lat="44.491339382145554" lon="7.97487992297197"><ele>627.0</ele><time>2026-05-02T13:44:32Z</time></trkpt><trkpt lat="44.49121943786597" lon="7.974980446929132"><ele>629.0</ele><time>2026-05-02T13:44:33Z</time></trkpt><trkpt lat="44.491067131071105" lon="7.975060763511214"><ele>631.0</ele><time>2026-05-02T13:44:34Z</time></trkpt><trkpt lat="44.49088421477343" lon="7.975125601741649"><ele>633.0</ele><time>2026-05-02T13:44:35Z</time></trkpt><trkpt lat="44.49067020237377" lon="7.975205828209063"><ele>633.0</ele><time>2026-05-02T13:44:36Z</time></trkpt><trkpt lat="44.49044823134334" lon="7.975304072710265"><ele>633.0</ele><time>2026-05-02T13:44:37Z</time></trkpt><trkpt lat="44.49023463581743" lon="7.975391533762152"><ele>632.5</ele><time>2026-05-02T13:44:38Z</time></trkpt><trkpt lat="44.49001873583029" lon="7.975482618612468"><ele>632.0</ele><time>2026-05-02T13:44:39Z</time></trkpt><trkpt lat="44.489787752860444" lon="7.975580769099616"><ele>627.0</ele><time>2026-05-02T13:44:40Z</time></trkpt><trkpt lat="44.489550977039855" lon="7.975676132635111"><ele>622.0</ele><time>2026-05-02T13:44:41Z</time></trkpt><trkpt lat="44.48931516699303" lon="7.975771398806053"><ele>626.3333333333334</ele><time>2026-05-02T13:44:42Z</time></trkpt><trkpt lat="44.48909656912743" lon="7.975863701906541"><ele>630.6666666666666</ele><time>2026-05-02T13:44:43Z</time></trkpt><trkpt lat="44.488888060562246" lon="7.975949105869663"><ele>635.0</ele><time>2026-05-02T13:44:44Z</time></trkpt><trkpt lat="44.488684059001784" lon="7.9760436883933865"><ele>635.0</ele><time>2026-05-02T13:44:45Z</time></trkpt><trkpt lat="44.488469975235006" lon="7.976144787668249"><ele>635.0</ele><time>2026-05-02T13:44:46Z</time></trkpt><trkpt lat="44.48823380817863" lon="7.97621111554556"><ele>635.0</ele><time>2026-05-02T13:44:47Z</time></trkpt><trkpt lat="44.488011400827325" lon="7.976304818037132"><ele>635.0</ele><time>2026-05-02T13:44:48Z</time></trkpt><trkpt lat="44.48781411645239" lon="7.976388475117575"><ele>635.0</ele><time>2026-05-02T13:44:49Z</time></trkpt><trkpt lat="44.48764946095389" lon="7.976462437767434"><ele>636.0</ele><time>2026-05-02T13:44:50Z</time></trkpt><trkpt lat="44.48751563658051" lon="7.976524405410668"><ele>637.0</ele><time>2026-05-02T13:44:51Z</time></trkpt><trkpt lat="44.48740477513295" lon="7.9765841596380165"><ele>638.0</ele><time>2026-05-02T13:44:52Z</time></trkpt><trkpt lat="44.487309077365005" lon="7.976659156972409"><ele>639.0</ele><time>2026-05-02T13:44:53Z</time></trkpt><trkpt lat="44.48723897419694" lon="7.976793688938622"><ele>637.3333333333334</ele><time>2026-05-02T13:44:54Z</time></trkpt><trkpt lat="44.48717838314995" lon="7.976952349070351"><ele>635.6666666666667</ele><time>2026-05-02T13:44:55Z</time></trkpt><trkpt lat="44.48713999983742" lon="7.977148818956106"><ele>634.0</ele><time>2026-05-02T13:44:56Z</time></trkpt><trkpt lat="44.48708208160765" lon="7.9773860098888445"><ele>634.0</ele><time>2026-05-02T13:44:57Z</time></trkpt><trkpt lat="44.4870151969704" lon="7.977646727492129"><ele>634.0</ele><time>2026-05-02T13:44:58Z</time></trkpt><trkpt lat="44.48694657520992" lon="7.977923822052134"><ele>634.0</ele><time>2026-05-02T13:44:59Z</time></trkpt><trkpt lat="44.486876204478214" lon="7.97820606140378"><ele>635.0</ele><time>2026-05-02T13:45:00Z</time></trkpt><trkpt lat="44.486806372523006" lon="7.978483298414261"><ele>636.0</ele><time>2026-05-02T13:45:01Z</time></trkpt><trkpt lat="44.486729680040604" lon="7.978774062896522"><ele>637.0</ele><time>2026-05-02T13:45:02Z</time></trkpt><trkpt lat="44.48665048373457" lon="7.979083248106123"><ele>639.5</ele><time>2026-05-02T13:45:03Z</time></trkpt><trkpt lat="44.48656932559302" lon="7.979401663002249"><ele>642.0</ele><time>2026-05-02T13:45:04Z</time></trkpt><trkpt lat="44.486483405214045" lon="7.979733091770073"><ele>642.0</ele><time>2026-05-02T13:45:05Z</time></trkpt><trkpt lat="44.48638918964844" lon="7.980088577891372"><ele>642.0</ele><time>2026-05-02T13:45:06Z</time></trkpt><trkpt lat="44.48629196773892" lon="7.980430572515924"><ele>642.0</ele><time>2026-05-02T13:45:07Z</time></trkpt><trkpt lat="44.486193640869466" lon="7.980756075662"><ele>642.0</ele><time>2026-05-02T13:45:08Z</time></trkpt><trkpt lat="44.48609976046985" lon="7.98104815730934"><ele>644.0</ele><time>2026-05-02T13:45:09Z</time></trkpt><trkpt lat="44.48601487827085" lon="7.981301718268208"><ele>646.0</ele><time>2026-05-02T13:45:10Z</time></trkpt><trkpt lat="44.485936249524144" lon="7.981550052750486"><ele>648.0</ele><time>2026-05-02T13:45:11Z</time></trkpt><trkpt lat="44.4858577235314" lon="7.98179755589102"><ele>648.0</ele><time>2026-05-02T13:45:12Z</time></trkpt><trkpt lat="44.48577926169707" lon="7.982033250787274"><ele>648.0</ele><time>2026-05-02T13:45:13Z</time></trkpt><trkpt lat="44.48569650816968" lon="7.982226477726372"><ele>648.0</ele><time>2026-05-02T13:45:14Z</time></trkpt><trkpt lat="44.48560176073757" lon="7.982391526047356"><ele>650.3333333333334</ele><time>2026-05-02T13:45:15Z</time></trkpt><trkpt lat="44.48548024186016" lon="7.98256365860809"><ele>652.6666666666667</ele><time>2026-05-02T13:45:16Z</time></trkpt><trkpt lat="44.48533624020552" lon="7.982762336466289"><ele>655.0</ele><time>2026-05-02T13:45:17Z</time></trkpt><trkpt lat="44.485176932556385" lon="7.982981990522922"><ele>655.0</ele><time>2026-05-02T13:45:18Z</time></trkpt><trkpt lat="44.48502767217221" lon="7.983194064298368"><ele>655.0</ele><time>2026-05-02T13:45:19Z</time></trkpt><trkpt lat="44.48488859809189" lon="7.9834029168287275"><ele>655.0</ele><time>2026-05-02T13:45:20Z</time></trkpt><trkpt lat="44.48475848366257" lon="7.983611239616063"><ele>655.3333333333334</ele><time>2026-05-02T13:45:21Z</time></trkpt><trkpt lat="44.48463300106313" lon="7.983825682322196"><ele>655.6666666666666</ele><time>2026-05-02T13:45:22Z</time></trkpt><trkpt lat="44.48451363114522" lon="7.984032980201844"><ele>656.0</ele><time>2026-05-02T13:45:23Z</time></trkpt><trkpt lat="44.484400491579464" lon="7.984234068948134"><ele>658.0</ele><time>2026-05-02T13:45:24Z</time></trkpt><trkpt lat="44.48429922252984" lon="7.984413757763645"><ele>660.0</ele><time>2026-05-02T13:45:25Z</time></trkpt><trkpt lat="44.484213315519455" lon="7.9845674109202145"><ele>662.0</ele><time>2026-05-02T13:45:26Z</time></trkpt><trkpt lat="44.48413873238097" lon="7.984710803522116"><ele>664.0</ele><time>2026-05-02T13:45:27Z</time></trkpt><trkpt lat="44.48408433123591" lon="7.98484453921241"><ele>664.0</ele><time>2026-05-02T13:45:28Z</time></trkpt><trkpt lat="44.484056791453305" lon="7.9849805346952865"><ele>664.0</ele><time>2026-05-02T13:45:29Z</time></trkpt><trkpt lat="44.484044679928466" lon="7.98516778768387"><ele>664.0</ele><time>2026-05-02T13:45:30Z</time></trkpt><trkpt lat="44.484043886275764" lon="7.985419081765255"><ele>664.0</ele><time>2026-05-02T13:45:31Z</time></trkpt><trkpt lat="44.48404358518915" lon="7.985695862633267"><ele>661.0</ele><time>2026-05-02T13:45:32Z</time></trkpt><trkpt lat="44.484016677464226" lon="7.985959165492405"><ele>658.0</ele><time>2026-05-02T13:45:33Z</time></trkpt><trkpt lat="44.48398040185055" lon="7.986238821264562"><ele>655.0</ele><time>2026-05-02T13:45:34Z</time></trkpt><trkpt lat="44.483926820096045" lon="7.986568934837339"><ele>653.0</ele><time>2026-05-02T13:45:35Z</time></trkpt><trkpt lat="44.48386331592011" lon="7.98694893571335"><ele>651.0</ele><time>2026-05-02T13:45:36Z</time></trkpt><trkpt lat="44.48379590464295" lon="7.987347303476984"><ele>659.5</ele><time>2026-05-02T13:45:37Z</time></trkpt><trkpt lat="44.483724427769516" lon="7.987766556104829"><ele>668.0</ele><time>2026-05-02T13:45:38Z</time></trkpt><trkpt lat="44.483655611239485" lon="7.988171671010655"><ele>671.5</ele><time>2026-05-02T13:45:39Z</time></trkpt><trkpt lat="44.48358986393913" lon="7.988558908261264"><ele>675.0</ele><time>2026-05-02T13:45:40Z</time></trkpt><trkpt lat="44.48354573169148" lon="7.988914198101679"><ele>677.0</ele><time>2026-05-02T13:45:41Z</time></trkpt><trkpt lat="44.48348978492645" lon="7.9892229491532545"><ele>679.0</ele><time>2026-05-02T13:45:42Z</time></trkpt><trkpt lat="44.48343799249208" lon="7.989502463143135"><ele>681.0</ele><time>2026-05-02T13:45:43Z</time></trkpt><trkpt lat="44.48339272392535" lon="7.9897517116772265"><ele>681.0</ele><time>2026-05-02T13:45:44Z</time></trkpt><trkpt lat="44.483352137127" lon="7.989973629599357"><ele>681.0</ele><time>2026-05-02T13:45:45Z</time></trkpt><trkpt lat="44.48330994819883" lon="7.990191610118048"><ele>681.0</ele><time>2026-05-02T13:45:46Z</time></trkpt><trkpt lat="44.483247019624336" lon="7.990414761575622"><ele>682.0</ele><time>2026-05-02T13:45:47Z</time></trkpt><trkpt lat="44.48316873714424" lon="7.990621193086468"><ele>683.0</ele><time>2026-05-02T13:45:48Z</time></trkpt><trkpt lat="44.483088224715885" lon="7.990818070345741"><ele>684.0</ele><time>2026-05-02T13:45:49Z</time></trkpt><trkpt lat="44.48300742008659" lon="7.991019118965472"><ele>684.6666666666666</ele><time>2026-05-02T13:45:50Z</time></trkpt><trkpt lat="44.48293724953988" lon="7.991244085848354"><ele>685.3333333333333</ele><time>2026-05-02T13:45:51Z</time></trkpt><trkpt lat="44.482888368676164" lon="7.991509531740784"><ele>686.0</ele><time>2026-05-02T13:45:52Z</time></trkpt><trkpt lat="44.48286258445806" lon="7.99180996909069"><ele>677.5</ele><time>2026-05-02T13:45:53Z</time></trkpt><trkpt lat="44.482838926788666" lon="7.9921265076649854"><ele>669.0</ele><time>2026-05-02T13:45:54Z</time></trkpt><trkpt lat="44.48281797731855" lon="7.992443680693408"><ele>669.3333333333334</ele><time>2026-05-02T13:45:55Z</time></trkpt><trkpt lat="44.482800896840374" lon="7.992749847497848"><ele>669.6666666666667</ele><time>2026-05-02T13:45:56Z</time></trkpt><trkpt lat="44.48278104366027" lon="7.993045599023875"><ele>670.0</ele><time>2026-05-02T13:45:57Z</time></trkpt><trkpt lat="44.4827618449933" lon="7.993335046313003"><ele>672.0</ele><time>2026-05-02T13:45:58Z</time></trkpt><trkpt lat="44.482743259867945" lon="7.9936063407054885"><ele>674.0</ele><time>2026-05-02T13:45:59Z</time></trkpt><trkpt lat="44.48272352989742" lon="7.993850273380581"><ele>676.0</ele><time>2026-05-02T13:46:00Z</time></trkpt><trkpt lat="44.482704358066115" lon="7.994071130109303"><ele>678.0</ele><time>2026-05-02T13:46:01Z</time></trkpt><trkpt lat="44.48267975479555" lon="7.994270632296133"><ele>680.0</ele><time>2026-05-02T13:46:02Z</time></trkpt><trkpt lat="44.4826317738405" lon="7.9944624218808125"><ele>682.0</ele><time>2026-05-02T13:46:03Z</time></trkpt><trkpt lat="44.48255147662245" lon="7.9946623910615795"><ele>682.0</ele><time>2026-05-02T13:46:04Z</time></trkpt><trkpt lat="44.48244018919911" lon="7.994873161232891"><ele>682.0</ele><time>2026-05-02T13:46:05Z</time></trkpt><trkpt lat="44.4823046382956" lon="7.995100967565661"><ele>682.0</ele><time>2026-05-02T13:46:06Z</time></trkpt><trkpt lat="44.482129827754235" lon="7.995345668429212"><ele>678.0</ele><time>2026-05-02T13:46:07Z</time></trkpt><trkpt lat="44.48196805989556" lon="7.995612057480451"><ele>674.0</ele><time>2026-05-02T13:46:08Z</time></trkpt><trkpt lat="44.48181213858377" lon="7.995872477027843"><ele>672.5</ele><time>2026-05-02T13:46:09Z</time></trkpt><trkpt lat="44.481616954176864" lon="7.996079880985659"><ele>671.0</ele><time>2026-05-02T13:46:10Z</time></trkpt><trkpt lat="44.4814042987865" lon="7.996288851895309"><ele>673.0</ele><time>2026-05-02T13:46:11Z</time></trkpt><trkpt lat="44.48117914024871" lon="7.9965080550726855"><ele>675.0</ele><time>2026-05-02T13:46:12Z</time></trkpt><trkpt lat="44.48096051962282" lon="7.996734648409419"><ele>677.0</ele><time>2026-05-02T13:46:13Z</time></trkpt><trkpt lat="44.48073898434176" lon="7.996949166924102"><ele>679.0</ele><time>2026-05-02T13:46:14Z</time></trkpt><trkpt lat="44.48052365161172" lon="7.997163531942288"><ele>680.5</ele><time>2026-05-02T13:46:15Z</time></trkpt><trkpt lat="44.480335467336594" lon="7.997346235643844"><ele>682.0</ele><time>2026-05-02T13:46:16Z</time></trkpt><trkpt lat="44.480144567810484" lon="7.997536068408237"><ele>684.6666666666667</ele><time>2026-05-02T13:46:17Z</time></trkpt><trkpt lat="44.479966947000854" lon="7.997721516386451"><ele>687.3333333333334</ele><time>2026-05-02T13:46:18Z</time></trkpt><trkpt lat="44.47980799320356" lon="7.997879466700537"><ele>690.0</ele><time>2026-05-02T13:46:19Z</time></trkpt><trkpt lat="44.47966747489616" lon="7.998015912112771"><ele>691.0</ele><time>2026-05-02T13:46:20Z</time></trkpt><trkpt lat="44.479533095056425" lon="7.9981346071242925"><ele>692.0</ele><time>2026-05-02T13:46:21Z</time></trkpt><trkpt lat="44.479378403163985" lon="7.998229449168338"><ele>693.0</ele><time>2026-05-02T13:46:22Z</time></trkpt><trkpt lat="44.47918959306342" lon="7.998311742270952"><ele>698.5</ele><time>2026-05-02T13:46:23Z</time></trkpt><trkpt lat="44.478972299628175" lon="7.998378695886862"><ele>704.0</ele><time>2026-05-02T13:46:24Z</time></trkpt><trkpt lat="44.47873881029866" lon="7.998450383721949"><ele>704.0</ele><time>2026-05-02T13:46:25Z</time></trkpt><trkpt lat="44.47851841436958" lon="7.998520664132743"><ele>704.0</ele><time>2026-05-02T13:46:26Z</time></trkpt><trkpt lat="44.47830761140096" lon="7.998578899455112"><ele>704.0</ele><time>2026-05-02T13:46:27Z</time></trkpt><trkpt lat="44.478110429027375" lon="7.998631875624325"><ele>705.6666666666666</ele><time>2026-05-02T13:46:28Z</time></trkpt><trkpt lat="44.4779289785701" lon="7.998674836965494"><ele>707.3333333333334</ele><time>2026-05-02T13:46:29Z</time></trkpt><trkpt lat="44.47777477668359" lon="7.998706578910465"><ele>709.0</ele><time>2026-05-02T13:46:30Z</time></trkpt><trkpt lat="44.47763103133352" lon="7.998732609994338"><ele>709.0</ele><time>2026-05-02T13:46:31Z</time></trkpt><trkpt lat="44.47751798537146" lon="7.998754796456425"><ele>709.0</ele><time>2026-05-02T13:46:32Z</time></trkpt><trkpt lat="44.477415646487934" lon="7.9987809833063155"><ele>709.0</ele><time>2026-05-02T13:46:33Z</time></trkpt><trkpt lat="44.47734450758016" lon="7.998815098937521"><ele>709.0</ele><time>2026-05-02T13:46:34Z</time></trkpt><trkpt lat="44.47729385479181" lon="7.998970121619933"><ele>709.0</ele><time>2026-05-02T13:46:36Z</time></trkpt><trkpt lat="44.47732200851361" lon="7.999073402981951"><ele>711.5</ele><time>2026-05-02T13:46:37Z</time></trkpt><trkpt lat="44.4773918134369" lon="7.999173556433243"><ele>714.0</ele><time>2026-05-02T13:46:38Z</time></trkpt><trkpt lat="44.47749363384923" lon="7.999255157392464"><ele>716.5</ele><time>2026-05-02T13:46:39Z</time></trkpt><trkpt lat="44.47762552761232" lon="7.9993390424728705"><ele>719.0</ele><time>2026-05-02T13:46:40Z</time></trkpt><trkpt lat="44.47773416281453" lon="7.999430695401984"><ele>719.0</ele><time>2026-05-02T13:46:41Z</time></trkpt><trkpt lat="44.47781893072851" lon="7.999524069905159"><ele>719.0</ele><time>2026-05-02T13:46:42Z</time></trkpt><trkpt lat="44.47787900216018" lon="7.999627956476637"><ele>719.0</ele><time>2026-05-02T13:46:43Z</time></trkpt><trkpt lat="44.47790479129493" lon="7.999754549915372"><ele>719.0</ele><time>2026-05-02T13:46:44Z</time></trkpt><trkpt lat="44.477895819303065" lon="7.999897439660791"><ele>719.0</ele><time>2026-05-02T13:46:45Z</time></trkpt><trkpt lat="44.47786528102841" lon="8.00002964766373"><ele>719.0</ele><time>2026-05-02T13:46:46Z</time></trkpt><trkpt lat="44.47780448632134" lon="8.000170780062902"><ele>719.0</ele><time>2026-05-02T13:46:47Z</time></trkpt><trkpt lat="44.47770821827367" lon="8.000343923226962"><ele>719.0</ele><time>2026-05-02T13:46:48Z</time></trkpt><trkpt lat="44.47759452866702" lon="8.000574670262264"><ele>715.5</ele><time>2026-05-02T13:46:49Z</time></trkpt><trkpt lat="44.47746214216995" lon="8.00083878308179"><ele>712.0</ele><time>2026-05-02T13:46:50Z</time></trkpt><trkpt lat="44.47733489410979" lon="8.001109556295594"><ele>712.0</ele><time>2026-05-02T13:46:51Z</time></trkpt><trkpt lat="44.47722035656296" lon="8.001347369112716"><ele>712.0</ele><time>2026-05-02T13:46:52Z</time></trkpt><trkpt lat="44.47711433550876" lon="8.001565819234862"><ele>712.0</ele><time>2026-05-02T13:46:53Z</time></trkpt><trkpt lat="44.47701689926585" lon="8.001767267317545"><ele>711.6666666666667</ele><time>2026-05-02T13:46:54Z</time></trkpt><trkpt lat="44.47691318635174" lon="8.00195714407403"><ele>711.3333333333334</ele><time>2026-05-02T13:46:55Z</time></trkpt><trkpt lat="44.47682555608611" lon="8.002130518859376"><ele>711.0</ele><time>2026-05-02T13:46:56Z</time></trkpt><trkpt lat="44.476742693755426" lon="8.002308380797128"><ele>710.3333333333334</ele><time>2026-05-02T13:46:57Z</time></trkpt><trkpt lat="44.476665275535005" lon="8.00250052146505"><ele>709.6666666666667</ele><time>2026-05-02T13:46:58Z</time></trkpt><trkpt lat="44.4766071517757" lon="8.002689290139116"><ele>709.0</ele><time>2026-05-02T13:46:59Z</time></trkpt><trkpt lat="44.47655422388641" lon="8.00291676125989"><ele>709.0</ele><time>2026-05-02T13:47:00Z</time></trkpt><trkpt lat="44.476506258895895" lon="8.003178011528355"><ele>709.0</ele><time>2026-05-02T13:47:01Z</time></trkpt><trkpt lat="44.4764714944901" lon="8.003471115471921"><ele>709.0</ele><time>2026-05-02T13:47:02Z</time></trkpt><trkpt lat="44.476444016941436" lon="8.003785937983956"><ele>706.6666666666667</ele><time>2026-05-02T13:47:03Z</time></trkpt><trkpt lat="44.476418265065774" lon="8.004075839688612"><ele>704.3333333333334</ele><time>2026-05-02T13:47:04Z</time></trkpt><trkpt lat="44.476387395724885" lon="8.004336978012494"><ele>702.0</ele><time>2026-05-02T13:47:05Z</time></trkpt><trkpt lat="44.47635789249913" lon="8.004581286606118"><ele>701.0</ele><time>2026-05-02T13:47:06Z</time></trkpt><trkpt lat="44.47632828321984" lon="8.004813566976278"><ele>700.0</ele><time>2026-05-02T13:47:07Z</time></trkpt><trkpt lat="44.47629219830353" lon="8.005037383378928"><ele>699.0</ele><time>2026-05-02T13:47:08Z</time></trkpt><trkpt lat="44.47625497451952" lon="8.005247875955689"><ele>699.0</ele><time>2026-05-02T13:47:09Z</time></trkpt><trkpt lat="44.47621830588698" lon="8.005448824775936"><ele>699.0</ele><time>2026-05-02T13:47:10Z</time></trkpt><trkpt lat="44.47617916302629" lon="8.005646030941184"><ele>699.0</ele><time>2026-05-02T13:47:11Z</time></trkpt><trkpt lat="44.4761340470496" lon="8.005853873752514"><ele>699.0</ele><time>2026-05-02T13:47:12Z</time></trkpt><trkpt lat="44.476082039241625" lon="8.006061335600972"><ele>699.0</ele><time>2026-05-02T13:47:13Z</time></trkpt><trkpt lat="44.476034520331126" lon="8.006279119709099"><ele>699.0</ele><time>2026-05-02T13:47:14Z</time></trkpt><trkpt lat="44.475989544764495" lon="8.006515559135613"><ele>699.0</ele><time>2026-05-02T13:47:15Z</time></trkpt><trkpt lat="44.475940231455816" lon="8.006759180738236"><ele>699.0</ele><time>2026-05-02T13:47:16Z</time></trkpt><trkpt lat="44.475888897764925" lon="8.007001004730599"><ele>699.0</ele><time>2026-05-02T13:47:17Z</time></trkpt><trkpt lat="44.475842073543845" lon="8.007232691930087"><ele>699.0</ele><time>2026-05-02T13:47:18Z</time></trkpt><trkpt lat="44.47579550111316" lon="8.007441402793319"><ele>701.3333333333334</ele><time>2026-05-02T13:47:19Z</time></trkpt><trkpt lat="44.475754265212075" lon="8.007640840650877"><ele>703.6666666666667</ele><time>2026-05-02T13:47:20Z</time></trkpt><trkpt lat="44.47573134502703" lon="8.007862574666072"><ele>706.0</ele><time>2026-05-02T13:47:21Z</time></trkpt><trkpt lat="44.475711927897024" lon="8.008107010004954"><ele>705.3333333333334</ele><time>2026-05-02T13:47:22Z</time></trkpt><trkpt lat="44.4756850279566" lon="8.00834438313734"><ele>704.6666666666666</ele><time>2026-05-02T13:47:23Z</time></trkpt><trkpt lat="44.47562261433697" lon="8.008603338717892"><ele>704.0</ele><time>2026-05-02T13:47:24Z</time></trkpt><trkpt lat="44.47554437126184" lon="8.00884126237936"><ele>704.0</ele><time>2026-05-02T13:47:25Z</time></trkpt><trkpt lat="44.47545464334217" lon="8.009107868077159"><ele>704.0</ele><time>2026-05-02T13:47:26Z</time></trkpt><trkpt lat="44.47537685364465" lon="8.009390749330509"><ele>704.0</ele><time>2026-05-02T13:47:27Z</time></trkpt><trkpt lat="44.47530659796021" lon="8.009690979898295"><ele>705.0</ele><time>2026-05-02T13:47:28Z</time></trkpt><trkpt lat="44.47524763443464" lon="8.009994603395048"><ele>706.0</ele><time>2026-05-02T13:47:29Z</time></trkpt><trkpt lat="44.47518539287677" lon="8.010281944882074"><ele>707.0</ele><time>2026-05-02T13:47:30Z</time></trkpt><trkpt lat="44.475127606805735" lon="8.010537800222865"><ele>707.0</ele><time>2026-05-02T13:47:31Z</time></trkpt><trkpt lat="44.475073735663095" lon="8.010788764549366"><ele>707.0</ele><time>2026-05-02T13:47:32Z</time></trkpt><trkpt lat="44.475014085494614" lon="8.011030671413662"><ele>707.0</ele><time>2026-05-02T13:47:33Z</time></trkpt><trkpt lat="44.47494499112782" lon="8.011262997866105"><ele>707.0</ele><time>2026-05-02T13:47:34Z</time></trkpt><trkpt lat="44.47487273221778" lon="8.011498349207235"><ele>707.0</ele><time>2026-05-02T13:47:35Z</time></trkpt><trkpt lat="44.474786842214264" lon="8.011728403408377"><ele>707.0</ele><time>2026-05-02T13:47:36Z</time></trkpt><trkpt lat="44.47469573113577" lon="8.011965547878793"><ele>707.0</ele><time>2026-05-02T13:47:37Z</time></trkpt><trkpt lat="44.474604551819404" lon="8.012199734227387"><ele>707.0</ele><time>2026-05-02T13:47:38Z</time></trkpt><trkpt lat="44.474518862234596" lon="8.012428824408785"><ele>707.0</ele><time>2026-05-02T13:47:39Z</time></trkpt><trkpt lat="44.474431105408094" lon="8.012647844976012"><ele>708.0</ele><time>2026-05-02T13:47:40Z</time></trkpt><trkpt lat="44.47435024725208" lon="8.012864936306357"><ele>709.0</ele><time>2026-05-02T13:47:41Z</time></trkpt><trkpt lat="44.474273590397885" lon="8.013075104088577"><ele>710.0</ele><time>2026-05-02T13:47:42Z</time></trkpt><trkpt lat="44.47420251668022" lon="8.013270219137528"><ele>710.5</ele><time>2026-05-02T13:47:43Z</time></trkpt><trkpt lat="44.47414214972707" lon="8.01343448297503"><ele>711.0</ele><time>2026-05-02T13:47:44Z</time></trkpt><trkpt lat="44.47408763575267" lon="8.013584209367556"><ele>711.5</ele><time>2026-05-02T13:47:45Z</time></trkpt><trkpt lat="44.474037619538805" lon="8.013725644723614"><ele>712.0</ele><time>2026-05-02T13:47:46Z</time></trkpt><trkpt lat="44.47398912847574" lon="8.013859209097012"><ele>712.0</ele><time>2026-05-02T13:47:47Z</time></trkpt><trkpt lat="44.47394189346198" lon="8.013978534023886"><ele>712.0</ele><time>2026-05-02T13:47:48Z</time></trkpt><trkpt lat="44.47389615179645" lon="8.014112715349635"><ele>712.0</ele><time>2026-05-02T13:47:49Z</time></trkpt><trkpt lat="44.473838996498245" lon="8.014247212431927"><ele>712.0</ele><time>2026-05-02T13:47:50Z</time></trkpt><trkpt lat="44.47377766232549" lon="8.014379722229869"><ele>712.0</ele><time>2026-05-02T13:47:51Z</time></trkpt><trkpt lat="44.47371330141231" lon="8.01451419789048"><ele>711.25</ele><time>2026-05-02T13:47:52Z</time></trkpt><trkpt lat="44.473647190851565" lon="8.014656174138478"><ele>710.5</ele><time>2026-05-02T13:47:53Z</time></trkpt><trkpt lat="44.47357987887285" lon="8.014803184647533"><ele>709.75</ele><time>2026-05-02T13:47:54Z</time></trkpt><trkpt lat="44.47351822325706" lon="8.014947596965253"><ele>709.0</ele><time>2026-05-02T13:47:55Z</time></trkpt><trkpt lat="44.473457635155405" lon="8.01508803253406"><ele>709.0</ele><time>2026-05-02T13:47:56Z</time></trkpt><trkpt lat="44.473401897988346" lon="8.015218126561798"><ele>709.0</ele><time>2026-05-02T13:47:57Z</time></trkpt><trkpt lat="44.4733447849538" lon="8.01534472276563"><ele>709.0</ele><time>2026-05-02T13:47:58Z</time></trkpt><trkpt lat="44.47331229011081" lon="8.015482671711007"><ele>709.0</ele><time>2026-05-02T13:47:59Z</time></trkpt><trkpt lat="44.47327122556375" lon="8.015617761586011"><ele>709.0</ele><time>2026-05-02T13:48:00Z</time></trkpt><trkpt lat="44.473250592938996" lon="8.015758723266838"><ele>709.2</ele><time>2026-05-02T13:48:01Z</time></trkpt><trkpt lat="44.473237546509246" lon="8.015894634859256"><ele>709.4000000000001</ele><time>2026-05-02T13:48:02Z</time></trkpt><trkpt lat="44.473219636149786" lon="8.016016934417417"><ele>709.6</ele><time>2026-05-02T13:48:03Z</time></trkpt><trkpt lat="44.47320924859817" lon="8.016140355918893"><ele>709.8</ele><time>2026-05-02T13:48:04Z</time></trkpt><trkpt lat="44.47319215242583" lon="8.016292778871394"><ele>710.0</ele><time>2026-05-02T13:48:05Z</time></trkpt><trkpt lat="44.473171534491996" lon="8.016466351595026"><ele>710.0</ele><time>2026-05-02T13:48:06Z</time></trkpt><trkpt lat="44.47314156069173" lon="8.016669906619587"><ele>710.0</ele><time>2026-05-02T13:48:07Z</time></trkpt><trkpt lat="44.47311896765619" lon="8.01687559641027"><ele>710.0</ele><time>2026-05-02T13:48:08Z</time></trkpt><trkpt lat="44.473091413988705" lon="8.017058846366037"><ele>710.0</ele><time>2026-05-02T13:48:09Z</time></trkpt><trkpt lat="44.47306694419665" lon="8.01723229095403"><ele>710.0</ele><time>2026-05-02T13:48:10Z</time></trkpt><trkpt lat="44.473046990727525" lon="8.017401712533001"><ele>710.0</ele><time>2026-05-02T13:48:11Z</time></trkpt><trkpt lat="44.473031105540535" lon="8.017555755361398"><ele>710.0</ele><time>2026-05-02T13:48:12Z</time></trkpt><trkpt lat="44.47300791379619" lon="8.01770632200671"><ele>710.0</ele><time>2026-05-02T13:48:13Z</time></trkpt><trkpt lat="44.472976902360415" lon="8.017856385613777"><ele>707.5</ele><time>2026-05-02T13:48:14Z</time></trkpt><trkpt lat="44.472930070289344" lon="8.01801334475495"><ele>705.0</ele><time>2026-05-02T13:48:15Z</time></trkpt><trkpt lat="44.47287561272377" lon="8.018160068167369"><ele>702.5</ele><time>2026-05-02T13:48:16Z</time></trkpt><trkpt lat="44.47280620104101" lon="8.018289449696068"><ele>700.0</ele><time>2026-05-02T13:48:17Z</time></trkpt><trkpt lat="44.47272290682419" lon="8.018414319392397"><ele>700.0</ele><time>2026-05-02T13:48:18Z</time></trkpt><trkpt lat="44.47263204988841" lon="8.018537089165868"><ele>700.0</ele><time>2026-05-02T13:48:19Z</time></trkpt><trkpt lat="44.472538783960744" lon="8.018664888083714"><ele>700.0</ele><time>2026-05-02T13:48:20Z</time></trkpt><trkpt lat="44.472461506282855" lon="8.018779508854376"><ele>700.0</ele><time>2026-05-02T13:48:21Z</time></trkpt><trkpt lat="44.47239066400922" lon="8.018885393745242"><ele>700.0</ele><time>2026-05-02T13:48:22Z</time></trkpt><trkpt lat="44.47233348912088" lon="8.018993371507184"><ele>700.0</ele><time>2026-05-02T13:48:23Z</time></trkpt><trkpt lat="44.47230094308965" lon="8.019116755039537"><ele>700.0</ele><time>2026-05-02T13:48:24Z</time></trkpt><trkpt lat="44.472303885807236" lon="8.019257595756953"><ele>700.0</ele><time>2026-05-02T13:48:25Z</time></trkpt><trkpt lat="44.47232328805669" lon="8.019410186125269"><ele>700.0</ele><time>2026-05-02T13:48:26Z</time></trkpt><trkpt lat="44.472378601279324" lon="8.019542034007332"><ele>702.0</ele><time>2026-05-02T13:48:27Z</time></trkpt><trkpt lat="44.4724641005297" lon="8.019668590172877"><ele>704.0</ele><time>2026-05-02T13:48:28Z</time></trkpt><trkpt lat="44.47256200134112" lon="8.019781047991948"><ele>706.0</ele><time>2026-05-02T13:48:29Z</time></trkpt><trkpt lat="44.47265057666281" lon="8.01992934901657"><ele>708.0</ele><time>2026-05-02T13:48:30Z</time></trkpt><trkpt lat="44.472725523314374" lon="8.020054818815595"><ele>708.0</ele><time>2026-05-02T13:48:31Z</time></trkpt><trkpt lat="44.472770817328815" lon="8.020196385905862"><ele>708.0</ele><time>2026-05-02T13:48:32Z</time></trkpt><trkpt lat="44.472797656283674" lon="8.020346514148084"><ele>708.0</ele><time>2026-05-02T13:48:33Z</time></trkpt><trkpt lat="44.4727913303505" lon="8.020516285085309"><ele>708.0</ele><time>2026-05-02T13:48:34Z</time></trkpt><trkpt lat="44.472751191746305" lon="8.020677527665026"><ele>707.75</ele><time>2026-05-02T13:48:35Z</time></trkpt><trkpt lat="44.47269218100394" lon="8.020818608312998"><ele>707.5</ele><time>2026-05-02T13:48:36Z</time></trkpt><trkpt lat="44.472599714041344" lon="8.020960018892838"><ele>707.25</ele><time>2026-05-02T13:48:37Z</time></trkpt><trkpt lat="44.472503967486574" lon="8.021128257284502"><ele>707.0</ele><time>2026-05-02T13:48:38Z</time></trkpt><trkpt lat="44.47237872914885" lon="8.021286062867137"><ele>707.0</ele><time>2026-05-02T13:48:39Z</time></trkpt><trkpt lat="44.47227852688587" lon="8.021431320597442"><ele>707.0</ele><time>2026-05-02T13:48:40Z</time></trkpt><trkpt lat="44.47219194390052" lon="8.021575730677357"><ele>707.0</ele><time>2026-05-02T13:48:41Z</time></trkpt><trkpt lat="44.472111136158595" lon="8.021707261509244"><ele>707.0</ele><time>2026-05-02T13:48:42Z</time></trkpt><trkpt lat="44.472027906238466" lon="8.021838206261958"><ele>703.75</ele><time>2026-05-02T13:48:43Z</time></trkpt><trkpt lat="44.47194425450062" lon="8.021971233244548"><ele>700.5</ele><time>2026-05-02T13:48:44Z</time></trkpt><trkpt lat="44.47186071180181" lon="8.022098277007977"><ele>697.25</ele><time>2026-05-02T13:48:45Z</time></trkpt><trkpt lat="44.471770124710346" lon="8.022219758340437"><ele>694.0</ele><time>2026-05-02T13:48:46Z</time></trkpt><trkpt lat="44.47168368961037" lon="8.022355429850213"><ele>696.25</ele><time>2026-05-02T13:48:47Z</time></trkpt><trkpt lat="44.471594849639374" lon="8.022481698309788"><ele>698.5</ele><time>2026-05-02T13:48:48Z</time></trkpt><trkpt lat="44.471514147890076" lon="8.022605898617298"><ele>700.75</ele><time>2026-05-02T13:48:49Z</time></trkpt><trkpt lat="44.47143098539385" lon="8.022728137030164"><ele>703.0</ele><time>2026-05-02T13:48:50Z</time></trkpt><trkpt lat="44.471355159957355" lon="8.02285010257356"><ele>702.0</ele><time>2026-05-02T13:48:51Z</time></trkpt><trkpt lat="44.471272150187346" lon="8.022967594858862"><ele>701.0</ele><time>2026-05-02T13:48:52Z</time></trkpt><trkpt lat="44.471199274035584" lon="8.023078205192206"><ele>700.0</ele><time>2026-05-02T13:48:53Z</time></trkpt><trkpt lat="44.47112275352905" lon="8.023206072198192"><ele>699.0</ele><time>2026-05-02T13:48:54Z</time></trkpt><trkpt lat="44.471033237705605" lon="8.023345857526524"><ele>699.0</ele><time>2026-05-02T13:48:55Z</time></trkpt><trkpt lat="44.47094421650195" lon="8.023481436349785"><ele>699.0</ele><time>2026-05-02T13:48:56Z</time></trkpt><trkpt lat="44.47085631860854" lon="8.023612888939441"><ele>699.0</ele><time>2026-05-02T13:48:57Z</time></trkpt><trkpt lat="44.470782238626796" lon="8.023744751007166"><ele>699.0</ele><time>2026-05-02T13:48:58Z</time></trkpt><trkpt lat="44.470713502542395" lon="8.02389715075815"><ele>699.0</ele><time>2026-05-02T13:48:59Z</time></trkpt><trkpt lat="44.470652549828365" lon="8.024066216936054"><ele>699.0</ele><time>2026-05-02T13:49:00Z</time></trkpt><trkpt lat="44.470601182917655" lon="8.024230508065795"><ele>699.0</ele><time>2026-05-02T13:49:01Z</time></trkpt><trkpt lat="44.47055264277009" lon="8.024391174859675"><ele>699.0</ele><time>2026-05-02T13:49:02Z</time></trkpt><trkpt lat="44.47051465041014" lon="8.024562039594072"><ele>700.25</ele><time>2026-05-02T13:49:03Z</time></trkpt><trkpt lat="44.47047227846565" lon="8.02473494499506"><ele>701.5</ele><time>2026-05-02T13:49:04Z</time></trkpt><trkpt lat="44.4704309142598" lon="8.024893224687219"><ele>702.75</ele><time>2026-05-02T13:49:05Z</time></trkpt><trkpt lat="44.47039209150823" lon="8.025042566196552"><ele>704.0</ele><time>2026-05-02T13:49:06Z</time></trkpt><trkpt lat="44.470351934481315" lon="8.025198671518591"><ele>703.25</ele><time>2026-05-02T13:49:07Z</time></trkpt><trkpt lat="44.470313432200854" lon="8.025366880242444"><ele>702.5</ele><time>2026-05-02T13:49:08Z</time></trkpt><trkpt lat="44.47027350785687" lon="8.025536293452383"><ele>701.75</ele><time>2026-05-02T13:49:09Z</time></trkpt><trkpt lat="44.47023096014443" lon="8.025706647385666"><ele>701.0</ele><time>2026-05-02T13:49:10Z</time></trkpt><trkpt lat="44.47017927709482" lon="8.025873026724385"><ele>701.0</ele><time>2026-05-02T13:49:11Z</time></trkpt><trkpt lat="44.470102130242175" lon="8.026044266774186"><ele>701.0</ele><time>2026-05-02T13:49:12Z</time></trkpt><trkpt lat="44.4699972032022" lon="8.026208860966836"><ele>701.0</ele><time>2026-05-02T13:49:13Z</time></trkpt><trkpt lat="44.469876166710826" lon="8.026368469831787"><ele>701.0</ele><time>2026-05-02T13:49:14Z</time></trkpt><trkpt lat="44.46973799568717" lon="8.026512873831777"><ele>701.0</ele><time>2026-05-02T13:49:15Z</time></trkpt><trkpt lat="44.46961674838485" lon="8.026643229516136"><ele>701.0</ele><time>2026-05-02T13:49:16Z</time></trkpt><trkpt lat="44.46951226995394" lon="8.026782995690846"><ele>701.75</ele><time>2026-05-02T13:49:17Z</time></trkpt><trkpt lat="44.469423368909794" lon="8.026921979783909"><ele>702.5</ele><time>2026-05-02T13:49:18Z</time></trkpt><trkpt lat="44.469345775512735" lon="8.027074416382272"><ele>703.25</ele><time>2026-05-02T13:49:19Z</time></trkpt><trkpt lat="44.469284197012044" lon="8.027251473131523"><ele>704.0</ele><time>2026-05-02T13:49:20Z</time></trkpt><trkpt lat="44.46923623463271" lon="8.027445916411557"><ele>707.6666666666666</ele><time>2026-05-02T13:49:21Z</time></trkpt><trkpt lat="44.46920336229257" lon="8.02768030051419"><ele>711.3333333333334</ele><time>2026-05-02T13:49:22Z</time></trkpt><trkpt lat="44.46916905650951" lon="8.027915730704597"><ele>715.0</ele><time>2026-05-02T13:49:23Z</time></trkpt><trkpt lat="44.469152660461425" lon="8.028132571114426"><ele>716.4</ele><time>2026-05-02T13:49:24Z</time></trkpt><trkpt lat="44.46914286394744" lon="8.028321290048954"><ele>717.8</ele><time>2026-05-02T13:49:25Z</time></trkpt><trkpt lat="44.469111640373264" lon="8.028467690883348"><ele>719.2</ele><time>2026-05-02T13:49:26Z</time></trkpt><trkpt lat="44.46907044460466" lon="8.028584042469742"><ele>720.6</ele><time>2026-05-02T13:49:27Z</time></trkpt><trkpt lat="44.469008108035" lon="8.028698734172252"><ele>722.0</ele><time>2026-05-02T13:49:28Z</time></trkpt><trkpt lat="44.468901502402545" lon="8.028772597707617"><ele>722.0</ele><time>2026-05-02T13:49:29Z</time></trkpt><trkpt lat="44.46878050099587" lon="8.02880542870667"><ele>722.0</ele><time>2026-05-02T13:49:30Z</time></trkpt><trkpt lat="44.468657872396456" lon="8.028748879471092"><ele>722.0</ele><time>2026-05-02T13:49:31Z</time></trkpt><trkpt lat="44.46852534209983" lon="8.02873731700211"><ele>722.0</ele><time>2026-05-02T13:49:32Z</time></trkpt><trkpt lat="44.46840742336768" lon="8.02871517392432"><ele>721.0</ele><time>2026-05-02T13:49:33Z</time></trkpt><trkpt lat="44.468286558405026" lon="8.02875193114353"><ele>720.0</ele><time>2026-05-02T13:49:34Z</time></trkpt><trkpt lat="44.468174354103354" lon="8.028832079328591"><ele>719.0</ele><time>2026-05-02T13:49:35Z</time></trkpt><trkpt lat="44.46805350036898" lon="8.02893413472607"><ele>718.0</ele><time>2026-05-02T13:49:36Z</time></trkpt><trkpt lat="44.467945738405284" lon="8.029057864705683"><ele>720.25</ele><time>2026-05-02T13:49:37Z</time></trkpt><trkpt lat="44.46784655078023" lon="8.029209485874109"><ele>722.5</ele><time>2026-05-02T13:49:38Z</time></trkpt><trkpt lat="44.467767960595474" lon="8.029389041856918"><ele>724.75</ele><time>2026-05-02T13:49:39Z</time></trkpt><trkpt lat="44.46767152860354" lon="8.029529369722239"><ele>727.0</ele><time>2026-05-02T13:49:40Z</time></trkpt><trkpt lat="44.46757964322175" lon="8.029637533822454"><ele>727.0</ele><time>2026-05-02T13:49:41Z</time></trkpt><trkpt lat="44.46748201051558" lon="8.029703839251189"><ele>727.0</ele><time>2026-05-02T13:49:42Z</time></trkpt><trkpt lat="44.46737102852565" lon="8.029743817432887"><ele>727.0</ele><time>2026-05-02T13:49:43Z</time></trkpt><trkpt lat="44.467237496499536" lon="8.029748211136349"><ele>727.0</ele><time>2026-05-02T13:49:44Z</time></trkpt><trkpt lat="44.46707908529516" lon="8.029771268699673"><ele>728.3333333333334</ele><time>2026-05-02T13:49:45Z</time></trkpt><trkpt lat="44.46690727851434" lon="8.029768223358808"><ele>729.6666666666666</ele><time>2026-05-02T13:49:46Z</time></trkpt><trkpt lat="44.46674048869599" lon="8.029782399671564"><ele>731.0</ele><time>2026-05-02T13:49:47Z</time></trkpt><trkpt lat="44.46660032376882" lon="8.029810069333793"><ele>731.0</ele><time>2026-05-02T13:49:48Z</time></trkpt><trkpt lat="44.46647557441038" lon="8.02984979319234"><ele>731.0</ele><time>2026-05-02T13:49:49Z</time></trkpt><trkpt lat="44.46636154158211" lon="8.029909367116941"><ele>731.0</ele><time>2026-05-02T13:49:50Z</time></trkpt><trkpt lat="44.46626271809153" lon="8.02998936616261"><ele>731.0</ele><time>2026-05-02T13:49:51Z</time></trkpt><trkpt lat="44.466190053907575" lon="8.03008269004373"><ele>731.4</ele><time>2026-05-02T13:49:52Z</time></trkpt><trkpt lat="44.46614369309421" lon="8.030184379178568"><ele>731.8</ele><time>2026-05-02T13:49:53Z</time></trkpt><trkpt lat="44.46611717764187" lon="8.030314835465292"><ele>732.1999999999999</ele><time>2026-05-02T13:49:54Z</time></trkpt><trkpt lat="44.46611188960876" lon="8.030470533230249"><ele>732.5999999999999</ele><time>2026-05-02T13:49:55Z</time></trkpt><trkpt lat="44.466136336449715" lon="8.030649022170905"><ele>733.0</ele><time>2026-05-02T13:49:56Z</time></trkpt><trkpt lat="44.46618603946775" lon="8.0308558971014"><ele>733.0</ele><time>2026-05-02T13:49:57Z</time></trkpt><trkpt lat="44.46625405206882" lon="8.031095665663782"><ele>733.0</ele><time>2026-05-02T13:49:58Z</time></trkpt><trkpt lat="44.46632768300429" lon="8.03135686086862"><ele>733.0</ele><time>2026-05-02T13:49:59Z</time></trkpt><trkpt lat="44.466384053070634" lon="8.031587165515074"><ele>740.5</ele><time>2026-05-02T13:50:00Z</time></trkpt><trkpt lat="44.466425002560825" lon="8.031768354959757"><ele>748.0</ele><time>2026-05-02T13:50:01Z</time></trkpt><trkpt lat="44.46645411731148" lon="8.031933054928205"><ele>755.5</ele><time>2026-05-02T13:50:02Z</time></trkpt><trkpt lat="44.466456101908065" lon="8.032103226220391"><ele>763.0</ele><time>2026-05-02T13:50:03Z</time></trkpt><trkpt lat="44.466430373519586" lon="8.032284647852846"><ele>763.0</ele><time>2026-05-02T13:50:04Z</time></trkpt><trkpt lat="44.466369827921575" lon="8.03244791094095"><ele>763.0</ele><time>2026-05-02T13:50:05Z</time></trkpt><trkpt lat="44.46626810100154" lon="8.032571211826868"><ele>763.0</ele><time>2026-05-02T13:50:06Z</time></trkpt><trkpt lat="44.466143317573035" lon="8.032688284783406"><ele>763.0</ele><time>2026-05-02T13:50:07Z</time></trkpt><trkpt lat="44.4660104206452" lon="8.032772797960682"><ele>759.0</ele><time>2026-05-02T13:50:08Z</time></trkpt><trkpt lat="44.46589005618855" lon="8.032890058468361"><ele>755.0</ele><time>2026-05-02T13:50:09Z</time></trkpt><trkpt lat="44.46578239479994" lon="8.033038232592654"><ele>751.0</ele><time>2026-05-02T13:50:10Z</time></trkpt><trkpt lat="44.465677897677594" lon="8.033246152468259"><ele>749.0</ele><time>2026-05-02T13:50:11Z</time></trkpt><trkpt lat="44.46557130790368" lon="8.033488239580462"><ele>747.0</ele><time>2026-05-02T13:50:12Z</time></trkpt><trkpt lat="44.46544655769208" lon="8.033724922243744"><ele>745.0</ele><time>2026-05-02T13:50:13Z</time></trkpt><trkpt lat="44.46530301683769" lon="8.033909231732334"><ele>745.0</ele><time>2026-05-02T13:50:14Z</time></trkpt><trkpt lat="44.465169631808436" lon="8.034103402923098"><ele>745.0</ele><time>2026-05-02T13:50:15Z</time></trkpt><trkpt lat="44.465015626934346" lon="8.034280974849361"><ele>745.0</ele><time>2026-05-02T13:50:16Z</time></trkpt><trkpt lat="44.464840876311804" lon="8.034459310472483"><ele>746.3333333333334</ele><time>2026-05-02T13:50:17Z</time></trkpt><trkpt lat="44.464645854926616" lon="8.034610593652017"><ele>747.6666666666666</ele><time>2026-05-02T13:50:18Z</time></trkpt><trkpt lat="44.46446220527618" lon="8.034779712855675"><ele>749.0</ele><time>2026-05-02T13:50:19Z</time></trkpt><trkpt lat="44.464289035625065" lon="8.03495719080302"><ele>755.6666666666666</ele><time>2026-05-02T13:50:20Z</time></trkpt><trkpt lat="44.46413318989669" lon="8.035102684064956"><ele>762.3333333333333</ele><time>2026-05-02T13:50:21Z</time></trkpt><trkpt lat="44.46399052452835" lon="8.035234904923286"><ele>769.0</ele><time>2026-05-02T13:50:22Z</time></trkpt><trkpt lat="44.463848554807456" lon="8.035374678798942"><ele>766.6666666666666</ele><time>2026-05-02T13:50:23Z</time></trkpt><trkpt lat="44.463714029090546" lon="8.035503118057495"><ele>764.3333333333333</ele><time>2026-05-02T13:50:24Z</time></trkpt><trkpt lat="44.4635696430887" lon="8.035614019299121"><ele>762.0</ele><time>2026-05-02T13:50:25Z</time></trkpt><trkpt lat="44.463431526643625" lon="8.035698221367578"><ele>762.0</ele><time>2026-05-02T13:50:26Z</time></trkpt><trkpt lat="44.46327077680356" lon="8.03575214182846"><ele>762.0</ele><time>2026-05-02T13:50:27Z</time></trkpt><trkpt lat="44.46309271019061" lon="8.035772203369362"><ele>762.0</ele><time>2026-05-02T13:50:28Z</time></trkpt><trkpt lat="44.4629108995423" lon="8.035785977404704"><ele>769.3333333333333</ele><time>2026-05-02T13:50:29Z</time></trkpt><trkpt lat="44.462746717556556" lon="8.035815683187206"><ele>776.6666666666666</ele><time>2026-05-02T13:50:30Z</time></trkpt><trkpt lat="44.46257563992164" lon="8.035875433072492"><ele>784.0</ele><time>2026-05-02T13:50:31Z</time></trkpt><trkpt lat="44.46238118693775" lon="8.035979042032224"><ele>784.0</ele><time>2026-05-02T13:50:32Z</time></trkpt><trkpt lat="44.46218262479447" lon="8.036094908653153"><ele>784.0</ele><time>2026-05-02T13:50:33Z</time></trkpt><trkpt lat="44.46196980536691" lon="8.036195890325395"><ele>784.0</ele><time>2026-05-02T13:50:34Z</time></trkpt><trkpt lat="44.461760625667566" lon="8.036282364730118"><ele>784.3333333333333</ele><time>2026-05-02T13:50:35Z</time></trkpt><trkpt lat="44.46156189512187" lon="8.036358739522747"><ele>784.6666666666667</ele><time>2026-05-02T13:50:36Z</time></trkpt><trkpt lat="44.46139404284073" lon="8.03642499161621"><ele>785.0</ele><time>2026-05-02T13:50:37Z</time></trkpt><trkpt lat="44.46125834997235" lon="8.036478455419573"><ele>785.0</ele><time>2026-05-02T13:50:38Z</time></trkpt><trkpt lat="44.46109384317877" lon="8.036521281825648"><ele>785.0</ele><time>2026-05-02T13:50:39Z</time></trkpt><trkpt lat="44.46098883648491" lon="8.036589824943587"><ele>785.0</ele><time>2026-05-02T13:50:40Z</time></trkpt><trkpt lat="44.460894386505295" lon="8.036644796013828"><ele>785.0</ele><time>2026-05-02T13:50:41Z</time></trkpt><trkpt lat="44.46082099726871" lon="8.03671954992277"><ele>787.5</ele><time>2026-05-02T13:50:42Z</time></trkpt><trkpt lat="44.460752490114025" lon="8.036845924607862"><ele>790.0</ele><time>2026-05-02T13:50:43Z</time></trkpt><trkpt lat="44.460678853907154" lon="8.037028074434971"><ele>792.5</ele><time>2026-05-02T13:50:44Z</time></trkpt><trkpt lat="44.46060070029512" lon="8.037234952524637"><ele>795.0</ele><time>2026-05-02T13:50:45Z</time></trkpt><trkpt lat="44.46049946777782" lon="8.03743201228462"><ele>793.0</ele><time>2026-05-02T13:50:46Z</time></trkpt><trkpt lat="44.46037227220101" lon="8.037609627909113"><ele>791.0</ele><time>2026-05-02T13:50:47Z</time></trkpt><trkpt lat="44.46021473556139" lon="8.03772891451294"><ele>789.0</ele><time>2026-05-02T13:50:48Z</time></trkpt><trkpt lat="44.46006053143315" lon="8.037864509705527"><ele>789.0</ele><time>2026-05-02T13:50:49Z</time></trkpt><trkpt lat="44.45989819602735" lon="8.0379783356846"><ele>789.0</ele><time>2026-05-02T13:50:50Z</time></trkpt><trkpt lat="44.459719904114515" lon="8.038053138724395"><ele>789.0</ele><time>2026-05-02T13:50:51Z</time></trkpt><trkpt lat="44.45952965804671" lon="8.03810148080894"><ele>786.0</ele><time>2026-05-02T13:50:52Z</time></trkpt><trkpt lat="44.459324737769165" lon="8.03814678321262"><ele>783.0</ele><time>2026-05-02T13:50:53Z</time></trkpt><trkpt lat="44.45913211757675" lon="8.03815588552224"><ele>780.0</ele><time>2026-05-02T13:50:54Z</time></trkpt><trkpt lat="44.4589585218625" lon="8.03812044313335"><ele>780.0</ele><time>2026-05-02T13:50:55Z</time></trkpt><trkpt lat="44.45880101254444" lon="8.038081246944262"><ele>780.0</ele><time>2026-05-02T13:50:56Z</time></trkpt><trkpt lat="44.458654533212616" lon="8.03804688698504"><ele>780.0</ele><time>2026-05-02T13:50:57Z</time></trkpt><trkpt lat="44.45852400651149" lon="8.038034956375608"><ele>780.0</ele><time>2026-05-02T13:50:58Z</time></trkpt><trkpt lat="44.45842328534228" lon="8.038061817016917"><ele>779.5</ele><time>2026-05-02T13:50:59Z</time></trkpt><trkpt lat="44.4583192671553" lon="8.03808115250604"><ele>779.0</ele><time>2026-05-02T13:51:00Z</time></trkpt><trkpt lat="44.45820494884173" lon="8.038085333355717"><ele>778.5</ele><time>2026-05-02T13:51:01Z</time></trkpt><trkpt lat="44.45812022448208" lon="8.038104983639261"><ele>778.0</ele><time>2026-05-02T13:51:02Z</time></trkpt><trkpt lat="44.458096647388935" lon="8.038343091438934"><ele>781.25</ele><time>2026-05-02T13:51:03Z</time></trkpt><trkpt lat="44.458062474669745" lon="8.038485716956338"><ele>784.5</ele><time>2026-05-02T13:51:04Z</time></trkpt><trkpt lat="44.45805696003704" lon="8.038639814507892"><ele>787.75</ele><time>2026-05-02T13:51:05Z</time></trkpt><trkpt lat="44.45807164065136" lon="8.038800133304921"><ele>791.0</ele><time>2026-05-02T13:51:06Z</time></trkpt><trkpt lat="44.45812166900374" lon="8.038984655093062"><ele>790.3333333333334</ele><time>2026-05-02T13:51:07Z</time></trkpt><trkpt lat="44.45819717047402" lon="8.03919339295938"><ele>789.6666666666667</ele><time>2026-05-02T13:51:08Z</time></trkpt><trkpt lat="44.458258573313366" lon="8.039428521788482"><ele>789.0</ele><time>2026-05-02T13:51:09Z</time></trkpt><trkpt lat="44.45833912301232" lon="8.039646163981827"><ele>789.0</ele><time>2026-05-02T13:51:10Z</time></trkpt><trkpt lat="44.45837877507826" lon="8.039863510819039"><ele>789.0</ele><time>2026-05-02T13:51:11Z</time></trkpt><trkpt lat="44.45840422436287" lon="8.040083060300107"><ele>789.0</ele><time>2026-05-02T13:51:12Z</time></trkpt><trkpt lat="44.4584069555605" lon="8.040318151218337"><ele>786.0</ele><time>2026-05-02T13:51:13Z</time></trkpt><trkpt lat="44.45836937755513" lon="8.040563053533566"><ele>783.0</ele><time>2026-05-02T13:51:14Z</time></trkpt><trkpt lat="44.45835076664609" lon="8.040826284266949"><ele>780.0</ele><time>2026-05-02T13:51:15Z</time></trkpt><trkpt lat="44.45831268101903" lon="8.041049393421552"><ele>779.0</ele><time>2026-05-02T13:51:16Z</time></trkpt><trkpt lat="44.45827410190075" lon="8.041242190305386"><ele>778.0</ele><time>2026-05-02T13:51:17Z</time></trkpt><trkpt lat="44.45819727998359" lon="8.041419124532993"><ele>777.0</ele><time>2026-05-02T13:51:18Z</time></trkpt><trkpt lat="44.45813033320591" lon="8.041622162656036"><ele>776.0</ele><time>2026-05-02T13:51:19Z</time></trkpt><trkpt lat="44.45803328822127" lon="8.041818314506092"><ele>775.0</ele><time>2026-05-02T13:51:20Z</time></trkpt><trkpt lat="44.45791038558789" lon="8.041990706571923"><ele>774.0</ele><time>2026-05-02T13:51:21Z</time></trkpt><trkpt lat="44.457780150201934" lon="8.0421565139441"><ele>771.6666666666666</ele><time>2026-05-02T13:51:22Z</time></trkpt><trkpt lat="44.45763580360779" lon="8.04233099248707"><ele>769.3333333333333</ele><time>2026-05-02T13:51:23Z</time></trkpt><trkpt lat="44.457504337136896" lon="8.042513833754493"><ele>767.0</ele><time>2026-05-02T13:51:24Z</time></trkpt><trkpt lat="44.45737855621962" lon="8.04265794947235"><ele>767.0</ele><time>2026-05-02T13:51:25Z</time></trkpt><trkpt lat="44.45727024341058" lon="8.042789789785335"><ele>767.0</ele><time>2026-05-02T13:51:26Z</time></trkpt><trkpt lat="44.45717281909171" lon="8.042932000868245"><ele>767.0</ele><time>2026-05-02T13:51:27Z</time></trkpt><trkpt lat="44.45708341857837" lon="8.043107095463267"><ele>767.0</ele><time>2026-05-02T13:51:28Z</time></trkpt><trkpt lat="44.456999348010676" lon="8.04331181626478"><ele>763.0</ele><time>2026-05-02T13:51:29Z</time></trkpt><trkpt lat="44.45692638975703" lon="8.043547337633452"><ele>759.0</ele><time>2026-05-02T13:51:30Z</time></trkpt><trkpt lat="44.45686629201357" lon="8.043800472483975"><ele>755.0</ele><time>2026-05-02T13:51:31Z</time></trkpt><trkpt lat="44.456806986232266" lon="8.044036781007637"><ele>757.3333333333333</ele><time>2026-05-02T13:51:32Z</time></trkpt><trkpt lat="44.45669851760947" lon="8.044245093708222"><ele>759.6666666666666</ele><time>2026-05-02T13:51:33Z</time></trkpt><trkpt lat="44.45657568822002" lon="8.044479323187604"><ele>762.0</ele><time>2026-05-02T13:51:34Z</time></trkpt><trkpt lat="44.456450588950055" lon="8.044737338205147"><ele>765.0</ele><time>2026-05-02T13:51:35Z</time></trkpt><trkpt lat="44.45630877172863" lon="8.0449882501383"><ele>768.0</ele><time>2026-05-02T13:51:36Z</time></trkpt><trkpt lat="44.456162622592096" lon="8.045233462071632"><ele>765.0</ele><time>2026-05-02T13:51:37Z</time></trkpt><trkpt lat="44.456044428625916" lon="8.0454731559163"><ele>762.0</ele><time>2026-05-02T13:51:38Z</time></trkpt><trkpt lat="44.45594378043617" lon="8.045688937206048"><ele>759.0</ele><time>2026-05-02T13:51:39Z</time></trkpt><trkpt lat="44.45585781683311" lon="8.045881225584685"><ele>759.0</ele><time>2026-05-02T13:51:40Z</time></trkpt><trkpt lat="44.45578326231487" lon="8.046071791262877"><ele>759.0</ele><time>2026-05-02T13:51:41Z</time></trkpt><trkpt lat="44.455668694455184" lon="8.04624174107197"><ele>759.0</ele><time>2026-05-02T13:51:42Z</time></trkpt><trkpt lat="44.455510716599264" lon="8.046359267349507"><ele>759.0</ele><time>2026-05-02T13:51:43Z</time></trkpt><trkpt lat="44.455360126007825" lon="8.046471535139194"><ele>759.0</ele><time>2026-05-02T13:51:44Z</time></trkpt><trkpt lat="44.4552487149811" lon="8.046577097975135"><ele>759.0</ele><time>2026-05-02T13:51:45Z</time></trkpt><trkpt lat="44.4551654468073" lon="8.046658968017057"><ele>759.0</ele><time>2026-05-02T13:51:46Z</time></trkpt><trkpt lat="44.45509619765406" lon="8.046777287940907"><ele>759.0</ele><time>2026-05-02T13:51:47Z</time></trkpt><trkpt lat="44.45504392705527" lon="8.046950394857529"><ele>759.0</ele><time>2026-05-02T13:51:48Z</time></trkpt><trkpt lat="44.45499879245262" lon="8.047167637406053"><ele>759.0</ele><time>2026-05-02T13:51:49Z</time></trkpt><trkpt lat="44.454962976401916" lon="8.047407703202405"><ele>761.0</ele><time>2026-05-02T13:51:50Z</time></trkpt><trkpt lat="44.45493037131132" lon="8.04764802284665"><ele>763.0</ele><time>2026-05-02T13:51:51Z</time></trkpt><trkpt lat="44.45486261572224" lon="8.047884054902156"><ele>765.0</ele><time>2026-05-02T13:51:52Z</time></trkpt><trkpt lat="44.45479450122445" lon="8.04812676771306"><ele>766.0</ele><time>2026-05-02T13:51:53Z</time></trkpt><trkpt lat="44.454715279702626" lon="8.048383163913286"><ele>767.0</ele><time>2026-05-02T13:51:54Z</time></trkpt><trkpt lat="44.45457539239426" lon="8.048618319700507"><ele>768.0</ele><time>2026-05-02T13:51:55Z</time></trkpt><trkpt lat="44.45445304068981" lon="8.048872930825135"><ele>766.6666666666666</ele><time>2026-05-02T13:51:56Z</time></trkpt><trkpt lat="44.45435380529932" lon="8.049151375951693"><ele>765.3333333333333</ele><time>2026-05-02T13:51:57Z</time></trkpt><trkpt lat="44.45426848447166" lon="8.04944078460535"><ele>764.0</ele><time>2026-05-02T13:51:58Z</time></trkpt><trkpt lat="44.45418362072582" lon="8.04968983357644"><ele>764.0</ele><time>2026-05-02T13:51:59Z</time></trkpt><trkpt lat="44.45409251662112" lon="8.049884699616818"><ele>764.0</ele><time>2026-05-02T13:52:00Z</time></trkpt><trkpt lat="44.45401620172661" lon="8.050048381574868"><ele>764.0</ele><time>2026-05-02T13:52:01Z</time></trkpt><trkpt lat="44.45393843493349" lon="8.050189014399233"><ele>764.0</ele><time>2026-05-02T13:52:02Z</time></trkpt><trkpt lat="44.45385992143567" lon="8.050347552601249"><ele>762.3333333333333</ele><time>2026-05-02T13:52:03Z</time></trkpt><trkpt lat="44.453752771496646" lon="8.050478172368125"><ele>760.6666666666666</ele><time>2026-05-02T13:52:04Z</time></trkpt><trkpt lat="44.45361109970795" lon="8.05058457212102"><ele>759.0</ele><time>2026-05-02T13:52:05Z</time></trkpt><trkpt lat="44.4534458749341" lon="8.050701466887144"><ele>764.6666666666667</ele><time>2026-05-02T13:52:06Z</time></trkpt><trkpt lat="44.4532839431093" lon="8.05079976902619"><ele>770.3333333333334</ele><time>2026-05-02T13:52:07Z</time></trkpt><trkpt lat="44.45315203322135" lon="8.050873593869635"><ele>776.0</ele><time>2026-05-02T13:52:08Z</time></trkpt><trkpt lat="44.45302260529144" lon="8.050914837786808"><ele>772.6666666666667</ele><time>2026-05-02T13:52:09Z</time></trkpt><trkpt lat="44.45285047721939" lon="8.050925868527376"><ele>769.3333333333334</ele><time>2026-05-02T13:52:10Z</time></trkpt><trkpt lat="44.4526655368489" lon="8.050959196714198"><ele>766.0</ele><time>2026-05-02T13:52:11Z</time></trkpt><trkpt lat="44.45251919014752" lon="8.050969215538956"><ele>766.0</ele><time>2026-05-02T13:52:12Z</time></trkpt><trkpt lat="44.45240495063902" lon="8.051004373647844"><ele>766.0</ele><time>2026-05-02T13:52:13Z</time></trkpt><trkpt lat="44.45229909034715" lon="8.051062698194562"><ele>766.0</ele><time>2026-05-02T13:52:14Z</time></trkpt><trkpt lat="44.45219372172723" lon="8.051147389648282"><ele>766.0</ele><time>2026-05-02T13:52:15Z</time></trkpt><trkpt lat="44.45209271010875" lon="8.051255616605628"><ele>764.0</ele><time>2026-05-02T13:52:16Z</time></trkpt><trkpt lat="44.45200931057311" lon="8.051388543456659"><ele>762.0</ele><time>2026-05-02T13:52:17Z</time></trkpt><trkpt lat="44.45194220063297" lon="8.051553368051886"><ele>760.0</ele><time>2026-05-02T13:52:18Z</time></trkpt><trkpt lat="44.45188347880893" lon="8.051773054730651"><ele>758.0</ele><time>2026-05-02T13:52:19Z</time></trkpt><trkpt lat="44.451825414959025" lon="8.052029345193484"><ele>758.0</ele><time>2026-05-02T13:52:20Z</time></trkpt><trkpt lat="44.45175405303566" lon="8.05228904463382"><ele>758.0</ele><time>2026-05-02T13:52:21Z</time></trkpt><trkpt lat="44.45166336425417" lon="8.052522798633094"><ele>758.0</ele><time>2026-05-02T13:52:22Z</time></trkpt><trkpt lat="44.45154695357981" lon="8.052728798072076"><ele>761.3333333333333</ele><time>2026-05-02T13:52:23Z</time></trkpt><trkpt lat="44.451438732024165" lon="8.052925970130238"><ele>764.6666666666666</ele><time>2026-05-02T13:52:24Z</time></trkpt><trkpt lat="44.45133875354129" lon="8.05310883555158"><ele>768.0</ele><time>2026-05-02T13:52:25Z</time></trkpt><trkpt lat="44.45127661141274" lon="8.053274162870677"><ele>763.75</ele><time>2026-05-02T13:52:26Z</time></trkpt><trkpt lat="44.45120260351307" lon="8.053410420149586"><ele>759.5</ele><time>2026-05-02T13:52:27Z</time></trkpt><trkpt lat="44.451172668021556" lon="8.05361470349402"><ele>755.25</ele><time>2026-05-02T13:52:28Z</time></trkpt><trkpt lat="44.45111994665896" lon="8.053845353980158"><ele>751.0</ele><time>2026-05-02T13:52:29Z</time></trkpt><trkpt lat="44.45108144589474" lon="8.054095620019764"><ele>752.0</ele><time>2026-05-02T13:52:30Z</time></trkpt><trkpt lat="44.45103444718483" lon="8.054340990660851"><ele>753.0</ele><time>2026-05-02T13:52:31Z</time></trkpt><trkpt lat="44.450975629297005" lon="8.05458034312648"><ele>754.0</ele><time>2026-05-02T13:52:32Z</time></trkpt><trkpt lat="44.450905559266396" lon="8.054804301772673"><ele>755.3333333333334</ele><time>2026-05-02T13:52:33Z</time></trkpt><trkpt lat="44.45082533478754" lon="8.054995420942166"><ele>756.6666666666666</ele><time>2026-05-02T13:52:34Z</time></trkpt><trkpt lat="44.450734979057636" lon="8.055169597253045"><ele>758.0</ele><time>2026-05-02T13:52:35Z</time></trkpt><trkpt lat="44.45062528872017" lon="8.055349314577386"><ele>758.0</ele><time>2026-05-02T13:52:36Z</time></trkpt><trkpt lat="44.45051401579627" lon="8.05553477785598"><ele>758.0</ele><time>2026-05-02T13:52:37Z</time></trkpt><trkpt lat="44.45037938773532" lon="8.055684522322416"><ele>758.0</ele><time>2026-05-02T13:52:38Z</time></trkpt><trkpt lat="44.4502115173643" lon="8.055801323584157"><ele>757.6666666666666</ele><time>2026-05-02T13:52:39Z</time></trkpt><trkpt lat="44.45002677184176" lon="8.055912568258277"><ele>757.3333333333334</ele><time>2026-05-02T13:52:40Z</time></trkpt><trkpt lat="44.44981514139555" lon="8.056061039334004"><ele>757.0</ele><time>2026-05-02T13:52:41Z</time></trkpt><trkpt lat="44.4495825616834" lon="8.056181015839567"><ele>757.0</ele><time>2026-05-02T13:52:42Z</time></trkpt><trkpt lat="44.44937583105878" lon="8.05628997880461"><ele>757.0</ele><time>2026-05-02T13:52:43Z</time></trkpt><trkpt lat="44.44919304627379" lon="8.05636986355066"><ele>757.0</ele><time>2026-05-02T13:52:44Z</time></trkpt><trkpt lat="44.448998915551996" lon="8.056409068448929"><ele>757.0</ele><time>2026-05-02T13:52:45Z</time></trkpt><trkpt lat="44.448825043498054" lon="8.056491555936311"><ele>757.0</ele><time>2026-05-02T13:52:46Z</time></trkpt><trkpt lat="44.44865462597348" lon="8.056583402513356"><ele>757.0</ele><time>2026-05-02T13:52:47Z</time></trkpt><trkpt lat="44.448493989402984" lon="8.056708991659239"><ele>760.6666666666667</ele><time>2026-05-02T13:52:48Z</time></trkpt><trkpt lat="44.448341520016434" lon="8.056859081205872"><ele>764.3333333333334</ele><time>2026-05-02T13:52:49Z</time></trkpt><trkpt lat="44.44818650694992" lon="8.057039848790435"><ele>768.0</ele><time>2026-05-02T13:52:50Z</time></trkpt><trkpt lat="44.448019785095326" lon="8.05725134472518"><ele>773.0</ele><time>2026-05-02T13:52:51Z</time></trkpt><trkpt lat="44.44784318921826" lon="8.057486726771597"><ele>778.0</ele><time>2026-05-02T13:52:52Z</time></trkpt><trkpt lat="44.44765925941493" lon="8.057694188175285"><ele>778.0</ele><time>2026-05-02T13:52:53Z</time></trkpt><trkpt lat="44.447485545556034" lon="8.05787609674117"><ele>778.0</ele><time>2026-05-02T13:52:54Z</time></trkpt><trkpt lat="44.44732002115977" lon="8.058042195539889"><ele>778.0</ele><time>2026-05-02T13:52:55Z</time></trkpt><trkpt lat="44.44717499481522" lon="8.058187290374319"><ele>781.0</ele><time>2026-05-02T13:52:56Z</time></trkpt><trkpt lat="44.447048495261676" lon="8.058310358802705"><ele>784.0</ele><time>2026-05-02T13:52:57Z</time></trkpt><trkpt lat="44.44694077796677" lon="8.058427845346781"><ele>787.0</ele><time>2026-05-02T13:52:58Z</time></trkpt><trkpt lat="44.44685386631861" lon="8.05854313734819"><ele>790.0</ele><time>2026-05-02T13:52:59Z</time></trkpt><trkpt lat="44.446794334081154" lon="8.058686870163248"><ele>790.0</ele><time>2026-05-02T13:53:00Z</time></trkpt><trkpt lat="44.44675439473828" lon="8.058857940481737"><ele>790.0</ele><time>2026-05-02T13:53:01Z</time></trkpt><trkpt lat="44.44672697647957" lon="8.05904275647511"><ele>790.0</ele><time>2026-05-02T13:53:02Z</time></trkpt><trkpt lat="44.44671519030681" lon="8.05922150051694"><ele>790.0</ele><time>2026-05-02T13:53:03Z</time></trkpt><trkpt lat="44.44672105792853" lon="8.059401874392089"><ele>790.6666666666666</ele><time>2026-05-02T13:53:04Z</time></trkpt><trkpt lat="44.446748863506045" lon="8.059594136246286"><ele>791.3333333333333</ele><time>2026-05-02T13:53:05Z</time></trkpt><trkpt lat="44.44677929046606" lon="8.059808913889913"><ele>792.0</ele><time>2026-05-02T13:53:06Z</time></trkpt><trkpt lat="44.446805215311166" lon="8.06003098989794"><ele>790.75</ele><time>2026-05-02T13:53:07Z</time></trkpt><trkpt lat="44.44682803521034" lon="8.060240698745112"><ele>789.5</ele><time>2026-05-02T13:53:08Z</time></trkpt><trkpt lat="44.446857126169554" lon="8.06042775168746"><ele>788.25</ele><time>2026-05-02T13:53:09Z</time></trkpt><trkpt lat="44.44691347907037" lon="8.060616714191648"><ele>787.0</ele><time>2026-05-02T13:53:10Z</time></trkpt><trkpt lat="44.44699923724862" lon="8.060804067825037"><ele>788.75</ele><time>2026-05-02T13:53:11Z</time></trkpt><trkpt lat="44.44710302440098" lon="8.06097378303479"><ele>790.5</ele><time>2026-05-02T13:53:12Z</time></trkpt><trkpt lat="44.447169893599366" lon="8.061129408481923"><ele>792.25</ele><time>2026-05-02T13:53:13Z</time></trkpt><trkpt lat="44.44720863478736" lon="8.061304022718382"><ele>794.0</ele><time>2026-05-02T13:53:14Z</time></trkpt><trkpt lat="44.44722800985736" lon="8.061496515305606"><ele>791.0</ele><time>2026-05-02T13:53:15Z</time></trkpt><trkpt lat="44.44719975015997" lon="8.061724016770345"><ele>788.0</ele><time>2026-05-02T13:53:16Z</time></trkpt><trkpt lat="44.44719451128947" lon="8.06195420906562"><ele>785.0</ele><time>2026-05-02T13:53:17Z</time></trkpt><trkpt lat="44.44717765446775" lon="8.062174341975133"><ele>785.0</ele><time>2026-05-02T13:53:18Z</time></trkpt><trkpt lat="44.447163737148976" lon="8.062413408237447"><ele>785.0</ele><time>2026-05-02T13:53:19Z</time></trkpt><trkpt lat="44.44714962250576" lon="8.062670017434147"><ele>785.0</ele><time>2026-05-02T13:53:20Z</time></trkpt><trkpt lat="44.447134304342526" lon="8.06294158428672"><ele>779.0</ele><time>2026-05-02T13:53:21Z</time></trkpt><trkpt lat="44.44711549794035" lon="8.063217561354483"><ele>773.0</ele><time>2026-05-02T13:53:22Z</time></trkpt><trkpt lat="44.447098486592495" lon="8.063498222311228"><ele>767.0</ele><time>2026-05-02T13:53:23Z</time></trkpt><trkpt lat="44.44707961930604" lon="8.063770964641794"><ele>767.0</ele><time>2026-05-02T13:53:24Z</time></trkpt><trkpt lat="44.44706186300278" lon="8.064010420251234"><ele>767.0</ele><time>2026-05-02T13:53:25Z</time></trkpt><trkpt lat="44.44704362296015" lon="8.064229130460067"><ele>767.0</ele><time>2026-05-02T13:53:26Z</time></trkpt><trkpt lat="44.4470221519113" lon="8.064415625751312"><ele>768.25</ele><time>2026-05-02T13:53:27Z</time></trkpt><trkpt lat="44.44695934086209" lon="8.064572926211802"><ele>769.5</ele><time>2026-05-02T13:53:28Z</time></trkpt><trkpt lat="44.44687488532507" lon="8.064736125553457"><ele>770.75</ele><time>2026-05-02T13:53:29Z</time></trkpt><trkpt lat="44.44679848494369" lon="8.064931886185017"><ele>772.0</ele><time>2026-05-02T13:53:30Z</time></trkpt><trkpt lat="44.446714527036676" lon="8.06510971980928"><ele>774.3333333333333</ele><time>2026-05-02T13:53:31Z</time></trkpt><trkpt lat="44.446652437003415" lon="8.06529935169506"><ele>776.6666666666667</ele><time>2026-05-02T13:53:32Z</time></trkpt><trkpt lat="44.44661354776899" lon="8.065499471708167"><ele>779.0</ele><time>2026-05-02T13:53:33Z</time></trkpt><trkpt lat="44.4465965628232" lon="8.065719950527763"><ele>780.0</ele><time>2026-05-02T13:53:34Z</time></trkpt><trkpt lat="44.446594680704735" lon="8.065961201915764"><ele>781.0</ele><time>2026-05-02T13:53:35Z</time></trkpt><trkpt lat="44.44659746736164" lon="8.066213626208716"><ele>782.0</ele><time>2026-05-02T13:53:36Z</time></trkpt><trkpt lat="44.44660783697746" lon="8.066479394493339"><ele>780.3333333333334</ele><time>2026-05-02T13:53:37Z</time></trkpt><trkpt lat="44.44662368662573" lon="8.066733689687087"><ele>778.6666666666667</ele><time>2026-05-02T13:53:38Z</time></trkpt><trkpt lat="44.44662936120403" lon="8.066960601991081"><ele>777.0</ele><time>2026-05-02T13:53:39Z</time></trkpt><trkpt lat="44.446624366164585" lon="8.067155868807045"><ele>777.0</ele><time>2026-05-02T13:53:40Z</time></trkpt><trkpt lat="44.44659894743244" lon="8.067352132936426"><ele>777.0</ele><time>2026-05-02T13:53:41Z</time></trkpt><trkpt lat="44.4465443789652" lon="8.06757788365236"><ele>777.0</ele><time>2026-05-02T13:53:42Z</time></trkpt><trkpt lat="44.44646278480327" lon="8.067802913698994"><ele>778.0</ele><time>2026-05-02T13:53:43Z</time></trkpt><trkpt lat="44.44638386466524" lon="8.067998178836572"><ele>779.0</ele><time>2026-05-02T13:53:44Z</time></trkpt><trkpt lat="44.44630103024513" lon="8.068164961906051"><ele>780.0</ele><time>2026-05-02T13:53:45Z</time></trkpt><trkpt lat="44.44623729010486" lon="8.06833289276914"><ele>781.0</ele><time>2026-05-02T13:53:46Z</time></trkpt><trkpt lat="44.44620988887099" lon="8.068513837818589"><ele>777.6666666666666</ele><time>2026-05-02T13:53:47Z</time></trkpt><trkpt lat="44.44620178829499" lon="8.068714380648153"><ele>774.3333333333333</ele><time>2026-05-02T13:53:48Z</time></trkpt><trkpt lat="44.44621157615811" lon="8.068953956355223"><ele>771.0</ele><time>2026-05-02T13:53:49Z</time></trkpt><trkpt lat="44.446241353094706" lon="8.069233458033043"><ele>771.0</ele><time>2026-05-02T13:53:50Z</time></trkpt><trkpt lat="44.446281677673134" lon="8.069545483274375"><ele>771.0</ele><time>2026-05-02T13:53:51Z</time></trkpt><trkpt lat="44.446330764031465" lon="8.069870938471109"><ele>776.5</ele><time>2026-05-02T13:53:52Z</time></trkpt><trkpt lat="44.446362509219256" lon="8.070200212150922"><ele>782.0</ele><time>2026-05-02T13:53:53Z</time></trkpt><trkpt lat="44.446407211852716" lon="8.070530826943278"><ele>782.0</ele><time>2026-05-02T13:53:54Z</time></trkpt><trkpt lat="44.44646244575377" lon="8.070849905464538"><ele>782.0</ele><time>2026-05-02T13:53:55Z</time></trkpt><trkpt lat="44.44650590332031" lon="8.071169081205163"><ele>782.0</ele><time>2026-05-02T13:53:56Z</time></trkpt><trkpt lat="44.44655604687669" lon="8.07149219676531"><ele>782.0</ele><time>2026-05-02T13:53:57Z</time></trkpt><trkpt lat="44.44661743685682" lon="8.071808235931972"><ele>780.0</ele><time>2026-05-02T13:53:58Z</time></trkpt><trkpt lat="44.44669351898252" lon="8.072116135425919"><ele>778.0</ele><time>2026-05-02T13:53:59Z</time></trkpt><trkpt lat="44.4467677966395" lon="8.072415249505232"><ele>777.0</ele><time>2026-05-02T13:54:00Z</time></trkpt><trkpt lat="44.446831029568976" lon="8.072698735554123"><ele>776.0</ele><time>2026-05-02T13:54:01Z</time></trkpt><trkpt lat="44.44688111864932" lon="8.072979892107499"><ele>775.0</ele><time>2026-05-02T13:54:02Z</time></trkpt><trkpt lat="44.446902684127345" lon="8.07327079269398"><ele>772.6666666666666</ele><time>2026-05-02T13:54:03Z</time></trkpt><trkpt lat="44.446939921279956" lon="8.073566801496689"><ele>770.3333333333333</ele><time>2026-05-02T13:54:04Z</time></trkpt><trkpt lat="44.44697895976114" lon="8.07386918857747"><ele>768.0</ele><time>2026-05-02T13:54:05Z</time></trkpt><trkpt lat="44.447031544722584" lon="8.074152918390276"><ele>766.6666666666666</ele><time>2026-05-02T13:54:06Z</time></trkpt><trkpt lat="44.447060867829926" lon="8.074410075238035"><ele>765.3333333333333</ele><time>2026-05-02T13:54:07Z</time></trkpt><trkpt lat="44.44708205634729" lon="8.0746113464542"><ele>764.0</ele><time>2026-05-02T13:54:08Z</time></trkpt><trkpt lat="44.447090947806466" lon="8.074791498704439"><ele>764.5</ele><time>2026-05-02T13:54:09Z</time></trkpt><trkpt lat="44.44708012378044" lon="8.074967934433547"><ele>765.0</ele><time>2026-05-02T13:54:10Z</time></trkpt><trkpt lat="44.44704039723942" lon="8.07515460543958"><ele>765.5</ele><time>2026-05-02T13:54:11Z</time></trkpt><trkpt lat="44.44696555762099" lon="8.075346032272606"><ele>766.0</ele><time>2026-05-02T13:54:12Z</time></trkpt><trkpt lat="44.44686327869098" lon="8.075550883541696"><ele>766.0</ele><time>2026-05-02T13:54:13Z</time></trkpt><trkpt lat="44.44675811900302" lon="8.075753931601405"><ele>766.0</ele><time>2026-05-02T13:54:14Z</time></trkpt><trkpt lat="44.446675794525994" lon="8.075940584237935"><ele>766.0</ele><time>2026-05-02T13:54:15Z</time></trkpt><trkpt lat="44.44661497655319" lon="8.076108125482705"><ele>769.0</ele><time>2026-05-02T13:54:16Z</time></trkpt><trkpt lat="44.44657394131454" lon="8.076305441031813"><ele>772.0</ele><time>2026-05-02T13:54:17Z</time></trkpt><trkpt lat="44.44655651128956" lon="8.07654719358852"><ele>775.0</ele><time>2026-05-02T13:54:18Z</time></trkpt><trkpt lat="44.44652948804675" lon="8.076834286492913"><ele>777.6666666666666</ele><time>2026-05-02T13:54:19Z</time></trkpt><trkpt lat="44.44646683901091" lon="8.077112230486541"><ele>780.3333333333333</ele><time>2026-05-02T13:54:20Z</time></trkpt><trkpt lat="44.4464230063274" lon="8.07741173680689"><ele>783.0</ele><time>2026-05-02T13:54:21Z</time></trkpt><trkpt lat="44.4463985339015" lon="8.077742783934536"><ele>786.0</ele><time>2026-05-02T13:54:22Z</time></trkpt><trkpt lat="44.446375743228664" lon="8.078077979483231"><ele>789.0</ele><time>2026-05-02T13:54:23Z</time></trkpt><trkpt lat="44.4463584880383" lon="8.078363166607058"><ele>792.0</ele><time>2026-05-02T13:54:24Z</time></trkpt><trkpt lat="44.44635844456861" lon="8.078592539501646"><ele>792.25</ele><time>2026-05-02T13:54:25Z</time></trkpt><trkpt lat="44.44633883701312" lon="8.07878009056876"><ele>792.5</ele><time>2026-05-02T13:54:26Z</time></trkpt><trkpt lat="44.446279857394785" lon="8.078954520082666"><ele>792.75</ele><time>2026-05-02T13:54:27Z</time></trkpt><trkpt lat="44.4462053778862" lon="8.079155104869"><ele>793.0</ele><time>2026-05-02T13:54:28Z</time></trkpt><trkpt lat="44.446109226190984" lon="8.079391655639613"><ele>785.5</ele><time>2026-05-02T13:54:29Z</time></trkpt><trkpt lat="44.446000242564814" lon="8.079660504659584"><ele>778.0</ele><time>2026-05-02T13:54:30Z</time></trkpt><trkpt lat="44.44588347631432" lon="8.079948552331592"><ele>778.0</ele><time>2026-05-02T13:54:31Z</time></trkpt><trkpt lat="44.44576375057101" lon="8.080241623984534"><ele>778.0</ele><time>2026-05-02T13:54:32Z</time></trkpt><trkpt lat="44.4456448201691" lon="8.080522849091196"><ele>781.3333333333333</ele><time>2026-05-02T13:54:33Z</time></trkpt><trkpt lat="44.445532381570175" lon="8.080780863342305"><ele>784.6666666666667</ele><time>2026-05-02T13:54:34Z</time></trkpt><trkpt lat="44.445438472234194" lon="8.08103091511597"><ele>788.0</ele><time>2026-05-02T13:54:35Z</time></trkpt><trkpt lat="44.44534207122181" lon="8.081252210256471"><ele>781.6666666666667</ele><time>2026-05-02T13:54:36Z</time></trkpt><trkpt lat="44.4452597571186" lon="8.081452725524322"><ele>775.3333333333333</ele><time>2026-05-02T13:54:37Z</time></trkpt><trkpt lat="44.44519619394451" lon="8.081644496861756"><ele>769.0</ele><time>2026-05-02T13:54:38Z</time></trkpt><trkpt lat="44.44515115291532" lon="8.081851707557142"><ele>769.0</ele><time>2026-05-02T13:54:39Z</time></trkpt><trkpt lat="44.44512246665136" lon="8.082113714233882"><ele>769.0</ele><time>2026-05-02T13:54:40Z</time></trkpt><trkpt lat="44.44508185416751" lon="8.08239869627312"><ele>769.0</ele><time>2026-05-02T13:54:41Z</time></trkpt><trkpt lat="44.44505531369146" lon="8.08269116865927"><ele>770.6666666666666</ele><time>2026-05-02T13:54:42Z</time></trkpt><trkpt lat="44.44503500622559" lon="8.082939098539597"><ele>772.3333333333333</ele><time>2026-05-02T13:54:43Z</time></trkpt><trkpt lat="44.44501696678565" lon="8.08315933870381"><ele>774.0</ele><time>2026-05-02T13:54:44Z</time></trkpt><trkpt lat="44.44500150893685" lon="8.083348060586692"><ele>774.75</ele><time>2026-05-02T13:54:45Z</time></trkpt><trkpt lat="44.44500044632871" lon="8.083528877532695"><ele>775.5</ele><time>2026-05-02T13:54:46Z</time></trkpt><trkpt lat="44.444981981886095" lon="8.083699530989744"><ele>776.25</ele><time>2026-05-02T13:54:47Z</time></trkpt><trkpt lat="44.44494460833313" lon="8.083859222317288"><ele>777.0</ele><time>2026-05-02T13:54:48Z</time></trkpt><trkpt lat="44.44490807652839" lon="8.083995141722147"><ele>778.5</ele><time>2026-05-02T13:54:49Z</time></trkpt><trkpt lat="44.444853974419885" lon="8.084117074690672"><ele>780.0</ele><time>2026-05-02T13:54:50Z</time></trkpt><trkpt lat="44.44477288964324" lon="8.084239818746488"><ele>781.5</ele><time>2026-05-02T13:54:51Z</time></trkpt><trkpt lat="44.44465807533997" lon="8.0843485975235"><ele>783.0</ele><time>2026-05-02T13:54:52Z</time></trkpt><trkpt lat="44.44454669228212" lon="8.084483464561362"><ele>781.0</ele><time>2026-05-02T13:54:53Z</time></trkpt><trkpt lat="44.444439080641565" lon="8.084601563014816"><ele>779.0</ele><time>2026-05-02T13:54:54Z</time></trkpt><trkpt lat="44.44432926945445" lon="8.084715696448084"><ele>777.0</ele><time>2026-05-02T13:54:55Z</time></trkpt><trkpt lat="44.44423857350261" lon="8.0848437906293"><ele>775.0</ele><time>2026-05-02T13:54:56Z</time></trkpt><trkpt lat="44.44414549143369" lon="8.084976538056402"><ele>775.0</ele><time>2026-05-02T13:54:57Z</time></trkpt><trkpt lat="44.4440709210892" lon="8.085112947596883"><ele>775.0</ele><time>2026-05-02T13:54:58Z</time></trkpt><trkpt lat="44.44398787427611" lon="8.085212849847453"><ele>775.0</ele><time>2026-05-02T13:54:59Z</time></trkpt><trkpt lat="44.443899728797525" lon="8.085280553567355"><ele>775.0</ele><time>2026-05-02T13:55:00Z</time></trkpt><trkpt lat="44.44380407083623" lon="8.085336106343705"><ele>775.0</ele><time>2026-05-02T13:55:01Z</time></trkpt><trkpt lat="44.44369441065397" lon="8.0853848893154"><ele>771.25</ele><time>2026-05-02T13:55:02Z</time></trkpt><trkpt lat="44.44355505663972" lon="8.085378213626601"><ele>767.5</ele><time>2026-05-02T13:55:03Z</time></trkpt><trkpt lat="44.443415151164416" lon="8.08540984691651"><ele>763.75</ele><time>2026-05-02T13:55:04Z</time></trkpt><trkpt lat="44.443277196353826" lon="8.085419599441542"><ele>760.0</ele><time>2026-05-02T13:55:05Z</time></trkpt><trkpt lat="44.4431471862192" lon="8.08543021770085"><ele>760.0</ele><time>2026-05-02T13:55:06Z</time></trkpt><trkpt lat="44.44302056381272" lon="8.085442359714104"><ele>760.0</ele><time>2026-05-02T13:55:07Z</time></trkpt><trkpt lat="44.442893848371796" lon="8.085472926867634"><ele>760.0</ele><time>2026-05-02T13:55:08Z</time></trkpt><trkpt lat="44.44275052388453" lon="8.085530940234197"><ele>760.0</ele><time>2026-05-02T13:55:09Z</time></trkpt><trkpt lat="44.44261422988931" lon="8.08560094719312"><ele>761.75</ele><time>2026-05-02T13:55:10Z</time></trkpt><trkpt lat="44.442487905334296" lon="8.085662780483572"><ele>763.5</ele><time>2026-05-02T13:55:11Z</time></trkpt><trkpt lat="44.44237053251049" lon="8.085720185524325"><ele>765.25</ele><time>2026-05-02T13:55:12Z</time></trkpt><trkpt lat="44.442259524433226" lon="8.085774782761554"><ele>767.0</ele><time>2026-05-02T13:55:13Z</time></trkpt><trkpt lat="44.44215139241358" lon="8.085822289735367"><ele>765.0</ele><time>2026-05-02T13:55:14Z</time></trkpt><trkpt lat="44.44204235075539" lon="8.085858592167792"><ele>763.0</ele><time>2026-05-02T13:55:15Z</time></trkpt><trkpt lat="44.44193750654695" lon="8.08590538633466"><ele>761.0</ele><time>2026-05-02T13:55:16Z</time></trkpt><trkpt lat="44.4418458347795" lon="8.085978908524604"><ele>759.0</ele><time>2026-05-02T13:55:17Z</time></trkpt><trkpt lat="44.44176817944078" lon="8.086084210278273"><ele>757.0</ele><time>2026-05-02T13:55:18Z</time></trkpt><trkpt lat="44.44170010926781" lon="8.086235935841662"><ele>757.0</ele><time>2026-05-02T13:55:19Z</time></trkpt><trkpt lat="44.44163398681976" lon="8.086406651138073"><ele>757.0</ele><time>2026-05-02T13:55:20Z</time></trkpt><trkpt lat="44.44156964074693" lon="8.08657717709353"><ele>757.0</ele><time>2026-05-02T13:55:21Z</time></trkpt><trkpt lat="44.44149931667601" lon="8.086769496108241"><ele>757.0</ele><time>2026-05-02T13:55:22Z</time></trkpt><trkpt lat="44.44142776967443" lon="8.086964565067142"><ele>759.5</ele><time>2026-05-02T13:55:23Z</time></trkpt><trkpt lat="44.44135676183077" lon="8.087139151370796"><ele>762.0</ele><time>2026-05-02T13:55:24Z</time></trkpt><trkpt lat="44.44129406151251" lon="8.08730826211232"><ele>764.5</ele><time>2026-05-02T13:55:25Z</time></trkpt><trkpt lat="44.44123736355538" lon="8.08748093571465"><ele>767.0</ele><time>2026-05-02T13:55:26Z</time></trkpt><trkpt lat="44.44116461873569" lon="8.08765750328636"><ele>763.25</ele><time>2026-05-02T13:55:27Z</time></trkpt><trkpt lat="44.44109910048004" lon="8.087832934826661"><ele>759.5</ele><time>2026-05-02T13:55:28Z</time></trkpt><trkpt lat="44.44103888100103" lon="8.088011911997382"><ele>755.75</ele><time>2026-05-02T13:55:29Z</time></trkpt><trkpt lat="44.44099462144063" lon="8.088220002039078"><ele>752.0</ele><time>2026-05-02T13:55:30Z</time></trkpt><trkpt lat="44.4409439444098" lon="8.088465679299677"><ele>752.0</ele><time>2026-05-02T13:55:31Z</time></trkpt><trkpt lat="44.440844649026914" lon="8.088751144598152"><ele>752.0</ele><time>2026-05-02T13:55:32Z</time></trkpt><trkpt lat="44.440745877511674" lon="8.089059156351572"><ele>753.3333333333333</ele><time>2026-05-02T13:55:33Z</time></trkpt><trkpt lat="44.440656323707216" lon="8.089358228632513"><ele>754.6666666666666</ele><time>2026-05-02T13:55:34Z</time></trkpt><trkpt lat="44.44056679657749" lon="8.089599792944364"><ele>756.0</ele><time>2026-05-02T13:55:35Z</time></trkpt><trkpt lat="44.44050118751879" lon="8.089806851786573"><ele>751.6666666666666</ele><time>2026-05-02T13:55:36Z</time></trkpt><trkpt lat="44.44043367266182" lon="8.089995343937842"><ele>747.3333333333333</ele><time>2026-05-02T13:55:37Z</time></trkpt><trkpt lat="44.44034204172974" lon="8.090188467438344"><ele>743.0</ele><time>2026-05-02T13:55:38Z</time></trkpt><trkpt lat="44.440227177835524" lon="8.09036729146623"><ele>743.0</ele><time>2026-05-02T13:55:39Z</time></trkpt><trkpt lat="44.4401228474594" lon="8.090517150097094"><ele>743.0</ele><time>2026-05-02T13:55:40Z</time></trkpt><trkpt lat="44.44004880562505" lon="8.090653637474501"><ele>743.0</ele><time>2026-05-02T13:55:41Z</time></trkpt><trkpt lat="44.44000053743929" lon="8.09079179178534"><ele>743.0</ele><time>2026-05-02T13:55:42Z</time></trkpt><trkpt lat="44.439978611670945" lon="8.090960536854501"><ele>744.6666666666666</ele><time>2026-05-02T13:55:43Z</time></trkpt><trkpt lat="44.43997073105691" lon="8.09119500108069"><ele>746.3333333333334</ele><time>2026-05-02T13:55:44Z</time></trkpt><trkpt lat="44.43996963938095" lon="8.091459083879565"><ele>748.0</ele><time>2026-05-02T13:55:45Z</time></trkpt><trkpt lat="44.43996577556109" lon="8.091711950368882"><ele>748.0</ele><time>2026-05-02T13:55:46Z</time></trkpt><trkpt lat="44.43995504271884" lon="8.091949828525525"><ele>748.0</ele><time>2026-05-02T13:55:47Z</time></trkpt><trkpt lat="44.43994118336593" lon="8.092141733344253"><ele>748.0</ele><time>2026-05-02T13:55:48Z</time></trkpt><trkpt lat="44.43991842811631" lon="8.092320226961752"><ele>748.0</ele><time>2026-05-02T13:55:49Z</time></trkpt><trkpt lat="44.43987443175465" lon="8.092493728468655"><ele>747.3333333333334</ele><time>2026-05-02T13:55:50Z</time></trkpt><trkpt lat="44.43979290877824" lon="8.092694945940178"><ele>746.6666666666666</ele><time>2026-05-02T13:55:51Z</time></trkpt><trkpt lat="44.43966971070454" lon="8.092901298438287"><ele>746.0</ele><time>2026-05-02T13:55:52Z</time></trkpt><trkpt lat="44.43956204913367" lon="8.093128209803956"><ele>743.0</ele><time>2026-05-02T13:55:53Z</time></trkpt><trkpt lat="44.43945186274573" lon="8.093310756778925"><ele>740.0</ele><time>2026-05-02T13:55:54Z</time></trkpt><trkpt lat="44.43930852300221" lon="8.093503661783986"><ele>737.0</ele><time>2026-05-02T13:55:55Z</time></trkpt><trkpt lat="44.439144209293794" lon="8.093691906775176"><ele>737.0</ele><time>2026-05-02T13:55:56Z</time></trkpt><trkpt lat="44.438965201486354" lon="8.09389107012949"><ele>737.0</ele><time>2026-05-02T13:55:57Z</time></trkpt><trkpt lat="44.43879481083115" lon="8.0940841557297"><ele>737.0</ele><time>2026-05-02T13:55:58Z</time></trkpt><trkpt lat="44.438653099450036" lon="8.094239113839128"><ele>737.3333333333333</ele><time>2026-05-02T13:55:59Z</time></trkpt><trkpt lat="44.438529394031626" lon="8.09437069529092"><ele>737.6666666666666</ele><time>2026-05-02T13:56:00Z</time></trkpt><trkpt lat="44.438402231645995" lon="8.094481727115157"><ele>738.0</ele><time>2026-05-02T13:56:01Z</time></trkpt><trkpt lat="44.438260305428145" lon="8.094562520641219"><ele>738.0</ele><time>2026-05-02T13:56:02Z</time></trkpt><trkpt lat="44.43808790873763" lon="8.094620194129007"><ele>738.0</ele><time>2026-05-02T13:56:03Z</time></trkpt><trkpt lat="44.43790204488855" lon="8.09463620195628"><ele>738.0</ele><time>2026-05-02T13:56:04Z</time></trkpt><trkpt lat="44.437695906775986" lon="8.094624076126522"><ele>735.6666666666666</ele><time>2026-05-02T13:56:05Z</time></trkpt><trkpt lat="44.437476095771906" lon="8.094608402298697"><ele>733.3333333333333</ele><time>2026-05-02T13:56:06Z</time></trkpt><trkpt lat="44.437269958518456" lon="8.094595504380342"><ele>731.0</ele><time>2026-05-02T13:56:07Z</time></trkpt><trkpt lat="44.43708210957524" lon="8.094576382212786"><ele>730.6666666666666</ele><time>2026-05-02T13:56:08Z</time></trkpt><trkpt lat="44.43691061620231" lon="8.094548645828143"><ele>730.3333333333334</ele><time>2026-05-02T13:56:09Z</time></trkpt><trkpt lat="44.43675662901476" lon="8.094509297883663"><ele>730.0</ele><time>2026-05-02T13:56:10Z</time></trkpt><trkpt lat="44.436617205545936" lon="8.094453240426699"><ele>730.0</ele><time>2026-05-02T13:56:11Z</time></trkpt><trkpt lat="44.43648787975897" lon="8.094405566519287"><ele>730.0</ele><time>2026-05-02T13:56:12Z</time></trkpt><trkpt lat="44.43636962407384" lon="8.094385425559343"><ele>730.0</ele><time>2026-05-02T13:56:13Z</time></trkpt><trkpt lat="44.4362510398307" lon="8.094393463857774"><ele>730.0</ele><time>2026-05-02T13:56:14Z</time></trkpt><trkpt lat="44.436142054897566" lon="8.094412403982803"><ele>729.0</ele><time>2026-05-02T13:56:15Z</time></trkpt><trkpt lat="44.43604602141423" lon="8.094523280601512"><ele>728.0</ele><time>2026-05-02T13:56:16Z</time></trkpt><trkpt lat="44.435947782423106" lon="8.094654189687907"><ele>727.0</ele><time>2026-05-02T13:56:17Z</time></trkpt><trkpt lat="44.43583981228833" lon="8.094815443729724"><ele>726.0</ele><time>2026-05-02T13:56:18Z</time></trkpt><trkpt lat="44.435744824249575" lon="8.095026390623682"><ele>724.5</ele><time>2026-05-02T13:56:19Z</time></trkpt><trkpt lat="44.435654126008465" lon="8.095224151908194"><ele>723.0</ele><time>2026-05-02T13:56:20Z</time></trkpt><trkpt lat="44.4355671253935" lon="8.095370619196435"><ele>721.5</ele><time>2026-05-02T13:56:21Z</time></trkpt><trkpt lat="44.43546552499143" lon="8.095483880174545"><ele>720.0</ele><time>2026-05-02T13:56:22Z</time></trkpt><trkpt lat="44.435318253749585" lon="8.095575694801722"><ele>720.0</ele><time>2026-05-02T13:56:23Z</time></trkpt><trkpt lat="44.435146055960395" lon="8.095641589103213"><ele>720.0</ele><time>2026-05-02T13:56:24Z</time></trkpt><trkpt lat="44.43497978245005" lon="8.09570986547706"><ele>720.0</ele><time>2026-05-02T13:56:25Z</time></trkpt><trkpt lat="44.43485426025479" lon="8.095746479133721"><ele>720.0</ele><time>2026-05-02T13:56:26Z</time></trkpt><trkpt lat="44.43472959047194" lon="8.095830533348371"><ele>720.0</ele><time>2026-05-02T13:56:27Z</time></trkpt><trkpt lat="44.43462714827999" lon="8.095976594506679"><ele>720.0</ele><time>2026-05-02T13:56:28Z</time></trkpt><trkpt lat="44.434517620947965" lon="8.0961425464122"><ele>720.0</ele><time>2026-05-02T13:56:29Z</time></trkpt><trkpt lat="44.43441305484345" lon="8.096338969744465"><ele>720.0</ele><time>2026-05-02T13:56:30Z</time></trkpt><trkpt lat="44.434296086644856" lon="8.096571521573399"><ele>720.0</ele><time>2026-05-02T13:56:31Z</time></trkpt><trkpt lat="44.43415295947324" lon="8.096837213971217"><ele>720.0</ele><time>2026-05-02T13:56:32Z</time></trkpt><trkpt lat="44.43402839203397" lon="8.097068145218904"><ele>721.25</ele><time>2026-05-02T13:56:33Z</time></trkpt><trkpt lat="44.43391022951323" lon="8.097243545222263"><ele>722.5</ele><time>2026-05-02T13:56:34Z</time></trkpt><trkpt lat="44.43383645568948" lon="8.097406461148301"><ele>723.75</ele><time>2026-05-02T13:56:35Z</time></trkpt><trkpt lat="44.43374241499142" lon="8.097530694858659"><ele>725.0</ele><time>2026-05-02T13:56:36Z</time></trkpt><trkpt lat="44.43362122130384" lon="8.097638080852334"><ele>725.0</ele><time>2026-05-02T13:56:37Z</time></trkpt><trkpt lat="44.43346844762068" lon="8.0977197544695"><ele>725.0</ele><time>2026-05-02T13:56:38Z</time></trkpt><trkpt lat="44.43329816496871" lon="8.09778859657598"><ele>725.0</ele><time>2026-05-02T13:56:39Z</time></trkpt><trkpt lat="44.43314263074586" lon="8.097845759116478"><ele>725.0</ele><time>2026-05-02T13:56:40Z</time></trkpt><trkpt lat="44.43299964730464" lon="8.097869939448806"><ele>725.0</ele><time>2026-05-02T13:56:41Z</time></trkpt><trkpt lat="44.43283289167411" lon="8.097852443481534"><ele>725.0</ele><time>2026-05-02T13:56:42Z</time></trkpt><trkpt lat="44.43266487445362" lon="8.097805014835975"><ele>724.25</ele><time>2026-05-02T13:56:43Z</time></trkpt><trkpt lat="44.43253025746171" lon="8.09776231271708"><ele>723.5</ele><time>2026-05-02T13:56:44Z</time></trkpt><trkpt lat="44.4324301055641" lon="8.097753962824244"><ele>722.75</ele><time>2026-05-02T13:56:45Z</time></trkpt><trkpt lat="44.432321740445055" lon="8.097755245405434"><ele>722.0</ele><time>2026-05-02T13:56:46Z</time></trkpt><trkpt lat="44.4321952124228" lon="8.097803160924563"><ele>718.3333333333333</ele><time>2026-05-02T13:56:47Z</time></trkpt><trkpt lat="44.432012314672704" lon="8.097906039965196"><ele>714.6666666666666</ele><time>2026-05-02T13:56:48Z</time></trkpt><trkpt lat="44.43184654443934" lon="8.098045490820041"><ele>711.0</ele><time>2026-05-02T13:56:49Z</time></trkpt><trkpt lat="44.43166720607934" lon="8.098212293274846"><ele>715.3333333333334</ele><time>2026-05-02T13:56:50Z</time></trkpt><trkpt lat="44.43147922307988" lon="8.098388286429921"><ele>719.6666666666667</ele><time>2026-05-02T13:56:51Z</time></trkpt><trkpt lat="44.43131045476411" lon="8.098543266342622"><ele>724.0</ele><time>2026-05-02T13:56:52Z</time></trkpt><trkpt lat="44.4311628051355" lon="8.09867153405053"><ele>724.0</ele><time>2026-05-02T13:56:53Z</time></trkpt><trkpt lat="44.431037694886655" lon="8.098769603470345"><ele>724.0</ele><time>2026-05-02T13:56:54Z</time></trkpt><trkpt lat="44.43091536572549" lon="8.098813423293706"><ele>724.0</ele><time>2026-05-02T13:56:55Z</time></trkpt><trkpt lat="44.43079497096903" lon="8.098863287120466"><ele>724.0</ele><time>2026-05-02T13:56:56Z</time></trkpt><trkpt lat="44.43064299246443" lon="8.098796722582161"><ele>725.3333333333334</ele><time>2026-05-02T13:56:57Z</time></trkpt><trkpt lat="44.43046403198052" lon="8.098748957528265"><ele>726.6666666666666</ele><time>2026-05-02T13:56:58Z</time></trkpt><trkpt lat="44.430269158618145" lon="8.0987122794316"><ele>728.0</ele><time>2026-05-02T13:56:59Z</time></trkpt><trkpt lat="44.43007643337456" lon="8.098668369869994"><ele>728.0</ele><time>2026-05-02T13:57:00Z</time></trkpt><trkpt lat="44.429906650910446" lon="8.09866509464504"><ele>728.0</ele><time>2026-05-02T13:57:01Z</time></trkpt><trkpt lat="44.42973981574145" lon="8.098705687835462"><ele>728.0</ele><time>2026-05-02T13:57:02Z</time></trkpt><trkpt lat="44.42959469747117" lon="8.098768065238097"><ele>727.75</ele><time>2026-05-02T13:57:03Z</time></trkpt><trkpt lat="44.42946597161507" lon="8.098808885248815"><ele>727.5</ele><time>2026-05-02T13:57:04Z</time></trkpt><trkpt lat="44.42934605100778" lon="8.098820167614225"><ele>727.25</ele><time>2026-05-02T13:57:05Z</time></trkpt><trkpt lat="44.42922736319951" lon="8.0987658085171"><ele>727.0</ele><time>2026-05-02T13:57:06Z</time></trkpt><trkpt lat="44.42909226546306" lon="8.098682102910125"><ele>727.0</ele><time>2026-05-02T13:57:07Z</time></trkpt><trkpt lat="44.42894755595004" lon="8.098563060977373"><ele>727.0</ele><time>2026-05-02T13:57:08Z</time></trkpt><trkpt lat="44.42879383934917" lon="8.098426435537407"><ele>727.0</ele><time>2026-05-02T13:57:09Z</time></trkpt><trkpt lat="44.42863376234597" lon="8.0982815165408"><ele>727.3333333333334</ele><time>2026-05-02T13:57:10Z</time></trkpt><trkpt lat="44.42847469807795" lon="8.098055892831598"><ele>727.6666666666666</ele><time>2026-05-02T13:57:11Z</time></trkpt><trkpt lat="44.42832472597069" lon="8.097849418146716"><ele>728.0</ele><time>2026-05-02T13:57:12Z</time></trkpt><trkpt lat="44.428184051736736" lon="8.097678617689052"><ele>728.0</ele><time>2026-05-02T13:57:13Z</time></trkpt><trkpt lat="44.4280569885878" lon="8.097535778162124"><ele>728.0</ele><time>2026-05-02T13:57:14Z</time></trkpt><trkpt lat="44.427928413969816" lon="8.097398240006276"><ele>728.0</ele><time>2026-05-02T13:57:15Z</time></trkpt><trkpt lat="44.42778589310373" lon="8.097287990976762"><ele>728.0</ele><time>2026-05-02T13:57:16Z</time></trkpt><trkpt lat="44.42762560356501" lon="8.097214770906177"><ele>728.0</ele><time>2026-05-02T13:57:17Z</time></trkpt><trkpt lat="44.42744778299748" lon="8.097156274721911"><ele>728.0</ele><time>2026-05-02T13:57:18Z</time></trkpt><trkpt lat="44.42726181636488" lon="8.097114738587"><ele>729.3333333333333</ele><time>2026-05-02T13:57:19Z</time></trkpt><trkpt lat="44.42706858258676" lon="8.097086901850565"><ele>730.6666666666666</ele><time>2026-05-02T13:57:20Z</time></trkpt><trkpt lat="44.42686935388424" lon="8.09706353119595"><ele>732.0</ele><time>2026-05-02T13:57:21Z</time></trkpt><trkpt lat="44.426674820138665" lon="8.097027324792839"><ele>732.0</ele><time>2026-05-02T13:57:22Z</time></trkpt><trkpt lat="44.42650911527812" lon="8.096987414742133"><ele>732.0</ele><time>2026-05-02T13:57:23Z</time></trkpt><trkpt lat="44.4263645501862" lon="8.09693784927804"><ele>732.0</ele><time>2026-05-02T13:57:24Z</time></trkpt><trkpt lat="44.42621461502078" lon="8.096864864429664"><ele>732.6666666666666</ele><time>2026-05-02T13:57:25Z</time></trkpt><trkpt lat="44.426056489687106" lon="8.096752037670552"><ele>733.3333333333333</ele><time>2026-05-02T13:57:26Z</time></trkpt><trkpt lat="44.42589531982124" lon="8.096614449105727"><ele>734.0</ele><time>2026-05-02T13:57:27Z</time></trkpt><trkpt lat="44.425760478501026" lon="8.096493527534882"><ele>734.2</ele><time>2026-05-02T13:57:28Z</time></trkpt><trkpt lat="44.425647330459526" lon="8.096394355540763"><ele>734.4000000000001</ele><time>2026-05-02T13:57:29Z</time></trkpt><trkpt lat="44.42554811357852" lon="8.096302780084317"><ele>734.6</ele><time>2026-05-02T13:57:30Z</time></trkpt><trkpt lat="44.42547462451488" lon="8.096222870531491"><ele>734.8</ele><time>2026-05-02T13:57:31Z</time></trkpt><trkpt lat="44.42543135160257" lon="8.096143342829983"><ele>735.0</ele><time>2026-05-02T13:57:32Z</time></trkpt><trkpt lat="44.42535388116243" lon="8.095992894865313"><ele>734.5</ele><time>2026-05-02T13:57:34Z</time></trkpt><trkpt lat="44.42528571283095" lon="8.095928418339291"><ele>734.0</ele><time>2026-05-02T13:57:35Z</time></trkpt><trkpt lat="44.425187943273144" lon="8.095891149455502"><ele>733.5</ele><time>2026-05-02T13:57:36Z</time></trkpt><trkpt lat="44.425051173192124" lon="8.095868486056544"><ele>733.0</ele><time>2026-05-02T13:57:37Z</time></trkpt><trkpt lat="44.42487736708106" lon="8.095813731451559"><ele>731.3333333333334</ele><time>2026-05-02T13:57:38Z</time></trkpt><trkpt lat="44.424671998465826" lon="8.095721163778498"><ele>729.6666666666666</ele><time>2026-05-02T13:57:39Z</time></trkpt><trkpt lat="44.42447308181765" lon="8.095617777912631"><ele>728.0</ele><time>2026-05-02T13:57:40Z</time></trkpt><trkpt lat="44.42429837497342" lon="8.095510390553057"><ele>728.0</ele><time>2026-05-02T13:57:41Z</time></trkpt><trkpt lat="44.424124417521654" lon="8.095386993028983"><ele>728.0</ele><time>2026-05-02T13:57:42Z</time></trkpt><trkpt lat="44.42394635070177" lon="8.095249454958564"><ele>728.0</ele><time>2026-05-02T13:57:43Z</time></trkpt><trkpt lat="44.42376863713279" lon="8.095097837840965"><ele>727.6666666666666</ele><time>2026-05-02T13:57:44Z</time></trkpt><trkpt lat="44.423608170902156" lon="8.094945276485644"><ele>727.3333333333334</ele><time>2026-05-02T13:57:45Z</time></trkpt><trkpt lat="44.42346870438018" lon="8.094789121065778"><ele>727.0</ele><time>2026-05-02T13:57:46Z</time></trkpt><trkpt lat="44.42332931535426" lon="8.094608465423487"><ele>727.0</ele><time>2026-05-02T13:57:47Z</time></trkpt><trkpt lat="44.42320164160503" lon="8.094417199137807"><ele>727.0</ele><time>2026-05-02T13:57:48Z</time></trkpt><trkpt lat="44.423087958565695" lon="8.094227815851516"><ele>727.0</ele><time>2026-05-02T13:57:49Z</time></trkpt><trkpt lat="44.42299089815113" lon="8.09405384899864"><ele>726.75</ele><time>2026-05-02T13:57:50Z</time></trkpt><trkpt lat="44.422904147242235" lon="8.093906362308944"><ele>726.5</ele><time>2026-05-02T13:57:51Z</time></trkpt><trkpt lat="44.422815035336406" lon="8.093776133335185"><ele>726.25</ele><time>2026-05-02T13:57:52Z</time></trkpt><trkpt lat="44.422708308672185" lon="8.093664743297"><ele>726.0</ele><time>2026-05-02T13:57:53Z</time></trkpt><trkpt lat="44.42257149838659" lon="8.09358854301392"><ele>726.0</ele><time>2026-05-02T13:57:54Z</time></trkpt><trkpt lat="44.422413635084595" lon="8.09353454517857"><ele>726.0</ele><time>2026-05-02T13:57:55Z</time></trkpt><trkpt lat="44.422213772967346" lon="8.093479984615088"><ele>726.0</ele><time>2026-05-02T13:57:56Z</time></trkpt><trkpt lat="44.42201396945723" lon="8.093424065812032"><ele>725.5</ele><time>2026-05-02T13:57:57Z</time></trkpt><trkpt lat="44.42184735964648" lon="8.093380758058252"><ele>725.0</ele><time>2026-05-02T13:57:58Z</time></trkpt><trkpt lat="44.421710086901584" lon="8.093330140474704"><ele>724.5</ele><time>2026-05-02T13:57:59Z</time></trkpt><trkpt lat="44.42158907288076" lon="8.09325814176295"><ele>724.0</ele><time>2026-05-02T13:58:00Z</time></trkpt><trkpt lat="44.42149419171921" lon="8.09314267235814"><ele>724.0</ele><time>2026-05-02T13:58:01Z</time></trkpt><trkpt lat="44.42140397467744" lon="8.092995935359149"><ele>724.0</ele><time>2026-05-02T13:58:02Z</time></trkpt><trkpt lat="44.42133008856402" lon="8.092839748293706"><ele>724.0</ele><time>2026-05-02T13:58:03Z</time></trkpt><trkpt lat="44.42129104697301" lon="8.09264439645582"><ele>724.0</ele><time>2026-05-02T13:58:04Z</time></trkpt><trkpt lat="44.42125554961754" lon="8.092439969348202"><ele>724.6</ele><time>2026-05-02T13:58:05Z</time></trkpt><trkpt lat="44.421210373819456" lon="8.092258914290968"><ele>725.2</ele><time>2026-05-02T13:58:06Z</time></trkpt><trkpt lat="44.42118599073432" lon="8.092106528901052"><ele>725.8000000000001</ele><time>2026-05-02T13:58:07Z</time></trkpt><trkpt lat="44.421135267225274" lon="8.09198537642621"><ele>726.4000000000001</ele><time>2026-05-02T13:58:08Z</time></trkpt><trkpt lat="44.42106984016348" lon="8.091886103887118"><ele>727.0</ele><time>2026-05-02T13:58:09Z</time></trkpt><trkpt lat="44.42098188151946" lon="8.091803480832214"><ele>727.0</ele><time>2026-05-02T13:58:10Z</time></trkpt><trkpt lat="44.42087370289274" lon="8.091763683337337"><ele>727.0</ele><time>2026-05-02T13:58:11Z</time></trkpt><trkpt lat="44.42075431386415" lon="8.091766624907695"><ele>727.0</ele><time>2026-05-02T13:58:12Z</time></trkpt><trkpt lat="44.42061941599337" lon="8.091808819030359"><ele>727.0</ele><time>2026-05-02T13:58:13Z</time></trkpt><trkpt lat="44.42046138627535" lon="8.091890491571062"><ele>724.3333333333334</ele><time>2026-05-02T13:58:14Z</time></trkpt><trkpt lat="44.420280835410956" lon="8.091987224929085"><ele>721.6666666666666</ele><time>2026-05-02T13:58:15Z</time></trkpt><trkpt lat="44.42008966012877" lon="8.092049319148776"><ele>719.0</ele><time>2026-05-02T13:58:16Z</time></trkpt><trkpt lat="44.41990918156938" lon="8.092149578380722"><ele>719.0</ele><time>2026-05-02T13:58:17Z</time></trkpt><trkpt lat="44.4197478512601" lon="8.092211874189998"><ele>719.0</ele><time>2026-05-02T13:58:18Z</time></trkpt><trkpt lat="44.41962031914029" lon="8.0922517607283"><ele>719.0</ele><time>2026-05-02T13:58:19Z</time></trkpt><trkpt lat="44.419491316165185" lon="8.092262733801325"><ele>719.0</ele><time>2026-05-02T13:58:20Z</time></trkpt><trkpt lat="44.41934042697672" lon="8.09223340430267"><ele>719.0</ele><time>2026-05-02T13:58:21Z</time></trkpt><trkpt lat="44.41917668165854" lon="8.092142176446657"><ele>719.0</ele><time>2026-05-02T13:58:22Z</time></trkpt><trkpt lat="44.41900228814943" lon="8.092049433553466"><ele>719.0</ele><time>2026-05-02T13:58:23Z</time></trkpt><trkpt lat="44.41884964686896" lon="8.091984942656179"><ele>720.3333333333333</ele><time>2026-05-02T13:58:24Z</time></trkpt><trkpt lat="44.418746527614616" lon="8.09187214647312"><ele>721.6666666666666</ele><time>2026-05-02T13:58:25Z</time></trkpt><trkpt lat="44.41862748229937" lon="8.091760005672846"><ele>723.0</ele><time>2026-05-02T13:58:26Z</time></trkpt><trkpt lat="44.41851102107537" lon="8.091571752390223"><ele>723.0</ele><time>2026-05-02T13:58:27Z</time></trkpt><trkpt lat="44.418397079944704" lon="8.091360815496364"><ele>723.0</ele><time>2026-05-02T13:58:28Z</time></trkpt><trkpt lat="44.418298156681445" lon="8.091183113288785"><ele>723.0</ele><time>2026-05-02T13:58:29Z</time></trkpt><trkpt lat="44.41822094113721" lon="8.091030944929399"><ele>723.0</ele><time>2026-05-02T13:58:30Z</time></trkpt><trkpt lat="44.41815900780414" lon="8.09087020614485"><ele>723.0</ele><time>2026-05-02T13:58:31Z</time></trkpt><trkpt lat="44.41812196266211" lon="8.09068627021908"><ele>723.0</ele><time>2026-05-02T13:58:32Z</time></trkpt><trkpt lat="44.418121712499435" lon="8.090455309300825"><ele>723.0</ele><time>2026-05-02T13:58:33Z</time></trkpt><trkpt lat="44.41813756093061" lon="8.090202138896881"><ele>722.0</ele><time>2026-05-02T13:58:34Z</time></trkpt><trkpt lat="44.418142040395104" lon="8.089990331332682"><ele>721.0</ele><time>2026-05-02T13:58:35Z</time></trkpt><trkpt lat="44.418133768833904" lon="8.089824226652015"><ele>720.0</ele><time>2026-05-02T13:58:36Z</time></trkpt><trkpt lat="44.41811441833244" lon="8.08968080729206"><ele>719.0</ele><time>2026-05-02T13:58:37Z</time></trkpt><trkpt lat="44.41806517138801" lon="8.089547001063115"><ele>717.75</ele><time>2026-05-02T13:58:38Z</time></trkpt><trkpt lat="44.41798312142318" lon="8.089419664994995"><ele>716.5</ele><time>2026-05-02T13:58:39Z</time></trkpt><trkpt lat="44.41786441723563" lon="8.08929349068813"><ele>715.25</ele><time>2026-05-02T13:58:40Z</time></trkpt><trkpt lat="44.41772018618937" lon="8.089165671526631"><ele>714.0</ele><time>2026-05-02T13:58:41Z</time></trkpt><trkpt lat="44.41757003925071" lon="8.08900807069753"><ele>714.0</ele><time>2026-05-02T13:58:42Z</time></trkpt><trkpt lat="44.41743890230898" lon="8.088808998079646"><ele>714.0</ele><time>2026-05-02T13:58:43Z</time></trkpt><trkpt lat="44.417332900032015" lon="8.088635231039957"><ele>714.0</ele><time>2026-05-02T13:58:44Z</time></trkpt><trkpt lat="44.41724469562129" lon="8.088507522940098"><ele>714.0</ele><time>2026-05-02T13:58:45Z</time></trkpt><trkpt lat="44.417153756537815" lon="8.088405408005668"><ele>714.0</ele><time>2026-05-02T13:58:46Z</time></trkpt><trkpt lat="44.41705258015646" lon="8.08833955268778"><ele>714.0</ele><time>2026-05-02T13:58:47Z</time></trkpt><trkpt lat="44.41695617380283" lon="8.088316725386054"><ele>714.0</ele><time>2026-05-02T13:58:48Z</time></trkpt><trkpt lat="44.4168563143137" lon="8.088330736531596"><ele>714.0</ele><time>2026-05-02T13:58:49Z</time></trkpt><trkpt lat="44.416740872460515" lon="8.088400192943817"><ele>714.6666666666666</ele><time>2026-05-02T13:58:50Z</time></trkpt><trkpt lat="44.41661482378116" lon="8.088517024233912"><ele>715.3333333333333</ele><time>2026-05-02T13:58:51Z</time></trkpt><trkpt lat="44.41647355717391" lon="8.088669290765836"><ele>716.0</ele><time>2026-05-02T13:58:52Z</time></trkpt><trkpt lat="44.41631010660197" lon="8.088822053772361"><ele>716.0</ele><time>2026-05-02T13:58:53Z</time></trkpt><trkpt lat="44.41615651755746" lon="8.088960414433355"><ele>716.0</ele><time>2026-05-02T13:58:54Z</time></trkpt><trkpt lat="44.41601695030789" lon="8.08911985430845"><ele>716.0</ele><time>2026-05-02T13:58:55Z</time></trkpt><trkpt lat="44.41589391017945" lon="8.08927993197614"><ele>716.0</ele><time>2026-05-02T13:58:56Z</time></trkpt><trkpt lat="44.41578805048536" lon="8.089385788657202"><ele>716.0</ele><time>2026-05-02T13:58:57Z</time></trkpt><trkpt lat="44.41567177106438" lon="8.089480018246077"><ele>716.0</ele><time>2026-05-02T13:58:58Z</time></trkpt><trkpt lat="44.4155186099346" lon="8.089555259825875"><ele>716.0</ele><time>2026-05-02T13:58:59Z</time></trkpt><trkpt lat="44.415338470444745" lon="8.089638122689179"><ele>710.6666666666666</ele><time>2026-05-02T13:59:00Z</time></trkpt><trkpt lat="44.41514449310386" lon="8.08969535654963"><ele>705.3333333333334</ele><time>2026-05-02T13:59:01Z</time></trkpt><trkpt lat="44.414982255340156" lon="8.089727522223278"><ele>700.0</ele><time>2026-05-02T13:59:02Z</time></trkpt><trkpt lat="44.41485699733271" lon="8.089756942001042"><ele>700.0</ele><time>2026-05-02T13:59:03Z</time></trkpt><trkpt lat="44.41473529071134" lon="8.089812869222968"><ele>700.0</ele><time>2026-05-02T13:59:04Z</time></trkpt><trkpt lat="44.41461971548547" lon="8.089915626441124"><ele>700.0</ele><time>2026-05-02T13:59:05Z</time></trkpt><trkpt lat="44.41450181347906" lon="8.09007444724264"><ele>700.0</ele><time>2026-05-02T13:59:06Z</time></trkpt><trkpt lat="44.41439092550566" lon="8.090246049518568"><ele>702.0</ele><time>2026-05-02T13:59:07Z</time></trkpt><trkpt lat="44.41426684725067" lon="8.090390831508172"><ele>704.0</ele><time>2026-05-02T13:59:08Z</time></trkpt><trkpt lat="44.4141200488809" lon="8.090502337729111"><ele>706.0</ele><time>2026-05-02T13:59:09Z</time></trkpt><trkpt lat="44.41394314151902" lon="8.090580567308548"><ele>707.6666666666667</ele><time>2026-05-02T13:59:10Z</time></trkpt><trkpt lat="44.413789022558596" lon="8.09068241067955"><ele>709.3333333333334</ele><time>2026-05-02T13:59:11Z</time></trkpt><trkpt lat="44.41365451631168" lon="8.09074846368802"><ele>711.0</ele><time>2026-05-02T13:59:12Z</time></trkpt><trkpt lat="44.41352940522423" lon="8.090835023483992"><ele>711.0</ele><time>2026-05-02T13:59:13Z</time></trkpt><trkpt lat="44.41340150593995" lon="8.090972354345748"><ele>711.0</ele><time>2026-05-02T13:59:14Z</time></trkpt><trkpt lat="44.41326801764802" lon="8.091146837912463"><ele>711.0</ele><time>2026-05-02T13:59:15Z</time></trkpt><trkpt lat="44.413137341263536" lon="8.091318304623785"><ele>711.0</ele><time>2026-05-02T13:59:16Z</time></trkpt><trkpt lat="44.41301895935378" lon="8.091453003874358"><ele>711.0</ele><time>2026-05-02T13:59:17Z</time></trkpt><trkpt lat="44.41288975006631" lon="8.091533976026687"><ele>711.0</ele><time>2026-05-02T13:59:18Z</time></trkpt><trkpt lat="44.41274242643935" lon="8.091606239216087"><ele>710.6666666666666</ele><time>2026-05-02T13:59:19Z</time></trkpt><trkpt lat="44.41256338562664" lon="8.091688644019069"><ele>710.3333333333333</ele><time>2026-05-02T13:59:20Z</time></trkpt><trkpt lat="44.41238224679682" lon="8.091744515643308"><ele>710.0</ele><time>2026-05-02T13:59:21Z</time></trkpt><trkpt lat="44.41223635704898" lon="8.091803556521173"><ele>705.5</ele><time>2026-05-02T13:59:22Z</time></trkpt><trkpt lat="44.41210171215441" lon="8.091877088838979"><ele>701.0</ele><time>2026-05-02T13:59:23Z</time></trkpt><trkpt lat="44.411982342289136" lon="8.09195902230123"><ele>696.5</ele><time>2026-05-02T13:59:24Z</time></trkpt><trkpt lat="44.41187907003596" lon="8.092048459498434"><ele>692.0</ele><time>2026-05-02T13:59:25Z</time></trkpt><trkpt lat="44.41177421796283" lon="8.092143337831711"><ele>692.0</ele><time>2026-05-02T13:59:26Z</time></trkpt><trkpt lat="44.411692046994474" lon="8.092273487401279"><ele>692.0</ele><time>2026-05-02T13:59:27Z</time></trkpt><trkpt lat="44.411621205175315" lon="8.092447955434958"><ele>692.0</ele><time>2026-05-02T13:59:28Z</time></trkpt><trkpt lat="44.41157970226556" lon="8.092672658580017"><ele>692.0</ele><time>2026-05-02T13:59:29Z</time></trkpt><trkpt lat="44.411526601899865" lon="8.092907740475406"><ele>692.0</ele><time>2026-05-02T13:59:30Z</time></trkpt><trkpt lat="44.41143567697654" lon="8.093145240476229"><ele>692.0</ele><time>2026-05-02T13:59:31Z</time></trkpt><trkpt lat="44.411319495596295" lon="8.093404791227929"><ele>692.0</ele><time>2026-05-02T13:59:32Z</time></trkpt><trkpt lat="44.411184952808775" lon="8.093674604367786"><ele>692.0</ele><time>2026-05-02T13:59:33Z</time></trkpt><trkpt lat="44.4110414357867" lon="8.093956427444086"><ele>692.0</ele><time>2026-05-02T13:59:34Z</time></trkpt><trkpt lat="44.41089398841831" lon="8.09426791575032"><ele>696.0</ele><time>2026-05-02T13:59:35Z</time></trkpt><trkpt lat="44.410748731753706" lon="8.09454903750132"><ele>700.0</ele><time>2026-05-02T13:59:36Z</time></trkpt><trkpt lat="44.41061677189795" lon="8.094813412883825"><ele>700.6666666666667</ele><time>2026-05-02T13:59:37Z</time></trkpt><trkpt lat="44.410494272998015" lon="8.095049214555688"><ele>701.3333333333334</ele><time>2026-05-02T13:59:38Z</time></trkpt><trkpt lat="44.410381169960864" lon="8.0952614306481"><ele>702.0</ele><time>2026-05-02T13:59:39Z</time></trkpt><trkpt lat="44.41028420243127" lon="8.095459030135563"><ele>702.0</ele><time>2026-05-02T13:59:40Z</time></trkpt><trkpt lat="44.410195860246496" lon="8.095678361381163"><ele>702.0</ele><time>2026-05-02T13:59:41Z</time></trkpt><trkpt lat="44.41012132472928" lon="8.095905399064717"><ele>702.0</ele><time>2026-05-02T13:59:42Z</time></trkpt><trkpt lat="44.410052667817766" lon="8.096098347131484"><ele>704.75</ele><time>2026-05-02T13:59:43Z</time></trkpt><trkpt lat="44.41001728161554" lon="8.096295988144947"><ele>707.5</ele><time>2026-05-02T13:59:44Z</time></trkpt><trkpt lat="44.40996984866045" lon="8.09648853100843"><ele>710.25</ele><time>2026-05-02T13:59:45Z</time></trkpt><trkpt lat="44.409921110255986" lon="8.096691725964545"><ele>713.0</ele><time>2026-05-02T13:59:46Z</time></trkpt><trkpt lat="44.409918789659436" lon="8.096914524063243"><ele>715.6666666666666</ele><time>2026-05-02T13:59:47Z</time></trkpt><trkpt lat="44.409952709499144" lon="8.09712735869754"><ele>718.3333333333334</ele><time>2026-05-02T13:59:48Z</time></trkpt><trkpt lat="44.40999940863253" lon="8.097351618512928"><ele>721.0</ele><time>2026-05-02T13:59:49Z</time></trkpt><trkpt lat="44.410076639060115" lon="8.097600452764263"><ele>722.0</ele><time>2026-05-02T13:59:50Z</time></trkpt><trkpt lat="44.410167061455255" lon="8.09786078057557"><ele>723.0</ele><time>2026-05-02T13:59:51Z</time></trkpt><trkpt lat="44.41026387882126" lon="8.09812416885772"><ele>724.0</ele><time>2026-05-02T13:59:52Z</time></trkpt><trkpt lat="44.41036453366533" lon="8.09838084965141"><ele>724.0</ele><time>2026-05-02T13:59:53Z</time></trkpt><trkpt lat="44.41046565423169" lon="8.098620781274544"><ele>724.0</ele><time>2026-05-02T13:59:54Z</time></trkpt><trkpt lat="44.410537066259764" lon="8.098833714383948"><ele>724.0</ele><time>2026-05-02T13:59:55Z</time></trkpt><trkpt lat="44.410585898250595" lon="8.098996811558049"><ele>724.75</ele><time>2026-05-02T13:59:56Z</time></trkpt><trkpt lat="44.4106161185129" lon="8.099172233083207"><ele>725.5</ele><time>2026-05-02T13:59:57Z</time></trkpt><trkpt lat="44.410620614518876" lon="8.099355773739862"><ele>726.25</ele><time>2026-05-02T13:59:58Z</time></trkpt><trkpt lat="44.410579683162354" lon="8.099539545878175"><ele>727.0</ele><time>2026-05-02T13:59:59Z</time></trkpt><trkpt lat="44.41051742172775" lon="8.099753647832907"><ele>721.6666666666667</ele><time>2026-05-02T14:00:00Z</time></trkpt><trkpt lat="44.4104403177758" lon="8.099998277092878"><ele>716.3333333333334</ele><time>2026-05-02T14:00:01Z</time></trkpt><trkpt lat="44.410373015257235" lon="8.100244615992143"><ele>711.0</ele><time>2026-05-02T14:00:02Z</time></trkpt><trkpt lat="44.41029838837844" lon="8.100473662500992"><ele>711.0</ele><time>2026-05-02T14:00:03Z</time></trkpt><trkpt lat="44.410213513593355" lon="8.100665872292483"><ele>711.0</ele><time>2026-05-02T14:00:04Z</time></trkpt><trkpt lat="44.41012473992865" lon="8.100854825287136"><ele>711.0</ele><time>2026-05-02T14:00:05Z</time></trkpt><trkpt lat="44.41002624437359" lon="8.101042840381435"><ele>714.6666666666666</ele><time>2026-05-02T14:00:06Z</time></trkpt><trkpt lat="44.40994285282958" lon="8.101220853719896"><ele>718.3333333333333</ele><time>2026-05-02T14:00:07Z</time></trkpt><trkpt lat="44.40986214352427" lon="8.101393537004101"><ele>722.0</ele><time>2026-05-02T14:00:08Z</time></trkpt><trkpt lat="44.409802829795005" lon="8.101606620959789"><ele>722.3333333333333</ele><time>2026-05-02T14:00:09Z</time></trkpt><trkpt lat="44.40974664188915" lon="8.101874324329742"><ele>722.6666666666666</ele><time>2026-05-02T14:00:10Z</time></trkpt><trkpt lat="44.409694758884946" lon="8.102167897210848"><ele>723.0</ele><time>2026-05-02T14:00:11Z</time></trkpt><trkpt lat="44.40964620038845" lon="8.102448312219455"><ele>718.0</ele><time>2026-05-02T14:00:12Z</time></trkpt><trkpt lat="44.409610209532694" lon="8.102710774153884"><ele>713.0</ele><time>2026-05-02T14:00:13Z</time></trkpt><trkpt lat="44.40958557928315" lon="8.102982009406906"><ele>708.0</ele><time>2026-05-02T14:00:14Z</time></trkpt><trkpt lat="44.40954111563335" lon="8.103225771815024"><ele>709.0</ele><time>2026-05-02T14:00:15Z</time></trkpt><trkpt lat="44.40949782913672" lon="8.103446996736489"><ele>710.0</ele><time>2026-05-02T14:00:16Z</time></trkpt><trkpt lat="44.40947354873554" lon="8.103651882785151"><ele>711.0</ele><time>2026-05-02T14:00:17Z</time></trkpt><trkpt lat="44.40945323051745" lon="8.103845614835562"><ele>711.0</ele><time>2026-05-02T14:00:18Z</time></trkpt><trkpt lat="44.40944679102902" lon="8.10403111910812"><ele>711.0</ele><time>2026-05-02T14:00:19Z</time></trkpt><trkpt lat="44.409442978895726" lon="8.104215987773964"><ele>711.0</ele><time>2026-05-02T14:00:20Z</time></trkpt><trkpt lat="44.409415381262484" lon="8.104395552163501"><ele>711.0</ele><time>2026-05-02T14:00:21Z</time></trkpt><trkpt lat="44.40938783236009" lon="8.104562776962448"><ele>712.25</ele><time>2026-05-02T14:00:22Z</time></trkpt><trkpt lat="44.40936941681954" lon="8.104727021662757"><ele>713.5</ele><time>2026-05-02T14:00:23Z</time></trkpt><trkpt lat="44.409319430571" lon="8.104860922408287"><ele>714.75</ele><time>2026-05-02T14:00:24Z</time></trkpt><trkpt lat="44.40927674527657" lon="8.105007873199698"><ele>716.0</ele><time>2026-05-02T14:00:25Z</time></trkpt><trkpt lat="44.409188713898445" lon="8.105112573205258"><ele>717.3333333333333</ele><time>2026-05-02T14:00:26Z</time></trkpt><trkpt lat="44.409082615065564" lon="8.105325081041391"><ele>718.6666666666666</ele><time>2026-05-02T14:00:27Z</time></trkpt><trkpt lat="44.40901766711972" lon="8.105502021690784"><ele>720.0</ele><time>2026-05-02T14:00:28Z</time></trkpt><trkpt lat="44.40895278719281" lon="8.105662004203362"><ele>718.25</ele><time>2026-05-02T14:00:29Z</time></trkpt><trkpt lat="44.40887483220948" lon="8.105783939665764"><ele>716.5</ele><time>2026-05-02T14:00:30Z</time></trkpt><trkpt lat="44.408777503851475" lon="8.105878374963309"><ele>714.75</ele><time>2026-05-02T14:00:31Z</time></trkpt><trkpt lat="44.40865412800031" lon="8.105952098398213"><ele>713.0</ele><time>2026-05-02T14:00:32Z</time></trkpt><trkpt lat="44.40850340553102" lon="8.106001526104253"><ele>713.0</ele><time>2026-05-02T14:00:33Z</time></trkpt><trkpt lat="44.40835993660719" lon="8.106073804361705"><ele>713.0</ele><time>2026-05-02T14:00:34Z</time></trkpt><trkpt lat="44.40826290593191" lon="8.106174300350089"><ele>713.0</ele><time>2026-05-02T14:00:35Z</time></trkpt><trkpt lat="44.40815752600386" lon="8.106304964601723"><ele>713.0</ele><time>2026-05-02T14:00:36Z</time></trkpt><trkpt lat="44.40803453177639" lon="8.106467998170078"><ele>712.0</ele><time>2026-05-02T14:00:37Z</time></trkpt><trkpt lat="44.407916324276854" lon="8.106629200686843"><ele>711.0</ele><time>2026-05-02T14:00:38Z</time></trkpt><trkpt lat="44.4077898843473" lon="8.106756097724332"><ele>710.0</ele><time>2026-05-02T14:00:39Z</time></trkpt><trkpt lat="44.407630641563856" lon="8.106862293860965"><ele>710.0</ele><time>2026-05-02T14:00:40Z</time></trkpt><trkpt lat="44.40746705863087" lon="8.106965379058135"><ele>710.0</ele><time>2026-05-02T14:00:41Z</time></trkpt><trkpt lat="44.40730288681818" lon="8.107072212981397"><ele>710.0</ele><time>2026-05-02T14:00:42Z</time></trkpt><trkpt lat="44.407172442188006" lon="8.10718496293682"><ele>710.3333333333333</ele><time>2026-05-02T14:00:43Z</time></trkpt><trkpt lat="44.407046608741375" lon="8.107283400990333"><ele>710.6666666666666</ele><time>2026-05-02T14:00:44Z</time></trkpt><trkpt lat="44.40692060352425" lon="8.107418990651178"><ele>711.0</ele><time>2026-05-02T14:00:45Z</time></trkpt><trkpt lat="44.40678957727165" lon="8.107612873128383"><ele>711.0</ele><time>2026-05-02T14:00:46Z</time></trkpt><trkpt lat="44.40664606563193" lon="8.1078443741113"><ele>711.0</ele><time>2026-05-02T14:00:47Z</time></trkpt><trkpt lat="44.406494839150284" lon="8.108102782319424"><ele>711.5</ele><time>2026-05-02T14:00:48Z</time></trkpt><trkpt lat="44.406351737320605" lon="8.10835430807277"><ele>712.0</ele><time>2026-05-02T14:00:49Z</time></trkpt><trkpt lat="44.40620141667883" lon="8.108597948537495"><ele>706.5</ele><time>2026-05-02T14:00:50Z</time></trkpt><trkpt lat="44.40603971053972" lon="8.10883230175105"><ele>701.0</ele><time>2026-05-02T14:00:51Z</time></trkpt><trkpt lat="44.405882983929764" lon="8.109051826340002"><ele>698.6666666666666</ele><time>2026-05-02T14:00:52Z</time></trkpt><trkpt lat="44.40573566567391" lon="8.109245672682208"><ele>696.3333333333334</ele><time>2026-05-02T14:00:53Z</time></trkpt><trkpt lat="44.40559556688304" lon="8.109417957123004"><ele>694.0</ele><time>2026-05-02T14:00:54Z</time></trkpt><trkpt lat="44.40546632892279" lon="8.109569808513713"><ele>694.0</ele><time>2026-05-02T14:00:55Z</time></trkpt><trkpt lat="44.405346232920124" lon="8.109700251887528"><ele>694.0</ele><time>2026-05-02T14:00:56Z</time></trkpt><trkpt lat="44.40523275088635" lon="8.109824272158896"><ele>694.0</ele><time>2026-05-02T14:00:57Z</time></trkpt><trkpt lat="44.40513336600293" lon="8.109989326432382"><ele>698.6666666666667</ele><time>2026-05-02T14:00:58Z</time></trkpt><trkpt lat="44.40504894520266" lon="8.1102380861072"><ele>703.3333333333334</ele><time>2026-05-02T14:00:59Z</time></trkpt><trkpt lat="44.404951848786006" lon="8.110473524850773"><ele>708.0</ele><time>2026-05-02T14:01:00Z</time></trkpt><trkpt lat="44.40483538790183" lon="8.110724452488117"><ele>709.6666666666666</ele><time>2026-05-02T14:01:01Z</time></trkpt><trkpt lat="44.40474166083165" lon="8.110961486270291"><ele>711.3333333333333</ele><time>2026-05-02T14:01:02Z</time></trkpt><trkpt lat="44.40461910896196" lon="8.111156017866893"><ele>713.0</ele><time>2026-05-02T14:01:03Z</time></trkpt><trkpt lat="44.40450457526932" lon="8.111345065307345"><ele>709.6666666666666</ele><time>2026-05-02T14:01:04Z</time></trkpt><trkpt lat="44.40439914475851" lon="8.11152812837496"><ele>706.3333333333334</ele><time>2026-05-02T14:01:05Z</time></trkpt><trkpt lat="44.404304253070144" lon="8.111729583781221"><ele>703.0</ele><time>2026-05-02T14:01:06Z</time></trkpt><trkpt lat="44.404185973364456" lon="8.11192960638898"><ele>703.0</ele><time>2026-05-02T14:01:07Z</time></trkpt><trkpt lat="44.404057441864495" lon="8.1121252103805"><ele>703.0</ele><time>2026-05-02T14:01:08Z</time></trkpt><trkpt lat="44.40392588021063" lon="8.112297215985429"><ele>703.0</ele><time>2026-05-02T14:01:09Z</time></trkpt><trkpt lat="44.40381022699011" lon="8.112442830725891"><ele>701.0</ele><time>2026-05-02T14:01:10Z</time></trkpt><trkpt lat="44.403712708581565" lon="8.112588427594725"><ele>699.0</ele><time>2026-05-02T14:01:11Z</time></trkpt><trkpt lat="44.40362809689404" lon="8.112754004432526"><ele>697.0</ele><time>2026-05-02T14:01:12Z</time></trkpt><trkpt lat="44.40356781958745" lon="8.112957697371895"><ele>695.0</ele><time>2026-05-02T14:01:13Z</time></trkpt><trkpt lat="44.40352322467846" lon="8.113213038978571"><ele>696.3333333333333</ele><time>2026-05-02T14:01:14Z</time></trkpt><trkpt lat="44.40348185616811" lon="8.113496438244272"><ele>697.6666666666666</ele><time>2026-05-02T14:01:15Z</time></trkpt><trkpt lat="44.4034323135515" lon="8.113794246515166"><ele>699.0</ele><time>2026-05-02T14:01:16Z</time></trkpt><trkpt lat="44.40339326133239" lon="8.114099225798533"><ele>699.0</ele><time>2026-05-02T14:01:17Z</time></trkpt><trkpt lat="44.40337454277114" lon="8.11438547092491"><ele>699.0</ele><time>2026-05-02T14:01:18Z</time></trkpt><trkpt lat="44.403338182784054" lon="8.114628496408216"><ele>699.0</ele><time>2026-05-02T14:01:19Z</time></trkpt><trkpt lat="44.403317208670536" lon="8.114843569621767"><ele>699.0</ele><time>2026-05-02T14:01:20Z</time></trkpt><trkpt lat="44.40329866241171" lon="8.115038005938352"><ele>699.0</ele><time>2026-05-02T14:01:21Z</time></trkpt><trkpt lat="44.40323267686874" lon="8.11521725430143"><ele>699.0</ele><time>2026-05-02T14:01:22Z</time></trkpt><trkpt lat="44.403132303938285" lon="8.11539863449663"><ele>699.0</ele><time>2026-05-02T14:01:23Z</time></trkpt><trkpt lat="44.402985019631714" lon="8.115538083932215"><ele>698.3333333333334</ele><time>2026-05-02T14:01:24Z</time></trkpt><trkpt lat="44.40283882774728" lon="8.115701536524831"><ele>697.6666666666667</ele><time>2026-05-02T14:01:25Z</time></trkpt><trkpt lat="44.40272007897194" lon="8.115882906536644"><ele>697.0</ele><time>2026-05-02T14:01:26Z</time></trkpt><trkpt lat="44.40259062133394" lon="8.116100845976412"><ele>697.0</ele><time>2026-05-02T14:01:27Z</time></trkpt><trkpt lat="44.40247344505167" lon="8.116339221949504"><ele>697.0</ele><time>2026-05-02T14:01:28Z</time></trkpt><trkpt lat="44.40236207065914" lon="8.116548686221899"><ele>697.0</ele><time>2026-05-02T14:01:29Z</time></trkpt><trkpt lat="44.402234455225646" lon="8.116734635806742"><ele>696.3333333333334</ele><time>2026-05-02T14:01:30Z</time></trkpt><trkpt lat="44.40209423385648" lon="8.116908167198368"><ele>695.6666666666666</ele><time>2026-05-02T14:01:31Z</time></trkpt><trkpt lat="44.40196061871606" lon="8.117052100864166"><ele>695.0</ele><time>2026-05-02T14:01:32Z</time></trkpt><trkpt lat="44.401857379618804" lon="8.117164609078396"><ele>695.0</ele><time>2026-05-02T14:01:33Z</time></trkpt><trkpt lat="44.401768998979946" lon="8.11724796400231"><ele>695.0</ele><time>2026-05-02T14:01:34Z</time></trkpt><trkpt lat="44.40167523581486" lon="8.117317483302235"><ele>695.0</ele><time>2026-05-02T14:01:35Z</time></trkpt><trkpt lat="44.40157800004128" lon="8.117354197395379"><ele>695.0</ele><time>2026-05-02T14:01:36Z</time></trkpt><trkpt lat="44.401486764730606" lon="8.117381956089393"><ele>695.0</ele><time>2026-05-02T14:01:37Z</time></trkpt><trkpt lat="44.40139665872494" lon="8.117444085720782"><ele>699.0</ele><time>2026-05-02T14:01:38Z</time></trkpt><trkpt lat="44.401326272672634" lon="8.117610643475833"><ele>703.0</ele><time>2026-05-02T14:01:39Z</time></trkpt><trkpt lat="44.40121408540967" lon="8.117740691441655"><ele>707.0</ele><time>2026-05-02T14:01:40Z</time></trkpt><trkpt lat="44.40107240873157" lon="8.117862662337028"><ele>707.0</ele><time>2026-05-02T14:01:41Z</time></trkpt><trkpt lat="44.40094997094832" lon="8.117998892554894"><ele>707.0</ele><time>2026-05-02T14:01:42Z</time></trkpt><trkpt lat="44.40083445719964" lon="8.1181398377444"><ele>707.0</ele><time>2026-05-02T14:01:43Z</time></trkpt><trkpt lat="44.40073281590933" lon="8.1182839518066"><ele>705.0</ele><time>2026-05-02T14:01:44Z</time></trkpt><trkpt lat="44.40063577359089" lon="8.118447256664744"><ele>703.0</ele><time>2026-05-02T14:01:45Z</time></trkpt><trkpt lat="44.400539639005046" lon="8.11863780633975"><ele>701.0</ele><time>2026-05-02T14:01:46Z</time></trkpt><trkpt lat="44.4004469137855" lon="8.118865866170301"><ele>706.0</ele><time>2026-05-02T14:01:47Z</time></trkpt><trkpt lat="44.40036029006283" lon="8.119141670189501"><ele>711.0</ele><time>2026-05-02T14:01:48Z</time></trkpt><trkpt lat="44.40028457013492" lon="8.119445989228108"><ele>716.0</ele><time>2026-05-02T14:01:49Z</time></trkpt><trkpt lat="44.40021303133393" lon="8.119767444638354"><ele>714.6666666666666</ele><time>2026-05-02T14:01:50Z</time></trkpt><trkpt lat="44.40015065226285" lon="8.120061686758893"><ele>713.3333333333334</ele><time>2026-05-02T14:01:51Z</time></trkpt><trkpt lat="44.400110697470396" lon="8.120285598917029"><ele>712.0</ele><time>2026-05-02T14:01:52Z</time></trkpt><trkpt lat="44.40006729763373" lon="8.120468032083977"><ele>712.0</ele><time>2026-05-02T14:01:53Z</time></trkpt><trkpt lat="44.40002883470482" lon="8.120629942922127"><ele>712.0</ele><time>2026-05-02T14:01:54Z</time></trkpt><trkpt lat="44.39995747760784" lon="8.12076394228438"><ele>712.0</ele><time>2026-05-02T14:01:55Z</time></trkpt><trkpt lat="44.399856597085424" lon="8.120925623376174"><ele>712.0</ele><time>2026-05-02T14:01:56Z</time></trkpt><trkpt lat="44.39971333079791" lon="8.121129640354908"><ele>712.0</ele><time>2026-05-02T14:01:57Z</time></trkpt><trkpt lat="44.399564546318956" lon="8.121357862625139"><ele>712.0</ele><time>2026-05-02T14:01:58Z</time></trkpt><trkpt lat="44.39941760246986" lon="8.121564374985624"><ele>712.0</ele><time>2026-05-02T14:01:59Z</time></trkpt><trkpt lat="44.39929439923685" lon="8.121728500212699"><ele>710.6666666666667</ele><time>2026-05-02T14:02:00Z</time></trkpt><trkpt lat="44.39917422287426" lon="8.121879183819793"><ele>709.3333333333334</ele><time>2026-05-02T14:02:01Z</time></trkpt><trkpt lat="44.39901703620405" lon="8.122030516437738"><ele>708.0</ele><time>2026-05-02T14:02:02Z</time></trkpt><trkpt lat="44.39883581661401" lon="8.12218224222804"><ele>704.0</ele><time>2026-05-02T14:02:03Z</time></trkpt><trkpt lat="44.398647243208615" lon="8.122353234863832"><ele>700.0</ele><time>2026-05-02T14:02:04Z</time></trkpt><trkpt lat="44.39845620952244" lon="8.1225283040234"><ele>700.0</ele><time>2026-05-02T14:02:05Z</time></trkpt><trkpt lat="44.39828134123239" lon="8.12269123480192"><ele>700.0</ele><time>2026-05-02T14:02:06Z</time></trkpt><trkpt lat="44.39815143142893" lon="8.122816838257142"><ele>700.0</ele><time>2026-05-02T14:02:07Z</time></trkpt><trkpt lat="44.39803833974205" lon="8.12292038797006"><ele>697.75</ele><time>2026-05-02T14:02:08Z</time></trkpt><trkpt lat="44.39794050317127" lon="8.12300681649687"><ele>695.5</ele><time>2026-05-02T14:02:09Z</time></trkpt><trkpt lat="44.39785408399747" lon="8.12310462170043"><ele>693.25</ele><time>2026-05-02T14:02:10Z</time></trkpt><trkpt lat="44.39777466809405" lon="8.123222541291305"><ele>691.0</ele><time>2026-05-02T14:02:11Z</time></trkpt><trkpt lat="44.39772305698981" lon="8.12337247425866"><ele>691.0</ele><time>2026-05-02T14:02:12Z</time></trkpt><trkpt lat="44.39770194553756" lon="8.123544329982165"><ele>691.0</ele><time>2026-05-02T14:02:13Z</time></trkpt><trkpt lat="44.39769532266007" lon="8.123752656034409"><ele>691.0</ele><time>2026-05-02T14:02:14Z</time></trkpt><trkpt lat="44.39770668301063" lon="8.123964882779532"><ele>691.0</ele><time>2026-05-02T14:02:15Z</time></trkpt><trkpt lat="44.3976923773479" lon="8.124147294519897"><ele>690.25</ele><time>2026-05-02T14:02:16Z</time></trkpt><trkpt lat="44.39767201063474" lon="8.124309344310332"><ele>689.5</ele><time>2026-05-02T14:02:17Z</time></trkpt><trkpt lat="44.39761821855308" lon="8.12446993010685"><ele>688.75</ele><time>2026-05-02T14:02:18Z</time></trkpt><trkpt lat="44.39752456467071" lon="8.12463937976685"><ele>688.0</ele><time>2026-05-02T14:02:19Z</time></trkpt><trkpt lat="44.39738932217682" lon="8.124791780033533"><ele>687.0</ele><time>2026-05-02T14:02:20Z</time></trkpt><trkpt lat="44.397219526709236" lon="8.124945031789311"><ele>686.0</ele><time>2026-05-02T14:02:21Z</time></trkpt><trkpt lat="44.39703789822717" lon="8.1251167549363"><ele>685.0</ele><time>2026-05-02T14:02:22Z</time></trkpt><trkpt lat="44.396863404070835" lon="8.125241486343496"><ele>684.25</ele><time>2026-05-02T14:02:23Z</time></trkpt><trkpt lat="44.396736481098216" lon="8.125352119539333"><ele>683.5</ele><time>2026-05-02T14:02:24Z</time></trkpt><trkpt lat="44.396631248161384" lon="8.12546401952281"><ele>682.75</ele><time>2026-05-02T14:02:25Z</time></trkpt><trkpt lat="44.396540681063314" lon="8.125598495688013"><ele>682.0</ele><time>2026-05-02T14:02:26Z</time></trkpt><trkpt lat="44.39646166598758" lon="8.125761005848688"><ele>681.0</ele><time>2026-05-02T14:02:27Z</time></trkpt><trkpt lat="44.39639710754315" lon="8.125951565662593"><ele>680.0</ele><time>2026-05-02T14:02:28Z</time></trkpt><trkpt lat="44.39634539834449" lon="8.126169431456761"><ele>679.0</ele><time>2026-05-02T14:02:29Z</time></trkpt><trkpt lat="44.39631133765476" lon="8.126410703172429"><ele>679.6666666666667</ele><time>2026-05-02T14:02:30Z</time></trkpt><trkpt lat="44.39628245261947" lon="8.126667955754176"><ele>680.3333333333334</ele><time>2026-05-02T14:02:31Z</time></trkpt><trkpt lat="44.396237967341946" lon="8.126886378414195"><ele>681.0</ele><time>2026-05-02T14:02:32Z</time></trkpt><trkpt lat="44.39619269881482" lon="8.127097417081618"><ele>681.0</ele><time>2026-05-02T14:02:33Z</time></trkpt><trkpt lat="44.396125713239044" lon="8.127308508675952"><ele>681.0</ele><time>2026-05-02T14:02:34Z</time></trkpt><trkpt lat="44.396050595476275" lon="8.127519288530427"><ele>681.0</ele><time>2026-05-02T14:02:35Z</time></trkpt><trkpt lat="44.39594615802585" lon="8.127708371781749"><ele>680.0</ele><time>2026-05-02T14:02:36Z</time></trkpt><trkpt lat="44.39580677592098" lon="8.127878639133874"><ele>679.0</ele><time>2026-05-02T14:02:37Z</time></trkpt><trkpt lat="44.395651404025664" lon="8.128050708811907"><ele>678.0</ele><time>2026-05-02T14:02:38Z</time></trkpt><trkpt lat="44.395463156529765" lon="8.128210751974665"><ele>672.5</ele><time>2026-05-02T14:02:39Z</time></trkpt><trkpt lat="44.39524989139327" lon="8.128354456317403"><ele>667.0</ele><time>2026-05-02T14:02:40Z</time></trkpt><trkpt lat="44.395019585112465" lon="8.128481415185949"><ele>667.0</ele><time>2026-05-02T14:02:41Z</time></trkpt><trkpt lat="44.39480766367708" lon="8.128597079589138"><ele>667.0</ele><time>2026-05-02T14:02:42Z</time></trkpt><trkpt lat="44.39460949377851" lon="8.128664950406238"><ele>667.0</ele><time>2026-05-02T14:02:43Z</time></trkpt><trkpt lat="44.39440927468455" lon="8.128665145927114"><ele>667.75</ele><time>2026-05-02T14:02:44Z</time></trkpt><trkpt lat="44.39423718876356" lon="8.128707283851204"><ele>668.5</ele><time>2026-05-02T14:02:45Z</time></trkpt><trkpt lat="44.39409403736587" lon="8.128718992345913"><ele>669.25</ele><time>2026-05-02T14:02:46Z</time></trkpt><trkpt lat="44.393971642493526" lon="8.128752796267078"><ele>670.0</ele><time>2026-05-02T14:02:47Z</time></trkpt><trkpt lat="44.39383811232232" lon="8.12883006307966"><ele>672.0</ele><time>2026-05-02T14:02:48Z</time></trkpt><trkpt lat="44.39368123497078" lon="8.12894579517645"><ele>674.0</ele><time>2026-05-02T14:02:49Z</time></trkpt><trkpt lat="44.39353047092548" lon="8.129078420744674"><ele>676.0</ele><time>2026-05-02T14:02:50Z</time></trkpt><trkpt lat="44.39338187868688" lon="8.129234704067192"><ele>676.0</ele><time>2026-05-02T14:02:51Z</time></trkpt><trkpt lat="44.393249364692544" lon="8.129429074809009"><ele>676.0</ele><time>2026-05-02T14:02:52Z</time></trkpt><trkpt lat="44.39312155302919" lon="8.129636290585118"><ele>676.0</ele><time>2026-05-02T14:02:53Z</time></trkpt><trkpt lat="44.39297387133475" lon="8.129810286102476"><ele>679.3333333333334</ele><time>2026-05-02T14:02:54Z</time></trkpt><trkpt lat="44.392818261395" lon="8.129965648039686"><ele>682.6666666666666</ele><time>2026-05-02T14:02:55Z</time></trkpt><trkpt lat="44.39267154574603" lon="8.130092197704677"><ele>686.0</ele><time>2026-05-02T14:02:56Z</time></trkpt><trkpt lat="44.392528480327755" lon="8.130204206437842"><ele>686.0</ele><time>2026-05-02T14:02:57Z</time></trkpt><trkpt lat="44.39238903142244" lon="8.130300104815252"><ele>686.0</ele><time>2026-05-02T14:02:58Z</time></trkpt><trkpt lat="44.39225442609058" lon="8.13037954184748"><ele>686.0</ele><time>2026-05-02T14:02:59Z</time></trkpt><trkpt lat="44.39211934714055" lon="8.130430672268636"><ele>686.0</ele><time>2026-05-02T14:03:00Z</time></trkpt><trkpt lat="44.39197931572617" lon="8.130426748802558"><ele>688.3333333333333</ele><time>2026-05-02T14:03:01Z</time></trkpt><trkpt lat="44.39182741312122" lon="8.130390418666245"><ele>690.6666666666666</ele><time>2026-05-02T14:03:02Z</time></trkpt><trkpt lat="44.39167903070908" lon="8.13030856483856"><ele>693.0</ele><time>2026-05-02T14:03:03Z</time></trkpt><trkpt lat="44.39152258179727" lon="8.130195695627801"><ele>693.0</ele><time>2026-05-02T14:03:04Z</time></trkpt><trkpt lat="44.3913841579876" lon="8.130098978046073"><ele>693.0</ele><time>2026-05-02T14:03:05Z</time></trkpt><trkpt lat="44.39126787184835" lon="8.130035480642862"><ele>693.0</ele><time>2026-05-02T14:03:06Z</time></trkpt><trkpt lat="44.391174107345854" lon="8.130002836689659"><ele>693.0</ele><time>2026-05-02T14:03:07Z</time></trkpt><trkpt lat="44.39107245261824" lon="8.129992576475805"><ele>693.8</ele><time>2026-05-02T14:03:08Z</time></trkpt><trkpt lat="44.39096924007261" lon="8.130015411158269"><ele>694.5999999999999</ele><time>2026-05-02T14:03:09Z</time></trkpt><trkpt lat="44.39087509992227" lon="8.130085843918666"><ele>695.4000000000001</ele><time>2026-05-02T14:03:10Z</time></trkpt><trkpt lat="44.39078623572192" lon="8.130169686260796"><ele>696.2</ele><time>2026-05-02T14:03:11Z</time></trkpt><trkpt lat="44.39070697521703" lon="8.130300705320202"><ele>697.0</ele><time>2026-05-02T14:03:12Z</time></trkpt><trkpt lat="44.39063605377608" lon="8.13047375194925"><ele>697.0</ele><time>2026-05-02T14:03:13Z</time></trkpt><trkpt lat="44.39056211007531" lon="8.130665535542438"><ele>697.0</ele><time>2026-05-02T14:03:14Z</time></trkpt><trkpt lat="44.39045549978227" lon="8.130840778571736"><ele>697.0</ele><time>2026-05-02T14:03:15Z</time></trkpt><trkpt lat="44.390302568901745" lon="8.131009626007337"><ele>698.3333333333334</ele><time>2026-05-02T14:03:16Z</time></trkpt><trkpt lat="44.39013281816467" lon="8.131187245628862"><ele>699.6666666666666</ele><time>2026-05-02T14:03:17Z</time></trkpt><trkpt lat="44.3899757631291" lon="8.131363131751062"><ele>701.0</ele><time>2026-05-02T14:03:18Z</time></trkpt><trkpt lat="44.389830957993844" lon="8.131503814532923"><ele>703.3333333333333</ele><time>2026-05-02T14:03:19Z</time></trkpt><trkpt lat="44.38968700625264" lon="8.131598536077822"><ele>705.6666666666666</ele><time>2026-05-02T14:03:20Z</time></trkpt><trkpt lat="44.38949385096809" lon="8.13170841465928"><ele>708.0</ele><time>2026-05-02T14:03:21Z</time></trkpt><trkpt lat="44.389272041687484" lon="8.13181805477089"><ele>708.0</ele><time>2026-05-02T14:03:22Z</time></trkpt><trkpt lat="44.389062454260575" lon="8.13192817665848"><ele>708.0</ele><time>2026-05-02T14:03:23Z</time></trkpt><trkpt lat="44.38888960858139" lon="8.132018121263263"><ele>708.0</ele><time>2026-05-02T14:03:24Z</time></trkpt><trkpt lat="44.38872811660622" lon="8.132099579462665"><ele>710.25</ele><time>2026-05-02T14:03:25Z</time></trkpt><trkpt lat="44.38858456249227" lon="8.132166829970078"><ele>712.5</ele><time>2026-05-02T14:03:26Z</time></trkpt><trkpt lat="44.388454706222724" lon="8.132205654601146"><ele>714.75</ele><time>2026-05-02T14:03:27Z</time></trkpt><trkpt lat="44.38832498037646" lon="8.132195164785115"><ele>717.0</ele><time>2026-05-02T14:03:28Z</time></trkpt><trkpt lat="44.38817490581516" lon="8.132154989817481"><ele>718.0</ele><time>2026-05-02T14:03:29Z</time></trkpt><trkpt lat="44.38800993436091" lon="8.132078618019888"><ele>719.0</ele><time>2026-05-02T14:03:30Z</time></trkpt><trkpt lat="44.38782277222854" lon="8.131992429238165"><ele>720.0</ele><time>2026-05-02T14:03:31Z</time></trkpt><trkpt lat="44.38761648005211" lon="8.13192168504142"><ele>720.0</ele><time>2026-05-02T14:03:32Z</time></trkpt><trkpt lat="44.38741407236304" lon="8.131876539185543"><ele>720.0</ele><time>2026-05-02T14:03:33Z</time></trkpt><trkpt lat="44.387232781246134" lon="8.131846038449696"><ele>720.0</ele><time>2026-05-02T14:03:34Z</time></trkpt><trkpt lat="44.38707235958851" lon="8.131808238333505"><ele>719.0</ele><time>2026-05-02T14:03:35Z</time></trkpt><trkpt lat="44.38692025542773" lon="8.131766237292869"><ele>718.0</ele><time>2026-05-02T14:03:36Z</time></trkpt><trkpt lat="44.38676066197414" lon="8.131690404398082"><ele>717.0</ele><time>2026-05-02T14:03:37Z</time></trkpt><trkpt lat="44.38660952642214" lon="8.131577977642019"><ele>716.75</ele><time>2026-05-02T14:03:38Z</time></trkpt><trkpt lat="44.38647926801097" lon="8.13146305794361"><ele>716.5</ele><time>2026-05-02T14:03:39Z</time></trkpt><trkpt lat="44.38635870049898" lon="8.131371324944254"><ele>716.25</ele><time>2026-05-02T14:03:40Z</time></trkpt><trkpt lat="44.38621958721853" lon="8.13129915444896"><ele>716.0</ele><time>2026-05-02T14:03:41Z</time></trkpt><trkpt lat="44.38606505037131" lon="8.131259924394774"><ele>717.6666666666666</ele><time>2026-05-02T14:03:42Z</time></trkpt><trkpt lat="44.38590679154476" lon="8.131248674232717"><ele>719.3333333333334</ele><time>2026-05-02T14:03:43Z</time></trkpt><trkpt lat="44.38573993839738" lon="8.1312562049475"><ele>721.0</ele><time>2026-05-02T14:03:44Z</time></trkpt><trkpt lat="44.38556840941356" lon="8.131265009047032"><ele>724.3333333333334</ele><time>2026-05-02T14:03:45Z</time></trkpt><trkpt lat="44.385393055687274" lon="8.13127804466818"><ele>727.6666666666666</ele><time>2026-05-02T14:03:46Z</time></trkpt><trkpt lat="44.38520500685384" lon="8.131306369320214"><ele>731.0</ele><time>2026-05-02T14:03:47Z</time></trkpt><trkpt lat="44.38501438194263" lon="8.131343602699989"><ele>731.0</ele><time>2026-05-02T14:03:48Z</time></trkpt><trkpt lat="44.38481086644588" lon="8.13138613658751"><ele>731.0</ele><time>2026-05-02T14:03:49Z</time></trkpt><trkpt lat="44.38459284681931" lon="8.131430240195984"><ele>731.0</ele><time>2026-05-02T14:03:50Z</time></trkpt><trkpt lat="44.384407303423465" lon="8.131459297645154"><ele>729.6666666666666</ele><time>2026-05-02T14:03:51Z</time></trkpt><trkpt lat="44.384238602951875" lon="8.13149360677807"><ele>728.3333333333334</ele><time>2026-05-02T14:03:52Z</time></trkpt><trkpt lat="44.3840713988162" lon="8.13155004383511"><ele>727.0</ele><time>2026-05-02T14:03:53Z</time></trkpt><trkpt lat="44.38390509623361" lon="8.131600255768324"><ele>727.6666666666667</ele><time>2026-05-02T14:03:54Z</time></trkpt><trkpt lat="44.38375029345147" lon="8.131689449538353"><ele>728.3333333333334</ele><time>2026-05-02T14:03:55Z</time></trkpt><trkpt lat="44.38360704537073" lon="8.131794476444599"><ele>729.0</ele><time>2026-05-02T14:03:56Z</time></trkpt><trkpt lat="44.383458814361035" lon="8.131854938290244"><ele>729.0</ele><time>2026-05-02T14:03:57Z</time></trkpt><trkpt lat="44.38332867617856" lon="8.131894749019162"><ele>729.0</ele><time>2026-05-02T14:03:58Z</time></trkpt><trkpt lat="44.38320952833155" lon="8.131941838556052"><ele>729.0</ele><time>2026-05-02T14:03:59Z</time></trkpt><trkpt lat="44.383084692084815" lon="8.131972947117545"><ele>729.0</ele><time>2026-05-02T14:04:00Z</time></trkpt><trkpt lat="44.38295944196763" lon="8.132090661008862"><ele>729.0</ele><time>2026-05-02T14:04:01Z</time></trkpt><trkpt lat="44.38286554028402" lon="8.132171582222302"><ele>729.0</ele><time>2026-05-02T14:04:02Z</time></trkpt><trkpt lat="44.382784907121" lon="8.13224510047845"><ele>729.0</ele><time>2026-05-02T14:04:04Z</time></trkpt><trkpt lat="44.38219478461834" lon="8.133086592538039"><ele>727.3333333333334</ele><time>2026-05-02T14:04:09Z</time></trkpt><trkpt lat="44.38207103465336" lon="8.133278687680626"><ele>725.6666666666667</ele><time>2026-05-02T14:04:10Z</time></trkpt><trkpt lat="44.381931769443824" lon="8.133465005985858"><ele>724.0</ele><time>2026-05-02T14:04:11Z</time></trkpt><trkpt lat="44.38181257690084" lon="8.133657320238527"><ele>724.0</ele><time>2026-05-02T14:04:12Z</time></trkpt><trkpt lat="44.381706346996694" lon="8.133827170088768"><ele>724.0</ele><time>2026-05-02T14:04:13Z</time></trkpt><trkpt lat="44.38158735031964" lon="8.133935559668808"><ele>724.0</ele><time>2026-05-02T14:04:14Z</time></trkpt><trkpt lat="44.38144479470613" lon="8.13406590082933"><ele>723.6666666666667</ele><time>2026-05-02T14:04:15Z</time></trkpt><trkpt lat="44.381295606549955" lon="8.134203077196386"><ele>723.3333333333334</ele><time>2026-05-02T14:04:16Z</time></trkpt><trkpt lat="44.38116559330995" lon="8.134324720707667"><ele>723.0</ele><time>2026-05-02T14:04:17Z</time></trkpt><trkpt lat="44.381070327189114" lon="8.134441811722905"><ele>723.0</ele><time>2026-05-02T14:04:18Z</time></trkpt><trkpt lat="44.3809738232684" lon="8.13454127076356"><ele>723.0</ele><time>2026-05-02T14:04:19Z</time></trkpt><trkpt lat="44.38089637327992" lon="8.134646601676577"><ele>723.0</ele><time>2026-05-02T14:04:20Z</time></trkpt><trkpt lat="44.38082145492744" lon="8.1347860292752"><ele>723.0</ele><time>2026-05-02T14:04:21Z</time></trkpt><trkpt lat="44.38075440128458" lon="8.134951101813652"><ele>725.5</ele><time>2026-05-02T14:04:22Z</time></trkpt><trkpt lat="44.380700485638606" lon="8.135135233833424"><ele>728.0</ele><time>2026-05-02T14:04:23Z</time></trkpt><trkpt lat="44.380665658026594" lon="8.135314646607442"><ele>730.5</ele><time>2026-05-02T14:04:24Z</time></trkpt><trkpt lat="44.380644810301554" lon="8.135499873129694"><ele>733.0</ele><time>2026-05-02T14:04:25Z</time></trkpt><trkpt lat="44.38063113875148" lon="8.13571009626377"><ele>735.6666666666667</ele><time>2026-05-02T14:04:26Z</time></trkpt><trkpt lat="44.38062406106332" lon="8.1359389191716"><ele>738.3333333333334</ele><time>2026-05-02T14:04:27Z</time></trkpt><trkpt lat="44.38061626350339" lon="8.136175161506054"><ele>741.0</ele><time>2026-05-02T14:04:28Z</time></trkpt><trkpt lat="44.38060766094172" lon="8.136365193205833"><ele>741.0</ele><time>2026-05-02T14:04:29Z</time></trkpt><trkpt lat="44.38058322278671" lon="8.136540890766803"><ele>741.0</ele><time>2026-05-02T14:04:30Z</time></trkpt><trkpt lat="44.3805376309193" lon="8.136728506499532"><ele>741.0</ele><time>2026-05-02T14:04:31Z</time></trkpt><trkpt lat="44.380428921090854" lon="8.13693759456631"><ele>738.0</ele><time>2026-05-02T14:04:32Z</time></trkpt><trkpt lat="44.38034343121218" lon="8.137153721918706"><ele>735.0</ele><time>2026-05-02T14:04:33Z</time></trkpt><trkpt lat="44.38026508882438" lon="8.137361546056926"><ele>732.0</ele><time>2026-05-02T14:04:34Z</time></trkpt><trkpt lat="44.38020359325084" lon="8.137598393976235"><ele>732.0</ele><time>2026-05-02T14:04:35Z</time></trkpt><trkpt lat="44.38015180264235" lon="8.137816465131566"><ele>732.0</ele><time>2026-05-02T14:04:36Z</time></trkpt><trkpt lat="44.380093024352796" lon="8.138003650764666"><ele>732.0</ele><time>2026-05-02T14:04:37Z</time></trkpt><trkpt lat="44.38000662544847" lon="8.13813879833855"><ele>732.0</ele><time>2026-05-02T14:04:38Z</time></trkpt><trkpt lat="44.37990551417753" lon="8.138269583580177"><ele>731.3333333333334</ele><time>2026-05-02T14:04:39Z</time></trkpt><trkpt lat="44.37977701320784" lon="8.138393489108774"><ele>730.6666666666667</ele><time>2026-05-02T14:04:40Z</time></trkpt><trkpt lat="44.379615381256286" lon="8.138482174985484"><ele>730.0</ele><time>2026-05-02T14:04:41Z</time></trkpt><trkpt lat="44.3794506125593" lon="8.138537302355584"><ele>730.0</ele><time>2026-05-02T14:04:42Z</time></trkpt><trkpt lat="44.37931230042446" lon="8.138597099930097"><ele>730.0</ele><time>2026-05-02T14:04:43Z</time></trkpt><trkpt lat="44.379209445692716" lon="8.138664419192844"><ele>730.0</ele><time>2026-05-02T14:04:44Z</time></trkpt><trkpt lat="44.37911880172091" lon="8.138746817133104"><ele>730.0</ele><time>2026-05-02T14:04:45Z</time></trkpt><trkpt lat="44.37903569633326" lon="8.138863702306939"><ele>730.0</ele><time>2026-05-02T14:04:46Z</time></trkpt><trkpt lat="44.37895848147692" lon="8.139018371398711"><ele>730.0</ele><time>2026-05-02T14:04:47Z</time></trkpt><trkpt lat="44.37888364443023" lon="8.139183369402241"><ele>730.0</ele><time>2026-05-02T14:04:48Z</time></trkpt><trkpt lat="44.378818942204916" lon="8.13937411941537"><ele>730.0</ele><time>2026-05-02T14:04:49Z</time></trkpt><trkpt lat="44.378764020425045" lon="8.139601820453093"><ele>730.0</ele><time>2026-05-02T14:04:50Z</time></trkpt><trkpt lat="44.37870033981541" lon="8.139858531134342"><ele>730.0</ele><time>2026-05-02T14:04:51Z</time></trkpt><trkpt lat="44.378653136744006" lon="8.140121424549877"><ele>730.0</ele><time>2026-05-02T14:04:52Z</time></trkpt><trkpt lat="44.378638607296246" lon="8.140354289919571"><ele>730.0</ele><time>2026-05-02T14:04:53Z</time></trkpt><trkpt lat="44.37859011572897" lon="8.140550219567416"><ele>730.0</ele><time>2026-05-02T14:04:54Z</time></trkpt><trkpt lat="44.37853531593033" lon="8.140740086534384"><ele>730.0</ele><time>2026-05-02T14:04:55Z</time></trkpt><trkpt lat="44.37845855460162" lon="8.140909872271573"><ele>730.0</ele><time>2026-05-02T14:04:56Z</time></trkpt><trkpt lat="44.37836241448843" lon="8.141044729765314"><ele>731.8</ele><time>2026-05-02T14:04:57Z</time></trkpt><trkpt lat="44.37829782475884" lon="8.141196761720847"><ele>733.6</ele><time>2026-05-02T14:04:58Z</time></trkpt><trkpt lat="44.378236745380235" lon="8.14131080271462"><ele>735.4000000000001</ele><time>2026-05-02T14:04:59Z</time></trkpt><trkpt lat="44.37817144107471" lon="8.141370370768822"><ele>737.2</ele><time>2026-05-02T14:05:00Z</time></trkpt><trkpt lat="44.37811731471668" lon="8.141424686071014"><ele>739.0</ele><time>2026-05-02T14:05:01Z</time></trkpt><trkpt lat="44.37803347680291" lon="8.141445588105"><ele>737.5</ele><time>2026-05-02T14:05:02Z</time></trkpt><trkpt lat="44.37790703550444" lon="8.141464622603262"><ele>736.0</ele><time>2026-05-02T14:05:03Z</time></trkpt><trkpt lat="44.377769439265094" lon="8.141462894397"><ele>734.5</ele><time>2026-05-02T14:05:04Z</time></trkpt><trkpt lat="44.37763425657415" lon="8.141490930643439"><ele>733.0</ele><time>2026-05-02T14:05:05Z</time></trkpt><trkpt lat="44.37749958547443" lon="8.141510773869493"><ele>733.0</ele><time>2026-05-02T14:05:06Z</time></trkpt><trkpt lat="44.377380360647656" lon="8.141514392524607"><ele>733.0</ele><time>2026-05-02T14:05:07Z</time></trkpt><trkpt lat="44.37727874900064" lon="8.141469490706573"><ele>733.0</ele><time>2026-05-02T14:05:08Z</time></trkpt><trkpt lat="44.377144435744015" lon="8.14142161614417"><ele>733.0</ele><time>2026-05-02T14:05:09Z</time></trkpt><trkpt lat="44.37698529499857" lon="8.141337811110859"><ele>733.3333333333334</ele><time>2026-05-02T14:05:10Z</time></trkpt><trkpt lat="44.37681461480137" lon="8.141244889582971"><ele>733.6666666666666</ele><time>2026-05-02T14:05:11Z</time></trkpt><trkpt lat="44.37664898960329" lon="8.141155375434069"><ele>734.0</ele><time>2026-05-02T14:05:12Z</time></trkpt><trkpt lat="44.376500738318825" lon="8.141064859473907"><ele>734.0</ele><time>2026-05-02T14:05:13Z</time></trkpt><trkpt lat="44.37636266405792" lon="8.140985849055761"><ele>734.0</ele><time>2026-05-02T14:05:14Z</time></trkpt><trkpt lat="44.376241884736245" lon="8.140906719904867"><ele>734.0</ele><time>2026-05-02T14:05:15Z</time></trkpt><trkpt lat="44.3761311399043" lon="8.140818357609948"><ele>734.0</ele><time>2026-05-02T14:05:16Z</time></trkpt><trkpt lat="44.37603065902062" lon="8.140711387955001"><ele>733.75</ele><time>2026-05-02T14:05:17Z</time></trkpt><trkpt lat="44.375928835967066" lon="8.140596115358496"><ele>733.5</ele><time>2026-05-02T14:05:18Z</time></trkpt><trkpt lat="44.37582932649401" lon="8.140499036142394"><ele>733.25</ele><time>2026-05-02T14:05:19Z</time></trkpt><trkpt lat="44.375735975223584" lon="8.140413111930732"><ele>733.0</ele><time>2026-05-02T14:05:20Z</time></trkpt><trkpt lat="44.37564495521283" lon="8.140329889403352"><ele>733.0</ele><time>2026-05-02T14:05:21Z</time></trkpt><trkpt lat="44.37555628574335" lon="8.140247081195778"><ele>733.0</ele><time>2026-05-02T14:05:22Z</time></trkpt><trkpt lat="44.37546817035673" lon="8.14016279303349"><ele>733.0</ele><time>2026-05-02T14:05:23Z</time></trkpt><trkpt lat="44.375385942236" lon="8.140078135611699"><ele>733.0</ele><time>2026-05-02T14:05:24Z</time></trkpt><trkpt lat="44.375318765762195" lon="8.139995827458764"><ele>733.0</ele><time>2026-05-02T14:05:25Z</time></trkpt><trkpt lat="44.375256643950124" lon="8.139915841360528"><ele>732.0</ele><time>2026-05-02T14:05:26Z</time></trkpt><trkpt lat="44.37520613049807" lon="8.13984617475978"><ele>731.0</ele><time>2026-05-02T14:05:27Z</time></trkpt><trkpt lat="44.37514067444961" lon="8.139727193400553"><ele>730.0</ele><time>2026-05-02T14:05:29Z</time></trkpt><trkpt lat="44.37510396709124" lon="8.139617376421866"><ele>729.0</ele><time>2026-05-02T14:05:31Z</time></trkpt><trkpt lat="44.375079096195435" lon="8.139508474327775"><ele>728.0</ele><time>2026-05-02T14:05:33Z</time></trkpt><trkpt lat="44.37501017437703" lon="8.139492022540946"><ele>727.0</ele><time>2026-05-02T14:05:35Z</time></trkpt><trkpt lat="44.37494795389721" lon="8.139529451726846"><ele>727.0</ele><time>2026-05-02T14:05:37Z</time></trkpt><trkpt lat="44.3748888209439" lon="8.139559985900474"><ele>727.0</ele><time>2026-05-02T14:05:39Z</time></trkpt><trkpt lat="44.37488944565882" lon="8.139673884394009"><ele>727.0</ele><time>2026-05-02T14:09:12Z</time></trkpt><trkpt lat="44.37490740411249" lon="8.139783338975237"><ele>727.0</ele><time>2026-05-02T14:09:14Z</time></trkpt><trkpt lat="44.3749928218924" lon="8.139809971299945"><ele>727.0</ele><time>2026-05-02T14:09:16Z</time></trkpt><trkpt lat="44.375051306824524" lon="8.139728984224591"><ele>727.0</ele><time>2026-05-02T14:09:18Z</time></trkpt><trkpt lat="44.375097365631284" lon="8.139623096478072"><ele>727.0</ele><time>2026-05-02T14:09:20Z</time></trkpt><trkpt lat="44.37515380923887" lon="8.139508295759535"><ele>727.0</ele><time>2026-05-02T14:09:22Z</time></trkpt><trkpt lat="44.375227458661065" lon="8.139435587760145"><ele>727.0</ele><time>2026-05-02T14:09:24Z</time></trkpt><trkpt lat="44.375296048665334" lon="8.139382426462777"><ele>727.0</ele><time>2026-05-02T14:09:25Z</time></trkpt><trkpt lat="44.37538719892259" lon="8.13935247497185"><ele>727.0</ele><time>2026-05-02T14:09:26Z</time></trkpt><trkpt lat="44.375521459027254" lon="8.139339359924211"><ele>726.0</ele><time>2026-05-02T14:09:27Z</time></trkpt><trkpt lat="44.37564321943015" lon="8.13934398728496"><ele>725.0</ele><time>2026-05-02T14:09:28Z</time></trkpt><trkpt lat="44.375751419737554" lon="8.139363257100923"><ele>724.0</ele><time>2026-05-02T14:09:29Z</time></trkpt><trkpt lat="44.37584836540952" lon="8.139383011977152"><ele>723.0</ele><time>2026-05-02T14:09:30Z</time></trkpt><trkpt lat="44.37596082651299" lon="8.139413337004633"><ele>722.0</ele><time>2026-05-02T14:09:31Z</time></trkpt><trkpt lat="44.37610776316289" lon="8.139517244743418"><ele>722.0</ele><time>2026-05-02T14:09:32Z</time></trkpt><trkpt lat="44.37627977045721" lon="8.139615789813554"><ele>722.0</ele><time>2026-05-02T14:09:33Z</time></trkpt><trkpt lat="44.37642934007762" lon="8.139713793176078"><ele>722.0</ele><time>2026-05-02T14:09:34Z</time></trkpt><trkpt lat="44.3765650686133" lon="8.139801459686849"><ele>721.25</ele><time>2026-05-02T14:09:35Z</time></trkpt><trkpt lat="44.37668809683044" lon="8.139876424336727"><ele>720.5</ele><time>2026-05-02T14:09:36Z</time></trkpt><trkpt lat="44.37680137422188" lon="8.139945189957045"><ele>719.75</ele><time>2026-05-02T14:09:37Z</time></trkpt><trkpt lat="44.37691035063534" lon="8.139997062521545"><ele>719.0</ele><time>2026-05-02T14:09:38Z</time></trkpt><trkpt lat="44.37702901490982" lon="8.14001103570263"><ele>719.0</ele><time>2026-05-02T14:09:39Z</time></trkpt><trkpt lat="44.377136358097566" lon="8.140007732351512"><ele>719.0</ele><time>2026-05-02T14:09:40Z</time></trkpt><trkpt lat="44.37723883168582" lon="8.139979834748413"><ele>719.0</ele><time>2026-05-02T14:09:41Z</time></trkpt><trkpt lat="44.37733198023193" lon="8.139924412015935"><ele>719.0</ele><time>2026-05-02T14:09:42Z</time></trkpt><trkpt lat="44.37741723122196" lon="8.139834288078584"><ele>719.0</ele><time>2026-05-02T14:09:43Z</time></trkpt><trkpt lat="44.37749063212361" lon="8.13971735531511"><ele>716.6666666666666</ele><time>2026-05-02T14:09:44Z</time></trkpt><trkpt lat="44.377539964934655" lon="8.139539416796746"><ele>714.3333333333334</ele><time>2026-05-02T14:09:45Z</time></trkpt><trkpt lat="44.37758081971924" lon="8.13931037409201"><ele>712.0</ele><time>2026-05-02T14:09:46Z</time></trkpt><trkpt lat="44.37759598868502" lon="8.139061081180452"><ele>709.75</ele><time>2026-05-02T14:09:47Z</time></trkpt><trkpt lat="44.37760171880036" lon="8.138843632327355"><ele>707.5</ele><time>2026-05-02T14:09:48Z</time></trkpt><trkpt lat="44.377623404333164" lon="8.138649702443203"><ele>705.25</ele><time>2026-05-02T14:09:49Z</time></trkpt><trkpt lat="44.377676600084776" lon="8.138476758467046"><ele>703.0</ele><time>2026-05-02T14:09:50Z</time></trkpt><trkpt lat="44.377746300975375" lon="8.138288900104907"><ele>700.3333333333334</ele><time>2026-05-02T14:09:51Z</time></trkpt><trkpt lat="44.37784527769424" lon="8.138122713328155"><ele>697.6666666666666</ele><time>2026-05-02T14:09:52Z</time></trkpt><trkpt lat="44.37797255019169" lon="8.137965033308658"><ele>695.0</ele><time>2026-05-02T14:09:53Z</time></trkpt><trkpt lat="44.37813774818105" lon="8.137853885298298"><ele>695.0</ele><time>2026-05-02T14:09:54Z</time></trkpt><trkpt lat="44.37831370275145" lon="8.137718979877533"><ele>695.0</ele><time>2026-05-02T14:09:55Z</time></trkpt><trkpt lat="44.37851999726592" lon="8.137611651059963"><ele>695.0</ele><time>2026-05-02T14:09:56Z</time></trkpt><trkpt lat="44.37867190224211" lon="8.137479400979801"><ele>693.6666666666666</ele><time>2026-05-02T14:09:57Z</time></trkpt><trkpt lat="44.378808728718184" lon="8.13732278317582"><ele>692.3333333333334</ele><time>2026-05-02T14:09:58Z</time></trkpt><trkpt lat="44.378929062335295" lon="8.137159069374578"><ele>691.0</ele><time>2026-05-02T14:09:59Z</time></trkpt><trkpt lat="44.379032153060805" lon="8.136977016717704"><ele>691.0</ele><time>2026-05-02T14:10:00Z</time></trkpt><trkpt lat="44.379122168671145" lon="8.136791251392872"><ele>691.0</ele><time>2026-05-02T14:10:01Z</time></trkpt><trkpt lat="44.379198374378966" lon="8.136590790415559"><ele>691.0</ele><time>2026-05-02T14:10:02Z</time></trkpt><trkpt lat="44.37926160241371" lon="8.136371904291195"><ele>687.6666666666667</ele><time>2026-05-02T14:10:03Z</time></trkpt><trkpt lat="44.379303195730635" lon="8.13614353712305"><ele>684.3333333333334</ele><time>2026-05-02T14:10:04Z</time></trkpt><trkpt lat="44.379334499624036" lon="8.13592508272815"><ele>681.0</ele><time>2026-05-02T14:10:05Z</time></trkpt><trkpt lat="44.37934544190478" lon="8.135673638050909"><ele>680.6666666666666</ele><time>2026-05-02T14:10:06Z</time></trkpt><trkpt lat="44.37932595548547" lon="8.135382597610725"><ele>680.3333333333333</ele><time>2026-05-02T14:10:07Z</time></trkpt><trkpt lat="44.37928250743887" lon="8.135077703380846"><ele>680.0</ele><time>2026-05-02T14:10:08Z</time></trkpt><trkpt lat="44.37923210101392" lon="8.134774074975903"><ele>678.3333333333333</ele><time>2026-05-02T14:10:09Z</time></trkpt><trkpt lat="44.37918909831584" lon="8.134519207751602"><ele>676.6666666666666</ele><time>2026-05-02T14:10:10Z</time></trkpt><trkpt lat="44.37915558421833" lon="8.134295176722569"><ele>675.0</ele><time>2026-05-02T14:10:11Z</time></trkpt><trkpt lat="44.379142456800224" lon="8.134071013611528"><ele>672.3333333333334</ele><time>2026-05-02T14:10:12Z</time></trkpt><trkpt lat="44.379159696888756" lon="8.133841091350233"><ele>669.6666666666667</ele><time>2026-05-02T14:10:13Z</time></trkpt><trkpt lat="44.379217966916116" lon="8.133574565652523"><ele>667.0</ele><time>2026-05-02T14:10:14Z</time></trkpt><trkpt lat="44.37929814240696" lon="8.133306136723796"><ele>663.0</ele><time>2026-05-02T14:10:15Z</time></trkpt><trkpt lat="44.37937750738364" lon="8.133045506855302"><ele>659.0</ele><time>2026-05-02T14:10:16Z</time></trkpt><trkpt lat="44.37943433789947" lon="8.132837035853306"><ele>655.0</ele><time>2026-05-02T14:10:17Z</time></trkpt><trkpt lat="44.37946891741217" lon="8.132673255010845"><ele>655.0</ele><time>2026-05-02T14:10:18Z</time></trkpt><trkpt lat="44.379489427668574" lon="8.132534198115296"><ele>655.0</ele><time>2026-05-02T14:10:19Z</time></trkpt><trkpt lat="44.379483396965576" lon="8.132399236482806"><ele>655.0</ele><time>2026-05-02T14:10:20Z</time></trkpt><trkpt lat="44.3794381994814" lon="8.132266795934285"><ele>655.0</ele><time>2026-05-02T14:10:21Z</time></trkpt><trkpt lat="44.37936113402518" lon="8.132155917651135"><ele>655.0</ele><time>2026-05-02T14:10:22Z</time></trkpt><trkpt lat="44.379270338641604" lon="8.132095470658456"><ele>651.8</ele><time>2026-05-02T14:10:23Z</time></trkpt><trkpt lat="44.37916994960813" lon="8.132072984026609"><ele>648.6</ele><time>2026-05-02T14:10:24Z</time></trkpt><trkpt lat="44.37906119696812" lon="8.13208892836424"><ele>645.4</ele><time>2026-05-02T14:10:25Z</time></trkpt><trkpt lat="44.37896100593259" lon="8.132156858760203"><ele>642.2</ele><time>2026-05-02T14:10:26Z</time></trkpt><trkpt lat="44.378878267343765" lon="8.132261833543424"><ele>639.0</ele><time>2026-05-02T14:10:27Z</time></trkpt><trkpt lat="44.37881399909335" lon="8.132417282721962"><ele>639.0</ele><time>2026-05-02T14:10:28Z</time></trkpt><trkpt lat="44.37877192374451" lon="8.132617535133834"><ele>639.0</ele><time>2026-05-02T14:10:29Z</time></trkpt><trkpt lat="44.37874335129823" lon="8.132858294740231"><ele>639.0</ele><time>2026-05-02T14:10:30Z</time></trkpt><trkpt lat="44.37872001692702" lon="8.13311706395384"><ele>641.3333333333334</ele><time>2026-05-02T14:10:31Z</time></trkpt><trkpt lat="44.37869879423573" lon="8.133375947802563"><ele>643.6666666666667</ele><time>2026-05-02T14:10:32Z</time></trkpt><trkpt lat="44.37865408842419" lon="8.133619544118941"><ele>646.0</ele><time>2026-05-02T14:10:33Z</time></trkpt><trkpt lat="44.378625670945034" lon="8.133842955755169"><ele>647.25</ele><time>2026-05-02T14:10:34Z</time></trkpt><trkpt lat="44.37859647183215" lon="8.13407623219522"><ele>648.5</ele><time>2026-05-02T14:10:35Z</time></trkpt><trkpt lat="44.3785664232834" lon="8.134287860534881"><ele>649.75</ele><time>2026-05-02T14:10:36Z</time></trkpt><trkpt lat="44.37853487887713" lon="8.134446981275113"><ele>651.0</ele><time>2026-05-02T14:10:37Z</time></trkpt><trkpt lat="44.37848771399975" lon="8.134579612714269"><ele>651.0</ele><time>2026-05-02T14:10:38Z</time></trkpt><trkpt lat="44.378420512007196" lon="8.134678533384681"><ele>651.0</ele><time>2026-05-02T14:10:39Z</time></trkpt><trkpt lat="44.378333009200865" lon="8.134757284811347"><ele>651.0</ele><time>2026-05-02T14:10:40Z</time></trkpt><trkpt lat="44.378239301366314" lon="8.13478669923353"><ele>651.0</ele><time>2026-05-02T14:10:41Z</time></trkpt><trkpt lat="44.37814787981741" lon="8.134782710598522"><ele>651.0</ele><time>2026-05-02T14:10:42Z</time></trkpt><trkpt lat="44.37804935784235" lon="8.134757268801202"><ele>649.25</ele><time>2026-05-02T14:10:43Z</time></trkpt><trkpt lat="44.377970191704314" lon="8.134667046623003"><ele>647.5</ele><time>2026-05-02T14:10:44Z</time></trkpt><trkpt lat="44.37790154845575" lon="8.13454121591622"><ele>645.75</ele><time>2026-05-02T14:10:45Z</time></trkpt><trkpt lat="44.377869033821774" lon="8.134391246488656"><ele>644.0</ele><time>2026-05-02T14:10:46Z</time></trkpt><trkpt lat="44.377864911746414" lon="8.134205887164873"><ele>639.3333333333333</ele><time>2026-05-02T14:10:47Z</time></trkpt><trkpt lat="44.37788584777369" lon="8.133975355083235"><ele>634.6666666666666</ele><time>2026-05-02T14:10:48Z</time></trkpt><trkpt lat="44.37792623311706" lon="8.133683538535479"><ele>630.0</ele><time>2026-05-02T14:10:49Z</time></trkpt><trkpt lat="44.37797311048857" lon="8.133342352603673"><ele>633.0</ele><time>2026-05-02T14:10:50Z</time></trkpt><trkpt lat="44.37801272076198" lon="8.133057984656295"><ele>636.0</ele><time>2026-05-02T14:10:51Z</time></trkpt><trkpt lat="44.37804055646754" lon="8.132828552101936"><ele>639.0</ele><time>2026-05-02T14:10:52Z</time></trkpt><trkpt lat="44.37806724859932" lon="8.132636835681867"><ele>639.0</ele><time>2026-05-02T14:10:53Z</time></trkpt><trkpt lat="44.37810057511513" lon="8.132459371262039"><ele>639.0</ele><time>2026-05-02T14:10:54Z</time></trkpt><trkpt lat="44.378150792716674" lon="8.132298470917299"><ele>639.0</ele><time>2026-05-02T14:10:55Z</time></trkpt><trkpt lat="44.378239812581306" lon="8.132149409714879"><ele>639.0</ele><time>2026-05-02T14:10:56Z</time></trkpt><trkpt lat="44.37837685841614" lon="8.131978718531203"><ele>634.3333333333334</ele><time>2026-05-02T14:10:57Z</time></trkpt><trkpt lat="44.37855896012041" lon="8.131810848409632"><ele>629.6666666666667</ele><time>2026-05-02T14:10:58Z</time></trkpt><trkpt lat="44.37872751785469" lon="8.131643664783025"><ele>625.0</ele><time>2026-05-02T14:10:59Z</time></trkpt><trkpt lat="44.37886739908783" lon="8.131506705313504"><ele>623.0</ele><time>2026-05-02T14:11:00Z</time></trkpt><trkpt lat="44.37899266377848" lon="8.131396952274406"><ele>621.0</ele><time>2026-05-02T14:11:01Z</time></trkpt><trkpt lat="44.37912662696594" lon="8.131326601457944"><ele>619.0</ele><time>2026-05-02T14:11:02Z</time></trkpt><trkpt lat="44.3792861740076" lon="8.131293449314478"><ele>619.0</ele><time>2026-05-02T14:11:03Z</time></trkpt><trkpt lat="44.379452051841966" lon="8.131279751192578"><ele>619.0</ele><time>2026-05-02T14:11:04Z</time></trkpt><trkpt lat="44.379586966853246" lon="8.131268638568814"><ele>619.0</ele><time>2026-05-02T14:11:05Z</time></trkpt><trkpt lat="44.37969368381222" lon="8.131234148704493"><ele>619.0</ele><time>2026-05-02T14:11:06Z</time></trkpt><trkpt lat="44.37977708213812" lon="8.131150852541271"><ele>618.0</ele><time>2026-05-02T14:11:07Z</time></trkpt><trkpt lat="44.3798557296599" lon="8.131007809705215"><ele>617.0</ele><time>2026-05-02T14:11:08Z</time></trkpt><trkpt lat="44.37992412153257" lon="8.130821070255768"><ele>616.0</ele><time>2026-05-02T14:11:09Z</time></trkpt><trkpt lat="44.37997727724688" lon="8.13061195051568"><ele>615.0</ele><time>2026-05-02T14:11:10Z</time></trkpt><trkpt lat="44.380037618075725" lon="8.13038889294435"><ele>615.0</ele><time>2026-05-02T14:11:11Z</time></trkpt><trkpt lat="44.3801117653262" lon="8.130120423443561"><ele>615.0</ele><time>2026-05-02T14:11:12Z</time></trkpt><trkpt lat="44.38019647766949" lon="8.129814594082463"><ele>615.0</ele><time>2026-05-02T14:11:13Z</time></trkpt><trkpt lat="44.38028252372276" lon="8.12951944965917"><ele>610.6666666666666</ele><time>2026-05-02T14:11:14Z</time></trkpt><trkpt lat="44.38035029363024" lon="8.129275244262498"><ele>606.3333333333333</ele><time>2026-05-02T14:11:15Z</time></trkpt><trkpt lat="44.38041644057565" lon="8.129065104219857"><ele>602.0</ele><time>2026-05-02T14:11:16Z</time></trkpt><trkpt lat="44.380487576669296" lon="8.128851307731441"><ele>603.0</ele><time>2026-05-02T14:11:17Z</time></trkpt><trkpt lat="44.38059253728114" lon="8.128615556768935"><ele>604.0</ele><time>2026-05-02T14:11:18Z</time></trkpt><trkpt lat="44.380736262801776" lon="8.128348944607078"><ele>605.0</ele><time>2026-05-02T14:11:19Z</time></trkpt><trkpt lat="44.38090031478816" lon="8.12805895328138"><ele>597.0</ele><time>2026-05-02T14:11:20Z</time></trkpt><trkpt lat="44.38105939107087" lon="8.127764495629664"><ele>589.0</ele><time>2026-05-02T14:11:21Z</time></trkpt><trkpt lat="44.38122126288414" lon="8.127463015329619"><ele>592.0</ele><time>2026-05-02T14:11:22Z</time></trkpt><trkpt lat="44.3813889183029" lon="8.127149312246363"><ele>595.0</ele><time>2026-05-02T14:11:23Z</time></trkpt><trkpt lat="44.38155740413876" lon="8.126825135655535"><ele>588.5</ele><time>2026-05-02T14:11:24Z</time></trkpt><trkpt lat="44.3817170942184" lon="8.126513778316207"><ele>582.0</ele><time>2026-05-02T14:11:25Z</time></trkpt><trkpt lat="44.38186701912081" lon="8.126220570504913"><ele>582.0</ele><time>2026-05-02T14:11:26Z</time></trkpt><trkpt lat="44.382006628644746" lon="8.125947759636043"><ele>582.0</ele><time>2026-05-02T14:11:27Z</time></trkpt><trkpt lat="44.38213627002627" lon="8.125683854938918"><ele>584.0</ele><time>2026-05-02T14:11:28Z</time></trkpt><trkpt lat="44.382257654673694" lon="8.125430100872403"><ele>586.0</ele><time>2026-05-02T14:11:29Z</time></trkpt><trkpt lat="44.38236542753407" lon="8.125207323653301"><ele>588.0</ele><time>2026-05-02T14:11:30Z</time></trkpt><trkpt lat="44.38245509725317" lon="8.1249827170562"><ele>583.3333333333334</ele><time>2026-05-02T14:11:31Z</time></trkpt><trkpt lat="44.38253218651001" lon="8.124719073702279"><ele>578.6666666666667</ele><time>2026-05-02T14:11:32Z</time></trkpt><trkpt lat="44.38261774717671" lon="8.124466354035308"><ele>574.0</ele><time>2026-05-02T14:11:33Z</time></trkpt><trkpt lat="44.38270225765841" lon="8.124262115119887"><ele>572.6666666666667</ele><time>2026-05-02T14:11:34Z</time></trkpt><trkpt lat="44.38276902590634" lon="8.12403252042462"><ele>571.3333333333334</ele><time>2026-05-02T14:11:35Z</time></trkpt><trkpt lat="44.38282578219981" lon="8.123739067060908"><ele>570.0</ele><time>2026-05-02T14:11:36Z</time></trkpt><trkpt lat="44.38288852995001" lon="8.123418452242571"><ele>569.0</ele><time>2026-05-02T14:11:37Z</time></trkpt><trkpt lat="44.38295091309737" lon="8.123133371834959"><ele>568.0</ele><time>2026-05-02T14:11:38Z</time></trkpt><trkpt lat="44.38300499385699" lon="8.122890385556827"><ele>567.0</ele><time>2026-05-02T14:11:39Z</time></trkpt><trkpt lat="44.38306690445483" lon="8.12266185435849"><ele>565.0</ele><time>2026-05-02T14:11:40Z</time></trkpt><trkpt lat="44.38313805228793" lon="8.12244453702989"><ele>563.0</ele><time>2026-05-02T14:11:41Z</time></trkpt><trkpt lat="44.38321576406542" lon="8.122243776669665"><ele>561.0</ele><time>2026-05-02T14:11:42Z</time></trkpt><trkpt lat="44.3832895533255" lon="8.12207778065191"><ele>561.0</ele><time>2026-05-02T14:11:43Z</time></trkpt><trkpt lat="44.38335626891408" lon="8.12194238859425"><ele>561.0</ele><time>2026-05-02T14:11:44Z</time></trkpt><trkpt lat="44.38342708568079" lon="8.121812917077534"><ele>561.0</ele><time>2026-05-02T14:11:45Z</time></trkpt><trkpt lat="44.38351358668105" lon="8.121689689185292"><ele>561.0</ele><time>2026-05-02T14:11:46Z</time></trkpt><trkpt lat="44.38361116313049" lon="8.121584708605997"><ele>560.5</ele><time>2026-05-02T14:11:47Z</time></trkpt><trkpt lat="44.3837111556511" lon="8.121482666234872"><ele>560.0</ele><time>2026-05-02T14:11:48Z</time></trkpt><trkpt lat="44.38380411620783" lon="8.12137042482476"><ele>559.5</ele><time>2026-05-02T14:11:49Z</time></trkpt><trkpt lat="44.38390176582591" lon="8.12124046244275"><ele>559.0</ele><time>2026-05-02T14:11:50Z</time></trkpt><trkpt lat="44.384022320132935" lon="8.121083185827962"><ele>558.3333333333334</ele><time>2026-05-02T14:11:51Z</time></trkpt><trkpt lat="44.38412923962098" lon="8.120928184687195"><ele>557.6666666666666</ele><time>2026-05-02T14:11:52Z</time></trkpt><trkpt lat="44.384235587688806" lon="8.120773017789325"><ele>557.0</ele><time>2026-05-02T14:11:53Z</time></trkpt><trkpt lat="44.38433685378897" lon="8.120615021729273"><ele>553.6666666666666</ele><time>2026-05-02T14:11:54Z</time></trkpt><trkpt lat="44.38443198017979" lon="8.120457212333182"><ele>550.3333333333334</ele><time>2026-05-02T14:11:55Z</time></trkpt><trkpt lat="44.384536346526495" lon="8.12028297788711"><ele>547.0</ele><time>2026-05-02T14:11:56Z</time></trkpt><trkpt lat="44.38463337996363" lon="8.120068055139871"><ele>546.6666666666667</ele><time>2026-05-02T14:11:57Z</time></trkpt><trkpt lat="44.38472603830864" lon="8.119826460442031"><ele>546.3333333333334</ele><time>2026-05-02T14:11:58Z</time></trkpt><trkpt lat="44.38480436212162" lon="8.119575880056196"><ele>546.0</ele><time>2026-05-02T14:11:59Z</time></trkpt><trkpt lat="44.38486682041556" lon="8.119315192522508"><ele>546.6666666666666</ele><time>2026-05-02T14:12:00Z</time></trkpt><trkpt lat="44.384916445402865" lon="8.1190514779942"><ele>547.3333333333333</ele><time>2026-05-02T14:12:01Z</time></trkpt><trkpt lat="44.38498959549827" lon="8.118815101568321"><ele>548.0</ele><time>2026-05-02T14:12:02Z</time></trkpt><trkpt lat="44.38504604267623" lon="8.118581573681553"><ele>548.0</ele><time>2026-05-02T14:12:03Z</time></trkpt><trkpt lat="44.38495336811338" lon="8.118280274114914"><ele>548.0</ele><time>2026-05-02T14:12:04Z</time></trkpt><trkpt lat="44.38493583337884" lon="8.11799249129456"><ele>548.0</ele><time>2026-05-02T14:12:05Z</time></trkpt><trkpt lat="44.38490872385647" lon="8.117693682210753"><ele>549.3333333333333</ele><time>2026-05-02T14:12:06Z</time></trkpt><trkpt lat="44.38488063913124" lon="8.117412145014278"><ele>550.6666666666666</ele><time>2026-05-02T14:12:07Z</time></trkpt><trkpt lat="44.38484008521801" lon="8.11714075266421"><ele>552.0</ele><time>2026-05-02T14:12:08Z</time></trkpt><trkpt lat="44.38479154596138" lon="8.116879203826945"><ele>553.6666666666666</ele><time>2026-05-02T14:12:09Z</time></trkpt><trkpt lat="44.384734972195155" lon="8.116622254820532"><ele>555.3333333333333</ele><time>2026-05-02T14:12:10Z</time></trkpt><trkpt lat="44.38467055462352" lon="8.116367989226392"><ele>557.0</ele><time>2026-05-02T14:12:11Z</time></trkpt><trkpt lat="44.38461467052512" lon="8.116141148721367"><ele>551.75</ele><time>2026-05-02T14:12:12Z</time></trkpt><trkpt lat="44.38456334562415" lon="8.115941552528309"><ele>546.5</ele><time>2026-05-02T14:12:13Z</time></trkpt><trkpt lat="44.38450664952046" lon="8.115759753319487"><ele>541.25</ele><time>2026-05-02T14:12:14Z</time></trkpt><trkpt lat="44.38442813859492" lon="8.11560886103204"><ele>536.0</ele><time>2026-05-02T14:12:15Z</time></trkpt><trkpt lat="44.384340561341034" lon="8.115490009199478"><ele>536.0</ele><time>2026-05-02T14:12:16Z</time></trkpt><trkpt lat="44.38422906621497" lon="8.115386782245723"><ele>536.0</ele><time>2026-05-02T14:12:17Z</time></trkpt><trkpt lat="44.38412895902208" lon="8.115218169762766"><ele>536.0</ele><time>2026-05-02T14:12:18Z</time></trkpt><trkpt lat="44.38397667086871" lon="8.115142642812154"><ele>533.0</ele><time>2026-05-02T14:12:19Z</time></trkpt><trkpt lat="44.3838192023657" lon="8.115078656811308"><ele>530.0</ele><time>2026-05-02T14:12:20Z</time></trkpt><trkpt lat="44.38368593582988" lon="8.114994711859143"><ele>527.0</ele><time>2026-05-02T14:12:21Z</time></trkpt><trkpt lat="44.38357777335906" lon="8.114876415231175"><ele>524.0</ele><time>2026-05-02T14:12:22Z</time></trkpt><trkpt lat="44.38350016701352" lon="8.114726072798243"><ele>524.25</ele><time>2026-05-02T14:12:23Z</time></trkpt><trkpt lat="44.38343857695404" lon="8.11456464511397"><ele>524.5</ele><time>2026-05-02T14:12:24Z</time></trkpt><trkpt lat="44.38339737196418" lon="8.114376779147195"><ele>524.75</ele><time>2026-05-02T14:12:25Z</time></trkpt><trkpt lat="44.38339536497022" lon="8.114169572363046"><ele>525.0</ele><time>2026-05-02T14:12:26Z</time></trkpt><trkpt lat="44.383429038531304" lon="8.113928045293"><ele>525.0</ele><time>2026-05-02T14:12:27Z</time></trkpt><trkpt lat="44.383503232879455" lon="8.113647605082209"><ele>525.0</ele><time>2026-05-02T14:12:28Z</time></trkpt><trkpt lat="44.38359322884881" lon="8.113334775565093"><ele>524.0</ele><time>2026-05-02T14:12:29Z</time></trkpt><trkpt lat="44.38366682246381" lon="8.11300521504263"><ele>523.0</ele><time>2026-05-02T14:12:30Z</time></trkpt><trkpt lat="44.383719937628975" lon="8.112702428253655"><ele>523.0</ele><time>2026-05-02T14:12:31Z</time></trkpt><trkpt lat="44.3837582727782" lon="8.112465700598822"><ele>523.0</ele><time>2026-05-02T14:12:32Z</time></trkpt><trkpt lat="44.383794970949516" lon="8.112264674532806"><ele>523.0</ele><time>2026-05-02T14:12:33Z</time></trkpt><trkpt lat="44.38381998467632" lon="8.112096573889442"><ele>523.0</ele><time>2026-05-02T14:12:34Z</time></trkpt><trkpt lat="44.38381592579362" lon="8.11192885158483"><ele>523.0</ele><time>2026-05-02T14:12:35Z</time></trkpt><trkpt lat="44.38378515255757" lon="8.111743551213372"><ele>523.0</ele><time>2026-05-02T14:12:36Z</time></trkpt><trkpt lat="44.383728900351166" lon="8.11154087306331"><ele>523.0</ele><time>2026-05-02T14:12:37Z</time></trkpt><trkpt lat="44.38366048030727" lon="8.111343874553667"><ele>523.0</ele><time>2026-05-02T14:12:38Z</time></trkpt><trkpt lat="44.38358305714565" lon="8.111166598728753"><ele>523.0</ele><time>2026-05-02T14:12:39Z</time></trkpt><trkpt lat="44.38347552119968" lon="8.110978991750326"><ele>523.0</ele><time>2026-05-02T14:12:40Z</time></trkpt><trkpt lat="44.383320631850424" lon="8.1108129760855"><ele>523.0</ele><time>2026-05-02T14:12:41Z</time></trkpt><trkpt lat="44.38322520719207" lon="8.110662232365442"><ele>524.75</ele><time>2026-05-02T14:12:42Z</time></trkpt><trkpt lat="44.38316886016325" lon="8.110502642564187"><ele>526.5</ele><time>2026-05-02T14:12:43Z</time></trkpt><trkpt lat="44.38314360326676" lon="8.11031254587224"><ele>528.25</ele><time>2026-05-02T14:12:44Z</time></trkpt><trkpt lat="44.38313198089194" lon="8.110070768474142"><ele>530.0</ele><time>2026-05-02T14:12:45Z</time></trkpt><trkpt lat="44.383115123315584" lon="8.109784901719147"><ele>533.0</ele><time>2026-05-02T14:12:46Z</time></trkpt><trkpt lat="44.38308626288836" lon="8.10950288817097"><ele>536.0</ele><time>2026-05-02T14:12:47Z</time></trkpt><trkpt lat="44.38303168975297" lon="8.109239931601376"><ele>539.0</ele><time>2026-05-02T14:12:48Z</time></trkpt><trkpt lat="44.38294783288873" lon="8.108968538132"><ele>524.5</ele><time>2026-05-02T14:12:49Z</time></trkpt><trkpt lat="44.38284769965095" lon="8.108679189578812"><ele>510.0</ele><time>2026-05-02T14:12:50Z</time></trkpt><trkpt lat="44.38274759110335" lon="8.108395929630852"><ele>514.6666666666666</ele><time>2026-05-02T14:12:51Z</time></trkpt><trkpt lat="44.38266625662242" lon="8.108171640857677"><ele>519.3333333333333</ele><time>2026-05-02T14:12:52Z</time></trkpt><trkpt lat="44.38260158538107" lon="8.10798865074577"><ele>524.0</ele><time>2026-05-02T14:12:53Z</time></trkpt><trkpt lat="44.38250004544949" lon="8.1078057199735"><ele>524.0</ele><time>2026-05-02T14:12:54Z</time></trkpt><trkpt lat="44.38234521634682" lon="8.107595300044474"><ele>524.0</ele><time>2026-05-02T14:12:55Z</time></trkpt><trkpt lat="44.38216120165132" lon="8.107360515794104"><ele>519.0</ele><time>2026-05-02T14:12:56Z</time></trkpt><trkpt lat="44.38196058491313" lon="8.107085972887393"><ele>514.0</ele><time>2026-05-02T14:12:57Z</time></trkpt><trkpt lat="44.38175819395271" lon="8.10680594637456"><ele>526.0</ele><time>2026-05-02T14:12:58Z</time></trkpt><trkpt lat="44.38157901411914" lon="8.106547682443933"><ele>538.0</ele><time>2026-05-02T14:12:59Z</time></trkpt><trkpt lat="44.381420421300085" lon="8.106306370457956"><ele>529.6666666666667</ele><time>2026-05-02T14:13:00Z</time></trkpt><trkpt lat="44.38127910490909" lon="8.10608105047516"><ele>521.3333333333334</ele><time>2026-05-02T14:13:01Z</time></trkpt><trkpt lat="44.381161186720284" lon="8.10585846819113"><ele>513.0</ele><time>2026-05-02T14:13:02Z</time></trkpt><trkpt lat="44.3810492718556" lon="8.105678025974223"><ele>513.0</ele><time>2026-05-02T14:13:03Z</time></trkpt><trkpt lat="44.38094770067696" lon="8.10551445364408"><ele>513.0</ele><time>2026-05-02T14:13:04Z</time></trkpt><trkpt lat="44.380849678343665" lon="8.105372365297436"><ele>513.0</ele><time>2026-05-02T14:13:05Z</time></trkpt><trkpt lat="44.38079090690002" lon="8.105220748570103"><ele>513.0</ele><time>2026-05-02T14:13:06Z</time></trkpt><trkpt lat="44.380777017468596" lon="8.105032242048637"><ele>516.0</ele><time>2026-05-02T14:13:07Z</time></trkpt><trkpt lat="44.380754170556074" lon="8.104803648602392"><ele>519.0</ele><time>2026-05-02T14:13:08Z</time></trkpt><trkpt lat="44.380737600713466" lon="8.104572038011934"><ele>522.0</ele><time>2026-05-02T14:13:09Z</time></trkpt><trkpt lat="44.38067507916605" lon="8.10432858026465"><ele>529.3333333333334</ele><time>2026-05-02T14:13:10Z</time></trkpt><trkpt lat="44.38058084590998" lon="8.104072319212165"><ele>536.6666666666667</ele><time>2026-05-02T14:13:11Z</time></trkpt><trkpt lat="44.38048658796562" lon="8.103806297795977"><ele>544.0</ele><time>2026-05-02T14:13:12Z</time></trkpt><trkpt lat="44.380399985734755" lon="8.103568474639113"><ele>533.6666666666667</ele><time>2026-05-02T14:13:13Z</time></trkpt><trkpt lat="44.380317910747756" lon="8.103372186413587"><ele>523.3333333333334</ele><time>2026-05-02T14:13:14Z</time></trkpt><trkpt lat="44.380215538020174" lon="8.103189671371808"><ele>513.0</ele><time>2026-05-02T14:13:15Z</time></trkpt><trkpt lat="44.380089807445145" lon="8.103007945512061"><ele>513.0</ele><time>2026-05-02T14:13:16Z</time></trkpt><trkpt lat="44.37993804357524" lon="8.102822746240443"><ele>513.0</ele><time>2026-05-02T14:13:17Z</time></trkpt><trkpt lat="44.379758037038684" lon="8.102598042226788"><ele>513.0</ele><time>2026-05-02T14:13:18Z</time></trkpt><trkpt lat="44.37954015411805" lon="8.102370337221316"><ele>509.0</ele><time>2026-05-02T14:13:19Z</time></trkpt><trkpt lat="44.37931167436288" lon="8.10213762614611"><ele>505.0</ele><time>2026-05-02T14:13:20Z</time></trkpt><trkpt lat="44.37908679939124" lon="8.101908587334005"><ele>505.0</ele><time>2026-05-02T14:13:21Z</time></trkpt><trkpt lat="44.37889479255143" lon="8.101713579479574"><ele>505.0</ele><time>2026-05-02T14:13:22Z</time></trkpt><trkpt lat="44.37873355542397" lon="8.101550670170969"><ele>505.0</ele><time>2026-05-02T14:13:23Z</time></trkpt><trkpt lat="44.378585718246846" lon="8.101395498339944"><ele>501.33333333333337</ele><time>2026-05-02T14:13:24Z</time></trkpt><trkpt lat="44.37845069427082" lon="8.101237623095505"><ele>497.66666666666663</ele><time>2026-05-02T14:13:25Z</time></trkpt><trkpt lat="44.378310212087726" lon="8.101065387469477"><ele>494.0</ele><time>2026-05-02T14:13:26Z</time></trkpt><trkpt lat="44.37818810999064" lon="8.100839538578589"><ele>493.0</ele><time>2026-05-02T14:13:27Z</time></trkpt><trkpt lat="44.3780715169262" lon="8.10061735596455"><ele>492.0</ele><time>2026-05-02T14:13:28Z</time></trkpt><trkpt lat="44.377933590806705" lon="8.100414631578177"><ele>491.0</ele><time>2026-05-02T14:13:29Z</time></trkpt><trkpt lat="44.37775868565984" lon="8.100222683332532"><ele>491.0</ele><time>2026-05-02T14:13:30Z</time></trkpt><trkpt lat="44.37755119923036" lon="8.100030164434683"><ele>491.0</ele><time>2026-05-02T14:13:31Z</time></trkpt><trkpt lat="44.37733493966701" lon="8.099842853962107"><ele>490.5</ele><time>2026-05-02T14:13:32Z</time></trkpt><trkpt lat="44.37714803104444" lon="8.09964550082865"><ele>490.0</ele><time>2026-05-02T14:13:33Z</time></trkpt><trkpt lat="44.37696559032478" lon="8.099479603830643"><ele>490.0</ele><time>2026-05-02T14:13:34Z</time></trkpt><trkpt lat="44.37677570161185" lon="8.099308568458515"><ele>490.0</ele><time>2026-05-02T14:13:35Z</time></trkpt><trkpt lat="44.376565941006085" lon="8.099149699250493"><ele>484.5</ele><time>2026-05-02T14:13:36Z</time></trkpt><trkpt lat="44.3763446371987" lon="8.098972938590952"><ele>479.0</ele><time>2026-05-02T14:13:37Z</time></trkpt><trkpt lat="44.37612161244917" lon="8.098800939337107"><ele>479.0</ele><time>2026-05-02T14:13:38Z</time></trkpt><trkpt lat="44.375904590771874" lon="8.098638178849589"><ele>479.0</ele><time>2026-05-02T14:13:39Z</time></trkpt><trkpt lat="44.37569627311068" lon="8.098479295446396"><ele>478.5</ele><time>2026-05-02T14:13:40Z</time></trkpt><trkpt lat="44.37548435931795" lon="8.098324253414061"><ele>478.0</ele><time>2026-05-02T14:13:41Z</time></trkpt><trkpt lat="44.37528464674001" lon="8.098174624927742"><ele>478.0</ele><time>2026-05-02T14:13:42Z</time></trkpt><trkpt lat="44.375091929439634" lon="8.098032206908645"><ele>478.0</ele><time>2026-05-02T14:13:43Z</time></trkpt><trkpt lat="44.37491132888766" lon="8.097900162079647"><ele>478.0</ele><time>2026-05-02T14:13:44Z</time></trkpt><trkpt lat="44.3747583568211" lon="8.09778390948572"><ele>478.25</ele><time>2026-05-02T14:13:45Z</time></trkpt><trkpt lat="44.374611424882765" lon="8.097670247907027"><ele>478.5</ele><time>2026-05-02T14:13:46Z</time></trkpt><trkpt lat="44.374487771528855" lon="8.097548942135694"><ele>478.75</ele><time>2026-05-02T14:13:47Z</time></trkpt><trkpt lat="44.37438686267193" lon="8.097440989740848"><ele>479.0</ele><time>2026-05-02T14:13:48Z</time></trkpt><trkpt lat="44.374304077273166" lon="8.097318792816129"><ele>478.0</ele><time>2026-05-02T14:13:49Z</time></trkpt><trkpt lat="44.374235955079115" lon="8.09718065969072"><ele>477.0</ele><time>2026-05-02T14:13:50Z</time></trkpt><trkpt lat="44.374178011163245" lon="8.097038994013456"><ele>476.0</ele><time>2026-05-02T14:13:51Z</time></trkpt><trkpt lat="44.37413575193071" lon="8.096873748305432"><ele>475.0</ele><time>2026-05-02T14:13:52Z</time></trkpt><trkpt lat="44.37411348225954" lon="8.096695690597096"><ele>475.25</ele><time>2026-05-02T14:13:53Z</time></trkpt><trkpt lat="44.374064220571555" lon="8.09651174776263"><ele>475.5</ele><time>2026-05-02T14:13:54Z</time></trkpt><trkpt lat="44.37399192752359" lon="8.096347450868333"><ele>475.75</ele><time>2026-05-02T14:13:55Z</time></trkpt><trkpt lat="44.37394702615685" lon="8.096163336185262"><ele>476.0</ele><time>2026-05-02T14:13:56Z</time></trkpt><trkpt lat="44.37393027037063" lon="8.095919763391347"><ele>477.3333333333333</ele><time>2026-05-02T14:13:57Z</time></trkpt><trkpt lat="44.373943886722415" lon="8.095636046647796"><ele>478.66666666666663</ele><time>2026-05-02T14:13:58Z</time></trkpt><trkpt lat="44.37397588246683" lon="8.095323571484398"><ele>480.0</ele><time>2026-05-02T14:13:59Z</time></trkpt><trkpt lat="44.374022326911536" lon="8.095001305020315"><ele>480.5</ele><time>2026-05-02T14:14:00Z</time></trkpt><trkpt lat="44.374075896968755" lon="8.094687964279112"><ele>481.0</ele><time>2026-05-02T14:14:01Z</time></trkpt><trkpt lat="44.374137708643914" lon="8.094382133620954"><ele>481.0</ele><time>2026-05-02T14:14:02Z</time></trkpt><trkpt lat="44.374194213139184" lon="8.094108829533896"><ele>481.0</ele><time>2026-05-02T14:14:03Z</time></trkpt><trkpt lat="44.37424362510333" lon="8.093865297876762"><ele>481.0</ele><time>2026-05-02T14:14:04Z</time></trkpt><trkpt lat="44.37429661953462" lon="8.09362546546723"><ele>481.33333333333337</ele><time>2026-05-02T14:14:05Z</time></trkpt><trkpt lat="44.374354122344116" lon="8.093356823970032"><ele>481.66666666666663</ele><time>2026-05-02T14:14:06Z</time></trkpt><trkpt lat="44.37441336812032" lon="8.093066571743938"><ele>482.0</ele><time>2026-05-02T14:14:07Z</time></trkpt><trkpt lat="44.374476707125005" lon="8.092762809152523"><ele>482.5</ele><time>2026-05-02T14:14:08Z</time></trkpt><trkpt lat="44.37454421403357" lon="8.092423060992145"><ele>483.0</ele><time>2026-05-02T14:14:09Z</time></trkpt><trkpt lat="44.37463747666607" lon="8.0920444987886"><ele>477.5</ele><time>2026-05-02T14:14:10Z</time></trkpt><trkpt lat="44.37471989693167" lon="8.091653680497435"><ele>472.0</ele><time>2026-05-02T14:14:11Z</time></trkpt><trkpt lat="44.37479223954611" lon="8.091259995844846"><ele>471.5</ele><time>2026-05-02T14:14:12Z</time></trkpt><trkpt lat="44.37488517879821" lon="8.090864497896236"><ele>471.0</ele><time>2026-05-02T14:14:13Z</time></trkpt><trkpt lat="44.3749693483346" lon="8.090464491008019"><ele>471.0</ele><time>2026-05-02T14:14:14Z</time></trkpt><trkpt lat="44.375051509568976" lon="8.090065985281067"><ele>471.0</ele><time>2026-05-02T14:14:15Z</time></trkpt><trkpt lat="44.375132927072976" lon="8.089662439673239"><ele>471.0</ele><time>2026-05-02T14:14:16Z</time></trkpt><trkpt lat="44.37521495866487" lon="8.08926213335243"><ele>471.0</ele><time>2026-05-02T14:14:17Z</time></trkpt><trkpt lat="44.375293374283935" lon="8.088889827750283"><ele>469.0</ele><time>2026-05-02T14:14:18Z</time></trkpt><trkpt lat="44.37536773041618" lon="8.088550139085624"><ele>467.0</ele><time>2026-05-02T14:14:19Z</time></trkpt><trkpt lat="44.37543319441737" lon="8.088250589265746"><ele>467.3333333333333</ele><time>2026-05-02T14:14:20Z</time></trkpt><trkpt lat="44.37549032984041" lon="8.087983010041313"><ele>467.66666666666663</ele><time>2026-05-02T14:14:21Z</time></trkpt><trkpt lat="44.37554295788736" lon="8.087740449261455"><ele>468.0</ele><time>2026-05-02T14:14:22Z</time></trkpt><trkpt lat="44.37558995260873" lon="8.087508690631626"><ele>468.0</ele><time>2026-05-02T14:14:23Z</time></trkpt><trkpt lat="44.37563011594194" lon="8.087285435302999"><ele>468.0</ele><time>2026-05-02T14:14:24Z</time></trkpt><trkpt lat="44.37567090613195" lon="8.087085942432736"><ele>468.0</ele><time>2026-05-02T14:14:25Z</time></trkpt><trkpt lat="44.37570145222276" lon="8.086921467937156"><ele>468.0</ele><time>2026-05-02T14:14:26Z</time></trkpt><trkpt lat="44.37573199800786" lon="8.086766970762746"><ele>468.0</ele><time>2026-05-02T14:14:27Z</time></trkpt><trkpt lat="44.37576933585245" lon="8.08662985835138"><ele>467.99999999999994</ele><time>2026-05-02T14:14:28Z</time></trkpt><trkpt lat="44.37581015747729" lon="8.086520544265273"><ele>467.99999999999994</ele><time>2026-05-02T14:14:29Z</time></trkpt><trkpt lat="44.37583111001674" lon="8.086416337442234"><ele>468.0</ele><time>2026-05-02T14:14:30Z</time></trkpt><trkpt lat="44.375818437698776" lon="8.086288394984374"><ele>468.0</ele><time>2026-05-02T14:14:31Z</time></trkpt><trkpt lat="44.37577580298192" lon="8.086104345161006"><ele>468.0</ele><time>2026-05-02T14:14:32Z</time></trkpt><trkpt lat="44.37573989200587" lon="8.08585093634025"><ele>468.0</ele><time>2026-05-02T14:14:33Z</time></trkpt><trkpt lat="44.375713189651314" lon="8.085570177960014"><ele>468.0</ele><time>2026-05-02T14:14:34Z</time></trkpt><trkpt lat="44.37565814958248" lon="8.085285071607936"><ele>469.0</ele><time>2026-05-02T14:14:35Z</time></trkpt><trkpt lat="44.375578625625344" lon="8.084981293928712"><ele>470.0</ele><time>2026-05-02T14:14:36Z</time></trkpt><trkpt lat="44.3754824672689" lon="8.084660999111495"><ele>470.0</ele><time>2026-05-02T14:14:37Z</time></trkpt><trkpt lat="44.37537976907853" lon="8.084337300332889"><ele>470.0</ele><time>2026-05-02T14:14:38Z</time></trkpt><trkpt lat="44.37527526389309" lon="8.084008354656465"><ele>469.5</ele><time>2026-05-02T14:14:39Z</time></trkpt><trkpt lat="44.375173660814355" lon="8.083692112506323"><ele>469.0</ele><time>2026-05-02T14:14:40Z</time></trkpt><trkpt lat="44.37507368852997" lon="8.083379487963557"><ele>469.0</ele><time>2026-05-02T14:14:41Z</time></trkpt><trkpt lat="44.37497937728596" lon="8.083059983222737"><ele>469.0</ele><time>2026-05-02T14:14:42Z</time></trkpt><trkpt lat="44.3748904865728" lon="8.08275639901906"><ele>469.0</ele><time>2026-05-02T14:14:43Z</time></trkpt><trkpt lat="44.3747953835154" lon="8.082449267625709"><ele>469.0</ele><time>2026-05-02T14:14:44Z</time></trkpt><trkpt lat="44.37468903852656" lon="8.082117438380596"><ele>468.0</ele><time>2026-05-02T14:14:45Z</time></trkpt><trkpt lat="44.374581410282055" lon="8.081769673598773"><ele>467.0</ele><time>2026-05-02T14:14:46Z</time></trkpt><trkpt lat="44.3744908927558" lon="8.081437713052107"><ele>467.0</ele><time>2026-05-02T14:14:47Z</time></trkpt><trkpt lat="44.37440541824236" lon="8.081130690405812"><ele>467.0</ele><time>2026-05-02T14:14:48Z</time></trkpt><trkpt lat="44.37431835379717" lon="8.080844620632345"><ele>467.66666666666663</ele><time>2026-05-02T14:14:49Z</time></trkpt><trkpt lat="44.374240436417594" lon="8.080575915182688"><ele>468.33333333333337</ele><time>2026-05-02T14:14:50Z</time></trkpt><trkpt lat="44.37417439468282" lon="8.080338930621558"><ele>469.0</ele><time>2026-05-02T14:14:51Z</time></trkpt><trkpt lat="44.37411043078229" lon="8.080117796066787"><ele>468.33333333333337</ele><time>2026-05-02T14:14:52Z</time></trkpt><trkpt lat="44.37405311685069" lon="8.079889705474542"><ele>467.66666666666663</ele><time>2026-05-02T14:14:53Z</time></trkpt><trkpt lat="44.374018875922204" lon="8.079636046486264"><ele>467.0</ele><time>2026-05-02T14:14:54Z</time></trkpt><trkpt lat="44.374007500005156" lon="8.079332933721032"><ele>466.5</ele><time>2026-05-02T14:14:55Z</time></trkpt><trkpt lat="44.37400334190876" lon="8.079013097216107"><ele>466.0</ele><time>2026-05-02T14:14:56Z</time></trkpt><trkpt lat="44.373996337882154" lon="8.078691368527226"><ele>466.0</ele><time>2026-05-02T14:14:57Z</time></trkpt><trkpt lat="44.37399071048945" lon="8.078393824698804"><ele>466.0</ele><time>2026-05-02T14:14:58Z</time></trkpt><trkpt lat="44.373984389097025" lon="8.078130654195311"><ele>466.0</ele><time>2026-05-02T14:14:59Z</time></trkpt><trkpt lat="44.37398060723259" lon="8.077896817353572"><ele>465.6666666666667</ele><time>2026-05-02T14:15:00Z</time></trkpt><trkpt lat="44.37396598978603" lon="8.077669809122048"><ele>465.33333333333337</ele><time>2026-05-02T14:15:01Z</time></trkpt><trkpt lat="44.37393633052944" lon="8.077444725197157"><ele>465.0</ele><time>2026-05-02T14:15:02Z</time></trkpt><trkpt lat="44.37387573150036" lon="8.077205002662103"><ele>462.5</ele><time>2026-05-02T14:15:03Z</time></trkpt><trkpt lat="44.373785606753295" lon="8.076937195266673"><ele>460.0</ele><time>2026-05-02T14:15:04Z</time></trkpt><trkpt lat="44.37367511621851" lon="8.076637197734277"><ele>459.6666666666667</ele><time>2026-05-02T14:15:05Z</time></trkpt><trkpt lat="44.37357848613007" lon="8.07634479847502"><ele>459.33333333333337</ele><time>2026-05-02T14:15:06Z</time></trkpt><trkpt lat="44.37349535882944" lon="8.076082721111765"><ele>459.0</ele><time>2026-05-02T14:15:07Z</time></trkpt><trkpt lat="44.37341483081873" lon="8.075828666988425"><ele>459.66666666666663</ele><time>2026-05-02T14:15:08Z</time></trkpt><trkpt lat="44.373341696706525" lon="8.075616665773817"><ele>460.3333333333333</ele><time>2026-05-02T14:15:09Z</time></trkpt><trkpt lat="44.373266065265824" lon="8.075395218093655"><ele>461.0</ele><time>2026-05-02T14:15:10Z</time></trkpt><trkpt lat="44.3731959352496" lon="8.075189964167242"><ele>461.0</ele><time>2026-05-02T14:15:11Z</time></trkpt><trkpt lat="44.3731281887035" lon="8.074984551946045"><ele>461.0</ele><time>2026-05-02T14:15:12Z</time></trkpt><trkpt lat="44.373064537960616" lon="8.0747846865293"><ele>461.0</ele><time>2026-05-02T14:15:13Z</time></trkpt><trkpt lat="44.372992664603295" lon="8.074560272272437"><ele>459.0</ele><time>2026-05-02T14:15:14Z</time></trkpt><trkpt lat="44.37292619341347" lon="8.074332915692281"><ele>457.0</ele><time>2026-05-02T14:15:15Z</time></trkpt><trkpt lat="44.372873420046886" lon="8.074160512245834"><ele>455.0</ele><time>2026-05-02T14:15:16Z</time></trkpt><trkpt lat="44.37281474697371" lon="8.073965778966414"><ele>455.0</ele><time>2026-05-02T14:15:17Z</time></trkpt><trkpt lat="44.37278084730712" lon="8.073708976271607"><ele>455.0</ele><time>2026-05-02T14:15:19Z</time></trkpt><trkpt lat="44.37275555661894" lon="8.073472123270081"><ele>455.0</ele><time>2026-05-02T14:15:20Z</time></trkpt><trkpt lat="44.37277643442438" lon="8.073229678038892"><ele>454.0</ele><time>2026-05-02T14:15:21Z</time></trkpt><trkpt lat="44.37280749174922" lon="8.073015257639096"><ele>453.0</ele><time>2026-05-02T14:15:22Z</time></trkpt><trkpt lat="44.3728476304341" lon="8.072818553051722"><ele>452.0</ele><time>2026-05-02T14:15:23Z</time></trkpt><trkpt lat="44.3729121321722" lon="8.072626114995357"><ele>451.3333333333333</ele><time>2026-05-02T14:15:24Z</time></trkpt><trkpt lat="44.373019093954255" lon="8.072428095575829"><ele>450.66666666666663</ele><time>2026-05-02T14:15:25Z</time></trkpt><trkpt lat="44.37316691179152" lon="8.072223284506858"><ele>450.0</ele><time>2026-05-02T14:15:26Z</time></trkpt><trkpt lat="44.373334434948596" lon="8.072020941771443"><ele>449.5</ele><time>2026-05-02T14:15:27Z</time></trkpt><trkpt lat="44.37351498142885" lon="8.071815070957557"><ele>449.0</ele><time>2026-05-02T14:15:28Z</time></trkpt><trkpt lat="44.37371477001403" lon="8.071586099249958"><ele>448.5</ele><time>2026-05-02T14:15:29Z</time></trkpt><trkpt lat="44.37392441808551" lon="8.071344154634309"><ele>448.0</ele><time>2026-05-02T14:15:30Z</time></trkpt><trkpt lat="44.37412515841415" lon="8.07110960309384"><ele>448.0</ele><time>2026-05-02T14:15:31Z</time></trkpt><trkpt lat="44.37431579242602" lon="8.070892680597098"><ele>448.0</ele><time>2026-05-02T14:15:32Z</time></trkpt><trkpt lat="44.374500750107416" lon="8.070675628727274"><ele>448.33333333333337</ele><time>2026-05-02T14:15:33Z</time></trkpt><trkpt lat="44.37466635395669" lon="8.070476548425804"><ele>448.66666666666663</ele><time>2026-05-02T14:15:34Z</time></trkpt><trkpt lat="44.374832964479744" lon="8.070284828326857"><ele>449.0</ele><time>2026-05-02T14:15:35Z</time></trkpt><trkpt lat="44.37498236319702" lon="8.070114998218967"><ele>449.3333333333333</ele><time>2026-05-02T14:15:36Z</time></trkpt><trkpt lat="44.37510985271898" lon="8.069956149067957"><ele>449.66666666666663</ele><time>2026-05-02T14:15:37Z</time></trkpt><trkpt lat="44.37523467990769" lon="8.06977620990907"><ele>450.0</ele><time>2026-05-02T14:15:38Z</time></trkpt><trkpt lat="44.37535560363676" lon="8.069567148378546"><ele>450.0</ele><time>2026-05-02T14:15:39Z</time></trkpt><trkpt lat="44.375463336941614" lon="8.06934842463505"><ele>450.0</ele><time>2026-05-02T14:15:40Z</time></trkpt><trkpt lat="44.37555815694097" lon="8.069122001190633"><ele>450.0</ele><time>2026-05-02T14:15:41Z</time></trkpt><trkpt lat="44.37563532054781" lon="8.068886357609307"><ele>450.66666666666663</ele><time>2026-05-02T14:15:42Z</time></trkpt><trkpt lat="44.37569890142563" lon="8.068632437747487"><ele>451.3333333333333</ele><time>2026-05-02T14:15:43Z</time></trkpt><trkpt lat="44.37574662135762" lon="8.06838464420558"><ele>452.0</ele><time>2026-05-02T14:15:44Z</time></trkpt><trkpt lat="44.375779759236956" lon="8.068152780140394"><ele>453.25</ele><time>2026-05-02T14:15:45Z</time></trkpt><trkpt lat="44.375802469691" lon="8.067916712675286"><ele>454.5</ele><time>2026-05-02T14:15:46Z</time></trkpt><trkpt lat="44.3758135308364" lon="8.067725181122212"><ele>455.75</ele><time>2026-05-02T14:15:47Z</time></trkpt><trkpt lat="44.375827724542766" lon="8.06756911333734"><ele>457.0</ele><time>2026-05-02T14:15:48Z</time></trkpt><trkpt lat="44.37585990416702" lon="8.067424781664968"><ele>457.83333333333337</ele><time>2026-05-02T14:15:49Z</time></trkpt><trkpt lat="44.37589076242778" lon="8.067319480544052"><ele>458.6666666666667</ele><time>2026-05-02T14:15:50Z</time></trkpt><trkpt lat="44.375918553547656" lon="8.067223162093585"><ele>459.5</ele><time>2026-05-02T14:15:51Z</time></trkpt><trkpt lat="44.3759401754683" lon="8.067111133372604"><ele>460.33333333333337</ele><time>2026-05-02T14:15:52Z</time></trkpt><trkpt lat="44.375919118355284" lon="8.067026981462488"><ele>461.1666666666667</ele><time>2026-05-02T14:15:53Z</time></trkpt><trkpt lat="44.3758618086703" lon="8.066941690505413"><ele>462.0</ele><time>2026-05-02T14:15:54Z</time></trkpt><trkpt lat="44.37578062790617" lon="8.06686796478056"><ele>462.0</ele><time>2026-05-02T14:15:55Z</time></trkpt><trkpt lat="44.3757579444657" lon="8.06674600680363"><ele>462.00000000000006</ele><time>2026-05-02T14:15:56Z</time></trkpt><trkpt lat="44.37573430829978" lon="8.066628449083687"><ele>462.00000000000006</ele><time>2026-05-02T14:15:57Z</time></trkpt><trkpt lat="44.37571841089894" lon="8.06650457281508"><ele>462.0</ele><time>2026-05-02T14:15:58Z</time></trkpt><trkpt lat="44.375699232952506" lon="8.066376426014592"><ele>462.0</ele><time>2026-05-02T14:15:59Z</time></trkpt><trkpt lat="44.37567177587647" lon="8.066229279150148"><ele>462.0</ele><time>2026-05-02T14:16:00Z</time></trkpt><trkpt lat="44.375638817721956" lon="8.066028487159844"><ele>462.0</ele><time>2026-05-02T14:16:01Z</time></trkpt><trkpt lat="44.375602178135004" lon="8.065801372871508"><ele>462.0</ele><time>2026-05-02T14:16:02Z</time></trkpt><trkpt lat="44.37556623307322" lon="8.065554114779276"><ele>460.0</ele><time>2026-05-02T14:16:03Z</time></trkpt><trkpt lat="44.37552984982195" lon="8.0652838938166"><ele>458.0</ele><time>2026-05-02T14:16:04Z</time></trkpt><trkpt lat="44.37548395682375" lon="8.064964240583091"><ele>456.0</ele><time>2026-05-02T14:16:05Z</time></trkpt><trkpt lat="44.37543793151096" lon="8.064646552175079"><ele>450.33333333333337</ele><time>2026-05-02T14:16:06Z</time></trkpt><trkpt lat="44.37539427164013" lon="8.064338804208907"><ele>444.6666666666667</ele><time>2026-05-02T14:16:07Z</time></trkpt><trkpt lat="44.37535727260199" lon="8.064041582380556"><ele>439.0</ele><time>2026-05-02T14:16:08Z</time></trkpt><trkpt lat="44.375319586148336" lon="8.063723938191696"><ele>435.0</ele><time>2026-05-02T14:16:09Z</time></trkpt><trkpt lat="44.37528101088512" lon="8.063389719156572"><ele>431.0</ele><time>2026-05-02T14:16:10Z</time></trkpt><trkpt lat="44.37524571525135" lon="8.063034605675334"><ele>431.0</ele><time>2026-05-02T14:16:11Z</time></trkpt><trkpt lat="44.375219483482425" lon="8.062661838137997"><ele>431.0</ele><time>2026-05-02T14:16:12Z</time></trkpt><trkpt lat="44.37520422619074" lon="8.062276845300884"><ele>434.5</ele><time>2026-05-02T14:16:13Z</time></trkpt><trkpt lat="44.37519636981788" lon="8.061873576394055"><ele>438.0</ele><time>2026-05-02T14:16:14Z</time></trkpt><trkpt lat="44.37520121202336" lon="8.061454039153869"><ele>438.5</ele><time>2026-05-02T14:16:15Z</time></trkpt><trkpt lat="44.37519612319143" lon="8.061065500083364"><ele>439.0</ele><time>2026-05-02T14:16:16Z</time></trkpt><trkpt lat="44.3751902298609" lon="8.060682453300183"><ele>439.5</ele><time>2026-05-02T14:16:17Z</time></trkpt><trkpt lat="44.375182747937494" lon="8.060281252494985"><ele>440.0</ele><time>2026-05-02T14:16:18Z</time></trkpt><trkpt lat="44.37518392427101" lon="8.059891502385291"><ele>440.5</ele><time>2026-05-02T14:16:19Z</time></trkpt><trkpt lat="44.37517547645249" lon="8.059538122351118"><ele>441.0</ele><time>2026-05-02T14:16:20Z</time></trkpt><trkpt lat="44.37516823890335" lon="8.05915479655104"><ele>440.0</ele><time>2026-05-02T14:16:21Z</time></trkpt><trkpt lat="44.375164545312764" lon="8.05875310217006"><ele>439.0</ele><time>2026-05-02T14:16:22Z</time></trkpt><trkpt lat="44.375157953875515" lon="8.058331455547474"><ele>439.0</ele><time>2026-05-02T14:16:23Z</time></trkpt><trkpt lat="44.375152508648696" lon="8.057913576547591"><ele>439.0</ele><time>2026-05-02T14:16:24Z</time></trkpt><trkpt lat="44.3751456292322" lon="8.057484791508923"><ele>438.5</ele><time>2026-05-02T14:16:25Z</time></trkpt><trkpt lat="44.37513700388709" lon="8.057048827011569"><ele>438.0</ele><time>2026-05-02T14:16:26Z</time></trkpt><trkpt lat="44.37513191657863" lon="8.056619110028373"><ele>437.5</ele><time>2026-05-02T14:16:27Z</time></trkpt><trkpt lat="44.37512899105996" lon="8.05617655114588"><ele>437.0</ele><time>2026-05-02T14:16:28Z</time></trkpt><trkpt lat="44.3751276082362" lon="8.055726921917568"><ele>436.0</ele><time>2026-05-02T14:16:29Z</time></trkpt><trkpt lat="44.37512217878749" lon="8.055276825529859"><ele>435.0</ele><time>2026-05-02T14:16:30Z</time></trkpt><trkpt lat="44.37511510688487" lon="8.054834125664074"><ele>435.0</ele><time>2026-05-02T14:16:31Z</time></trkpt><trkpt lat="44.375106295353014" lon="8.054396432621807"><ele>435.0</ele><time>2026-05-02T14:16:32Z</time></trkpt><trkpt lat="44.37510058915315" lon="8.05395739463152"><ele>436.0</ele><time>2026-05-02T14:16:33Z</time></trkpt><trkpt lat="44.37509487600697" lon="8.053520454387492"><ele>437.0</ele><time>2026-05-02T14:16:34Z</time></trkpt><trkpt lat="44.37508933815249" lon="8.05307955685942"><ele>437.0</ele><time>2026-05-02T14:16:35Z</time></trkpt><trkpt lat="44.37508235897226" lon="8.052654390321846"><ele>437.0</ele><time>2026-05-02T14:16:36Z</time></trkpt><trkpt lat="44.37508148234813" lon="8.052266693150873"><ele>437.0</ele><time>2026-05-02T14:16:37Z</time></trkpt><trkpt lat="44.37508007077174" lon="8.051909506766947"><ele>437.0</ele><time>2026-05-02T14:16:38Z</time></trkpt><trkpt lat="44.375077459159805" lon="8.051568526517572"><ele>436.5</ele><time>2026-05-02T14:16:39Z</time></trkpt><trkpt lat="44.375071089778004" lon="8.051227094296967"><ele>436.0</ele><time>2026-05-02T14:16:40Z</time></trkpt><trkpt lat="44.37506481663628" lon="8.050883388492082"><ele>436.6666666666667</ele><time>2026-05-02T14:16:41Z</time></trkpt><trkpt lat="44.37506063119745" lon="8.050575198281363"><ele>437.33333333333337</ele><time>2026-05-02T14:16:42Z</time></trkpt><trkpt lat="44.37505944534331" lon="8.050290844140081"><ele>438.0</ele><time>2026-05-02T14:16:43Z</time></trkpt><trkpt lat="44.37506570053353" lon="8.050011426410126"><ele>438.33333333333337</ele><time>2026-05-02T14:16:44Z</time></trkpt><trkpt lat="44.37509628933765" lon="8.049716434670417"><ele>438.6666666666667</ele><time>2026-05-02T14:16:45Z</time></trkpt><trkpt lat="44.37515705474124" lon="8.0494135342789"><ele>439.0</ele><time>2026-05-02T14:16:46Z</time></trkpt><trkpt lat="44.37523569489233" lon="8.049103824991285"><ele>439.5</ele><time>2026-05-02T14:16:47Z</time></trkpt><trkpt lat="44.37532533356289" lon="8.048779794130162"><ele>440.0</ele><time>2026-05-02T14:16:48Z</time></trkpt><trkpt lat="44.375420650575066" lon="8.048446296761888"><ele>441.0</ele><time>2026-05-02T14:16:49Z</time></trkpt><trkpt lat="44.37551383174075" lon="8.04811307795017"><ele>442.0</ele><time>2026-05-02T14:16:50Z</time></trkpt><trkpt lat="44.37559689790579" lon="8.047811233669856"><ele>440.5</ele><time>2026-05-02T14:16:51Z</time></trkpt><trkpt lat="44.375682475301154" lon="8.047511966638849"><ele>439.0</ele><time>2026-05-02T14:16:52Z</time></trkpt><trkpt lat="44.37576861646743" lon="8.047213229727653"><ele>439.0</ele><time>2026-05-02T14:16:53Z</time></trkpt><trkpt lat="44.37585708635144" lon="8.04688957711357"><ele>439.0</ele><time>2026-05-02T14:16:54Z</time></trkpt><trkpt lat="44.37595459470298" lon="8.046553621760506"><ele>440.0</ele><time>2026-05-02T14:16:55Z</time></trkpt><trkpt lat="44.37605068802738" lon="8.0462456673229"><ele>441.0</ele><time>2026-05-02T14:16:56Z</time></trkpt><trkpt lat="44.3761349732069" lon="8.045952968478206"><ele>441.5</ele><time>2026-05-02T14:16:57Z</time></trkpt><trkpt lat="44.37622255253521" lon="8.045647637465773"><ele>442.0</ele><time>2026-05-02T14:16:58Z</time></trkpt><trkpt lat="44.37631241858502" lon="8.045346877589486"><ele>441.6666666666667</ele><time>2026-05-02T14:16:59Z</time></trkpt><trkpt lat="44.37639288810271" lon="8.045062590070517"><ele>441.33333333333337</ele><time>2026-05-02T14:17:00Z</time></trkpt><trkpt lat="44.376466779676086" lon="8.04480506872418"><ele>441.0</ele><time>2026-05-02T14:17:01Z</time></trkpt><trkpt lat="44.3765334210398" lon="8.044565771775972"><ele>441.0</ele><time>2026-05-02T14:17:02Z</time></trkpt><trkpt lat="44.3765968884336" lon="8.044342609941454"><ele>441.0</ele><time>2026-05-02T14:17:03Z</time></trkpt><trkpt lat="44.3766586360448" lon="8.04412376169687"><ele>441.0</ele><time>2026-05-02T14:17:04Z</time></trkpt><trkpt lat="44.376719694516666" lon="8.043906140705714"><ele>441.0</ele><time>2026-05-02T14:17:05Z</time></trkpt><trkpt lat="44.3767819084341" lon="8.043695225083734"><ele>441.0</ele><time>2026-05-02T14:17:06Z</time></trkpt><trkpt lat="44.3768403064873" lon="8.043499331565318"><ele>441.0</ele><time>2026-05-02T14:17:07Z</time></trkpt><trkpt lat="44.37689057574739" lon="8.043317232386915"><ele>441.0</ele><time>2026-05-02T14:17:08Z</time></trkpt><trkpt lat="44.37693671190897" lon="8.043145227200167"><ele>441.0</ele><time>2026-05-02T14:17:09Z</time></trkpt><trkpt lat="44.37698679295273" lon="8.042981366005678"><ele>441.0</ele><time>2026-05-02T14:17:10Z</time></trkpt><trkpt lat="44.37704020984327" lon="8.042829650784554"><ele>441.0</ele><time>2026-05-02T14:17:11Z</time></trkpt><trkpt lat="44.377086430548914" lon="8.042680538956247"><ele>441.0</ele><time>2026-05-02T14:17:12Z</time></trkpt><trkpt lat="44.377128657310216" lon="8.04253261777201"><ele>441.0</ele><time>2026-05-02T14:17:13Z</time></trkpt><trkpt lat="44.37716887108813" lon="8.042394250247394"><ele>441.0</ele><time>2026-05-02T14:17:14Z</time></trkpt><trkpt lat="44.37720413542883" lon="8.042262162970754"><ele>441.0</ele><time>2026-05-02T14:17:15Z</time></trkpt><trkpt lat="44.377236584030655" lon="8.042136860722671"><ele>441.0</ele><time>2026-05-02T14:17:16Z</time></trkpt><trkpt lat="44.37727243734817" lon="8.042022387658195"><ele>440.6666666666667</ele><time>2026-05-02T14:17:17Z</time></trkpt><trkpt lat="44.37730539006444" lon="8.041912598181172"><ele>440.33333333333337</ele><time>2026-05-02T14:17:18Z</time></trkpt><trkpt lat="44.377337920944974" lon="8.04181737803525"><ele>440.0</ele><time>2026-05-02T14:17:19Z</time></trkpt><trkpt lat="44.37736900711747" lon="8.041730214886265"><ele>439.6666666666667</ele><time>2026-05-02T14:17:20Z</time></trkpt><trkpt lat="44.37740920935736" lon="8.041604651468962"><ele>439.33333333333337</ele><time>2026-05-02T14:17:22Z</time></trkpt><trkpt lat="44.37744315607757" lon="8.041522776023402"><ele>439.0</ele><time>2026-05-02T14:17:26Z</time></trkpt><trkpt lat="44.37750663981185" lon="8.041446956919321"><ele>438.83333333333337</ele><time>2026-05-02T14:17:29Z</time></trkpt><trkpt lat="44.377564179525976" lon="8.04137127079804"><ele>438.6666666666667</ele><time>2026-05-02T14:17:30Z</time></trkpt><trkpt lat="44.37762250249662" lon="8.041263201618117"><ele>438.5</ele><time>2026-05-02T14:17:31Z</time></trkpt><trkpt lat="44.377636809015904" lon="8.041157952129273"><ele>438.33333333333337</ele><time>2026-05-02T14:17:32Z</time></trkpt><trkpt lat="44.37762409920567" lon="8.041045542389039"><ele>438.1666666666667</ele><time>2026-05-02T14:17:33Z</time></trkpt><trkpt lat="44.37757800102397" lon="8.040926720020302"><ele>438.0</ele><time>2026-05-02T14:17:34Z</time></trkpt><trkpt lat="44.37750339098719" lon="8.040799424524549"><ele>438.0</ele><time>2026-05-02T14:17:35Z</time></trkpt><trkpt lat="44.37742081948761" lon="8.040616079806549"><ele>438.0</ele><time>2026-05-02T14:17:36Z</time></trkpt><trkpt lat="44.377349616993556" lon="8.040375495759232"><ele>438.0</ele><time>2026-05-02T14:17:37Z</time></trkpt><trkpt lat="44.3772905187658" lon="8.040113962919005"><ele>437.33333333333337</ele><time>2026-05-02T14:17:38Z</time></trkpt><trkpt lat="44.37722539745988" lon="8.039845826337265"><ele>436.6666666666667</ele><time>2026-05-02T14:17:39Z</time></trkpt><trkpt lat="44.377167213093436" lon="8.039612869258791"><ele>436.0</ele><time>2026-05-02T14:17:40Z</time></trkpt><trkpt lat="44.377112509057" lon="8.039395302597175"><ele>435.6666666666667</ele><time>2026-05-02T14:17:41Z</time></trkpt><trkpt lat="44.37706245797048" lon="8.039182440960102"><ele>435.33333333333337</ele><time>2026-05-02T14:17:42Z</time></trkpt><trkpt lat="44.377004791327636" lon="8.038954387603031"><ele>435.0</ele><time>2026-05-02T14:17:43Z</time></trkpt><trkpt lat="44.376947244084995" lon="8.03871896048241"><ele>434.0</ele><time>2026-05-02T14:17:44Z</time></trkpt><trkpt lat="44.376887087541476" lon="8.038496663685864"><ele>433.0</ele><time>2026-05-02T14:17:45Z</time></trkpt><trkpt lat="44.37683413427609" lon="8.038281978235231"><ele>432.0</ele><time>2026-05-02T14:17:46Z</time></trkpt><trkpt lat="44.37679143329949" lon="8.038089746630106"><ele>431.5</ele><time>2026-05-02T14:17:47Z</time></trkpt><trkpt lat="44.376763689330865" lon="8.037908796099423"><ele>431.0</ele><time>2026-05-02T14:17:48Z</time></trkpt><trkpt lat="44.376749428516035" lon="8.037745713723204"><ele>430.5</ele><time>2026-05-02T14:17:49Z</time></trkpt><trkpt lat="44.37674084133529" lon="8.037601448223883"><ele>430.0</ele><time>2026-05-02T14:17:50Z</time></trkpt><trkpt lat="44.37673859732713" lon="8.037460757223522"><ele>429.0</ele><time>2026-05-02T14:17:51Z</time></trkpt><trkpt lat="44.3767409356291" lon="8.037300356194132"><ele>428.0</ele><time>2026-05-02T14:17:52Z</time></trkpt><trkpt lat="44.37676455154111" lon="8.037122440187396"><ele>427.0</ele><time>2026-05-02T14:17:53Z</time></trkpt><trkpt lat="44.3767922621978" lon="8.036948003040209"><ele>426.0</ele><time>2026-05-02T14:17:54Z</time></trkpt><trkpt lat="44.376834341399395" lon="8.036768857519588"><ele>424.33333333333337</ele><time>2026-05-02T14:17:55Z</time></trkpt><trkpt lat="44.37690284464376" lon="8.036560006089875"><ele>422.6666666666667</ele><time>2026-05-02T14:17:56Z</time></trkpt><trkpt lat="44.377000250243334" lon="8.036291671671405"><ele>421.0</ele><time>2026-05-02T14:17:57Z</time></trkpt><trkpt lat="44.37712543762156" lon="8.035964415559036"><ele>421.0</ele><time>2026-05-02T14:17:58Z</time></trkpt><trkpt lat="44.377256378526596" lon="8.03562886180732"><ele>421.0</ele><time>2026-05-02T14:17:59Z</time></trkpt><trkpt lat="44.37739295610731" lon="8.035278443334748"><ele>419.5</ele><time>2026-05-02T14:18:00Z</time></trkpt><trkpt lat="44.37753529131029" lon="8.034902602519253"><ele>418.0</ele><time>2026-05-02T14:18:01Z</time></trkpt><trkpt lat="44.37767400064021" lon="8.034534603505294"><ele>418.0</ele><time>2026-05-02T14:18:02Z</time></trkpt><trkpt lat="44.37780682813782" lon="8.034193864086593"><ele>418.0</ele><time>2026-05-02T14:18:03Z</time></trkpt><trkpt lat="44.3779277697073" lon="8.03388175122892"><ele>418.5</ele><time>2026-05-02T14:18:04Z</time></trkpt><trkpt lat="44.37803673418067" lon="8.03359202442444"><ele>419.0</ele><time>2026-05-02T14:18:05Z</time></trkpt><trkpt lat="44.37813959497983" lon="8.033321184712928"><ele>418.66666666666663</ele><time>2026-05-02T14:18:06Z</time></trkpt><trkpt lat="44.378243237870144" lon="8.033057659862015"><ele>418.33333333333337</ele><time>2026-05-02T14:18:07Z</time></trkpt><trkpt lat="44.37834985242326" lon="8.032792731968348"><ele>418.0</ele><time>2026-05-02T14:18:08Z</time></trkpt><trkpt lat="44.37845154285766" lon="8.03253092445586"><ele>417.33333333333337</ele><time>2026-05-02T14:18:09Z</time></trkpt><trkpt lat="44.37854702792746" lon="8.032279685441953"><ele>416.66666666666663</ele><time>2026-05-02T14:18:10Z</time></trkpt><trkpt lat="44.378636480790625" lon="8.032051182408056"><ele>416.0</ele><time>2026-05-02T14:18:11Z</time></trkpt><trkpt lat="44.37872475104895" lon="8.031832771873376"><ele>414.0</ele><time>2026-05-02T14:18:12Z</time></trkpt><trkpt lat="44.37880594884049" lon="8.031620739848465"><ele>412.0</ele><time>2026-05-02T14:18:13Z</time></trkpt><trkpt lat="44.37888516505017" lon="8.031425958597186"><ele>410.0</ele><time>2026-05-02T14:18:14Z</time></trkpt><trkpt lat="44.378964304476746" lon="8.031267547785996"><ele>409.75</ele><time>2026-05-02T14:18:15Z</time></trkpt><trkpt lat="44.37906108164963" lon="8.031114194412723"><ele>409.5</ele><time>2026-05-02T14:18:16Z</time></trkpt><trkpt lat="44.37916950382685" lon="8.030989457362761"><ele>409.25</ele><time>2026-05-02T14:18:17Z</time></trkpt><trkpt lat="44.379300211391644" lon="8.030902285201737"><ele>409.0</ele><time>2026-05-02T14:18:18Z</time></trkpt><trkpt lat="44.37944956397651" lon="8.030825708246471"><ele>408.0</ele><time>2026-05-02T14:18:19Z</time></trkpt><trkpt lat="44.37959790021018" lon="8.030769904015344"><ele>407.0</ele><time>2026-05-02T14:18:20Z</time></trkpt><trkpt lat="44.37975115004558" lon="8.030728622721558"><ele>406.0</ele><time>2026-05-02T14:18:21Z</time></trkpt><trkpt lat="44.37992697449266" lon="8.03070601245212"><ele>403.33333333333337</ele><time>2026-05-02T14:18:22Z</time></trkpt><trkpt lat="44.38011269413998" lon="8.03070601311945"><ele>400.66666666666663</ele><time>2026-05-02T14:18:23Z</time></trkpt><trkpt lat="44.38028676133408" lon="8.030718814316788"><ele>398.0</ele><time>2026-05-02T14:18:24Z</time></trkpt><trkpt lat="44.38042594626873" lon="8.030737211261581"><ele>397.2</ele><time>2026-05-02T14:18:25Z</time></trkpt><trkpt lat="44.380549675393745" lon="8.030767638058267"><ele>396.4</ele><time>2026-05-02T14:18:26Z</time></trkpt><trkpt lat="44.38066147013994" lon="8.03080637754539"><ele>395.59999999999997</ele><time>2026-05-02T14:18:27Z</time></trkpt><trkpt lat="44.380754364144806" lon="8.030867733383923"><ele>394.79999999999995</ele><time>2026-05-02T14:18:28Z</time></trkpt><trkpt lat="44.380826864799815" lon="8.03095181751407"><ele>394.0</ele><time>2026-05-02T14:18:29Z</time></trkpt><trkpt lat="44.38090416345537" lon="8.031087658559525"><ele>394.0</ele><time>2026-05-02T14:18:30Z</time></trkpt><trkpt lat="44.380989109467585" lon="8.031274406421373"><ele>394.0</ele><time>2026-05-02T14:18:31Z</time></trkpt><trkpt lat="44.38109855883833" lon="8.031512719220895"><ele>394.0</ele><time>2026-05-02T14:18:32Z</time></trkpt><trkpt lat="44.38120862716578" lon="8.031785580973468"><ele>389.6666666666667</ele><time>2026-05-02T14:18:33Z</time></trkpt><trkpt lat="44.38132484633984" lon="8.03203515316227"><ele>385.33333333333337</ele><time>2026-05-02T14:18:34Z</time></trkpt><trkpt lat="44.381427862598834" lon="8.03225637308755"><ele>381.0</ele><time>2026-05-02T14:18:35Z</time></trkpt><trkpt lat="44.38152033900852" lon="8.032454959507527"><ele>383.75</ele><time>2026-05-02T14:18:36Z</time></trkpt><trkpt lat="44.38161843553827" lon="8.032624143271146"><ele>386.5</ele><time>2026-05-02T14:18:37Z</time></trkpt><trkpt lat="44.38169359489446" lon="8.032792236972195"><ele>389.25</ele><time>2026-05-02T14:18:38Z</time></trkpt><trkpt lat="44.38175488676725" lon="8.032927924993494"><ele>392.0</ele><time>2026-05-02T14:18:39Z</time></trkpt><trkpt lat="44.38183157230541" lon="8.033028075099043"><ele>392.0</ele><time>2026-05-02T14:18:40Z</time></trkpt><trkpt lat="44.38192674791373" lon="8.033111198644985"><ele>392.0</ele><time>2026-05-02T14:18:41Z</time></trkpt><trkpt lat="44.3820273576028" lon="8.033134244577205"><ele>392.0</ele><time>2026-05-02T14:18:42Z</time></trkpt><trkpt lat="44.382120201788375" lon="8.033119389002522"><ele>392.0</ele><time>2026-05-02T14:18:43Z</time></trkpt><trkpt lat="44.382207561585275" lon="8.033054780450732"><ele>392.0</ele><time>2026-05-02T14:18:44Z</time></trkpt><trkpt lat="44.38227675742512" lon="8.032956650915702"><ele>389.0</ele><time>2026-05-02T14:18:45Z</time></trkpt><trkpt lat="44.38232552217779" lon="8.032824408277046"><ele>386.0</ele><time>2026-05-02T14:18:46Z</time></trkpt><trkpt lat="44.38234279698271" lon="8.032666129216416"><ele>383.0</ele><time>2026-05-02T14:18:47Z</time></trkpt><trkpt lat="44.38233565943277" lon="8.032468729774525"><ele>380.0</ele><time>2026-05-02T14:18:48Z</time></trkpt><trkpt lat="44.38231241896473" lon="8.032277470182464"><ele>379.5</ele><time>2026-05-02T14:18:49Z</time></trkpt><trkpt lat="44.38230396779101" lon="8.03213295842383"><ele>379.0</ele><time>2026-05-02T14:18:50Z</time></trkpt><trkpt lat="44.38230852332936" lon="8.032041822668242"><ele>378.5</ele><time>2026-05-02T14:18:51Z</time></trkpt><trkpt lat="44.38231054352122" lon="8.031953048924994"><ele>378.0</ele><time>2026-05-02T14:18:52Z</time></trkpt><trkpt lat="44.38232074614764" lon="8.031858236847704"><ele>377.5</ele><time>2026-05-02T14:18:53Z</time></trkpt><trkpt lat="44.38234896211138" lon="8.031736734995262"><ele>377.0</ele><time>2026-05-02T14:18:54Z</time></trkpt><trkpt lat="44.382376032471434" lon="8.031638776698724"><ele>376.8</ele><time>2026-05-02T14:18:55Z</time></trkpt><trkpt lat="44.38242727919486" lon="8.03154444675495"><ele>376.6</ele><time>2026-05-02T14:18:56Z</time></trkpt><trkpt lat="44.38245049836933" lon="8.031443586216103"><ele>376.40000000000003</ele><time>2026-05-02T14:18:57Z</time></trkpt><trkpt lat="44.3824450473787" lon="8.031322576730737"><ele>376.20000000000005</ele><time>2026-05-02T14:18:58Z</time></trkpt><trkpt lat="44.38242700604655" lon="8.03119004689936"><ele>376.0</ele><time>2026-05-02T14:18:59Z</time></trkpt><trkpt lat="44.38242975887671" lon="8.03103771449216"><ele>376.0</ele><time>2026-05-02T14:19:00Z</time></trkpt><trkpt lat="44.382464083025496" lon="8.030852186293382"><ele>376.0</ele><time>2026-05-02T14:19:01Z</time></trkpt><trkpt lat="44.38250658155614" lon="8.03065887795433"><ele>376.0</ele><time>2026-05-02T14:19:02Z</time></trkpt><trkpt lat="44.382556227931794" lon="8.030410515462536"><ele>375.66666666666663</ele><time>2026-05-02T14:19:03Z</time></trkpt><trkpt lat="44.38259810004486" lon="8.030187016436589"><ele>375.3333333333333</ele><time>2026-05-02T14:19:04Z</time></trkpt><trkpt lat="44.382636722112885" lon="8.029982233363635"><ele>375.0</ele><time>2026-05-02T14:19:05Z</time></trkpt><trkpt lat="44.38268026422041" lon="8.029754443132578"><ele>376.0</ele><time>2026-05-02T14:19:06Z</time></trkpt><trkpt lat="44.38272423696035" lon="8.029513671702311"><ele>377.0</ele><time>2026-05-02T14:19:07Z</time></trkpt><trkpt lat="44.382777288310734" lon="8.02925916136724"><ele>378.0</ele><time>2026-05-02T14:19:08Z</time></trkpt><trkpt lat="44.382828785084094" lon="8.028982258100495"><ele>378.3333333333333</ele><time>2026-05-02T14:19:09Z</time></trkpt><trkpt lat="44.38287256405201" lon="8.028724288786975"><ele>378.66666666666663</ele><time>2026-05-02T14:19:10Z</time></trkpt><trkpt lat="44.38291600990225" lon="8.028485901992687"><ele>379.0</ele><time>2026-05-02T14:19:11Z</time></trkpt><trkpt lat="44.38296298285118" lon="8.028247581147788"><ele>379.0</ele><time>2026-05-02T14:19:12Z</time></trkpt><trkpt lat="44.38300788834684" lon="8.028017458229927"><ele>379.0</ele><time>2026-05-02T14:19:13Z</time></trkpt><trkpt lat="44.38305122949932" lon="8.027786783861494"><ele>379.0</ele><time>2026-05-02T14:19:14Z</time></trkpt><trkpt lat="44.383090779052985" lon="8.027569435080917"><ele>379.25</ele><time>2026-05-02T14:19:15Z</time></trkpt><trkpt lat="44.38313112701388" lon="8.027361604953976"><ele>379.5</ele><time>2026-05-02T14:19:16Z</time></trkpt><trkpt lat="44.38316498513918" lon="8.027165240817721"><ele>379.75</ele><time>2026-05-02T14:19:17Z</time></trkpt><trkpt lat="44.38319556682019" lon="8.026977215885562"><ele>380.0</ele><time>2026-05-02T14:19:18Z</time></trkpt><trkpt lat="44.38323141690746" lon="8.026794736159298"><ele>380.0</ele><time>2026-05-02T14:19:19Z</time></trkpt><trkpt lat="44.38326766196752" lon="8.026613525718949"><ele>380.0</ele><time>2026-05-02T14:19:20Z</time></trkpt><trkpt lat="44.383311106022354" lon="8.026427847313403"><ele>380.0</ele><time>2026-05-02T14:19:21Z</time></trkpt><trkpt lat="44.38335198615896" lon="8.026236866835468"><ele>380.0</ele><time>2026-05-02T14:19:22Z</time></trkpt><trkpt lat="44.38340275529741" lon="8.026065497854178"><ele>380.0</ele><time>2026-05-02T14:19:23Z</time></trkpt><trkpt lat="44.38347920560809" lon="8.025906718038566"><ele>380.0</ele><time>2026-05-02T14:19:24Z</time></trkpt><trkpt lat="44.38358464060625" lon="8.025775086097248"><ele>380.0</ele><time>2026-05-02T14:19:25Z</time></trkpt><trkpt lat="44.383714276339965" lon="8.025673616545598"><ele>380.0</ele><time>2026-05-02T14:19:26Z</time></trkpt><trkpt lat="44.38385216553067" lon="8.025614936932687"><ele>388.0</ele><time>2026-05-02T14:19:27Z</time></trkpt><trkpt lat="44.383996941134924" lon="8.025605189372891"><ele>396.0</ele><time>2026-05-02T14:19:28Z</time></trkpt><trkpt lat="44.38416703491845" lon="8.025714702463477"><ele>404.0</ele><time>2026-05-02T14:19:29Z</time></trkpt><trkpt lat="44.384334647126984" lon="8.025760930860224"><ele>403.0</ele><time>2026-05-02T14:19:30Z</time></trkpt><trkpt lat="44.3844973785048" lon="8.025872796809969"><ele>402.0</ele><time>2026-05-02T14:19:31Z</time></trkpt><trkpt lat="44.38465655583737" lon="8.025952241917695"><ele>401.0</ele><time>2026-05-02T14:19:32Z</time></trkpt><trkpt lat="44.38478256616757" lon="8.026057295956322"><ele>401.0</ele><time>2026-05-02T14:19:33Z</time></trkpt><trkpt lat="44.38489217751775" lon="8.02617485304961"><ele>401.0</ele><time>2026-05-02T14:19:34Z</time></trkpt><trkpt lat="44.38498371553642" lon="8.026306657475198"><ele>401.0</ele><time>2026-05-02T14:19:35Z</time></trkpt><trkpt lat="44.38506493352268" lon="8.026430257722998"><ele>401.0</ele><time>2026-05-02T14:19:36Z</time></trkpt><trkpt lat="44.38514205151954" lon="8.026546827316078"><ele>398.4</ele><time>2026-05-02T14:19:37Z</time></trkpt><trkpt lat="44.385215793386344" lon="8.026660385151645"><ele>395.8</ele><time>2026-05-02T14:19:38Z</time></trkpt><trkpt lat="44.38524224530868" lon="8.026793721879068"><ele>393.2</ele><time>2026-05-02T14:19:39Z</time></trkpt><trkpt lat="44.38527090310824" lon="8.026918340744208"><ele>390.59999999999997</ele><time>2026-05-02T14:19:40Z</time></trkpt><trkpt lat="44.38530660348536" lon="8.027027085322546"><ele>388.0</ele><time>2026-05-02T14:19:41Z</time></trkpt><trkpt lat="44.38534794645521" lon="8.027112195264328"><ele>388.00000000000006</ele><time>2026-05-02T14:19:42Z</time></trkpt><trkpt lat="44.38539081939432" lon="8.027181641560487"><ele>388.0</ele><time>2026-05-02T14:19:43Z</time></trkpt><trkpt lat="44.385491337209345" lon="8.027263731914804"><ele>388.0</ele><time>2026-05-02T14:19:45Z</time></trkpt><trkpt lat="44.38554353713911" lon="8.027318897280377"><ele>388.0</ele><time>2026-05-02T14:19:46Z</time></trkpt><trkpt lat="44.38559773097391" lon="8.027374230425266"><ele>388.00000000000006</ele><time>2026-05-02T14:19:47Z</time></trkpt><trkpt lat="44.385651413515774" lon="8.027425521354624"><ele>388.0</ele><time>2026-05-02T14:19:48Z</time></trkpt><trkpt lat="44.385769575615974" lon="8.027412881263468"><ele>390.2</ele><time>2026-05-02T14:19:50Z</time></trkpt><trkpt lat="44.38581541363556" lon="8.02733821932644"><ele>392.4</ele><time>2026-05-02T14:19:51Z</time></trkpt><trkpt lat="44.385827493941164" lon="8.027236586037619"><ele>394.59999999999997</ele><time>2026-05-02T14:19:52Z</time></trkpt><trkpt lat="44.38581346656485" lon="8.027108453993108"><ele>396.79999999999995</ele><time>2026-05-02T14:19:53Z</time></trkpt><trkpt lat="44.385790846917104" lon="8.026969605996124"><ele>399.0</ele><time>2026-05-02T14:19:54Z</time></trkpt><trkpt lat="44.385788947779865" lon="8.026812919455049"><ele>399.0</ele><time>2026-05-02T14:19:55Z</time></trkpt><trkpt lat="44.38580561634775" lon="8.026655518679325"><ele>399.0</ele><time>2026-05-02T14:19:56Z</time></trkpt><trkpt lat="44.385812778255705" lon="8.026516828877714"><ele>399.0</ele><time>2026-05-02T14:19:57Z</time></trkpt><trkpt lat="44.38580526570669" lon="8.026346019281458"><ele>399.0</ele><time>2026-05-02T14:19:58Z</time></trkpt><trkpt lat="44.385819174316396" lon="8.026130314031587"><ele>401.66666666666663</ele><time>2026-05-02T14:19:59Z</time></trkpt><trkpt lat="44.38585864677441" lon="8.025880919773929"><ele>404.3333333333333</ele><time>2026-05-02T14:20:00Z</time></trkpt><trkpt lat="44.38588317635022" lon="8.025612683427703"><ele>407.0</ele><time>2026-05-02T14:20:01Z</time></trkpt><trkpt lat="44.385906604872105" lon="8.025295337633752"><ele>410.0</ele><time>2026-05-02T14:20:02Z</time></trkpt><trkpt lat="44.38594122097925" lon="8.024955120052748"><ele>413.0</ele><time>2026-05-02T14:20:03Z</time></trkpt><trkpt lat="44.385981510762875" lon="8.024660889096905"><ele>413.0</ele><time>2026-05-02T14:20:04Z</time></trkpt><trkpt lat="44.38601038193415" lon="8.02440820533058"><ele>413.0</ele><time>2026-05-02T14:20:05Z</time></trkpt><trkpt lat="44.38603161477814" lon="8.024156525018212"><ele>413.0</ele><time>2026-05-02T14:20:06Z</time></trkpt><trkpt lat="44.38605085717613" lon="8.023913252073791"><ele>413.3333333333333</ele><time>2026-05-02T14:20:07Z</time></trkpt><trkpt lat="44.3860732464315" lon="8.023685563444273"><ele>413.66666666666663</ele><time>2026-05-02T14:20:08Z</time></trkpt><trkpt lat="44.386094054566065" lon="8.023464694097079"><ele>414.0</ele><time>2026-05-02T14:20:09Z</time></trkpt><trkpt lat="44.38611134265371" lon="8.023248745610363"><ele>414.33333333333337</ele><time>2026-05-02T14:20:10Z</time></trkpt><trkpt lat="44.38613200214914" lon="8.023027843195287"><ele>414.6666666666667</ele><time>2026-05-02T14:20:11Z</time></trkpt><trkpt lat="44.386149990155964" lon="8.02279981982369"><ele>415.0</ele><time>2026-05-02T14:20:12Z</time></trkpt><trkpt lat="44.38616801657889" lon="8.022561073454936"><ele>415.0</ele><time>2026-05-02T14:20:13Z</time></trkpt><trkpt lat="44.38618544424177" lon="8.022309786842284"><ele>415.0</ele><time>2026-05-02T14:20:14Z</time></trkpt><trkpt lat="44.38621435405095" lon="8.022036170350159"><ele>415.0</ele><time>2026-05-02T14:20:15Z</time></trkpt><trkpt lat="44.386256073642144" lon="8.02172183938402"><ele>414.5</ele><time>2026-05-02T14:20:16Z</time></trkpt><trkpt lat="44.386307937712125" lon="8.02137589159719"><ele>414.0</ele><time>2026-05-02T14:20:17Z</time></trkpt><trkpt lat="44.3863268904043" lon="8.021087786408637"><ele>414.0</ele><time>2026-05-02T14:20:18Z</time></trkpt><trkpt lat="44.38634682630046" lon="8.020827413195697"><ele>414.0</ele><time>2026-05-02T14:20:19Z</time></trkpt><trkpt lat="44.3863713544578" lon="8.020580465343198"><ele>414.0</ele><time>2026-05-02T14:20:20Z</time></trkpt><trkpt lat="44.38639342130957" lon="8.020328045585662"><ele>414.0</ele><time>2026-05-02T14:20:21Z</time></trkpt><trkpt lat="44.38641350567825" lon="8.020085770107386"><ele>414.0</ele><time>2026-05-02T14:20:22Z</time></trkpt><trkpt lat="44.38643658555684" lon="8.01983821331754"><ele>414.0</ele><time>2026-05-02T14:20:23Z</time></trkpt><trkpt lat="44.38645892837685" lon="8.019562377994145"><ele>414.0</ele><time>2026-05-02T14:20:24Z</time></trkpt><trkpt lat="44.38647900711861" lon="8.01928408018461"><ele>414.0</ele><time>2026-05-02T14:20:25Z</time></trkpt><trkpt lat="44.386506759496044" lon="8.01904279681368"><ele>414.0</ele><time>2026-05-02T14:20:26Z</time></trkpt><trkpt lat="44.38653340815995" lon="8.018826590343679"><ele>414.0</ele><time>2026-05-02T14:20:27Z</time></trkpt><trkpt lat="44.386556706206214" lon="8.018606599134882"><ele>414.0</ele><time>2026-05-02T14:20:28Z</time></trkpt><trkpt lat="44.386567464980594" lon="8.01838531814558"><ele>414.0</ele><time>2026-05-02T14:20:29Z</time></trkpt><trkpt lat="44.386598012483915" lon="8.018147996142966"><ele>414.0</ele><time>2026-05-02T14:20:30Z</time></trkpt><trkpt lat="44.38661585862567" lon="8.017938541610981"><ele>414.0</ele><time>2026-05-02T14:20:31Z</time></trkpt><trkpt lat="44.386632579808605" lon="8.017749539672186"><ele>414.0</ele><time>2026-05-02T14:20:32Z</time></trkpt><trkpt lat="44.38665295413494" lon="8.017557693259626"><ele>414.0</ele><time>2026-05-02T14:20:33Z</time></trkpt><trkpt lat="44.38667710185096" lon="8.017352819289522"><ele>414.0</ele><time>2026-05-02T14:20:34Z</time></trkpt><trkpt lat="44.38669660063651" lon="8.017148593279114"><ele>414.0</ele><time>2026-05-02T14:20:35Z</time></trkpt><trkpt lat="44.38671096634658" lon="8.016962991940778"><ele>414.0</ele><time>2026-05-02T14:20:36Z</time></trkpt><trkpt lat="44.3867290763994" lon="8.016782056190372"><ele>414.0</ele><time>2026-05-02T14:20:37Z</time></trkpt><trkpt lat="44.38674611372913" lon="8.016623813178795"><ele>414.0</ele><time>2026-05-02T14:20:38Z</time></trkpt><trkpt lat="44.386761631707444" lon="8.016465972570886"><ele>414.0</ele><time>2026-05-02T14:20:39Z</time></trkpt><trkpt lat="44.386778723355164" lon="8.01628057373535"><ele>414.0</ele><time>2026-05-02T14:20:40Z</time></trkpt><trkpt lat="44.386795807271376" lon="8.01605649173468"><ele>414.0</ele><time>2026-05-02T14:20:41Z</time></trkpt><trkpt lat="44.38681720047277" lon="8.015810794401217"><ele>414.0</ele><time>2026-05-02T14:20:42Z</time></trkpt><trkpt lat="44.38684312093115" lon="8.015545056820345"><ele>414.0</ele><time>2026-05-02T14:20:43Z</time></trkpt><trkpt lat="44.38687278425524" lon="8.015261393322866"><ele>414.0</ele><time>2026-05-02T14:20:44Z</time></trkpt><trkpt lat="44.38689973250368" lon="8.014979661672282"><ele>413.66666666666663</ele><time>2026-05-02T14:20:45Z</time></trkpt><trkpt lat="44.386924732404076" lon="8.014714408277566"><ele>413.3333333333333</ele><time>2026-05-02T14:20:46Z</time></trkpt><trkpt lat="44.38694792672177" lon="8.014468347543717"><ele>413.0</ele><time>2026-05-02T14:20:47Z</time></trkpt><trkpt lat="44.38697276642737" lon="8.01420301094898"><ele>413.0</ele><time>2026-05-02T14:20:48Z</time></trkpt><trkpt lat="44.38700312596597" lon="8.013900498907612"><ele>413.0</ele><time>2026-05-02T14:20:49Z</time></trkpt><trkpt lat="44.38702925220751" lon="8.013589334874093"><ele>413.0</ele><time>2026-05-02T14:20:50Z</time></trkpt><trkpt lat="44.387058735677236" lon="8.013294688786845"><ele>413.0</ele><time>2026-05-02T14:20:51Z</time></trkpt><trkpt lat="44.3870872444209" lon="8.013004824769874"><ele>413.0</ele><time>2026-05-02T14:20:52Z</time></trkpt><trkpt lat="44.38711242553588" lon="8.01271893004878"><ele>413.0</ele><time>2026-05-02T14:20:53Z</time></trkpt><trkpt lat="44.38713691523905" lon="8.012447090482913"><ele>413.0</ele><time>2026-05-02T14:20:54Z</time></trkpt><trkpt lat="44.387160752247944" lon="8.012190009332684"><ele>413.0</ele><time>2026-05-02T14:20:55Z</time></trkpt><trkpt lat="44.38718176326149" lon="8.011953733694767"><ele>413.0</ele><time>2026-05-02T14:20:56Z</time></trkpt><trkpt lat="44.387210512905064" lon="8.011706484018985"><ele>412.66666666666663</ele><time>2026-05-02T14:20:57Z</time></trkpt><trkpt lat="44.38724249786576" lon="8.0114599082611"><ele>412.33333333333337</ele><time>2026-05-02T14:20:58Z</time></trkpt><trkpt lat="44.38728862315257" lon="8.0112173039169"><ele>412.0</ele><time>2026-05-02T14:20:59Z</time></trkpt><trkpt lat="44.38735943674983" lon="8.010966031122267"><ele>415.0</ele><time>2026-05-02T14:21:00Z</time></trkpt><trkpt lat="44.38745302721274" lon="8.010724227773883"><ele>418.0</ele><time>2026-05-02T14:21:01Z</time></trkpt><trkpt lat="44.387567143342004" lon="8.010500935107958"><ele>421.0</ele><time>2026-05-02T14:21:02Z</time></trkpt><trkpt lat="44.38770147007534" lon="8.010293305686387"><ele>421.0</ele><time>2026-05-02T14:21:03Z</time></trkpt><trkpt lat="44.38785876564805" lon="8.010096039010644"><ele>421.0</ele><time>2026-05-02T14:21:04Z</time></trkpt><trkpt lat="44.38803457693988" lon="8.009899988062422"><ele>421.0</ele><time>2026-05-02T14:21:05Z</time></trkpt><trkpt lat="44.38821229765162" lon="8.009710845628343"><ele>422.5</ele><time>2026-05-02T14:21:06Z</time></trkpt><trkpt lat="44.38840822638325" lon="8.00954107673711"><ele>424.0</ele><time>2026-05-02T14:21:07Z</time></trkpt><trkpt lat="44.38859113294268" lon="8.009325913641515"><ele>424.33333333333337</ele><time>2026-05-02T14:21:08Z</time></trkpt><trkpt lat="44.38876270902552" lon="8.009157415773988"><ele>424.66666666666663</ele><time>2026-05-02T14:21:09Z</time></trkpt><trkpt lat="44.38892446541142" lon="8.008988743857328"><ele>425.0</ele><time>2026-05-02T14:21:10Z</time></trkpt><trkpt lat="44.38908187287339" lon="8.008792562114007"><ele>425.0</ele><time>2026-05-02T14:21:11Z</time></trkpt><trkpt lat="44.389216258344135" lon="8.008610918922964"><ele>425.0</ele><time>2026-05-02T14:21:12Z</time></trkpt><trkpt lat="44.389339417817226" lon="8.0084544326675"><ele>425.0</ele><time>2026-05-02T14:21:13Z</time></trkpt><trkpt lat="44.38948704282007" lon="8.008255587987698"><ele>425.0</ele><time>2026-05-02T14:21:14Z</time></trkpt><trkpt lat="44.3896733881549" lon="8.008007232176793"><ele>425.0</ele><time>2026-05-02T14:21:15Z</time></trkpt><trkpt lat="44.38987938859984" lon="8.00774642750986"><ele>425.0</ele><time>2026-05-02T14:21:16Z</time></trkpt><trkpt lat="44.39008651122328" lon="8.007484299297548"><ele>425.0</ele><time>2026-05-02T14:21:17Z</time></trkpt><trkpt lat="44.39028870772898" lon="8.007224912726691"><ele>425.0</ele><time>2026-05-02T14:21:18Z</time></trkpt><trkpt lat="44.39049205707421" lon="8.006959740802156"><ele>425.0</ele><time>2026-05-02T14:21:19Z</time></trkpt><trkpt lat="44.39067759337425" lon="8.006710606852556"><ele>425.0</ele><time>2026-05-02T14:21:20Z</time></trkpt><trkpt lat="44.39084999093033" lon="8.006489224876539"><ele>425.0</ele><time>2026-05-02T14:21:21Z</time></trkpt><trkpt lat="44.39101665599876" lon="8.00627909915831"><ele>425.0</ele><time>2026-05-02T14:21:22Z</time></trkpt><trkpt lat="44.391178100720175" lon="8.006066548353658"><ele>425.0</ele><time>2026-05-02T14:21:23Z</time></trkpt><trkpt lat="44.39132349488914" lon="8.00587201865271"><ele>425.0</ele><time>2026-05-02T14:21:24Z</time></trkpt><trkpt lat="44.39145117248435" lon="8.005692994192943"><ele>424.66666666666663</ele><time>2026-05-02T14:21:25Z</time></trkpt><trkpt lat="44.39157482926298" lon="8.005504123361218"><ele>424.33333333333337</ele><time>2026-05-02T14:21:26Z</time></trkpt><trkpt lat="44.39169376196394" lon="8.005290937362702"><ele>424.0</ele><time>2026-05-02T14:21:27Z</time></trkpt><trkpt lat="44.391802022417394" lon="8.005045944946266"><ele>424.33333333333337</ele><time>2026-05-02T14:21:28Z</time></trkpt><trkpt lat="44.39190253764775" lon="8.004769232741346"><ele>424.66666666666663</ele><time>2026-05-02T14:21:29Z</time></trkpt><trkpt lat="44.39199446476591" lon="8.004479480773556"><ele>425.0</ele><time>2026-05-02T14:21:30Z</time></trkpt><trkpt lat="44.392091949184596" lon="8.004188774716376"><ele>423.5</ele><time>2026-05-02T14:21:31Z</time></trkpt><trkpt lat="44.39219253880228" lon="8.003903484821311"><ele>422.0</ele><time>2026-05-02T14:21:32Z</time></trkpt><trkpt lat="44.39229318871104" lon="8.003613207591357"><ele>422.0</ele><time>2026-05-02T14:21:33Z</time></trkpt><trkpt lat="44.39239142136447" lon="8.003335487867572"><ele>422.0</ele><time>2026-05-02T14:21:34Z</time></trkpt><trkpt lat="44.39247304326383" lon="8.00308443089309"><ele>422.0</ele><time>2026-05-02T14:21:35Z</time></trkpt><trkpt lat="44.39254528856575" lon="8.002849586501918"><ele>421.3333333333333</ele><time>2026-05-02T14:21:36Z</time></trkpt><trkpt lat="44.39261271973704" lon="8.002586346346607"><ele>420.66666666666663</ele><time>2026-05-02T14:21:37Z</time></trkpt><trkpt lat="44.392674616085316" lon="8.00226214600401"><ele>420.0</ele><time>2026-05-02T14:21:38Z</time></trkpt><trkpt lat="44.39273875105205" lon="8.001870128299105"><ele>419.5</ele><time>2026-05-02T14:21:39Z</time></trkpt><trkpt lat="44.392806941425086" lon="8.00147601944591"><ele>419.0</ele><time>2026-05-02T14:21:40Z</time></trkpt><trkpt lat="44.3928798837259" lon="8.00107580088554"><ele>419.0</ele><time>2026-05-02T14:21:41Z</time></trkpt><trkpt lat="44.39295423374232" lon="8.000667891858127"><ele>419.0</ele><time>2026-05-02T14:21:42Z</time></trkpt><trkpt lat="44.39302263519897" lon="8.000302532193366"><ele>418.5</ele><time>2026-05-02T14:21:43Z</time></trkpt><trkpt lat="44.393082001217344" lon="7.999977332782306"><ele>418.0</ele><time>2026-05-02T14:21:44Z</time></trkpt><trkpt lat="44.393139433282684" lon="7.999674372865486"><ele>418.0</ele><time>2026-05-02T14:21:45Z</time></trkpt><trkpt lat="44.39320082783891" lon="7.999395802900136"><ele>418.0</ele><time>2026-05-02T14:21:46Z</time></trkpt><trkpt lat="44.39326591322709" lon="7.99913786450611"><ele>418.0</ele><time>2026-05-02T14:21:47Z</time></trkpt><trkpt lat="44.39335897467368" lon="7.998879053978989"><ele>418.0</ele><time>2026-05-02T14:21:48Z</time></trkpt><trkpt lat="44.393466430890754" lon="7.9986044781255625"><ele>418.0</ele><time>2026-05-02T14:21:49Z</time></trkpt><trkpt lat="44.39357942678815" lon="7.998317855460845"><ele>419.5</ele><time>2026-05-02T14:21:50Z</time></trkpt><trkpt lat="44.393701290599175" lon="7.998016733204144"><ele>421.0</ele><time>2026-05-02T14:21:51Z</time></trkpt><trkpt lat="44.39382881295241" lon="7.997690759256959"><ele>420.0</ele><time>2026-05-02T14:21:52Z</time></trkpt><trkpt lat="44.39396371252504" lon="7.997335890595222"><ele>419.0</ele><time>2026-05-02T14:21:53Z</time></trkpt><trkpt lat="44.394101738130786" lon="7.996965120741469"><ele>420.0</ele><time>2026-05-02T14:21:54Z</time></trkpt><trkpt lat="44.39423908553338" lon="7.996587104167592"><ele>421.0</ele><time>2026-05-02T14:21:55Z</time></trkpt><trkpt lat="44.394379927711505" lon="7.9962032551988695"><ele>420.5</ele><time>2026-05-02T14:21:56Z</time></trkpt><trkpt lat="44.394516587140615" lon="7.995828202142257"><ele>420.0</ele><time>2026-05-02T14:21:57Z</time></trkpt><trkpt lat="44.3946441971815" lon="7.995478574110089"><ele>419.0</ele><time>2026-05-02T14:21:58Z</time></trkpt><trkpt lat="44.39476560535362" lon="7.995151560948621"><ele>418.0</ele><time>2026-05-02T14:21:59Z</time></trkpt><trkpt lat="44.394887239495866" lon="7.994825390262926"><ele>418.0</ele><time>2026-05-02T14:22:00Z</time></trkpt><trkpt lat="44.395009377428856" lon="7.994480628109875"><ele>418.0</ele><time>2026-05-02T14:22:01Z</time></trkpt><trkpt lat="44.395138994884974" lon="7.994120793803507"><ele>418.0</ele><time>2026-05-02T14:22:02Z</time></trkpt><trkpt lat="44.3952683558223" lon="7.993767894781991"><ele>418.0</ele><time>2026-05-02T14:22:03Z</time></trkpt><trkpt lat="44.39538864554718" lon="7.993439634266234"><ele>418.5</ele><time>2026-05-02T14:22:04Z</time></trkpt><trkpt lat="44.39550250398285" lon="7.993117908493888"><ele>419.0</ele><time>2026-05-02T14:22:05Z</time></trkpt><trkpt lat="44.395607115205465" lon="7.992825181675079"><ele>419.0</ele><time>2026-05-02T14:22:06Z</time></trkpt><trkpt lat="44.39570628134226" lon="7.992554853419408"><ele>419.0</ele><time>2026-05-02T14:22:07Z</time></trkpt><trkpt lat="44.395804227457496" lon="7.992305065561309"><ele>419.0</ele><time>2026-05-02T14:22:08Z</time></trkpt><trkpt lat="44.39590676150933" lon="7.992062059562273"><ele>419.0</ele><time>2026-05-02T14:22:09Z</time></trkpt><trkpt lat="44.396037970143134" lon="7.991797130217797"><ele>419.0</ele><time>2026-05-02T14:22:10Z</time></trkpt><trkpt lat="44.39618759872555" lon="7.991507754142312"><ele>419.0</ele><time>2026-05-02T14:22:11Z</time></trkpt><trkpt lat="44.39634897774052" lon="7.991220993386471"><ele>419.0</ele><time>2026-05-02T14:22:12Z</time></trkpt><trkpt lat="44.39649909263371" lon="7.990961676345478"><ele>418.66666666666663</ele><time>2026-05-02T14:22:13Z</time></trkpt><trkpt lat="44.39663449475228" lon="7.990719669066017"><ele>418.33333333333337</ele><time>2026-05-02T14:22:14Z</time></trkpt><trkpt lat="44.3967560328947" lon="7.990485810738225"><ele>418.0</ele><time>2026-05-02T14:22:15Z</time></trkpt><trkpt lat="44.39686578861922" lon="7.990256214382549"><ele>417.33333333333337</ele><time>2026-05-02T14:22:16Z</time></trkpt><trkpt lat="44.39696993506001" lon="7.99000621398071"><ele>416.66666666666663</ele><time>2026-05-02T14:22:17Z</time></trkpt><trkpt lat="44.39705889496464" lon="7.989724108699865"><ele>416.0</ele><time>2026-05-02T14:22:18Z</time></trkpt><trkpt lat="44.397143723605126" lon="7.9894013788504905"><ele>416.0</ele><time>2026-05-02T14:22:19Z</time></trkpt><trkpt lat="44.3972180253195" lon="7.9890454712101215"><ele>416.0</ele><time>2026-05-02T14:22:20Z</time></trkpt><trkpt lat="44.39728736010824" lon="7.988661896069346"><ele>415.5</ele><time>2026-05-02T14:22:21Z</time></trkpt><trkpt lat="44.39735684470818" lon="7.988255723957972"><ele>415.0</ele><time>2026-05-02T14:22:22Z</time></trkpt><trkpt lat="44.39742643328183" lon="7.987853022888081"><ele>416.0</ele><time>2026-05-02T14:22:23Z</time></trkpt><trkpt lat="44.39749765478732" lon="7.987441872729628"><ele>417.0</ele><time>2026-05-02T14:22:24Z</time></trkpt><trkpt lat="44.39757742780159" lon="7.987030838629234"><ele>419.0</ele><time>2026-05-02T14:22:25Z</time></trkpt><trkpt lat="44.39763912203371" lon="7.986655343268718"><ele>421.0</ele><time>2026-05-02T14:22:26Z</time></trkpt><trkpt lat="44.39770206402133" lon="7.986297526760633"><ele>421.0</ele><time>2026-05-02T14:22:27Z</time></trkpt><trkpt lat="44.39777130342866" lon="7.985904223949438"><ele>421.0</ele><time>2026-05-02T14:22:28Z</time></trkpt><trkpt lat="44.397848500593106" lon="7.98548010435655"><ele>420.5</ele><time>2026-05-02T14:22:29Z</time></trkpt><trkpt lat="44.39792540864299" lon="7.985071033794059"><ele>420.0</ele><time>2026-05-02T14:22:30Z</time></trkpt><trkpt lat="44.397990472494456" lon="7.98471022919546"><ele>418.5</ele><time>2026-05-02T14:22:31Z</time></trkpt><trkpt lat="44.39805452413659" lon="7.984369492235856"><ele>417.0</ele><time>2026-05-02T14:22:32Z</time></trkpt><trkpt lat="44.39811459440736" lon="7.984029491498326"><ele>417.0</ele><time>2026-05-02T14:22:33Z</time></trkpt><trkpt lat="44.39815759911788" lon="7.983672155777846"><ele>417.0</ele><time>2026-05-02T14:22:34Z</time></trkpt><trkpt lat="44.39818632439738" lon="7.983285628765626"><ele>417.0</ele><time>2026-05-02T14:22:35Z</time></trkpt><trkpt lat="44.398200577883" lon="7.9828791613446874"><ele>417.0</ele><time>2026-05-02T14:22:36Z</time></trkpt><trkpt lat="44.39821364424914" lon="7.982452730820351"><ele>417.0</ele><time>2026-05-02T14:22:37Z</time></trkpt><trkpt lat="44.39823089303919" lon="7.982017499860377"><ele>417.0</ele><time>2026-05-02T14:22:38Z</time></trkpt><trkpt lat="44.39825140701764" lon="7.981612276537836"><ele>417.5</ele><time>2026-05-02T14:22:39Z</time></trkpt><trkpt lat="44.39826858384781" lon="7.981256800520855"><ele>418.0</ele><time>2026-05-02T14:22:40Z</time></trkpt><trkpt lat="44.39827658572984" lon="7.980929696637957"><ele>418.0</ele><time>2026-05-02T14:22:41Z</time></trkpt><trkpt lat="44.39828764189692" lon="7.980636659445372"><ele>418.0</ele><time>2026-05-02T14:22:42Z</time></trkpt><trkpt lat="44.39830123373486" lon="7.980393443314581"><ele>418.0</ele><time>2026-05-02T14:22:43Z</time></trkpt><trkpt lat="44.398311364089864" lon="7.980170647077246"><ele>419.0</ele><time>2026-05-02T14:22:44Z</time></trkpt><trkpt lat="44.398319901091696" lon="7.979969498978069"><ele>420.0</ele><time>2026-05-02T14:22:45Z</time></trkpt><trkpt lat="44.39833277965003" lon="7.979784473728254"><ele>421.0</ele><time>2026-05-02T14:22:46Z</time></trkpt><trkpt lat="44.3983458662131" lon="7.979591657848025"><ele>422.0</ele><time>2026-05-02T14:22:47Z</time></trkpt><trkpt lat="44.39835773059562" lon="7.979415846999024"><ele>422.0</ele><time>2026-05-02T14:22:48Z</time></trkpt><trkpt lat="44.398363395317496" lon="7.979222820180511"><ele>422.0</ele><time>2026-05-02T14:22:49Z</time></trkpt><trkpt lat="44.39836872158776" lon="7.9790391858626295"><ele>422.0</ele><time>2026-05-02T14:22:50Z</time></trkpt><trkpt lat="44.39837080729487" lon="7.978853777421306"><ele>422.0</ele><time>2026-05-02T14:22:51Z</time></trkpt><trkpt lat="44.39839047189359" lon="7.978660010265999"><ele>422.5</ele><time>2026-05-02T14:22:52Z</time></trkpt><trkpt lat="44.39842115889089" lon="7.978467181100439"><ele>423.0</ele><time>2026-05-02T14:22:53Z</time></trkpt><trkpt lat="44.39846806122008" lon="7.9782775533162935"><ele>423.5</ele><time>2026-05-02T14:22:54Z</time></trkpt><trkpt lat="44.398546442594274" lon="7.978089730996606"><ele>424.0</ele><time>2026-05-02T14:22:55Z</time></trkpt><trkpt lat="44.39865364916527" lon="7.9779182123734795"><ele>424.0</ele><time>2026-05-02T14:22:56Z</time></trkpt><trkpt lat="44.39877304612665" lon="7.977778561861029"><ele>424.0</ele><time>2026-05-02T14:22:57Z</time></trkpt><trkpt lat="44.39892499207261" lon="7.977656354768062"><ele>424.0</ele><time>2026-05-02T14:22:58Z</time></trkpt><trkpt lat="44.39910744624258" lon="7.977538454269071"><ele>424.33333333333337</ele><time>2026-05-02T14:22:59Z</time></trkpt><trkpt lat="44.39930313147871" lon="7.977410780762735"><ele>424.66666666666663</ele><time>2026-05-02T14:23:00Z</time></trkpt><trkpt lat="44.39949015960297" lon="7.977284986681482"><ele>425.0</ele><time>2026-05-02T14:23:01Z</time></trkpt><trkpt lat="44.39965474133758" lon="7.977169863621507"><ele>423.66666666666663</ele><time>2026-05-02T14:23:02Z</time></trkpt><trkpt lat="44.39980928467251" lon="7.977063942604529"><ele>422.33333333333337</ele><time>2026-05-02T14:23:03Z</time></trkpt><trkpt lat="44.39994796501898" lon="7.97697216135659"><ele>421.0</ele><time>2026-05-02T14:23:04Z</time></trkpt><trkpt lat="44.400076503189105" lon="7.976891716675593"><ele>421.0</ele><time>2026-05-02T14:23:05Z</time></trkpt><trkpt lat="44.40019981500787" lon="7.976809999266201"><ele>421.0</ele><time>2026-05-02T14:23:06Z</time></trkpt><trkpt lat="44.400314231287304" lon="7.976723388603332"><ele>421.0</ele><time>2026-05-02T14:23:07Z</time></trkpt><trkpt lat="44.40041818735154" lon="7.976621985747587"><ele>421.0</ele><time>2026-05-02T14:23:08Z</time></trkpt><trkpt lat="44.400526387497685" lon="7.976469771624539"><ele>420.6666666666667</ele><time>2026-05-02T14:23:09Z</time></trkpt><trkpt lat="44.40064106690059" lon="7.976256997796619"><ele>420.33333333333337</ele><time>2026-05-02T14:23:10Z</time></trkpt><trkpt lat="44.400681518557704" lon="7.97606501110026"><ele>420.0</ele><time>2026-05-02T14:23:11Z</time></trkpt><trkpt lat="44.40074013161569" lon="7.9758054843056865"><ele>420.0</ele><time>2026-05-02T14:23:12Z</time></trkpt><trkpt lat="44.4008103911332" lon="7.975513986292594"><ele>420.0</ele><time>2026-05-02T14:23:13Z</time></trkpt><trkpt lat="44.40088149784924" lon="7.9752392400915495"><ele>420.0</ele><time>2026-05-02T14:23:14Z</time></trkpt><trkpt lat="44.40094151651566" lon="7.974994778158156"><ele>420.5</ele><time>2026-05-02T14:23:15Z</time></trkpt><trkpt lat="44.4009931725753" lon="7.974776907105466"><ele>421.0</ele><time>2026-05-02T14:23:16Z</time></trkpt><trkpt lat="44.401037081455456" lon="7.974589184047975"><ele>421.5</ele><time>2026-05-02T14:23:17Z</time></trkpt><trkpt lat="44.40107418890419" lon="7.9744383849155405"><ele>422.0</ele><time>2026-05-02T14:23:18Z</time></trkpt><trkpt lat="44.40110492175882" lon="7.974316726912393"><ele>421.99999999999994</ele><time>2026-05-02T14:23:19Z</time></trkpt><trkpt lat="44.40114185802178" lon="7.974192687555874"><ele>422.0</ele><time>2026-05-02T14:23:20Z</time></trkpt><trkpt lat="44.40116471699535" lon="7.974062129707016"><ele>422.0</ele><time>2026-05-02T14:23:21Z</time></trkpt><trkpt lat="44.401239944724665" lon="7.974003113198025"><ele>422.0</ele><time>2026-05-02T14:23:22Z</time></trkpt><trkpt lat="44.40127580315383" lon="7.973911797765062"><ele>421.99999999999994</ele><time>2026-05-02T14:23:23Z</time></trkpt><trkpt lat="44.40127279321518" lon="7.97380291253313"><ele>422.0</ele><time>2026-05-02T14:23:24Z</time></trkpt><trkpt lat="44.401234209972785" lon="7.973685072520504"><ele>422.5</ele><time>2026-05-02T14:23:25Z</time></trkpt><trkpt lat="44.40117465937865" lon="7.973547777226364"><ele>423.0</ele><time>2026-05-02T14:23:26Z</time></trkpt><trkpt lat="44.401147113247454" lon="7.973384081158934"><ele>423.5</ele><time>2026-05-02T14:23:27Z</time></trkpt><trkpt lat="44.4011634744409" lon="7.973193608820163"><ele>424.0</ele><time>2026-05-02T14:23:28Z</time></trkpt><trkpt lat="44.40119556421616" lon="7.972945316561469"><ele>424.0</ele><time>2026-05-02T14:23:29Z</time></trkpt><trkpt lat="44.40124338547798" lon="7.972650982677816"><ele>424.0</ele><time>2026-05-02T14:23:30Z</time></trkpt><trkpt lat="44.40130273744946" lon="7.972356737714568"><ele>424.0</ele><time>2026-05-02T14:23:31Z</time></trkpt><trkpt lat="44.40135205648367" lon="7.972094581279236"><ele>421.0</ele><time>2026-05-02T14:23:32Z</time></trkpt><trkpt lat="44.40139410554506" lon="7.971854263605864"><ele>418.0</ele><time>2026-05-02T14:23:33Z</time></trkpt><trkpt lat="44.40143240136074" lon="7.97162058952745"><ele>415.0</ele><time>2026-05-02T14:23:34Z</time></trkpt><trkpt lat="44.40147166703828" lon="7.971389929936061"><ele>414.6666666666667</ele><time>2026-05-02T14:23:35Z</time></trkpt><trkpt lat="44.401513717952874" lon="7.971167127073576"><ele>414.33333333333337</ele><time>2026-05-02T14:23:36Z</time></trkpt><trkpt lat="44.40155579560311" lon="7.970948093172479"><ele>414.0</ele><time>2026-05-02T14:23:37Z</time></trkpt><trkpt lat="44.401593166741414" lon="7.970734349039769"><ele>413.75</ele><time>2026-05-02T14:23:38Z</time></trkpt><trkpt lat="44.40163378901581" lon="7.970528612224519"><ele>413.5</ele><time>2026-05-02T14:23:39Z</time></trkpt><trkpt lat="44.40166764060082" lon="7.970338050187503"><ele>413.25</ele><time>2026-05-02T14:23:40Z</time></trkpt><trkpt lat="44.40169485439444" lon="7.970136010495666"><ele>413.0</ele><time>2026-05-02T14:23:41Z</time></trkpt><trkpt lat="44.401731263666754" lon="7.9699385419481965"><ele>412.25</ele><time>2026-05-02T14:23:42Z</time></trkpt><trkpt lat="44.401770885611924" lon="7.969758229941347"><ele>411.5</ele><time>2026-05-02T14:23:43Z</time></trkpt><trkpt lat="44.40180981110533" lon="7.969585734438302"><ele>410.75</ele><time>2026-05-02T14:23:44Z</time></trkpt><trkpt lat="44.401835615573624" lon="7.969413852283114"><ele>410.0</ele><time>2026-05-02T14:23:45Z</time></trkpt><trkpt lat="44.40184577716715" lon="7.969230354376308"><ele>409.75</ele><time>2026-05-02T14:23:46Z</time></trkpt><trkpt lat="44.40183745610282" lon="7.969023622766041"><ele>409.5</ele><time>2026-05-02T14:23:47Z</time></trkpt><trkpt lat="44.401817876232435" lon="7.968825755791384"><ele>409.25</ele><time>2026-05-02T14:23:48Z</time></trkpt><trkpt lat="44.401790030201504" lon="7.968631426164132"><ele>409.0</ele><time>2026-05-02T14:23:49Z</time></trkpt><trkpt lat="44.40173983027754" lon="7.9684281709302045"><ele>410.33333333333337</ele><time>2026-05-02T14:23:50Z</time></trkpt><trkpt lat="44.401657258106454" lon="7.9682177063785575"><ele>411.66666666666663</ele><time>2026-05-02T14:23:51Z</time></trkpt><trkpt lat="44.40158046281128" lon="7.9679889003920215"><ele>413.0</ele><time>2026-05-02T14:23:52Z</time></trkpt><trkpt lat="44.40150278943167" lon="7.9677588149257454"><ele>413.0</ele><time>2026-05-02T14:23:53Z</time></trkpt><trkpt lat="44.40142573741337" lon="7.967527105248582"><ele>413.0</ele><time>2026-05-02T14:23:54.017Z</time></trkpt><trkpt lat="44.40134899373545" lon="7.967278946157778"><ele>413.0</ele><time>2026-05-02T14:23:55.018Z</time></trkpt><trkpt lat="44.40127569730669" lon="7.9670217456049475"><ele>415.0</ele><time>2026-05-02T14:23:56.018Z</time></trkpt><trkpt lat="44.401209751914784" lon="7.9667544759703555"><ele>417.0</ele><time>2026-05-02T14:23:57.02Z</time></trkpt><trkpt lat="44.401143785025766" lon="7.966511123833751"><ele>419.0</ele><time>2026-05-02T14:23:58.015Z</time></trkpt><trkpt lat="44.4008394400214" lon="7.965615255636769"><ele>416.0</ele><time>2026-05-02T14:24:02Z</time></trkpt><trkpt lat="44.400840747612136" lon="7.965395014205498"><ele>413.0</ele><time>2026-05-02T14:24:03Z</time></trkpt><trkpt lat="44.40087820100558" lon="7.9652254002727165"><ele>410.0</ele><time>2026-05-02T14:24:04Z</time></trkpt><trkpt lat="44.40091023950604" lon="7.96501020076071"><ele>407.0</ele><time>2026-05-02T14:24:05Z</time></trkpt><trkpt lat="44.40095872483163" lon="7.964749184431973"><ele>398.0</ele><time>2026-05-02T14:24:06Z</time></trkpt><trkpt lat="44.40101310296656" lon="7.964327692353154"><ele>389.0</ele><time>2026-05-02T14:24:07Z</time></trkpt><trkpt lat="44.40106044661672" lon="7.964045273640307"><ele>385.0</ele><time>2026-05-02T14:24:08Z</time></trkpt><trkpt lat="44.40110057026427" lon="7.963754310374733"><ele>381.0</ele><time>2026-05-02T14:24:09Z</time></trkpt><trkpt lat="44.40114214089599" lon="7.963486684550851"><ele>377.0</ele><time>2026-05-02T14:24:10Z</time></trkpt><trkpt lat="44.40117968262535" lon="7.963236245902099"><ele>374.33333333333337</ele><time>2026-05-02T14:24:11Z</time></trkpt><trkpt lat="44.40121391625186" lon="7.963004305382326"><ele>371.6666666666667</ele><time>2026-05-02T14:24:12Z</time></trkpt><trkpt lat="44.40124598724527" lon="7.962793270744274"><ele>369.0</ele><time>2026-05-02T14:24:13Z</time></trkpt><trkpt lat="44.40128212781612" lon="7.962603703204469"><ele>369.75</ele><time>2026-05-02T14:24:14Z</time></trkpt><trkpt lat="44.40132821606009" lon="7.962427235688599"><ele>370.5</ele><time>2026-05-02T14:24:15Z</time></trkpt><trkpt lat="44.40139866499269" lon="7.96226071134145"><ele>371.25</ele><time>2026-05-02T14:24:16Z</time></trkpt><trkpt lat="44.401497028665595" lon="7.962110876979076"><ele>372.0</ele><time>2026-05-02T14:24:17Z</time></trkpt><trkpt lat="44.401621514703464" lon="7.961982408851665"><ele>372.0</ele><time>2026-05-02T14:24:18Z</time></trkpt><trkpt lat="44.40177998875914" lon="7.96186909313194"><ele>372.0</ele><time>2026-05-02T14:24:19Z</time></trkpt><trkpt lat="44.401977564874635" lon="7.961788079763199"><ele>372.0</ele><time>2026-05-02T14:24:20Z</time></trkpt><trkpt lat="44.40221621998627" lon="7.9617220579367185"><ele>365.5</ele><time>2026-05-02T14:24:21Z</time></trkpt><trkpt lat="44.40245849385138" lon="7.961654097478252"><ele>359.0</ele><time>2026-05-02T14:24:22Z</time></trkpt><trkpt lat="44.40266948427061" lon="7.961575599990382"><ele>359.0</ele><time>2026-05-02T14:24:23Z</time></trkpt><trkpt lat="44.402855823856235" lon="7.96150742160698"><ele>359.0</ele><time>2026-05-02T14:24:24Z</time></trkpt><trkpt lat="44.40302763060199" lon="7.96145536940078"><ele>359.0</ele><time>2026-05-02T14:24:25Z</time></trkpt><trkpt lat="44.40318774667464" lon="7.961414566935215"><ele>359.5</ele><time>2026-05-02T14:24:26Z</time></trkpt><trkpt lat="44.403331822765445" lon="7.961372261866766"><ele>360.0</ele><time>2026-05-02T14:24:27Z</time></trkpt><trkpt lat="44.403464039249165" lon="7.961325717209981"><ele>360.5</ele><time>2026-05-02T14:24:28Z</time></trkpt><trkpt lat="44.40358211991827" lon="7.9612788961144885"><ele>361.0</ele><time>2026-05-02T14:24:29Z</time></trkpt><trkpt lat="44.40369106712797" lon="7.961194937614017"><ele>361.0</ele><time>2026-05-02T14:24:30Z</time></trkpt><trkpt lat="44.40378725413025" lon="7.961060006127614"><ele>361.0</ele><time>2026-05-02T14:24:31Z</time></trkpt><trkpt lat="44.40387701542253" lon="7.9608972908328175"><ele>361.0</ele><time>2026-05-02T14:24:32Z</time></trkpt><trkpt lat="44.40395161309692" lon="7.960725333859508"><ele>361.0</ele><time>2026-05-02T14:24:33Z</time></trkpt><trkpt lat="44.40399527366844" lon="7.960543926874454"><ele>360.75</ele><time>2026-05-02T14:24:34Z</time></trkpt><trkpt lat="44.404015338302905" lon="7.960364012545901"><ele>360.5</ele><time>2026-05-02T14:24:35Z</time></trkpt><trkpt lat="44.40401271408205" lon="7.960197487149606"><ele>360.25</ele><time>2026-05-02T14:24:36Z</time></trkpt><trkpt lat="44.40399259716978" lon="7.960013304760459"><ele>360.0</ele><time>2026-05-02T14:24:37Z</time></trkpt><trkpt lat="44.403950747196866" lon="7.959833339253866"><ele>361.25</ele><time>2026-05-02T14:24:38Z</time></trkpt><trkpt lat="44.40389223868017" lon="7.9596682096442555"><ele>362.5</ele><time>2026-05-02T14:24:39Z</time></trkpt><trkpt lat="44.40381615043248" lon="7.959528389544969"><ele>363.75</ele><time>2026-05-02T14:24:40Z</time></trkpt><trkpt lat="44.40371967324298" lon="7.959411405664518"><ele>365.0</ele><time>2026-05-02T14:24:41Z</time></trkpt><trkpt lat="44.40360205947092" lon="7.959316490517601"><ele>367.0</ele><time>2026-05-02T14:24:42Z</time></trkpt><trkpt lat="44.40347228184678" lon="7.959255130527773"><ele>369.0</ele><time>2026-05-02T14:24:43Z</time></trkpt><trkpt lat="44.40332402076855" lon="7.959235517689289"><ele>371.0</ele><time>2026-05-02T14:24:44Z</time></trkpt><trkpt lat="44.40314345620304" lon="7.9592372647365455"><ele>373.33333333333337</ele><time>2026-05-02T14:24:45Z</time></trkpt><trkpt lat="44.4029383879001" lon="7.959260275611897"><ele>375.6666666666667</ele><time>2026-05-02T14:24:46Z</time></trkpt><trkpt lat="44.40274215088961" lon="7.959279952408095"><ele>378.0</ele><time>2026-05-02T14:24:47Z</time></trkpt><trkpt lat="44.40259702143149" lon="7.959280913406339"><ele>378.0</ele><time>2026-05-02T14:24:48Z</time></trkpt><trkpt lat="44.40247088873365" lon="7.959264894097254"><ele>378.0</ele><time>2026-05-02T14:24:49Z</time></trkpt><trkpt lat="44.40232041587819" lon="7.959222227525725"><ele>378.0</ele><time>2026-05-02T14:24:50Z</time></trkpt><trkpt lat="44.40213926982525" lon="7.959142361642114"><ele>384.0</ele><time>2026-05-02T14:24:51Z</time></trkpt><trkpt lat="44.40194003429223" lon="7.959032206142898"><ele>390.0</ele><time>2026-05-02T14:24:52Z</time></trkpt><trkpt lat="44.401741882322696" lon="7.958956420453938"><ele>396.0</ele><time>2026-05-02T14:24:53Z</time></trkpt><trkpt lat="44.401576023491394" lon="7.95889892358635"><ele>396.0</ele><time>2026-05-02T14:24:54Z</time></trkpt><trkpt lat="44.4014192408779" lon="7.958836560458332"><ele>396.0</ele><time>2026-05-02T14:24:55Z</time></trkpt><trkpt lat="44.401259161345585" lon="7.958761418085837"><ele>396.0</ele><time>2026-05-02T14:24:56Z</time></trkpt><trkpt lat="44.40111202577226" lon="7.958672678035543"><ele>396.33333333333337</ele><time>2026-05-02T14:24:57Z</time></trkpt><trkpt lat="44.400963681140645" lon="7.958549958084245"><ele>396.6666666666667</ele><time>2026-05-02T14:24:58Z</time></trkpt><trkpt lat="44.400791112970055" lon="7.958382068892798"><ele>397.0</ele><time>2026-05-02T14:24:59Z</time></trkpt><trkpt lat="44.40061324741885" lon="7.958194192417652"><ele>400.0</ele><time>2026-05-02T14:25:00Z</time></trkpt><trkpt lat="44.400429983138814" lon="7.958006226399932"><ele>403.0</ele><time>2026-05-02T14:25:01Z</time></trkpt><trkpt lat="44.40024185625087" lon="7.957814344387429"><ele>403.0</ele><time>2026-05-02T14:25:02Z</time></trkpt><trkpt lat="44.40004937051762" lon="7.957626252272469"><ele>403.0</ele><time>2026-05-02T14:25:03Z</time></trkpt><trkpt lat="44.399862959874206" lon="7.957431751443076"><ele>404.5</ele><time>2026-05-02T14:25:04Z</time></trkpt><trkpt lat="44.39966772564219" lon="7.957228491563691"><ele>406.0</ele><time>2026-05-02T14:25:05Z</time></trkpt><trkpt lat="44.3994723973606" lon="7.957031349476926"><ele>407.0</ele><time>2026-05-02T14:25:06Z</time></trkpt><trkpt lat="44.39928686168073" lon="7.956844789953174"><ele>408.0</ele><time>2026-05-02T14:25:07Z</time></trkpt><trkpt lat="44.39909814089963" lon="7.956654337605133"><ele>408.0</ele><time>2026-05-02T14:25:08Z</time></trkpt><trkpt lat="44.39890301408907" lon="7.956452138597505"><ele>408.0</ele><time>2026-05-02T14:25:09Z</time></trkpt><trkpt lat="44.39870748521966" lon="7.956248830852362"><ele>408.0</ele><time>2026-05-02T14:25:10Z</time></trkpt><trkpt lat="44.39850829138053" lon="7.956042493143823"><ele>408.0</ele><time>2026-05-02T14:25:11Z</time></trkpt><trkpt lat="44.39829336162701" lon="7.955826721834552"><ele>408.0</ele><time>2026-05-02T14:25:12Z</time></trkpt><trkpt lat="44.39809382189264" lon="7.955605856090434"><ele>408.0</ele><time>2026-05-02T14:25:13Z</time></trkpt><trkpt lat="44.39787530956578" lon="7.955376079553148"><ele>408.0</ele><time>2026-05-02T14:25:14Z</time></trkpt><trkpt lat="44.397652048208286" lon="7.955145952443894"><ele>408.0</ele><time>2026-05-02T14:25:15Z</time></trkpt><trkpt lat="44.39742558377572" lon="7.95491435540429"><ele>408.5</ele><time>2026-05-02T14:25:16Z</time></trkpt><trkpt lat="44.397197085527566" lon="7.954680375949255"><ele>409.0</ele><time>2026-05-02T14:25:17Z</time></trkpt><trkpt lat="44.39696053668928" lon="7.9544474582294"><ele>409.5</ele><time>2026-05-02T14:25:18Z</time></trkpt><trkpt lat="44.39672906908234" lon="7.954212058498127"><ele>410.0</ele><time>2026-05-02T14:25:19Z</time></trkpt><trkpt lat="44.3964897571833" lon="7.953967443133787"><ele>410.5</ele><time>2026-05-02T14:25:20Z</time></trkpt><trkpt lat="44.396252410423315" lon="7.953722356348847"><ele>411.0</ele><time>2026-05-02T14:25:21Z</time></trkpt><trkpt lat="44.396021796514134" lon="7.953488585845601"><ele>411.0</ele><time>2026-05-02T14:25:22Z</time></trkpt><trkpt lat="44.39578959791838" lon="7.953255862657201"><ele>411.0</ele><time>2026-05-02T14:25:23Z</time></trkpt><trkpt lat="44.395559477627565" lon="7.9530193300218235"><ele>411.5</ele><time>2026-05-02T14:25:24Z</time></trkpt><trkpt lat="44.39533514097049" lon="7.952783433858618"><ele>412.0</ele><time>2026-05-02T14:25:25Z</time></trkpt><trkpt lat="44.39510949039974" lon="7.9525588448590225"><ele>411.5</ele><time>2026-05-02T14:25:26Z</time></trkpt><trkpt lat="44.39488107895538" lon="7.952331099119373"><ele>411.0</ele><time>2026-05-02T14:25:27Z</time></trkpt><trkpt lat="44.394648890069895" lon="7.952101567959812"><ele>411.0</ele><time>2026-05-02T14:25:28Z</time></trkpt><trkpt lat="44.39441989049635" lon="7.951868853859627"><ele>411.0</ele><time>2026-05-02T14:25:29Z</time></trkpt><trkpt lat="44.39420372125768" lon="7.951645544379617"><ele>410.5</ele><time>2026-05-02T14:25:30Z</time></trkpt><trkpt lat="44.39399225129223" lon="7.951428111945407"><ele>410.0</ele><time>2026-05-02T14:25:31Z</time></trkpt><trkpt lat="44.393791496447456" lon="7.951216067011371"><ele>411.5</ele><time>2026-05-02T14:25:32Z</time></trkpt><trkpt lat="44.39360354823717" lon="7.951013743864439"><ele>413.0</ele><time>2026-05-02T14:25:33Z</time></trkpt><trkpt lat="44.39340715150407" lon="7.95080673816053"><ele>413.0</ele><time>2026-05-02T14:25:34Z</time></trkpt><trkpt lat="44.39320318515369" lon="7.950607211964241"><ele>413.0</ele><time>2026-05-02T14:25:35Z</time></trkpt><trkpt lat="44.3930127058689" lon="7.950413110614662"><ele>413.0</ele><time>2026-05-02T14:25:36Z</time></trkpt><trkpt lat="44.392821144968686" lon="7.950224135574995"><ele>413.0</ele><time>2026-05-02T14:25:37Z</time></trkpt><trkpt lat="44.392611725169964" lon="7.95001541107176"><ele>413.0</ele><time>2026-05-02T14:25:38Z</time></trkpt><trkpt lat="44.39241153764682" lon="7.949791443333811"><ele>413.0</ele><time>2026-05-02T14:25:39Z</time></trkpt><trkpt lat="44.39222643559536" lon="7.949588306464733"><ele>414.0</ele><time>2026-05-02T14:25:40Z</time></trkpt><trkpt lat="44.39204032652608" lon="7.9494022946010325"><ele>415.0</ele><time>2026-05-02T14:25:41Z</time></trkpt><trkpt lat="44.39185313627271" lon="7.949207356079083"><ele>415.0</ele><time>2026-05-02T14:25:42Z</time></trkpt><trkpt lat="44.3916781163132" lon="7.949041462648957"><ele>415.0</ele><time>2026-05-02T14:25:43Z</time></trkpt><trkpt lat="44.391521354370994" lon="7.948886792394875"><ele>415.0</ele><time>2026-05-02T14:25:44Z</time></trkpt><trkpt lat="44.391378826591996" lon="7.948739134545452"><ele>416.0</ele><time>2026-05-02T14:25:45Z</time></trkpt><trkpt lat="44.391230539427895" lon="7.948587355704322"><ele>417.0</ele><time>2026-05-02T14:25:46Z</time></trkpt><trkpt lat="44.391080427375094" lon="7.948427419443156"><ele>418.0</ele><time>2026-05-02T14:25:47Z</time></trkpt><trkpt lat="44.39092847666589" lon="7.948270801451904"><ele>418.0</ele><time>2026-05-02T14:25:48Z</time></trkpt><trkpt lat="44.3907800291694" lon="7.948123230106961"><ele>418.0</ele><time>2026-05-02T14:25:49Z</time></trkpt><trkpt lat="44.39063674562403" lon="7.9479748192179605"><ele>418.0</ele><time>2026-05-02T14:25:50Z</time></trkpt><trkpt lat="44.39050703304662" lon="7.947829477962233"><ele>419.0</ele><time>2026-05-02T14:25:51Z</time></trkpt><trkpt lat="44.39039285622588" lon="7.9476793799874486"><ele>420.0</ele><time>2026-05-02T14:25:52Z</time></trkpt><trkpt lat="44.39028047401318" lon="7.947505566780519"><ele>421.0</ele><time>2026-05-02T14:25:53Z</time></trkpt><trkpt lat="44.39017848356836" lon="7.947318100040036"><ele>421.0</ele><time>2026-05-02T14:25:54Z</time></trkpt><trkpt lat="44.390075119525186" lon="7.947109420376565"><ele>421.0</ele><time>2026-05-02T14:25:55Z</time></trkpt><trkpt lat="44.389962983341135" lon="7.946899206469348"><ele>421.0</ele><time>2026-05-02T14:25:56Z</time></trkpt><trkpt lat="44.38984269305574" lon="7.946665946282136"><ele>420.0</ele><time>2026-05-02T14:25:57Z</time></trkpt><trkpt lat="44.389695110216834" lon="7.94638990323157"><ele>419.0</ele><time>2026-05-02T14:25:58Z</time></trkpt><trkpt lat="44.389557407337605" lon="7.946095073878427"><ele>420.5</ele><time>2026-05-02T14:25:59Z</time></trkpt><trkpt lat="44.38941644083415" lon="7.945795454328545"><ele>422.0</ele><time>2026-05-02T14:26:00Z</time></trkpt><trkpt lat="44.38926418392328" lon="7.945496402977678"><ele>422.0</ele><time>2026-05-02T14:26:01Z</time></trkpt><trkpt lat="44.389107409806485" lon="7.945195812628864"><ele>422.0</ele><time>2026-05-02T14:26:02Z</time></trkpt><trkpt lat="44.388950761958355" lon="7.944893868970385"><ele>424.0</ele><time>2026-05-02T14:26:03Z</time></trkpt><trkpt lat="44.388791475790065" lon="7.944598117180933"><ele>426.0</ele><time>2026-05-02T14:26:04Z</time></trkpt><trkpt lat="44.3886364091475" lon="7.944287517918345"><ele>424.5</ele><time>2026-05-02T14:26:05Z</time></trkpt><trkpt lat="44.38848287188477" lon="7.943984525369262"><ele>423.0</ele><time>2026-05-02T14:26:06Z</time></trkpt><trkpt lat="44.38834126399001" lon="7.943703364319175"><ele>423.0</ele><time>2026-05-02T14:26:07Z</time></trkpt><trkpt lat="44.38820921219267" lon="7.9434418559556805"><ele>423.0</ele><time>2026-05-02T14:26:08Z</time></trkpt><trkpt lat="44.38807606470075" lon="7.943183791181786"><ele>423.5</ele><time>2026-05-02T14:26:09Z</time></trkpt><trkpt lat="44.387944467758174" lon="7.942926378773032"><ele>424.0</ele><time>2026-05-02T14:26:10Z</time></trkpt><trkpt lat="44.3878177050454" lon="7.942667184525768"><ele>423.6666666666667</ele><time>2026-05-02T14:26:11Z</time></trkpt><trkpt lat="44.38769160663135" lon="7.942413223373935"><ele>423.33333333333337</ele><time>2026-05-02T14:26:12Z</time></trkpt><trkpt lat="44.387567888517786" lon="7.942169136682813"><ele>423.0</ele><time>2026-05-02T14:26:13Z</time></trkpt><trkpt lat="44.38744473085353" lon="7.941929637386795"><ele>423.0</ele><time>2026-05-02T14:26:14Z</time></trkpt><trkpt lat="44.38733004430985" lon="7.941701446108737"><ele>423.0</ele><time>2026-05-02T14:26:15Z</time></trkpt><trkpt lat="44.387213910751846" lon="7.941481889494637"><ele>423.0</ele><time>2026-05-02T14:26:16Z</time></trkpt><trkpt lat="44.38709880773319" lon="7.941259156510477"><ele>423.0</ele><time>2026-05-02T14:26:17Z</time></trkpt><trkpt lat="44.386984474114094" lon="7.941027782411108"><ele>423.0</ele><time>2026-05-02T14:26:18Z</time></trkpt><trkpt lat="44.38686719578442" lon="7.940794154213706"><ele>423.0</ele><time>2026-05-02T14:26:19Z</time></trkpt><trkpt lat="44.38674421746327" lon="7.940554140879218"><ele>422.5</ele><time>2026-05-02T14:26:20Z</time></trkpt><trkpt lat="44.38661443081265" lon="7.940300752446985"><ele>422.0</ele><time>2026-05-02T14:26:21Z</time></trkpt><trkpt lat="44.386482438451445" lon="7.9400410115008"><ele>421.5</ele><time>2026-05-02T14:26:22Z</time></trkpt><trkpt lat="44.38634635155241" lon="7.939768553919113"><ele>421.0</ele><time>2026-05-02T14:26:23Z</time></trkpt><trkpt lat="44.3861939302177" lon="7.939466044664592"><ele>422.0</ele><time>2026-05-02T14:26:24Z</time></trkpt><trkpt lat="44.38603109426223" lon="7.939145406830539"><ele>423.0</ele><time>2026-05-02T14:26:25Z</time></trkpt><trkpt lat="44.38585926272736" lon="7.938814206626848"><ele>423.0</ele><time>2026-05-02T14:26:26Z</time></trkpt><trkpt lat="44.38568573510827" lon="7.9384740763277355"><ele>423.0</ele><time>2026-05-02T14:26:27Z</time></trkpt><trkpt lat="44.385511431889256" lon="7.938125155740888"><ele>423.5</ele><time>2026-05-02T14:26:28Z</time></trkpt><trkpt lat="44.38533864239945" lon="7.937785015553765"><ele>424.0</ele><time>2026-05-02T14:26:29Z</time></trkpt><trkpt lat="44.38516643298509" lon="7.937453006873544"><ele>424.0</ele><time>2026-05-02T14:26:30Z</time></trkpt><trkpt lat="44.384997665404676" lon="7.937118423536104"><ele>424.0</ele><time>2026-05-02T14:26:31Z</time></trkpt><trkpt lat="44.38483652701412" lon="7.936792172072215"><ele>425.5</ele><time>2026-05-02T14:26:32Z</time></trkpt><trkpt lat="44.384674380624055" lon="7.936466045389435"><ele>427.0</ele><time>2026-05-02T14:26:33Z</time></trkpt><trkpt lat="44.38450870010268" lon="7.936132622235757"><ele>427.5</ele><time>2026-05-02T14:26:34Z</time></trkpt><trkpt lat="44.384335260875126" lon="7.935796109732173"><ele>428.0</ele><time>2026-05-02T14:26:35Z</time></trkpt><trkpt lat="44.384157569992716" lon="7.93545111927185"><ele>428.0</ele><time>2026-05-02T14:26:36Z</time></trkpt><trkpt lat="44.38399179356371" lon="7.935122603355733"><ele>428.0</ele><time>2026-05-02T14:26:37Z</time></trkpt><trkpt lat="44.383833460060686" lon="7.9348086265392785"><ele>428.5</ele><time>2026-05-02T14:26:38Z</time></trkpt><trkpt lat="44.38367570094463" lon="7.934494558830271"><ele>429.0</ele><time>2026-05-02T14:26:39Z</time></trkpt><trkpt lat="44.38351160426039" lon="7.934175083504882"><ele>429.0</ele><time>2026-05-02T14:26:40Z</time></trkpt><trkpt lat="44.383353523950355" lon="7.933869389020084"><ele>429.0</ele><time>2026-05-02T14:26:41Z</time></trkpt><trkpt lat="44.38320786477029" lon="7.933583979931502"><ele>427.5</ele><time>2026-05-02T14:26:42Z</time></trkpt><trkpt lat="44.383070418816594" lon="7.933319549408075"><ele>426.0</ele><time>2026-05-02T14:26:43Z</time></trkpt><trkpt lat="44.382947167135555" lon="7.933070569957484"><ele>426.66666666666663</ele><time>2026-05-02T14:26:44Z</time></trkpt><trkpt lat="44.38283302126211" lon="7.932843253185911"><ele>427.3333333333333</ele><time>2026-05-02T14:26:45Z</time></trkpt><trkpt lat="44.38271244127549" lon="7.932604025303157"><ele>428.0</ele><time>2026-05-02T14:26:46Z</time></trkpt><trkpt lat="44.38259884120929" lon="7.9323782200653"><ele>428.0</ele><time>2026-05-02T14:26:47Z</time></trkpt><trkpt lat="44.38249083961496" lon="7.932163770872121"><ele>428.0</ele><time>2026-05-02T14:26:48Z</time></trkpt><trkpt lat="44.38236841401953" lon="7.931926808107132"><ele>428.0</ele><time>2026-05-02T14:26:49Z</time></trkpt><trkpt lat="44.382218103866855" lon="7.93164740080258"><ele>429.0</ele><time>2026-05-02T14:26:50Z</time></trkpt><trkpt lat="44.382068376109466" lon="7.9313303323882485"><ele>430.0</ele><time>2026-05-02T14:26:51Z</time></trkpt><trkpt lat="44.38191089901342" lon="7.931021864905775"><ele>429.5</ele><time>2026-05-02T14:26:52Z</time></trkpt><trkpt lat="44.38176264488478" lon="7.9307509826434766"><ele>429.0</ele><time>2026-05-02T14:26:53Z</time></trkpt><trkpt lat="44.38163031750036" lon="7.930471718696702"><ele>429.0</ele><time>2026-05-02T14:26:54Z</time></trkpt><trkpt lat="44.381479639825244" lon="7.930178988724908"><ele>429.0</ele><time>2026-05-02T14:26:55Z</time></trkpt><trkpt lat="44.381321545505294" lon="7.929873146723056"><ele>430.0</ele><time>2026-05-02T14:26:56Z</time></trkpt><trkpt lat="44.38116827102387" lon="7.92957287731645"><ele>431.0</ele><time>2026-05-02T14:26:57Z</time></trkpt><trkpt lat="44.38101452509375" lon="7.9292717561284"><ele>430.5</ele><time>2026-05-02T14:26:58Z</time></trkpt><trkpt lat="44.38085763259473" lon="7.928972363323781"><ele>430.0</ele><time>2026-05-02T14:26:59Z</time></trkpt><trkpt lat="44.380688382901646" lon="7.928661414555642"><ele>432.0</ele><time>2026-05-02T14:27:00Z</time></trkpt><trkpt lat="44.38051223073522" lon="7.928348288847475"><ele>434.0</ele><time>2026-05-02T14:27:01Z</time></trkpt><trkpt lat="44.380338215830854" lon="7.928038087187818"><ele>434.0</ele><time>2026-05-02T14:27:02Z</time></trkpt><trkpt lat="44.38015651632965" lon="7.927722029645732"><ele>434.0</ele><time>2026-05-02T14:27:03Z</time></trkpt><trkpt lat="44.37997588282357" lon="7.927410151125166"><ele>434.0</ele><time>2026-05-02T14:27:04Z</time></trkpt><trkpt lat="44.379805726274476" lon="7.927105697970641"><ele>434.0</ele><time>2026-05-02T14:27:05Z</time></trkpt><trkpt lat="44.37963343764866" lon="7.92679795028154"><ele>433.5</ele><time>2026-05-02T14:27:06Z</time></trkpt><trkpt lat="44.379456214513354" lon="7.926485020897943"><ele>433.0</ele><time>2026-05-02T14:27:07Z</time></trkpt><trkpt lat="44.3792764755384" lon="7.926166723673275"><ele>434.0</ele><time>2026-05-02T14:27:08Z</time></trkpt><trkpt lat="44.379082859586354" lon="7.925822058491445"><ele>435.0</ele><time>2026-05-02T14:27:09Z</time></trkpt><trkpt lat="44.378878076411546" lon="7.9254572786698025"><ele>435.0</ele><time>2026-05-02T14:27:10Z</time></trkpt><trkpt lat="44.378674477253035" lon="7.925095368357978"><ele>435.0</ele><time>2026-05-02T14:27:11Z</time></trkpt><trkpt lat="44.378477767221675" lon="7.924746097539038"><ele>435.0</ele><time>2026-05-02T14:27:12Z</time></trkpt><trkpt lat="44.37828551753224" lon="7.924406040150039"><ele>435.0</ele><time>2026-05-02T14:27:13Z</time></trkpt><trkpt lat="44.37809705054612" lon="7.924072440001032"><ele>436.0</ele><time>2026-05-02T14:27:14Z</time></trkpt><trkpt lat="44.37791476042617" lon="7.923747044658928"><ele>437.0</ele><time>2026-05-02T14:27:15Z</time></trkpt><trkpt lat="44.377735909292404" lon="7.92342839130967"><ele>436.5</ele><time>2026-05-02T14:27:16Z</time></trkpt><trkpt lat="44.37757244515444" lon="7.9231324807235195"><ele>436.0</ele><time>2026-05-02T14:27:17Z</time></trkpt><trkpt lat="44.37740944590606" lon="7.922844356789754"><ele>435.5</ele><time>2026-05-02T14:27:18Z</time></trkpt><trkpt lat="44.37724025477143" lon="7.9225479970467925"><ele>435.0</ele><time>2026-05-02T14:27:19Z</time></trkpt><trkpt lat="44.37707160037052" lon="7.922246962977899"><ele>436.0</ele><time>2026-05-02T14:27:20Z</time></trkpt><trkpt lat="44.376899477716975" lon="7.921944460249657"><ele>437.0</ele><time>2026-05-02T14:27:21Z</time></trkpt><trkpt lat="44.37671902994614" lon="7.921625421641275"><ele>437.0</ele><time>2026-05-02T14:27:22Z</time></trkpt><trkpt lat="44.37652982805224" lon="7.921291205143427"><ele>437.0</ele><time>2026-05-02T14:27:23Z</time></trkpt><trkpt lat="44.37634054913802" lon="7.920958765517173"><ele>436.0</ele><time>2026-05-02T14:27:24Z</time></trkpt><trkpt lat="44.37615407394326" lon="7.920629695342047"><ele>435.0</ele><time>2026-05-02T14:27:25Z</time></trkpt><trkpt lat="44.37596922388281" lon="7.920312327273341"><ele>433.5</ele><time>2026-05-02T14:27:26Z</time></trkpt><trkpt lat="44.375793783779415" lon="7.920009070829085"><ele>432.0</ele><time>2026-05-02T14:27:27Z</time></trkpt><trkpt lat="44.37563019231512" lon="7.9197030789032095"><ele>432.5</ele><time>2026-05-02T14:27:28Z</time></trkpt><trkpt lat="44.375465237208225" lon="7.9194128476087915"><ele>433.0</ele><time>2026-05-02T14:27:29Z</time></trkpt><trkpt lat="44.37530914878898" lon="7.919130810675073"><ele>433.0</ele><time>2026-05-02T14:27:30Z</time></trkpt><trkpt lat="44.375159991576766" lon="7.918848296549893"><ele>433.0</ele><time>2026-05-02T14:27:31Z</time></trkpt><trkpt lat="44.375011068201744" lon="7.918559372670723"><ele>428.0</ele><time>2026-05-02T14:27:32Z</time></trkpt><trkpt lat="44.37486610093186" lon="7.918264271007367"><ele>423.0</ele><time>2026-05-02T14:27:33Z</time></trkpt><trkpt lat="44.37472589628803" lon="7.917956669609291"><ele>429.5</ele><time>2026-05-02T14:27:34Z</time></trkpt><trkpt lat="44.37458830324142" lon="7.917651305628692"><ele>436.0</ele><time>2026-05-02T14:27:35Z</time></trkpt><trkpt lat="44.37446106080211" lon="7.917369304829899"><ele>436.0</ele><time>2026-05-02T14:27:36Z</time></trkpt><trkpt lat="44.37434670226375" lon="7.917114828746236"><ele>436.0</ele><time>2026-05-02T14:27:37Z</time></trkpt><trkpt lat="44.37424262072898" lon="7.916865700077474"><ele>436.0</ele><time>2026-05-02T14:27:38Z</time></trkpt><trkpt lat="44.3741437292664" lon="7.9166040238577695"><ele>433.0</ele><time>2026-05-02T14:27:39Z</time></trkpt><trkpt lat="44.374052994279396" lon="7.916318372569241"><ele>430.0</ele><time>2026-05-02T14:27:40Z</time></trkpt><trkpt lat="44.373965099003634" lon="7.915981127716733"><ele>431.5</ele><time>2026-05-02T14:27:41Z</time></trkpt><trkpt lat="44.37387655935591" lon="7.915599165315029"><ele>433.0</ele><time>2026-05-02T14:27:42Z</time></trkpt><trkpt lat="44.37379251704733" lon="7.915218459966199"><ele>432.0</ele><time>2026-05-02T14:27:43Z</time></trkpt><trkpt lat="44.37371659876012" lon="7.914869394221661"><ele>431.0</ele><time>2026-05-02T14:27:44Z</time></trkpt><trkpt lat="44.37364211996945" lon="7.914532082922205"><ele>429.5</ele><time>2026-05-02T14:27:45Z</time></trkpt><trkpt lat="44.373568108257714" lon="7.914181660196339"><ele>428.0</ele><time>2026-05-02T14:27:46Z</time></trkpt><trkpt lat="44.37348892628517" lon="7.913823747505993"><ele>428.0</ele><time>2026-05-02T14:27:47Z</time></trkpt><trkpt lat="44.373408507082914" lon="7.913469034180567"><ele>428.0</ele><time>2026-05-02T14:27:48Z</time></trkpt><trkpt lat="44.37332936119022" lon="7.913119021945696"><ele>426.0</ele><time>2026-05-02T14:27:49Z</time></trkpt><trkpt lat="44.37325598780417" lon="7.912775154645124"><ele>424.0</ele><time>2026-05-02T14:27:50Z</time></trkpt><trkpt lat="44.373181286583325" lon="7.912431273272334"><ele>423.0</ele><time>2026-05-02T14:27:51Z</time></trkpt><trkpt lat="44.37310415222516" lon="7.912091908278486"><ele>422.0</ele><time>2026-05-02T14:27:52Z</time></trkpt><trkpt lat="44.37303344382622" lon="7.911769228876218"><ele>421.5</ele><time>2026-05-02T14:27:53Z</time></trkpt><trkpt lat="44.37296282544668" lon="7.911438189947215"><ele>421.0</ele><time>2026-05-02T14:27:54Z</time></trkpt><trkpt lat="44.37288340397208" lon="7.91107644951097"><ele>420.0</ele><time>2026-05-02T14:27:55Z</time></trkpt><trkpt lat="44.37279796001464" lon="7.910689263065716"><ele>419.0</ele><time>2026-05-02T14:27:56Z</time></trkpt><trkpt lat="44.37271165381765" lon="7.91029646166687"><ele>419.5</ele><time>2026-05-02T14:27:57Z</time></trkpt><trkpt lat="44.37262365427362" lon="7.909900213232285"><ele>420.0</ele><time>2026-05-02T14:27:58Z</time></trkpt><trkpt lat="44.372545841004055" lon="7.909523400024998"><ele>422.0</ele><time>2026-05-02T14:27:59Z</time></trkpt><trkpt lat="44.37246992998715" lon="7.909159585966568"><ele>424.0</ele><time>2026-05-02T14:28:00Z</time></trkpt><trkpt lat="44.37239377001816" lon="7.908794981667252"><ele>424.0</ele><time>2026-05-02T14:28:01Z</time></trkpt><trkpt lat="44.37231415151352" lon="7.9084337356831"><ele>424.0</ele><time>2026-05-02T14:28:02Z</time></trkpt><trkpt lat="44.372236038037045" lon="7.908081167883956"><ele>429.0</ele><time>2026-05-02T14:28:03Z</time></trkpt><trkpt lat="44.372166352280736" lon="7.907761618026769"><ele>434.0</ele><time>2026-05-02T14:28:04Z</time></trkpt><trkpt lat="44.37210947003487" lon="7.907475323433133"><ele>434.0</ele><time>2026-05-02T14:28:05Z</time></trkpt><trkpt lat="44.37206163911492" lon="7.907213337208727"><ele>434.0</ele><time>2026-05-02T14:28:06Z</time></trkpt><trkpt lat="44.372029548003205" lon="7.906948690599522"><ele>434.0</ele><time>2026-05-02T14:28:07Z</time></trkpt><trkpt lat="44.3720224464991" lon="7.906677430771878"><ele>434.66666666666663</ele><time>2026-05-02T14:28:08Z</time></trkpt><trkpt lat="44.37204143105398" lon="7.906393622935466"><ele>435.33333333333337</ele><time>2026-05-02T14:28:09Z</time></trkpt><trkpt lat="44.37208505974968" lon="7.906118518726161"><ele>436.0</ele><time>2026-05-02T14:28:10Z</time></trkpt><trkpt lat="44.37213999559908" lon="7.905835363159649"><ele>438.5</ele><time>2026-05-02T14:28:11Z</time></trkpt><trkpt lat="44.37223268080856" lon="7.905534920913061"><ele>441.0</ele><time>2026-05-02T14:28:12Z</time></trkpt><trkpt lat="44.372349368459915" lon="7.905211023896822"><ele>441.5</ele><time>2026-05-02T14:28:13Z</time></trkpt><trkpt lat="44.37246123925072" lon="7.9048697673864785"><ele>442.0</ele><time>2026-05-02T14:28:14Z</time></trkpt><trkpt lat="44.372559753637915" lon="7.904576424798604"><ele>442.0</ele><time>2026-05-02T14:28:15Z</time></trkpt><trkpt lat="44.372656747202846" lon="7.904302448731809"><ele>442.0</ele><time>2026-05-02T14:28:16Z</time></trkpt><trkpt lat="44.37275599405502" lon="7.904016940251464"><ele>442.0</ele><time>2026-05-02T14:28:17Z</time></trkpt><trkpt lat="44.372839074908256" lon="7.90373214387297"><ele>442.0</ele><time>2026-05-02T14:28:18Z</time></trkpt><trkpt lat="44.372907499597886" lon="7.903447931484023"><ele>442.0</ele><time>2026-05-02T14:28:19Z</time></trkpt><trkpt lat="44.37294967179692" lon="7.90317414430367"><ele>442.0</ele><time>2026-05-02T14:28:20Z</time></trkpt><trkpt lat="44.372973105203805" lon="7.902891672767833"><ele>441.75</ele><time>2026-05-02T14:28:21Z</time></trkpt><trkpt lat="44.372983227712325" lon="7.902665136905041"><ele>441.5</ele><time>2026-05-02T14:28:22Z</time></trkpt><trkpt lat="44.37298213366902" lon="7.9024703905846785"><ele>441.25</ele><time>2026-05-02T14:28:23Z</time></trkpt><trkpt lat="44.37297612427574" lon="7.902281043159815"><ele>441.0</ele><time>2026-05-02T14:28:24Z</time></trkpt><trkpt lat="44.37296850236388" lon="7.902104614099518"><ele>441.4</ele><time>2026-05-02T14:28:25Z</time></trkpt><trkpt lat="44.372947589768096" lon="7.901954096993278"><ele>441.8</ele><time>2026-05-02T14:28:26Z</time></trkpt><trkpt lat="44.37292317572804" lon="7.901826631661883"><ele>442.19999999999993</ele><time>2026-05-02T14:28:27Z</time></trkpt><trkpt lat="44.37291636617215" lon="7.901677554825912"><ele>442.59999999999997</ele><time>2026-05-02T14:28:28Z</time></trkpt><trkpt lat="44.372943148253285" lon="7.901487546954513"><ele>443.0</ele><time>2026-05-02T14:28:29Z</time></trkpt><trkpt lat="44.37296913988641" lon="7.901304374598271"><ele>443.75</ele><time>2026-05-02T14:28:30Z</time></trkpt><trkpt lat="44.372990658746915" lon="7.901125491742521"><ele>444.5</ele><time>2026-05-02T14:28:31Z</time></trkpt><trkpt lat="44.37301834274535" lon="7.900934082532056"><ele>445.25</ele><time>2026-05-02T14:28:32Z</time></trkpt><trkpt lat="44.37305507146598" lon="7.900728207986876"><ele>446.0</ele><time>2026-05-02T14:28:33Z</time></trkpt><trkpt lat="44.37309626789046" lon="7.90052748168231"><ele>449.5</ele><time>2026-05-02T14:28:34Z</time></trkpt><trkpt lat="44.37315253808541" lon="7.90034140329177"><ele>453.0</ele><time>2026-05-02T14:28:35Z</time></trkpt><trkpt lat="44.37321700260141" lon="7.90017014095257"><ele>456.5</ele><time>2026-05-02T14:28:36Z</time></trkpt><trkpt lat="44.37327851974849" lon="7.900006529121726"><ele>460.0</ele><time>2026-05-02T14:28:37Z</time></trkpt><trkpt lat="44.373332695391056" lon="7.899855968239941"><ele>460.0</ele><time>2026-05-02T14:28:38Z</time></trkpt><trkpt lat="44.373392045146446" lon="7.8996856614962025"><ele>460.0</ele><time>2026-05-02T14:28:39Z</time></trkpt><trkpt lat="44.37344845486998" lon="7.899511379852588"><ele>460.0</ele><time>2026-05-02T14:28:40Z</time></trkpt><trkpt lat="44.373515910924915" lon="7.899330631089171"><ele>460.0</ele><time>2026-05-02T14:28:41Z</time></trkpt><trkpt lat="44.37360169513621" lon="7.899110225683395"><ele>458.0</ele><time>2026-05-02T14:28:42Z</time></trkpt><trkpt lat="44.3736806306118" lon="7.898883523535819"><ele>456.0</ele><time>2026-05-02T14:28:43Z</time></trkpt><trkpt lat="44.37375298227954" lon="7.89867614339347"><ele>454.0</ele><time>2026-05-02T14:28:44Z</time></trkpt><trkpt lat="44.37382158887816" lon="7.898489435697863"><ele>459.33333333333337</ele><time>2026-05-02T14:28:45Z</time></trkpt><trkpt lat="44.37388993744027" lon="7.898305084305125"><ele>464.66666666666663</ele><time>2026-05-02T14:28:46Z</time></trkpt><trkpt lat="44.37396132751273" lon="7.8981096669047615"><ele>470.0</ele><time>2026-05-02T14:28:47Z</time></trkpt><trkpt lat="44.37403747456381" lon="7.897912989113667"><ele>470.0</ele><time>2026-05-02T14:28:48Z</time></trkpt><trkpt lat="44.37412454085603" lon="7.897684867729417"><ele>470.0</ele><time>2026-05-02T14:28:49Z</time></trkpt><trkpt lat="44.3742172067529" lon="7.8974048574332265"><ele>470.0</ele><time>2026-05-02T14:28:50Z</time></trkpt><trkpt lat="44.37432634890869" lon="7.897084951695721"><ele>468.3333333333333</ele><time>2026-05-02T14:28:51Z</time></trkpt><trkpt lat="44.374428071033826" lon="7.896810152129083"><ele>466.66666666666663</ele><time>2026-05-02T14:28:52Z</time></trkpt><trkpt lat="44.37451703020021" lon="7.896583863661433"><ele>465.0</ele><time>2026-05-02T14:28:53Z</time></trkpt><trkpt lat="44.37460928796063" lon="7.896339687789166"><ele>466.66666666666663</ele><time>2026-05-02T14:28:54Z</time></trkpt><trkpt lat="44.374696488060714" lon="7.896099691034305"><ele>468.3333333333333</ele><time>2026-05-02T14:28:55Z</time></trkpt><trkpt lat="44.37478090909607" lon="7.895865766157467"><ele>470.0</ele><time>2026-05-02T14:28:56Z</time></trkpt><trkpt lat="44.37486386886028" lon="7.895637159610534"><ele>470.0</ele><time>2026-05-02T14:28:57Z</time></trkpt><trkpt lat="44.374950275300336" lon="7.895408593827188"><ele>470.0</ele><time>2026-05-02T14:28:58Z</time></trkpt><trkpt lat="44.3750302879622" lon="7.895187636017074"><ele>470.0</ele><time>2026-05-02T14:28:59Z</time></trkpt><trkpt lat="44.37511003351402" lon="7.894977177296347"><ele>469.5</ele><time>2026-05-02T14:29:00Z</time></trkpt><trkpt lat="44.37517811606935" lon="7.894788001034762"><ele>469.0</ele><time>2026-05-02T14:29:01Z</time></trkpt><trkpt lat="44.37523837104153" lon="7.894619184254047"><ele>468.5</ele><time>2026-05-02T14:29:02Z</time></trkpt><trkpt lat="44.375291507061256" lon="7.894449538001482"><ele>468.0</ele><time>2026-05-02T14:29:03Z</time></trkpt><trkpt lat="44.375315507350095" lon="7.894266300445677"><ele>467.0</ele><time>2026-05-02T14:29:04Z</time></trkpt><trkpt lat="44.37532208016603" lon="7.894086945645707"><ele>466.0</ele><time>2026-05-02T14:29:05Z</time></trkpt><trkpt lat="44.37530485164797" lon="7.89390625375909"><ele>465.0</ele><time>2026-05-02T14:29:06Z</time></trkpt><trkpt lat="44.37526507237994" lon="7.893717432138738"><ele>464.0</ele><time>2026-05-02T14:29:07Z</time></trkpt><trkpt lat="44.37520450279894" lon="7.893526916641409"><ele>464.66666666666663</ele><time>2026-05-02T14:29:08Z</time></trkpt><trkpt lat="44.37511156190219" lon="7.893336208707521"><ele>465.33333333333337</ele><time>2026-05-02T14:29:09Z</time></trkpt><trkpt lat="44.374982210828264" lon="7.8931304175154295"><ele>466.0</ele><time>2026-05-02T14:29:10Z</time></trkpt><trkpt lat="44.37482365161394" lon="7.892927083428438"><ele>465.0</ele><time>2026-05-02T14:29:11Z</time></trkpt><trkpt lat="44.374632108429374" lon="7.892668436638801"><ele>464.0</ele><time>2026-05-02T14:29:12Z</time></trkpt><trkpt lat="44.37443746276961" lon="7.892383513766401"><ele>464.0</ele><time>2026-05-02T14:29:13Z</time></trkpt><trkpt lat="44.374236019989006" lon="7.8921053558780345"><ele>464.0</ele><time>2026-05-02T14:29:14Z</time></trkpt><trkpt lat="44.37403042441553" lon="7.891809777735089"><ele>466.0</ele><time>2026-05-02T14:29:15Z</time></trkpt><trkpt lat="44.37383087777712" lon="7.89149984453641"><ele>468.0</ele><time>2026-05-02T14:29:16Z</time></trkpt><trkpt lat="44.37365524146794" lon="7.891275578206584"><ele>468.0</ele><time>2026-05-02T14:29:17Z</time></trkpt><trkpt lat="44.37350921529282" lon="7.891059288656908"><ele>468.0</ele><time>2026-05-02T14:29:18Z</time></trkpt><trkpt lat="44.37337980509212" lon="7.890866640479817"><ele>468.0</ele><time>2026-05-02T14:29:19Z</time></trkpt><trkpt lat="44.37326927194722" lon="7.890692885831116"><ele>468.25</ele><time>2026-05-02T14:29:20Z</time></trkpt><trkpt lat="44.373178041634915" lon="7.890562441628929"><ele>468.5</ele><time>2026-05-02T14:29:21Z</time></trkpt><trkpt lat="44.37309805155305" lon="7.890448661949046"><ele>468.75</ele><time>2026-05-02T14:29:22Z</time></trkpt><trkpt lat="44.373012115959746" lon="7.8903495532509496"><ele>469.0</ele><time>2026-05-02T14:29:23Z</time></trkpt><trkpt lat="44.372915387655055" lon="7.89023771867325"><ele>470.25</ele><time>2026-05-02T14:29:24Z</time></trkpt><trkpt lat="44.372820331311374" lon="7.89008331592003"><ele>471.5</ele><time>2026-05-02T14:29:25Z</time></trkpt><trkpt lat="44.37270701188504" lon="7.889962082752898"><ele>472.75</ele><time>2026-05-02T14:29:26Z</time></trkpt><trkpt lat="44.37260750296165" lon="7.889836056585937"><ele>474.0</ele><time>2026-05-02T14:29:27Z</time></trkpt><trkpt lat="44.372528294765466" lon="7.889687923679523"><ele>474.0</ele><time>2026-05-02T14:29:28Z</time></trkpt><trkpt lat="44.37244716514643" lon="7.889479476513725"><ele>474.0</ele><time>2026-05-02T14:29:29Z</time></trkpt><trkpt lat="44.37236291589405" lon="7.889193836423299"><ele>474.0</ele><time>2026-05-02T14:29:30Z</time></trkpt><trkpt lat="44.372261957440045" lon="7.888860491126971"><ele>473.5</ele><time>2026-05-02T14:29:31Z</time></trkpt><trkpt lat="44.372158934687164" lon="7.8885069685092155"><ele>473.0</ele><time>2026-05-02T14:29:32Z</time></trkpt><trkpt lat="44.37205344166328" lon="7.888166232468204"><ele>473.66666666666663</ele><time>2026-05-02T14:29:33Z</time></trkpt><trkpt lat="44.37195725617885" lon="7.887857152627617"><ele>474.33333333333337</ele><time>2026-05-02T14:29:34Z</time></trkpt><trkpt lat="44.3718781608649" lon="7.88759428332725"><ele>475.0</ele><time>2026-05-02T14:29:35Z</time></trkpt><trkpt lat="44.371807922432176" lon="7.8873606456330645"><ele>476.33333333333337</ele><time>2026-05-02T14:29:36Z</time></trkpt><trkpt lat="44.37173003326467" lon="7.887145868013172"><ele>477.66666666666663</ele><time>2026-05-02T14:29:37Z</time></trkpt><trkpt lat="44.371628922918525" lon="7.886938468256759"><ele>479.0</ele><time>2026-05-02T14:29:38Z</time></trkpt><trkpt lat="44.37152040252462" lon="7.886746904415358"><ele>478.3333333333333</ele><time>2026-05-02T14:29:39Z</time></trkpt><trkpt lat="44.371392748554825" lon="7.886575213011373"><ele>477.66666666666663</ele><time>2026-05-02T14:29:40Z</time></trkpt><trkpt lat="44.37121785286602" lon="7.886392447042129"><ele>477.0</ele><time>2026-05-02T14:29:41Z</time></trkpt><trkpt lat="44.37100455017984" lon="7.886200131010234"><ele>477.0</ele><time>2026-05-02T14:29:42Z</time></trkpt><trkpt lat="44.37078262483589" lon="7.885993275098401"><ele>477.0</ele><time>2026-05-02T14:29:43Z</time></trkpt><trkpt lat="44.37056612979409" lon="7.885787810042559"><ele>481.5</ele><time>2026-05-02T14:29:44Z</time></trkpt><trkpt lat="44.37036378112896" lon="7.885591072629653"><ele>486.0</ele><time>2026-05-02T14:29:45Z</time></trkpt><trkpt lat="44.37017021862172" lon="7.885410229769717"><ele>486.0</ele><time>2026-05-02T14:29:46Z</time></trkpt><trkpt lat="44.369993111937916" lon="7.885239163200808"><ele>486.0</ele><time>2026-05-02T14:29:47Z</time></trkpt><trkpt lat="44.369836632902626" lon="7.885083954041415"><ele>486.0</ele><time>2026-05-02T14:29:48Z</time></trkpt><trkpt lat="44.3696855475075" lon="7.884930534186876"><ele>488.0</ele><time>2026-05-02T14:29:49Z</time></trkpt><trkpt lat="44.36954209898817" lon="7.884788724797842"><ele>490.0</ele><time>2026-05-02T14:29:50Z</time></trkpt><trkpt lat="44.36941182216056" lon="7.884602926736538"><ele>492.0</ele><time>2026-05-02T14:29:51Z</time></trkpt><trkpt lat="44.36926530797932" lon="7.884411017060409"><ele>496.33333333333337</ele><time>2026-05-02T14:29:52Z</time></trkpt><trkpt lat="44.369115244649585" lon="7.884207001279091"><ele>500.6666666666667</ele><time>2026-05-02T14:29:53Z</time></trkpt><trkpt lat="44.36897209201072" lon="7.884035650969273"><ele>505.0</ele><time>2026-05-02T14:29:54Z</time></trkpt><trkpt lat="44.36886589263022" lon="7.883883142077565"><ele>504.0</ele><time>2026-05-02T14:29:55Z</time></trkpt><trkpt lat="44.36878331156999" lon="7.883759332909196"><ele>503.0</ele><time>2026-05-02T14:29:56Z</time></trkpt><trkpt lat="44.368705056778744" lon="7.88362527065388"><ele>502.0</ele><time>2026-05-02T14:29:57Z</time></trkpt><trkpt lat="44.368620630637245" lon="7.883486338563999"><ele>501.0</ele><time>2026-05-02T14:29:58Z</time></trkpt><trkpt lat="44.368535789277225" lon="7.883332194587329"><ele>501.0</ele><time>2026-05-02T14:29:59Z</time></trkpt><trkpt lat="44.36845081443242" lon="7.883149746017076"><ele>501.0</ele><time>2026-05-02T14:30:00Z</time></trkpt><trkpt lat="44.36836335800138" lon="7.882923614283882"><ele>501.0</ele><time>2026-05-02T14:30:01Z</time></trkpt><trkpt lat="44.368286511891775" lon="7.88269903913115"><ele>504.0</ele><time>2026-05-02T14:30:02Z</time></trkpt><trkpt lat="44.36822233213561" lon="7.882487417450746"><ele>507.0</ele><time>2026-05-02T14:30:03Z</time></trkpt><trkpt lat="44.368163160543" lon="7.882297381864231"><ele>510.0</ele><time>2026-05-02T14:30:04Z</time></trkpt><trkpt lat="44.3681081417736" lon="7.882116026314646"><ele>510.0</ele><time>2026-05-02T14:30:05Z</time></trkpt><trkpt lat="44.36806595269848" lon="7.881936193671403"><ele>510.0</ele><time>2026-05-02T14:30:06Z</time></trkpt><trkpt lat="44.36803496061779" lon="7.881752080145738"><ele>510.0</ele><time>2026-05-02T14:30:07Z</time></trkpt><trkpt lat="44.36802281696502" lon="7.881559442362652"><ele>510.0</ele><time>2026-05-02T14:30:08Z</time></trkpt><trkpt lat="44.36803938209553" lon="7.88135505667506"><ele>512.3333333333334</ele><time>2026-05-02T14:30:09Z</time></trkpt><trkpt lat="44.36808714223581" lon="7.88117045612855"><ele>514.6666666666667</ele><time>2026-05-02T14:30:10Z</time></trkpt><trkpt lat="44.368168447118066" lon="7.881005786372958"><ele>517.0</ele><time>2026-05-02T14:30:11Z</time></trkpt><trkpt lat="44.36828597532719" lon="7.8808379473114405"><ele>517.0</ele><time>2026-05-02T14:30:12Z</time></trkpt><trkpt lat="44.368408399905796" lon="7.880641128193332"><ele>517.0</ele><time>2026-05-02T14:30:13Z</time></trkpt><trkpt lat="44.36855275067112" lon="7.88045028440605"><ele>517.0</ele><time>2026-05-02T14:30:14Z</time></trkpt><trkpt lat="44.36868264312093" lon="7.880255178581553"><ele>515.6666666666667</ele><time>2026-05-02T14:30:15Z</time></trkpt><trkpt lat="44.36879512607381" lon="7.8800564298984614"><ele>514.3333333333334</ele><time>2026-05-02T14:30:16Z</time></trkpt><trkpt lat="44.36890780455709" lon="7.879889345924654"><ele>513.0</ele><time>2026-05-02T14:30:17Z</time></trkpt><trkpt lat="44.3690049354647" lon="7.879743934710494"><ele>515.0</ele><time>2026-05-02T14:30:18Z</time></trkpt><trkpt lat="44.36908354537411" lon="7.879613821061665"><ele>517.0</ele><time>2026-05-02T14:30:19Z</time></trkpt><trkpt lat="44.36913808744869" lon="7.879480931459352"><ele>519.0</ele><time>2026-05-02T14:30:20Z</time></trkpt><trkpt lat="44.36917415830285" lon="7.8793257470598705"><ele>521.0</ele><time>2026-05-02T14:30:21Z</time></trkpt><trkpt lat="44.369178322766906" lon="7.879145306548631"><ele>521.0</ele><time>2026-05-02T14:30:22Z</time></trkpt><trkpt lat="44.36915767878921" lon="7.878962845889322"><ele>521.0</ele><time>2026-05-02T14:30:23Z</time></trkpt><trkpt lat="44.36910111310754" lon="7.8787596035097485"><ele>521.0</ele><time>2026-05-02T14:30:24Z</time></trkpt><trkpt lat="44.36901673739097" lon="7.878533627108405"><ele>521.3333333333333</ele><time>2026-05-02T14:30:25Z</time></trkpt><trkpt lat="44.36891589088808" lon="7.878293069031239"><ele>521.6666666666666</ele><time>2026-05-02T14:30:26Z</time></trkpt><trkpt lat="44.36882410981616" lon="7.878016428476956"><ele>522.0</ele><time>2026-05-02T14:30:27Z</time></trkpt><trkpt lat="44.368724895702314" lon="7.877695118830996"><ele>524.5</ele><time>2026-05-02T14:30:28Z</time></trkpt><trkpt lat="44.368611569260246" lon="7.877371947240448"><ele>527.0</ele><time>2026-05-02T14:30:29Z</time></trkpt><trkpt lat="44.36849888203533" lon="7.877045876699806"><ele>533.5</ele><time>2026-05-02T14:30:30Z</time></trkpt><trkpt lat="44.368392785150355" lon="7.876736934179116"><ele>540.0</ele><time>2026-05-02T14:30:31Z</time></trkpt><trkpt lat="44.36828981009782" lon="7.876446451173245"><ele>540.0</ele><time>2026-05-02T14:30:32Z</time></trkpt><trkpt lat="44.36819121889942" lon="7.876175189183895"><ele>540.0</ele><time>2026-05-02T14:30:33Z</time></trkpt><trkpt lat="44.36810184979168" lon="7.875908368236902"><ele>540.0</ele><time>2026-05-02T14:30:34Z</time></trkpt><trkpt lat="44.36801338740607" lon="7.875648491428695"><ele>545.3333333333334</ele><time>2026-05-02T14:30:35Z</time></trkpt><trkpt lat="44.367924603620274" lon="7.875388373714576"><ele>550.6666666666667</ele><time>2026-05-02T14:30:36.019Z</time></trkpt><trkpt lat="44.3678363819992" lon="7.875131734826479"><ele>556.0</ele><time>2026-05-02T14:30:37.021Z</time></trkpt><trkpt lat="44.36774623434597" lon="7.874869493385271"><ele>556.0</ele><time>2026-05-02T14:30:38.02Z</time></trkpt><trkpt lat="44.36765873200832" lon="7.874614947095538"><ele>556.0</ele><time>2026-05-02T14:30:39.02Z</time></trkpt><trkpt lat="44.36757205238968" lon="7.8743627940758065"><ele>556.0</ele><time>2026-05-02T14:30:40.022Z</time></trkpt><trkpt lat="44.36749403836373" lon="7.874134613616557"><ele>550.5</ele><time>2026-05-02T14:30:41.017Z</time></trkpt><trkpt lat="44.36740321501121" lon="7.873868444563364"><ele>545.0</ele><time>2026-05-02T14:30:42Z</time></trkpt><trkpt lat="44.367261767379134" lon="7.873453503719261"><ele>538.5</ele><time>2026-05-02T14:30:43Z</time></trkpt><trkpt lat="44.36715340668413" lon="7.873135365360573"><ele>532.0</ele><time>2026-05-02T14:30:44Z</time></trkpt><trkpt lat="44.36704540336588" lon="7.872823287266009"><ele>531.5</ele><time>2026-05-02T14:30:45Z</time></trkpt><trkpt lat="44.366922984203946" lon="7.872507630353469"><ele>531.0</ele><time>2026-05-02T14:30:46Z</time></trkpt><trkpt lat="44.36681777279168" lon="7.872205232270687"><ele>531.0</ele><time>2026-05-02T14:30:47Z</time></trkpt><trkpt lat="44.366724245662226" lon="7.871930937991423"><ele>531.0</ele><time>2026-05-02T14:30:48Z</time></trkpt><trkpt lat="44.36663915541049" lon="7.871675465313671"><ele>531.0</ele><time>2026-05-02T14:30:49Z</time></trkpt><trkpt lat="44.36655842190497" lon="7.87143780874751"><ele>530.3333333333334</ele><time>2026-05-02T14:30:50Z</time></trkpt><trkpt lat="44.36648509797765" lon="7.871214279683302"><ele>529.6666666666667</ele><time>2026-05-02T14:30:51Z</time></trkpt><trkpt lat="44.3664201831294" lon="7.871007292151495"><ele>529.0</ele><time>2026-05-02T14:30:52Z</time></trkpt><trkpt lat="44.36635362779004" lon="7.870814668138569"><ele>527.0</ele><time>2026-05-02T14:30:53Z</time></trkpt><trkpt lat="44.366289760615544" lon="7.870638761277625"><ele>525.0</ele><time>2026-05-02T14:30:54Z</time></trkpt><trkpt lat="44.36622162722243" lon="7.870447064965411"><ele>523.0</ele><time>2026-05-02T14:30:55Z</time></trkpt><trkpt lat="44.36614872257764" lon="7.870255171260886"><ele>521.0</ele><time>2026-05-02T14:30:56Z</time></trkpt><trkpt lat="44.36607554672397" lon="7.870080348054163"><ele>520.5</ele><time>2026-05-02T14:30:57Z</time></trkpt><trkpt lat="44.3660051903318" lon="7.869918152798604"><ele>520.0</ele><time>2026-05-02T14:30:58Z</time></trkpt><trkpt lat="44.36594001683482" lon="7.869776722015023"><ele>519.5</ele><time>2026-05-02T14:30:59Z</time></trkpt><trkpt lat="44.36588532904339" lon="7.869643829835055"><ele>519.0</ele><time>2026-05-02T14:31:00Z</time></trkpt><trkpt lat="44.36585365149272" lon="7.86950797488802"><ele>519.0</ele><time>2026-05-02T14:31:01Z</time></trkpt><trkpt lat="44.36583217806352" lon="7.869384638682182"><ele>519.0</ele><time>2026-05-02T14:31:02Z</time></trkpt><trkpt lat="44.365788615292416" lon="7.869304727161491"><ele>519.0</ele><time>2026-05-02T14:31:03Z</time></trkpt><trkpt lat="44.36572159862761" lon="7.869263167410739"><ele>519.0</ele><time>2026-05-02T14:31:04Z</time></trkpt><trkpt lat="44.365638132415775" lon="7.869260203887265"><ele>519.0</ele><time>2026-05-02T14:31:05Z</time></trkpt><trkpt lat="44.36554714178415" lon="7.869304982600364"><ele>519.0</ele><time>2026-05-02T14:31:06Z</time></trkpt><trkpt lat="44.36544925468791" lon="7.8693618615951335"><ele>519.75</ele><time>2026-05-02T14:31:07Z</time></trkpt><trkpt lat="44.36534178406935" lon="7.869351454920527"><ele>520.5</ele><time>2026-05-02T14:31:08Z</time></trkpt><trkpt lat="44.365209885969975" lon="7.8692766979275195"><ele>521.25</ele><time>2026-05-02T14:31:09Z</time></trkpt><trkpt lat="44.365043691109996" lon="7.8691497248386675"><ele>522.0</ele><time>2026-05-02T14:31:10Z</time></trkpt><trkpt lat="44.36485274027977" lon="7.868977782031544"><ele>528.0</ele><time>2026-05-02T14:31:11Z</time></trkpt><trkpt lat="44.364644024458144" lon="7.86876996531302"><ele>534.0</ele><time>2026-05-02T14:31:12Z</time></trkpt><trkpt lat="44.36442959451034" lon="7.868545875188183"><ele>527.5</ele><time>2026-05-02T14:31:13Z</time></trkpt><trkpt lat="44.3642094194612" lon="7.868323051261532"><ele>521.0</ele><time>2026-05-02T14:31:14Z</time></trkpt><trkpt lat="44.364009069417705" lon="7.868117987518055"><ele>522.0</ele><time>2026-05-02T14:31:15Z</time></trkpt><trkpt lat="44.36382318695962" lon="7.8679324655680185"><ele>523.0</ele><time>2026-05-02T14:31:16Z</time></trkpt><trkpt lat="44.36365287513404" lon="7.867763222840033"><ele>524.0</ele><time>2026-05-02T14:31:17Z</time></trkpt><trkpt lat="44.363492141426576" lon="7.867597538841377"><ele>522.0</ele><time>2026-05-02T14:31:18Z</time></trkpt><trkpt lat="44.36333441088415" lon="7.867416647013136"><ele>520.0</ele><time>2026-05-02T14:31:19Z</time></trkpt><trkpt lat="44.363187083983085" lon="7.867222309764559"><ele>518.0</ele><time>2026-05-02T14:31:20Z</time></trkpt><trkpt lat="44.3630583850459" lon="7.867023723726344"><ele>518.0</ele><time>2026-05-02T14:31:21Z</time></trkpt><trkpt lat="44.362941717805604" lon="7.866806551862177"><ele>518.0</ele><time>2026-05-02T14:31:22Z</time></trkpt><trkpt lat="44.36283356333391" lon="7.866572292250441"><ele>518.0</ele><time>2026-05-02T14:31:23Z</time></trkpt><trkpt lat="44.36273491533268" lon="7.86630725618286"><ele>518.0</ele><time>2026-05-02T14:31:24Z</time></trkpt><trkpt lat="44.36264440382973" lon="7.8660143372153115"><ele>518.0</ele><time>2026-05-02T14:31:25Z</time></trkpt><trkpt lat="44.36255596054366" lon="7.865700899689861"><ele>519.0</ele><time>2026-05-02T14:31:26Z</time></trkpt><trkpt lat="44.362471289186715" lon="7.865388424356013"><ele>520.0</ele><time>2026-05-02T14:31:27Z</time></trkpt><trkpt lat="44.36238462520321" lon="7.865082861060175"><ele>520.3333333333334</ele><time>2026-05-02T14:31:28Z</time></trkpt><trkpt lat="44.362300936904234" lon="7.864784569236308"><ele>520.6666666666666</ele><time>2026-05-02T14:31:29Z</time></trkpt><trkpt lat="44.36222050174358" lon="7.864500446922631"><ele>521.0</ele><time>2026-05-02T14:31:30Z</time></trkpt><trkpt lat="44.36214501785501" lon="7.8642245594591005"><ele>522.3333333333333</ele><time>2026-05-02T14:31:31Z</time></trkpt><trkpt lat="44.362079449357324" lon="7.8639373735236395"><ele>523.6666666666666</ele><time>2026-05-02T14:31:32Z</time></trkpt><trkpt lat="44.36202764990415" lon="7.863629420826757"><ele>525.0</ele><time>2026-05-02T14:31:33Z</time></trkpt><trkpt lat="44.36199578785826" lon="7.863328446018494"><ele>525.0</ele><time>2026-05-02T14:31:34Z</time></trkpt><trkpt lat="44.36197588531052" lon="7.863064054515429"><ele>525.0</ele><time>2026-05-02T14:31:35Z</time></trkpt><trkpt lat="44.361944082197844" lon="7.862814733410669"><ele>525.0</ele><time>2026-05-02T14:31:36Z</time></trkpt><trkpt lat="44.36191265835313" lon="7.862580014247637"><ele>521.3333333333334</ele><time>2026-05-02T14:31:37Z</time></trkpt><trkpt lat="44.36187662928573" lon="7.862354777419415"><ele>517.6666666666667</ele><time>2026-05-02T14:31:38Z</time></trkpt><trkpt lat="44.361826998275475" lon="7.862143557789669"><ele>514.0</ele><time>2026-05-02T14:31:39Z</time></trkpt><trkpt lat="44.361764762502375" lon="7.861969405277087"><ele>514.0</ele><time>2026-05-02T14:31:40Z</time></trkpt><trkpt lat="44.36170469500017" lon="7.86181060404127"><ele>514.0</ele><time>2026-05-02T14:31:41Z</time></trkpt><trkpt lat="44.36165951836756" lon="7.861676698065289"><ele>514.0</ele><time>2026-05-02T14:31:42Z</time></trkpt><trkpt lat="44.361635509556514" lon="7.8615663412632175"><ele>514.0</ele><time>2026-05-02T14:31:43Z</time></trkpt><trkpt lat="44.36163118197851" lon="7.861435150843636"><ele>514.0</ele><time>2026-05-02T14:31:45Z</time></trkpt><trkpt lat="44.36167720846489" lon="7.861250169391157"><ele>513.3333333333334</ele><time>2026-05-02T14:31:47Z</time></trkpt><trkpt lat="44.36170676097136" lon="7.861171407779283"><ele>512.6666666666667</ele><time>2026-05-02T14:31:48Z</time></trkpt><trkpt lat="44.36171704362042" lon="7.861066609792062"><ele>512.0</ele><time>2026-05-02T14:31:49Z</time></trkpt><trkpt lat="44.361694744442936" lon="7.860966376689789"><ele>511.33333333333337</ele><time>2026-05-02T14:31:50Z</time></trkpt><trkpt lat="44.361632514958465" lon="7.860864485649343"><ele>510.6666666666667</ele><time>2026-05-02T14:31:51Z</time></trkpt><trkpt lat="44.361541011185764" lon="7.860751239105068"><ele>510.0</ele><time>2026-05-02T14:31:52Z</time></trkpt><trkpt lat="44.36144687994052" lon="7.860584145723092"><ele>509.66666666666663</ele><time>2026-05-02T14:31:53Z</time></trkpt><trkpt lat="44.361359570633496" lon="7.860359954795799"><ele>509.3333333333333</ele><time>2026-05-02T14:31:54Z</time></trkpt><trkpt lat="44.36129089898053" lon="7.8600909779671575"><ele>509.0</ele><time>2026-05-02T14:31:55Z</time></trkpt><trkpt lat="44.36121194246996" lon="7.8598428935850695"><ele>508.25</ele><time>2026-05-02T14:31:56Z</time></trkpt><trkpt lat="44.361176928509636" lon="7.859687372592039"><ele>507.5</ele><time>2026-05-02T14:31:57Z</time></trkpt><trkpt lat="44.36110724098352" lon="7.859469916654574"><ele>506.75</ele><time>2026-05-02T14:31:58Z</time></trkpt><trkpt lat="44.36104161147225" lon="7.85927126569436"><ele>506.0</ele><time>2026-05-02T14:31:59Z</time></trkpt><trkpt lat="44.360985939316315" lon="7.859090741278083"><ele>506.0</ele><time>2026-05-02T14:32:00Z</time></trkpt><trkpt lat="44.36093490660847" lon="7.8589248419956865"><ele>506.0</ele><time>2026-05-02T14:32:01Z</time></trkpt><trkpt lat="44.36087908320522" lon="7.858752109535332"><ele>506.0</ele><time>2026-05-02T14:32:02Z</time></trkpt><trkpt lat="44.360829410374414" lon="7.858575579416429"><ele>506.0</ele><time>2026-05-02T14:32:03Z</time></trkpt><trkpt lat="44.36077890380539" lon="7.858393797975958"><ele>506.0</ele><time>2026-05-02T14:32:04Z</time></trkpt><trkpt lat="44.3607256636795" lon="7.858211154487859"><ele>506.0</ele><time>2026-05-02T14:32:05Z</time></trkpt><trkpt lat="44.36067583618843" lon="7.858030453899545"><ele>506.0</ele><time>2026-05-02T14:32:06Z</time></trkpt><trkpt lat="44.36062406117773" lon="7.857854713673385"><ele>506.0</ele><time>2026-05-02T14:32:07Z</time></trkpt><trkpt lat="44.36057368057367" lon="7.857677821781013"><ele>505.5</ele><time>2026-05-02T14:32:08Z</time></trkpt><trkpt lat="44.360522055752924" lon="7.857500292330244"><ele>505.0</ele><time>2026-05-02T14:32:09Z</time></trkpt><trkpt lat="44.36046998856562" lon="7.8573219368442455"><ele>504.5</ele><time>2026-05-02T14:32:10Z</time></trkpt><trkpt lat="44.360416324235224" lon="7.857147377968095"><ele>504.0</ele><time>2026-05-02T14:32:11Z</time></trkpt><trkpt lat="44.36036553214801" lon="7.856962249776144"><ele>503.75</ele><time>2026-05-02T14:32:12Z</time></trkpt><trkpt lat="44.36031518001021" lon="7.8567763559706325"><ele>503.5</ele><time>2026-05-02T14:32:13Z</time></trkpt><trkpt lat="44.360263281888805" lon="7.856594496902981"><ele>503.25</ele><time>2026-05-02T14:32:14Z</time></trkpt><trkpt lat="44.36021687391045" lon="7.856429526433022"><ele>503.0</ele><time>2026-05-02T14:32:15Z</time></trkpt><trkpt lat="44.36017161831369" lon="7.856271075986605"><ele>503.0</ele><time>2026-05-02T14:32:16Z</time></trkpt><trkpt lat="44.36012967108849" lon="7.856116031562258"><ele>503.0</ele><time>2026-05-02T14:32:17Z</time></trkpt><trkpt lat="44.36008471691047" lon="7.8559665093288755"><ele>503.0</ele><time>2026-05-02T14:32:18Z</time></trkpt><trkpt lat="44.36004156337237" lon="7.855813387475639"><ele>503.0</ele><time>2026-05-02T14:32:19Z</time></trkpt><trkpt lat="44.360004182509456" lon="7.855663351926487"><ele>502.66666666666663</ele><time>2026-05-02T14:32:20Z</time></trkpt><trkpt lat="44.35996609648656" lon="7.855499874631111"><ele>502.33333333333337</ele><time>2026-05-02T14:32:21Z</time></trkpt><trkpt lat="44.35990989537331" lon="7.855301016920497"><ele>502.0</ele><time>2026-05-02T14:32:22Z</time></trkpt><trkpt lat="44.35983773091768" lon="7.855073586534745"><ele>502.0</ele><time>2026-05-02T14:32:23Z</time></trkpt><trkpt lat="44.359754869541405" lon="7.854807420386515"><ele>502.0</ele><time>2026-05-02T14:32:24Z</time></trkpt><trkpt lat="44.35967243126331" lon="7.854543788466928"><ele>502.0</ele><time>2026-05-02T14:32:25Z</time></trkpt><trkpt lat="44.359598957326625" lon="7.854289317125271"><ele>501.0</ele><time>2026-05-02T14:32:26Z</time></trkpt><trkpt lat="44.35953213433375" lon="7.854047648020287"><ele>500.0</ele><time>2026-05-02T14:32:27Z</time></trkpt><trkpt lat="44.35946841182416" lon="7.853827717451223"><ele>499.0</ele><time>2026-05-02T14:32:28Z</time></trkpt><trkpt lat="44.359403151616824" lon="7.8536147413734225"><ele>498.6666666666667</ele><time>2026-05-02T14:32:29Z</time></trkpt><trkpt lat="44.359346816831035" lon="7.853413992798923"><ele>498.33333333333337</ele><time>2026-05-02T14:32:30Z</time></trkpt><trkpt lat="44.35928936581146" lon="7.853211897741484"><ele>498.0</ele><time>2026-05-02T14:32:31Z</time></trkpt><trkpt lat="44.359233209909796" lon="7.853009542031387"><ele>498.0</ele><time>2026-05-02T14:32:32Z</time></trkpt><trkpt lat="44.35917671158622" lon="7.852804461817821"><ele>498.0</ele><time>2026-05-02T14:32:33Z</time></trkpt><trkpt lat="44.35911780300643" lon="7.85260534421369"><ele>498.0</ele><time>2026-05-02T14:32:34Z</time></trkpt><trkpt lat="44.35905698413778" lon="7.852391952517431"><ele>499.0</ele><time>2026-05-02T14:32:35Z</time></trkpt><trkpt lat="44.359000505621914" lon="7.852184512966992"><ele>500.0</ele><time>2026-05-02T14:32:36Z</time></trkpt><trkpt lat="44.35893392319721" lon="7.851971670413631"><ele>501.0</ele><time>2026-05-02T14:32:37Z</time></trkpt><trkpt lat="44.35886073472687" lon="7.851725263284955"><ele>498.66666666666663</ele><time>2026-05-02T14:32:38Z</time></trkpt><trkpt lat="44.358798777364214" lon="7.85147522278632"><ele>496.3333333333333</ele><time>2026-05-02T14:32:39Z</time></trkpt><trkpt lat="44.3587347644268" lon="7.851236608237732"><ele>494.0</ele><time>2026-05-02T14:32:40Z</time></trkpt><trkpt lat="44.35866925382263" lon="7.850998345896653"><ele>494.0</ele><time>2026-05-02T14:32:41Z</time></trkpt><trkpt lat="44.35860176570834" lon="7.850764973236584"><ele>494.0</ele><time>2026-05-02T14:32:42Z</time></trkpt><trkpt lat="44.35852658356167" lon="7.850528124238061"><ele>494.0</ele><time>2026-05-02T14:32:43Z</time></trkpt><trkpt lat="44.35844591263112" lon="7.850270743469912"><ele>494.0</ele><time>2026-05-02T14:32:44Z</time></trkpt><trkpt lat="44.35836411411522" lon="7.850004761941947"><ele>494.0</ele><time>2026-05-02T14:32:45Z</time></trkpt><trkpt lat="44.35829597734223" lon="7.849706689278966"><ele>494.0</ele><time>2026-05-02T14:32:46Z</time></trkpt><trkpt lat="44.35819111914789" lon="7.84934121243235"><ele>494.0</ele><time>2026-05-02T14:32:47Z</time></trkpt><trkpt lat="44.35808359851555" lon="7.848994051449993"><ele>494.0</ele><time>2026-05-02T14:32:48Z</time></trkpt><trkpt lat="44.35798712916892" lon="7.848627963797964"><ele>491.5</ele><time>2026-05-02T14:32:49Z</time></trkpt><trkpt lat="44.357881997399495" lon="7.848274734333053"><ele>489.0</ele><time>2026-05-02T14:32:50Z</time></trkpt><trkpt lat="44.35778228117863" lon="7.847931152420064"><ele>489.5</ele><time>2026-05-02T14:32:51Z</time></trkpt><trkpt lat="44.35768720196535" lon="7.8476043559722415"><ele>490.0</ele><time>2026-05-02T14:32:52Z</time></trkpt><trkpt lat="44.357593335167124" lon="7.847285577253555"><ele>490.0</ele><time>2026-05-02T14:32:53Z</time></trkpt><trkpt lat="44.35750027283743" lon="7.846962044917979"><ele>490.0</ele><time>2026-05-02T14:32:54Z</time></trkpt><trkpt lat="44.357407233306915" lon="7.846636987251485"><ele>490.5</ele><time>2026-05-02T14:32:55Z</time></trkpt><trkpt lat="44.35731336975918" lon="7.846313123897674"><ele>491.0</ele><time>2026-05-02T14:32:56Z</time></trkpt><trkpt lat="44.35721999643787" lon="7.845990302703485"><ele>489.0</ele><time>2026-05-02T14:32:57Z</time></trkpt><trkpt lat="44.35712893779784" lon="7.845680382369035"><ele>487.0</ele><time>2026-05-02T14:32:58Z</time></trkpt><trkpt lat="44.35704166937375" lon="7.845388190645783"><ele>487.6666666666667</ele><time>2026-05-02T14:32:59Z</time></trkpt><trkpt lat="44.356959725451716" lon="7.845100156465916"><ele>488.33333333333337</ele><time>2026-05-02T14:33:00Z</time></trkpt><trkpt lat="44.35687527513155" lon="7.8448080897315"><ele>489.0</ele><time>2026-05-02T14:33:01Z</time></trkpt><trkpt lat="44.356793697134925" lon="7.844522881218176"><ele>489.66666666666663</ele><time>2026-05-02T14:33:02Z</time></trkpt><trkpt lat="44.356716547064835" lon="7.844243588090987"><ele>490.3333333333333</ele><time>2026-05-02T14:33:03Z</time></trkpt><trkpt lat="44.356645007644914" lon="7.8439850050261235"><ele>491.0</ele><time>2026-05-02T14:33:04Z</time></trkpt><trkpt lat="44.356575764733954" lon="7.8437342213795835"><ele>491.0</ele><time>2026-05-02T14:33:05Z</time></trkpt><trkpt lat="44.35650712576664" lon="7.843494836205014"><ele>491.0</ele><time>2026-05-02T14:33:06Z</time></trkpt><trkpt lat="44.35644637262128" lon="7.843271628728387"><ele>491.0</ele><time>2026-05-02T14:33:07Z</time></trkpt><trkpt lat="44.356398154960694" lon="7.843047772601034"><ele>488.66666666666663</ele><time>2026-05-02T14:33:08Z</time></trkpt><trkpt lat="44.35635932236054" lon="7.842812299503009"><ele>486.33333333333337</ele><time>2026-05-02T14:33:09Z</time></trkpt><trkpt lat="44.35633904371589" lon="7.842562912478333"><ele>484.0</ele><time>2026-05-02T14:33:10Z</time></trkpt><trkpt lat="44.35634898480204" lon="7.842313847133272"><ele>485.0</ele><time>2026-05-02T14:33:11Z</time></trkpt><trkpt lat="44.35638170208047" lon="7.8420622060400955"><ele>486.0</ele><time>2026-05-02T14:33:12Z</time></trkpt><trkpt lat="44.356431652645455" lon="7.841811441550928"><ele>487.0</ele><time>2026-05-02T14:33:13Z</time></trkpt><trkpt lat="44.35650718811276" lon="7.841542774141015"><ele>487.0</ele><time>2026-05-02T14:33:14Z</time></trkpt><trkpt lat="44.35660834990323" lon="7.841242485388121"><ele>487.0</ele><time>2026-05-02T14:33:15Z</time></trkpt><trkpt lat="44.356719759127785" lon="7.840918194082187"><ele>483.5</ele><time>2026-05-02T14:33:16Z</time></trkpt><trkpt lat="44.35682559890032" lon="7.8405976510187285"><ele>480.0</ele><time>2026-05-02T14:33:17Z</time></trkpt><trkpt lat="44.3569237474902" lon="7.840297957463389"><ele>479.0</ele><time>2026-05-02T14:33:18Z</time></trkpt><trkpt lat="44.35701535035126" lon="7.840027667202602"><ele>478.0</ele><time>2026-05-02T14:33:19Z</time></trkpt><trkpt lat="44.357103113105666" lon="7.839772127744567"><ele>477.0</ele><time>2026-05-02T14:33:20Z</time></trkpt><trkpt lat="44.35718355028801" lon="7.839533722847554"><ele>477.66666666666663</ele><time>2026-05-02T14:33:21Z</time></trkpt><trkpt lat="44.35725743642059" lon="7.839310733616078"><ele>478.3333333333333</ele><time>2026-05-02T14:33:22Z</time></trkpt><trkpt lat="44.3573286275795" lon="7.839093155072133"><ele>479.0</ele><time>2026-05-02T14:33:23Z</time></trkpt><trkpt lat="44.35740023068189" lon="7.838882285735489"><ele>479.0</ele><time>2026-05-02T14:33:24Z</time></trkpt><trkpt lat="44.35747412232125" lon="7.838670914767563"><ele>479.0</ele><time>2026-05-02T14:33:25Z</time></trkpt><trkpt lat="44.357560129714" lon="7.838415077135543"><ele>479.0</ele><time>2026-05-02T14:33:26Z</time></trkpt><trkpt lat="44.35766113838158" lon="7.838109031311094"><ele>478.0</ele><time>2026-05-02T14:33:27Z</time></trkpt><trkpt lat="44.357773928364615" lon="7.837758184602646"><ele>477.0</ele><time>2026-05-02T14:33:28Z</time></trkpt><trkpt lat="44.35788439391052" lon="7.837414324439232"><ele>474.5</ele><time>2026-05-02T14:33:29Z</time></trkpt><trkpt lat="44.357983102647644" lon="7.837107405621726"><ele>472.0</ele><time>2026-05-02T14:33:30Z</time></trkpt><trkpt lat="44.35807153976382" lon="7.836826086331527"><ele>471.33333333333337</ele><time>2026-05-02T14:33:31Z</time></trkpt><trkpt lat="44.35815750923596" lon="7.836567335288336"><ele>470.66666666666663</ele><time>2026-05-02T14:33:32Z</time></trkpt><trkpt lat="44.35824117607452" lon="7.836326012643123"><ele>470.0</ele><time>2026-05-02T14:33:33Z</time></trkpt><trkpt lat="44.35831884600157" lon="7.836101546816121"><ele>470.0</ele><time>2026-05-02T14:33:34Z</time></trkpt><trkpt lat="44.358390300896666" lon="7.835885472027313"><ele>470.0</ele><time>2026-05-02T14:33:35Z</time></trkpt><trkpt lat="44.35846119535781" lon="7.83567361703361"><ele>470.0</ele><time>2026-05-02T14:33:36Z</time></trkpt><trkpt lat="44.35852874327547" lon="7.835469915089653"><ele>470.0</ele><time>2026-05-02T14:33:37Z</time></trkpt><trkpt lat="44.35859002694237" lon="7.835299268340547"><ele>470.0</ele><time>2026-05-02T14:33:38Z</time></trkpt><trkpt lat="44.358667351474175" lon="7.835158893239639"><ele>470.0</ele><time>2026-05-02T14:33:39Z</time></trkpt><trkpt lat="44.35877040648834" lon="7.835042153548546"><ele>470.0</ele><time>2026-05-02T14:33:40Z</time></trkpt><trkpt lat="44.35891214522079" lon="7.834931202297411"><ele>471.3333333333333</ele><time>2026-05-02T14:33:41Z</time></trkpt><trkpt lat="44.35909829164644" lon="7.834832423064383"><ele>472.66666666666663</ele><time>2026-05-02T14:33:42Z</time></trkpt><trkpt lat="44.35929380074346" lon="7.834753945203826"><ele>474.0</ele><time>2026-05-02T14:33:43Z</time></trkpt><trkpt lat="44.35945990876582" lon="7.834693194103956"><ele>474.0</ele><time>2026-05-02T14:33:44Z</time></trkpt><trkpt lat="44.35959632021502" lon="7.834639861567017"><ele>474.0</ele><time>2026-05-02T14:33:45Z</time></trkpt><trkpt lat="44.359711914600474" lon="7.834586209574191"><ele>474.0</ele><time>2026-05-02T14:33:46Z</time></trkpt><trkpt lat="44.35979912740415" lon="7.834538577056171"><ele>474.0</ele><time>2026-05-02T14:33:47Z</time></trkpt><trkpt lat="44.35985885869164" lon="7.834502587213124"><ele>474.0</ele><time>2026-05-02T14:33:48Z</time></trkpt><trkpt lat="44.35993931056893" lon="7.8344640437200095"><ele>474.2</ele><time>2026-05-02T14:33:50Z</time></trkpt><trkpt lat="44.36002481494251" lon="7.834408531136392"><ele>474.4</ele><time>2026-05-02T14:33:52Z</time></trkpt><trkpt lat="44.360030562920294" lon="7.834248454998569"><ele>474.6</ele><time>2026-05-02T14:33:54Z</time></trkpt><trkpt lat="44.35998819075206" lon="7.834162333066407"><ele>474.8</ele><time>2026-05-02T14:33:55Z</time></trkpt><trkpt lat="44.35991088773647" lon="7.834076071020097"><ele>475.0</ele><time>2026-05-02T14:33:56Z</time></trkpt><trkpt lat="44.359808842523854" lon="7.833977002396363"><ele>476.0</ele><time>2026-05-02T14:33:57Z</time></trkpt><trkpt lat="44.35969903032439" lon="7.833828688691701"><ele>477.0</ele><time>2026-05-02T14:33:58Z</time></trkpt><trkpt lat="44.35958483643579" lon="7.833625440389772"><ele>478.0</ele><time>2026-05-02T14:33:59Z</time></trkpt><trkpt lat="44.3594699253899" lon="7.833410202044646"><ele>478.6666666666667</ele><time>2026-05-02T14:34:00Z</time></trkpt><trkpt lat="44.35935324068392" lon="7.833193700897454"><ele>479.33333333333337</ele><time>2026-05-02T14:34:01Z</time></trkpt><trkpt lat="44.35921882357176" lon="7.832934198522352"><ele>480.0</ele><time>2026-05-02T14:34:02Z</time></trkpt><trkpt lat="44.359073487516376" lon="7.832656616010522"><ele>481.33333333333337</ele><time>2026-05-02T14:34:03Z</time></trkpt><trkpt lat="44.35893995598355" lon="7.832409710375179"><ele>482.6666666666667</ele><time>2026-05-02T14:34:04Z</time></trkpt><trkpt lat="44.358814965304774" lon="7.83216773911068"><ele>484.0</ele><time>2026-05-02T14:34:05Z</time></trkpt><trkpt lat="44.35867959924284" lon="7.831929628443155"><ele>486.0</ele><time>2026-05-02T14:34:06Z</time></trkpt><trkpt lat="44.35851262759676" lon="7.831661726334742"><ele>488.0</ele><time>2026-05-02T14:34:07Z</time></trkpt><trkpt lat="44.358350869815574" lon="7.8314133473361505"><ele>488.0</ele><time>2026-05-02T14:34:08Z</time></trkpt><trkpt lat="44.358215690064576" lon="7.831207842259031"><ele>488.0</ele><time>2026-05-02T14:34:09Z</time></trkpt><trkpt lat="44.358093211380236" lon="7.831031973383438"><ele>488.0</ele><time>2026-05-02T14:34:10Z</time></trkpt><trkpt lat="44.35798114029488" lon="7.830865860375669"><ele>489.66666666666663</ele><time>2026-05-02T14:34:11Z</time></trkpt><trkpt lat="44.35787707828707" lon="7.830689950337705"><ele>491.33333333333337</ele><time>2026-05-02T14:34:12Z</time></trkpt><trkpt lat="44.357787722486215" lon="7.830486831984892"><ele>493.0</ele><time>2026-05-02T14:34:13Z</time></trkpt><trkpt lat="44.35771722460683" lon="7.830261992765131"><ele>494.6666666666667</ele><time>2026-05-02T14:34:14Z</time></trkpt><trkpt lat="44.35765812532982" lon="7.830016089447556"><ele>496.33333333333337</ele><time>2026-05-02T14:34:15Z</time></trkpt><trkpt lat="44.357602515029804" lon="7.829763298543267"><ele>498.0</ele><time>2026-05-02T14:34:16Z</time></trkpt><trkpt lat="44.35755796330273" lon="7.829497517816484"><ele>500.66666666666663</ele><time>2026-05-02T14:34:17Z</time></trkpt><trkpt lat="44.357515842009214" lon="7.829209566124936"><ele>503.3333333333333</ele><time>2026-05-02T14:34:18Z</time></trkpt><trkpt lat="44.35748695239351" lon="7.828922372605806"><ele>506.0</ele><time>2026-05-02T14:34:19Z</time></trkpt><trkpt lat="44.357471677662765" lon="7.828632435046729"><ele>508.0</ele><time>2026-05-02T14:34:20Z</time></trkpt><trkpt lat="44.35747455066193" lon="7.828334160234117"><ele>510.0</ele><time>2026-05-02T14:34:21Z</time></trkpt><trkpt lat="44.35748884351488" lon="7.828025334257429"><ele>512.0</ele><time>2026-05-02T14:34:22Z</time></trkpt><trkpt lat="44.357508741620855" lon="7.827739481098019"><ele>513.25</ele><time>2026-05-02T14:34:23Z</time></trkpt><trkpt lat="44.357531294139065" lon="7.827506423541125"><ele>514.5</ele><time>2026-05-02T14:34:24Z</time></trkpt><trkpt lat="44.35756339059257" lon="7.827334245075871"><ele>515.75</ele><time>2026-05-02T14:34:25Z</time></trkpt><trkpt lat="44.3575758623391" lon="7.827189471542958"><ele>517.0</ele><time>2026-05-02T14:34:26Z</time></trkpt><trkpt lat="44.35756765779806" lon="7.827064165088305"><ele>517.0</ele><time>2026-05-02T14:34:27Z</time></trkpt><trkpt lat="44.35753056971782" lon="7.826959495081526"><ele>517.0</ele><time>2026-05-02T14:34:28Z</time></trkpt><trkpt lat="44.357458981843806" lon="7.8268831048088865"><ele>517.0</ele><time>2026-05-02T14:34:29Z</time></trkpt><trkpt lat="44.35735978839329" lon="7.826848248141949"><ele>517.0</ele><time>2026-05-02T14:34:30Z</time></trkpt><trkpt lat="44.35725809557258" lon="7.82686078442785"><ele>517.0</ele><time>2026-05-02T14:34:31Z</time></trkpt><trkpt lat="44.35715728028309" lon="7.82689848018359"><ele>519.6666666666667</ele><time>2026-05-02T14:34:32Z</time></trkpt><trkpt lat="44.35705901944522" lon="7.827015444205895"><ele>522.3333333333334</ele><time>2026-05-02T14:34:33Z</time></trkpt><trkpt lat="44.35694130416455" lon="7.8271631838223525"><ele>525.0</ele><time>2026-05-02T14:34:34Z</time></trkpt><trkpt lat="44.35680699522832" lon="7.8273186888938"><ele>525.0</ele><time>2026-05-02T14:34:35Z</time></trkpt><trkpt lat="44.35667362001708" lon="7.827469737468089"><ele>525.0</ele><time>2026-05-02T14:34:36Z</time></trkpt><trkpt lat="44.356573451292924" lon="7.827586077075499"><ele>525.0</ele><time>2026-05-02T14:34:37Z</time></trkpt><trkpt lat="44.3565003910643" lon="7.827698279215537"><ele>525.0</ele><time>2026-05-02T14:34:38Z</time></trkpt><trkpt lat="44.35644873275406" lon="7.827831970258599"><ele>525.4</ele><time>2026-05-02T14:34:39Z</time></trkpt><trkpt lat="44.356422138345366" lon="7.8279753180454"><ele>525.8</ele><time>2026-05-02T14:34:40Z</time></trkpt><trkpt lat="44.35641870042489" lon="7.828104776069681"><ele>526.2</ele><time>2026-05-02T14:34:41Z</time></trkpt><trkpt lat="44.35641290566899" lon="7.828194739723043"><ele>526.6</ele><time>2026-05-02T14:34:42Z</time></trkpt><trkpt lat="44.356337163819724" lon="7.8283350129484"><ele>527.0</ele><time>2026-05-02T14:34:44Z</time></trkpt><trkpt lat="44.35622099135031" lon="7.828329834702318"><ele>527.0</ele><time>2026-05-02T14:34:45Z</time></trkpt><trkpt lat="44.35615081321741" lon="7.828394220544718"><ele>527.0</ele><time>2026-05-02T14:34:46Z</time></trkpt><trkpt lat="44.356040133479645" lon="7.828319296329877"><ele>527.0</ele><time>2026-05-02T14:34:48Z</time></trkpt><trkpt lat="44.3559968485285" lon="7.828150626639683"><ele>527.0</ele><time>2026-05-02T14:34:49Z</time></trkpt><trkpt lat="44.35595655236569" lon="7.827954090745364"><ele>527.0</ele><time>2026-05-02T14:34:50Z</time></trkpt><trkpt lat="44.35590089308246" lon="7.8277927041393704"><ele>527.0</ele><time>2026-05-02T14:34:51Z</time></trkpt><trkpt lat="44.355855621006256" lon="7.827670446136636"><ele>527.0</ele><time>2026-05-02T14:34:52Z</time></trkpt><trkpt lat="44.35581312962663" lon="7.827555047955368"><ele>527.0</ele><time>2026-05-02T14:34:53Z</time></trkpt><trkpt lat="44.355772220040436" lon="7.827443021419854"><ele>527.0</ele><time>2026-05-02T14:34:54Z</time></trkpt><trkpt lat="44.35572962792747" lon="7.82731822714442"><ele>527.8000000000001</ele><time>2026-05-02T14:34:55Z</time></trkpt><trkpt lat="44.35569041879999" lon="7.827194817607591"><ele>528.6</ele><time>2026-05-02T14:34:56Z</time></trkpt><trkpt lat="44.35564764041348" lon="7.827074948418633"><ele>529.4000000000001</ele><time>2026-05-02T14:34:57Z</time></trkpt><trkpt lat="44.35560143231668" lon="7.826955632842781"><ele>530.2</ele><time>2026-05-02T14:34:58Z</time></trkpt><trkpt lat="44.3555522481454" lon="7.82682688089682"><ele>531.0</ele><time>2026-05-02T14:34:59Z</time></trkpt><trkpt lat="44.355503338690625" lon="7.826669541919407"><ele>531.0</ele><time>2026-05-02T14:35:00Z</time></trkpt><trkpt lat="44.35544075691305" lon="7.826500605102704"><ele>531.0</ele><time>2026-05-02T14:35:01Z</time></trkpt><trkpt lat="44.35538378368544" lon="7.826344197249868"><ele>531.0</ele><time>2026-05-02T14:35:02Z</time></trkpt><trkpt lat="44.355348634579904" lon="7.826179144940849"><ele>531.0</ele><time>2026-05-02T14:35:03Z</time></trkpt><trkpt lat="44.35532692443337" lon="7.82600740240262"><ele>532.4</ele><time>2026-05-02T14:35:04Z</time></trkpt><trkpt lat="44.355316394508456" lon="7.825842924972161"><ele>533.8</ele><time>2026-05-02T14:35:05Z</time></trkpt><trkpt lat="44.355300800759906" lon="7.825697271470315"><ele>535.1999999999999</ele><time>2026-05-02T14:35:06Z</time></trkpt><trkpt lat="44.35530636533859" lon="7.8255499319001"><ele>536.6</ele><time>2026-05-02T14:35:07Z</time></trkpt><trkpt lat="44.35530868289001" lon="7.825425200266583"><ele>538.0</ele><time>2026-05-02T14:35:08Z</time></trkpt><trkpt lat="44.35530745415209" lon="7.825321304500709"><ele>538.0</ele><time>2026-05-02T14:35:09Z</time></trkpt><trkpt lat="44.355301312908495" lon="7.825218509395321"><ele>538.0</ele><time>2026-05-02T14:35:10Z</time></trkpt><trkpt lat="44.355296662459835" lon="7.825109620474341"><ele>538.0</ele><time>2026-05-02T14:35:11Z</time></trkpt><trkpt lat="44.355292963214154" lon="7.825012026039923"><ele>538.0</ele><time>2026-05-02T14:35:12Z</time></trkpt><trkpt lat="44.3553084091628" lon="7.824911179816076"><ele>538.0</ele><time>2026-05-02T14:35:13Z</time></trkpt><trkpt lat="44.35529789552672" lon="7.824821800145576"><ele>538.0</ele><time>2026-05-02T14:35:14Z</time></trkpt><trkpt lat="44.35517871883111" lon="7.824772661125065"><ele>539.6</ele><time>2026-05-02T14:35:16Z</time></trkpt><trkpt lat="44.355085528320295" lon="7.8248025294459"><ele>541.1999999999999</ele><time>2026-05-02T14:35:17Z</time></trkpt><trkpt lat="44.354978830570076" lon="7.824838708322695"><ele>542.8</ele><time>2026-05-02T14:35:18Z</time></trkpt><trkpt lat="44.35486527412852" lon="7.824865205603084"><ele>544.4</ele><time>2026-05-02T14:35:19Z</time></trkpt><trkpt lat="44.3547432104691" lon="7.824887269112724"><ele>546.0</ele><time>2026-05-02T14:35:20Z</time></trkpt><trkpt lat="44.35461581272841" lon="7.824910130705331"><ele>546.5</ele><time>2026-05-02T14:35:21Z</time></trkpt><trkpt lat="44.35449601946342" lon="7.824946686913498"><ele>547.0</ele><time>2026-05-02T14:35:22Z</time></trkpt><trkpt lat="44.35437988057172" lon="7.824980777214372"><ele>547.5</ele><time>2026-05-02T14:35:23Z</time></trkpt><trkpt lat="44.35425815946139" lon="7.825014030841542"><ele>548.0</ele><time>2026-05-02T14:35:24Z</time></trkpt><trkpt lat="44.3541477738286" lon="7.825069521159843"><ele>549.75</ele><time>2026-05-02T14:35:25Z</time></trkpt><trkpt lat="44.35405459636659" lon="7.825162641308529"><ele>551.5</ele><time>2026-05-02T14:35:26Z</time></trkpt><trkpt lat="44.353980032093595" lon="7.825287656342752"><ele>553.25</ele><time>2026-05-02T14:35:27Z</time></trkpt><trkpt lat="44.35391325257528" lon="7.825458507497375"><ele>555.0</ele><time>2026-05-02T14:35:28Z</time></trkpt><trkpt lat="44.353857464636434" lon="7.825666044031219"><ele>555.0</ele><time>2026-05-02T14:35:29Z</time></trkpt><trkpt lat="44.353812905697005" lon="7.825898647363619"><ele>555.0</ele><time>2026-05-02T14:35:30Z</time></trkpt><trkpt lat="44.353772412013114" lon="7.826127781455463"><ele>555.0</ele><time>2026-05-02T14:35:31Z</time></trkpt><trkpt lat="44.35372719994388" lon="7.826313573091142"><ele>554.4</ele><time>2026-05-02T14:35:32Z</time></trkpt><trkpt lat="44.35369973418628" lon="7.82647701253217"><ele>553.8</ele><time>2026-05-02T14:35:33Z</time></trkpt><trkpt lat="44.35367143344091" lon="7.826620872153588"><ele>553.2</ele><time>2026-05-02T14:35:34Z</time></trkpt><trkpt lat="44.35362368915525" lon="7.826746876314273"><ele>552.6</ele><time>2026-05-02T14:35:35Z</time></trkpt><trkpt lat="44.35356129799701" lon="7.826880406206307"><ele>552.0</ele><time>2026-05-02T14:35:36Z</time></trkpt><trkpt lat="44.353443568988276" lon="7.826940037473008"><ele>548.5</ele><time>2026-05-02T14:35:37Z</time></trkpt><trkpt lat="44.35333604804664" lon="7.827002136665684"><ele>545.0</ele><time>2026-05-02T14:35:38Z</time></trkpt><trkpt lat="44.35321564522018" lon="7.826994573293564"><ele>541.5</ele><time>2026-05-02T14:35:39Z</time></trkpt><trkpt lat="44.35307649456337" lon="7.826935053437266"><ele>538.0</ele><time>2026-05-02T14:35:40Z</time></trkpt><trkpt lat="44.35290371662467" lon="7.826867091880729"><ele>543.0</ele><time>2026-05-02T14:35:41Z</time></trkpt><trkpt lat="44.35272478056031" lon="7.826809719282845"><ele>548.0</ele><time>2026-05-02T14:35:42Z</time></trkpt><trkpt lat="44.352557677216836" lon="7.82677225454994"><ele>553.0</ele><time>2026-05-02T14:35:43Z</time></trkpt><trkpt lat="44.35240353262025" lon="7.826741592114253"><ele>553.0</ele><time>2026-05-02T14:35:44Z</time></trkpt><trkpt lat="44.35226956008723" lon="7.826697094107732"><ele>553.0</ele><time>2026-05-02T14:35:45Z</time></trkpt><trkpt lat="44.35214752615356" lon="7.826653052929603"><ele>553.0</ele><time>2026-05-02T14:35:46Z</time></trkpt><trkpt lat="44.35205041911769" lon="7.826612885280892"><ele>553.0</ele><time>2026-05-02T14:35:47Z</time></trkpt><trkpt lat="44.35197356431648" lon="7.82653702010838"><ele>553.0</ele><time>2026-05-02T14:35:48Z</time></trkpt><trkpt lat="44.35190605657706" lon="7.826425457613124"><ele>553.0</ele><time>2026-05-02T14:35:49Z</time></trkpt><trkpt lat="44.35187347768242" lon="7.826322258779418"><ele>553.0</ele><time>2026-05-02T14:35:50Z</time></trkpt><trkpt lat="44.35188531260622" lon="7.826176492552705"><ele>553.0</ele><time>2026-05-02T14:35:52Z</time></trkpt><trkpt lat="44.35179770912839" lon="7.826056688451536"><ele>553.0</ele><time>2026-05-02T14:35:54Z</time></trkpt><trkpt lat="44.35172228822965" lon="7.826018050742978"><ele>553.0</ele><time>2026-05-02T14:35:55Z</time></trkpt><trkpt lat="44.351618171807644" lon="7.82597282685407"><ele>553.0</ele><time>2026-05-02T14:35:56Z</time></trkpt><trkpt lat="44.35150984005344" lon="7.825914943040888"><ele>553.0</ele><time>2026-05-02T14:35:57Z</time></trkpt><trkpt lat="44.35139729046618" lon="7.825812239002417"><ele>553.0</ele><time>2026-05-02T14:35:58Z</time></trkpt><trkpt lat="44.3512908947594" lon="7.825695659765475"><ele>553.0</ele><time>2026-05-02T14:35:59Z</time></trkpt><trkpt lat="44.35118260347646" lon="7.82558204643867"><ele>553.0</ele><time>2026-05-02T14:36:00Z</time></trkpt><trkpt lat="44.351087566913655" lon="7.8254576920546794"><ele>553.0</ele><time>2026-05-02T14:36:01Z</time></trkpt><trkpt lat="44.35100605972779" lon="7.825315317939166"><ele>553.0</ele><time>2026-05-02T14:36:02Z</time></trkpt><trkpt lat="44.350935074818395" lon="7.825173304755754"><ele>550.5</ele><time>2026-05-02T14:36:03Z</time></trkpt><trkpt lat="44.350856428141796" lon="7.825031224300304"><ele>548.0</ele><time>2026-05-02T14:36:04Z</time></trkpt><trkpt lat="44.35076890768756" lon="7.824874155565003"><ele>545.5</ele><time>2026-05-02T14:36:05Z</time></trkpt><trkpt lat="44.35068345420132" lon="7.824718133676843"><ele>543.0</ele><time>2026-05-02T14:36:06Z</time></trkpt><trkpt lat="44.35059415331728" lon="7.824568015864961"><ele>541.0</ele><time>2026-05-02T14:36:07Z</time></trkpt><trkpt lat="44.35049835810918" lon="7.824418733868502"><ele>539.0</ele><time>2026-05-02T14:36:08Z</time></trkpt><trkpt lat="44.35040563644428" lon="7.82428686903631"><ele>537.0</ele><time>2026-05-02T14:36:09Z</time></trkpt><trkpt lat="44.35032049936915" lon="7.82417736226667"><ele>535.0</ele><time>2026-05-02T14:36:10Z</time></trkpt><trkpt lat="44.350242549031634" lon="7.824071879235367"><ele>534.8</ele><time>2026-05-02T14:36:11Z</time></trkpt><trkpt lat="44.35017100637379" lon="7.823964455860805"><ele>534.6</ele><time>2026-05-02T14:36:12Z</time></trkpt><trkpt lat="44.350101290149546" lon="7.823858862001726"><ele>534.4</ele><time>2026-05-02T14:36:13Z</time></trkpt><trkpt lat="44.350030541164394" lon="7.823756630393427"><ele>534.2</ele><time>2026-05-02T14:36:14Z</time></trkpt><trkpt lat="44.34996614207012" lon="7.823664938040942"><ele>534.0</ele><time>2026-05-02T14:36:15Z</time></trkpt><trkpt lat="44.34989844376034" lon="7.823578732966358"><ele>534.0</ele><time>2026-05-02T14:36:16Z</time></trkpt><trkpt lat="44.34982748269439" lon="7.8235052385822454"><ele>534.0</ele><time>2026-05-02T14:36:17Z</time></trkpt><trkpt lat="44.34974934293294" lon="7.823434332927141"><ele>534.0</ele><time>2026-05-02T14:36:18Z</time></trkpt><trkpt lat="44.34965396560194" lon="7.823379323048259"><ele>534.0</ele><time>2026-05-02T14:36:19Z</time></trkpt><trkpt lat="44.349533847978506" lon="7.82333989650964"><ele>534.0</ele><time>2026-05-02T14:36:20Z</time></trkpt><trkpt lat="44.349403109686946" lon="7.823308640265173"><ele>530.6666666666666</ele><time>2026-05-02T14:36:21Z</time></trkpt><trkpt lat="44.34926027303279" lon="7.82331529408995"><ele>527.3333333333333</ele><time>2026-05-02T14:36:22Z</time></trkpt><trkpt lat="44.34910172306068" lon="7.823351605035559"><ele>524.0</ele><time>2026-05-02T14:36:23Z</time></trkpt><trkpt lat="44.348944299670265" lon="7.823406366128381"><ele>523.5</ele><time>2026-05-02T14:36:24Z</time></trkpt><trkpt lat="44.348806257993196" lon="7.823428389198451"><ele>523.0</ele><time>2026-05-02T14:36:25Z</time></trkpt><trkpt lat="44.348681945127495" lon="7.823462943596443"><ele>522.5</ele><time>2026-05-02T14:36:26Z</time></trkpt><trkpt lat="44.34857157024754" lon="7.823512558174534"><ele>522.0</ele><time>2026-05-02T14:36:27Z</time></trkpt><trkpt lat="44.34846318979857" lon="7.823529727558336"><ele>521.75</ele><time>2026-05-02T14:36:28Z</time></trkpt><trkpt lat="44.348354265301815" lon="7.823538993767486"><ele>521.5</ele><time>2026-05-02T14:36:29Z</time></trkpt><trkpt lat="44.3482332888981" lon="7.823535804424768"><ele>521.25</ele><time>2026-05-02T14:36:30Z</time></trkpt><trkpt lat="44.348106378319216" lon="7.823503269189963"><ele>521.0</ele><time>2026-05-02T14:36:31Z</time></trkpt><trkpt lat="44.3479781534024" lon="7.823431365519429"><ele>520.25</ele><time>2026-05-02T14:36:32Z</time></trkpt><trkpt lat="44.347844218060835" lon="7.823350685429362"><ele>519.5</ele><time>2026-05-02T14:36:33Z</time></trkpt><trkpt lat="44.34770829248667" lon="7.823265795007705"><ele>518.75</ele><time>2026-05-02T14:36:34Z</time></trkpt><trkpt lat="44.34757560819207" lon="7.823178352117928"><ele>518.0</ele><time>2026-05-02T14:36:35Z</time></trkpt><trkpt lat="44.34745271519136" lon="7.823104640213242"><ele>518.0</ele><time>2026-05-02T14:36:36Z</time></trkpt><trkpt lat="44.34734277245052" lon="7.823030655157504"><ele>518.0</ele><time>2026-05-02T14:36:37Z</time></trkpt><trkpt lat="44.34722867087583" lon="7.82294621762259"><ele>518.0</ele><time>2026-05-02T14:36:38Z</time></trkpt><trkpt lat="44.347118448334164" lon="7.822863921762754"><ele>518.0</ele><time>2026-05-02T14:36:39Z</time></trkpt><trkpt lat="44.34702105545958" lon="7.8227774576180895"><ele>516.8</ele><time>2026-05-02T14:36:40Z</time></trkpt><trkpt lat="44.34692952500326" lon="7.822689714993549"><ele>515.5999999999999</ele><time>2026-05-02T14:36:41Z</time></trkpt><trkpt lat="44.346850859115776" lon="7.8225985041019515"><ele>514.4000000000001</ele><time>2026-05-02T14:36:42Z</time></trkpt><trkpt lat="44.346784248122006" lon="7.822500447449935"><ele>513.2</ele><time>2026-05-02T14:36:43Z</time></trkpt><trkpt lat="44.3467128501235" lon="7.8224451269557145"><ele>512.0</ele><time>2026-05-02T14:36:44Z</time></trkpt><trkpt lat="44.34670613804578" lon="7.822278584084191"><ele>511.6</ele><time>2026-05-02T14:36:45Z</time></trkpt><trkpt lat="44.34669541749666" lon="7.822142139487899"><ele>511.20000000000005</ele><time>2026-05-02T14:36:46Z</time></trkpt><trkpt lat="44.34670396837332" lon="7.822001142036184"><ele>510.8</ele><time>2026-05-02T14:36:47Z</time></trkpt><trkpt lat="44.34673134217461" lon="7.821844509546847"><ele>510.4</ele><time>2026-05-02T14:36:48Z</time></trkpt><trkpt lat="44.34678776433199" lon="7.821717204140059"><ele>510.0</ele><time>2026-05-02T14:36:49Z</time></trkpt><trkpt lat="44.346871473981295" lon="7.821599698988001"><ele>509.0</ele><time>2026-05-02T14:36:50Z</time></trkpt><trkpt lat="44.3469723507966" lon="7.821490082621553"><ele>508.0</ele><time>2026-05-02T14:36:51Z</time></trkpt><trkpt lat="44.347075871650524" lon="7.821377689648661"><ele>507.0</ele><time>2026-05-02T14:36:52Z</time></trkpt><trkpt lat="44.347175149285555" lon="7.821271884160233"><ele>506.0</ele><time>2026-05-02T14:36:53Z</time></trkpt><trkpt lat="44.347272003592664" lon="7.821174257063218"><ele>506.5</ele><time>2026-05-02T14:36:54Z</time></trkpt><trkpt lat="44.347367501747776" lon="7.821075255096703"><ele>507.0</ele><time>2026-05-02T14:36:55Z</time></trkpt><trkpt lat="44.347470331223946" lon="7.8209649278272675"><ele>507.5</ele><time>2026-05-02T14:36:56Z</time></trkpt><trkpt lat="44.34758216810459" lon="7.820859077787803"><ele>508.0</ele><time>2026-05-02T14:36:57Z</time></trkpt><trkpt lat="44.34770135182104" lon="7.820734507203273"><ele>508.0</ele><time>2026-05-02T14:36:58Z</time></trkpt><trkpt lat="44.347826025945174" lon="7.820602674159632"><ele>508.0</ele><time>2026-05-02T14:36:59Z</time></trkpt><trkpt lat="44.34795642893768" lon="7.820467693753514"><ele>508.0</ele><time>2026-05-02T14:37:00Z</time></trkpt><trkpt lat="44.34809592223724" lon="7.820334252288659"><ele>507.33333333333337</ele><time>2026-05-02T14:37:01Z</time></trkpt><trkpt lat="44.3482326665378" lon="7.82021453769818"><ele>506.66666666666663</ele><time>2026-05-02T14:37:02Z</time></trkpt><trkpt lat="44.34837341941342" lon="7.820114770654566"><ele>506.0</ele><time>2026-05-02T14:37:03Z</time></trkpt><trkpt lat="44.34853962734633" lon="7.820022532208473"><ele>506.0</ele><time>2026-05-02T14:37:04Z</time></trkpt><trkpt lat="44.34872265873987" lon="7.81993916605302"><ele>506.0</ele><time>2026-05-02T14:37:05Z</time></trkpt><trkpt lat="44.34892580997325" lon="7.81986071700047"><ele>506.0</ele><time>2026-05-02T14:37:06Z</time></trkpt><trkpt lat="44.34917909139175" lon="7.819785338651581"><ele>507.0</ele><time>2026-05-02T14:37:07Z</time></trkpt><trkpt lat="44.34943264349953" lon="7.8196685203298735"><ele>508.0</ele><time>2026-05-02T14:37:08Z</time></trkpt><trkpt lat="44.34966241929025" lon="7.819591329947693"><ele>508.0</ele><time>2026-05-02T14:37:09Z</time></trkpt><trkpt lat="44.34988452451509" lon="7.819510653374551"><ele>508.0</ele><time>2026-05-02T14:37:10Z</time></trkpt><trkpt lat="44.35011210071616" lon="7.819427161498596"><ele>508.0</ele><time>2026-05-02T14:37:11Z</time></trkpt><trkpt lat="44.350344169810285" lon="7.819339679360435"><ele>508.0</ele><time>2026-05-02T14:37:12Z</time></trkpt><trkpt lat="44.35054613550004" lon="7.819263711183974"><ele>508.0</ele><time>2026-05-02T14:37:13Z</time></trkpt><trkpt lat="44.35071987103904" lon="7.819192757583314"><ele>502.6666666666667</ele><time>2026-05-02T14:37:14Z</time></trkpt><trkpt lat="44.35087884101601" lon="7.819118861020946"><ele>497.33333333333337</ele><time>2026-05-02T14:37:15Z</time></trkpt><trkpt lat="44.351023421202925" lon="7.819027784326542"><ele>492.0</ele><time>2026-05-02T14:37:16Z</time></trkpt><trkpt lat="44.35116943148719" lon="7.818901215977965"><ele>492.0</ele><time>2026-05-02T14:37:17Z</time></trkpt><trkpt lat="44.351320941358644" lon="7.818732745767462"><ele>492.0</ele><time>2026-05-02T14:37:18Z</time></trkpt><trkpt lat="44.351469336429915" lon="7.818537237708984"><ele>492.0</ele><time>2026-05-02T14:37:19Z</time></trkpt><trkpt lat="44.35163597091158" lon="7.818304666509212"><ele>492.0</ele><time>2026-05-02T14:37:20Z</time></trkpt><trkpt lat="44.351792148194384" lon="7.8180921741383145"><ele>492.0</ele><time>2026-05-02T14:37:21Z</time></trkpt><trkpt lat="44.3519279330983" lon="7.817906169339036"><ele>492.0</ele><time>2026-05-02T14:37:22Z</time></trkpt><trkpt lat="44.35205417366303" lon="7.817731094060443"><ele>492.0</ele><time>2026-05-02T14:37:23Z</time></trkpt><trkpt lat="44.352176309460546" lon="7.8175502564856885"><ele>492.0</ele><time>2026-05-02T14:37:24Z</time></trkpt><trkpt lat="44.35228313541966" lon="7.817338877054989"><ele>492.0</ele><time>2026-05-02T14:37:25Z</time></trkpt><trkpt lat="44.35238085879303" lon="7.817077727603573"><ele>490.5</ele><time>2026-05-02T14:37:26Z</time></trkpt><trkpt lat="44.35246820238535" lon="7.81677160838459"><ele>489.0</ele><time>2026-05-02T14:37:27Z</time></trkpt><trkpt lat="44.35254216425304" lon="7.816436068419686"><ele>489.0</ele><time>2026-05-02T14:37:28Z</time></trkpt><trkpt lat="44.35261852863824" lon="7.816065672289783"><ele>489.0</ele><time>2026-05-02T14:37:29Z</time></trkpt><trkpt lat="44.35270118194207" lon="7.815651102826108"><ele>488.5</ele><time>2026-05-02T14:37:30Z</time></trkpt><trkpt lat="44.35278554998826" lon="7.815210697928427"><ele>488.0</ele><time>2026-05-02T14:37:31Z</time></trkpt><trkpt lat="44.35287164299264" lon="7.814774306267325"><ele>485.5</ele><time>2026-05-02T14:37:32Z</time></trkpt><trkpt lat="44.35295762193315" lon="7.814343596186397"><ele>483.0</ele><time>2026-05-02T14:37:33Z</time></trkpt><trkpt lat="44.35304106183969" lon="7.813912007455324"><ele>486.0</ele><time>2026-05-02T14:37:34Z</time></trkpt><trkpt lat="44.35312528018514" lon="7.813490673362922"><ele>489.0</ele><time>2026-05-02T14:37:35Z</time></trkpt><trkpt lat="44.3532079432493" lon="7.813079279648208"><ele>489.0</ele><time>2026-05-02T14:37:36Z</time></trkpt><trkpt lat="44.353291115851675" lon="7.812669833493281"><ele>489.0</ele><time>2026-05-02T14:37:37Z</time></trkpt><trkpt lat="44.35337224738048" lon="7.812269146194155"><ele>485.0</ele><time>2026-05-02T14:37:38Z</time></trkpt><trkpt lat="44.35344535930537" lon="7.81189654040575"><ele>481.0</ele><time>2026-05-02T14:37:39Z</time></trkpt><trkpt lat="44.35351723164951" lon="7.811536590392122"><ele>480.5</ele><time>2026-05-02T14:37:40Z</time></trkpt><trkpt lat="44.35359035681903" lon="7.811181233023128"><ele>480.0</ele><time>2026-05-02T14:37:41Z</time></trkpt><trkpt lat="44.353660244086754" lon="7.810838711440601"><ele>480.0</ele><time>2026-05-02T14:37:42Z</time></trkpt><trkpt lat="44.35372460268346" lon="7.810517371118993"><ele>480.0</ele><time>2026-05-02T14:37:43Z</time></trkpt><trkpt lat="44.35378803688796" lon="7.810209776645819"><ele>481.66666666666663</ele><time>2026-05-02T14:37:44Z</time></trkpt><trkpt lat="44.35384523200816" lon="7.809921392065195"><ele>483.3333333333333</ele><time>2026-05-02T14:37:45Z</time></trkpt><trkpt lat="44.35390665676672" lon="7.809621785940347"><ele>485.0</ele><time>2026-05-02T14:37:46Z</time></trkpt><trkpt lat="44.353964020773745" lon="7.809325815459322"><ele>484.0</ele><time>2026-05-02T14:37:47Z</time></trkpt><trkpt lat="44.35401514361701" lon="7.809046866530685"><ele>483.0</ele><time>2026-05-02T14:37:48Z</time></trkpt><trkpt lat="44.3540604420293" lon="7.808765715647983"><ele>482.0</ele><time>2026-05-02T14:37:49Z</time></trkpt><trkpt lat="44.35409904635246" lon="7.80847128559067"><ele>479.66666666666663</ele><time>2026-05-02T14:37:50Z</time></trkpt><trkpt lat="44.35412459913211" lon="7.808169306136861"><ele>477.33333333333337</ele><time>2026-05-02T14:37:51Z</time></trkpt><trkpt lat="44.354126763241815" lon="7.807851322552148"><ele>475.0</ele><time>2026-05-02T14:37:52Z</time></trkpt><trkpt lat="44.35412139428678" lon="7.807525803848579"><ele>473.5</ele><time>2026-05-02T14:37:53Z</time></trkpt><trkpt lat="44.35410619189629" lon="7.80720254639669"><ele>472.0</ele><time>2026-05-02T14:37:54Z</time></trkpt><trkpt lat="44.354076580103566" lon="7.806873582209683"><ele>469.0</ele><time>2026-05-02T14:37:55Z</time></trkpt><trkpt lat="44.35403688861584" lon="7.806533011505735"><ele>466.0</ele><time>2026-05-02T14:37:56Z</time></trkpt><trkpt lat="44.353985955060764" lon="7.806170302829797"><ele>464.0</ele><time>2026-05-02T14:37:57Z</time></trkpt><trkpt lat="44.35395326643929" lon="7.805771585013283"><ele>462.0</ele><time>2026-05-02T14:37:58Z</time></trkpt><trkpt lat="44.35389160096918" lon="7.805412874728694"><ele>463.5</ele><time>2026-05-02T14:37:59Z</time></trkpt><trkpt lat="44.353849928590655" lon="7.805056349618496"><ele>465.0</ele><time>2026-05-02T14:38:00Z</time></trkpt><trkpt lat="44.353804214652044" lon="7.804689762254809"><ele>465.0</ele><time>2026-05-02T14:38:01Z</time></trkpt><trkpt lat="44.35378139886819" lon="7.8044717818881395"><ele>465.0</ele><time>2026-05-02T14:38:02Z</time></trkpt><trkpt lat="44.35372796541745" lon="7.804186416249359"><ele>465.0</ele><time>2026-05-02T14:38:03Z</time></trkpt><trkpt lat="44.35365645778591" lon="7.803898093467832"><ele>465.0</ele><time>2026-05-02T14:38:04Z</time></trkpt><trkpt lat="44.35358263220188" lon="7.803608481053354"><ele>465.0</ele><time>2026-05-02T14:38:05Z</time></trkpt><trkpt lat="44.353488325226145" lon="7.803302633101211"><ele>465.0</ele><time>2026-05-02T14:38:06Z</time></trkpt><trkpt lat="44.35336483791662" lon="7.802972796322608"><ele>465.0</ele><time>2026-05-02T14:38:07Z</time></trkpt><trkpt lat="44.35322039196861" lon="7.802610811409603"><ele>464.5</ele><time>2026-05-02T14:38:08Z</time></trkpt><trkpt lat="44.353061449386196" lon="7.802230540248559"><ele>464.0</ele><time>2026-05-02T14:38:09Z</time></trkpt><trkpt lat="44.35288965787488" lon="7.801829460934501"><ele>465.5</ele><time>2026-05-02T14:38:10Z</time></trkpt><trkpt lat="44.352720586343395" lon="7.801442008516001"><ele>467.0</ele><time>2026-05-02T14:38:11Z</time></trkpt><trkpt lat="44.35256395654474" lon="7.801084069166283"><ele>466.0</ele><time>2026-05-02T14:38:12Z</time></trkpt><trkpt lat="44.352421856938065" lon="7.800755204283777"><ele>465.0</ele><time>2026-05-02T14:38:13Z</time></trkpt><trkpt lat="44.35229174595695" lon="7.800449584443635"><ele>465.5</ele><time>2026-05-02T14:38:14Z</time></trkpt><trkpt lat="44.35217305415967" lon="7.800167281841078"><ele>466.0</ele><time>2026-05-02T14:38:15Z</time></trkpt><trkpt lat="44.35206495790151" lon="7.799901983493343"><ele>466.0</ele><time>2026-05-02T14:38:16Z</time></trkpt><trkpt lat="44.35195761883767" lon="7.799660168957856"><ele>466.0</ele><time>2026-05-02T14:38:17Z</time></trkpt><trkpt lat="44.35185536538404" lon="7.799430929344837"><ele>466.0</ele><time>2026-05-02T14:38:18Z</time></trkpt><trkpt lat="44.351766105597875" lon="7.799215131380394"><ele>466.6666666666667</ele><time>2026-05-02T14:38:19Z</time></trkpt><trkpt lat="44.3516807800249" lon="7.799008607270786"><ele>467.33333333333337</ele><time>2026-05-02T14:38:20Z</time></trkpt><trkpt lat="44.35158894335875" lon="7.798797938672194"><ele>468.0</ele><time>2026-05-02T14:38:21Z</time></trkpt><trkpt lat="44.351488862229935" lon="7.798575331711595"><ele>468.33333333333337</ele><time>2026-05-02T14:38:22Z</time></trkpt><trkpt lat="44.35138999730537" lon="7.798343162166822"><ele>468.6666666666667</ele><time>2026-05-02T14:38:23Z</time></trkpt><trkpt lat="44.35128767914401" lon="7.798097544485524"><ele>469.0</ele><time>2026-05-02T14:38:24Z</time></trkpt><trkpt lat="44.35117928848942" lon="7.797846741399539"><ele>469.0</ele><time>2026-05-02T14:38:25Z</time></trkpt><trkpt lat="44.35105950413804" lon="7.797557570613562"><ele>469.0</ele><time>2026-05-02T14:38:26Z</time></trkpt><trkpt lat="44.35093104963345" lon="7.797264558231469"><ele>469.0</ele><time>2026-05-02T14:38:27Z</time></trkpt><trkpt lat="44.350807862498876" lon="7.796974665730038"><ele>469.0</ele><time>2026-05-02T14:38:28Z</time></trkpt><trkpt lat="44.35068035131783" lon="7.796675771998102"><ele>468.5</ele><time>2026-05-02T14:38:29Z</time></trkpt><trkpt lat="44.35053639729676" lon="7.7963480323955885"><ele>468.0</ele><time>2026-05-02T14:38:30Z</time></trkpt><trkpt lat="44.350398106055025" lon="7.796024421999737"><ele>469.0</ele><time>2026-05-02T14:38:31Z</time></trkpt><trkpt lat="44.350269890459536" lon="7.7957229306236835"><ele>470.0</ele><time>2026-05-02T14:38:32Z</time></trkpt><trkpt lat="44.35013240303809" lon="7.795432674262271"><ele>471.0</ele><time>2026-05-02T14:38:33Z</time></trkpt><trkpt lat="44.34998598679573" lon="7.795158588073222"><ele>472.0</ele><time>2026-05-02T14:38:34Z</time></trkpt><trkpt lat="44.34983857463353" lon="7.794899101998194"><ele>472.5</ele><time>2026-05-02T14:38:35Z</time></trkpt><trkpt lat="44.349686381921785" lon="7.794639754466088"><ele>473.0</ele><time>2026-05-02T14:38:36Z</time></trkpt><trkpt lat="44.34953132485349" lon="7.794385710772867"><ele>472.5</ele><time>2026-05-02T14:38:37Z</time></trkpt><trkpt lat="44.34936569599428" lon="7.794129962341415"><ele>472.0</ele><time>2026-05-02T14:38:38Z</time></trkpt><trkpt lat="44.34918892874937" lon="7.793871302410019"><ele>472.0</ele><time>2026-05-02T14:38:39Z</time></trkpt><trkpt lat="44.349009366510586" lon="7.793626528491485"><ele>472.0</ele><time>2026-05-02T14:38:40Z</time></trkpt><trkpt lat="44.34882975011218" lon="7.793391555483927"><ele>472.6666666666667</ele><time>2026-05-02T14:38:41Z</time></trkpt><trkpt lat="44.3486563733447" lon="7.793180229926757"><ele>473.33333333333337</ele><time>2026-05-02T14:38:42Z</time></trkpt><trkpt lat="44.348491816276706" lon="7.792989582675482"><ele>474.0</ele><time>2026-05-02T14:38:43Z</time></trkpt><trkpt lat="44.34833619581049" lon="7.792816503496564"><ele>474.33333333333337</ele><time>2026-05-02T14:38:44Z</time></trkpt><trkpt lat="44.34817795750331" lon="7.792634750007215"><ele>474.6666666666667</ele><time>2026-05-02T14:38:45Z</time></trkpt><trkpt lat="44.348011855617294" lon="7.792441812416744"><ele>475.0</ele><time>2026-05-02T14:38:46Z</time></trkpt><trkpt lat="44.34783341573605" lon="7.7922433960971045"><ele>475.0</ele><time>2026-05-02T14:38:47Z</time></trkpt><trkpt lat="44.34765491305865" lon="7.792047105349265"><ele>475.0</ele><time>2026-05-02T14:38:48Z</time></trkpt><trkpt lat="44.347484663233644" lon="7.791855303715329"><ele>475.0</ele><time>2026-05-02T14:38:49Z</time></trkpt><trkpt lat="44.34732304189587" lon="7.791670492934499"><ele>476.6666666666667</ele><time>2026-05-02T14:38:50Z</time></trkpt><trkpt lat="44.347162892039535" lon="7.791494056879712"><ele>478.33333333333337</ele><time>2026-05-02T14:38:51Z</time></trkpt><trkpt lat="44.34700481430937" lon="7.791311786695662"><ele>480.0</ele><time>2026-05-02T14:38:52Z</time></trkpt><trkpt lat="44.34685517562565" lon="7.791132746136122"><ele>480.0</ele><time>2026-05-02T14:38:53Z</time></trkpt><trkpt lat="44.346703322857955" lon="7.790947728463179"><ele>480.0</ele><time>2026-05-02T14:38:54Z</time></trkpt><trkpt lat="44.34653821798784" lon="7.790717756221869"><ele>480.0</ele><time>2026-05-02T14:38:55Z</time></trkpt><trkpt lat="44.34636999948857" lon="7.790482593275747"><ele>480.0</ele><time>2026-05-02T14:38:56Z</time></trkpt><trkpt lat="44.34619198885674" lon="7.79021127939108"><ele>480.0</ele><time>2026-05-02T14:38:57Z</time></trkpt><trkpt lat="44.34600866422826" lon="7.789899253487849"><ele>480.0</ele><time>2026-05-02T14:38:58Z</time></trkpt><trkpt lat="44.34581668274224" lon="7.789558157121425"><ele>480.0</ele><time>2026-05-02T14:38:59Z</time></trkpt><trkpt lat="44.345632697466066" lon="7.789203931747906"><ele>480.5</ele><time>2026-05-02T14:39:00Z</time></trkpt><trkpt lat="44.345439253579904" lon="7.788841639462698"><ele>481.0</ele><time>2026-05-02T14:39:01Z</time></trkpt><trkpt lat="44.345251557890435" lon="7.788480286213832"><ele>481.5</ele><time>2026-05-02T14:39:02Z</time></trkpt><trkpt lat="44.34506086276038" lon="7.788112341807402"><ele>482.0</ele><time>2026-05-02T14:39:03Z</time></trkpt><trkpt lat="44.34486251757247" lon="7.787737693767387"><ele>482.5</ele><time>2026-05-02T14:39:04Z</time></trkpt><trkpt lat="44.34466036306605" lon="7.787359450811426"><ele>483.0</ele><time>2026-05-02T14:39:05Z</time></trkpt><trkpt lat="44.344458255733855" lon="7.78697890285798"><ele>483.5</ele><time>2026-05-02T14:39:06Z</time></trkpt><trkpt lat="44.34426708203501" lon="7.786617967169024"><ele>484.0</ele><time>2026-05-02T14:39:07Z</time></trkpt><trkpt lat="44.34409053724224" lon="7.786281472962483"><ele>483.5</ele><time>2026-05-02T14:39:08Z</time></trkpt><trkpt lat="44.34392735724162" lon="7.785971626489386"><ele>483.0</ele><time>2026-05-02T14:39:09Z</time></trkpt><trkpt lat="44.34377178454241" lon="7.785676508288852"><ele>484.5</ele><time>2026-05-02T14:39:10Z</time></trkpt><trkpt lat="44.34360994115441" lon="7.785378168265208"><ele>486.0</ele><time>2026-05-02T14:39:11Z</time></trkpt><trkpt lat="44.343443716009084" lon="7.785064774617664"><ele>486.5</ele><time>2026-05-02T14:39:12Z</time></trkpt><trkpt lat="44.343266623144096" lon="7.784730300478648"><ele>487.0</ele><time>2026-05-02T14:39:13Z</time></trkpt><trkpt lat="44.34307180832275" lon="7.784369500648286"><ele>487.5</ele><time>2026-05-02T14:39:14Z</time></trkpt><trkpt lat="44.34286953587733" lon="7.783991742323761"><ele>488.0</ele><time>2026-05-02T14:39:15Z</time></trkpt><trkpt lat="44.34266622472942" lon="7.78361114262997"><ele>489.0</ele><time>2026-05-02T14:39:16Z</time></trkpt><trkpt lat="44.3424708764977" lon="7.7832396402012485"><ele>490.0</ele><time>2026-05-02T14:39:17Z</time></trkpt><trkpt lat="44.34227865683774" lon="7.782878586852257"><ele>490.5</ele><time>2026-05-02T14:39:18Z</time></trkpt><trkpt lat="44.34209145144101" lon="7.782526084950036"><ele>491.0</ele><time>2026-05-02T14:39:19Z</time></trkpt><trkpt lat="44.34191169004414" lon="7.782186078711767"><ele>491.0</ele><time>2026-05-02T14:39:20Z</time></trkpt><trkpt lat="44.341736406545834" lon="7.781853767649534"><ele>491.0</ele><time>2026-05-02T14:39:21Z</time></trkpt><trkpt lat="44.341561788392866" lon="7.7815155026871246"><ele>491.0</ele><time>2026-05-02T14:39:22Z</time></trkpt><trkpt lat="44.34138758981427" lon="7.78119079251229"><ele>491.0</ele><time>2026-05-02T14:39:23Z</time></trkpt><trkpt lat="44.341207802805286" lon="7.780844576296568"><ele>490.5</ele><time>2026-05-02T14:39:24Z</time></trkpt><trkpt lat="44.34104488351878" lon="7.780533303887877"><ele>490.0</ele><time>2026-05-02T14:39:25Z</time></trkpt><trkpt lat="44.34088626970498" lon="7.780230831015953"><ele>489.5</ele><time>2026-05-02T14:39:26Z</time></trkpt><trkpt lat="44.34073016321601" lon="7.779944020552417"><ele>489.0</ele><time>2026-05-02T14:39:27Z</time></trkpt><trkpt lat="44.34058741707752" lon="7.779677822734016"><ele>489.66666666666663</ele><time>2026-05-02T14:39:28Z</time></trkpt><trkpt lat="44.34046003325681" lon="7.779438493551692"><ele>490.3333333333333</ele><time>2026-05-02T14:39:29Z</time></trkpt><trkpt lat="44.340351816981276" lon="7.779240011612549"><ele>491.0</ele><time>2026-05-02T14:39:30Z</time></trkpt><trkpt lat="44.340259556244156" lon="7.779069291184542"><ele>491.25</ele><time>2026-05-02T14:39:31Z</time></trkpt><trkpt lat="44.34018000854024" lon="7.778917942859199"><ele>491.5</ele><time>2026-05-02T14:39:32Z</time></trkpt><trkpt lat="44.34010933553723" lon="7.778780592770345"><ele>491.75</ele><time>2026-05-02T14:39:33Z</time></trkpt><trkpt lat="44.340050788237086" lon="7.778650002192002"><ele>492.0</ele><time>2026-05-02T14:39:34Z</time></trkpt><trkpt lat="44.340002821206745" lon="7.77852682903747"><ele>492.0</ele><time>2026-05-02T14:39:35Z</time></trkpt><trkpt lat="44.3399852282632" lon="7.778410136609902"><ele>492.0</ele><time>2026-05-02T14:39:36Z</time></trkpt><trkpt lat="44.33998380358336" lon="7.778302570914773"><ele>492.0</ele><time>2026-05-02T14:39:37Z</time></trkpt><trkpt lat="44.34000370557932" lon="7.778203678044148"><ele>492.0</ele><time>2026-05-02T14:39:38Z</time></trkpt><trkpt lat="44.34001533112772" lon="7.7780941337078655"><ele>492.0</ele><time>2026-05-02T14:39:39Z</time></trkpt><trkpt lat="44.34013540069938" lon="7.7780266873275306"><ele>492.0</ele><time>2026-05-02T14:39:40Z</time></trkpt><trkpt lat="44.34025604574055" lon="7.777963103943989"><ele>492.0</ele><time>2026-05-02T14:39:41Z</time></trkpt><trkpt lat="44.34042332433063" lon="7.777904071041954"><ele>492.0</ele><time>2026-05-02T14:39:42Z</time></trkpt><trkpt lat="44.3406265334834" lon="7.777864682909616"><ele>492.0</ele><time>2026-05-02T14:39:43Z</time></trkpt><trkpt lat="44.34084936234941" lon="7.777823023892352"><ele>491.0</ele><time>2026-05-02T14:39:44Z</time></trkpt><trkpt lat="44.34106881492566" lon="7.777776688539898"><ele>490.0</ele><time>2026-05-02T14:39:45Z</time></trkpt><trkpt lat="44.34129254615488" lon="7.777738535967802"><ele>489.0</ele><time>2026-05-02T14:39:46Z</time></trkpt><trkpt lat="44.34153181631785" lon="7.777708268135279"><ele>491.0</ele><time>2026-05-02T14:39:47Z</time></trkpt><trkpt lat="44.34177805560242" lon="7.77766767826776"><ele>493.0</ele><time>2026-05-02T14:39:48Z</time></trkpt><trkpt lat="44.34201216973724" lon="7.777634203487655"><ele>494.5</ele><time>2026-05-02T14:39:49Z</time></trkpt><trkpt lat="44.342245120245714" lon="7.777603528122099"><ele>496.0</ele><time>2026-05-02T14:39:50Z</time></trkpt><trkpt lat="44.342460323526666" lon="7.7775699341028375"><ele>496.0</ele><time>2026-05-02T14:39:51Z</time></trkpt><trkpt lat="44.34265319312794" lon="7.777538018984833"><ele>496.0</ele><time>2026-05-02T14:39:52Z</time></trkpt><trkpt lat="44.34283385796309" lon="7.777511595134171"><ele>496.0</ele><time>2026-05-02T14:39:53Z</time></trkpt><trkpt lat="44.34300419421223" lon="7.777488823364724"><ele>495.6666666666667</ele><time>2026-05-02T14:39:54Z</time></trkpt><trkpt lat="44.343167763670344" lon="7.777467101843262"><ele>495.33333333333337</ele><time>2026-05-02T14:39:55Z</time></trkpt><trkpt lat="44.34332210553478" lon="7.777447636889407"><ele>495.0</ele><time>2026-05-02T14:39:56Z</time></trkpt><trkpt lat="44.34346487883475" lon="7.777419152320155"><ele>495.0</ele><time>2026-05-02T14:39:57Z</time></trkpt><trkpt lat="44.3435960958878" lon="7.777385115936706"><ele>495.0</ele><time>2026-05-02T14:39:58Z</time></trkpt><trkpt lat="44.34372244097142" lon="7.777343217585229"><ele>495.0</ele><time>2026-05-02T14:39:59Z</time></trkpt><trkpt lat="44.34384698526031" lon="7.777300069037736"><ele>495.0</ele><time>2026-05-02T14:40:00Z</time></trkpt><trkpt lat="44.343988737010605" lon="7.777237632642308"><ele>496.0</ele><time>2026-05-02T14:40:01Z</time></trkpt><trkpt lat="44.34415322448212" lon="7.77714976219615"><ele>497.0</ele><time>2026-05-02T14:40:02Z</time></trkpt><trkpt lat="44.34434117922058" lon="7.777049133786106"><ele>498.0</ele><time>2026-05-02T14:40:03Z</time></trkpt><trkpt lat="44.344549341943285" lon="7.776939071561235"><ele>500.66666666666663</ele><time>2026-05-02T14:40:04Z</time></trkpt><trkpt lat="44.344750096433096" lon="7.776807667966416"><ele>503.3333333333333</ele><time>2026-05-02T14:40:05Z</time></trkpt><trkpt lat="44.34494222741774" lon="7.776656046298297"><ele>506.0</ele><time>2026-05-02T14:40:06Z</time></trkpt><trkpt lat="44.34512920745476" lon="7.776499723630414"><ele>506.0</ele><time>2026-05-02T14:40:07Z</time></trkpt><trkpt lat="44.3452982544721" lon="7.77636339699316"><ele>506.0</ele><time>2026-05-02T14:40:08Z</time></trkpt><trkpt lat="44.34546175629322" lon="7.776227740017892"><ele>506.0</ele><time>2026-05-02T14:40:09Z</time></trkpt><trkpt lat="44.34563006799525" lon="7.776076778766886"><ele>506.66666666666663</ele><time>2026-05-02T14:40:10Z</time></trkpt><trkpt lat="44.34579629204279" lon="7.775921027466046"><ele>507.33333333333337</ele><time>2026-05-02T14:40:11Z</time></trkpt><trkpt lat="44.345964221326376" lon="7.775763942014539"><ele>508.0</ele><time>2026-05-02T14:40:12Z</time></trkpt><trkpt lat="44.34611794291685" lon="7.775613905787688"><ele>508.0</ele><time>2026-05-02T14:40:13Z</time></trkpt><trkpt lat="44.346262170228194" lon="7.7754528428990435"><ele>508.0</ele><time>2026-05-02T14:40:14Z</time></trkpt><trkpt lat="44.34638819952885" lon="7.775291300745205"><ele>508.0</ele><time>2026-05-02T14:40:15Z</time></trkpt><trkpt lat="44.34650791699751" lon="7.775127772147043"><ele>507.6666666666667</ele><time>2026-05-02T14:40:16Z</time></trkpt><trkpt lat="44.34662080052844" lon="7.774961739039257"><ele>507.33333333333337</ele><time>2026-05-02T14:40:17Z</time></trkpt><trkpt lat="44.34672985046088" lon="7.774782945484787"><ele>507.0</ele><time>2026-05-02T14:40:18Z</time></trkpt><trkpt lat="44.34682875001264" lon="7.77459493258349"><ele>507.0</ele><time>2026-05-02T14:40:19Z</time></trkpt><trkpt lat="44.346914516744356" lon="7.774421789754451"><ele>507.0</ele><time>2026-05-02T14:40:20Z</time></trkpt><trkpt lat="44.346994248195664" lon="7.774237513225857"><ele>507.0</ele><time>2026-05-02T14:40:21Z</time></trkpt><trkpt lat="44.347067964749584" lon="7.774037010519582"><ele>507.0</ele><time>2026-05-02T14:40:22Z</time></trkpt><trkpt lat="44.34713135129248" lon="7.773840515913199"><ele>507.0</ele><time>2026-05-02T14:40:23Z</time></trkpt><trkpt lat="44.34719388587485" lon="7.773622935245514"><ele>507.0</ele><time>2026-05-02T14:40:24Z</time></trkpt><trkpt lat="44.347257070918246" lon="7.773379677114841"><ele>507.0</ele><time>2026-05-02T14:40:25Z</time></trkpt><trkpt lat="44.34731677765968" lon="7.7731304547080455"><ele>507.0</ele><time>2026-05-02T14:40:26Z</time></trkpt><trkpt lat="44.347392355532044" lon="7.772843569833361"><ele>507.0</ele><time>2026-05-02T14:40:27Z</time></trkpt><trkpt lat="44.34748099072986" lon="7.772567942514623"><ele>507.33333333333337</ele><time>2026-05-02T14:40:28Z</time></trkpt><trkpt lat="44.34755324104977" lon="7.772326491397427"><ele>507.6666666666667</ele><time>2026-05-02T14:40:29Z</time></trkpt><trkpt lat="44.34762145423397" lon="7.772111094992251"><ele>508.0</ele><time>2026-05-02T14:40:30Z</time></trkpt><trkpt lat="44.34768101782717" lon="7.7719281569914695"><ele>508.1666666666667</ele><time>2026-05-02T14:40:31Z</time></trkpt><trkpt lat="44.347732892026606" lon="7.771791191112701"><ele>508.33333333333337</ele><time>2026-05-02T14:40:32Z</time></trkpt><trkpt lat="44.34778366072807" lon="7.771697847391443"><ele>508.5</ele><time>2026-05-02T14:40:33Z</time></trkpt><trkpt lat="44.34784300401675" lon="7.771624482352653"><ele>508.66666666666663</ele><time>2026-05-02T14:40:34Z</time></trkpt><trkpt lat="44.34791077579125" lon="7.771573797555281"><ele>508.8333333333333</ele><time>2026-05-02T14:40:35Z</time></trkpt><trkpt lat="44.34797370337445" lon="7.771544243756731"><ele>509.0</ele><time>2026-05-02T14:40:36Z</time></trkpt><trkpt lat="44.348047376144876" lon="7.771394057874762"><ele>509.0</ele><time>2026-05-02T14:40:38Z</time></trkpt><trkpt lat="44.348003702242934" lon="7.771201550382792"><ele>509.0</ele><time>2026-05-02T14:40:40Z</time></trkpt><trkpt lat="44.34793703215506" lon="7.771104566583566"><ele>509.0</ele><time>2026-05-02T14:40:41Z</time></trkpt><trkpt lat="44.34786831804009" lon="7.771013330993565"><ele>509.0</ele><time>2026-05-02T14:40:42Z</time></trkpt><trkpt lat="44.347817589535865" lon="7.770918958001327"><ele>509.0</ele><time>2026-05-02T14:40:43Z</time></trkpt><trkpt lat="44.34778651117762" lon="7.770809602198367"><ele>509.66666666666663</ele><time>2026-05-02T14:40:44Z</time></trkpt><trkpt lat="44.347763955905336" lon="7.770706704310021"><ele>510.3333333333333</ele><time>2026-05-02T14:40:45Z</time></trkpt><trkpt lat="44.34775345815741" lon="7.770613687238492"><ele>511.0</ele><time>2026-05-02T14:40:46Z</time></trkpt><trkpt lat="44.34775566487084" lon="7.770515911481317"><ele>511.66666666666663</ele><time>2026-05-02T14:40:47Z</time></trkpt><trkpt lat="44.347770099881956" lon="7.770402242354596"><ele>512.3333333333334</ele><time>2026-05-02T14:40:48Z</time></trkpt><trkpt lat="44.34775206865114" lon="7.770287954938868"><ele>513.0</ele><time>2026-05-02T14:40:49Z</time></trkpt><trkpt lat="44.34771853944252" lon="7.770182125632757"><ele>513.5</ele><time>2026-05-02T14:40:50Z</time></trkpt><trkpt lat="44.347668347610814" lon="7.7701179924474815"><ele>514.0</ele><time>2026-05-02T14:40:51Z</time></trkpt><trkpt lat="44.34760504146639" lon="7.7700707214005"><ele>514.5</ele><time>2026-05-02T14:40:52Z</time></trkpt><trkpt lat="44.34754242491747" lon="7.770030096061615"><ele>515.0</ele><time>2026-05-02T14:40:53Z</time></trkpt><trkpt lat="44.347476609662685" lon="7.769973813620281"><ele>515.5</ele><time>2026-05-02T14:40:54Z</time></trkpt><trkpt lat="44.347414724089646" lon="7.769878377452178"><ele>516.0</ele><time>2026-05-02T14:40:55Z</time></trkpt><trkpt lat="44.34735765399018" lon="7.769762725956677"><ele>516.0</ele><time>2026-05-02T14:40:56Z</time></trkpt><trkpt lat="44.34730326138344" lon="7.769646476929195"><ele>516.0</ele><time>2026-05-02T14:40:57Z</time></trkpt><trkpt lat="44.34725047381639" lon="7.7695318031449165"><ele>516.0</ele><time>2026-05-02T14:40:58Z</time></trkpt><trkpt lat="44.347200663509426" lon="7.769419504649432"><ele>516.0</ele><time>2026-05-02T14:40:59Z</time></trkpt><trkpt lat="44.34715315968687" lon="7.7693088666546775"><ele>516.0</ele><time>2026-05-02T14:41:00Z</time></trkpt><trkpt lat="44.347104284974584" lon="7.769202069089736"><ele>516.4</ele><time>2026-05-02T14:41:01Z</time></trkpt><trkpt lat="44.34705142967055" lon="7.769089670202061"><ele>516.8</ele><time>2026-05-02T14:41:02Z</time></trkpt><trkpt lat="44.34699364947587" lon="7.768969427174316"><ele>517.1999999999999</ele><time>2026-05-02T14:41:03Z</time></trkpt><trkpt lat="44.346931269996" lon="7.768857308767986"><ele>517.6</ele><time>2026-05-02T14:41:04Z</time></trkpt><trkpt lat="44.346872264963515" lon="7.768728339512313"><ele>518.0</ele><time>2026-05-02T14:41:05Z</time></trkpt><trkpt lat="44.34681134817122" lon="7.768583761277938"><ele>518.75</ele><time>2026-05-02T14:41:06Z</time></trkpt><trkpt lat="44.34674971406679" lon="7.768439076038926"><ele>519.5</ele><time>2026-05-02T14:41:07Z</time></trkpt><trkpt lat="44.346681363793714" lon="7.768307100337225"><ele>520.25</ele><time>2026-05-02T14:41:08Z</time></trkpt><trkpt lat="44.346618266300254" lon="7.768167623410825"><ele>521.0</ele><time>2026-05-02T14:41:09Z</time></trkpt><trkpt lat="44.346551235052" lon="7.768027968814571"><ele>521.0</ele><time>2026-05-02T14:41:10Z</time></trkpt><trkpt lat="44.346486512574145" lon="7.767900055567965"><ele>521.0</ele><time>2026-05-02T14:41:11Z</time></trkpt><trkpt lat="44.34642894479356" lon="7.767768975664643"><ele>521.0</ele><time>2026-05-02T14:41:12Z</time></trkpt><trkpt lat="44.34636259682127" lon="7.7676318234999115"><ele>521.0</ele><time>2026-05-02T14:41:13Z</time></trkpt><trkpt lat="44.3462876442903" lon="7.767478768425035"><ele>521.2</ele><time>2026-05-02T14:41:14Z</time></trkpt><trkpt lat="44.34622059504199" lon="7.76734439860779"><ele>521.4000000000001</ele><time>2026-05-02T14:41:15Z</time></trkpt><trkpt lat="44.34615700480286" lon="7.7672287217834715"><ele>521.6</ele><time>2026-05-02T14:41:16Z</time></trkpt><trkpt lat="44.34608658220458" lon="7.767129169149148"><ele>521.8000000000001</ele><time>2026-05-02T14:41:17Z</time></trkpt><trkpt lat="44.34599870981165" lon="7.767043190845802"><ele>522.0</ele><time>2026-05-02T14:41:18Z</time></trkpt><trkpt lat="44.34590343709756" lon="7.766962367496457"><ele>522.0</ele><time>2026-05-02T14:41:19Z</time></trkpt><trkpt lat="44.345809814535194" lon="7.766893976135876"><ele>522.0</ele><time>2026-05-02T14:41:20Z</time></trkpt><trkpt lat="44.345713032877576" lon="7.766840288365391"><ele>522.0</ele><time>2026-05-02T14:41:21Z</time></trkpt><trkpt lat="44.34560322849007" lon="7.76679388122107"><ele>522.0</ele><time>2026-05-02T14:41:22Z</time></trkpt><trkpt lat="44.34548099625162" lon="7.766764558858044"><ele>522.0</ele><time>2026-05-02T14:41:23Z</time></trkpt><trkpt lat="44.345319777926264" lon="7.766726287819783"><ele>522.3333333333334</ele><time>2026-05-02T14:41:24Z</time></trkpt><trkpt lat="44.34511623493907" lon="7.766728783598001"><ele>522.6666666666667</ele><time>2026-05-02T14:41:25Z</time></trkpt><trkpt lat="44.34493375524072" lon="7.766738994327046"><ele>523.0</ele><time>2026-05-02T14:41:26Z</time></trkpt><trkpt lat="44.34477932343528" lon="7.766747635624335"><ele>522.75</ele><time>2026-05-02T14:41:27Z</time></trkpt><trkpt lat="44.34463598387953" lon="7.7667576803779514"><ele>522.5</ele><time>2026-05-02T14:41:28Z</time></trkpt><trkpt lat="44.34450647358165" lon="7.766767579774657"><ele>522.25</ele><time>2026-05-02T14:41:29Z</time></trkpt><trkpt lat="44.34439776873135" lon="7.766798277227541"><ele>522.0</ele><time>2026-05-02T14:41:30Z</time></trkpt><trkpt lat="44.34430074869226" lon="7.766781877274357"><ele>522.0</ele><time>2026-05-02T14:41:31Z</time></trkpt><trkpt lat="44.3441924452107" lon="7.766788838894378"><ele>522.0</ele><time>2026-05-02T14:41:32Z</time></trkpt><trkpt lat="44.34407501463803" lon="7.766796387223607"><ele>522.0</ele><time>2026-05-02T14:41:33Z</time></trkpt><trkpt lat="44.34395415540844" lon="7.766802846640268"><ele>522.0</ele><time>2026-05-02T14:41:34Z</time></trkpt><trkpt lat="44.34383007882117" lon="7.766808600376882"><ele>521.5</ele><time>2026-05-02T14:41:35Z</time></trkpt><trkpt lat="44.34369339758662" lon="7.766831672904602"><ele>521.0</ele><time>2026-05-02T14:41:36Z</time></trkpt><trkpt lat="44.34355788572018" lon="7.766811262842792"><ele>520.5</ele><time>2026-05-02T14:41:37Z</time></trkpt><trkpt lat="44.34343481455134" lon="7.766772740022581"><ele>520.0</ele><time>2026-05-02T14:41:38Z</time></trkpt><trkpt lat="44.3433221664179" lon="7.766717717137382"><ele>520.0</ele><time>2026-05-02T14:41:39Z</time></trkpt><trkpt lat="44.34321779739122" lon="7.766635742641557"><ele>520.0</ele><time>2026-05-02T14:41:40Z</time></trkpt><trkpt lat="44.34309981177344" lon="7.7665329333283175"><ele>520.0</ele><time>2026-05-02T14:41:41Z</time></trkpt><trkpt lat="44.342977821124414" lon="7.766397763584977"><ele>520.0</ele><time>2026-05-02T14:41:42Z</time></trkpt><trkpt lat="44.342860732262295" lon="7.766235986930139"><ele>519.3333333333334</ele><time>2026-05-02T14:41:43Z</time></trkpt><trkpt lat="44.34274685895101" lon="7.766047202658414"><ele>518.6666666666666</ele><time>2026-05-02T14:41:44Z</time></trkpt><trkpt lat="44.34261300031056" lon="7.765821680617096"><ele>518.0</ele><time>2026-05-02T14:41:45Z</time></trkpt><trkpt lat="44.34248480641953" lon="7.765581341162418"><ele>518.0</ele><time>2026-05-02T14:41:46Z</time></trkpt><trkpt lat="44.342357263306866" lon="7.765355283586854"><ele>518.0</ele><time>2026-05-02T14:41:47Z</time></trkpt><trkpt lat="44.342234884189395" lon="7.7651490897448125"><ele>518.0</ele><time>2026-05-02T14:41:48Z</time></trkpt><trkpt lat="44.34210895625587" lon="7.764935633857953"><ele>517.3333333333333</ele><time>2026-05-02T14:41:49Z</time></trkpt><trkpt lat="44.34197506154411" lon="7.7647358822760895"><ele>516.6666666666666</ele><time>2026-05-02T14:41:50Z</time></trkpt><trkpt lat="44.34183546069678" lon="7.764549428932511"><ele>516.0</ele><time>2026-05-02T14:41:51Z</time></trkpt><trkpt lat="44.34168842230862" lon="7.764366302551139"><ele>515.6666666666666</ele><time>2026-05-02T14:41:52Z</time></trkpt><trkpt lat="44.34151770413162" lon="7.764179440154464"><ele>515.3333333333333</ele><time>2026-05-02T14:41:53Z</time></trkpt><trkpt lat="44.341358696595286" lon="7.763990156657294"><ele>515.0</ele><time>2026-05-02T14:41:54Z</time></trkpt><trkpt lat="44.34120856032921" lon="7.763847789820709"><ele>515.0</ele><time>2026-05-02T14:41:55Z</time></trkpt><trkpt lat="44.34106387935664" lon="7.763715711783683"><ele>515.0</ele><time>2026-05-02T14:41:56Z</time></trkpt><trkpt lat="44.34091102580896" lon="7.763562083516611"><ele>515.0</ele><time>2026-05-02T14:41:57Z</time></trkpt><trkpt lat="44.34077148349689" lon="7.763442272114093"><ele>515.0</ele><time>2026-05-02T14:41:58Z</time></trkpt><trkpt lat="44.34065059156116" lon="7.7633375104251945"><ele>515.0</ele><time>2026-05-02T14:41:59Z</time></trkpt><trkpt lat="44.340540259226316" lon="7.7632411041741705"><ele>515.0</ele><time>2026-05-02T14:42:00Z</time></trkpt><trkpt lat="44.34043201551055" lon="7.763149472940037"><ele>515.0</ele><time>2026-05-02T14:42:01Z</time></trkpt><trkpt lat="44.340313651480365" lon="7.763052265107483"><ele>515.0</ele><time>2026-05-02T14:42:02Z</time></trkpt><trkpt lat="44.34018336159753" lon="7.762951450174728"><ele>515.0</ele><time>2026-05-02T14:42:03Z</time></trkpt><trkpt lat="44.3400610739513" lon="7.762864064220635"><ele>515.0</ele><time>2026-05-02T14:42:04Z</time></trkpt><trkpt lat="44.33992453755863" lon="7.762762519589376"><ele>515.0</ele><time>2026-05-02T14:42:05Z</time></trkpt><trkpt lat="44.33979413607949" lon="7.762667355746309"><ele>517.3333333333333</ele><time>2026-05-02T14:42:06Z</time></trkpt><trkpt lat="44.339656627307264" lon="7.76257214052581"><ele>519.6666666666666</ele><time>2026-05-02T14:42:07Z</time></trkpt><trkpt lat="44.339514208935654" lon="7.762471021889642"><ele>522.0</ele><time>2026-05-02T14:42:08Z</time></trkpt><trkpt lat="44.339371651146195" lon="7.762372099271713"><ele>522.0</ele><time>2026-05-02T14:42:09Z</time></trkpt><trkpt lat="44.33922272908092" lon="7.762266123068634"><ele>522.0</ele><time>2026-05-02T14:42:10Z</time></trkpt><trkpt lat="44.339068353336785" lon="7.762151940073565"><ele>522.0</ele><time>2026-05-02T14:42:11Z</time></trkpt><trkpt lat="44.33890657615951" lon="7.762036480097579"><ele>521.6666666666666</ele><time>2026-05-02T14:42:12Z</time></trkpt><trkpt lat="44.33874242752785" lon="7.761913935624074"><ele>521.3333333333333</ele><time>2026-05-02T14:42:13Z</time></trkpt><trkpt lat="44.338569599302865" lon="7.76179385767246"><ele>521.0</ele><time>2026-05-02T14:42:14Z</time></trkpt><trkpt lat="44.33839296338163" lon="7.761666794861077"><ele>521.0</ele><time>2026-05-02T14:42:15Z</time></trkpt><trkpt lat="44.33820798776659" lon="7.76153178585928"><ele>521.0</ele><time>2026-05-02T14:42:16Z</time></trkpt><trkpt lat="44.3380153985506" lon="7.761391023070339"><ele>521.0</ele><time>2026-05-02T14:42:17Z</time></trkpt><trkpt lat="44.33780401311746" lon="7.76123356687332"><ele>521.0</ele><time>2026-05-02T14:42:18Z</time></trkpt><trkpt lat="44.337610269205264" lon="7.761090067032932"><ele>521.0</ele><time>2026-05-02T14:42:19Z</time></trkpt><trkpt lat="44.337440427124676" lon="7.760968416668643"><ele>521.0</ele><time>2026-05-02T14:42:20Z</time></trkpt><trkpt lat="44.337284004823026" lon="7.760863307478198"><ele>520.3333333333333</ele><time>2026-05-02T14:42:21Z</time></trkpt><trkpt lat="44.33713453324544" lon="7.760757371644746"><ele>519.6666666666666</ele><time>2026-05-02T14:42:22Z</time></trkpt><trkpt lat="44.336982494370694" lon="7.760639491587429"><ele>519.0</ele><time>2026-05-02T14:42:23Z</time></trkpt><trkpt lat="44.33684725055999" lon="7.760519770809687"><ele>519.0</ele><time>2026-05-02T14:42:24Z</time></trkpt><trkpt lat="44.33673273739217" lon="7.76040199771701"><ele>519.0</ele><time>2026-05-02T14:42:25Z</time></trkpt><trkpt lat="44.336614543916866" lon="7.760258955952672"><ele>519.0</ele><time>2026-05-02T14:42:26Z</time></trkpt><trkpt lat="44.33650970418439" lon="7.760052637406559"><ele>519.0</ele><time>2026-05-02T14:42:27Z</time></trkpt><trkpt lat="44.33638424208325" lon="7.759773864635651"><ele>519.0</ele><time>2026-05-02T14:42:28Z</time></trkpt><trkpt lat="44.336279980381626" lon="7.75955620408263"><ele>519.0</ele><time>2026-05-02T14:42:29Z</time></trkpt><trkpt lat="44.336191747279784" lon="7.759333642006736"><ele>519.6666666666666</ele><time>2026-05-02T14:42:30Z</time></trkpt><trkpt lat="44.33608978706273" lon="7.759136666810401"><ele>520.3333333333333</ele><time>2026-05-02T14:42:31Z</time></trkpt><trkpt lat="44.33594701182684" lon="7.758936671371488"><ele>521.0</ele><time>2026-05-02T14:42:32Z</time></trkpt><trkpt lat="44.33576006539691" lon="7.758735856439486"><ele>521.5</ele><time>2026-05-02T14:42:33Z</time></trkpt><trkpt lat="44.33554208930892" lon="7.758523826432296"><ele>522.0</ele><time>2026-05-02T14:42:34Z</time></trkpt><trkpt lat="44.33532293257584" lon="7.75833327505307"><ele>522.0</ele><time>2026-05-02T14:42:35Z</time></trkpt><trkpt lat="44.335115661372505" lon="7.7581407797717725"><ele>522.0</ele><time>2026-05-02T14:42:36Z</time></trkpt><trkpt lat="44.33491974040858" lon="7.7579530457226396"><ele>521.5</ele><time>2026-05-02T14:42:37Z</time></trkpt><trkpt lat="44.3347174010295" lon="7.75775743000399"><ele>521.0</ele><time>2026-05-02T14:42:38Z</time></trkpt><trkpt lat="44.33451231966856" lon="7.757562352641586"><ele>523.0</ele><time>2026-05-02T14:42:39Z</time></trkpt><trkpt lat="44.334328256724845" lon="7.757397981822123"><ele>525.0</ele><time>2026-05-02T14:42:40Z</time></trkpt><trkpt lat="44.33415651948093" lon="7.7572439825719215"><ele>527.0</ele><time>2026-05-02T14:42:41Z</time></trkpt><trkpt lat="44.3339816344713" lon="7.757079249417438"><ele>526.0</ele><time>2026-05-02T14:42:42Z</time></trkpt><trkpt lat="44.33380461158391" lon="7.756888622921802"><ele>525.0</ele><time>2026-05-02T14:42:43Z</time></trkpt><trkpt lat="44.333613749839316" lon="7.756673113377641"><ele>527.0</ele><time>2026-05-02T14:42:44Z</time></trkpt><trkpt lat="44.333411229459536" lon="7.75642215321187"><ele>529.0</ele><time>2026-05-02T14:42:45Z</time></trkpt><trkpt lat="44.33321076109053" lon="7.756173501920731"><ele>529.5</ele><time>2026-05-02T14:42:46Z</time></trkpt><trkpt lat="44.333023654096415" lon="7.755953415935318"><ele>530.0</ele><time>2026-05-02T14:42:47Z</time></trkpt><trkpt lat="44.332842058065644" lon="7.755739541394576"><ele>530.0</ele><time>2026-05-02T14:42:48Z</time></trkpt><trkpt lat="44.33265715254498" lon="7.755523852340773"><ele>530.0</ele><time>2026-05-02T14:42:49Z</time></trkpt><trkpt lat="44.332470487776305" lon="7.755295963370329"><ele>529.5</ele><time>2026-05-02T14:42:50Z</time></trkpt><trkpt lat="44.33227888123733" lon="7.755061856510028"><ele>529.0</ele><time>2026-05-02T14:42:51Z</time></trkpt><trkpt lat="44.33208433715335" lon="7.754835760018859"><ele>529.0</ele><time>2026-05-02T14:42:52Z</time></trkpt><trkpt lat="44.331875705568734" lon="7.754598402625862"><ele>529.0</ele><time>2026-05-02T14:42:53Z</time></trkpt><trkpt lat="44.331672347987684" lon="7.754377518388668"><ele>530.0</ele><time>2026-05-02T14:42:54Z</time></trkpt><trkpt lat="44.331482842004085" lon="7.754164787414016"><ele>531.0</ele><time>2026-05-02T14:42:55Z</time></trkpt><trkpt lat="44.33128710748455" lon="7.753951719142121"><ele>531.0</ele><time>2026-05-02T14:42:56Z</time></trkpt><trkpt lat="44.33108016930679" lon="7.753736780454986"><ele>531.0</ele><time>2026-05-02T14:42:57Z</time></trkpt><trkpt lat="44.33087220147445" lon="7.753508997904291"><ele>531.0</ele><time>2026-05-02T14:42:58Z</time></trkpt><trkpt lat="44.33067086925718" lon="7.753289938419792"><ele>531.0</ele><time>2026-05-02T14:42:59Z</time></trkpt><trkpt lat="44.330467048128796" lon="7.753069586886019"><ele>531.0</ele><time>2026-05-02T14:43:00Z</time></trkpt><trkpt lat="44.330255702630176" lon="7.75284045632657"><ele>531.0</ele><time>2026-05-02T14:43:01Z</time></trkpt><trkpt lat="44.33004915056218" lon="7.752625146852532"><ele>534.0</ele><time>2026-05-02T14:43:02Z</time></trkpt><trkpt lat="44.32984131732743" lon="7.7524040259052995"><ele>537.0</ele><time>2026-05-02T14:43:03Z</time></trkpt><trkpt lat="44.329631531470675" lon="7.752176255149679"><ele>537.5</ele><time>2026-05-02T14:43:04Z</time></trkpt><trkpt lat="44.32939395868087" lon="7.751916292036729"><ele>538.0</ele><time>2026-05-02T14:43:05Z</time></trkpt><trkpt lat="44.32917082157506" lon="7.751667017817298"><ele>539.5</ele><time>2026-05-02T14:43:06Z</time></trkpt><trkpt lat="44.32896069379276" lon="7.751432758869144"><ele>541.0</ele><time>2026-05-02T14:43:07Z</time></trkpt><trkpt lat="44.3287653861415" lon="7.75122172566257"><ele>541.6666666666667</ele><time>2026-05-02T14:43:08Z</time></trkpt><trkpt lat="44.32858574862141" lon="7.7510270389480524"><ele>542.3333333333334</ele><time>2026-05-02T14:43:09Z</time></trkpt><trkpt lat="44.328418190389776" lon="7.750844001478758"><ele>543.0</ele><time>2026-05-02T14:43:10Z</time></trkpt><trkpt lat="44.32825182037539" lon="7.7506588700312085"><ele>543.0</ele><time>2026-05-02T14:43:11Z</time></trkpt><trkpt lat="44.328080133898204" lon="7.750473201653563"><ele>543.0</ele><time>2026-05-02T14:43:12Z</time></trkpt><trkpt lat="44.32790555825962" lon="7.750288308378581"><ele>543.0</ele><time>2026-05-02T14:43:13Z</time></trkpt><trkpt lat="44.327725842029274" lon="7.750099940951545"><ele>545.5</ele><time>2026-05-02T14:43:14Z</time></trkpt><trkpt lat="44.32753502886492" lon="7.749912814533303"><ele>548.0</ele><time>2026-05-02T14:43:15Z</time></trkpt><trkpt lat="44.32733403453477" lon="7.749723901183015"><ele>548.5</ele><time>2026-05-02T14:43:16Z</time></trkpt><trkpt lat="44.32712303049729" lon="7.749535441307664"><ele>549.0</ele><time>2026-05-02T14:43:17Z</time></trkpt><trkpt lat="44.32690507496809" lon="7.749343370683306"><ele>549.0</ele><time>2026-05-02T14:43:18Z</time></trkpt><trkpt lat="44.326681895754156" lon="7.749151688055197"><ele>549.0</ele><time>2026-05-02T14:43:19Z</time></trkpt><trkpt lat="44.32645298182444" lon="7.748958227487736"><ele>550.5</ele><time>2026-05-02T14:43:20Z</time></trkpt><trkpt lat="44.32621482401289" lon="7.748763829205325"><ele>552.0</ele><time>2026-05-02T14:43:21Z</time></trkpt><trkpt lat="44.325960614625366" lon="7.748571382551383"><ele>551.5</ele><time>2026-05-02T14:43:22Z</time></trkpt><trkpt lat="44.325687871924245" lon="7.748376245929837"><ele>551.0</ele><time>2026-05-02T14:43:23Z</time></trkpt><trkpt lat="44.32540488173265" lon="7.748171473163433"><ele>553.0</ele><time>2026-05-02T14:43:24Z</time></trkpt><trkpt lat="44.32511897990424" lon="7.747962675407408"><ele>555.0</ele><time>2026-05-02T14:43:25Z</time></trkpt><trkpt lat="44.32484232441232" lon="7.747758232803322"><ele>555.5</ele><time>2026-05-02T14:43:26Z</time></trkpt><trkpt lat="44.32456725024721" lon="7.74755735362137"><ele>556.0</ele><time>2026-05-02T14:43:27Z</time></trkpt><trkpt lat="44.324301369474504" lon="7.747358138815075"><ele>556.0</ele><time>2026-05-02T14:43:28Z</time></trkpt><trkpt lat="44.32404111757557" lon="7.747163257539331"><ele>556.0</ele><time>2026-05-02T14:43:29Z</time></trkpt><trkpt lat="44.32378927206619" lon="7.746977295714075"><ele>558.5</ele><time>2026-05-02T14:43:30Z</time></trkpt><trkpt lat="44.323553537060086" lon="7.746802020029485"><ele>561.0</ele><time>2026-05-02T14:43:31Z</time></trkpt><trkpt lat="44.323325503548794" lon="7.746633846145095"><ele>561.0</ele><time>2026-05-02T14:43:32Z</time></trkpt><trkpt lat="44.3231219192194" lon="7.746480101529787"><ele>561.0</ele><time>2026-05-02T14:43:33Z</time></trkpt><trkpt lat="44.32291454465062" lon="7.746322877977509"><ele>561.5</ele><time>2026-05-02T14:43:34Z</time></trkpt><trkpt lat="44.322705504997266" lon="7.7461666491690835"><ele>562.0</ele><time>2026-05-02T14:43:35Z</time></trkpt><trkpt lat="44.32249661673493" lon="7.746012955013423"><ele>563.0</ele><time>2026-05-02T14:43:36Z</time></trkpt><trkpt lat="44.322296682184266" lon="7.745862943752916"><ele>564.0</ele><time>2026-05-02T14:43:37Z</time></trkpt><trkpt lat="44.32209028091027" lon="7.7457068419776025"><ele>564.5</ele><time>2026-05-02T14:43:38Z</time></trkpt><trkpt lat="44.32188463692548" lon="7.745552821980269"><ele>565.0</ele><time>2026-05-02T14:43:39Z</time></trkpt><trkpt lat="44.32167962877191" lon="7.745393521780371"><ele>565.0</ele><time>2026-05-02T14:43:40Z</time></trkpt><trkpt lat="44.32147187719848" lon="7.745235934477472"><ele>565.0</ele><time>2026-05-02T14:43:41Z</time></trkpt><trkpt lat="44.32126512651561" lon="7.745085854030745"><ele>566.0</ele><time>2026-05-02T14:43:42Z</time></trkpt><trkpt lat="44.32105284830643" lon="7.744927049423036"><ele>567.0</ele><time>2026-05-02T14:43:43Z</time></trkpt><trkpt lat="44.32084249848972" lon="7.744770304597695"><ele>567.0</ele><time>2026-05-02T14:43:44Z</time></trkpt><trkpt lat="44.32061437531726" lon="7.744603113586125"><ele>567.0</ele><time>2026-05-02T14:43:45Z</time></trkpt><trkpt lat="44.32038068249783" lon="7.744431416823154"><ele>568.0</ele><time>2026-05-02T14:43:46Z</time></trkpt><trkpt lat="44.32015466121782" lon="7.744268419298516"><ele>569.0</ele><time>2026-05-02T14:43:47Z</time></trkpt><trkpt lat="44.31995339430617" lon="7.744115901197062"><ele>569.0</ele><time>2026-05-02T14:43:48Z</time></trkpt><trkpt lat="44.31976385827191" lon="7.743975101003464"><ele>569.0</ele><time>2026-05-02T14:43:49Z</time></trkpt><trkpt lat="44.31956773694499" lon="7.743829474293126"><ele>569.0</ele><time>2026-05-02T14:43:50Z</time></trkpt><trkpt lat="44.319370351029896" lon="7.743679691202756"><ele>570.3333333333333</ele><time>2026-05-02T14:43:51Z</time></trkpt><trkpt lat="44.31919052252592" lon="7.74354290298107"><ele>571.6666666666666</ele><time>2026-05-02T14:43:52Z</time></trkpt><trkpt lat="44.31901424550171" lon="7.743407864448393"><ele>573.0</ele><time>2026-05-02T14:43:53Z</time></trkpt><trkpt lat="44.318840571326845" lon="7.743282079712393"><ele>574.0</ele><time>2026-05-02T14:43:54Z</time></trkpt><trkpt lat="44.31868464025049" lon="7.743170877685998"><ele>575.0</ele><time>2026-05-02T14:43:55Z</time></trkpt><trkpt lat="44.318539345328" lon="7.743060576679852"><ele>576.0</ele><time>2026-05-02T14:43:56Z</time></trkpt><trkpt lat="44.31842291335361" lon="7.742963295428164"><ele>576.0</ele><time>2026-05-02T14:43:57Z</time></trkpt><trkpt lat="44.318331218040264" lon="7.742878895881862"><ele>576.0</ele><time>2026-05-02T14:43:58Z</time></trkpt><trkpt lat="44.31825103517268" lon="7.742796633013873"><ele>576.0</ele><time>2026-05-02T14:43:59Z</time></trkpt><trkpt lat="44.31817783907378" lon="7.742714192376574"><ele>576.0</ele><time>2026-05-02T14:44:00Z</time></trkpt><trkpt lat="44.318116442900234" lon="7.742632916929669"><ele>576.0</ele><time>2026-05-02T14:44:01Z</time></trkpt><trkpt lat="44.318052395409524" lon="7.7425176252264425"><ele>576.3333333333334</ele><time>2026-05-02T14:44:02Z</time></trkpt><trkpt lat="44.31797613825601" lon="7.742364473909306"><ele>576.6666666666667</ele><time>2026-05-02T14:44:03Z</time></trkpt><trkpt lat="44.317892356729054" lon="7.74218780560523"><ele>577.0</ele><time>2026-05-02T14:44:04Z</time></trkpt><trkpt lat="44.31780383466401" lon="7.741971685782692"><ele>577.6666666666667</ele><time>2026-05-02T14:44:05Z</time></trkpt><trkpt lat="44.31771850844787" lon="7.74173641556791"><ele>578.3333333333334</ele><time>2026-05-02T14:44:06Z</time></trkpt><trkpt lat="44.31763426019236" lon="7.7414581298868885"><ele>579.0</ele><time>2026-05-02T14:44:07Z</time></trkpt><trkpt lat="44.31755113349295" lon="7.741157924764957"><ele>578.5</ele><time>2026-05-02T14:44:08Z</time></trkpt><trkpt lat="44.31747351004585" lon="7.740847287616756"><ele>578.0</ele><time>2026-05-02T14:44:09Z</time></trkpt><trkpt lat="44.3173893236032" lon="7.740537419791903"><ele>578.0</ele><time>2026-05-02T14:44:10Z</time></trkpt><trkpt lat="44.31730280060276" lon="7.740234510210449"><ele>578.0</ele><time>2026-05-02T14:44:11Z</time></trkpt><trkpt lat="44.317225751070445" lon="7.739942613014658"><ele>578.0</ele><time>2026-05-02T14:44:12Z</time></trkpt><trkpt lat="44.31715946232766" lon="7.739684414482871"><ele>578.0</ele><time>2026-05-02T14:44:13Z</time></trkpt><trkpt lat="44.31709245257464" lon="7.739442964037489"><ele>578.0</ele><time>2026-05-02T14:44:14Z</time></trkpt><trkpt lat="44.31702957673533" lon="7.739208506171673"><ele>578.0</ele><time>2026-05-02T14:44:15Z</time></trkpt><trkpt lat="44.316964491901686" lon="7.7389522125799255"><ele>578.0</ele><time>2026-05-02T14:44:16Z</time></trkpt><trkpt lat="44.31688531825478" lon="7.738655905584723"><ele>578.0</ele><time>2026-05-02T14:44:17Z</time></trkpt><trkpt lat="44.31680425995718" lon="7.738338779603068"><ele>578.0</ele><time>2026-05-02T14:44:18Z</time></trkpt><trkpt lat="44.316721736366546" lon="7.73801684548574"><ele>578.0</ele><time>2026-05-02T14:44:19Z</time></trkpt><trkpt lat="44.316635937946366" lon="7.73768918478215"><ele>578.0</ele><time>2026-05-02T14:44:20Z</time></trkpt><trkpt lat="44.316546572859025" lon="7.73735420353843"><ele>578.0</ele><time>2026-05-02T14:44:21Z</time></trkpt><trkpt lat="44.31645137287142" lon="7.737008771832524"><ele>578.5</ele><time>2026-05-02T14:44:22Z</time></trkpt><trkpt lat="44.31635893240608" lon="7.73666362627114"><ele>579.0</ele><time>2026-05-02T14:44:23Z</time></trkpt><trkpt lat="44.31626756706851" lon="7.736314293655133"><ele>578.0</ele><time>2026-05-02T14:44:24Z</time></trkpt><trkpt lat="44.31617798771049" lon="7.735958335573176"><ele>577.0</ele><time>2026-05-02T14:44:25Z</time></trkpt><trkpt lat="44.316089728817744" lon="7.735596359498459"><ele>577.5</ele><time>2026-05-02T14:44:26Z</time></trkpt><trkpt lat="44.31600509183781" lon="7.735213389411198"><ele>578.0</ele><time>2026-05-02T14:44:27Z</time></trkpt><trkpt lat="44.31592757958864" lon="7.734816144056324"><ele>578.0</ele><time>2026-05-02T14:44:28Z</time></trkpt><trkpt lat="44.315856755954265" lon="7.7344072634043295"><ele>578.0</ele><time>2026-05-02T14:44:29Z</time></trkpt><trkpt lat="44.31579365707406" lon="7.733975987817512"><ele>578.5</ele><time>2026-05-02T14:44:30Z</time></trkpt><trkpt lat="44.315731377231955" lon="7.733560252710424"><ele>579.0</ele><time>2026-05-02T14:44:31Z</time></trkpt><trkpt lat="44.315680374960394" lon="7.7331831639692625"><ele>579.0</ele><time>2026-05-02T14:44:32Z</time></trkpt><trkpt lat="44.3156291438469" lon="7.732823003654278"><ele>579.0</ele><time>2026-05-02T14:44:33Z</time></trkpt><trkpt lat="44.315578912745146" lon="7.7324720256394"><ele>581.0</ele><time>2026-05-02T14:44:34Z</time></trkpt><trkpt lat="44.31553122360998" lon="7.732134584178249"><ele>583.0</ele><time>2026-05-02T14:44:35Z</time></trkpt><trkpt lat="44.31548725436876" lon="7.7318328889418355"><ele>583.0</ele><time>2026-05-02T14:44:36Z</time></trkpt><trkpt lat="44.31544662902357" lon="7.731561150814023"><ele>583.0</ele><time>2026-05-02T14:44:37Z</time></trkpt><trkpt lat="44.31540781472031" lon="7.731304026196419"><ele>583.0</ele><time>2026-05-02T14:44:38Z</time></trkpt><trkpt lat="44.3153399981377" lon="7.731041546211745"><ele>584.0</ele><time>2026-05-02T14:44:39Z</time></trkpt><trkpt lat="44.31524491721284" lon="7.730747788583304"><ele>585.0</ele><time>2026-05-02T14:44:40Z</time></trkpt><trkpt lat="44.31512124641934" lon="7.730426148218543"><ele>585.5</ele><time>2026-05-02T14:44:41Z</time></trkpt><trkpt lat="44.31498257044279" lon="7.73008312511127"><ele>586.0</ele><time>2026-05-02T14:44:42Z</time></trkpt><trkpt lat="44.314832375600396" lon="7.729726997961158"><ele>587.0</ele><time>2026-05-02T14:44:43Z</time></trkpt><trkpt lat="44.314675988658145" lon="7.729371803226004"><ele>588.0</ele><time>2026-05-02T14:44:44Z</time></trkpt><trkpt lat="44.31453300463183" lon="7.729041861940939"><ele>588.0</ele><time>2026-05-02T14:44:45Z</time></trkpt><trkpt lat="44.3144082983599" lon="7.728747490785509"><ele>588.0</ele><time>2026-05-02T14:44:46Z</time></trkpt><trkpt lat="44.314291155396184" lon="7.728477542857714"><ele>588.3333333333334</ele><time>2026-05-02T14:44:47Z</time></trkpt><trkpt lat="44.31418438232384" lon="7.728225379654031"><ele>588.6666666666667</ele><time>2026-05-02T14:44:48Z</time></trkpt><trkpt lat="44.314083281571335" lon="7.727990111267423"><ele>589.0</ele><time>2026-05-02T14:44:49Z</time></trkpt><trkpt lat="44.31398020265853" lon="7.72774241824389"><ele>590.6666666666667</ele><time>2026-05-02T14:44:50Z</time></trkpt><trkpt lat="44.3138815010612" lon="7.727478154769825"><ele>592.3333333333334</ele><time>2026-05-02T14:44:51Z</time></trkpt><trkpt lat="44.31379104929327" lon="7.727200784381541"><ele>594.0</ele><time>2026-05-02T14:44:52Z</time></trkpt><trkpt lat="44.31370860138739" lon="7.72690547899616"><ele>594.6666666666666</ele><time>2026-05-02T14:44:53Z</time></trkpt><trkpt lat="44.313622965012705" lon="7.726596090214336"><ele>595.3333333333333</ele><time>2026-05-02T14:44:54Z</time></trkpt><trkpt lat="44.31355863243993" lon="7.7263268044595845"><ele>596.0</ele><time>2026-05-02T14:44:55Z</time></trkpt><trkpt lat="44.31348989854455" lon="7.726028342418418"><ele>596.0</ele><time>2026-05-02T14:44:56Z</time></trkpt><trkpt lat="44.31342881140698" lon="7.725747679572442"><ele>596.0</ele><time>2026-05-02T14:44:57Z</time></trkpt><trkpt lat="44.31336837188454" lon="7.725484330099464"><ele>596.0</ele><time>2026-05-02T14:44:58Z</time></trkpt><trkpt lat="44.31331311588684" lon="7.725245977533779"><ele>596.0</ele><time>2026-05-02T14:44:59Z</time></trkpt><trkpt lat="44.313260623708345" lon="7.725017488664965"><ele>596.0</ele><time>2026-05-02T14:45:00Z</time></trkpt><trkpt lat="44.31319854535609" lon="7.7248055041533705"><ele>596.0</ele><time>2026-05-02T14:45:01Z</time></trkpt><trkpt lat="44.313132543881856" lon="7.724603300864501"><ele>597.3333333333333</ele><time>2026-05-02T14:45:02Z</time></trkpt><trkpt lat="44.313056744722836" lon="7.724413344890796"><ele>598.6666666666666</ele><time>2026-05-02T14:45:03Z</time></trkpt><trkpt lat="44.31298172737104" lon="7.724234696097016"><ele>600.0</ele><time>2026-05-02T14:45:04Z</time></trkpt><trkpt lat="44.31291283744105" lon="7.724051690428772"><ele>600.0</ele><time>2026-05-02T14:45:05Z</time></trkpt><trkpt lat="44.31283603899148" lon="7.723857006251407"><ele>600.0</ele><time>2026-05-02T14:45:06Z</time></trkpt><trkpt lat="44.31275700096025" lon="7.7236538520390825"><ele>600.0</ele><time>2026-05-02T14:45:07Z</time></trkpt><trkpt lat="44.31266275315687" lon="7.723501947821334"><ele>600.3333333333334</ele><time>2026-05-02T14:45:08Z</time></trkpt><trkpt lat="44.31255567037321" lon="7.723373195113098"><ele>600.6666666666667</ele><time>2026-05-02T14:45:09Z</time></trkpt><trkpt lat="44.31242430335447" lon="7.723262284252539"><ele>601.0</ele><time>2026-05-02T14:45:10Z</time></trkpt><trkpt lat="44.31228274457577" lon="7.723163100083693"><ele>602.0</ele><time>2026-05-02T14:45:11Z</time></trkpt><trkpt lat="44.3121294373742" lon="7.7230848143886535"><ele>603.0</ele><time>2026-05-02T14:45:12Z</time></trkpt><trkpt lat="44.31195522633182" lon="7.723012572788242"><ele>604.0</ele><time>2026-05-02T14:45:13Z</time></trkpt><trkpt lat="44.311755276975966" lon="7.7229310347520315"><ele>604.0</ele><time>2026-05-02T14:45:14Z</time></trkpt><trkpt lat="44.31157824432407" lon="7.722856913402525"><ele>604.0</ele><time>2026-05-02T14:45:15Z</time></trkpt><trkpt lat="44.31142942168358" lon="7.722802494665043"><ele>604.0</ele><time>2026-05-02T14:45:16Z</time></trkpt><trkpt lat="44.311306592599074" lon="7.722736375339727"><ele>605.25</ele><time>2026-05-02T14:45:17Z</time></trkpt><trkpt lat="44.311199444742385" lon="7.72266167017224"><ele>606.5</ele><time>2026-05-02T14:45:18Z</time></trkpt><trkpt lat="44.31108880328749" lon="7.722570519991507"><ele>607.75</ele><time>2026-05-02T14:45:19Z</time></trkpt><trkpt lat="44.310998020409905" lon="7.722440600691178"><ele>609.0</ele><time>2026-05-02T14:45:20Z</time></trkpt><trkpt lat="44.310910214445435" lon="7.722289270725856"><ele>609.0</ele><time>2026-05-02T14:45:21Z</time></trkpt><trkpt lat="44.31083729870615" lon="7.722103392382579"><ele>609.0</ele><time>2026-05-02T14:45:22Z</time></trkpt><trkpt lat="44.31077855228005" lon="7.721894634719846"><ele>609.0</ele><time>2026-05-02T14:45:23Z</time></trkpt><trkpt lat="44.310740398730346" lon="7.721671788175027"><ele>608.6666666666666</ele><time>2026-05-02T14:45:24Z</time></trkpt><trkpt lat="44.31071547326956" lon="7.721438959040207"><ele>608.3333333333333</ele><time>2026-05-02T14:45:25Z</time></trkpt><trkpt lat="44.3106925988319" lon="7.721153206076547"><ele>608.0</ele><time>2026-05-02T14:45:26Z</time></trkpt><trkpt lat="44.31066507477879" lon="7.720809368824987"><ele>608.0</ele><time>2026-05-02T14:45:27Z</time></trkpt><trkpt lat="44.310633482602185" lon="7.7204451346571945"><ele>608.0</ele><time>2026-05-02T14:45:28Z</time></trkpt><trkpt lat="44.31060288434193" lon="7.72007307497664"><ele>612.5</ele><time>2026-05-02T14:45:29Z</time></trkpt><trkpt lat="44.31057000734237" lon="7.719674395053791"><ele>617.0</ele><time>2026-05-02T14:45:30Z</time></trkpt><trkpt lat="44.310542644664984" lon="7.719354726179056"><ele>617.0</ele><time>2026-05-02T14:45:31Z</time></trkpt><trkpt lat="44.31051487577741" lon="7.719036754267281"><ele>617.0</ele><time>2026-05-02T14:45:32Z</time></trkpt><trkpt lat="44.3104918759142" lon="7.718716107149571"><ele>616.3333333333333</ele><time>2026-05-02T14:45:33Z</time></trkpt><trkpt lat="44.31046550850076" lon="7.718408372311994"><ele>615.6666666666666</ele><time>2026-05-02T14:45:34Z</time></trkpt><trkpt lat="44.310445873411375" lon="7.718129473285265"><ele>615.0</ele><time>2026-05-02T14:45:35Z</time></trkpt><trkpt lat="44.31043661409241" lon="7.717846603863016"><ele>615.3333333333334</ele><time>2026-05-02T14:45:36Z</time></trkpt><trkpt lat="44.31043775574301" lon="7.717555078886292"><ele>615.6666666666667</ele><time>2026-05-02T14:45:37Z</time></trkpt><trkpt lat="44.31044850435242" lon="7.717258055530394"><ele>616.0</ele><time>2026-05-02T14:45:38Z</time></trkpt><trkpt lat="44.31046598732079" lon="7.716960726922879"><ele>617.0</ele><time>2026-05-02T14:45:39Z</time></trkpt><trkpt lat="44.31049712109184" lon="7.7166803435583295"><ele>618.0</ele><time>2026-05-02T14:45:40Z</time></trkpt><trkpt lat="44.31054372328583" lon="7.716391698712256"><ele>619.0</ele><time>2026-05-02T14:45:41Z</time></trkpt><trkpt lat="44.310593608638065" lon="7.716113180222029"><ele>621.5</ele><time>2026-05-02T14:45:42Z</time></trkpt><trkpt lat="44.31063117836263" lon="7.7158795674592815"><ele>624.0</ele><time>2026-05-02T14:45:43Z</time></trkpt><trkpt lat="44.310658666087626" lon="7.715688385729195"><ele>626.5</ele><time>2026-05-02T14:45:44Z</time></trkpt><trkpt lat="44.31067628586847" lon="7.7155169954277705"><ele>629.0</ele><time>2026-05-02T14:45:45Z</time></trkpt><trkpt lat="44.31067152818505" lon="7.715335892041204"><ele>630.6666666666666</ele><time>2026-05-02T14:45:46Z</time></trkpt><trkpt lat="44.3106358954703" lon="7.715136702587217"><ele>632.3333333333334</ele><time>2026-05-02T14:45:47Z</time></trkpt><trkpt lat="44.310565682092836" lon="7.71491448090002"><ele>634.0</ele><time>2026-05-02T14:45:48Z</time></trkpt><trkpt lat="44.310469557873155" lon="7.714665942381942"><ele>634.0</ele><time>2026-05-02T14:45:49Z</time></trkpt><trkpt lat="44.31037460331681" lon="7.714409267857576"><ele>634.0</ele><time>2026-05-02T14:45:50Z</time></trkpt><trkpt lat="44.310276766590576" lon="7.71415583522155"><ele>634.0</ele><time>2026-05-02T14:45:51Z</time></trkpt><trkpt lat="44.310165934836604" lon="7.713909881374701"><ele>639.5</ele><time>2026-05-02T14:45:52Z</time></trkpt><trkpt lat="44.31002826756573" lon="7.713650279422889"><ele>645.0</ele><time>2026-05-02T14:45:53Z</time></trkpt><trkpt lat="44.3098803309994" lon="7.713375398875315"><ele>644.0</ele><time>2026-05-02T14:45:54Z</time></trkpt><trkpt lat="44.30973244982196" lon="7.7131037767366495"><ele>643.0</ele><time>2026-05-02T14:45:55Z</time></trkpt><trkpt lat="44.30959324815882" lon="7.712850111589281"><ele>647.6666666666667</ele><time>2026-05-02T14:45:56Z</time></trkpt><trkpt lat="44.309461038155824" lon="7.712613575908325"><ele>652.3333333333334</ele><time>2026-05-02T14:45:57Z</time></trkpt><trkpt lat="44.30934082590817" lon="7.712365730047278"><ele>657.0</ele><time>2026-05-02T14:45:58Z</time></trkpt><trkpt lat="44.3092228624044" lon="7.712089832191642"><ele>661.6666666666666</ele><time>2026-05-02T14:45:59Z</time></trkpt><trkpt lat="44.30910921639802" lon="7.711819202409812"><ele>666.3333333333333</ele><time>2026-05-02T14:46:00Z</time></trkpt><trkpt lat="44.30901233604517" lon="7.7115876165586394"><ele>671.0</ele><time>2026-05-02T14:46:01Z</time></trkpt><trkpt lat="44.30893176345531" lon="7.711402660099366"><ele>670.75</ele><time>2026-05-02T14:46:02Z</time></trkpt><trkpt lat="44.30886223530251" lon="7.711241612834224"><ele>670.5</ele><time>2026-05-02T14:46:03Z</time></trkpt><trkpt lat="44.308809974010444" lon="7.711093188528112"><ele>670.25</ele><time>2026-05-02T14:46:04Z</time></trkpt><trkpt lat="44.30877575930549" lon="7.7109366642834045"><ele>670.0</ele><time>2026-05-02T14:46:05Z</time></trkpt><trkpt lat="44.30876379102254" lon="7.710771507531197"><ele>670.0</ele><time>2026-05-02T14:46:06Z</time></trkpt><trkpt lat="44.308783917768025" lon="7.7106151146354724"><ele>670.0</ele><time>2026-05-02T14:46:07Z</time></trkpt><trkpt lat="44.308839122848276" lon="7.710471413275877"><ele>670.0</ele><time>2026-05-02T14:46:08Z</time></trkpt><trkpt lat="44.30891681197166" lon="7.710354696310746"><ele>670.0</ele><time>2026-05-02T14:46:09Z</time></trkpt><trkpt lat="44.30902553921637" lon="7.7102493815717885"><ele>674.0</ele><time>2026-05-02T14:46:10Z</time></trkpt><trkpt lat="44.30917447543946" lon="7.710144044516665"><ele>678.0</ele><time>2026-05-02T14:46:11Z</time></trkpt><trkpt lat="44.30935685822332" lon="7.710031616545933"><ele>682.0</ele><time>2026-05-02T14:46:12Z</time></trkpt><trkpt lat="44.309562545938554" lon="7.709919208489278"><ele>685.6666666666667</ele><time>2026-05-02T14:46:13Z</time></trkpt><trkpt lat="44.30976114293336" lon="7.709833659498647"><ele>689.3333333333334</ele><time>2026-05-02T14:46:14Z</time></trkpt><trkpt lat="44.30991639036415" lon="7.709768387229738"><ele>693.0</ele><time>2026-05-02T14:46:15Z</time></trkpt><trkpt lat="44.31004079348049" lon="7.709697965855916"><ele>693.0</ele><time>2026-05-02T14:46:16Z</time></trkpt><trkpt lat="44.310160224543914" lon="7.709598939710927"><ele>693.0</ele><time>2026-05-02T14:46:17Z</time></trkpt><trkpt lat="44.31027989252298" lon="7.709476012549693"><ele>693.0</ele><time>2026-05-02T14:46:18Z</time></trkpt><trkpt lat="44.31039813907519" lon="7.7093367587671855"><ele>693.0</ele><time>2026-05-02T14:46:19Z</time></trkpt><trkpt lat="44.310508558215936" lon="7.70918129208517"><ele>693.6666666666666</ele><time>2026-05-02T14:46:20Z</time></trkpt><trkpt lat="44.31061154061836" lon="7.7090109705888"><ele>694.3333333333333</ele><time>2026-05-02T14:46:21Z</time></trkpt><trkpt lat="44.31071250612504" lon="7.7088377223167015"><ele>695.0</ele><time>2026-05-02T14:46:22Z</time></trkpt><trkpt lat="44.31080909649567" lon="7.708692651980365"><ele>695.0</ele><time>2026-05-02T14:46:23Z</time></trkpt><trkpt lat="44.310904414662" lon="7.708588591178809"><ele>695.0</ele><time>2026-05-02T14:46:24Z</time></trkpt><trkpt lat="44.311020192971675" lon="7.708510221115814"><ele>695.0</ele><time>2026-05-02T14:46:25Z</time></trkpt><trkpt lat="44.31116477400722" lon="7.708461797610798"><ele>695.0</ele><time>2026-05-02T14:46:26Z</time></trkpt><trkpt lat="44.311333731637454" lon="7.708460541862455"><ele>694.0</ele><time>2026-05-02T14:46:27Z</time></trkpt><trkpt lat="44.31151495894862" lon="7.70841910769523"><ele>693.0</ele><time>2026-05-02T14:46:28Z</time></trkpt><trkpt lat="44.311683455084584" lon="7.708392276311721"><ele>692.0</ele><time>2026-05-02T14:46:29Z</time></trkpt><trkpt lat="44.311824409378985" lon="7.708346518024614"><ele>692.0</ele><time>2026-05-02T14:46:30Z</time></trkpt><trkpt lat="44.31196634423572" lon="7.708259253068423"><ele>692.0</ele><time>2026-05-02T14:46:31Z</time></trkpt><trkpt lat="44.31213561627475" lon="7.708119936960571"><ele>692.0</ele><time>2026-05-02T14:46:32Z</time></trkpt><trkpt lat="44.312317380898754" lon="7.707939515108944"><ele>692.0</ele><time>2026-05-02T14:46:33Z</time></trkpt><trkpt lat="44.31251460823339" lon="7.707747641138602"><ele>692.0</ele><time>2026-05-02T14:46:34Z</time></trkpt><trkpt lat="44.312715489053744" lon="7.707565254083415"><ele>692.0</ele><time>2026-05-02T14:46:35Z</time></trkpt><trkpt lat="44.312900212613094" lon="7.707400251460331"><ele>692.0</ele><time>2026-05-02T14:46:36Z</time></trkpt><trkpt lat="44.31305319930731" lon="7.707266473922003"><ele>692.0</ele><time>2026-05-02T14:46:37Z</time></trkpt><trkpt lat="44.31318331804799" lon="7.707152898438909"><ele>692.75</ele><time>2026-05-02T14:46:38Z</time></trkpt><trkpt lat="44.31329568428941" lon="7.707051838391959"><ele>693.5</ele><time>2026-05-02T14:46:39Z</time></trkpt><trkpt lat="44.313387461649185" lon="7.7069385026895665"><ele>694.25</ele><time>2026-05-02T14:46:40Z</time></trkpt><trkpt lat="44.3134535931256" lon="7.706811215680678"><ele>695.0</ele><time>2026-05-02T14:46:41Z</time></trkpt><trkpt lat="44.3134985104344" lon="7.706650307191473"><ele>695.0</ele><time>2026-05-02T14:46:42Z</time></trkpt><trkpt lat="44.31352598445018" lon="7.706470464562218"><ele>695.0</ele><time>2026-05-02T14:46:43Z</time></trkpt><trkpt lat="44.31351069530598" lon="7.706268090962392"><ele>695.0</ele><time>2026-05-02T14:46:44Z</time></trkpt><trkpt lat="44.31346398176323" lon="7.706029930034417"><ele>696.6666666666666</ele><time>2026-05-02T14:46:45Z</time></trkpt><trkpt lat="44.313399153479956" lon="7.7057741742668435"><ele>698.3333333333334</ele><time>2026-05-02T14:46:46Z</time></trkpt><trkpt lat="44.31335507445554" lon="7.705544477634029"><ele>700.0</ele><time>2026-05-02T14:46:47Z</time></trkpt><trkpt lat="44.31334073916167" lon="7.705299498441833"><ele>700.6666666666667</ele><time>2026-05-02T14:46:48Z</time></trkpt><trkpt lat="44.313353295183624" lon="7.705025672369805"><ele>701.3333333333334</ele><time>2026-05-02T14:46:49Z</time></trkpt><trkpt lat="44.31337536413052" lon="7.70477141477752"><ele>702.0</ele><time>2026-05-02T14:46:50Z</time></trkpt><trkpt lat="44.313375651197546" lon="7.704566626700929"><ele>704.6666666666666</ele><time>2026-05-02T14:46:51Z</time></trkpt><trkpt lat="44.313340920305755" lon="7.704359470674192"><ele>707.3333333333333</ele><time>2026-05-02T14:46:52Z</time></trkpt><trkpt lat="44.31326373756672" lon="7.704102229119707"><ele>710.0</ele><time>2026-05-02T14:46:53Z</time></trkpt><trkpt lat="44.31316018850908" lon="7.70381961444324"><ele>708.3333333333333</ele><time>2026-05-02T14:46:54Z</time></trkpt><trkpt lat="44.31307598016049" lon="7.7035504094729195"><ele>706.6666666666666</ele><time>2026-05-02T14:46:55Z</time></trkpt><trkpt lat="44.313029839123566" lon="7.703312432868395"><ele>705.0</ele><time>2026-05-02T14:46:56Z</time></trkpt><trkpt lat="44.31298001910978" lon="7.703080990406086"><ele>705.0</ele><time>2026-05-02T14:46:57Z</time></trkpt><trkpt lat="44.31296883646082" lon="7.70286989362021"><ele>705.0</ele><time>2026-05-02T14:46:58Z</time></trkpt><trkpt lat="44.31293290197037" lon="7.7027193224371615"><ele>705.0</ele><time>2026-05-02T14:46:59Z</time></trkpt><trkpt lat="44.31286566607506" lon="7.702598061780135"><ele>705.0</ele><time>2026-05-02T14:47:00Z</time></trkpt><trkpt lat="44.312762852423425" lon="7.702494540397306"><ele>707.75</ele><time>2026-05-02T14:47:01Z</time></trkpt><trkpt lat="44.312621043730786" lon="7.7024047173099675"><ele>710.5</ele><time>2026-05-02T14:47:02Z</time></trkpt><trkpt lat="44.31246473740802" lon="7.702318570913254"><ele>713.25</ele><time>2026-05-02T14:47:03Z</time></trkpt><trkpt lat="44.3123640445002" lon="7.702233607631933"><ele>716.0</ele><time>2026-05-02T14:47:04Z</time></trkpt><trkpt lat="44.31231290598691" lon="7.702130240723656"><ele>716.0</ele><time>2026-05-02T14:47:05Z</time></trkpt><trkpt lat="44.31229829249458" lon="7.702022353075737"><ele>716.0</ele><time>2026-05-02T14:47:06Z</time></trkpt><trkpt lat="44.31231985441719" lon="7.701898682081644"><ele>716.0</ele><time>2026-05-02T14:47:07Z</time></trkpt><trkpt lat="44.312370429040804" lon="7.701748515373239"><ele>716.0</ele><time>2026-05-02T14:47:08Z</time></trkpt><trkpt lat="44.31240796735929" lon="7.701580269906347"><ele>716.0</ele><time>2026-05-02T14:47:09Z</time></trkpt><trkpt lat="44.312449748550534" lon="7.7014196943673765"><ele>715.75</ele><time>2026-05-02T14:47:10Z</time></trkpt><trkpt lat="44.312501617406035" lon="7.7012553461167474"><ele>715.5</ele><time>2026-05-02T14:47:11Z</time></trkpt><trkpt lat="44.31257083100635" lon="7.701108895149248"><ele>715.25</ele><time>2026-05-02T14:47:12Z</time></trkpt><trkpt lat="44.312665716539556" lon="7.700963736444874"><ele>715.0</ele><time>2026-05-02T14:47:13Z</time></trkpt><trkpt lat="44.31277033928469" lon="7.700831017188441"><ele>715.0</ele><time>2026-05-02T14:47:14Z</time></trkpt><trkpt lat="44.312864159191356" lon="7.700750830065414"><ele>715.0</ele><time>2026-05-02T14:47:15Z</time></trkpt><trkpt lat="44.31297578842978" lon="7.700720433418741"><ele>715.0</ele><time>2026-05-02T14:47:16Z</time></trkpt><trkpt lat="44.31310704307311" lon="7.700717672896216"><ele>715.0</ele><time>2026-05-02T14:47:17Z</time></trkpt><trkpt lat="44.313226859642924" lon="7.700709409030864"><ele>716.0</ele><time>2026-05-02T14:47:18Z</time></trkpt><trkpt lat="44.313336937498484" lon="7.700658540809193"><ele>717.0</ele><time>2026-05-02T14:47:19Z</time></trkpt><trkpt lat="44.3134226108427" lon="7.700571282774258"><ele>718.0</ele><time>2026-05-02T14:47:20Z</time></trkpt><trkpt lat="44.313486665990915" lon="7.700446176838035"><ele>719.0</ele><time>2026-05-02T14:47:21Z</time></trkpt><trkpt lat="44.313529291968244" lon="7.700281505379044"><ele>716.0</ele><time>2026-05-02T14:47:22Z</time></trkpt><trkpt lat="44.31354595319333" lon="7.700114117581715"><ele>713.0</ele><time>2026-05-02T14:47:23Z</time></trkpt><trkpt lat="44.31355004952866" lon="7.699940161761156"><ele>710.0</ele><time>2026-05-02T14:47:24Z</time></trkpt><trkpt lat="44.313520993059015" lon="7.699749549551288"><ele>707.0</ele><time>2026-05-02T14:47:25Z</time></trkpt><trkpt lat="44.31347147138058" lon="7.699577261546227"><ele>706.0</ele><time>2026-05-02T14:47:26Z</time></trkpt><trkpt lat="44.31342046987234" lon="7.699352015484885"><ele>705.0</ele><time>2026-05-02T14:47:27Z</time></trkpt><trkpt lat="44.31337219598545" lon="7.699134014466377"><ele>704.0</ele><time>2026-05-02T14:47:28Z</time></trkpt><trkpt lat="44.31333818116168" lon="7.698933437070105"><ele>704.0</ele><time>2026-05-02T14:47:29Z</time></trkpt><trkpt lat="44.31331079523091" lon="7.69873266338724"><ele>704.0</ele><time>2026-05-02T14:47:30Z</time></trkpt><trkpt lat="44.313300914348815" lon="7.6985240644782875"><ele>704.0</ele><time>2026-05-02T14:47:31Z</time></trkpt><trkpt lat="44.31330528397576" lon="7.698283140215933"><ele>704.0</ele><time>2026-05-02T14:47:32Z</time></trkpt><trkpt lat="44.31332577880481" lon="7.698038387299074"><ele>704.0</ele><time>2026-05-02T14:47:33Z</time></trkpt><trkpt lat="44.31333835952637" lon="7.697841374970573"><ele>704.0</ele><time>2026-05-02T14:47:34Z</time></trkpt><trkpt lat="44.313352388142825" lon="7.697654253724011"><ele>701.0</ele><time>2026-05-02T14:47:35Z</time></trkpt><trkpt lat="44.313372534191394" lon="7.6974643113502905"><ele>698.0</ele><time>2026-05-02T14:47:36Z</time></trkpt><trkpt lat="44.313415432093734" lon="7.697268646308357"><ele>695.0</ele><time>2026-05-02T14:47:37Z</time></trkpt><trkpt lat="44.31349717711716" lon="7.69705199172358"><ele>693.3333333333333</ele><time>2026-05-02T14:47:38Z</time></trkpt><trkpt lat="44.31357761752678" lon="7.6968172871515605"><ele>691.6666666666666</ele><time>2026-05-02T14:47:39Z</time></trkpt><trkpt lat="44.313658728475616" lon="7.6965830517822"><ele>690.0</ele><time>2026-05-02T14:47:40Z</time></trkpt><trkpt lat="44.31373020618276" lon="7.696360379109007"><ele>690.0</ele><time>2026-05-02T14:47:41Z</time></trkpt><trkpt lat="44.31380409218035" lon="7.696134442828604"><ele>690.0</ele><time>2026-05-02T14:47:42Z</time></trkpt><trkpt lat="44.31387468973496" lon="7.6959187243297995"><ele>690.0</ele><time>2026-05-02T14:47:43Z</time></trkpt><trkpt lat="44.31394757530967" lon="7.69569527693107"><ele>689.3333333333334</ele><time>2026-05-02T14:47:44Z</time></trkpt><trkpt lat="44.3140154684562" lon="7.695492368286178"><ele>688.6666666666667</ele><time>2026-05-02T14:47:45Z</time></trkpt><trkpt lat="44.31407649773469" lon="7.6952976903714925"><ele>688.0</ele><time>2026-05-02T14:47:46Z</time></trkpt><trkpt lat="44.31413827786702" lon="7.6951125632257105"><ele>685.5</ele><time>2026-05-02T14:47:47Z</time></trkpt><trkpt lat="44.3141973922143" lon="7.694940144765783"><ele>683.0</ele><time>2026-05-02T14:47:48Z</time></trkpt><trkpt lat="44.314255123468605" lon="7.694773665904419"><ele>680.5</ele><time>2026-05-02T14:47:49Z</time></trkpt><trkpt lat="44.314310035913174" lon="7.694616397627449"><ele>678.0</ele><time>2026-05-02T14:47:50Z</time></trkpt><trkpt lat="44.31435919491444" lon="7.694465268228897"><ele>677.5999999999999</ele><time>2026-05-02T14:47:51Z</time></trkpt><trkpt lat="44.314406747005656" lon="7.694322221100035"><ele>677.1999999999999</ele><time>2026-05-02T14:47:52Z</time></trkpt><trkpt lat="44.314453780837205" lon="7.694188427875869"><ele>676.8</ele><time>2026-05-02T14:47:53Z</time></trkpt><trkpt lat="44.314499809879955" lon="7.694055292747854"><ele>676.4</ele><time>2026-05-02T14:47:54Z</time></trkpt><trkpt lat="44.31453444165019" lon="7.6939341016325455"><ele>676.0</ele><time>2026-05-02T14:47:55Z</time></trkpt><trkpt lat="44.31457694580979" lon="7.69380425506586"><ele>676.0</ele><time>2026-05-02T14:47:56Z</time></trkpt><trkpt lat="44.314621866527496" lon="7.693660962787341"><ele>676.0</ele><time>2026-05-02T14:47:57Z</time></trkpt><trkpt lat="44.31466362337632" lon="7.693520319639235"><ele>676.0</ele><time>2026-05-02T14:47:58Z</time></trkpt><trkpt lat="44.31470509825481" lon="7.693376383163433"><ele>676.0</ele><time>2026-05-02T14:47:59Z</time></trkpt><trkpt lat="44.314743338595505" lon="7.693235111279068"><ele>676.0</ele><time>2026-05-02T14:48:00Z</time></trkpt><trkpt lat="44.31478308306008" lon="7.6930839508628495"><ele>675.5</ele><time>2026-05-02T14:48:01Z</time></trkpt><trkpt lat="44.314824376029435" lon="7.692926347553854"><ele>675.0</ele><time>2026-05-02T14:48:02Z</time></trkpt><trkpt lat="44.31486608946447" lon="7.6927644736909935"><ele>674.5</ele><time>2026-05-02T14:48:03Z</time></trkpt><trkpt lat="44.31491061365782" lon="7.69260768761783"><ele>674.0</ele><time>2026-05-02T14:48:04Z</time></trkpt><trkpt lat="44.31495624988947" lon="7.692461159413648"><ele>674.0</ele><time>2026-05-02T14:48:05Z</time></trkpt><trkpt lat="44.314999462934146" lon="7.69232583257079"><ele>674.0</ele><time>2026-05-02T14:48:06Z</time></trkpt><trkpt lat="44.31503737943227" lon="7.692182109437573"><ele>674.0</ele><time>2026-05-02T14:48:07Z</time></trkpt><trkpt lat="44.31508970590522" lon="7.692038994271501"><ele>674.0</ele><time>2026-05-02T14:48:08Z</time></trkpt><trkpt lat="44.31515302834013" lon="7.6918980992216195"><ele>674.25</ele><time>2026-05-02T14:48:09Z</time></trkpt><trkpt lat="44.31522960290937" lon="7.69175984694815"><ele>674.5</ele><time>2026-05-02T14:48:10Z</time></trkpt><trkpt lat="44.31531824675256" lon="7.691622054086734"><ele>674.75</ele><time>2026-05-02T14:48:11Z</time></trkpt><trkpt lat="44.31542155254229" lon="7.691494427955119"><ele>675.0</ele><time>2026-05-02T14:48:12Z</time></trkpt><trkpt lat="44.31553124565045" lon="7.691375735484864"><ele>674.0</ele><time>2026-05-02T14:48:13Z</time></trkpt><trkpt lat="44.31563348994309" lon="7.691266892808665"><ele>673.0</ele><time>2026-05-02T14:48:14Z</time></trkpt><trkpt lat="44.3157379394395" lon="7.691170356254274"><ele>672.0</ele><time>2026-05-02T14:48:15Z</time></trkpt><trkpt lat="44.315840504656755" lon="7.691069247437753"><ele>671.0</ele><time>2026-05-02T14:48:16Z</time></trkpt><trkpt lat="44.315942962317486" lon="7.690965735037544"><ele>671.0</ele><time>2026-05-02T14:48:17Z</time></trkpt><trkpt lat="44.31604307707352" lon="7.690863570005004"><ele>671.0</ele><time>2026-05-02T14:48:18Z</time></trkpt><trkpt lat="44.316140309662075" lon="7.690759161842279"><ele>671.0</ele><time>2026-05-02T14:48:19Z</time></trkpt><trkpt lat="44.31622656614048" lon="7.690656863394867"><ele>671.0</ele><time>2026-05-02T14:48:20Z</time></trkpt><trkpt lat="44.31630234690379" lon="7.690545175399004"><ele>671.0</ele><time>2026-05-02T14:48:21Z</time></trkpt><trkpt lat="44.31635934703934" lon="7.690426412987669"><ele>671.0</ele><time>2026-05-02T14:48:22Z</time></trkpt><trkpt lat="44.316405408330745" lon="7.690289508499891"><ele>671.0</ele><time>2026-05-02T14:48:23Z</time></trkpt><trkpt lat="44.316432991378626" lon="7.690142343455856"><ele>671.0</ele><time>2026-05-02T14:48:24Z</time></trkpt><trkpt lat="44.31645154922027" lon="7.689984607963349"><ele>671.0</ele><time>2026-05-02T14:48:25Z</time></trkpt><trkpt lat="44.31646832742181" lon="7.689818850423825"><ele>669.75</ele><time>2026-05-02T14:48:26Z</time></trkpt><trkpt lat="44.3164809229581" lon="7.689650600358276"><ele>668.5</ele><time>2026-05-02T14:48:27Z</time></trkpt><trkpt lat="44.3164908344331" lon="7.689479412967921"><ele>667.25</ele><time>2026-05-02T14:48:28Z</time></trkpt><trkpt lat="44.316509851343326" lon="7.689301117257365"><ele>666.0</ele><time>2026-05-02T14:48:29Z</time></trkpt><trkpt lat="44.316522005378516" lon="7.689122151855988"><ele>663.75</ele><time>2026-05-02T14:48:30Z</time></trkpt><trkpt lat="44.31653319927177" lon="7.688951220263011"><ele>661.5</ele><time>2026-05-02T14:48:31Z</time></trkpt><trkpt lat="44.316547561239126" lon="7.688776033025057"><ele>659.25</ele><time>2026-05-02T14:48:32Z</time></trkpt><trkpt lat="44.31655896808262" lon="7.6886000281437665"><ele>657.0</ele><time>2026-05-02T14:48:33Z</time></trkpt><trkpt lat="44.31656938385068" lon="7.688438734916834"><ele>654.8</ele><time>2026-05-02T14:48:34Z</time></trkpt><trkpt lat="44.316576821302995" lon="7.688299527719098"><ele>652.6</ele><time>2026-05-02T14:48:35Z</time></trkpt><trkpt lat="44.31658568257679" lon="7.68817206849052"><ele>650.4</ele><time>2026-05-02T14:48:36Z</time></trkpt><trkpt lat="44.31659705850364" lon="7.688041101952965"><ele>648.1999999999999</ele><time>2026-05-02T14:48:37Z</time></trkpt><trkpt lat="44.3166099248232" lon="7.687914286502277"><ele>646.0</ele><time>2026-05-02T14:48:38Z</time></trkpt><trkpt lat="44.31663199479431" lon="7.687799350265245"><ele>642.0</ele><time>2026-05-02T14:48:39Z</time></trkpt><trkpt lat="44.31668304643174" lon="7.687702296053459"><ele>638.0</ele><time>2026-05-02T14:48:40Z</time></trkpt><trkpt lat="44.31676790068148" lon="7.687627592538727"><ele>634.0</ele><time>2026-05-02T14:48:41Z</time></trkpt><trkpt lat="44.316873824131584" lon="7.687573878514637"><ele>630.0</ele><time>2026-05-02T14:48:42Z</time></trkpt><trkpt lat="44.31698433751357" lon="7.687527214191759"><ele>626.0</ele><time>2026-05-02T14:48:43Z</time></trkpt><trkpt lat="44.317082987005776" lon="7.687457339894966"><ele>626.0</ele><time>2026-05-02T14:48:44Z</time></trkpt><trkpt lat="44.31717869040021" lon="7.68736038070044"><ele>626.0</ele><time>2026-05-02T14:48:45Z</time></trkpt><trkpt lat="44.31726516432701" lon="7.687243428721223"><ele>626.0</ele><time>2026-05-02T14:48:46Z</time></trkpt><trkpt lat="44.31734733867842" lon="7.687112883684549"><ele>626.0</ele><time>2026-05-02T14:48:47Z</time></trkpt><trkpt lat="44.31743520982994" lon="7.686985569387964"><ele>623.4</ele><time>2026-05-02T14:48:48Z</time></trkpt><trkpt lat="44.31751224127214" lon="7.686860175412074"><ele>620.8</ele><time>2026-05-02T14:48:49Z</time></trkpt><trkpt lat="44.31757914150065" lon="7.6867648417593575"><ele>618.1999999999999</ele><time>2026-05-02T14:48:50Z</time></trkpt><trkpt lat="44.31764952259523" lon="7.68669836054627"><ele>615.6</ele><time>2026-05-02T14:48:51Z</time></trkpt><trkpt lat="44.31772210815605" lon="7.686635678913183"><ele>613.0</ele><time>2026-05-02T14:48:52Z</time></trkpt><trkpt lat="44.31780255124452" lon="7.686575368951488"><ele>613.0</ele><time>2026-05-02T14:48:53Z</time></trkpt><trkpt lat="44.31788781973599" lon="7.686531875212477"><ele>613.0</ele><time>2026-05-02T14:48:54Z</time></trkpt><trkpt lat="44.31797674555998" lon="7.686477422206856"><ele>613.0</ele><time>2026-05-02T14:48:55Z</time></trkpt><trkpt lat="44.31806831083279" lon="7.686418173083614"><ele>613.0</ele><time>2026-05-02T14:48:56Z</time></trkpt><trkpt lat="44.31816974228974" lon="7.686357642838461"><ele>613.0</ele><time>2026-05-02T14:48:57Z</time></trkpt><trkpt lat="44.31827617927287" lon="7.686289349944555"><ele>610.0</ele><time>2026-05-02T14:48:58Z</time></trkpt><trkpt lat="44.31838671231527" lon="7.686198322538078"><ele>607.0</ele><time>2026-05-02T14:48:59Z</time></trkpt><trkpt lat="44.318514485870026" lon="7.6860977756475295"><ele>604.0</ele><time>2026-05-02T14:49:00Z</time></trkpt><trkpt lat="44.31865532423643" lon="7.686010054835606"><ele>601.0</ele><time>2026-05-02T14:49:01Z</time></trkpt><trkpt lat="44.318804949876345" lon="7.685915335440772"><ele>602.25</ele><time>2026-05-02T14:49:02Z</time></trkpt><trkpt lat="44.31893914169572" lon="7.685812650105346"><ele>603.5</ele><time>2026-05-02T14:49:03Z</time></trkpt><trkpt lat="44.319056519032074" lon="7.6857270285547905"><ele>604.75</ele><time>2026-05-02T14:49:04Z</time></trkpt><trkpt lat="44.31916165814339" lon="7.685650345865904"><ele>606.0</ele><time>2026-05-02T14:49:05Z</time></trkpt><trkpt lat="44.319258210351826" lon="7.685578356293301"><ele>606.0</ele><time>2026-05-02T14:49:06Z</time></trkpt><trkpt lat="44.319347725452275" lon="7.685499524230557"><ele>606.0</ele><time>2026-05-02T14:49:07Z</time></trkpt><trkpt lat="44.31943525043175" lon="7.685418845160909"><ele>606.0</ele><time>2026-05-02T14:49:08Z</time></trkpt><trkpt lat="44.31951837287697" lon="7.68535449343738"><ele>606.0</ele><time>2026-05-02T14:49:09Z</time></trkpt><trkpt lat="44.3195897421711" lon="7.685299520052437"><ele>606.0</ele><time>2026-05-02T14:49:10Z</time></trkpt><trkpt lat="44.31966335416739" lon="7.685238196903278"><ele>603.8</ele><time>2026-05-02T14:49:11Z</time></trkpt><trkpt lat="44.319734548269636" lon="7.685159312019365"><ele>601.6</ele><time>2026-05-02T14:49:12Z</time></trkpt><trkpt lat="44.319831770648314" lon="7.685084144682618"><ele>599.4</ele><time>2026-05-02T14:49:13Z</time></trkpt><trkpt lat="44.319920037670435" lon="7.684964739823154"><ele>597.2</ele><time>2026-05-02T14:49:14Z</time></trkpt><trkpt lat="44.32001713868457" lon="7.68486201733788"><ele>595.0</ele><time>2026-05-02T14:49:15Z</time></trkpt><trkpt lat="44.32011585876088" lon="7.684752662900109"><ele>595.0</ele><time>2026-05-02T14:49:16Z</time></trkpt><trkpt lat="44.320217720347166" lon="7.684647266791795"><ele>595.0</ele><time>2026-05-02T14:49:17Z</time></trkpt><trkpt lat="44.320322470906184" lon="7.684541263169115"><ele>595.0</ele><time>2026-05-02T14:49:18Z</time></trkpt><trkpt lat="44.32044323204211" lon="7.6844178842527935"><ele>595.0</ele><time>2026-05-02T14:49:19Z</time></trkpt><trkpt lat="44.32058124488617" lon="7.6842832349987775"><ele>594.0</ele><time>2026-05-02T14:49:20Z</time></trkpt><trkpt lat="44.320753194681075" lon="7.684173921656391"><ele>593.0</ele><time>2026-05-02T14:49:21Z</time></trkpt><trkpt lat="44.32097238123101" lon="7.684058601930374"><ele>592.0</ele><time>2026-05-02T14:49:22Z</time></trkpt><trkpt lat="44.32118793470092" lon="7.6839548605928885"><ele>590.3333333333334</ele><time>2026-05-02T14:49:23Z</time></trkpt><trkpt lat="44.321401445450896" lon="7.683826512156067"><ele>588.6666666666666</ele><time>2026-05-02T14:49:24Z</time></trkpt><trkpt lat="44.321592687436414" lon="7.683700021959179"><ele>587.0</ele><time>2026-05-02T14:49:25Z</time></trkpt><trkpt lat="44.32177877769073" lon="7.6835849422627325"><ele>587.0</ele><time>2026-05-02T14:49:26Z</time></trkpt><trkpt lat="44.32196820672497" lon="7.683448455160351"><ele>587.0</ele><time>2026-05-02T14:49:27Z</time></trkpt><trkpt lat="44.32215643802782" lon="7.683281544374707"><ele>587.0</ele><time>2026-05-02T14:49:28Z</time></trkpt><trkpt lat="44.322354586477175" lon="7.683098601927326"><ele>585.0</ele><time>2026-05-02T14:49:29Z</time></trkpt><trkpt lat="44.32254277633145" lon="7.682925403164405"><ele>583.0</ele><time>2026-05-02T14:49:30Z</time></trkpt><trkpt lat="44.32271876826231" lon="7.682759581181288"><ele>581.0</ele><time>2026-05-02T14:49:31Z</time></trkpt><trkpt lat="44.32289025938683" lon="7.682592958347409"><ele>588.0</ele><time>2026-05-02T14:49:32Z</time></trkpt><trkpt lat="44.323067520933805" lon="7.68241734078632"><ele>595.0</ele><time>2026-05-02T14:49:33Z</time></trkpt><trkpt lat="44.32324505250163" lon="7.682269967403758"><ele>602.0</ele><time>2026-05-02T14:49:34Z</time></trkpt><trkpt lat="44.323398424440974" lon="7.682121362649711"><ele>602.0</ele><time>2026-05-02T14:49:35Z</time></trkpt><trkpt lat="44.32351888624189" lon="7.681966638085153"><ele>602.0</ele><time>2026-05-02T14:49:36Z</time></trkpt><trkpt lat="44.32365282111811" lon="7.681845654902453"><ele>602.0</ele><time>2026-05-02T14:49:37Z</time></trkpt><trkpt lat="44.323780146535775" lon="7.681722472942626"><ele>602.75</ele><time>2026-05-02T14:49:38Z</time></trkpt><trkpt lat="44.32389543168343" lon="7.681606487229036"><ele>603.5</ele><time>2026-05-02T14:49:39Z</time></trkpt><trkpt lat="44.32401699367011" lon="7.681506146721659"><ele>604.25</ele><time>2026-05-02T14:49:40Z</time></trkpt><trkpt lat="44.32410791127262" lon="7.681356848785904"><ele>605.0</ele><time>2026-05-02T14:49:41Z</time></trkpt><trkpt lat="44.32419865269238" lon="7.681207407388295"><ele>599.75</ele><time>2026-05-02T14:49:42Z</time></trkpt><trkpt lat="44.32427818658726" lon="7.681046165404528"><ele>594.5</ele><time>2026-05-02T14:49:43Z</time></trkpt><trkpt lat="44.324365899048495" lon="7.680904984975383"><ele>589.25</ele><time>2026-05-02T14:49:44Z</time></trkpt><trkpt lat="44.32443532060475" lon="7.680764468805954"><ele>584.0</ele><time>2026-05-02T14:49:45Z</time></trkpt><trkpt lat="44.32450504543113" lon="7.680623338726632"><ele>584.0</ele><time>2026-05-02T14:49:46Z</time></trkpt><trkpt lat="44.324570068425245" lon="7.680492029207921"><ele>584.0</ele><time>2026-05-02T14:49:47Z</time></trkpt><trkpt lat="44.32463097204923" lon="7.680370857065389"><ele>584.0</ele><time>2026-05-02T14:49:48Z</time></trkpt><trkpt lat="44.32467443177644" lon="7.680288148415731"><ele>584.0</ele><time>2026-05-02T14:49:49Z</time></trkpt><trkpt lat="44.324715294616475" lon="7.6802197835178605"><ele>584.0</ele><time>2026-05-02T14:49:50Z</time></trkpt><trkpt lat="44.32476749495068" lon="7.68015528370961"><ele>584.0</ele><time>2026-05-02T14:49:51Z</time></trkpt><trkpt lat="44.32483464905473" lon="7.680096848205054"><ele>583.8</ele><time>2026-05-02T14:49:52Z</time></trkpt><trkpt lat="44.32491932502721" lon="7.680038985401166"><ele>583.5999999999999</ele><time>2026-05-02T14:49:53Z</time></trkpt><trkpt lat="44.3250101826324" lon="7.679998754744343"><ele>583.4</ele><time>2026-05-02T14:49:54Z</time></trkpt><trkpt lat="44.32511304358844" lon="7.679945279055429"><ele>583.1999999999999</ele><time>2026-05-02T14:49:55Z</time></trkpt><trkpt lat="44.32522701293661" lon="7.679926193426094"><ele>583.0</ele><time>2026-05-02T14:49:56Z</time></trkpt><trkpt lat="44.32534898390765" lon="7.6799120669689325"><ele>583.0</ele><time>2026-05-02T14:49:57Z</time></trkpt><trkpt lat="44.3254729111986" lon="7.6799024808677805"><ele>583.0</ele><time>2026-05-02T14:49:58Z</time></trkpt><trkpt lat="44.32559092531569" lon="7.67990303818367"><ele>583.0</ele><time>2026-05-02T14:49:59Z</time></trkpt><trkpt lat="44.32569679840319" lon="7.679916340242004"><ele>583.0</ele><time>2026-05-02T14:50:00Z</time></trkpt><trkpt lat="44.32579842457479" lon="7.679950758499485"><ele>583.8</ele><time>2026-05-02T14:50:01Z</time></trkpt><trkpt lat="44.32590052392401" lon="7.679992201252582"><ele>584.5999999999999</ele><time>2026-05-02T14:50:02Z</time></trkpt><trkpt lat="44.326006578647245" lon="7.680035376638419"><ele>585.4000000000001</ele><time>2026-05-02T14:50:03Z</time></trkpt><trkpt lat="44.326103100790405" lon="7.680115590236744"><ele>586.2</ele><time>2026-05-02T14:50:04Z</time></trkpt><trkpt lat="44.326198863327896" lon="7.680168055725235"><ele>587.0</ele><time>2026-05-02T14:50:05Z</time></trkpt><trkpt lat="44.326280631537784" lon="7.680228690397413"><ele>587.0</ele><time>2026-05-02T14:50:06Z</time></trkpt><trkpt lat="44.32636108282517" lon="7.6802856056434905"><ele>587.0</ele><time>2026-05-02T14:50:07Z</time></trkpt><trkpt lat="44.32643676817059" lon="7.680310477628758"><ele>587.0</ele><time>2026-05-02T14:50:08Z</time></trkpt><trkpt lat="44.32650737153202" lon="7.680290798565579"><ele>587.0</ele><time>2026-05-02T14:50:09Z</time></trkpt><trkpt lat="44.32656803703326" lon="7.680254032503706"><ele>587.0</ele><time>2026-05-02T14:50:10Z</time></trkpt><trkpt lat="44.32661587229021" lon="7.6801191391418495"><ele>587.0</ele><time>2026-05-02T14:50:11Z</time></trkpt><trkpt lat="44.326659980834705" lon="7.679969054439087"><ele>582.0</ele><time>2026-05-02T14:50:12Z</time></trkpt><trkpt lat="44.32671218793896" lon="7.679793066970402"><ele>577.0</ele><time>2026-05-02T14:50:13Z</time></trkpt><trkpt lat="44.32677761515192" lon="7.679599602480768"><ele>572.0</ele><time>2026-05-02T14:50:14Z</time></trkpt><trkpt lat="44.32684983552332" lon="7.679389920528612"><ele>572.0</ele><time>2026-05-02T14:50:15Z</time></trkpt><trkpt lat="44.32691710143576" lon="7.679171885010921"><ele>572.0</ele><time>2026-05-02T14:50:16Z</time></trkpt><trkpt lat="44.32696956429236" lon="7.678943488013218"><ele>572.0</ele><time>2026-05-02T14:50:17Z</time></trkpt><trkpt lat="44.32701114717548" lon="7.6786895562778925"><ele>572.0</ele><time>2026-05-02T14:50:18Z</time></trkpt><trkpt lat="44.327049484729216" lon="7.678427955039026"><ele>572.0</ele><time>2026-05-02T14:50:19Z</time></trkpt><trkpt lat="44.32708033523534" lon="7.678187282182475"><ele>572.0</ele><time>2026-05-02T14:50:20Z</time></trkpt><trkpt lat="44.327113555623555" lon="7.677977567625583"><ele>572.0</ele><time>2026-05-02T14:50:21Z</time></trkpt><trkpt lat="44.327148135773236" lon="7.677782566360162"><ele>572.0</ele><time>2026-05-02T14:50:22Z</time></trkpt><trkpt lat="44.32718127464959" lon="7.677591900328108"><ele>572.0</ele><time>2026-05-02T14:50:23Z</time></trkpt><trkpt lat="44.327207378949396" lon="7.677401527959845"><ele>572.0</ele><time>2026-05-02T14:50:24Z</time></trkpt><trkpt lat="44.3272320884115" lon="7.677196636298789"><ele>571.0</ele><time>2026-05-02T14:50:25Z</time></trkpt><trkpt lat="44.327258214793815" lon="7.6769922519408"><ele>570.0</ele><time>2026-05-02T14:50:26Z</time></trkpt><trkpt lat="44.32729088366421" lon="7.676798091341336"><ele>569.0</ele><time>2026-05-02T14:50:27Z</time></trkpt><trkpt lat="44.32731787717194" lon="7.67661450178344"><ele>568.0</ele><time>2026-05-02T14:50:28Z</time></trkpt><trkpt lat="44.3273448102612" lon="7.676442306972318"><ele>568.0</ele><time>2026-05-02T14:50:29Z</time></trkpt><trkpt lat="44.32737406974722" lon="7.676265755076154"><ele>568.0</ele><time>2026-05-02T14:50:30Z</time></trkpt><trkpt lat="44.327403221977086" lon="7.6760854105776595"><ele>568.0</ele><time>2026-05-02T14:50:31Z</time></trkpt><trkpt lat="44.32743240586214" lon="7.675891639247546"><ele>568.0</ele><time>2026-05-02T14:50:32Z</time></trkpt><trkpt lat="44.32746288489251" lon="7.675692564377376"><ele>568.0</ele><time>2026-05-02T14:50:33Z</time></trkpt><trkpt lat="44.32749122988321" lon="7.6754604849641614"><ele>568.0</ele><time>2026-05-02T14:50:34Z</time></trkpt><trkpt lat="44.327526953028716" lon="7.675187711475771"><ele>568.0</ele><time>2026-05-02T14:50:35Z</time></trkpt><trkpt lat="44.32757645067927" lon="7.674921777790569"><ele>568.0</ele><time>2026-05-02T14:50:36Z</time></trkpt><trkpt lat="44.32763027240977" lon="7.674645311516151"><ele>568.0</ele><time>2026-05-02T14:50:37Z</time></trkpt><trkpt lat="44.32767484785465" lon="7.6743458625489165"><ele>568.0</ele><time>2026-05-02T14:50:38Z</time></trkpt><trkpt lat="44.327718319839796" lon="7.67402037946638"><ele>567.5</ele><time>2026-05-02T14:50:39Z</time></trkpt><trkpt lat="44.32776181046689" lon="7.673690768379149"><ele>567.0</ele><time>2026-05-02T14:50:40Z</time></trkpt><trkpt lat="44.327807820803095" lon="7.673375150469257"><ele>566.3333333333334</ele><time>2026-05-02T14:50:41Z</time></trkpt><trkpt lat="44.32785063866636" lon="7.673094376548664"><ele>565.6666666666667</ele><time>2026-05-02T14:50:42Z</time></trkpt><trkpt lat="44.32788876544165" lon="7.672857442153044"><ele>565.0</ele><time>2026-05-02T14:50:43Z</time></trkpt><trkpt lat="44.32792596946168" lon="7.672627161681577"><ele>566.3333333333334</ele><time>2026-05-02T14:50:44Z</time></trkpt><trkpt lat="44.327959820778574" lon="7.672403430290901"><ele>567.6666666666666</ele><time>2026-05-02T14:50:45Z</time></trkpt><trkpt lat="44.32799121203146" lon="7.6721746836362925"><ele>569.0</ele><time>2026-05-02T14:50:46Z</time></trkpt><trkpt lat="44.3280249106404" lon="7.671943130341393"><ele>571.0</ele><time>2026-05-02T14:50:47Z</time></trkpt><trkpt lat="44.32805731958091" lon="7.671714149565348"><ele>573.0</ele><time>2026-05-02T14:50:48Z</time></trkpt><trkpt lat="44.32808514290275" lon="7.671485375334701"><ele>575.0</ele><time>2026-05-02T14:50:49Z</time></trkpt><trkpt lat="44.32812298569456" lon="7.671258719758502"><ele>575.2</ele><time>2026-05-02T14:50:50Z</time></trkpt><trkpt lat="44.32815458244681" lon="7.67107150420812"><ele>575.4</ele><time>2026-05-02T14:50:51Z</time></trkpt><trkpt lat="44.32817924386838" lon="7.670918938997628"><ele>575.6</ele><time>2026-05-02T14:50:52Z</time></trkpt><trkpt lat="44.3281972316921" lon="7.670799173300842"><ele>575.8</ele><time>2026-05-02T14:50:53Z</time></trkpt><trkpt lat="44.32821207035528" lon="7.670700158822458"><ele>576.0</ele><time>2026-05-02T14:50:54Z</time></trkpt><trkpt lat="44.328230390231546" lon="7.6705673751218"><ele>576.0</ele><time>2026-05-02T14:50:56Z</time></trkpt><trkpt lat="44.32826446887451" lon="7.670458509604117"><ele>576.0</ele><time>2026-05-02T14:50:58Z</time></trkpt><trkpt lat="44.32832477451444" lon="7.670351686061943"><ele>576.0</ele><time>2026-05-02T14:50:59Z</time></trkpt><trkpt lat="44.32840893671935" lon="7.670208622835971"><ele>576.0</ele><time>2026-05-02T14:51:00Z</time></trkpt><trkpt lat="44.3285143056166" lon="7.670037330569619"><ele>575.3333333333334</ele><time>2026-05-02T14:51:01Z</time></trkpt><trkpt lat="44.32865087184612" lon="7.669844144618888"><ele>574.6666666666667</ele><time>2026-05-02T14:51:02Z</time></trkpt><trkpt lat="44.32879643235398" lon="7.669648074920241"><ele>574.0</ele><time>2026-05-02T14:51:03Z</time></trkpt><trkpt lat="44.32893225943192" lon="7.66944415115757"><ele>573.3333333333334</ele><time>2026-05-02T14:51:04Z</time></trkpt><trkpt lat="44.329054506755504" lon="7.669261071538217"><ele>572.6666666666666</ele><time>2026-05-02T14:51:05Z</time></trkpt><trkpt lat="44.32916917082416" lon="7.6690869520059275"><ele>572.0</ele><time>2026-05-02T14:51:06Z</time></trkpt><trkpt lat="44.329271503884726" lon="7.6689150336745096"><ele>572.0</ele><time>2026-05-02T14:51:07Z</time></trkpt><trkpt lat="44.32937892309" lon="7.66872951871596"><ele>572.0</ele><time>2026-05-02T14:51:08Z</time></trkpt><trkpt lat="44.32947782030061" lon="7.66853937904703"><ele>572.0</ele><time>2026-05-02T14:51:09Z</time></trkpt><trkpt lat="44.32956247597023" lon="7.668329918485265"><ele>572.3333333333333</ele><time>2026-05-02T14:51:10Z</time></trkpt><trkpt lat="44.32963417959769" lon="7.668119198242943"><ele>572.6666666666666</ele><time>2026-05-02T14:51:11Z</time></trkpt><trkpt lat="44.32970240593114" lon="7.667899996393088"><ele>573.0</ele><time>2026-05-02T14:51:12Z</time></trkpt><trkpt lat="44.32976290569367" lon="7.667678564661702"><ele>571.6666666666666</ele><time>2026-05-02T14:51:13Z</time></trkpt><trkpt lat="44.32981017938447" lon="7.667455709528562"><ele>570.3333333333333</ele><time>2026-05-02T14:51:14Z</time></trkpt><trkpt lat="44.32984918060376" lon="7.66722518743077"><ele>569.0</ele><time>2026-05-02T14:51:15Z</time></trkpt><trkpt lat="44.32988001086644" lon="7.666984647760459"><ele>568.0</ele><time>2026-05-02T14:51:16Z</time></trkpt><trkpt lat="44.329902498046465" lon="7.666737627342376"><ele>567.0</ele><time>2026-05-02T14:51:17Z</time></trkpt><trkpt lat="44.329910367375035" lon="7.6664891389901415"><ele>566.0</ele><time>2026-05-02T14:51:18Z</time></trkpt><trkpt lat="44.32991269789409" lon="7.66623416827692"><ele>566.0</ele><time>2026-05-02T14:51:19Z</time></trkpt><trkpt lat="44.32989764537042" lon="7.6659567667770885"><ele>566.0</ele><time>2026-05-02T14:51:20Z</time></trkpt><trkpt lat="44.32986850111749" lon="7.665650579671954"><ele>566.0</ele><time>2026-05-02T14:51:21Z</time></trkpt><trkpt lat="44.3298296039739" lon="7.665308663958275"><ele>566.0</ele><time>2026-05-02T14:51:22Z</time></trkpt><trkpt lat="44.32978137586885" lon="7.664946151798306"><ele>566.0</ele><time>2026-05-02T14:51:23Z</time></trkpt><trkpt lat="44.32973167834564" lon="7.664578326360698"><ele>565.5</ele><time>2026-05-02T14:51:24Z</time></trkpt><trkpt lat="44.32968484453554" lon="7.664192186001677"><ele>565.0</ele><time>2026-05-02T14:51:25Z</time></trkpt><trkpt lat="44.32963221086655" lon="7.663785424457888"><ele>565.0</ele><time>2026-05-02T14:51:26Z</time></trkpt><trkpt lat="44.32957947456828" lon="7.66336857618413"><ele>565.0</ele><time>2026-05-02T14:51:27Z</time></trkpt><trkpt lat="44.32952389499916" lon="7.662958644168503"><ele>565.0</ele><time>2026-05-02T14:51:28Z</time></trkpt><trkpt lat="44.32946969469571" lon="7.662578410412179"><ele>565.0</ele><time>2026-05-02T14:51:29Z</time></trkpt><trkpt lat="44.32941737078999" lon="7.662205320272997"><ele>563.0</ele><time>2026-05-02T14:51:30Z</time></trkpt><trkpt lat="44.32936543649232" lon="7.6618227323601324"><ele>561.0</ele><time>2026-05-02T14:51:31Z</time></trkpt><trkpt lat="44.329331061274935" lon="7.661424491224329"><ele>561.0</ele><time>2026-05-02T14:51:32Z</time></trkpt><trkpt lat="44.329266448871515" lon="7.661030467759718"><ele>561.0</ele><time>2026-05-02T14:51:33Z</time></trkpt><trkpt lat="44.329217133578105" lon="7.660636740163836"><ele>561.0</ele><time>2026-05-02T14:51:34Z</time></trkpt><trkpt lat="44.32916342925947" lon="7.660242421181656"><ele>561.0</ele><time>2026-05-02T14:51:35Z</time></trkpt><trkpt lat="44.32912794878057" lon="7.659846546176914"><ele>561.0</ele><time>2026-05-02T14:51:36Z</time></trkpt><trkpt lat="44.32907602649201" lon="7.659441300070435"><ele>561.0</ele><time>2026-05-02T14:51:37Z</time></trkpt><trkpt lat="44.32902070519005" lon="7.659006860459524"><ele>560.0</ele><time>2026-05-02T14:51:38Z</time></trkpt><trkpt lat="44.32895324816564" lon="7.658578412318386"><ele>559.0</ele><time>2026-05-02T14:51:39Z</time></trkpt><trkpt lat="44.328900634637755" lon="7.658119383902777"><ele>558.0</ele><time>2026-05-02T14:51:40Z</time></trkpt><trkpt lat="44.32884009523233" lon="7.657643925742883"><ele>557.0</ele><time>2026-05-02T14:51:41Z</time></trkpt><trkpt lat="44.3287743338842" lon="7.657151012939848"><ele>557.0</ele><time>2026-05-02T14:51:42Z</time></trkpt><trkpt lat="44.328706978585544" lon="7.656633944092759"><ele>557.0</ele><time>2026-05-02T14:51:43Z</time></trkpt><trkpt lat="44.32863913479731" lon="7.656107198223613"><ele>557.0</ele><time>2026-05-02T14:51:44Z</time></trkpt><trkpt lat="44.328572088680815" lon="7.65560314788154"><ele>557.0</ele><time>2026-05-02T14:51:45Z</time></trkpt><trkpt lat="44.32850883279548" lon="7.655088677919951"><ele>557.0</ele><time>2026-05-02T14:51:46Z</time></trkpt><trkpt lat="44.328444467774105" lon="7.654567845431002"><ele>557.0</ele><time>2026-05-02T14:51:47Z</time></trkpt><trkpt lat="44.32837850896799" lon="7.6540386010773185"><ele>557.5</ele><time>2026-05-02T14:51:48Z</time></trkpt><trkpt lat="44.32830469248594" lon="7.653492878822922"><ele>558.0</ele><time>2026-05-02T14:51:49Z</time></trkpt><trkpt lat="44.3282400199408" lon="7.652987172444687"><ele>559.5</ele><time>2026-05-02T14:51:50Z</time></trkpt><trkpt lat="44.32818560395757" lon="7.6525456501049165"><ele>561.0</ele><time>2026-05-02T14:51:51Z</time></trkpt><trkpt lat="44.32812899823041" lon="7.65210903063108"><ele>562.5</ele><time>2026-05-02T14:51:52Z</time></trkpt><trkpt lat="44.32809191288851" lon="7.651735179105845"><ele>564.0</ele><time>2026-05-02T14:51:53Z</time></trkpt><trkpt lat="44.328056323911035" lon="7.651475496887839"><ele>567.0</ele><time>2026-05-02T14:51:54Z</time></trkpt><trkpt lat="44.32801536102059" lon="7.651169329379471"><ele>570.0</ele><time>2026-05-02T14:51:55Z</time></trkpt><trkpt lat="44.32797278245666" lon="7.6508510344087695"><ele>570.0</ele><time>2026-05-02T14:51:56Z</time></trkpt><trkpt lat="44.32793010545059" lon="7.650529449276204"><ele>570.0</ele><time>2026-05-02T14:51:57Z</time></trkpt><trkpt lat="44.32789291058006" lon="7.65020667308193"><ele>571.5</ele><time>2026-05-02T14:51:58Z</time></trkpt><trkpt lat="44.32785621842437" lon="7.649878820860901"><ele>573.0</ele><time>2026-05-02T14:51:59Z</time></trkpt><trkpt lat="44.32781360509565" lon="7.64954696032534"><ele>574.0</ele><time>2026-05-02T14:52:00Z</time></trkpt><trkpt lat="44.327774154805624" lon="7.649224506188064"><ele>575.0</ele><time>2026-05-02T14:52:01Z</time></trkpt><trkpt lat="44.32773983332341" lon="7.648936975041528"><ele>576.0</ele><time>2026-05-02T14:52:02Z</time></trkpt><trkpt lat="44.32770742415061" lon="7.648668720918822"><ele>575.3333333333334</ele><time>2026-05-02T14:52:03Z</time></trkpt><trkpt lat="44.327674321331564" lon="7.648397484432247"><ele>574.6666666666667</ele><time>2026-05-02T14:52:04Z</time></trkpt><trkpt lat="44.32763570801282" lon="7.648120465147066"><ele>574.0</ele><time>2026-05-02T14:52:05Z</time></trkpt><trkpt lat="44.32758849047811" lon="7.647831336513517"><ele>572.5</ele><time>2026-05-02T14:52:06Z</time></trkpt><trkpt lat="44.32752459832651" lon="7.64751940923384"><ele>571.0</ele><time>2026-05-02T14:52:07Z</time></trkpt><trkpt lat="44.32744192242649" lon="7.647174966195849"><ele>571.0</ele><time>2026-05-02T14:52:08Z</time></trkpt><trkpt lat="44.32737887972943" lon="7.646808654063707"><ele>571.0</ele><time>2026-05-02T14:52:09Z</time></trkpt><trkpt lat="44.32731093074764" lon="7.646483476092484"><ele>575.5</ele><time>2026-05-02T14:52:10Z</time></trkpt><trkpt lat="44.32719871098157" lon="7.646206532125629"><ele>580.0</ele><time>2026-05-02T14:52:11Z</time></trkpt><trkpt lat="44.32711981830329" lon="7.64591205821074"><ele>580.0</ele><time>2026-05-02T14:52:12Z</time></trkpt><trkpt lat="44.327048729083685" lon="7.645638296056542"><ele>580.0</ele><time>2026-05-02T14:52:13Z</time></trkpt><trkpt lat="44.32698907298223" lon="7.645394645639849"><ele>580.0</ele><time>2026-05-02T14:52:14Z</time></trkpt><trkpt lat="44.32693495941972" lon="7.645172495554989"><ele>578.3333333333334</ele><time>2026-05-02T14:52:15Z</time></trkpt><trkpt lat="44.32688994425094" lon="7.644946580780727"><ele>576.6666666666666</ele><time>2026-05-02T14:52:16Z</time></trkpt><trkpt lat="44.32687293656638" lon="7.644715053393926"><ele>575.0</ele><time>2026-05-02T14:52:17Z</time></trkpt><trkpt lat="44.32686332742349" lon="7.644438552251633"><ele>573.0</ele><time>2026-05-02T14:52:18Z</time></trkpt><trkpt lat="44.32687069134365" lon="7.6441492057048475"><ele>571.0</ele><time>2026-05-02T14:52:19Z</time></trkpt><trkpt lat="44.326888251831754" lon="7.6438377316495005"><ele>569.0</ele><time>2026-05-02T14:52:20Z</time></trkpt><trkpt lat="44.326920771670075" lon="7.64349237488173"><ele>567.0</ele><time>2026-05-02T14:52:21Z</time></trkpt><trkpt lat="44.32697259967547" lon="7.643132385027821"><ele>565.0</ele><time>2026-05-02T14:52:22Z</time></trkpt><trkpt lat="44.32702707103114" lon="7.642762997364934"><ele>563.5</ele><time>2026-05-02T14:52:23Z</time></trkpt><trkpt lat="44.32707870502883" lon="7.642356347704418"><ele>562.0</ele><time>2026-05-02T14:52:24Z</time></trkpt><trkpt lat="44.3271292302566" lon="7.641921967013062"><ele>562.0</ele><time>2026-05-02T14:52:25Z</time></trkpt><trkpt lat="44.327178230748764" lon="7.641484390367836"><ele>562.0</ele><time>2026-05-02T14:52:26Z</time></trkpt><trkpt lat="44.32723392539488" lon="7.641066512908214"><ele>560.5</ele><time>2026-05-02T14:52:27Z</time></trkpt><trkpt lat="44.32728907710794" lon="7.640688899088899"><ele>559.0</ele><time>2026-05-02T14:52:28Z</time></trkpt><trkpt lat="44.327337476745754" lon="7.640343288539896"><ele>559.6666666666667</ele><time>2026-05-02T14:52:29Z</time></trkpt><trkpt lat="44.32737862772849" lon="7.6400332092523096"><ele>560.3333333333334</ele><time>2026-05-02T14:52:30Z</time></trkpt><trkpt lat="44.327419905048636" lon="7.639749186149061"><ele>561.0</ele><time>2026-05-02T14:52:31Z</time></trkpt><trkpt lat="44.327469816971416" lon="7.639481212986838"><ele>562.0</ele><time>2026-05-02T14:52:32Z</time></trkpt><trkpt lat="44.327540789330136" lon="7.639205478154178"><ele>563.0</ele><time>2026-05-02T14:52:33Z</time></trkpt><trkpt lat="44.32763818373764" lon="7.638938757723234"><ele>564.0</ele><time>2026-05-02T14:52:34Z</time></trkpt><trkpt lat="44.32775947270193" lon="7.63867260839155"><ele>564.5</ele><time>2026-05-02T14:52:35Z</time></trkpt><trkpt lat="44.327912007084166" lon="7.638386763979944"><ele>565.0</ele><time>2026-05-02T14:52:36Z</time></trkpt><trkpt lat="44.32808711620935" lon="7.638096891625751"><ele>565.5</ele><time>2026-05-02T14:52:37Z</time></trkpt><trkpt lat="44.32826268053856" lon="7.6378121163339205"><ele>566.0</ele><time>2026-05-02T14:52:38Z</time></trkpt><trkpt lat="44.32841380840321" lon="7.637553181587992"><ele>566.0</ele><time>2026-05-02T14:52:39Z</time></trkpt><trkpt lat="44.328541837291326" lon="7.637327968929497"><ele>566.0</ele><time>2026-05-02T14:52:40Z</time></trkpt><trkpt lat="44.32865851040259" lon="7.63710273806537"><ele>566.0</ele><time>2026-05-02T14:52:41Z</time></trkpt><trkpt lat="44.3287718204977" lon="7.636854299120251"><ele>566.5</ele><time>2026-05-02T14:52:42Z</time></trkpt><trkpt lat="44.32888194451722" lon="7.636591396111481"><ele>567.0</ele><time>2026-05-02T14:52:43Z</time></trkpt><trkpt lat="44.32898673480127" lon="7.636301273996026"><ele>567.5</ele><time>2026-05-02T14:52:44Z</time></trkpt><trkpt lat="44.32909166785956" lon="7.635985601540216"><ele>568.0</ele><time>2026-05-02T14:52:45Z</time></trkpt><trkpt lat="44.32918224121537" lon="7.635688026314447"><ele>568.0</ele><time>2026-05-02T14:52:46Z</time></trkpt><trkpt lat="44.32925928719877" lon="7.635418708515935"><ele>568.0</ele><time>2026-05-02T14:52:47Z</time></trkpt><trkpt lat="44.32933453524134" lon="7.6351547520462"><ele>568.0</ele><time>2026-05-02T14:52:48Z</time></trkpt><trkpt lat="44.32940606542527" lon="7.634906603534545"><ele>568.0</ele><time>2026-05-02T14:52:49Z</time></trkpt><trkpt lat="44.329472749430124" lon="7.634675643509834"><ele>568.0</ele><time>2026-05-02T14:52:50Z</time></trkpt><trkpt lat="44.329533134866" lon="7.634455986130154"><ele>568.0</ele><time>2026-05-02T14:52:51Z</time></trkpt><trkpt lat="44.32959372972699" lon="7.634248180009659"><ele>568.3333333333334</ele><time>2026-05-02T14:52:52Z</time></trkpt><trkpt lat="44.3296569029253" lon="7.634042211323099"><ele>568.6666666666666</ele><time>2026-05-02T14:52:53Z</time></trkpt><trkpt lat="44.329715621755575" lon="7.633843577506835"><ele>569.0</ele><time>2026-05-02T14:52:54Z</time></trkpt><trkpt lat="44.32977251525709" lon="7.6336435757331715"><ele>568.75</ele><time>2026-05-02T14:52:55Z</time></trkpt><trkpt lat="44.32982798755469" lon="7.633447122855513"><ele>568.5</ele><time>2026-05-02T14:52:56Z</time></trkpt><trkpt lat="44.32988096843469" lon="7.633253757006425"><ele>568.25</ele><time>2026-05-02T14:52:57Z</time></trkpt><trkpt lat="44.32993573995591" lon="7.633070641273723"><ele>568.0</ele><time>2026-05-02T14:52:58Z</time></trkpt><trkpt lat="44.32999087546369" lon="7.632895307673154"><ele>568.25</ele><time>2026-05-02T14:52:59Z</time></trkpt><trkpt lat="44.33003948865121" lon="7.632721517525913"><ele>568.5</ele><time>2026-05-02T14:53:00Z</time></trkpt><trkpt lat="44.33008431434799" lon="7.632545179978936"><ele>568.75</ele><time>2026-05-02T14:53:01Z</time></trkpt><trkpt lat="44.33013335250987" lon="7.632368450542619"><ele>569.0</ele><time>2026-05-02T14:53:02Z</time></trkpt><trkpt lat="44.33018116749327" lon="7.632187202640744"><ele>569.0</ele><time>2026-05-02T14:53:03Z</time></trkpt><trkpt lat="44.33022657840962" lon="7.632001600871196"><ele>569.0</ele><time>2026-05-02T14:53:04Z</time></trkpt><trkpt lat="44.33026719326428" lon="7.631810234428005"><ele>569.0</ele><time>2026-05-02T14:53:05Z</time></trkpt><trkpt lat="44.33030394541767" lon="7.631609274583512"><ele>569.0</ele><time>2026-05-02T14:53:06Z</time></trkpt><trkpt lat="44.330333577550185" lon="7.631394832188212"><ele>569.0</ele><time>2026-05-02T14:53:07Z</time></trkpt><trkpt lat="44.3303572226511" lon="7.631157639809504"><ele>569.0</ele><time>2026-05-02T14:53:08Z</time></trkpt><trkpt lat="44.33037511622174" lon="7.630894066643194"><ele>569.0</ele><time>2026-05-02T14:53:09Z</time></trkpt><trkpt lat="44.33038785506277" lon="7.630626346331598"><ele>569.5</ele><time>2026-05-02T14:53:10Z</time></trkpt><trkpt lat="44.33039652681634" lon="7.630330698418775"><ele>570.0</ele><time>2026-05-02T14:53:11Z</time></trkpt><trkpt lat="44.33040187492155" lon="7.62999815397908"><ele>571.5</ele><time>2026-05-02T14:53:12Z</time></trkpt><trkpt lat="44.33040527036755" lon="7.62966470584116"><ele>573.0</ele><time>2026-05-02T14:53:13Z</time></trkpt><trkpt lat="44.33041062581483" lon="7.629347216287605"><ele>573.5</ele><time>2026-05-02T14:53:14Z</time></trkpt><trkpt lat="44.33041547205038" lon="7.629032058012307"><ele>574.0</ele><time>2026-05-02T14:53:15Z</time></trkpt><trkpt lat="44.33042076244348" lon="7.6287115883208605"><ele>574.0</ele><time>2026-05-02T14:53:16Z</time></trkpt><trkpt lat="44.33042544733449" lon="7.628416660124268"><ele>574.0</ele><time>2026-05-02T14:53:17Z</time></trkpt><trkpt lat="44.33043152654069" lon="7.628139936196643"><ele>574.0</ele><time>2026-05-02T14:53:18Z</time></trkpt><trkpt lat="44.33043810704668" lon="7.627862402267607"><ele>574.3333333333334</ele><time>2026-05-02T14:53:19Z</time></trkpt><trkpt lat="44.330440808687364" lon="7.62759146778035"><ele>574.6666666666666</ele><time>2026-05-02T14:53:20Z</time></trkpt><trkpt lat="44.330441233976714" lon="7.627315031693899"><ele>575.0</ele><time>2026-05-02T14:53:21Z</time></trkpt><trkpt lat="44.33044326857156" lon="7.627062653454761"><ele>575.0</ele><time>2026-05-02T14:53:22Z</time></trkpt><trkpt lat="44.33044760931241" lon="7.626841819142942"><ele>575.0</ele><time>2026-05-02T14:53:23Z</time></trkpt><trkpt lat="44.33044942889684" lon="7.626648948158232"><ele>575.0</ele><time>2026-05-02T14:53:24Z</time></trkpt><trkpt lat="44.33045141491885" lon="7.6264852976443205"><ele>575.0</ele><time>2026-05-02T14:53:25Z</time></trkpt><trkpt lat="44.3304539236687" lon="7.626351785376807"><ele>575.0</ele><time>2026-05-02T14:53:26Z</time></trkpt><trkpt lat="44.330463586087895" lon="7.626209721324723"><ele>575.0</ele><time>2026-05-02T14:53:27Z</time></trkpt><trkpt lat="44.33048338047608" lon="7.626081210367325"><ele>575.0</ele><time>2026-05-02T14:53:28Z</time></trkpt><trkpt lat="44.33051153809" lon="7.625971635621774"><ele>575.0</ele><time>2026-05-02T14:53:29Z</time></trkpt><trkpt lat="44.3305308696811" lon="7.625852969825774"><ele>575.0</ele><time>2026-05-02T14:53:30Z</time></trkpt><trkpt lat="44.330618429028384" lon="7.625735312999375"><ele>574.0</ele><time>2026-05-02T14:53:31Z</time></trkpt><trkpt lat="44.33071594354122" lon="7.625622854690589"><ele>573.0</ele><time>2026-05-02T14:53:32Z</time></trkpt><trkpt lat="44.330816879594025" lon="7.625491163843363"><ele>572.0</ele><time>2026-05-02T14:53:33Z</time></trkpt><trkpt lat="44.33101003496744" lon="7.625442721719615"><ele>572.0</ele><time>2026-05-02T14:53:34Z</time></trkpt><trkpt lat="44.331198725685226" lon="7.625365090574377"><ele>572.0</ele><time>2026-05-02T14:53:35Z</time></trkpt><trkpt lat="44.33140088451994" lon="7.625285135114616"><ele>572.0</ele><time>2026-05-02T14:53:36Z</time></trkpt><trkpt lat="44.33157231350352" lon="7.625217716775793"><ele>571.5</ele><time>2026-05-02T14:53:37Z</time></trkpt><trkpt lat="44.331724828461674" lon="7.625145350718009"><ele>571.0</ele><time>2026-05-02T14:53:38Z</time></trkpt><trkpt lat="44.33186543981518" lon="7.625074296600761"><ele>570.5</ele><time>2026-05-02T14:53:39Z</time></trkpt><trkpt lat="44.33199498396406" lon="7.62500412103108"><ele>570.0</ele><time>2026-05-02T14:53:40Z</time></trkpt><trkpt lat="44.33212511941575" lon="7.624935907191207"><ele>569.6666666666666</ele><time>2026-05-02T14:53:41Z</time></trkpt><trkpt lat="44.33226726253037" lon="7.624854444420953"><ele>569.3333333333333</ele><time>2026-05-02T14:53:42Z</time></trkpt><trkpt lat="44.33241425855984" lon="7.624731323823938"><ele>569.0</ele><time>2026-05-02T14:53:43Z</time></trkpt><trkpt lat="44.33256387615443" lon="7.624583305398389"><ele>569.0</ele><time>2026-05-02T14:53:44Z</time></trkpt><trkpt lat="44.332708994688986" lon="7.624405344019803"><ele>569.0</ele><time>2026-05-02T14:53:45Z</time></trkpt><trkpt lat="44.332871817086634" lon="7.624185603511195"><ele>569.0</ele><time>2026-05-02T14:53:46Z</time></trkpt><trkpt lat="44.333041484431135" lon="7.623930346388519"><ele>567.0</ele><time>2026-05-02T14:53:47Z</time></trkpt><trkpt lat="44.33319196862261" lon="7.623701353152474"><ele>565.0</ele><time>2026-05-02T14:53:48Z</time></trkpt><trkpt lat="44.33332562709682" lon="7.6235155972612025"><ele>563.0</ele><time>2026-05-02T14:53:49Z</time></trkpt><trkpt lat="44.33344269986389" lon="7.623356269301966"><ele>562.75</ele><time>2026-05-02T14:53:50Z</time></trkpt><trkpt lat="44.333549896257594" lon="7.623217931044003"><ele>562.5</ele><time>2026-05-02T14:53:51Z</time></trkpt><trkpt lat="44.3336573496524" lon="7.6231092651397105"><ele>562.25</ele><time>2026-05-02T14:53:52Z</time></trkpt><trkpt lat="44.33377463305905" lon="7.623018583885287"><ele>562.0</ele><time>2026-05-02T14:53:53Z</time></trkpt><trkpt lat="44.33391652077596" lon="7.622941466281931"><ele>561.0</ele><time>2026-05-02T14:53:54Z</time></trkpt><trkpt lat="44.334072530192536" lon="7.62286881220046"><ele>560.0</ele><time>2026-05-02T14:53:55Z</time></trkpt><trkpt lat="44.33422344585601" lon="7.622808444999299"><ele>559.0</ele><time>2026-05-02T14:53:56Z</time></trkpt><trkpt lat="44.334362377421456" lon="7.622778544255652"><ele>559.0</ele><time>2026-05-02T14:53:57Z</time></trkpt><trkpt lat="44.33450964366567" lon="7.62277264224258"><ele>559.0</ele><time>2026-05-02T14:53:58Z</time></trkpt><trkpt lat="44.334665323377266" lon="7.6227896277979035"><ele>559.0</ele><time>2026-05-02T14:53:59Z</time></trkpt><trkpt lat="44.33480783541445" lon="7.6228253976056095"><ele>559.0</ele><time>2026-05-02T14:54:00Z</time></trkpt><trkpt lat="44.33493318050272" lon="7.622916542881852"><ele>557.3333333333334</ele><time>2026-05-02T14:54:01Z</time></trkpt><trkpt lat="44.335056857240836" lon="7.6230237133893555"><ele>555.6666666666666</ele><time>2026-05-02T14:54:02Z</time></trkpt><trkpt lat="44.33518404522787" lon="7.6231678391236875"><ele>554.0</ele><time>2026-05-02T14:54:03Z</time></trkpt><trkpt lat="44.335320276201486" lon="7.623358839462357"><ele>554.0</ele><time>2026-05-02T14:54:04Z</time></trkpt><trkpt lat="44.335459741624305" lon="7.623540018443616"><ele>554.0</ele><time>2026-05-02T14:54:05Z</time></trkpt><trkpt lat="44.33559294105747" lon="7.623686893921406"><ele>554.0</ele><time>2026-05-02T14:54:06Z</time></trkpt><trkpt lat="44.33575094198932" lon="7.623824271533455"><ele>553.3333333333333</ele><time>2026-05-02T14:54:07Z</time></trkpt><trkpt lat="44.33592884062101" lon="7.623948378046277"><ele>552.6666666666666</ele><time>2026-05-02T14:54:08Z</time></trkpt><trkpt lat="44.336105324946004" lon="7.6240491033123945"><ele>552.0</ele><time>2026-05-02T14:54:09Z</time></trkpt><trkpt lat="44.33625806070183" lon="7.624130464940442"><ele>553.6666666666666</ele><time>2026-05-02T14:54:10Z</time></trkpt><trkpt lat="44.33640635194751" lon="7.624179928400059"><ele>555.3333333333333</ele><time>2026-05-02T14:54:11Z</time></trkpt><trkpt lat="44.33655853761413" lon="7.624239804684093"><ele>557.0</ele><time>2026-05-02T14:54:12Z</time></trkpt><trkpt lat="44.33672299591815" lon="7.624278677170376"><ele>557.0</ele><time>2026-05-02T14:54:13Z</time></trkpt><trkpt lat="44.33688445345014" lon="7.624310045680881"><ele>557.0</ele><time>2026-05-02T14:54:14Z</time></trkpt><trkpt lat="44.337033047286454" lon="7.624325255824373"><ele>557.0</ele><time>2026-05-02T14:54:15Z</time></trkpt><trkpt lat="44.337173034716834" lon="7.6243286440477736"><ele>555.75</ele><time>2026-05-02T14:54:16Z</time></trkpt><trkpt lat="44.337310571311725" lon="7.6243165251897205"><ele>554.5</ele><time>2026-05-02T14:54:17Z</time></trkpt><trkpt lat="44.337445262688604" lon="7.624295456614426"><ele>553.25</ele><time>2026-05-02T14:54:18Z</time></trkpt><trkpt lat="44.337576357750045" lon="7.624277637385722"><ele>552.0</ele><time>2026-05-02T14:54:19Z</time></trkpt><trkpt lat="44.33769898472705" lon="7.624244077567495"><ele>552.0</ele><time>2026-05-02T14:54:20Z</time></trkpt><trkpt lat="44.33783723310605" lon="7.624181416408838"><ele>552.0</ele><time>2026-05-02T14:54:21Z</time></trkpt><trkpt lat="44.33802562082622" lon="7.624103294619256"><ele>552.0</ele><time>2026-05-02T14:54:22Z</time></trkpt><trkpt lat="44.33822099523404" lon="7.62402966607326"><ele>550.25</ele><time>2026-05-02T14:54:23Z</time></trkpt><trkpt lat="44.33838478592761" lon="7.623975322272601"><ele>548.5</ele><time>2026-05-02T14:54:24Z</time></trkpt><trkpt lat="44.33851215612531" lon="7.623940604355846"><ele>546.75</ele><time>2026-05-02T14:54:25Z</time></trkpt><trkpt lat="44.33863337861727" lon="7.623906827720148"><ele>545.0</ele><time>2026-05-02T14:54:26Z</time></trkpt><trkpt lat="44.33873693166854" lon="7.623868483944615"><ele>545.0</ele><time>2026-05-02T14:54:27Z</time></trkpt><trkpt lat="44.33884818982979" lon="7.623838393107206"><ele>545.0</ele><time>2026-05-02T14:54:28Z</time></trkpt><trkpt lat="44.33896708119368" lon="7.623800423861475"><ele>545.0</ele><time>2026-05-02T14:54:29Z</time></trkpt><trkpt lat="44.33909222440191" lon="7.623760208794788"><ele>545.0</ele><time>2026-05-02T14:54:30Z</time></trkpt><trkpt lat="44.339208076617375" lon="7.623715791535574"><ele>544.6</ele><time>2026-05-02T14:54:31Z</time></trkpt><trkpt lat="44.33931261013606" lon="7.6236865159401015"><ele>544.2</ele><time>2026-05-02T14:54:32Z</time></trkpt><trkpt lat="44.33938653114686" lon="7.62366263720821"><ele>543.8</ele><time>2026-05-02T14:54:33Z</time></trkpt><trkpt lat="44.33943069312981" lon="7.623596963392363"><ele>543.4</ele><time>2026-05-02T14:54:35Z</time></trkpt><trkpt lat="44.33930316346326" lon="7.623453547442178"><ele>543.0</ele><time>2026-05-02T14:54:38Z</time></trkpt><trkpt lat="44.339184208639765" lon="7.623393851448301"><ele>542.25</ele><time>2026-05-02T14:54:39Z</time></trkpt><trkpt lat="44.33909656033675" lon="7.623295378362679"><ele>541.5</ele><time>2026-05-02T14:54:40Z</time></trkpt><trkpt lat="44.33900910673998" lon="7.6231563188490306"><ele>540.75</ele><time>2026-05-02T14:54:41Z</time></trkpt><trkpt lat="44.33894826869967" lon="7.622985826922362"><ele>540.0</ele><time>2026-05-02T14:54:42Z</time></trkpt><trkpt lat="44.33892588052796" lon="7.622819923249075"><ele>539.6</ele><time>2026-05-02T14:54:43Z</time></trkpt><trkpt lat="44.3389233811539" lon="7.6226801304033645"><ele>539.2</ele><time>2026-05-02T14:54:44Z</time></trkpt><trkpt lat="44.338923898157475" lon="7.6225587458895925"><ele>538.8</ele><time>2026-05-02T14:54:45Z</time></trkpt><trkpt lat="44.33893585582187" lon="7.622450487580422"><ele>538.4</ele><time>2026-05-02T14:54:46Z</time></trkpt><trkpt lat="44.33897765451558" lon="7.622267048220287"><ele>538.0</ele><time>2026-05-02T14:54:47Z</time></trkpt><trkpt lat="44.33902637516946" lon="7.622012655833797"><ele>539.6666666666667</ele><time>2026-05-02T14:54:48Z</time></trkpt><trkpt lat="44.339083510091235" lon="7.621728081016456"><ele>541.3333333333334</ele><time>2026-05-02T14:54:49Z</time></trkpt><trkpt lat="44.33915885636937" lon="7.6214234886584205"><ele>543.0</ele><time>2026-05-02T14:54:50Z</time></trkpt><trkpt lat="44.339240903880665" lon="7.62113700354005"><ele>546.6666666666666</ele><time>2026-05-02T14:54:51Z</time></trkpt><trkpt lat="44.33929083097976" lon="7.6208826443934585"><ele>550.3333333333333</ele><time>2026-05-02T14:54:52Z</time></trkpt><trkpt lat="44.33934674991197" lon="7.620647541239588"><ele>554.0</ele><time>2026-05-02T14:54:53Z</time></trkpt><trkpt lat="44.339393847484125" lon="7.620413578827775"><ele>554.3333333333333</ele><time>2026-05-02T14:54:54Z</time></trkpt><trkpt lat="44.33942503706939" lon="7.620195011810199"><ele>554.6666666666666</ele><time>2026-05-02T14:54:55Z</time></trkpt><trkpt lat="44.339446822060346" lon="7.619967893259056"><ele>555.0</ele><time>2026-05-02T14:54:56Z</time></trkpt><trkpt lat="44.33945444893362" lon="7.619733548523012"><ele>555.0</ele><time>2026-05-02T14:54:57Z</time></trkpt><trkpt lat="44.33945889315266" lon="7.619503599532743"><ele>555.0</ele><time>2026-05-02T14:54:58Z</time></trkpt><trkpt lat="44.339439797204186" lon="7.619266498414774"><ele>555.0</ele><time>2026-05-02T14:54:59Z</time></trkpt><trkpt lat="44.33941898406297" lon="7.619048059832844"><ele>554.3333333333334</ele><time>2026-05-02T14:55:00Z</time></trkpt><trkpt lat="44.33939281556585" lon="7.618823795160296"><ele>553.6666666666667</ele><time>2026-05-02T14:55:01Z</time></trkpt><trkpt lat="44.33935684364884" lon="7.6186033605630366"><ele>553.0</ele><time>2026-05-02T14:55:02Z</time></trkpt><trkpt lat="44.339313236160045" lon="7.618396176182617"><ele>550.3333333333334</ele><time>2026-05-02T14:55:03Z</time></trkpt><trkpt lat="44.33926591730831" lon="7.618178783901451"><ele>547.6666666666666</ele><time>2026-05-02T14:55:04Z</time></trkpt><trkpt lat="44.33920827712781" lon="7.617993532828549"><ele>545.0</ele><time>2026-05-02T14:55:05Z</time></trkpt><trkpt lat="44.33912671663593" lon="7.617807225248395"><ele>543.6666666666666</ele><time>2026-05-02T14:55:06Z</time></trkpt><trkpt lat="44.339051335842186" lon="7.617617897178337"><ele>542.3333333333334</ele><time>2026-05-02T14:55:07Z</time></trkpt><trkpt lat="44.33896994515155" lon="7.617433823231119"><ele>541.0</ele><time>2026-05-02T14:55:08Z</time></trkpt><trkpt lat="44.33888068633944" lon="7.617263426437032"><ele>541.0</ele><time>2026-05-02T14:55:09Z</time></trkpt><trkpt lat="44.33878465409352" lon="7.617094308414182"><ele>541.0</ele><time>2026-05-02T14:55:10Z</time></trkpt><trkpt lat="44.33867242246604" lon="7.6169213603859545"><ele>541.0</ele><time>2026-05-02T14:55:11Z</time></trkpt><trkpt lat="44.33855140450067" lon="7.616742088279632"><ele>539.3333333333334</ele><time>2026-05-02T14:55:12Z</time></trkpt><trkpt lat="44.33841510021571" lon="7.616528656799306"><ele>537.6666666666666</ele><time>2026-05-02T14:55:13Z</time></trkpt><trkpt lat="44.338276019101386" lon="7.616296753509171"><ele>536.0</ele><time>2026-05-02T14:55:14Z</time></trkpt><trkpt lat="44.33812322763542" lon="7.616099815300742"><ele>538.6666666666666</ele><time>2026-05-02T14:55:15Z</time></trkpt><trkpt lat="44.33798019957154" lon="7.615875507219678"><ele>541.3333333333334</ele><time>2026-05-02T14:55:16Z</time></trkpt><trkpt lat="44.33783706790354" lon="7.615651976780476"><ele>544.0</ele><time>2026-05-02T14:55:17Z</time></trkpt><trkpt lat="44.33769258973685" lon="7.615433193858494"><ele>540.6666666666667</ele><time>2026-05-02T14:55:18Z</time></trkpt><trkpt lat="44.33755259744761" lon="7.615220395096072"><ele>537.3333333333334</ele><time>2026-05-02T14:55:19Z</time></trkpt><trkpt lat="44.33741052382331" lon="7.615016917070213"><ele>534.0</ele><time>2026-05-02T14:55:20Z</time></trkpt><trkpt lat="44.33726330835896" lon="7.614799235501115"><ele>538.0</ele><time>2026-05-02T14:55:21Z</time></trkpt><trkpt lat="44.33711086872184" lon="7.614567825385212"><ele>542.0</ele><time>2026-05-02T14:55:22Z</time></trkpt><trkpt lat="44.33695870642757" lon="7.614335173053967"><ele>542.0</ele><time>2026-05-02T14:55:23Z</time></trkpt><trkpt lat="44.33682250952558" lon="7.614120571985695"><ele>542.0</ele><time>2026-05-02T14:55:24Z</time></trkpt><trkpt lat="44.33670509018309" lon="7.613931373340494"><ele>542.0</ele><time>2026-05-02T14:55:25Z</time></trkpt><trkpt lat="44.3365994266637" lon="7.613746206339017"><ele>543.3333333333333</ele><time>2026-05-02T14:55:26Z</time></trkpt><trkpt lat="44.33649748659637" lon="7.61354596589815"><ele>544.6666666666666</ele><time>2026-05-02T14:55:27Z</time></trkpt><trkpt lat="44.33639886648811" lon="7.613329786873995"><ele>546.0</ele><time>2026-05-02T14:55:28Z</time></trkpt><trkpt lat="44.336306212463825" lon="7.613100255187058"><ele>546.0</ele><time>2026-05-02T14:55:29Z</time></trkpt><trkpt lat="44.33622486296187" lon="7.6128723722430305"><ele>546.0</ele><time>2026-05-02T14:55:30Z</time></trkpt><trkpt lat="44.33615177681177" lon="7.612646070388235"><ele>546.0</ele><time>2026-05-02T14:55:31Z</time></trkpt><trkpt lat="44.33609164994793" lon="7.612425879422978"><ele>543.3333333333334</ele><time>2026-05-02T14:55:32Z</time></trkpt><trkpt lat="44.33604086285335" lon="7.612205235230284"><ele>540.6666666666667</ele><time>2026-05-02T14:55:33Z</time></trkpt><trkpt lat="44.335998230000556" lon="7.6119878601923325"><ele>538.0</ele><time>2026-05-02T14:55:34Z</time></trkpt><trkpt lat="44.335969929032146" lon="7.611760419483875"><ele>537.3333333333334</ele><time>2026-05-02T14:55:35Z</time></trkpt><trkpt lat="44.33593311674776" lon="7.611495854478678"><ele>536.6666666666666</ele><time>2026-05-02T14:55:36Z</time></trkpt><trkpt lat="44.33589779271002" lon="7.611155781755172"><ele>536.0</ele><time>2026-05-02T14:55:37Z</time></trkpt><trkpt lat="44.33587208555635" lon="7.610803944798704"><ele>536.0</ele><time>2026-05-02T14:55:38Z</time></trkpt><trkpt lat="44.335842081333944" lon="7.610443264491985"><ele>536.0</ele><time>2026-05-02T14:55:39Z</time></trkpt><trkpt lat="44.33579966075411" lon="7.610070733834469"><ele>536.5</ele><time>2026-05-02T14:55:40Z</time></trkpt><trkpt lat="44.3357529250477" lon="7.609711686477934"><ele>537.0</ele><time>2026-05-02T14:55:41Z</time></trkpt><trkpt lat="44.33571861615404" lon="7.609323938392067"><ele>537.0</ele><time>2026-05-02T14:55:42Z</time></trkpt><trkpt lat="44.3356766330411" lon="7.609018218095475"><ele>537.0</ele><time>2026-05-02T14:55:43Z</time></trkpt><trkpt lat="44.335644257207626" lon="7.608674962127025"><ele>538.0</ele><time>2026-05-02T14:55:44Z</time></trkpt><trkpt lat="44.33561022897599" lon="7.60834457297786"><ele>539.0</ele><time>2026-05-02T14:55:45Z</time></trkpt><trkpt lat="44.335571868385564" lon="7.6080279121747445"><ele>540.6666666666666</ele><time>2026-05-02T14:55:46Z</time></trkpt><trkpt lat="44.33553750416264" lon="7.607742248301745"><ele>542.3333333333334</ele><time>2026-05-02T14:55:47Z</time></trkpt><trkpt lat="44.335511265184245" lon="7.607455426467081"><ele>544.0</ele><time>2026-05-02T14:55:48Z</time></trkpt><trkpt lat="44.335481699767705" lon="7.607171109741175"><ele>544.6666666666667</ele><time>2026-05-02T14:55:49Z</time></trkpt><trkpt lat="44.33545062772145" lon="7.606911150666105"><ele>545.3333333333334</ele><time>2026-05-02T14:55:50Z</time></trkpt><trkpt lat="44.335423143135166" lon="7.606676460993577"><ele>546.0</ele><time>2026-05-02T14:55:51Z</time></trkpt><trkpt lat="44.33539712298333" lon="7.606485581143901"><ele>546.0</ele><time>2026-05-02T14:55:52Z</time></trkpt><trkpt lat="44.335379401036526" lon="7.606340349200608"><ele>546.0</ele><time>2026-05-02T14:55:53Z</time></trkpt><trkpt lat="44.33536084518829" lon="7.606213238405059"><ele>546.0</ele><time>2026-05-02T14:55:54Z</time></trkpt><trkpt lat="44.33535016119821" lon="7.606097355978117"><ele>546.0</ele><time>2026-05-02T14:55:55Z</time></trkpt><trkpt lat="44.335348077400425" lon="7.6059980526262985"><ele>546.0</ele><time>2026-05-02T14:55:56Z</time></trkpt><trkpt lat="44.33537676460511" lon="7.605912365650949"><ele>546.0</ele><time>2026-05-02T14:56:01Z</time></trkpt><trkpt lat="44.335407240569424" lon="7.605809087380241"><ele>546.2</ele><time>2026-05-02T14:56:02Z</time></trkpt><trkpt lat="44.335412489622215" lon="7.605695465467541"><ele>546.4000000000001</ele><time>2026-05-02T14:56:03Z</time></trkpt><trkpt lat="44.33537715551576" lon="7.605602407587832"><ele>546.6</ele><time>2026-05-02T14:56:04Z</time></trkpt><trkpt lat="44.33531383064219" lon="7.605486369201873"><ele>546.8000000000001</ele><time>2026-05-02T14:56:05Z</time></trkpt><trkpt lat="44.335209242766716" lon="7.605349227354317"><ele>547.0</ele><time>2026-05-02T14:56:06Z</time></trkpt><trkpt lat="44.33514653024047" lon="7.605206823572957"><ele>547.0</ele><time>2026-05-02T14:56:07Z</time></trkpt><trkpt lat="44.33509677089172" lon="7.605038882306336"><ele>547.0</ele><time>2026-05-02T14:56:08Z</time></trkpt><trkpt lat="44.335050266134566" lon="7.604839646606522"><ele>547.0</ele><time>2026-05-02T14:56:09Z</time></trkpt><trkpt lat="44.33499929614511" lon="7.604599886639799"><ele>547.5</ele><time>2026-05-02T14:56:10Z</time></trkpt><trkpt lat="44.33493006053631" lon="7.604325224718964"><ele>548.0</ele><time>2026-05-02T14:56:11Z</time></trkpt><trkpt lat="44.33485221448158" lon="7.603996691344465"><ele>549.0</ele><time>2026-05-02T14:56:12Z</time></trkpt><trkpt lat="44.334775236703976" lon="7.603631931924482"><ele>550.0</ele><time>2026-05-02T14:56:13Z</time></trkpt><trkpt lat="44.33469465223042" lon="7.603275040613542"><ele>552.5</ele><time>2026-05-02T14:56:14Z</time></trkpt><trkpt lat="44.33461514588575" lon="7.602934523528869"><ele>555.0</ele><time>2026-05-02T14:56:15Z</time></trkpt><trkpt lat="44.33454265183813" lon="7.602623844075089"><ele>555.0</ele><time>2026-05-02T14:56:16Z</time></trkpt><trkpt lat="44.33448076185793" lon="7.602334272145363"><ele>555.0</ele><time>2026-05-02T14:56:17Z</time></trkpt><trkpt lat="44.33442131965768" lon="7.602019635868395"><ele>555.0</ele><time>2026-05-02T14:56:18Z</time></trkpt><trkpt lat="44.33436951762411" lon="7.601673446272686"><ele>557.5</ele><time>2026-05-02T14:56:19Z</time></trkpt><trkpt lat="44.33433091920046" lon="7.601310699425144"><ele>560.0</ele><time>2026-05-02T14:56:20Z</time></trkpt><trkpt lat="44.334301522564296" lon="7.60094520319962"><ele>561.0</ele><time>2026-05-02T14:56:21Z</time></trkpt><trkpt lat="44.334280061746824" lon="7.600559794132153"><ele>562.0</ele><time>2026-05-02T14:56:21.999Z</time></trkpt><trkpt lat="44.334268145474155" lon="7.6001603202572765"><ele>562.0</ele><time>2026-05-02T14:56:22.999Z</time></trkpt><trkpt lat="44.33426114588528" lon="7.599771143150644"><ele>562.0</ele><time>2026-05-02T14:56:23.999Z</time></trkpt><trkpt lat="44.33425222971076" lon="7.599429726516834"><ele>561.6666666666667</ele><time>2026-05-02T14:56:24.999Z</time></trkpt><trkpt lat="44.33424595881565" lon="7.599126213031857"><ele>561.3333333333334</ele><time>2026-05-02T14:56:25.999Z</time></trkpt><trkpt lat="44.334241782511775" lon="7.598827505259332"><ele>561.0</ele><time>2026-05-02T14:56:26.999Z</time></trkpt><trkpt lat="44.33422167976874" lon="7.598512261667481"><ele>560.5</ele><time>2026-05-02T14:56:27.999Z</time></trkpt><trkpt lat="44.334186097005016" lon="7.598169791964516"><ele>560.0</ele><time>2026-05-02T14:56:28.999Z</time></trkpt><trkpt lat="44.33413886232614" lon="7.597809652607567"><ele>560.0</ele><time>2026-05-02T14:56:30Z</time></trkpt><trkpt lat="44.33407477598709" lon="7.597448825402517"><ele>560.0</ele><time>2026-05-02T14:56:31Z</time></trkpt><trkpt lat="44.334001160560504" lon="7.597091637711951"><ele>560.3333333333333</ele><time>2026-05-02T14:56:32Z</time></trkpt><trkpt lat="44.333937898396556" lon="7.596780976576257"><ele>560.6666666666666</ele><time>2026-05-02T14:56:33Z</time></trkpt><trkpt lat="44.333890686113115" lon="7.59649894511475"><ele>561.0</ele><time>2026-05-02T14:56:34Z</time></trkpt><trkpt lat="44.33385265054705" lon="7.59623538325978"><ele>563.3333333333334</ele><time>2026-05-02T14:56:35Z</time></trkpt><trkpt lat="44.333815673197385" lon="7.595954733534539"><ele>565.6666666666667</ele><time>2026-05-02T14:56:36Z</time></trkpt><trkpt lat="44.33378971303004" lon="7.595655677506976"><ele>568.0</ele><time>2026-05-02T14:56:37Z</time></trkpt><trkpt lat="44.33378010262039" lon="7.595358266960156"><ele>567.0</ele><time>2026-05-02T14:56:38Z</time></trkpt><trkpt lat="44.33377430543498" lon="7.595054688561466"><ele>566.0</ele><time>2026-05-02T14:56:39Z</time></trkpt><trkpt lat="44.33378135465624" lon="7.594729354264876"><ele>567.5</ele><time>2026-05-02T14:56:40Z</time></trkpt><trkpt lat="44.33379888484455" lon="7.594386165093081"><ele>569.0</ele><time>2026-05-02T14:56:41Z</time></trkpt><trkpt lat="44.3338290129811" lon="7.594020722625038"><ele>568.5</ele><time>2026-05-02T14:56:42Z</time></trkpt><trkpt lat="44.333870958273884" lon="7.5936310058031955"><ele>568.0</ele><time>2026-05-02T14:56:43Z</time></trkpt><trkpt lat="44.333912390759124" lon="7.593232064142644"><ele>567.0</ele><time>2026-05-02T14:56:44Z</time></trkpt><trkpt lat="44.33395678846005" lon="7.5928274458735165"><ele>566.0</ele><time>2026-05-02T14:56:45Z</time></trkpt><trkpt lat="44.333998634578165" lon="7.5924370253140365"><ele>566.0</ele><time>2026-05-02T14:56:46Z</time></trkpt><trkpt lat="44.334032765330356" lon="7.5920546513119715"><ele>566.0</ele><time>2026-05-02T14:56:47Z</time></trkpt><trkpt lat="44.334068185755214" lon="7.591670547062743"><ele>566.0</ele><time>2026-05-02T14:56:48Z</time></trkpt><trkpt lat="44.33410580102081" lon="7.591291594362532"><ele>566.0</ele><time>2026-05-02T14:56:49Z</time></trkpt><trkpt lat="44.33414479220321" lon="7.590917626484985"><ele>566.5</ele><time>2026-05-02T14:56:50Z</time></trkpt><trkpt lat="44.334179897197636" lon="7.590559219412432"><ele>567.0</ele><time>2026-05-02T14:56:51Z</time></trkpt><trkpt lat="44.33421331337256" lon="7.590188618784652"><ele>568.0</ele><time>2026-05-02T14:56:52Z</time></trkpt><trkpt lat="44.3342438485485" lon="7.589802235299272"><ele>569.0</ele><time>2026-05-02T14:56:53Z</time></trkpt><trkpt lat="44.33427857495484" lon="7.58942126455758"><ele>569.5</ele><time>2026-05-02T14:56:54Z</time></trkpt><trkpt lat="44.33431404062822" lon="7.589040958566984"><ele>570.0</ele><time>2026-05-02T14:56:55Z</time></trkpt><trkpt lat="44.33435311956044" lon="7.588658261561512"><ele>570.5</ele><time>2026-05-02T14:56:56Z</time></trkpt><trkpt lat="44.334391827362445" lon="7.588249298728907"><ele>571.0</ele><time>2026-05-02T14:56:57Z</time></trkpt><trkpt lat="44.33443251534171" lon="7.587827452794981"><ele>571.5</ele><time>2026-05-02T14:56:58Z</time></trkpt><trkpt lat="44.33448152302814" lon="7.587400255203625"><ele>572.0</ele><time>2026-05-02T14:56:59Z</time></trkpt><trkpt lat="44.33453021658162" lon="7.5869831101472665"><ele>572.0</ele><time>2026-05-02T14:57:00Z</time></trkpt><trkpt lat="44.33457440367315" lon="7.5865753654660795"><ele>572.0</ele><time>2026-05-02T14:57:01Z</time></trkpt><trkpt lat="44.33461443214069" lon="7.586173110032501"><ele>573.0</ele><time>2026-05-02T14:57:02Z</time></trkpt><trkpt lat="44.33465492003199" lon="7.585769597340419"><ele>574.0</ele><time>2026-05-02T14:57:03Z</time></trkpt><trkpt lat="44.33469386257944" lon="7.5853781526808755"><ele>573.0</ele><time>2026-05-02T14:57:04Z</time></trkpt><trkpt lat="44.33473043071778" lon="7.5850109675429085"><ele>572.0</ele><time>2026-05-02T14:57:05Z</time></trkpt><trkpt lat="44.33476657648551" lon="7.584641892035773"><ele>573.0</ele><time>2026-05-02T14:57:06Z</time></trkpt><trkpt lat="44.334801124333694" lon="7.584273913088987"><ele>574.0</ele><time>2026-05-02T14:57:07Z</time></trkpt><trkpt lat="44.33483609533703" lon="7.583913970006366"><ele>574.5</ele><time>2026-05-02T14:57:08Z</time></trkpt><trkpt lat="44.33486933762989" lon="7.58358006056582"><ele>575.0</ele><time>2026-05-02T14:57:09Z</time></trkpt><trkpt lat="44.33490209067101" lon="7.583258350146661"><ele>575.0</ele><time>2026-05-02T14:57:10Z</time></trkpt><trkpt lat="44.334933441792856" lon="7.582940713868148"><ele>575.0</ele><time>2026-05-02T14:57:11Z</time></trkpt><trkpt lat="44.33495874218709" lon="7.582624226884042"><ele>575.0</ele><time>2026-05-02T14:57:12Z</time></trkpt><trkpt lat="44.3349712895666" lon="7.582312828504223"><ele>575.0</ele><time>2026-05-02T14:57:13Z</time></trkpt><trkpt lat="44.33497726401021" lon="7.582000373623358"><ele>575.0</ele><time>2026-05-02T14:57:14Z</time></trkpt><trkpt lat="44.33497632099722" lon="7.581706510862491"><ele>575.6666666666666</ele><time>2026-05-02T14:57:15Z</time></trkpt><trkpt lat="44.334971779695664" lon="7.581420555291079"><ele>576.3333333333334</ele><time>2026-05-02T14:57:16Z</time></trkpt><trkpt lat="44.33495685067727" lon="7.58113075949269"><ele>577.0</ele><time>2026-05-02T14:57:17Z</time></trkpt><trkpt lat="44.334929435195725" lon="7.580807885695751"><ele>577.0</ele><time>2026-05-02T14:57:18Z</time></trkpt><trkpt lat="44.33488995652742" lon="7.580447227427019"><ele>577.0</ele><time>2026-05-02T14:57:19Z</time></trkpt><trkpt lat="44.334842597401895" lon="7.580095423329493"><ele>577.0</ele><time>2026-05-02T14:57:20Z</time></trkpt><trkpt lat="44.334791647153715" lon="7.5797488913221285"><ele>577.0</ele><time>2026-05-02T14:57:21Z</time></trkpt><trkpt lat="44.334740686531134" lon="7.579416447091535"><ele>577.5</ele><time>2026-05-02T14:57:22Z</time></trkpt><trkpt lat="44.334692696914054" lon="7.579075128002517"><ele>578.0</ele><time>2026-05-02T14:57:23Z</time></trkpt><trkpt lat="44.33464647234039" lon="7.578728097319646"><ele>578.0</ele><time>2026-05-02T14:57:24Z</time></trkpt><trkpt lat="44.33460606204831" lon="7.578350294131202"><ele>578.0</ele><time>2026-05-02T14:57:25Z</time></trkpt><trkpt lat="44.334571189875135" lon="7.577971340488847"><ele>578.5</ele><time>2026-05-02T14:57:26Z</time></trkpt><trkpt lat="44.33454342329646" lon="7.577600341381332"><ele>579.0</ele><time>2026-05-02T14:57:27Z</time></trkpt><trkpt lat="44.33452307026635" lon="7.57723229865963"><ele>579.0</ele><time>2026-05-02T14:57:28Z</time></trkpt><trkpt lat="44.334500543372265" lon="7.576863208322165"><ele>579.0</ele><time>2026-05-02T14:57:29Z</time></trkpt><trkpt lat="44.334479078602754" lon="7.576514599114964"><ele>579.0</ele><time>2026-05-02T14:57:30Z</time></trkpt><trkpt lat="44.33445724352395" lon="7.5761930552862635"><ele>579.0</ele><time>2026-05-02T14:57:31Z</time></trkpt><trkpt lat="44.33443861148774" lon="7.5758986901054435"><ele>579.0</ele><time>2026-05-02T14:57:32Z</time></trkpt><trkpt lat="44.33441931885023" lon="7.57561624907655"><ele>579.3333333333334</ele><time>2026-05-02T14:57:33Z</time></trkpt><trkpt lat="44.33439988371008" lon="7.575329232607048"><ele>579.6666666666667</ele><time>2026-05-02T14:57:34Z</time></trkpt><trkpt lat="44.33438018647593" lon="7.57503803763236"><ele>580.0</ele><time>2026-05-02T14:57:35Z</time></trkpt><trkpt lat="44.33435105783196" lon="7.574748806299357"><ele>580.3333333333334</ele><time>2026-05-02T14:57:36Z</time></trkpt><trkpt lat="44.334310873158685" lon="7.574472312174037"><ele>580.6666666666666</ele><time>2026-05-02T14:57:37Z</time></trkpt><trkpt lat="44.334262876396856" lon="7.574201092304536"><ele>581.0</ele><time>2026-05-02T14:57:38Z</time></trkpt><trkpt lat="44.334208275795646" lon="7.573932574561468"><ele>581.0</ele><time>2026-05-02T14:57:39Z</time></trkpt><trkpt lat="44.3341446693952" lon="7.573667819712373"><ele>581.0</ele><time>2026-05-02T14:57:40Z</time></trkpt><trkpt lat="44.3340774391629" lon="7.573406873010963"><ele>581.0</ele><time>2026-05-02T14:57:41Z</time></trkpt><trkpt lat="44.33400724189499" lon="7.573156591527926"><ele>581.0</ele><time>2026-05-02T14:57:42Z</time></trkpt><trkpt lat="44.33392960851789" lon="7.572891325529532"><ele>581.0</ele><time>2026-05-02T14:57:43Z</time></trkpt><trkpt lat="44.333829960861415" lon="7.572583365618167"><ele>581.0</ele><time>2026-05-02T14:57:44Z</time></trkpt><trkpt lat="44.33372596362569" lon="7.572237113271557"><ele>582.0</ele><time>2026-05-02T14:57:45Z</time></trkpt><trkpt lat="44.3336355035669" lon="7.571887743644302"><ele>583.0</ele><time>2026-05-02T14:57:46Z</time></trkpt><trkpt lat="44.33355123984882" lon="7.571551268720121"><ele>583.0</ele><time>2026-05-02T14:57:47Z</time></trkpt><trkpt lat="44.33346204842594" lon="7.571218296537878"><ele>583.0</ele><time>2026-05-02T14:57:48Z</time></trkpt><trkpt lat="44.33336535622934" lon="7.570888692729082"><ele>583.0</ele><time>2026-05-02T14:57:49Z</time></trkpt><trkpt lat="44.333282489061226" lon="7.5705876818770355"><ele>583.0</ele><time>2026-05-02T14:57:50Z</time></trkpt><trkpt lat="44.33320599125403" lon="7.570300462821382"><ele>583.0</ele><time>2026-05-02T14:57:51Z</time></trkpt><trkpt lat="44.333131596649636" lon="7.570007678423155"><ele>583.0</ele><time>2026-05-02T14:57:52Z</time></trkpt><trkpt lat="44.333062609285975" lon="7.56969576816845"><ele>584.5</ele><time>2026-05-02T14:57:53Z</time></trkpt><trkpt lat="44.333001382282326" lon="7.569375183520864"><ele>586.0</ele><time>2026-05-02T14:57:54Z</time></trkpt><trkpt lat="44.33294537907844" lon="7.5690505862888315"><ele>586.0</ele><time>2026-05-02T14:57:55Z</time></trkpt><trkpt lat="44.33289551710038" lon="7.56872832784557"><ele>586.0</ele><time>2026-05-02T14:57:56Z</time></trkpt><trkpt lat="44.3328435967472" lon="7.5684063846946215"><ele>586.0</ele><time>2026-05-02T14:57:57Z</time></trkpt><trkpt lat="44.33279048882426" lon="7.568080509901815"><ele>586.0</ele><time>2026-05-02T14:57:58Z</time></trkpt><trkpt lat="44.33273377860924" lon="7.56775294242829"><ele>585.5</ele><time>2026-05-02T14:57:59Z</time></trkpt><trkpt lat="44.332677414446024" lon="7.567416867627438"><ele>585.0</ele><time>2026-05-02T14:58:00Z</time></trkpt><trkpt lat="44.33262290606911" lon="7.5670763997184896"><ele>585.5</ele><time>2026-05-02T14:58:01Z</time></trkpt><trkpt lat="44.33257222460749" lon="7.566720963887897"><ele>586.0</ele><time>2026-05-02T14:58:02Z</time></trkpt><trkpt lat="44.332519624191534" lon="7.566376024405284"><ele>586.0</ele><time>2026-05-02T14:58:03Z</time></trkpt><trkpt lat="44.33247210325218" lon="7.566069522126203"><ele>586.0</ele><time>2026-05-02T14:58:04Z</time></trkpt><trkpt lat="44.33242643565394" lon="7.565789350774121"><ele>586.0</ele><time>2026-05-02T14:58:05Z</time></trkpt><trkpt lat="44.33238732735549" lon="7.565532470360473"><ele>585.3333333333334</ele><time>2026-05-02T14:58:06Z</time></trkpt><trkpt lat="44.33234803405855" lon="7.565293034229112"><ele>584.6666666666666</ele><time>2026-05-02T14:58:07Z</time></trkpt><trkpt lat="44.33230466803221" lon="7.565044846426747"><ele>584.0</ele><time>2026-05-02T14:58:08Z</time></trkpt><trkpt lat="44.33224909897155" lon="7.564798292563679"><ele>584.6666666666666</ele><time>2026-05-02T14:58:09Z</time></trkpt><trkpt lat="44.33219450731601" lon="7.564570218166728"><ele>585.3333333333334</ele><time>2026-05-02T14:58:10Z</time></trkpt><trkpt lat="44.33213990466712" lon="7.564351991940134"><ele>586.0</ele><time>2026-05-02T14:58:11Z</time></trkpt><trkpt lat="44.33207344884214" lon="7.564147557789064"><ele>586.0</ele><time>2026-05-02T14:58:12Z</time></trkpt><trkpt lat="44.33198237134629" lon="7.563918911846529"><ele>586.0</ele><time>2026-05-02T14:58:13Z</time></trkpt><trkpt lat="44.33187632210042" lon="7.563686539591568"><ele>586.0</ele><time>2026-05-02T14:58:14Z</time></trkpt><trkpt lat="44.33178413806016" lon="7.563467872078598"><ele>586.0</ele><time>2026-05-02T14:58:15Z</time></trkpt><trkpt lat="44.33171195711113" lon="7.563270230662271"><ele>586.0</ele><time>2026-05-02T14:58:16Z</time></trkpt><trkpt lat="44.331652062874184" lon="7.563070199768829"><ele>586.0</ele><time>2026-05-02T14:58:17Z</time></trkpt><trkpt lat="44.33160348399063" lon="7.562877245226025"><ele>585.5</ele><time>2026-05-02T14:58:18Z</time></trkpt><trkpt lat="44.331563116593095" lon="7.562678564508298"><ele>585.0</ele><time>2026-05-02T14:58:19Z</time></trkpt><trkpt lat="44.33152543537729" lon="7.562470223535577"><ele>584.5</ele><time>2026-05-02T14:58:20Z</time></trkpt><trkpt lat="44.33148093530685" lon="7.562275033684357"><ele>584.0</ele><time>2026-05-02T14:58:21Z</time></trkpt><trkpt lat="44.331434271342424" lon="7.562084574845363"><ele>585.0</ele><time>2026-05-02T14:58:22Z</time></trkpt><trkpt lat="44.33137577123604" lon="7.561903618732416"><ele>586.0</ele><time>2026-05-02T14:58:23Z</time></trkpt><trkpt lat="44.33129756351209" lon="7.561725090367952"><ele>587.0</ele><time>2026-05-02T14:58:24Z</time></trkpt><trkpt lat="44.33120187401169" lon="7.561538527248204"><ele>587.0</ele><time>2026-05-02T14:58:25Z</time></trkpt><trkpt lat="44.331112719906834" lon="7.561372065466606"><ele>587.0</ele><time>2026-05-02T14:58:26Z</time></trkpt><trkpt lat="44.33103850249931" lon="7.561220462402081"><ele>587.0</ele><time>2026-05-02T14:58:27Z</time></trkpt><trkpt lat="44.33096447074693" lon="7.561054342620366"><ele>587.0</ele><time>2026-05-02T14:58:28Z</time></trkpt><trkpt lat="44.330898272591156" lon="7.560887731995865"><ele>587.3333333333333</ele><time>2026-05-02T14:58:29Z</time></trkpt><trkpt lat="44.33083376564525" lon="7.56070539671174"><ele>587.6666666666666</ele><time>2026-05-02T14:58:30Z</time></trkpt><trkpt lat="44.330791467455384" lon="7.560496948931816"><ele>588.0</ele><time>2026-05-02T14:58:31Z</time></trkpt><trkpt lat="44.33074171268537" lon="7.560286920992296"><ele>588.0</ele><time>2026-05-02T14:58:32Z</time></trkpt><trkpt lat="44.330706687441534" lon="7.560081765578471"><ele>588.0</ele><time>2026-05-02T14:58:33Z</time></trkpt><trkpt lat="44.33067026850489" lon="7.559867375469855"><ele>588.0</ele><time>2026-05-02T14:58:34Z</time></trkpt><trkpt lat="44.3306461080453" lon="7.559590632837501"><ele>587.6666666666666</ele><time>2026-05-02T14:58:35Z</time></trkpt><trkpt lat="44.33061978257954" lon="7.559301097263449"><ele>587.3333333333333</ele><time>2026-05-02T14:58:36Z</time></trkpt><trkpt lat="44.33058298108713" lon="7.559042887009467"><ele>587.0</ele><time>2026-05-02T14:58:37Z</time></trkpt><trkpt lat="44.330563400338285" lon="7.558810713378176"><ele>586.8000000000001</ele><time>2026-05-02T14:58:38Z</time></trkpt><trkpt lat="44.33055558505431" lon="7.558624282781262"><ele>586.6</ele><time>2026-05-02T14:58:39Z</time></trkpt><trkpt lat="44.33055497024266" lon="7.558482655147878"><ele>586.4000000000001</ele><time>2026-05-02T14:58:40Z</time></trkpt><trkpt lat="44.330557767278854" lon="7.5583557864192565"><ele>586.2</ele><time>2026-05-02T14:58:41Z</time></trkpt><trkpt lat="44.3305730730299" lon="7.5582393410496795"><ele>586.0</ele><time>2026-05-02T14:58:42Z</time></trkpt><trkpt lat="44.3306158665908" lon="7.55814090187735"><ele>586.0</ele><time>2026-05-02T14:58:43Z</time></trkpt><trkpt lat="44.330686104389876" lon="7.558071203531505"><ele>586.0</ele><time>2026-05-02T14:58:44Z</time></trkpt><trkpt lat="44.33081303936055" lon="7.558024915092844"><ele>586.0</ele><time>2026-05-02T14:58:45Z</time></trkpt><trkpt lat="44.33094419871066" lon="7.557997389703132"><ele>586.0</ele><time>2026-05-02T14:58:46Z</time></trkpt><trkpt lat="44.33109615672032" lon="7.558013762859358"><ele>586.0</ele><time>2026-05-02T14:58:47Z</time></trkpt><trkpt lat="44.331246462608405" lon="7.558048952249239"><ele>586.0</ele><time>2026-05-02T14:58:48Z</time></trkpt><trkpt lat="44.331360193760794" lon="7.558079923297105"><ele>586.0</ele><time>2026-05-02T14:58:49Z</time></trkpt><trkpt lat="44.331426580831405" lon="7.558080127009286"><ele>586.0</ele><time>2026-05-02T14:58:50Z</time></trkpt><trkpt lat="44.331532690139994" lon="7.558054218253428"><ele>586.0</ele><time>2026-05-02T14:58:53Z</time></trkpt><trkpt lat="44.33163793748275" lon="7.55803829681609"><ele>586.3333333333334</ele><time>2026-05-02T14:58:54Z</time></trkpt><trkpt lat="44.33180657825639" lon="7.558003679910767"><ele>586.6666666666666</ele><time>2026-05-02T14:58:55Z</time></trkpt><trkpt lat="44.331972099726876" lon="7.557964270381067"><ele>587.0</ele><time>2026-05-02T14:58:56Z</time></trkpt><trkpt lat="44.3321054668557" lon="7.557928376700282"><ele>587.0</ele><time>2026-05-02T14:58:57Z</time></trkpt><trkpt lat="44.332222424065925" lon="7.557899992328013"><ele>587.0</ele><time>2026-05-02T14:58:58Z</time></trkpt><trkpt lat="44.33233667128577" lon="7.557861925938169"><ele>587.0</ele><time>2026-05-02T14:58:59Z</time></trkpt><trkpt lat="44.33244734792429" lon="7.557791895745534"><ele>587.0</ele><time>2026-05-02T14:59:00Z</time></trkpt><trkpt lat="44.332541746111744" lon="7.557699830625451"><ele>585.75</ele><time>2026-05-02T14:59:01Z</time></trkpt><trkpt lat="44.33262783617255" lon="7.557576876932726"><ele>584.5</ele><time>2026-05-02T14:59:02Z</time></trkpt><trkpt lat="44.332697927726166" lon="7.557415418929902"><ele>583.25</ele><time>2026-05-02T14:59:03Z</time></trkpt><trkpt lat="44.332751596670725" lon="7.55722248703581"><ele>582.0</ele><time>2026-05-02T14:59:04Z</time></trkpt><trkpt lat="44.332790800212734" lon="7.557002802667951"><ele>582.0</ele><time>2026-05-02T14:59:05Z</time></trkpt><trkpt lat="44.33282312999513" lon="7.556745049592478"><ele>582.0</ele><time>2026-05-02T14:59:06Z</time></trkpt><trkpt lat="44.33285775667728" lon="7.556475616670448"><ele>582.0</ele><time>2026-05-02T14:59:07Z</time></trkpt><trkpt lat="44.33289835358954" lon="7.556193418172001"><ele>582.0</ele><time>2026-05-02T14:59:08Z</time></trkpt><trkpt lat="44.33293829239928" lon="7.55590213764366"><ele>582.0</ele><time>2026-05-02T14:59:09Z</time></trkpt><trkpt lat="44.33297282559242" lon="7.555625929988498"><ele>582.0</ele><time>2026-05-02T14:59:10Z</time></trkpt><trkpt lat="44.33300253346628" lon="7.555403227022846"><ele>582.2</ele><time>2026-05-02T14:59:11Z</time></trkpt><trkpt lat="44.33302743524044" lon="7.555223289421596"><ele>582.4000000000001</ele><time>2026-05-02T14:59:12Z</time></trkpt><trkpt lat="44.33305263137396" lon="7.555065763941893"><ele>582.5999999999999</ele><time>2026-05-02T14:59:13Z</time></trkpt><trkpt lat="44.33308393300302" lon="7.554939623297973"><ele>582.8</ele><time>2026-05-02T14:59:14Z</time></trkpt><trkpt lat="44.33313173147628" lon="7.554856610912877"><ele>583.0</ele><time>2026-05-02T14:59:15Z</time></trkpt><trkpt lat="44.33318875450019" lon="7.55479471297786"><ele>582.5</ele><time>2026-05-02T14:59:16Z</time></trkpt><trkpt lat="44.333256170650564" lon="7.554760896251156"><ele>582.0</ele><time>2026-05-02T14:59:17Z</time></trkpt><trkpt lat="44.33332713169354" lon="7.554712965468571"><ele>581.5</ele><time>2026-05-02T14:59:18Z</time></trkpt><trkpt lat="44.33335931499773" lon="7.554630967663394"><ele>581.0</ele><time>2026-05-02T14:59:19Z</time></trkpt><trkpt lat="44.333352139387024" lon="7.554525258112592"><ele>580.5</ele><time>2026-05-02T14:59:20Z</time></trkpt><trkpt lat="44.33331663535688" lon="7.554413797581734"><ele>580.0</ele><time>2026-05-02T14:59:21Z</time></trkpt><trkpt lat="44.33323122377022" lon="7.554331026654376"><ele>580.0</ele><time>2026-05-02T14:59:22Z</time></trkpt><trkpt lat="44.333197348813776" lon="7.554144854413676"><ele>580.0</ele><time>2026-05-02T14:59:23Z</time></trkpt><trkpt lat="44.33317526518325" lon="7.553957351649669"><ele>580.0</ele><time>2026-05-02T14:59:24Z</time></trkpt><trkpt lat="44.33318651025759" lon="7.553733967289644"><ele>580.0</ele><time>2026-05-02T14:59:25Z</time></trkpt><trkpt lat="44.333218946815414" lon="7.553467222625003"><ele>580.0</ele><time>2026-05-02T14:59:26Z</time></trkpt><trkpt lat="44.33325497786445" lon="7.553156101628522"><ele>580.0</ele><time>2026-05-02T14:59:27Z</time></trkpt><trkpt lat="44.33327843196079" lon="7.55284008063231"><ele>580.0</ele><time>2026-05-02T14:59:28Z</time></trkpt><trkpt lat="44.333307404016196" lon="7.55252648238599"><ele>580.0</ele><time>2026-05-02T14:59:29Z</time></trkpt><trkpt lat="44.33334167258659" lon="7.552207573910236"><ele>580.6666666666667</ele><time>2026-05-02T14:59:30Z</time></trkpt><trkpt lat="44.33337494535109" lon="7.551906160747873"><ele>581.3333333333334</ele><time>2026-05-02T14:59:31Z</time></trkpt><trkpt lat="44.33340701642293" lon="7.55165284291181"><ele>582.0</ele><time>2026-05-02T14:59:32Z</time></trkpt><trkpt lat="44.33343526311581" lon="7.551433231813211"><ele>582.0</ele><time>2026-05-02T14:59:33Z</time></trkpt><trkpt lat="44.33345955661348" lon="7.551238388846732"><ele>582.0</ele><time>2026-05-02T14:59:34Z</time></trkpt><trkpt lat="44.33349377251731" lon="7.551051607172992"><ele>582.0</ele><time>2026-05-02T14:59:35Z</time></trkpt><trkpt lat="44.33353278409884" lon="7.550865199798936"><ele>582.0</ele><time>2026-05-02T14:59:36Z</time></trkpt><trkpt lat="44.3335873018258" lon="7.550669035954962"><ele>582.25</ele><time>2026-05-02T14:59:37Z</time></trkpt><trkpt lat="44.33364863156053" lon="7.550477492593748"><ele>582.5</ele><time>2026-05-02T14:59:38Z</time></trkpt><trkpt lat="44.333714933828084" lon="7.550307236355088"><ele>582.75</ele><time>2026-05-02T14:59:39Z</time></trkpt><trkpt lat="44.333784992100085" lon="7.55014697650148"><ele>583.0</ele><time>2026-05-02T14:59:40Z</time></trkpt><trkpt lat="44.33384375375309" lon="7.549977022183723"><ele>583.6666666666667</ele><time>2026-05-02T14:59:41Z</time></trkpt><trkpt lat="44.33389736787831" lon="7.549798499519952"><ele>584.3333333333334</ele><time>2026-05-02T14:59:42Z</time></trkpt><trkpt lat="44.33394595540133" lon="7.549604728573898"><ele>585.0</ele><time>2026-05-02T14:59:43Z</time></trkpt><trkpt lat="44.333983332647826" lon="7.549375076913329"><ele>585.0</ele><time>2026-05-02T14:59:44Z</time></trkpt><trkpt lat="44.33400736071194" lon="7.549088058991187"><ele>585.0</ele><time>2026-05-02T14:59:45Z</time></trkpt><trkpt lat="44.33404221257721" lon="7.548752708381157"><ele>585.0</ele><time>2026-05-02T14:59:46Z</time></trkpt><trkpt lat="44.33410064088745" lon="7.548387220623589"><ele>583.5</ele><time>2026-05-02T14:59:47Z</time></trkpt><trkpt lat="44.334156575975115" lon="7.547994719886503"><ele>582.0</ele><time>2026-05-02T14:59:48Z</time></trkpt><trkpt lat="44.33420609793028" lon="7.547642692122099"><ele>581.6666666666666</ele><time>2026-05-02T14:59:49Z</time></trkpt><trkpt lat="44.33424489348562" lon="7.5473238320099645"><ele>581.3333333333333</ele><time>2026-05-02T14:59:50Z</time></trkpt><trkpt lat="44.334278680873595" lon="7.547032527394287"><ele>581.0</ele><time>2026-05-02T14:59:51Z</time></trkpt><trkpt lat="44.334313547927515" lon="7.546763933916082"><ele>581.0</ele><time>2026-05-02T14:59:52Z</time></trkpt><trkpt lat="44.33433952678456" lon="7.546514023304478"><ele>581.0</ele><time>2026-05-02T14:59:53Z</time></trkpt><trkpt lat="44.33436123975335" lon="7.546276194906374"><ele>581.0</ele><time>2026-05-02T14:59:54Z</time></trkpt><trkpt lat="44.33437885912925" lon="7.546043260807556"><ele>581.25</ele><time>2026-05-02T14:59:55Z</time></trkpt><trkpt lat="44.33439544272175" lon="7.5458172660048675"><ele>581.5</ele><time>2026-05-02T14:59:56Z</time></trkpt><trkpt lat="44.33441013517532" lon="7.545625511248811"><ele>581.75</ele><time>2026-05-02T14:59:57Z</time></trkpt><trkpt lat="44.33443025597036" lon="7.545462550296757"><ele>582.0</ele><time>2026-05-02T14:59:58Z</time></trkpt><trkpt lat="44.334463595229344" lon="7.545308391508807"><ele>582.0</ele><time>2026-05-02T14:59:59Z</time></trkpt><trkpt lat="44.334536741569664" lon="7.545142160426803"><ele>582.0</ele><time>2026-05-02T15:00:00Z</time></trkpt><trkpt lat="44.33464854608709" lon="7.544974501677416"><ele>582.0</ele><time>2026-05-02T15:00:01Z</time></trkpt><trkpt lat="44.334764965296664" lon="7.544809222698986"><ele>581.6</ele><time>2026-05-02T15:00:02Z</time></trkpt><trkpt lat="44.33485499205682" lon="7.544673836951145"><ele>581.2</ele><time>2026-05-02T15:00:03Z</time></trkpt><trkpt lat="44.334930898937465" lon="7.544579047709097"><ele>580.8</ele><time>2026-05-02T15:00:04Z</time></trkpt><trkpt lat="44.33500819233423" lon="7.544499939207453"><ele>580.4</ele><time>2026-05-02T15:00:05Z</time></trkpt><trkpt lat="44.33509217027646" lon="7.54445234904748"><ele>580.0</ele><time>2026-05-02T15:00:06Z</time></trkpt><trkpt lat="44.33517147904626" lon="7.544426193489276"><ele>579.75</ele><time>2026-05-02T15:00:07Z</time></trkpt><trkpt lat="44.33524677727196" lon="7.544286954903497"><ele>579.5</ele><time>2026-05-02T15:00:09Z</time></trkpt><trkpt lat="44.33526867235703" lon="7.54414509951556"><ele>579.25</ele><time>2026-05-02T15:00:10Z</time></trkpt><trkpt lat="44.33532916260709" lon="7.544008554410906"><ele>579.0</ele><time>2026-05-02T15:00:11Z</time></trkpt><trkpt lat="44.33543318643788" lon="7.543864457433248"><ele>579.0</ele><time>2026-05-02T15:00:12Z</time></trkpt><trkpt lat="44.33553758681884" lon="7.543726660952169"><ele>579.0</ele><time>2026-05-02T15:00:13Z</time></trkpt><trkpt lat="44.33562164779777" lon="7.543612285480152"><ele>579.0</ele><time>2026-05-02T15:00:14Z</time></trkpt><trkpt lat="44.335691048915976" lon="7.543512656183152"><ele>579.0</ele><time>2026-05-02T15:00:15Z</time></trkpt><trkpt lat="44.335749217923265" lon="7.543437277284402"><ele>579.0</ele><time>2026-05-02T15:00:16Z</time></trkpt><trkpt lat="44.3358009873416" lon="7.543363999089931"><ele>579.75</ele><time>2026-05-02T15:00:17Z</time></trkpt><trkpt lat="44.33582540188664" lon="7.543255645010687"><ele>580.5</ele><time>2026-05-02T15:00:18Z</time></trkpt><trkpt lat="44.335821389655464" lon="7.5431012365508785"><ele>581.25</ele><time>2026-05-02T15:00:19Z</time></trkpt><trkpt lat="44.33580207023232" lon="7.542888356270325"><ele>582.0</ele><time>2026-05-02T15:00:20Z</time></trkpt><trkpt lat="44.3358072345486" lon="7.542636793099124"><ele>582.0</ele><time>2026-05-02T15:00:21Z</time></trkpt><trkpt lat="44.33584229551935" lon="7.542316227149635"><ele>582.0</ele><time>2026-05-02T15:00:22Z</time></trkpt><trkpt lat="44.33587773907283" lon="7.541981218530855"><ele>581.5</ele><time>2026-05-02T15:00:23Z</time></trkpt><trkpt lat="44.33584454163172" lon="7.541638934465377"><ele>581.0</ele><time>2026-05-02T15:00:24Z</time></trkpt><trkpt lat="44.33593988780401" lon="7.541320837380663"><ele>581.3333333333333</ele><time>2026-05-02T15:00:25Z</time></trkpt><trkpt lat="44.33597145583901" lon="7.541002693651956"><ele>581.6666666666666</ele><time>2026-05-02T15:00:26Z</time></trkpt><trkpt lat="44.33600404528694" lon="7.540716834258186"><ele>582.0</ele><time>2026-05-02T15:00:27Z</time></trkpt><trkpt lat="44.336032922904145" lon="7.540455627131915"><ele>582.3333333333334</ele><time>2026-05-02T15:00:28Z</time></trkpt><trkpt lat="44.33605564676773" lon="7.540194649553764"><ele>582.6666666666667</ele><time>2026-05-02T15:00:29Z</time></trkpt><trkpt lat="44.33607289178919" lon="7.539938012165741"><ele>583.0</ele><time>2026-05-02T15:00:30Z</time></trkpt><trkpt lat="44.33609011505637" lon="7.539699027239986"><ele>583.0</ele><time>2026-05-02T15:00:31Z</time></trkpt><trkpt lat="44.33610353429337" lon="7.539472920258002"><ele>583.0</ele><time>2026-05-02T15:00:32Z</time></trkpt><trkpt lat="44.33610818568957" lon="7.539260432829208"><ele>583.0</ele><time>2026-05-02T15:00:33Z</time></trkpt><trkpt lat="44.33608653270889" lon="7.539015358175208"><ele>583.0</ele><time>2026-05-02T15:00:34Z</time></trkpt><trkpt lat="44.336056982772035" lon="7.538730563099256"><ele>583.0</ele><time>2026-05-02T15:00:35Z</time></trkpt><trkpt lat="44.3360224365408" lon="7.538426895054278"><ele>583.0</ele><time>2026-05-02T15:00:36Z</time></trkpt><trkpt lat="44.33598874793645" lon="7.538111967618637"><ele>584.0</ele><time>2026-05-02T15:00:37Z</time></trkpt><trkpt lat="44.33595237668556" lon="7.537788372014988"><ele>585.0</ele><time>2026-05-02T15:00:38Z</time></trkpt><trkpt lat="44.33591309570289" lon="7.537480459344833"><ele>585.0</ele><time>2026-05-02T15:00:39Z</time></trkpt><trkpt lat="44.33587965887556" lon="7.537204581559818"><ele>585.0</ele><time>2026-05-02T15:00:40Z</time></trkpt><trkpt lat="44.335851886086544" lon="7.536952932329285"><ele>585.0</ele><time>2026-05-02T15:00:41Z</time></trkpt><trkpt lat="44.33583587156065" lon="7.536708909448591"><ele>585.3333333333334</ele><time>2026-05-02T15:00:42Z</time></trkpt><trkpt lat="44.335833423185534" lon="7.536442389113058"><ele>585.6666666666667</ele><time>2026-05-02T15:00:43Z</time></trkpt><trkpt lat="44.33584167233112" lon="7.536154570881598"><ele>586.0</ele><time>2026-05-02T15:00:44Z</time></trkpt><trkpt lat="44.335853285392815" lon="7.535847811784562"><ele>586.6666666666667</ele><time>2026-05-02T15:00:45Z</time></trkpt><trkpt lat="44.335859957216186" lon="7.535530328742156"><ele>587.3333333333334</ele><time>2026-05-02T15:00:46Z</time></trkpt><trkpt lat="44.33586995077844" lon="7.5352224980432565"><ele>588.0</ele><time>2026-05-02T15:00:47Z</time></trkpt><trkpt lat="44.33588062886695" lon="7.534951107223197"><ele>588.0</ele><time>2026-05-02T15:00:48Z</time></trkpt><trkpt lat="44.33589137348235" lon="7.534705901424265"><ele>588.0</ele><time>2026-05-02T15:00:49Z</time></trkpt><trkpt lat="44.33589690968919" lon="7.534479336384561"><ele>588.0</ele><time>2026-05-02T15:00:50Z</time></trkpt><trkpt lat="44.33590592751293" lon="7.534260851082349"><ele>588.25</ele><time>2026-05-02T15:00:51Z</time></trkpt><trkpt lat="44.33591733505016" lon="7.534052693733449"><ele>588.5</ele><time>2026-05-02T15:00:52Z</time></trkpt><trkpt lat="44.335926209573834" lon="7.533853101196458"><ele>588.75</ele><time>2026-05-02T15:00:53Z</time></trkpt><trkpt lat="44.33593351918464" lon="7.533669082459139"><ele>589.0</ele><time>2026-05-02T15:00:54Z</time></trkpt><trkpt lat="44.335943427808616" lon="7.533494659480233"><ele>589.2</ele><time>2026-05-02T15:00:55Z</time></trkpt><trkpt lat="44.335956632259524" lon="7.53332795354621"><ele>589.4</ele><time>2026-05-02T15:00:56Z</time></trkpt><trkpt lat="44.335969803262365" lon="7.533169431161837"><ele>589.6</ele><time>2026-05-02T15:00:57Z</time></trkpt><trkpt lat="44.33598765579097" lon="7.533020656765017"><ele>589.8</ele><time>2026-05-02T15:00:58Z</time></trkpt><trkpt lat="44.3360074520944" lon="7.53287875014729"><ele>590.0</ele><time>2026-05-02T15:00:59Z</time></trkpt><trkpt lat="44.33602919981681" lon="7.532745348279961"><ele>590.5</ele><time>2026-05-02T15:01:00Z</time></trkpt><trkpt lat="44.3360562363525" lon="7.532591259530596"><ele>591.0</ele><time>2026-05-02T15:01:01Z</time></trkpt><trkpt lat="44.336094681566365" lon="7.532414294944123"><ele>591.5</ele><time>2026-05-02T15:01:02Z</time></trkpt><trkpt lat="44.33613064369771" lon="7.53225168262992"><ele>592.0</ele><time>2026-05-02T15:01:03Z</time></trkpt><trkpt lat="44.33617490869671" lon="7.532067102696638"><ele>593.0</ele><time>2026-05-02T15:01:04Z</time></trkpt><trkpt lat="44.336233266564776" lon="7.531856309628295"><ele>594.0</ele><time>2026-05-02T15:01:05Z</time></trkpt><trkpt lat="44.33629312632261" lon="7.5316319293549014"><ele>595.0</ele><time>2026-05-02T15:01:06Z</time></trkpt><trkpt lat="44.3363509478414" lon="7.531408815624942"><ele>594.0</ele><time>2026-05-02T15:01:07Z</time></trkpt><trkpt lat="44.336401523405826" lon="7.531215049131485"><ele>593.0</ele><time>2026-05-02T15:01:08Z</time></trkpt><trkpt lat="44.33644326299196" lon="7.531039837664494"><ele>592.0</ele><time>2026-05-02T15:01:09Z</time></trkpt><trkpt lat="44.33647807978538" lon="7.530868106846876"><ele>591.0</ele><time>2026-05-02T15:01:10Z</time></trkpt><trkpt lat="44.336504698497976" lon="7.53069958846462"><ele>591.0</ele><time>2026-05-02T15:01:11Z</time></trkpt><trkpt lat="44.336511355305305" lon="7.530530074781444"><ele>591.0</ele><time>2026-05-02T15:01:12Z</time></trkpt><trkpt lat="44.336526628671315" lon="7.530342758953823"><ele>591.0</ele><time>2026-05-02T15:01:13Z</time></trkpt><trkpt lat="44.33653956313417" lon="7.530164744311433"><ele>591.0</ele><time>2026-05-02T15:01:14Z</time></trkpt><trkpt lat="44.33654160877764" lon="7.529980677504789"><ele>591.5</ele><time>2026-05-02T15:01:15Z</time></trkpt><trkpt lat="44.336517245287304" lon="7.5298040703353335"><ele>592.0</ele><time>2026-05-02T15:01:16Z</time></trkpt><trkpt lat="44.33647694235255" lon="7.529623426697397"><ele>592.5</ele><time>2026-05-02T15:01:17Z</time></trkpt><trkpt lat="44.33642257710304" lon="7.529445046181241"><ele>593.0</ele><time>2026-05-02T15:01:18Z</time></trkpt><trkpt lat="44.33634971855381" lon="7.52927071128924"><ele>595.3333333333333</ele><time>2026-05-02T15:01:19Z</time></trkpt><trkpt lat="44.33626743921889" lon="7.5290682301693925"><ele>597.6666666666666</ele><time>2026-05-02T15:01:20Z</time></trkpt><trkpt lat="44.336159286304515" lon="7.52885717408911"><ele>600.0</ele><time>2026-05-02T15:01:21Z</time></trkpt><trkpt lat="44.33603286578578" lon="7.528636002187514"><ele>600.0</ele><time>2026-05-02T15:01:22Z</time></trkpt><trkpt lat="44.33589154353682" lon="7.528410170775037"><ele>600.0</ele><time>2026-05-02T15:01:23Z</time></trkpt><trkpt lat="44.33574792564621" lon="7.528198748940031"><ele>600.0</ele><time>2026-05-02T15:01:24Z</time></trkpt><trkpt lat="44.33563403737714" lon="7.528034611940413"><ele>599.8</ele><time>2026-05-02T15:01:25Z</time></trkpt><trkpt lat="44.335545014876324" lon="7.5279079148747865"><ele>599.6</ele><time>2026-05-02T15:01:26Z</time></trkpt><trkpt lat="44.33546325892828" lon="7.527801982825301"><ele>599.4</ele><time>2026-05-02T15:01:27Z</time></trkpt><trkpt lat="44.33539777240986" lon="7.527703712615671"><ele>599.2</ele><time>2026-05-02T15:01:28Z</time></trkpt><trkpt lat="44.335352167178456" lon="7.527604246538452"><ele>599.0</ele><time>2026-05-02T15:01:29Z</time></trkpt><trkpt lat="44.33533023492819" lon="7.527500276577506"><ele>599.0</ele><time>2026-05-02T15:01:30Z</time></trkpt><trkpt lat="44.33531557191567" lon="7.527401008110595"><ele>599.0</ele><time>2026-05-02T15:01:31Z</time></trkpt><trkpt lat="44.33530149833854" lon="7.527297236536129"><ele>599.0</ele><time>2026-05-02T15:01:32Z</time></trkpt><trkpt lat="44.33530578413819" lon="7.527136961325667"><ele>599.0</ele><time>2026-05-02T15:01:34Z</time></trkpt><trkpt lat="44.335480050053235" lon="7.527031881927403"><ele>598.2</ele><time>2026-05-02T15:01:36Z</time></trkpt><trkpt lat="44.335591554676775" lon="7.526945845705248"><ele>597.4</ele><time>2026-05-02T15:01:37Z</time></trkpt><trkpt lat="44.33566251017567" lon="7.5268962022636074"><ele>596.6</ele><time>2026-05-02T15:01:38Z</time></trkpt><trkpt lat="44.33571973569785" lon="7.526843437703564"><ele>595.8</ele><time>2026-05-02T15:01:41Z</time></trkpt><trkpt lat="44.33577173876833" lon="7.526784037002906"><ele>595.0</ele><time>2026-05-02T15:01:49Z</time></trkpt><trkpt lat="44.33568710358911" lon="7.526536042194014"><ele>595.0</ele><time>2026-05-02T15:01:51Z</time></trkpt><trkpt lat="44.3356026034945" lon="7.526362908809651"><ele>595.0</ele><time>2026-05-02T15:01:52Z</time></trkpt><trkpt lat="44.33549246841903" lon="7.526128020110303"><ele>595.0</ele><time>2026-05-02T15:01:53Z</time></trkpt><trkpt lat="44.33537324340419" lon="7.525868146656752"><ele>595.0</ele><time>2026-05-02T15:01:54Z</time></trkpt><trkpt lat="44.33525905835274" lon="7.525590946572082"><ele>595.0</ele><time>2026-05-02T15:01:55Z</time></trkpt><trkpt lat="44.33515468903198" lon="7.525314957125609"><ele>595.5</ele><time>2026-05-02T15:01:56Z</time></trkpt><trkpt lat="44.33504619353473" lon="7.525039685646574"><ele>596.0</ele><time>2026-05-02T15:01:57Z</time></trkpt><trkpt lat="44.33492783553089" lon="7.5247388252203695"><ele>596.5</ele><time>2026-05-02T15:01:58Z</time></trkpt><trkpt lat="44.334809011974876" lon="7.524440109803444"><ele>597.0</ele><time>2026-05-02T15:01:59Z</time></trkpt><trkpt lat="44.33470059761008" lon="7.524171674848986"><ele>597.0</ele><time>2026-05-02T15:02:00Z</time></trkpt><trkpt lat="44.33459412227948" lon="7.523906661216691"><ele>597.0</ele><time>2026-05-02T15:02:01Z</time></trkpt><trkpt lat="44.33447768150092" lon="7.523628417498759"><ele>597.0</ele><time>2026-05-02T15:02:02Z</time></trkpt><trkpt lat="44.33435716112849" lon="7.523345687742036"><ele>597.0</ele><time>2026-05-02T15:02:03Z</time></trkpt><trkpt lat="44.33422927886635" lon="7.523040400266135"><ele>597.0</ele><time>2026-05-02T15:02:04Z</time></trkpt><trkpt lat="44.33410097216106" lon="7.522727900851786"><ele>596.5</ele><time>2026-05-02T15:02:05Z</time></trkpt><trkpt lat="44.333973126321204" lon="7.522420881281501"><ele>596.0</ele><time>2026-05-02T15:02:06Z</time></trkpt><trkpt lat="44.33384214749519" lon="7.522118806021953"><ele>597.0</ele><time>2026-05-02T15:02:07Z</time></trkpt><trkpt lat="44.33372403173161" lon="7.521856675500285"><ele>598.0</ele><time>2026-05-02T15:02:08Z</time></trkpt><trkpt lat="44.33361082905872" lon="7.521592261269026"><ele>599.0</ele><time>2026-05-02T15:02:09Z</time></trkpt><trkpt lat="44.333500484966514" lon="7.521340818569767"><ele>598.3333333333333</ele><time>2026-05-02T15:02:10Z</time></trkpt><trkpt lat="44.333391502269144" lon="7.521089896301122"><ele>597.6666666666666</ele><time>2026-05-02T15:02:11Z</time></trkpt><trkpt lat="44.3332823778852" lon="7.520840578183839"><ele>597.0</ele><time>2026-05-02T15:02:12Z</time></trkpt><trkpt lat="44.33317340153776" lon="7.520579740954179"><ele>597.3333333333334</ele><time>2026-05-02T15:02:13Z</time></trkpt><trkpt lat="44.33305746451635" lon="7.520322109269077"><ele>597.6666666666667</ele><time>2026-05-02T15:02:14Z</time></trkpt><trkpt lat="44.33294364418199" lon="7.520061793458144"><ele>598.0</ele><time>2026-05-02T15:02:15Z</time></trkpt><trkpt lat="44.3328281129563" lon="7.519792374798539"><ele>598.0</ele><time>2026-05-02T15:02:16Z</time></trkpt><trkpt lat="44.33270574403415" lon="7.51950957454582"><ele>598.0</ele><time>2026-05-02T15:02:17Z</time></trkpt><trkpt lat="44.332569047240035" lon="7.5192036213852"><ele>598.0</ele><time>2026-05-02T15:02:18Z</time></trkpt><trkpt lat="44.33242654600777" lon="7.518868030784471"><ele>598.0</ele><time>2026-05-02T15:02:19Z</time></trkpt><trkpt lat="44.332296664632906" lon="7.518549410363023"><ele>598.5</ele><time>2026-05-02T15:02:20Z</time></trkpt><trkpt lat="44.33218022696941" lon="7.518257700456007"><ele>599.0</ele><time>2026-05-02T15:02:21Z</time></trkpt><trkpt lat="44.33207367813422" lon="7.517998776874857"><ele>599.3333333333333</ele><time>2026-05-02T15:02:22Z</time></trkpt><trkpt lat="44.33198684843024" lon="7.517759280974828"><ele>599.6666666666666</ele><time>2026-05-02T15:02:23Z</time></trkpt><trkpt lat="44.331907079748376" lon="7.517544285529388"><ele>600.0</ele><time>2026-05-02T15:02:24Z</time></trkpt><trkpt lat="44.331834660110054" lon="7.517338669212467"><ele>600.0</ele><time>2026-05-02T15:02:25Z</time></trkpt><trkpt lat="44.331769249952885" lon="7.517155645183558"><ele>600.0</ele><time>2026-05-02T15:02:26Z</time></trkpt><trkpt lat="44.33171716469866" lon="7.516984620011899"><ele>600.0</ele><time>2026-05-02T15:02:27Z</time></trkpt><trkpt lat="44.331676209635894" lon="7.516833990019659"><ele>600.0</ele><time>2026-05-02T15:02:28Z</time></trkpt><trkpt lat="44.331648631048" lon="7.516682702307016"><ele>599.75</ele><time>2026-05-02T15:02:29Z</time></trkpt><trkpt lat="44.33161783153078" lon="7.51654292719941"><ele>599.5</ele><time>2026-05-02T15:02:30Z</time></trkpt><trkpt lat="44.33155947713037" lon="7.516390117101085"><ele>599.25</ele><time>2026-05-02T15:02:31Z</time></trkpt><trkpt lat="44.331463627952814" lon="7.516222052161692"><ele>599.0</ele><time>2026-05-02T15:02:32Z</time></trkpt><trkpt lat="44.33135218445078" lon="7.5160215734357445"><ele>599.0</ele><time>2026-05-02T15:02:33Z</time></trkpt><trkpt lat="44.331249162749984" lon="7.515784416635191"><ele>599.0</ele><time>2026-05-02T15:02:34Z</time></trkpt><trkpt lat="44.33116727694049" lon="7.515519702779075"><ele>599.0</ele><time>2026-05-02T15:02:35Z</time></trkpt><trkpt lat="44.33109228518706" lon="7.515235728024098"><ele>599.0</ele><time>2026-05-02T15:02:36Z</time></trkpt><trkpt lat="44.33102544659891" lon="7.514952873273999"><ele>599.0</ele><time>2026-05-02T15:02:37Z</time></trkpt><trkpt lat="44.3309669613579" lon="7.514668865114426"><ele>599.0</ele><time>2026-05-02T15:02:38Z</time></trkpt><trkpt lat="44.330921392203344" lon="7.514375670327997"><ele>599.0</ele><time>2026-05-02T15:02:39Z</time></trkpt><trkpt lat="44.3308893416487" lon="7.514080433061518"><ele>599.0</ele><time>2026-05-02T15:02:40Z</time></trkpt><trkpt lat="44.33087195941529" lon="7.513783911519689"><ele>599.0</ele><time>2026-05-02T15:02:41Z</time></trkpt><trkpt lat="44.33086820498401" lon="7.513473979552546"><ele>598.5</ele><time>2026-05-02T15:02:42Z</time></trkpt><trkpt lat="44.33087923850512" lon="7.513155367588311"><ele>598.0</ele><time>2026-05-02T15:02:43Z</time></trkpt><trkpt lat="44.33090377810573" lon="7.51284259460678"><ele>598.0</ele><time>2026-05-02T15:02:44Z</time></trkpt><trkpt lat="44.33094241819324" lon="7.512536842876709"><ele>598.0</ele><time>2026-05-02T15:02:45Z</time></trkpt><trkpt lat="44.33099982371273" lon="7.5122311233985455"><ele>598.0</ele><time>2026-05-02T15:02:46Z</time></trkpt><trkpt lat="44.331075563822594" lon="7.511923164399924"><ele>598.0</ele><time>2026-05-02T15:02:47Z</time></trkpt><trkpt lat="44.33116549809316" lon="7.51160752445339"><ele>598.0</ele><time>2026-05-02T15:02:48Z</time></trkpt><trkpt lat="44.33127142902893" lon="7.511298357991525"><ele>598.5</ele><time>2026-05-02T15:02:49Z</time></trkpt><trkpt lat="44.33140015956935" lon="7.510981314558277"><ele>599.0</ele><time>2026-05-02T15:02:50Z</time></trkpt><trkpt lat="44.3315431878243" lon="7.510656920788839"><ele>598.5</ele><time>2026-05-02T15:02:51Z</time></trkpt><trkpt lat="44.331674067278506" lon="7.510360035807375"><ele>598.0</ele><time>2026-05-02T15:02:52Z</time></trkpt><trkpt lat="44.33178531932812" lon="7.51010019393915"><ele>598.0</ele><time>2026-05-02T15:02:53Z</time></trkpt><trkpt lat="44.331882987667306" lon="7.509865907779187"><ele>598.0</ele><time>2026-05-02T15:02:54Z</time></trkpt><trkpt lat="44.33197375942049" lon="7.509648439566507"><ele>598.0</ele><time>2026-05-02T15:02:55Z</time></trkpt><trkpt lat="44.33205881938004" lon="7.509448910632708"><ele>598.25</ele><time>2026-05-02T15:02:56Z</time></trkpt><trkpt lat="44.33214241189539" lon="7.509276687014157"><ele>598.5</ele><time>2026-05-02T15:02:57Z</time></trkpt><trkpt lat="44.33221987350895" lon="7.509110590217551"><ele>598.75</ele><time>2026-05-02T15:02:58Z</time></trkpt><trkpt lat="44.33227666645824" lon="7.508954347736987"><ele>599.0</ele><time>2026-05-02T15:02:59Z</time></trkpt><trkpt lat="44.33235639927225" lon="7.508771707522821"><ele>598.0</ele><time>2026-05-02T15:03:00Z</time></trkpt><trkpt lat="44.33245968604481" lon="7.508516747811483"><ele>597.0</ele><time>2026-05-02T15:03:01Z</time></trkpt><trkpt lat="44.332578591507534" lon="7.508211223316468"><ele>596.5</ele><time>2026-05-02T15:03:02Z</time></trkpt><trkpt lat="44.33270930096185" lon="7.507875219400997"><ele>596.0</ele><time>2026-05-02T15:03:03Z</time></trkpt><trkpt lat="44.33286064784515" lon="7.507511703095274"><ele>596.0</ele><time>2026-05-02T15:03:04Z</time></trkpt><trkpt lat="44.333004201415015" lon="7.507162126659773"><ele>596.0</ele><time>2026-05-02T15:03:05Z</time></trkpt><trkpt lat="44.333146045188535" lon="7.5068156117741625"><ele>598.5</ele><time>2026-05-02T15:03:06Z</time></trkpt><trkpt lat="44.33329382911752" lon="7.506463507609692"><ele>601.0</ele><time>2026-05-02T15:03:07Z</time></trkpt><trkpt lat="44.333444584186154" lon="7.506113268401156"><ele>602.5</ele><time>2026-05-02T15:03:08Z</time></trkpt><trkpt lat="44.33359325878831" lon="7.505770232347749"><ele>604.0</ele><time>2026-05-02T15:03:09Z</time></trkpt><trkpt lat="44.333717497827955" lon="7.505467990721845"><ele>604.6666666666667</ele><time>2026-05-02T15:03:10Z</time></trkpt><trkpt lat="44.333832468944294" lon="7.505199818312348"><ele>605.3333333333334</ele><time>2026-05-02T15:03:11Z</time></trkpt><trkpt lat="44.33394576812382" lon="7.504934786409644"><ele>606.0</ele><time>2026-05-02T15:03:12Z</time></trkpt><trkpt lat="44.33405332942672" lon="7.504674069466422"><ele>607.3333333333334</ele><time>2026-05-02T15:03:13Z</time></trkpt><trkpt lat="44.33414507687918" lon="7.5044382308313535"><ele>608.6666666666667</ele><time>2026-05-02T15:03:14Z</time></trkpt><trkpt lat="44.33421731587737" lon="7.504218668742812"><ele>610.0</ele><time>2026-05-02T15:03:15Z</time></trkpt><trkpt lat="44.33427932009659" lon="7.503990019202012"><ele>610.3333333333334</ele><time>2026-05-02T15:03:16Z</time></trkpt><trkpt lat="44.33432747746701" lon="7.503740264834702"><ele>610.6666666666666</ele><time>2026-05-02T15:03:17Z</time></trkpt><trkpt lat="44.33436311430664" lon="7.503477210828421"><ele>611.0</ele><time>2026-05-02T15:03:18Z</time></trkpt><trkpt lat="44.334391442792565" lon="7.5032276369050015"><ele>611.0</ele><time>2026-05-02T15:03:19Z</time></trkpt><trkpt lat="44.33441567887991" lon="7.503009166618584"><ele>611.0</ele><time>2026-05-02T15:03:20Z</time></trkpt><trkpt lat="44.33444150896182" lon="7.502828272931065"><ele>611.0</ele><time>2026-05-02T15:03:21Z</time></trkpt><trkpt lat="44.33447483763854" lon="7.502665917747325"><ele>611.0</ele><time>2026-05-02T15:03:22Z</time></trkpt><trkpt lat="44.33452357391607" lon="7.50251310588681"><ele>611.4</ele><time>2026-05-02T15:03:23Z</time></trkpt><trkpt lat="44.334553259376754" lon="7.5023665273202464"><ele>611.8</ele><time>2026-05-02T15:03:24Z</time></trkpt><trkpt lat="44.334602974199164" lon="7.502272096792726"><ele>612.1999999999999</ele><time>2026-05-02T15:03:25Z</time></trkpt><trkpt lat="44.33458950718936" lon="7.502172806272042"><ele>612.6</ele><time>2026-05-02T15:03:26Z</time></trkpt><trkpt lat="44.334542806733964" lon="7.502074846091599"><ele>613.0</ele><time>2026-05-02T15:03:27Z</time></trkpt><trkpt lat="44.33446398985193" lon="7.501982673192708"><ele>613.75</ele><time>2026-05-02T15:03:28Z</time></trkpt><trkpt lat="44.334362711242186" lon="7.501877509388067"><ele>614.5</ele><time>2026-05-02T15:03:29Z</time></trkpt><trkpt lat="44.33428390765039" lon="7.501726147142186"><ele>615.25</ele><time>2026-05-02T15:03:30Z</time></trkpt><trkpt lat="44.33421808915247" lon="7.501540254511517"><ele>616.0</ele><time>2026-05-02T15:03:31Z</time></trkpt><trkpt lat="44.33413300145403" lon="7.501312240142394"><ele>615.6666666666667</ele><time>2026-05-02T15:03:32Z</time></trkpt><trkpt lat="44.33402724752805" lon="7.501056616150127"><ele>615.3333333333334</ele><time>2026-05-02T15:03:33Z</time></trkpt><trkpt lat="44.33390082835291" lon="7.500784335828029"><ele>615.0</ele><time>2026-05-02T15:03:34Z</time></trkpt><trkpt lat="44.33377403809924" lon="7.500510335898742"><ele>616.3333333333334</ele><time>2026-05-02T15:03:35Z</time></trkpt><trkpt lat="44.333663578699166" lon="7.5002711513348315"><ele>617.6666666666667</ele><time>2026-05-02T15:03:36Z</time></trkpt><trkpt lat="44.333567848354626" lon="7.50006329769909"><ele>619.0</ele><time>2026-05-02T15:03:37Z</time></trkpt><trkpt lat="44.33348226761916" lon="7.499868610353242"><ele>619.0</ele><time>2026-05-02T15:03:38Z</time></trkpt><trkpt lat="44.33340813281623" lon="7.499701995676549"><ele>619.0</ele><time>2026-05-02T15:03:39Z</time></trkpt><trkpt lat="44.333341926163314" lon="7.499542807039455"><ele>619.0</ele><time>2026-05-02T15:03:40Z</time></trkpt><trkpt lat="44.333265322976246" lon="7.4993674203322325"><ele>619.0</ele><time>2026-05-02T15:03:41Z</time></trkpt><trkpt lat="44.33319357764342" lon="7.499204111893933"><ele>619.0</ele><time>2026-05-02T15:03:42Z</time></trkpt><trkpt lat="44.33312964332311" lon="7.499050780523116"><ele>619.0</ele><time>2026-05-02T15:03:43Z</time></trkpt><trkpt lat="44.333050099447895" lon="7.498859892799004"><ele>619.0</ele><time>2026-05-02T15:03:44Z</time></trkpt><trkpt lat="44.332955862374725" lon="7.498651673050825"><ele>619.0</ele><time>2026-05-02T15:03:45Z</time></trkpt><trkpt lat="44.33286510387247" lon="7.498447740889564"><ele>619.0</ele><time>2026-05-02T15:03:46Z</time></trkpt><trkpt lat="44.33278481416118" lon="7.498273496608622"><ele>619.0</ele><time>2026-05-02T15:03:47Z</time></trkpt><trkpt lat="44.332711551564536" lon="7.498122654936341"><ele>619.0</ele><time>2026-05-02T15:03:48Z</time></trkpt><trkpt lat="44.332644796891216" lon="7.497988222767486"><ele>619.0</ele><time>2026-05-02T15:03:49Z</time></trkpt><trkpt lat="44.332576352291014" lon="7.497834421008298"><ele>619.0</ele><time>2026-05-02T15:03:50Z</time></trkpt><trkpt lat="44.33251913747618" lon="7.497694331993855"><ele>619.0</ele><time>2026-05-02T15:03:51Z</time></trkpt><trkpt lat="44.33246910254536" lon="7.497561522060656"><ele>620.0</ele><time>2026-05-02T15:03:52Z</time></trkpt><trkpt lat="44.33245854160481" lon="7.497419025463315"><ele>621.0</ele><time>2026-05-02T15:03:53Z</time></trkpt><trkpt lat="44.33242758388558" lon="7.497275453175682"><ele>622.0</ele><time>2026-05-02T15:03:54Z</time></trkpt><trkpt lat="44.332415316118386" lon="7.497147720484157"><ele>623.0</ele><time>2026-05-02T15:03:55Z</time></trkpt><trkpt lat="44.33241007984651" lon="7.497047094046534"><ele>624.0</ele><time>2026-05-02T15:03:56Z</time></trkpt><trkpt lat="44.33244216115391" lon="7.496895861040613"><ele>624.6</ele><time>2026-05-02T15:03:58Z</time></trkpt><trkpt lat="44.33247675614007" lon="7.4968071066983955"><ele>625.2</ele><time>2026-05-02T15:03:59Z</time></trkpt><trkpt lat="44.332524869970655" lon="7.496697605276041"><ele>625.8000000000001</ele><time>2026-05-02T15:04:00Z</time></trkpt><trkpt lat="44.33258637180242" lon="7.496578439446933"><ele>626.4</ele><time>2026-05-02T15:04:01Z</time></trkpt><trkpt lat="44.33267167922853" lon="7.496484742040389"><ele>627.0</ele><time>2026-05-02T15:04:02Z</time></trkpt><trkpt lat="44.33280490855864" lon="7.49643657194795"><ele>627.0</ele><time>2026-05-02T15:04:03Z</time></trkpt><trkpt lat="44.3329861321976" lon="7.496352596853465"><ele>627.0</ele><time>2026-05-02T15:04:04Z</time></trkpt><trkpt lat="44.333196989811256" lon="7.4962548875569865"><ele>627.0</ele><time>2026-05-02T15:04:05Z</time></trkpt><trkpt lat="44.33338309267814" lon="7.49615119981801"><ele>627.0</ele><time>2026-05-02T15:04:06Z</time></trkpt><trkpt lat="44.3335477580735" lon="7.496091719703555"><ele>627.0</ele><time>2026-05-02T15:04:07Z</time></trkpt><trkpt lat="44.33371012548195" lon="7.496046406668588"><ele>627.0</ele><time>2026-05-02T15:04:08Z</time></trkpt><trkpt lat="44.333891569494206" lon="7.496074988658699"><ele>628.0</ele><time>2026-05-02T15:04:09Z</time></trkpt><trkpt lat="44.334107082390986" lon="7.496090517919603"><ele>629.0</ele><time>2026-05-02T15:04:10Z</time></trkpt><trkpt lat="44.334341674314956" lon="7.496080890697267"><ele>629.0</ele><time>2026-05-02T15:04:11Z</time></trkpt><trkpt lat="44.334553135119485" lon="7.496104481623209"><ele>629.0</ele><time>2026-05-02T15:04:12Z</time></trkpt><trkpt lat="44.334737655442346" lon="7.496125711407759"><ele>629.0</ele><time>2026-05-02T15:04:13Z</time></trkpt><trkpt lat="44.334903963963086" lon="7.4961523736644615"><ele>628.75</ele><time>2026-05-02T15:04:14Z</time></trkpt><trkpt lat="44.33505766343277" lon="7.496178980039816"><ele>628.5</ele><time>2026-05-02T15:04:15Z</time></trkpt><trkpt lat="44.33518390568622" lon="7.496182080904085"><ele>628.25</ele><time>2026-05-02T15:04:16Z</time></trkpt><trkpt lat="44.3353102443739" lon="7.496197460011769"><ele>628.0</ele><time>2026-05-02T15:04:17Z</time></trkpt><trkpt lat="44.335423892442265" lon="7.49621759318333"><ele>627.6666666666667</ele><time>2026-05-02T15:04:18Z</time></trkpt><trkpt lat="44.335563353282254" lon="7.496227838325523"><ele>627.3333333333334</ele><time>2026-05-02T15:04:19Z</time></trkpt><trkpt lat="44.335742062517255" lon="7.496225408966667"><ele>627.0</ele><time>2026-05-02T15:04:20Z</time></trkpt><trkpt lat="44.33595147682637" lon="7.496223144244799"><ele>627.0</ele><time>2026-05-02T15:04:21Z</time></trkpt><trkpt lat="44.336185170194355" lon="7.496238507028271"><ele>627.0</ele><time>2026-05-02T15:04:22Z</time></trkpt><trkpt lat="44.33638951913033" lon="7.496252869667647"><ele>627.0</ele><time>2026-05-02T15:04:23Z</time></trkpt><trkpt lat="44.33656117034427" lon="7.496267064613355"><ele>626.75</ele><time>2026-05-02T15:04:24Z</time></trkpt><trkpt lat="44.33669837408248" lon="7.4962788004242675"><ele>626.5</ele><time>2026-05-02T15:04:25Z</time></trkpt><trkpt lat="44.33682762485867" lon="7.496289804735735"><ele>626.25</ele><time>2026-05-02T15:04:26Z</time></trkpt><trkpt lat="44.336952096556125" lon="7.496278635846499"><ele>626.0</ele><time>2026-05-02T15:04:27Z</time></trkpt><trkpt lat="44.33705198208982" lon="7.4962496884507255"><ele>626.25</ele><time>2026-05-02T15:04:28Z</time></trkpt><trkpt lat="44.33713363569213" lon="7.496177893180522"><ele>626.5</ele><time>2026-05-02T15:04:29Z</time></trkpt><trkpt lat="44.33721656171572" lon="7.496067194107038"><ele>626.75</ele><time>2026-05-02T15:04:30Z</time></trkpt><trkpt lat="44.337305316032364" lon="7.495921726461972"><ele>627.0</ele><time>2026-05-02T15:04:31Z</time></trkpt><trkpt lat="44.33739280483593" lon="7.495749476272876"><ele>627.0</ele><time>2026-05-02T15:04:32Z</time></trkpt><trkpt lat="44.337481369117576" lon="7.495569387149461"><ele>627.0</ele><time>2026-05-02T15:04:33Z</time></trkpt><trkpt lat="44.337558030912504" lon="7.49542491430669"><ele>627.0</ele><time>2026-05-02T15:04:34Z</time></trkpt><trkpt lat="44.33761811160774" lon="7.4953293360625555"><ele>627.0</ele><time>2026-05-02T15:04:35Z</time></trkpt><trkpt lat="44.33767618769211" lon="7.495229083464008"><ele>627.3333333333334</ele><time>2026-05-02T15:04:36Z</time></trkpt><trkpt lat="44.33773385094001" lon="7.495136433634357"><ele>627.6666666666666</ele><time>2026-05-02T15:04:37Z</time></trkpt><trkpt lat="44.33779361155423" lon="7.49506360901579"><ele>628.0</ele><time>2026-05-02T15:04:38Z</time></trkpt><trkpt lat="44.33785128211879" lon="7.495015501819834"><ele>628.3333333333333</ele><time>2026-05-02T15:04:39Z</time></trkpt><trkpt lat="44.337921533121616" lon="7.4949768371110785"><ele>628.6666666666666</ele><time>2026-05-02T15:04:40Z</time></trkpt><trkpt lat="44.33797226085838" lon="7.4949247155848555"><ele>629.0</ele><time>2026-05-02T15:04:41Z</time></trkpt><trkpt lat="44.33795188867153" lon="7.494766447658867"><ele>629.0</ele><time>2026-05-02T15:04:43Z</time></trkpt><trkpt lat="44.337891923384056" lon="7.494713774024056"><ele>629.0</ele><time>2026-05-02T15:04:44Z</time></trkpt><trkpt lat="44.3378164240211" lon="7.494690929896293"><ele>629.0</ele><time>2026-05-02T15:04:45Z</time></trkpt><trkpt lat="44.33772854299938" lon="7.494669507159832"><ele>629.0</ele><time>2026-05-02T15:04:46Z</time></trkpt><trkpt lat="44.337617958605755" lon="7.494604263867583"><ele>629.0</ele><time>2026-05-02T15:04:47Z</time></trkpt><trkpt lat="44.33748116001666" lon="7.494462585157434"><ele>629.25</ele><time>2026-05-02T15:04:48Z</time></trkpt><trkpt lat="44.33732317805704" lon="7.494290225859531"><ele>629.5</ele><time>2026-05-02T15:04:49Z</time></trkpt><trkpt lat="44.337203886570855" lon="7.49417385176363"><ele>629.75</ele><time>2026-05-02T15:04:50Z</time></trkpt><trkpt lat="44.337135683433516" lon="7.494101455075611"><ele>630.0</ele><time>2026-05-02T15:04:51Z</time></trkpt><trkpt lat="44.337080159921825" lon="7.493996423541187"><ele>630.0</ele><time>2026-05-02T15:04:53Z</time></trkpt><trkpt lat="44.337113382649775" lon="7.493790514292817"><ele>630.0</ele><time>2026-05-02T15:04:55Z</time></trkpt><trkpt lat="44.337142041763755" lon="7.493650178895987"><ele>630.0</ele><time>2026-05-02T15:04:56Z</time></trkpt><trkpt lat="44.33715476710505" lon="7.4935121612941336"><ele>630.0</ele><time>2026-05-02T15:04:57Z</time></trkpt><trkpt lat="44.337171499984905" lon="7.493384880754181"><ele>630.0</ele><time>2026-05-02T15:04:58Z</time></trkpt><trkpt lat="44.337176043957776" lon="7.49326549025042"><ele>630.25</ele><time>2026-05-02T15:04:59Z</time></trkpt><trkpt lat="44.337176015762886" lon="7.493151893261289"><ele>630.5</ele><time>2026-05-02T15:05:00Z</time></trkpt><trkpt lat="44.33718115610134" lon="7.4930633929452855"><ele>630.75</ele><time>2026-05-02T15:05:01Z</time></trkpt><trkpt lat="44.33693517109689" lon="7.492978037716005"><ele>631.0</ele><time>2026-05-02T15:05:07Z</time></trkpt><trkpt lat="44.336848773114724" lon="7.492990730888629"><ele>631.0</ele><time>2026-05-02T15:05:09Z</time></trkpt><trkpt lat="44.33682263052218" lon="7.492899550045313"><ele>633.0</ele><time>2026-05-02T15:06:08Z</time></trkpt><trkpt lat="44.33687458310497" lon="7.493078137191523"><ele>631.0</ele><time>2026-05-02T15:07:30.017Z</time></trkpt><trkpt lat="44.336841226761" lon="7.493161729192864"><ele>631.0</ele><time>2026-05-02T15:09:56.998Z</time></trkpt></trkseg></trk></gpx>